<?xml version="1.0" encoding="UTF-8" standalone="no" ?>
<gpx xmlns="http://www.topografix.com/GPX/1/1" xmlns:gpxtpx="http://www.garmin.com/xmlschemas/TrackPointExtension/v1" creator="OruxMaps v.6.0.7 Donate" version="1.1" xmlns:xsi="http://www.w3.org/2001/XMLSchema-instance" xsi:schemaLocation="http://www.topografix.com/GPX/1/1 http://www.topografix.com/GPX/1/1/gpx.xsd">
<metadata>
<name><![CDATA[2015-05-02 12:37]]></name>
<desc><![CDATA[]]></desc>
<link href="http://www.oruxmaps.com">
<text>OruxMaps</text>
</link>
<time>2015-05-02T09:37:33Z</time><bounds maxlat="35.0327816" maxlon="33.6581870" minlat="34.8914561" minlon="33.5683650"/>
</metadata>
<trk>
<name><![CDATA[2015-05-02 12:37]]></name>
<desc><![CDATA[<h1>OruxMaps</h1><br /><hr align="center" width="480" style="height: 2px; width: 517px"/><h2>Name: 2015-05-02 12:37</h2><br /><p>Start time: 05/02/2015 12:37</p><p>Finish time: 05/02/2015 18:53</p><p>Distance: 52.2km (06:16)</p><p>Moving time: 03:48</p><p>Average speed: 8.3km/h</p><p>Avg. Speed Mov.: 13.7km/h</p><p>Max. Speed: 40.3km/h</p><p>Minimum altitude: 2m</p><p>Maximum altitude: 186m</p><p>Ascent speed: 296.3m/h</p><p>Descent speed: -419.7m/h</p><p>Elevation gain: 907m</p><p>Elevation loss: -889m</p><p>Ascent time: 03:03</p><p>Descent time: 02:07</p><hr align="center" width="480" style="height: 2px; width: 517px"/>]]></desc>
<type>Undefined</type>
<extensions>
<om:oruxmapsextensions xmlns:om="http://www.oruxmaps.com/oruxmapsextensions/1/0">
<om:ext type="TYPE" subtype="0">0</om:ext>
</om:oruxmapsextensions>
</extensions>
<trkseg>
<trkpt lat="34.9281432" lon="33.6354294">
<ele>2.02</ele>
<time>2015-05-02T09:37:35Z</time>
</trkpt>
<trkpt lat="34.9281228" lon="33.6354787">
<ele>16.17</ele>
<time>2015-05-02T09:49:49Z</time>
</trkpt>
<trkpt lat="34.9280829" lon="33.6355155">
<ele>17.95</ele>
<time>2015-05-02T09:50:48Z</time>
</trkpt>
<trkpt lat="34.9280995" lon="33.6355666">
<ele>15.27</ele>
<time>2015-05-02T09:51:35Z</time>
</trkpt>
<trkpt lat="34.9281086" lon="33.6356384">
<ele>15.55</ele>
<time>2015-05-02T09:51:38Z</time>
</trkpt>
<trkpt lat="34.9281022" lon="33.6357232">
<ele>15.90</ele>
<time>2015-05-02T09:51:40Z</time>
</trkpt>
<trkpt lat="34.9280912" lon="33.6357953">
<ele>19.49</ele>
<time>2015-05-02T09:51:42Z</time>
</trkpt>
<trkpt lat="34.9281210" lon="33.6358593">
<ele>29.20</ele>
<time>2015-05-02T09:51:45Z</time>
</trkpt>
<trkpt lat="34.9281361" lon="33.6359161">
<ele>29.81</ele>
<time>2015-05-02T09:51:47Z</time>
</trkpt>
<trkpt lat="34.9281184" lon="33.6359778">
<ele>29.21</ele>
<time>2015-05-02T09:51:49Z</time>
</trkpt>
<trkpt lat="34.9280990" lon="33.6360482">
<ele>28.32</ele>
<time>2015-05-02T09:51:51Z</time>
</trkpt>
<trkpt lat="34.9280692" lon="33.6360901">
<ele>27.67</ele>
<time>2015-05-02T09:51:52Z</time>
</trkpt>
<trkpt lat="34.9280524" lon="33.6361603">
<ele>25.43</ele>
<time>2015-05-02T09:51:54Z</time>
</trkpt>
<trkpt lat="34.9280682" lon="33.6362295">
<ele>23.37</ele>
<time>2015-05-02T09:51:56Z</time>
</trkpt>
<trkpt lat="34.9280837" lon="33.6363104">
<ele>23.85</ele>
<time>2015-05-02T09:51:58Z</time>
</trkpt>
<trkpt lat="34.9280670" lon="33.6364079">
<ele>23.48</ele>
<time>2015-05-02T09:52:00Z</time>
</trkpt>
<trkpt lat="34.9280429" lon="33.6365106">
<ele>21.13</ele>
<time>2015-05-02T09:52:02Z</time>
</trkpt>
<trkpt lat="34.9280266" lon="33.6366129">
<ele>19.04</ele>
<time>2015-05-02T09:52:04Z</time>
</trkpt>
<trkpt lat="34.9280266" lon="33.6367016">
<ele>17.02</ele>
<time>2015-05-02T09:52:06Z</time>
</trkpt>
<trkpt lat="34.9280393" lon="33.6367789">
<ele>16.77</ele>
<time>2015-05-02T09:52:08Z</time>
</trkpt>
<trkpt lat="34.9280831" lon="33.6368178">
<ele>17.20</ele>
<time>2015-05-02T09:52:10Z</time>
</trkpt>
<trkpt lat="34.9281408" lon="33.6368298">
<ele>17.81</ele>
<time>2015-05-02T09:52:12Z</time>
</trkpt>
<trkpt lat="34.9281861" lon="33.6368396">
<ele>17.41</ele>
<time>2015-05-02T09:52:13Z</time>
</trkpt>
<trkpt lat="34.9282527" lon="33.6368591">
<ele>15.87</ele>
<time>2015-05-02T09:52:15Z</time>
</trkpt>
<trkpt lat="34.9283276" lon="33.6368761">
<ele>15.73</ele>
<time>2015-05-02T09:52:17Z</time>
</trkpt>
<trkpt lat="34.9284018" lon="33.6368952">
<ele>17.44</ele>
<time>2015-05-02T09:52:19Z</time>
</trkpt>
<trkpt lat="34.9285449" lon="33.6369484">
<ele>17.12</ele>
<time>2015-05-02T09:52:21Z</time>
</trkpt>
<trkpt lat="34.9285918" lon="33.6369680">
<ele>17.57</ele>
<time>2015-05-02T09:52:22Z</time>
</trkpt>
<trkpt lat="34.9286350" lon="33.6369855">
<ele>17.79</ele>
<time>2015-05-02T09:52:23Z</time>
</trkpt>
<trkpt lat="34.9286881" lon="33.6370029">
<ele>17.90</ele>
<time>2015-05-02T09:52:24Z</time>
</trkpt>
<trkpt lat="34.9287514" lon="33.6370021">
<ele>17.46</ele>
<time>2015-05-02T09:52:25Z</time>
</trkpt>
<trkpt lat="34.9288473" lon="33.6370231">
<ele>16.38</ele>
<time>2015-05-02T09:52:27Z</time>
</trkpt>
<trkpt lat="34.9288937" lon="33.6370310">
<ele>15.70</ele>
<time>2015-05-02T09:52:28Z</time>
</trkpt>
<trkpt lat="34.9289409" lon="33.6370502">
<ele>15.36</ele>
<time>2015-05-02T09:52:29Z</time>
</trkpt>
<trkpt lat="34.9289855" lon="33.6370579">
<ele>15.69</ele>
<time>2015-05-02T09:52:30Z</time>
</trkpt>
<trkpt lat="34.9290448" lon="33.6370599">
<ele>16.35</ele>
<time>2015-05-02T09:52:31Z</time>
</trkpt>
<trkpt lat="34.9290959" lon="33.6370684">
<ele>16.68</ele>
<time>2015-05-02T09:52:32Z</time>
</trkpt>
<trkpt lat="34.9291543" lon="33.6370764">
<ele>16.85</ele>
<time>2015-05-02T09:52:33Z</time>
</trkpt>
<trkpt lat="34.9292522" lon="33.6370799">
<ele>17.97</ele>
<time>2015-05-02T09:52:35Z</time>
</trkpt>
<trkpt lat="34.9293033" lon="33.6370766">
<ele>17.50</ele>
<time>2015-05-02T09:52:36Z</time>
</trkpt>
<trkpt lat="34.9293518" lon="33.6370552">
<ele>17.26</ele>
<time>2015-05-02T09:52:37Z</time>
</trkpt>
<trkpt lat="34.9293989" lon="33.6370260">
<ele>17.14</ele>
<time>2015-05-02T09:52:38Z</time>
</trkpt>
<trkpt lat="34.9294620" lon="33.6369724">
<ele>19.05</ele>
<time>2015-05-02T09:52:40Z</time>
</trkpt>
<trkpt lat="34.9295087" lon="33.6369573">
<ele>18.53</ele>
<time>2015-05-02T09:52:41Z</time>
</trkpt>
<trkpt lat="34.9296006" lon="33.6369575">
<ele>20.14</ele>
<time>2015-05-02T09:52:43Z</time>
</trkpt>
<trkpt lat="34.9296531" lon="33.6369634">
<ele>20.58</ele>
<time>2015-05-02T09:52:44Z</time>
</trkpt>
<trkpt lat="34.9297052" lon="33.6369466">
<ele>20.30</ele>
<time>2015-05-02T09:52:45Z</time>
</trkpt>
<trkpt lat="34.9297529" lon="33.6369418">
<ele>19.66</ele>
<time>2015-05-02T09:52:46Z</time>
</trkpt>
<trkpt lat="34.9297984" lon="33.6369128">
<ele>18.84</ele>
<time>2015-05-02T09:52:47Z</time>
</trkpt>
<trkpt lat="34.9298368" lon="33.6368740">
<ele>17.93</ele>
<time>2015-05-02T09:52:48Z</time>
</trkpt>
<trkpt lat="34.9298708" lon="33.6368161">
<ele>16.97</ele>
<time>2015-05-02T09:52:49Z</time>
</trkpt>
<trkpt lat="34.9299092" lon="33.6367642">
<ele>16.49</ele>
<time>2015-05-02T09:52:50Z</time>
</trkpt>
<trkpt lat="34.9299473" lon="33.6367185">
<ele>15.75</ele>
<time>2015-05-02T09:52:51Z</time>
</trkpt>
<trkpt lat="34.9299803" lon="33.6366484">
<ele>14.89</ele>
<time>2015-05-02T09:52:52Z</time>
</trkpt>
<trkpt lat="34.9300263" lon="33.6366013">
<ele>14.45</ele>
<time>2015-05-02T09:52:53Z</time>
</trkpt>
<trkpt lat="34.9300720" lon="33.6365355">
<ele>15.23</ele>
<time>2015-05-02T09:52:54Z</time>
</trkpt>
<trkpt lat="34.9301247" lon="33.6364998">
<ele>16.12</ele>
<time>2015-05-02T09:52:55Z</time>
</trkpt>
<trkpt lat="34.9301831" lon="33.6364748">
<ele>16.07</ele>
<time>2015-05-02T09:52:56Z</time>
</trkpt>
<trkpt lat="34.9302458" lon="33.6364682">
<ele>15.54</ele>
<time>2015-05-02T09:52:57Z</time>
</trkpt>
<trkpt lat="34.9303053" lon="33.6364670">
<ele>15.28</ele>
<time>2015-05-02T09:52:58Z</time>
</trkpt>
<trkpt lat="34.9303582" lon="33.6364771">
<ele>15.15</ele>
<time>2015-05-02T09:52:59Z</time>
</trkpt>
<trkpt lat="34.9304203" lon="33.6365052">
<ele>15.08</ele>
<time>2015-05-02T09:53:00Z</time>
</trkpt>
<trkpt lat="34.9304744" lon="33.6365456">
<ele>15.05</ele>
<time>2015-05-02T09:53:01Z</time>
</trkpt>
<trkpt lat="34.9305230" lon="33.6365986">
<ele>15.03</ele>
<time>2015-05-02T09:53:02Z</time>
</trkpt>
<trkpt lat="34.9305607" lon="33.6366545">
<ele>14.52</ele>
<time>2015-05-02T09:53:03Z</time>
</trkpt>
<trkpt lat="34.9305972" lon="33.6367134">
<ele>14.27</ele>
<time>2015-05-02T09:53:04Z</time>
</trkpt>
<trkpt lat="34.9306367" lon="33.6367760">
<ele>13.64</ele>
<time>2015-05-02T09:53:05Z</time>
</trkpt>
<trkpt lat="34.9306628" lon="33.6368446">
<ele>13.33</ele>
<time>2015-05-02T09:53:06Z</time>
</trkpt>
<trkpt lat="34.9306865" lon="33.6369026">
<ele>13.17</ele>
<time>2015-05-02T09:53:07Z</time>
</trkpt>
<trkpt lat="34.9307145" lon="33.6369497">
<ele>13.09</ele>
<time>2015-05-02T09:53:08Z</time>
</trkpt>
<trkpt lat="34.9307520" lon="33.6370188">
<ele>12.52</ele>
<time>2015-05-02T09:53:32Z</time>
</trkpt>
<trkpt lat="34.9307878" lon="33.6370850">
<ele>11.89</ele>
<time>2015-05-02T09:53:34Z</time>
</trkpt>
<trkpt lat="34.9308414" lon="33.6371541">
<ele>11.98</ele>
<time>2015-05-02T09:53:36Z</time>
</trkpt>
<trkpt lat="34.9309050" lon="33.6372213">
<ele>12.01</ele>
<time>2015-05-02T09:53:38Z</time>
</trkpt>
<trkpt lat="34.9309423" lon="33.6372533">
<ele>11.51</ele>
<time>2015-05-02T09:53:39Z</time>
</trkpt>
<trkpt lat="34.9309834" lon="33.6372974">
<ele>11.26</ele>
<time>2015-05-02T09:53:40Z</time>
</trkpt>
<trkpt lat="34.9310277" lon="33.6373312">
<ele>12.14</ele>
<time>2015-05-02T09:53:41Z</time>
</trkpt>
<trkpt lat="34.9310766" lon="33.6373688">
<ele>12.08</ele>
<time>2015-05-02T09:53:42Z</time>
</trkpt>
<trkpt lat="34.9311216" lon="33.6374038">
<ele>12.05</ele>
<time>2015-05-02T09:53:43Z</time>
</trkpt>
<trkpt lat="34.9311777" lon="33.6374447">
<ele>12.03</ele>
<time>2015-05-02T09:53:44Z</time>
</trkpt>
<trkpt lat="34.9312236" lon="33.6374831">
<ele>12.02</ele>
<time>2015-05-02T09:53:45Z</time>
</trkpt>
<trkpt lat="34.9312690" lon="33.6375165">
<ele>12.52</ele>
<time>2015-05-02T09:53:46Z</time>
</trkpt>
<trkpt lat="34.9313213" lon="33.6375495">
<ele>13.27</ele>
<time>2015-05-02T09:53:47Z</time>
</trkpt>
<trkpt lat="34.9314114" lon="33.6376129">
<ele>13.83</ele>
<time>2015-05-02T09:53:49Z</time>
</trkpt>
<trkpt lat="34.9314628" lon="33.6376301">
<ele>13.92</ele>
<time>2015-05-02T09:53:50Z</time>
</trkpt>
<trkpt lat="34.9315205" lon="33.6376672">
<ele>13.97</ele>
<time>2015-05-02T09:53:51Z</time>
</trkpt>
<trkpt lat="34.9315814" lon="33.6377061">
<ele>13.99</ele>
<time>2015-05-02T09:53:52Z</time>
</trkpt>
<trkpt lat="34.9316453" lon="33.6377441">
<ele>13.50</ele>
<time>2015-05-02T09:53:53Z</time>
</trkpt>
<trkpt lat="34.9317065" lon="33.6377838">
<ele>12.76</ele>
<time>2015-05-02T09:53:54Z</time>
</trkpt>
<trkpt lat="34.9317660" lon="33.6378089">
<ele>12.39</ele>
<time>2015-05-02T09:53:55Z</time>
</trkpt>
<trkpt lat="34.9318377" lon="33.6378368">
<ele>12.70</ele>
<time>2015-05-02T09:53:56Z</time>
</trkpt>
<trkpt lat="34.9318958" lon="33.6378755">
<ele>12.36</ele>
<time>2015-05-02T09:53:57Z</time>
</trkpt>
<trkpt lat="34.9319604" lon="33.6379083">
<ele>12.19</ele>
<time>2015-05-02T09:53:58Z</time>
</trkpt>
<trkpt lat="34.9320278" lon="33.6379333">
<ele>12.60</ele>
<time>2015-05-02T09:53:59Z</time>
</trkpt>
<trkpt lat="34.9320872" lon="33.6379564">
<ele>12.31</ele>
<time>2015-05-02T09:54:00Z</time>
</trkpt>
<trkpt lat="34.9321556" lon="33.6379829">
<ele>12.16</ele>
<time>2015-05-02T09:54:01Z</time>
</trkpt>
<trkpt lat="34.9322190" lon="33.6380164">
<ele>12.09</ele>
<time>2015-05-02T09:54:02Z</time>
</trkpt>
<trkpt lat="34.9322729" lon="33.6380480">
<ele>12.05</ele>
<time>2015-05-02T09:54:03Z</time>
</trkpt>
<trkpt lat="34.9323402" lon="33.6380802">
<ele>11.53</ele>
<time>2015-05-02T09:54:04Z</time>
</trkpt>
<trkpt lat="34.9324044" lon="33.6381033">
<ele>11.78</ele>
<time>2015-05-02T09:54:05Z</time>
</trkpt>
<trkpt lat="34.9324706" lon="33.6381364">
<ele>11.90</ele>
<time>2015-05-02T09:54:06Z</time>
</trkpt>
<trkpt lat="34.9325366" lon="33.6381689">
<ele>11.96</ele>
<time>2015-05-02T09:54:07Z</time>
</trkpt>
<trkpt lat="34.9326067" lon="33.6381980">
<ele>11.49</ele>
<time>2015-05-02T09:54:08Z</time>
</trkpt>
<trkpt lat="34.9326685" lon="33.6382174">
<ele>11.75</ele>
<time>2015-05-02T09:54:09Z</time>
</trkpt>
<trkpt lat="34.9327316" lon="33.6382516">
<ele>11.88</ele>
<time>2015-05-02T09:54:10Z</time>
</trkpt>
<trkpt lat="34.9328282" lon="33.6382855">
<ele>13.73</ele>
<time>2015-05-02T09:54:12Z</time>
</trkpt>
<trkpt lat="34.9328962" lon="33.6383336">
<ele>14.37</ele>
<time>2015-05-02T09:54:13Z</time>
</trkpt>
<trkpt lat="34.9329506" lon="33.6383664">
<ele>14.20</ele>
<time>2015-05-02T09:54:14Z</time>
</trkpt>
<trkpt lat="34.9330217" lon="33.6384052">
<ele>15.11</ele>
<time>2015-05-02T09:54:15Z</time>
</trkpt>
<trkpt lat="34.9330957" lon="33.6384365">
<ele>15.06</ele>
<time>2015-05-02T09:54:16Z</time>
</trkpt>
<trkpt lat="34.9331676" lon="33.6384810">
<ele>15.04</ele>
<time>2015-05-02T09:54:17Z</time>
</trkpt>
<trkpt lat="34.9332334" lon="33.6385054">
<ele>15.03</ele>
<time>2015-05-02T09:54:18Z</time>
</trkpt>
<trkpt lat="34.9333032" lon="33.6385245">
<ele>14.52</ele>
<time>2015-05-02T09:54:19Z</time>
</trkpt>
<trkpt lat="34.9333731" lon="33.6385694">
<ele>14.27</ele>
<time>2015-05-02T09:54:20Z</time>
</trkpt>
<trkpt lat="34.9334486" lon="33.6385979">
<ele>13.14</ele>
<time>2015-05-02T09:54:21Z</time>
</trkpt>
<trkpt lat="34.9335057" lon="33.6386314">
<ele>12.58</ele>
<time>2015-05-02T09:54:22Z</time>
</trkpt>
<trkpt lat="34.9335802" lon="33.6386653">
<ele>12.30</ele>
<time>2015-05-02T09:54:23Z</time>
</trkpt>
<trkpt lat="34.9336394" lon="33.6387036">
<ele>12.16</ele>
<time>2015-05-02T09:54:24Z</time>
</trkpt>
<trkpt lat="34.9337034" lon="33.6387334">
<ele>11.59</ele>
<time>2015-05-02T09:54:25Z</time>
</trkpt>
<trkpt lat="34.9337681" lon="33.6387769">
<ele>10.80</ele>
<time>2015-05-02T09:54:26Z</time>
</trkpt>
<trkpt lat="34.9338277" lon="33.6388154">
<ele>10.41</ele>
<time>2015-05-02T09:54:27Z</time>
</trkpt>
<trkpt lat="34.9338929" lon="33.6388461">
<ele>9.71</ele>
<time>2015-05-02T09:54:28Z</time>
</trkpt>
<trkpt lat="34.9339546" lon="33.6388826">
<ele>9.86</ele>
<time>2015-05-02T09:54:29Z</time>
</trkpt>
<trkpt lat="34.9340221" lon="33.6389290">
<ele>9.44</ele>
<time>2015-05-02T09:54:30Z</time>
</trkpt>
<trkpt lat="34.9340893" lon="33.6389704">
<ele>9.23</ele>
<time>2015-05-02T09:54:31Z</time>
</trkpt>
<trkpt lat="34.9341480" lon="33.6390178">
<ele>9.12</ele>
<time>2015-05-02T09:54:32Z</time>
</trkpt>
<trkpt lat="34.9342127" lon="33.6390725">
<ele>9.07</ele>
<time>2015-05-02T09:54:33Z</time>
</trkpt>
<trkpt lat="34.9342686" lon="33.6391076">
<ele>9.54</ele>
<time>2015-05-02T09:54:34Z</time>
</trkpt>
<trkpt lat="34.9343313" lon="33.6391595">
<ele>9.78</ele>
<time>2015-05-02T09:54:35Z</time>
</trkpt>
<trkpt lat="34.9343998" lon="33.6392041">
<ele>10.40</ele>
<time>2015-05-02T09:54:36Z</time>
</trkpt>
<trkpt lat="34.9344547" lon="33.6392507">
<ele>11.21</ele>
<time>2015-05-02T09:54:37Z</time>
</trkpt>
<trkpt lat="34.9345090" lon="33.6392892">
<ele>12.11</ele>
<time>2015-05-02T09:54:38Z</time>
</trkpt>
<trkpt lat="34.9345746" lon="33.6393356">
<ele>12.56</ele>
<time>2015-05-02T09:54:39Z</time>
</trkpt>
<trkpt lat="34.9346413" lon="33.6393811">
<ele>12.29</ele>
<time>2015-05-02T09:54:40Z</time>
</trkpt>
<trkpt lat="34.9346977" lon="33.6394187">
<ele>12.15</ele>
<time>2015-05-02T09:54:41Z</time>
</trkpt>
<trkpt lat="34.9347433" lon="33.6394709">
<ele>13.08</ele>
<time>2015-05-02T09:54:42Z</time>
</trkpt>
<trkpt lat="34.9348054" lon="33.6395017">
<ele>14.03</ele>
<time>2015-05-02T09:54:44Z</time>
</trkpt>
<trkpt lat="34.9348775" lon="33.6395236">
<ele>13.14</ele>
<time>2015-05-02T09:54:49Z</time>
</trkpt>
<trkpt lat="34.9349345" lon="33.6395512">
<ele>11.80</ele>
<time>2015-05-02T09:54:51Z</time>
</trkpt>
<trkpt lat="34.9349955" lon="33.6395855">
<ele>11.71</ele>
<time>2015-05-02T09:54:53Z</time>
</trkpt>
<trkpt lat="34.9350659" lon="33.6396396">
<ele>11.94</ele>
<time>2015-05-02T09:54:55Z</time>
</trkpt>
<trkpt lat="34.9351041" lon="33.6396732">
<ele>11.98</ele>
<time>2015-05-02T09:54:56Z</time>
</trkpt>
<trkpt lat="34.9351437" lon="33.6397087">
<ele>12.50</ele>
<time>2015-05-02T09:54:57Z</time>
</trkpt>
<trkpt lat="34.9351868" lon="33.6397432">
<ele>12.76</ele>
<time>2015-05-02T09:54:58Z</time>
</trkpt>
<trkpt lat="34.9352276" lon="33.6397741">
<ele>12.39</ele>
<time>2015-05-02T09:54:59Z</time>
</trkpt>
<trkpt lat="34.9352778" lon="33.6398072">
<ele>12.20</ele>
<time>2015-05-02T09:55:00Z</time>
</trkpt>
<trkpt lat="34.9353258" lon="33.6398467">
<ele>12.61</ele>
<time>2015-05-02T09:55:01Z</time>
</trkpt>
<trkpt lat="34.9354108" lon="33.6399027">
<ele>12.91</ele>
<time>2015-05-02T09:55:03Z</time>
</trkpt>
<trkpt lat="34.9354628" lon="33.6399345">
<ele>12.97</ele>
<time>2015-05-02T09:55:04Z</time>
</trkpt>
<trkpt lat="34.9355145" lon="33.6399680">
<ele>13.99</ele>
<time>2015-05-02T09:55:05Z</time>
</trkpt>
<trkpt lat="34.9355556" lon="33.6399957">
<ele>14.50</ele>
<time>2015-05-02T09:55:06Z</time>
</trkpt>
<trkpt lat="34.9356030" lon="33.6400225">
<ele>15.26</ele>
<time>2015-05-02T09:55:07Z</time>
</trkpt>
<trkpt lat="34.9356529" lon="33.6400547">
<ele>16.14</ele>
<time>2015-05-02T09:55:08Z</time>
</trkpt>
<trkpt lat="34.9356983" lon="33.6400840">
<ele>17.08</ele>
<time>2015-05-02T09:55:09Z</time>
</trkpt>
<trkpt lat="34.9357538" lon="33.6401189">
<ele>17.05</ele>
<time>2015-05-02T09:55:10Z</time>
</trkpt>
<trkpt lat="34.9358061" lon="33.6401540">
<ele>17.03</ele>
<time>2015-05-02T09:55:11Z</time>
</trkpt>
<trkpt lat="34.9358508" lon="33.6401694">
<ele>18.52</ele>
<time>2015-05-02T09:55:12Z</time>
</trkpt>
<trkpt lat="34.9358969" lon="33.6401871">
<ele>19.77</ele>
<time>2015-05-02T09:55:13Z</time>
</trkpt>
<trkpt lat="34.9359545" lon="33.6402140">
<ele>19.89</ele>
<time>2015-05-02T09:55:14Z</time>
</trkpt>
<trkpt lat="34.9360053" lon="33.6402319">
<ele>19.45</ele>
<time>2015-05-02T09:55:15Z</time>
</trkpt>
<trkpt lat="34.9360672" lon="33.6402584">
<ele>18.74</ele>
<time>2015-05-02T09:55:16Z</time>
</trkpt>
<trkpt lat="34.9361258" lon="33.6402756">
<ele>18.38</ele>
<time>2015-05-02T09:55:17Z</time>
</trkpt>
<trkpt lat="34.9361724" lon="33.6403017">
<ele>18.70</ele>
<time>2015-05-02T09:55:18Z</time>
</trkpt>
<trkpt lat="34.9362212" lon="33.6403150">
<ele>18.86</ele>
<time>2015-05-02T09:55:19Z</time>
</trkpt>
<trkpt lat="34.9362765" lon="33.6403383">
<ele>18.44</ele>
<time>2015-05-02T09:55:20Z</time>
</trkpt>
<trkpt lat="34.9363357" lon="33.6403594">
<ele>18.23</ele>
<time>2015-05-02T09:55:21Z</time>
</trkpt>
<trkpt lat="34.9363936" lon="33.6403761">
<ele>18.12</ele>
<time>2015-05-02T09:55:22Z</time>
</trkpt>
<trkpt lat="34.9364485" lon="33.6403931">
<ele>18.07</ele>
<time>2015-05-02T09:55:23Z</time>
</trkpt>
<trkpt lat="34.9365143" lon="33.6404248">
<ele>17.54</ele>
<time>2015-05-02T09:55:24Z</time>
</trkpt>
<trkpt lat="34.9365762" lon="33.6404536">
<ele>17.78</ele>
<time>2015-05-02T09:55:25Z</time>
</trkpt>
<trkpt lat="34.9366338" lon="33.6404754">
<ele>17.40</ele>
<time>2015-05-02T09:55:26Z</time>
</trkpt>
<trkpt lat="34.9366916" lon="33.6404987">
<ele>17.21</ele>
<time>2015-05-02T09:55:27Z</time>
</trkpt>
<trkpt lat="34.9367513" lon="33.6405197">
<ele>17.11</ele>
<time>2015-05-02T09:55:28Z</time>
</trkpt>
<trkpt lat="34.9368112" lon="33.6405368">
<ele>16.56</ele>
<time>2015-05-02T09:55:29Z</time>
</trkpt>
<trkpt lat="34.9368729" lon="33.6405481">
<ele>17.79</ele>
<time>2015-05-02T09:55:30Z</time>
</trkpt>
<trkpt lat="34.9369221" lon="33.6405770">
<ele>18.40</ele>
<time>2015-05-02T09:55:31Z</time>
</trkpt>
<trkpt lat="34.9369931" lon="33.6406044">
<ele>18.71</ele>
<time>2015-05-02T09:55:32Z</time>
</trkpt>
<trkpt lat="34.9370576" lon="33.6406338">
<ele>18.86</ele>
<time>2015-05-02T09:55:33Z</time>
</trkpt>
<trkpt lat="34.9371216" lon="33.6406522">
<ele>18.44</ele>
<time>2015-05-02T09:55:34Z</time>
</trkpt>
<trkpt lat="34.9371822" lon="33.6406784">
<ele>18.23</ele>
<time>2015-05-02T09:55:35Z</time>
</trkpt>
<trkpt lat="34.9372475" lon="33.6406901">
<ele>19.12</ele>
<time>2015-05-02T09:55:36Z</time>
</trkpt>
<trkpt lat="34.9373010" lon="33.6407029">
<ele>19.57</ele>
<time>2015-05-02T09:55:37Z</time>
</trkpt>
<trkpt lat="34.9373501" lon="33.6407244">
<ele>20.29</ele>
<time>2015-05-02T09:55:38Z</time>
</trkpt>
<trkpt lat="34.9374064" lon="33.6407383">
<ele>20.65</ele>
<time>2015-05-02T09:55:39Z</time>
</trkpt>
<trkpt lat="34.9374576" lon="33.6407561">
<ele>21.34</ele>
<time>2015-05-02T09:55:40Z</time>
</trkpt>
<trkpt lat="34.9375419" lon="33.6407378">
<ele>21.35</ele>
<time>2015-05-02T09:55:42Z</time>
</trkpt>
<trkpt lat="34.9375875" lon="33.6407102">
<ele>20.85</ele>
<time>2015-05-02T09:55:44Z</time>
</trkpt>
<trkpt lat="34.9376386" lon="33.6407470">
<ele>21.76</ele>
<time>2015-05-02T09:55:49Z</time>
</trkpt>
<trkpt lat="34.9377010" lon="33.6407680">
<ele>22.86</ele>
<time>2015-05-02T09:55:52Z</time>
</trkpt>
<trkpt lat="34.9377496" lon="33.6407715">
<ele>22.23</ele>
<time>2015-05-02T09:55:54Z</time>
</trkpt>
<trkpt lat="34.9377980" lon="33.6407887">
<ele>22.32</ele>
<time>2015-05-02T09:55:56Z</time>
</trkpt>
<trkpt lat="34.9378404" lon="33.6408429">
<ele>21.59</ele>
<time>2015-05-02T09:55:58Z</time>
</trkpt>
<trkpt lat="34.9379026" lon="33.6409005">
<ele>19.91</ele>
<time>2015-05-02T09:56:00Z</time>
</trkpt>
<trkpt lat="34.9379868" lon="33.6409376">
<ele>19.99</ele>
<time>2015-05-02T09:56:02Z</time>
</trkpt>
<trkpt lat="34.9380781" lon="33.6409681">
<ele>19.51</ele>
<time>2015-05-02T09:56:04Z</time>
</trkpt>
<trkpt lat="34.9381531" lon="33.6409855">
<ele>18.76</ele>
<time>2015-05-02T09:56:05Z</time>
</trkpt>
<trkpt lat="34.9382048" lon="33.6410056">
<ele>17.89</ele>
<time>2015-05-02T09:56:06Z</time>
</trkpt>
<trkpt lat="34.9382550" lon="33.6410179">
<ele>17.45</ele>
<time>2015-05-02T09:56:07Z</time>
</trkpt>
<trkpt lat="34.9383015" lon="33.6410381">
<ele>17.23</ele>
<time>2015-05-02T09:56:08Z</time>
</trkpt>
<trkpt lat="34.9383474" lon="33.6410576">
<ele>16.63</ele>
<time>2015-05-02T09:56:09Z</time>
</trkpt>
<trkpt lat="34.9383969" lon="33.6410701">
<ele>16.32</ele>
<time>2015-05-02T09:56:10Z</time>
</trkpt>
<trkpt lat="34.9384396" lon="33.6410921">
<ele>16.17</ele>
<time>2015-05-02T09:56:11Z</time>
</trkpt>
<trkpt lat="34.9384975" lon="33.6411117">
<ele>16.09</ele>
<time>2015-05-02T09:56:12Z</time>
</trkpt>
<trkpt lat="34.9385809" lon="33.6411199">
<ele>17.29</ele>
<time>2015-05-02T09:56:14Z</time>
</trkpt>
<trkpt lat="34.9386287" lon="33.6411405">
<ele>17.65</ele>
<time>2015-05-02T09:56:15Z</time>
</trkpt>
<trkpt lat="34.9386887" lon="33.6411601">
<ele>17.33</ele>
<time>2015-05-02T09:56:16Z</time>
</trkpt>
<trkpt lat="34.9387497" lon="33.6411721">
<ele>16.67</ele>
<time>2015-05-02T09:56:17Z</time>
</trkpt>
<trkpt lat="34.9388026" lon="33.6411978">
<ele>16.35</ele>
<time>2015-05-02T09:56:18Z</time>
</trkpt>
<trkpt lat="34.9388486" lon="33.6412283">
<ele>15.68</ele>
<time>2015-05-02T09:56:19Z</time>
</trkpt>
<trkpt lat="34.9388974" lon="33.6412477">
<ele>16.35</ele>
<time>2015-05-02T09:56:20Z</time>
</trkpt>
<trkpt lat="34.9389432" lon="33.6412726">
<ele>16.18</ele>
<time>2015-05-02T09:56:21Z</time>
</trkpt>
<trkpt lat="34.9390001" lon="33.6412892">
<ele>16.10</ele>
<time>2015-05-02T09:56:22Z</time>
</trkpt>
<trkpt lat="34.9390564" lon="33.6413200">
<ele>16.06</ele>
<time>2015-05-02T09:56:23Z</time>
</trkpt>
<trkpt lat="34.9391104" lon="33.6413423">
<ele>16.04</ele>
<time>2015-05-02T09:56:24Z</time>
</trkpt>
<trkpt lat="34.9391699" lon="33.6413727">
<ele>15.53</ele>
<time>2015-05-02T09:56:25Z</time>
</trkpt>
<trkpt lat="34.9392386" lon="33.6413868">
<ele>14.77</ele>
<time>2015-05-02T09:56:26Z</time>
</trkpt>
<trkpt lat="34.9393382" lon="33.6414286">
<ele>12.95</ele>
<time>2015-05-02T09:56:28Z</time>
</trkpt>
<trkpt lat="34.9393915" lon="33.6414546">
<ele>12.49</ele>
<time>2015-05-02T09:56:29Z</time>
</trkpt>
<trkpt lat="34.9394355" lon="33.6414774">
<ele>11.75</ele>
<time>2015-05-02T09:56:30Z</time>
</trkpt>
<trkpt lat="34.9394912" lon="33.6414998">
<ele>11.88</ele>
<time>2015-05-02T09:56:31Z</time>
</trkpt>
<trkpt lat="34.9395419" lon="33.6415128">
<ele>11.95</ele>
<time>2015-05-02T09:56:32Z</time>
</trkpt>
<trkpt lat="34.9395921" lon="33.6415287">
<ele>11.98</ele>
<time>2015-05-02T09:56:33Z</time>
</trkpt>
<trkpt lat="34.9396506" lon="33.6415446">
<ele>12.00</ele>
<time>2015-05-02T09:56:34Z</time>
</trkpt>
<trkpt lat="34.9397018" lon="33.6415608">
<ele>11.51</ele>
<time>2015-05-02T09:56:35Z</time>
</trkpt>
<trkpt lat="34.9397626" lon="33.6415706">
<ele>11.26</ele>
<time>2015-05-02T09:56:36Z</time>
</trkpt>
<trkpt lat="34.9398157" lon="33.6415788">
<ele>11.14</ele>
<time>2015-05-02T09:56:37Z</time>
</trkpt>
<trkpt lat="34.9398694" lon="33.6415739">
<ele>11.08</ele>
<time>2015-05-02T09:56:38Z</time>
</trkpt>
<trkpt lat="34.9399291" lon="33.6416106">
<ele>11.55</ele>
<time>2015-05-02T09:56:39Z</time>
</trkpt>
<trkpt lat="34.9399856" lon="33.6416497">
<ele>11.78</ele>
<time>2015-05-02T09:56:40Z</time>
</trkpt>
<trkpt lat="34.9400304" lon="33.6416768">
<ele>11.90</ele>
<time>2015-05-02T09:56:41Z</time>
</trkpt>
<trkpt lat="34.9400808" lon="33.6417076">
<ele>11.96</ele>
<time>2015-05-02T09:56:42Z</time>
</trkpt>
<trkpt lat="34.9401756" lon="33.6417458">
<ele>12.50</ele>
<time>2015-05-02T09:56:44Z</time>
</trkpt>
<trkpt lat="34.9402213" lon="33.6417698">
<ele>12.76</ele>
<time>2015-05-02T09:56:45Z</time>
</trkpt>
<trkpt lat="34.9403010" lon="33.6418017">
<ele>12.95</ele>
<time>2015-05-02T09:56:47Z</time>
</trkpt>
<trkpt lat="34.9403446" lon="33.6418247">
<ele>14.00</ele>
<time>2015-05-02T09:56:49Z</time>
</trkpt>
<trkpt lat="34.9403869" lon="33.6418532">
<ele>16.89</ele>
<time>2015-05-02T09:56:52Z</time>
</trkpt>
<trkpt lat="34.9404470" lon="33.6418733">
<ele>20.98</ele>
<time>2015-05-02T09:56:54Z</time>
</trkpt>
<trkpt lat="34.9405194" lon="33.6419132">
<ele>23.26</ele>
<time>2015-05-02T09:56:56Z</time>
</trkpt>
<trkpt lat="34.9405616" lon="33.6419327">
<ele>23.64</ele>
<time>2015-05-02T09:56:57Z</time>
</trkpt>
<trkpt lat="34.9406373" lon="33.6419621">
<ele>23.92</ele>
<time>2015-05-02T09:56:59Z</time>
</trkpt>
<trkpt lat="34.9406799" lon="33.6419909">
<ele>23.97</ele>
<time>2015-05-02T09:57:00Z</time>
</trkpt>
<trkpt lat="34.9407230" lon="33.6420071">
<ele>23.99</ele>
<time>2015-05-02T09:57:01Z</time>
</trkpt>
<trkpt lat="34.9407756" lon="33.6420320">
<ele>23.50</ele>
<time>2015-05-02T09:57:02Z</time>
</trkpt>
<trkpt lat="34.9408293" lon="33.6420547">
<ele>23.26</ele>
<time>2015-05-02T09:57:03Z</time>
</trkpt>
<trkpt lat="34.9408781" lon="33.6420679">
<ele>23.14</ele>
<time>2015-05-02T09:57:04Z</time>
</trkpt>
<trkpt lat="34.9409313" lon="33.6420938">
<ele>22.58</ele>
<time>2015-05-02T09:57:05Z</time>
</trkpt>
<trkpt lat="34.9409948" lon="33.6420995">
<ele>22.30</ele>
<time>2015-05-02T09:57:06Z</time>
</trkpt>
<trkpt lat="34.9410354" lon="33.6421238">
<ele>21.66</ele>
<time>2015-05-02T09:57:07Z</time>
</trkpt>
<trkpt lat="34.9410816" lon="33.6421460">
<ele>22.34</ele>
<time>2015-05-02T09:57:08Z</time>
</trkpt>
<trkpt lat="34.9411699" lon="33.6421654">
<ele>23.10</ele>
<time>2015-05-02T09:57:10Z</time>
</trkpt>
<trkpt lat="34.9412582" lon="33.6422212">
<ele>23.04</ele>
<time>2015-05-02T09:57:12Z</time>
</trkpt>
<trkpt lat="34.9413066" lon="33.6422512">
<ele>22.53</ele>
<time>2015-05-02T09:57:13Z</time>
</trkpt>
<trkpt lat="34.9413625" lon="33.6422680">
<ele>22.77</ele>
<time>2015-05-02T09:57:14Z</time>
</trkpt>
<trkpt lat="34.9414138" lon="33.6422901">
<ele>22.39</ele>
<time>2015-05-02T09:57:15Z</time>
</trkpt>
<trkpt lat="34.9414787" lon="33.6423239">
<ele>22.20</ele>
<time>2015-05-02T09:57:16Z</time>
</trkpt>
<trkpt lat="34.9415358" lon="33.6423456">
<ele>22.61</ele>
<time>2015-05-02T09:57:17Z</time>
</trkpt>
<trkpt lat="34.9415842" lon="33.6423767">
<ele>23.31</ele>
<time>2015-05-02T09:57:18Z</time>
</trkpt>
<trkpt lat="34.9416452" lon="33.6423977">
<ele>23.16</ele>
<time>2015-05-02T09:57:19Z</time>
</trkpt>
<trkpt lat="34.9416976" lon="33.6424226">
<ele>23.59</ele>
<time>2015-05-02T09:57:20Z</time>
</trkpt>
<trkpt lat="34.9417597" lon="33.6424421">
<ele>23.80</ele>
<time>2015-05-02T09:57:21Z</time>
</trkpt>
<trkpt lat="34.9418226" lon="33.6424594">
<ele>23.91</ele>
<time>2015-05-02T09:57:22Z</time>
</trkpt>
<trkpt lat="34.9418870" lon="33.6424730">
<ele>22.96</ele>
<time>2015-05-02T09:57:23Z</time>
</trkpt>
<trkpt lat="34.9419486" lon="33.6424914">
<ele>23.49</ele>
<time>2015-05-02T09:57:24Z</time>
</trkpt>
<trkpt lat="34.9420064" lon="33.6425149">
<ele>23.25</ele>
<time>2015-05-02T09:57:25Z</time>
</trkpt>
<trkpt lat="34.9420758" lon="33.6425211">
<ele>22.13</ele>
<time>2015-05-02T09:57:26Z</time>
</trkpt>
<trkpt lat="34.9421294" lon="33.6425384">
<ele>21.58</ele>
<time>2015-05-02T09:57:27Z</time>
</trkpt>
<trkpt lat="34.9421744" lon="33.6425553">
<ele>21.30</ele>
<time>2015-05-02T09:57:28Z</time>
</trkpt>
<trkpt lat="34.9422294" lon="33.6425578">
<ele>20.16</ele>
<time>2015-05-02T09:57:29Z</time>
</trkpt>
<trkpt lat="34.9422994" lon="33.6425911">
<ele>18.05</ele>
<time>2015-05-02T09:57:31Z</time>
</trkpt>
<trkpt lat="34.9423451" lon="33.6425662">
<ele>16.58</ele>
<time>2015-05-02T09:57:35Z</time>
</trkpt>
<trkpt lat="34.9424107" lon="33.6425756">
<ele>15.34</ele>
<time>2015-05-02T09:57:38Z</time>
</trkpt>
<trkpt lat="34.9424636" lon="33.6425722">
<ele>13.85</ele>
<time>2015-05-02T09:57:40Z</time>
</trkpt>
<trkpt lat="34.9425271" lon="33.6425521">
<ele>11.47</ele>
<time>2015-05-02T09:57:42Z</time>
</trkpt>
<trkpt lat="34.9426242" lon="33.6424942">
<ele>9.63</ele>
<time>2015-05-02T09:57:44Z</time>
</trkpt>
<trkpt lat="34.9426802" lon="33.6424479">
<ele>9.17</ele>
<time>2015-05-02T09:57:46Z</time>
</trkpt>
<trkpt lat="34.9427439" lon="33.6423998">
<ele>8.55</ele>
<time>2015-05-02T09:57:48Z</time>
</trkpt>
<trkpt lat="34.9427743" lon="33.6423578">
<ele>8.40</ele>
<time>2015-05-02T09:57:50Z</time>
</trkpt>
<trkpt lat="34.9427982" lon="33.6423031">
<ele>10.23</ele>
<time>2015-05-02T09:57:54Z</time>
</trkpt>
<trkpt lat="34.9428398" lon="33.6422428">
<ele>10.04</ele>
<time>2015-05-02T09:57:57Z</time>
</trkpt>
<trkpt lat="34.9428618" lon="33.6421912">
<ele>11.27</ele>
<time>2015-05-02T09:57:59Z</time>
</trkpt>
<trkpt lat="34.9428827" lon="33.6421236">
<ele>11.08</ele>
<time>2015-05-02T09:58:01Z</time>
</trkpt>
<trkpt lat="34.9429016" lon="33.6420443">
<ele>11.28</ele>
<time>2015-05-02T09:58:03Z</time>
</trkpt>
<trkpt lat="34.9429158" lon="33.6419595">
<ele>11.58</ele>
<time>2015-05-02T09:58:05Z</time>
</trkpt>
<trkpt lat="34.9429269" lon="33.6418808">
<ele>11.91</ele>
<time>2015-05-02T09:58:07Z</time>
</trkpt>
<trkpt lat="34.9429392" lon="33.6418055">
<ele>11.49</ele>
<time>2015-05-02T09:58:09Z</time>
</trkpt>
<trkpt lat="34.9429517" lon="33.6417311">
<ele>11.13</ele>
<time>2015-05-02T09:58:11Z</time>
</trkpt>
<trkpt lat="34.9429605" lon="33.6416467">
<ele>11.05</ele>
<time>2015-05-02T09:58:13Z</time>
</trkpt>
<trkpt lat="34.9429707" lon="33.6415668">
<ele>11.02</ele>
<time>2015-05-02T09:58:15Z</time>
</trkpt>
<trkpt lat="34.9429930" lon="33.6416272">
<ele>10.27</ele>
<time>2015-05-02T09:58:20Z</time>
</trkpt>
<trkpt lat="34.9429624" lon="33.6417027">
<ele>10.58</ele>
<time>2015-05-02T09:58:22Z</time>
</trkpt>
<trkpt lat="34.9429377" lon="33.6417961">
<ele>10.16</ele>
<time>2015-05-02T09:58:24Z</time>
</trkpt>
<trkpt lat="34.9429121" lon="33.6418989">
<ele>10.55</ele>
<time>2015-05-02T09:58:26Z</time>
</trkpt>
<trkpt lat="34.9428882" lon="33.6420048">
<ele>10.90</ele>
<time>2015-05-02T09:58:28Z</time>
</trkpt>
<trkpt lat="34.9428760" lon="33.6420596">
<ele>10.46</ele>
<time>2015-05-02T09:58:29Z</time>
</trkpt>
<trkpt lat="34.9428630" lon="33.6421121">
<ele>10.24</ele>
<time>2015-05-02T09:58:30Z</time>
</trkpt>
<trkpt lat="34.9428491" lon="33.6421655">
<ele>10.13</ele>
<time>2015-05-02T09:58:31Z</time>
</trkpt>
<trkpt lat="34.9428299" lon="33.6422412">
<ele>10.07</ele>
<time>2015-05-02T09:58:32Z</time>
</trkpt>
<trkpt lat="34.9428134" lon="33.6422938">
<ele>10.04</ele>
<time>2015-05-02T09:58:33Z</time>
</trkpt>
<trkpt lat="34.9427857" lon="33.6423394">
<ele>10.03</ele>
<time>2015-05-02T09:58:34Z</time>
</trkpt>
<trkpt lat="34.9427301" lon="33.6423992">
<ele>10.77</ele>
<time>2015-05-02T09:58:36Z</time>
</trkpt>
<trkpt lat="34.9426600" lon="33.6424530">
<ele>10.95</ele>
<time>2015-05-02T09:58:38Z</time>
</trkpt>
<trkpt lat="34.9425994" lon="33.6425039">
<ele>11.50</ele>
<time>2015-05-02T09:58:40Z</time>
</trkpt>
<trkpt lat="34.9425512" lon="33.6425364">
<ele>12.64</ele>
<time>2015-05-02T09:58:42Z</time>
</trkpt>
<trkpt lat="34.9425137" lon="33.6425724">
<ele>12.47</ele>
<time>2015-05-02T09:58:45Z</time>
</trkpt>
<trkpt lat="34.9424601" lon="33.6425808">
<ele>12.07</ele>
<time>2015-05-02T09:58:48Z</time>
</trkpt>
<trkpt lat="34.9423975" lon="33.6425807">
<ele>12.90</ele>
<time>2015-05-02T09:58:51Z</time>
</trkpt>
<trkpt lat="34.9423386" lon="33.6425864">
<ele>13.00</ele>
<time>2015-05-02T09:58:54Z</time>
</trkpt>
<trkpt lat="34.9423558" lon="33.6426536">
<ele>13.51</ele>
<time>2015-05-02T09:58:57Z</time>
</trkpt>
<trkpt lat="34.9424404" lon="33.6426603">
<ele>13.77</ele>
<time>2015-05-02T09:58:58Z</time>
</trkpt>
<trkpt lat="34.9424926" lon="33.6426565">
<ele>13.89</ele>
<time>2015-05-02T09:58:59Z</time>
</trkpt>
<trkpt lat="34.9425511" lon="33.6426331">
<ele>13.45</ele>
<time>2015-05-02T09:59:00Z</time>
</trkpt>
<trkpt lat="34.9425955" lon="33.6426087">
<ele>12.73</ele>
<time>2015-05-02T09:59:01Z</time>
</trkpt>
<trkpt lat="34.9426436" lon="33.6425807">
<ele>12.88</ele>
<time>2015-05-02T09:59:02Z</time>
</trkpt>
<trkpt lat="34.9426978" lon="33.6425454">
<ele>12.95</ele>
<time>2015-05-02T09:59:03Z</time>
</trkpt>
<trkpt lat="34.9427583" lon="33.6425127">
<ele>12.48</ele>
<time>2015-05-02T09:59:04Z</time>
</trkpt>
<trkpt lat="34.9428157" lon="33.6424839">
<ele>12.25</ele>
<time>2015-05-02T09:59:05Z</time>
</trkpt>
<trkpt lat="34.9428779" lon="33.6424734">
<ele>12.13</ele>
<time>2015-05-02T09:59:06Z</time>
</trkpt>
<trkpt lat="34.9429269" lon="33.6424607">
<ele>12.57</ele>
<time>2015-05-02T09:59:07Z</time>
</trkpt>
<trkpt lat="34.9429936" lon="33.6424912">
<ele>12.30</ele>
<time>2015-05-02T09:59:08Z</time>
</trkpt>
<trkpt lat="34.9430619" lon="33.6425248">
<ele>11.66</ele>
<time>2015-05-02T09:59:09Z</time>
</trkpt>
<trkpt lat="34.9431206" lon="33.6425762">
<ele>11.34</ele>
<time>2015-05-02T09:59:10Z</time>
</trkpt>
<trkpt lat="34.9431799" lon="33.6426460">
<ele>11.68</ele>
<time>2015-05-02T09:59:11Z</time>
</trkpt>
<trkpt lat="34.9432327" lon="33.6427028">
<ele>11.85</ele>
<time>2015-05-02T09:59:12Z</time>
</trkpt>
<trkpt lat="34.9432778" lon="33.6427479">
<ele>11.93</ele>
<time>2015-05-02T09:59:13Z</time>
</trkpt>
<trkpt lat="34.9433382" lon="33.6428068">
<ele>11.47</ele>
<time>2015-05-02T09:59:14Z</time>
</trkpt>
<trkpt lat="34.9433930" lon="33.6428596">
<ele>11.74</ele>
<time>2015-05-02T09:59:15Z</time>
</trkpt>
<trkpt lat="34.9434567" lon="33.6429248">
<ele>11.88</ele>
<time>2015-05-02T09:59:16Z</time>
</trkpt>
<trkpt lat="34.9434989" lon="33.6429727">
<ele>11.45</ele>
<time>2015-05-02T09:59:17Z</time>
</trkpt>
<trkpt lat="34.9435612" lon="33.6430290">
<ele>11.73</ele>
<time>2015-05-02T09:59:18Z</time>
</trkpt>
<trkpt lat="34.9436276" lon="33.6430733">
<ele>12.37</ele>
<time>2015-05-02T09:59:19Z</time>
</trkpt>
<trkpt lat="34.9436788" lon="33.6431341">
<ele>12.20</ele>
<time>2015-05-02T09:59:20Z</time>
</trkpt>
<trkpt lat="34.9437443" lon="33.6431831">
<ele>12.11</ele>
<time>2015-05-02T09:59:21Z</time>
</trkpt>
<trkpt lat="34.9438158" lon="33.6432312">
<ele>11.56</ele>
<time>2015-05-02T09:59:22Z</time>
</trkpt>
<trkpt lat="34.9438820" lon="33.6432872">
<ele>10.79</ele>
<time>2015-05-02T09:59:23Z</time>
</trkpt>
<trkpt lat="34.9439509" lon="33.6433367">
<ele>10.90</ele>
<time>2015-05-02T09:59:24Z</time>
</trkpt>
<trkpt lat="34.9440185" lon="33.6433968">
<ele>10.46</ele>
<time>2015-05-02T09:59:25Z</time>
</trkpt>
<trkpt lat="34.9440815" lon="33.6434495">
<ele>10.24</ele>
<time>2015-05-02T09:59:26Z</time>
</trkpt>
<trkpt lat="34.9441526" lon="33.6435062">
<ele>10.13</ele>
<time>2015-05-02T09:59:27Z</time>
</trkpt>
<trkpt lat="34.9442247" lon="33.6435590">
<ele>10.57</ele>
<time>2015-05-02T09:59:28Z</time>
</trkpt>
<trkpt lat="34.9442904" lon="33.6436160">
<ele>10.29</ele>
<time>2015-05-02T09:59:29Z</time>
</trkpt>
<trkpt lat="34.9443560" lon="33.6436594">
<ele>10.15</ele>
<time>2015-05-02T09:59:30Z</time>
</trkpt>
<trkpt lat="34.9444187" lon="33.6437139">
<ele>9.59</ele>
<time>2015-05-02T09:59:31Z</time>
</trkpt>
<trkpt lat="34.9444838" lon="33.6437666">
<ele>9.80</ele>
<time>2015-05-02T09:59:32Z</time>
</trkpt>
<trkpt lat="34.9445429" lon="33.6438211">
<ele>9.91</ele>
<time>2015-05-02T09:59:33Z</time>
</trkpt>
<trkpt lat="34.9445981" lon="33.6438607">
<ele>9.96</ele>
<time>2015-05-02T09:59:34Z</time>
</trkpt>
<trkpt lat="34.9446616" lon="33.6438981">
<ele>10.49</ele>
<time>2015-05-02T09:59:35Z</time>
</trkpt>
<trkpt lat="34.9447187" lon="33.6439471">
<ele>11.25</ele>
<time>2015-05-02T09:59:36Z</time>
</trkpt>
<trkpt lat="34.9447934" lon="33.6439926">
<ele>10.63</ele>
<time>2015-05-02T09:59:37Z</time>
</trkpt>
<trkpt lat="34.9448569" lon="33.6440449">
<ele>9.83</ele>
<time>2015-05-02T09:59:38Z</time>
</trkpt>
<trkpt lat="34.9449183" lon="33.6440969">
<ele>9.42</ele>
<time>2015-05-02T09:59:39Z</time>
</trkpt>
<trkpt lat="34.9449792" lon="33.6441413">
<ele>9.22</ele>
<time>2015-05-02T09:59:40Z</time>
</trkpt>
<trkpt lat="34.9450406" lon="33.6441838">
<ele>9.12</ele>
<time>2015-05-02T09:59:41Z</time>
</trkpt>
<trkpt lat="34.9451010" lon="33.6442228">
<ele>9.57</ele>
<time>2015-05-02T09:59:42Z</time>
</trkpt>
<trkpt lat="34.9451653" lon="33.6442638">
<ele>9.79</ele>
<time>2015-05-02T09:59:43Z</time>
</trkpt>
<trkpt lat="34.9452354" lon="33.6442975">
<ele>9.40</ele>
<time>2015-05-02T09:59:44Z</time>
</trkpt>
<trkpt lat="34.9453013" lon="33.6443280">
<ele>8.71</ele>
<time>2015-05-02T09:59:45Z</time>
</trkpt>
<trkpt lat="34.9453793" lon="33.6443559">
<ele>8.36</ele>
<time>2015-05-02T09:59:46Z</time>
</trkpt>
<trkpt lat="34.9454436" lon="33.6443970">
<ele>7.69</ele>
<time>2015-05-02T09:59:47Z</time>
</trkpt>
<trkpt lat="34.9455129" lon="33.6444202">
<ele>7.85</ele>
<time>2015-05-02T09:59:48Z</time>
</trkpt>
<trkpt lat="34.9455807" lon="33.6444578">
<ele>7.93</ele>
<time>2015-05-02T09:59:49Z</time>
</trkpt>
<trkpt lat="34.9456533" lon="33.6444920">
<ele>7.98</ele>
<time>2015-05-02T09:59:50Z</time>
</trkpt>
<trkpt lat="34.9457283" lon="33.6445261">
<ele>9.00</ele>
<time>2015-05-02T09:59:51Z</time>
</trkpt>
<trkpt lat="34.9457984" lon="33.6445637">
<ele>9.01</ele>
<time>2015-05-02T09:59:52Z</time>
</trkpt>
<trkpt lat="34.9458647" lon="33.6445942">
<ele>10.01</ele>
<time>2015-05-02T09:59:53Z</time>
</trkpt>
<trkpt lat="34.9459409" lon="33.6446410">
<ele>10.51</ele>
<time>2015-05-02T09:59:54Z</time>
</trkpt>
<trkpt lat="34.9460076" lon="33.6446748">
<ele>10.76</ele>
<time>2015-05-02T09:59:55Z</time>
</trkpt>
<trkpt lat="34.9460796" lon="33.6447127">
<ele>10.39</ele>
<time>2015-05-02T09:59:56Z</time>
</trkpt>
<trkpt lat="34.9461422" lon="33.6447353">
<ele>10.70</ele>
<time>2015-05-02T09:59:57Z</time>
</trkpt>
<trkpt lat="34.9462066" lon="33.6447578">
<ele>11.36</ele>
<time>2015-05-02T09:59:58Z</time>
</trkpt>
<trkpt lat="34.9462732" lon="33.6447973">
<ele>11.69</ele>
<time>2015-05-02T09:59:59Z</time>
</trkpt>
<trkpt lat="34.9463417" lon="33.6448260">
<ele>11.35</ele>
<time>2015-05-02T10:00:00Z</time>
</trkpt>
<trkpt lat="34.9463955" lon="33.6448627">
<ele>11.68</ele>
<time>2015-05-02T10:00:01Z</time>
</trkpt>
<trkpt lat="34.9464631" lon="33.6448920">
<ele>11.85</ele>
<time>2015-05-02T10:00:02Z</time>
</trkpt>
<trkpt lat="34.9465168" lon="33.6449220">
<ele>12.43</ele>
<time>2015-05-02T10:00:03Z</time>
</trkpt>
<trkpt lat="34.9465888" lon="33.6449675">
<ele>12.22</ele>
<time>2015-05-02T10:00:04Z</time>
</trkpt>
<trkpt lat="34.9466519" lon="33.6450087">
<ele>12.62</ele>
<time>2015-05-02T10:00:05Z</time>
</trkpt>
<trkpt lat="34.9467148" lon="33.6450404">
<ele>13.32</ele>
<time>2015-05-02T10:00:06Z</time>
</trkpt>
<trkpt lat="34.9467895" lon="33.6450678">
<ele>13.67</ele>
<time>2015-05-02T10:00:07Z</time>
</trkpt>
<trkpt lat="34.9468559" lon="33.6450956">
<ele>13.84</ele>
<time>2015-05-02T10:00:08Z</time>
</trkpt>
<trkpt lat="34.9469170" lon="33.6451251">
<ele>13.93</ele>
<time>2015-05-02T10:00:09Z</time>
</trkpt>
<trkpt lat="34.9469842" lon="33.6451661">
<ele>14.47</ele>
<time>2015-05-02T10:00:10Z</time>
</trkpt>
<trkpt lat="34.9470391" lon="33.6452110">
<ele>15.24</ele>
<time>2015-05-02T10:00:11Z</time>
</trkpt>
<trkpt lat="34.9470968" lon="33.6452477">
<ele>16.13</ele>
<time>2015-05-02T10:00:12Z</time>
</trkpt>
<trkpt lat="34.9471638" lon="33.6452880">
<ele>16.07</ele>
<time>2015-05-02T10:00:13Z</time>
</trkpt>
<trkpt lat="34.9472246" lon="33.6453252">
<ele>16.54</ele>
<time>2015-05-02T10:00:14Z</time>
</trkpt>
<trkpt lat="34.9472922" lon="33.6453591">
<ele>17.28</ele>
<time>2015-05-02T10:00:15Z</time>
</trkpt>
<trkpt lat="34.9473568" lon="33.6453949">
<ele>17.15</ele>
<time>2015-05-02T10:00:16Z</time>
</trkpt>
<trkpt lat="34.9474218" lon="33.6454436">
<ele>17.08</ele>
<time>2015-05-02T10:00:17Z</time>
</trkpt>
<trkpt lat="34.9474754" lon="33.6454595">
<ele>18.05</ele>
<time>2015-05-02T10:00:18Z</time>
</trkpt>
<trkpt lat="34.9475372" lon="33.6454984">
<ele>19.03</ele>
<time>2015-05-02T10:00:19Z</time>
</trkpt>
<trkpt lat="34.9476059" lon="33.6455356">
<ele>19.52</ele>
<time>2015-05-02T10:00:20Z</time>
</trkpt>
<trkpt lat="34.9476681" lon="33.6455808">
<ele>19.27</ele>
<time>2015-05-02T10:00:21Z</time>
</trkpt>
<trkpt lat="34.9477328" lon="33.6456136">
<ele>19.14</ele>
<time>2015-05-02T10:00:22Z</time>
</trkpt>
<trkpt lat="34.9478023" lon="33.6456598">
<ele>19.08</ele>
<time>2015-05-02T10:00:23Z</time>
</trkpt>
<trkpt lat="34.9478665" lon="33.6457132">
<ele>18.55</ele>
<time>2015-05-02T10:00:24Z</time>
</trkpt>
<trkpt lat="34.9479353" lon="33.6457463">
<ele>18.28</ele>
<time>2015-05-02T10:00:25Z</time>
</trkpt>
<trkpt lat="34.9479873" lon="33.6457773">
<ele>18.65</ele>
<time>2015-05-02T10:00:26Z</time>
</trkpt>
<trkpt lat="34.9480438" lon="33.6458184">
<ele>18.83</ele>
<time>2015-05-02T10:00:27Z</time>
</trkpt>
<trkpt lat="34.9481084" lon="33.6458709">
<ele>18.92</ele>
<time>2015-05-02T10:00:28Z</time>
</trkpt>
<trkpt lat="34.9481686" lon="33.6459216">
<ele>18.47</ele>
<time>2015-05-02T10:00:29Z</time>
</trkpt>
<trkpt lat="34.9482299" lon="33.6459744">
<ele>17.74</ele>
<time>2015-05-02T10:00:30Z</time>
</trkpt>
<trkpt lat="34.9482824" lon="33.6460211">
<ele>17.38</ele>
<time>2015-05-02T10:00:31Z</time>
</trkpt>
<trkpt lat="34.9483354" lon="33.6460678">
<ele>18.20</ele>
<time>2015-05-02T10:00:32Z</time>
</trkpt>
<trkpt lat="34.9483953" lon="33.6461223">
<ele>18.11</ele>
<time>2015-05-02T10:00:33Z</time>
</trkpt>
<trkpt lat="34.9484526" lon="33.6461794">
<ele>17.06</ele>
<time>2015-05-02T10:00:34Z</time>
</trkpt>
<trkpt lat="34.9485099" lon="33.6462223">
<ele>17.54</ele>
<time>2015-05-02T10:00:35Z</time>
</trkpt>
<trkpt lat="34.9485673" lon="33.6462864">
<ele>17.78</ele>
<time>2015-05-02T10:00:36Z</time>
</trkpt>
<trkpt lat="34.9486172" lon="33.6463458">
<ele>18.90</ele>
<time>2015-05-02T10:00:37Z</time>
</trkpt>
<trkpt lat="34.9486695" lon="33.6463895">
<ele>19.46</ele>
<time>2015-05-02T10:00:38Z</time>
</trkpt>
<trkpt lat="34.9487303" lon="33.6464515">
<ele>19.24</ele>
<time>2015-05-02T10:00:39Z</time>
</trkpt>
<trkpt lat="34.9487883" lon="33.6465115">
<ele>18.63</ele>
<time>2015-05-02T10:00:40Z</time>
</trkpt>
<trkpt lat="34.9488459" lon="33.6465686">
<ele>17.82</ele>
<time>2015-05-02T10:00:41Z</time>
</trkpt>
<trkpt lat="34.9489038" lon="33.6466280">
<ele>17.42</ele>
<time>2015-05-02T10:00:42Z</time>
</trkpt>
<trkpt lat="34.9489592" lon="33.6466805">
<ele>17.72</ele>
<time>2015-05-02T10:00:43Z</time>
</trkpt>
<trkpt lat="34.9490334" lon="33.6467317">
<ele>17.37</ele>
<time>2015-05-02T10:00:44Z</time>
</trkpt>
<trkpt lat="34.9490888" lon="33.6467847">
<ele>18.19</ele>
<time>2015-05-02T10:00:45Z</time>
</trkpt>
<trkpt lat="34.9491406" lon="33.6468384">
<ele>18.60</ele>
<time>2015-05-02T10:00:46Z</time>
</trkpt>
<trkpt lat="34.9492018" lon="33.6468940">
<ele>18.31</ele>
<time>2015-05-02T10:00:47Z</time>
</trkpt>
<trkpt lat="34.9492623" lon="33.6469571">
<ele>18.16</ele>
<time>2015-05-02T10:00:48Z</time>
</trkpt>
<trkpt lat="34.9493159" lon="33.6470092">
<ele>18.09</ele>
<time>2015-05-02T10:00:49Z</time>
</trkpt>
<trkpt lat="34.9493811" lon="33.6470554">
<ele>17.05</ele>
<time>2015-05-02T10:00:50Z</time>
</trkpt>
<trkpt lat="34.9494358" lon="33.6471198">
<ele>16.53</ele>
<time>2015-05-02T10:00:51Z</time>
</trkpt>
<trkpt lat="34.9494922" lon="33.6471888">
<ele>15.78</ele>
<time>2015-05-02T10:00:52Z</time>
</trkpt>
<trkpt lat="34.9495397" lon="33.6472469">
<ele>15.40</ele>
<time>2015-05-02T10:00:53Z</time>
</trkpt>
<trkpt lat="34.9495913" lon="33.6473004">
<ele>14.71</ele>
<time>2015-05-02T10:00:54Z</time>
</trkpt>
<trkpt lat="34.9496433" lon="33.6473601">
<ele>14.36</ele>
<time>2015-05-02T10:00:55Z</time>
</trkpt>
<trkpt lat="34.9497036" lon="33.6474302">
<ele>13.69</ele>
<time>2015-05-02T10:00:56Z</time>
</trkpt>
<trkpt lat="34.9497605" lon="33.6474853">
<ele>13.35</ele>
<time>2015-05-02T10:00:57Z</time>
</trkpt>
<trkpt lat="34.9498105" lon="33.6475402">
<ele>13.68</ele>
<time>2015-05-02T10:00:58Z</time>
</trkpt>
<trkpt lat="34.9498638" lon="33.6475986">
<ele>13.35</ele>
<time>2015-05-02T10:00:59Z</time>
</trkpt>
<trkpt lat="34.9499253" lon="33.6476544">
<ele>13.18</ele>
<time>2015-05-02T10:01:00Z</time>
</trkpt>
<trkpt lat="34.9499724" lon="33.6477045">
<ele>13.10</ele>
<time>2015-05-02T10:01:01Z</time>
</trkpt>
<trkpt lat="34.9500225" lon="33.6477471">
<ele>12.56</ele>
<time>2015-05-02T10:01:02Z</time>
</trkpt>
<trkpt lat="34.9500816" lon="33.6478045">
<ele>11.79</ele>
<time>2015-05-02T10:01:03Z</time>
</trkpt>
<trkpt lat="34.9501270" lon="33.6478459">
<ele>11.90</ele>
<time>2015-05-02T10:01:04Z</time>
</trkpt>
<trkpt lat="34.9501854" lon="33.6478900">
<ele>11.46</ele>
<time>2015-05-02T10:01:05Z</time>
</trkpt>
<trkpt lat="34.9502370" lon="33.6479433">
<ele>11.24</ele>
<time>2015-05-02T10:01:06Z</time>
</trkpt>
<trkpt lat="34.9502851" lon="33.6479833">
<ele>10.63</ele>
<time>2015-05-02T10:01:07Z</time>
</trkpt>
<trkpt lat="34.9503444" lon="33.6480450">
<ele>10.32</ele>
<time>2015-05-02T10:01:08Z</time>
</trkpt>
<trkpt lat="34.9503885" lon="33.6480974">
<ele>9.67</ele>
<time>2015-05-02T10:01:09Z</time>
</trkpt>
<trkpt lat="34.9504464" lon="33.6481583">
<ele>9.84</ele>
<time>2015-05-02T10:01:10Z</time>
</trkpt>
<trkpt lat="34.9505054" lon="33.6482120">
<ele>9.93</ele>
<time>2015-05-02T10:01:11Z</time>
</trkpt>
<trkpt lat="34.9505672" lon="33.6482811">
<ele>9.97</ele>
<time>2015-05-02T10:01:12Z</time>
</trkpt>
<trkpt lat="34.9506302" lon="33.6483417">
<ele>9.49</ele>
<time>2015-05-02T10:01:13Z</time>
</trkpt>
<trkpt lat="34.9506910" lon="33.6484023">
<ele>8.76</ele>
<time>2015-05-02T10:01:14Z</time>
</trkpt>
<trkpt lat="34.9507465" lon="33.6484522">
<ele>8.39</ele>
<time>2015-05-02T10:01:15Z</time>
</trkpt>
<trkpt lat="34.9508071" lon="33.6485057">
<ele>7.70</ele>
<time>2015-05-02T10:01:16Z</time>
</trkpt>
<trkpt lat="34.9508626" lon="33.6485553">
<ele>7.36</ele>
<time>2015-05-02T10:01:17Z</time>
</trkpt>
<trkpt lat="34.9509217" lon="33.6486147">
<ele>7.19</ele>
<time>2015-05-02T10:01:18Z</time>
</trkpt>
<trkpt lat="34.9509846" lon="33.6486610">
<ele>7.60</ele>
<time>2015-05-02T10:01:19Z</time>
</trkpt>
<trkpt lat="34.9510449" lon="33.6487038">
<ele>8.31</ele>
<time>2015-05-02T10:01:20Z</time>
</trkpt>
<trkpt lat="34.9511051" lon="33.6487389">
<ele>8.66</ele>
<time>2015-05-02T10:01:21Z</time>
</trkpt>
<trkpt lat="34.9511752" lon="33.6487819">
<ele>8.34</ele>
<time>2015-05-02T10:01:22Z</time>
</trkpt>
<trkpt lat="34.9512299" lon="33.6488217">
<ele>7.68</ele>
<time>2015-05-02T10:01:23Z</time>
</trkpt>
<trkpt lat="34.9512963" lon="33.6488617">
<ele>7.35</ele>
<time>2015-05-02T10:01:24Z</time>
</trkpt>
<trkpt lat="34.9513520" lon="33.6488939">
<ele>8.18</ele>
<time>2015-05-02T10:01:25Z</time>
</trkpt>
<trkpt lat="34.9514137" lon="33.6489108">
<ele>9.10</ele>
<time>2015-05-02T10:01:26Z</time>
</trkpt>
<trkpt lat="34.9514779" lon="33.6489377">
<ele>9.56</ele>
<time>2015-05-02T10:01:27Z</time>
</trkpt>
<trkpt lat="34.9515426" lon="33.6489146">
<ele>10.29</ele>
<time>2015-05-02T10:01:28Z</time>
</trkpt>
<trkpt lat="34.9516197" lon="33.6488895">
<ele>11.15</ele>
<time>2015-05-02T10:01:29Z</time>
</trkpt>
<trkpt lat="34.9516746" lon="33.6488709">
<ele>11.58</ele>
<time>2015-05-02T10:01:30Z</time>
</trkpt>
<trkpt lat="34.9517386" lon="33.6488615">
<ele>11.30</ele>
<time>2015-05-02T10:01:31Z</time>
</trkpt>
<trkpt lat="34.9518025" lon="33.6488758">
<ele>11.16</ele>
<time>2015-05-02T10:01:32Z</time>
</trkpt>
<trkpt lat="34.9518566" lon="33.6489073">
<ele>12.09</ele>
<time>2015-05-02T10:01:33Z</time>
</trkpt>
<trkpt lat="34.9519064" lon="33.6489520">
<ele>13.05</ele>
<time>2015-05-02T10:01:34Z</time>
</trkpt>
<trkpt lat="34.9519583" lon="33.6490125">
<ele>13.53</ele>
<time>2015-05-02T10:01:35Z</time>
</trkpt>
<trkpt lat="34.9519843" lon="33.6490798">
<ele>13.27</ele>
<time>2015-05-02T10:01:36Z</time>
</trkpt>
<trkpt lat="34.9519907" lon="33.6491563">
<ele>13.15</ele>
<time>2015-05-02T10:01:37Z</time>
</trkpt>
<trkpt lat="34.9519995" lon="33.6492393">
<ele>13.58</ele>
<time>2015-05-02T10:01:38Z</time>
</trkpt>
<trkpt lat="34.9520100" lon="33.6493195">
<ele>14.30</ele>
<time>2015-05-02T10:01:39Z</time>
</trkpt>
<trkpt lat="34.9520264" lon="33.6493977">
<ele>14.16</ele>
<time>2015-05-02T10:01:40Z</time>
</trkpt>
<trkpt lat="34.9520534" lon="33.6494811">
<ele>14.09</ele>
<time>2015-05-02T10:01:41Z</time>
</trkpt>
<trkpt lat="34.9520853" lon="33.6495486">
<ele>14.05</ele>
<time>2015-05-02T10:01:42Z</time>
</trkpt>
<trkpt lat="34.9521246" lon="33.6496251">
<ele>14.03</ele>
<time>2015-05-02T10:01:43Z</time>
</trkpt>
<trkpt lat="34.9521605" lon="33.6496924">
<ele>14.52</ele>
<time>2015-05-02T10:01:44Z</time>
</trkpt>
<trkpt lat="34.9522090" lon="33.6497610">
<ele>14.27</ele>
<time>2015-05-02T10:01:45Z</time>
</trkpt>
<trkpt lat="34.9522601" lon="33.6498134">
<ele>14.14</ele>
<time>2015-05-02T10:01:46Z</time>
</trkpt>
<trkpt lat="34.9523126" lon="33.6498717">
<ele>14.08</ele>
<time>2015-05-02T10:01:47Z</time>
</trkpt>
<trkpt lat="34.9523691" lon="33.6499202">
<ele>14.55</ele>
<time>2015-05-02T10:01:48Z</time>
</trkpt>
<trkpt lat="34.9524202" lon="33.6499682">
<ele>14.78</ele>
<time>2015-05-02T10:01:49Z</time>
</trkpt>
<trkpt lat="34.9524771" lon="33.6500243">
<ele>14.90</ele>
<time>2015-05-02T10:01:50Z</time>
</trkpt>
<trkpt lat="34.9525424" lon="33.6500761">
<ele>14.46</ele>
<time>2015-05-02T10:01:51Z</time>
</trkpt>
<trkpt lat="34.9526057" lon="33.6501298">
<ele>14.24</ele>
<time>2015-05-02T10:01:52Z</time>
</trkpt>
<trkpt lat="34.9526790" lon="33.6501789">
<ele>13.13</ele>
<time>2015-05-02T10:01:53Z</time>
</trkpt>
<trkpt lat="34.9527364" lon="33.6502197">
<ele>13.07</ele>
<time>2015-05-02T10:01:54Z</time>
</trkpt>
<trkpt lat="34.9528005" lon="33.6502725">
<ele>12.54</ele>
<time>2015-05-02T10:01:55Z</time>
</trkpt>
<trkpt lat="34.9528650" lon="33.6503290">
<ele>12.78</ele>
<time>2015-05-02T10:01:56Z</time>
</trkpt>
<trkpt lat="34.9529310" lon="33.6503816">
<ele>12.40</ele>
<time>2015-05-02T10:01:57Z</time>
</trkpt>
<trkpt lat="34.9529903" lon="33.6504288">
<ele>12.71</ele>
<time>2015-05-02T10:01:58Z</time>
</trkpt>
<trkpt lat="34.9530495" lon="33.6504815">
<ele>12.86</ele>
<time>2015-05-02T10:01:59Z</time>
</trkpt>
<trkpt lat="34.9531139" lon="33.6505328">
<ele>12.94</ele>
<time>2015-05-02T10:02:00Z</time>
</trkpt>
<trkpt lat="34.9531832" lon="33.6505922">
<ele>12.48</ele>
<time>2015-05-02T10:02:01Z</time>
</trkpt>
<trkpt lat="34.9532417" lon="33.6506338">
<ele>12.75</ele>
<time>2015-05-02T10:02:02Z</time>
</trkpt>
<trkpt lat="34.9532985" lon="33.6506912">
<ele>13.38</ele>
<time>2015-05-02T10:02:03Z</time>
</trkpt>
<trkpt lat="34.9533634" lon="33.6507356">
<ele>13.70</ele>
<time>2015-05-02T10:02:04Z</time>
</trkpt>
<trkpt lat="34.9534336" lon="33.6507709">
<ele>12.86</ele>
<time>2015-05-02T10:02:05Z</time>
</trkpt>
<trkpt lat="34.9534896" lon="33.6508229">
<ele>12.44</ele>
<time>2015-05-02T10:02:06Z</time>
</trkpt>
<trkpt lat="34.9535394" lon="33.6508603">
<ele>12.23</ele>
<time>2015-05-02T10:02:07Z</time>
</trkpt>
<trkpt lat="34.9535983" lon="33.6509107">
<ele>12.12</ele>
<time>2015-05-02T10:02:08Z</time>
</trkpt>
<trkpt lat="34.9536564" lon="33.6509583">
<ele>12.07</ele>
<time>2015-05-02T10:02:09Z</time>
</trkpt>
<trkpt lat="34.9537247" lon="33.6509985">
<ele>12.04</ele>
<time>2015-05-02T10:02:10Z</time>
</trkpt>
<trkpt lat="34.9537808" lon="33.6510467">
<ele>13.03</ele>
<time>2015-05-02T10:02:11Z</time>
</trkpt>
<trkpt lat="34.9538572" lon="33.6510965">
<ele>12.52</ele>
<time>2015-05-02T10:02:12Z</time>
</trkpt>
<trkpt lat="34.9539259" lon="33.6511458">
<ele>12.27</ele>
<time>2015-05-02T10:02:13Z</time>
</trkpt>
<trkpt lat="34.9539863" lon="33.6511911">
<ele>12.14</ele>
<time>2015-05-02T10:02:14Z</time>
</trkpt>
<trkpt lat="34.9540426" lon="33.6512352">
<ele>12.08</ele>
<time>2015-05-02T10:02:15Z</time>
</trkpt>
<trkpt lat="34.9541016" lon="33.6512809">
<ele>13.05</ele>
<time>2015-05-02T10:02:16Z</time>
</trkpt>
<trkpt lat="34.9541648" lon="33.6513241">
<ele>13.03</ele>
<time>2015-05-02T10:02:17Z</time>
</trkpt>
<trkpt lat="34.9542345" lon="33.6513675">
<ele>13.02</ele>
<time>2015-05-02T10:02:18Z</time>
</trkpt>
<trkpt lat="34.9542936" lon="33.6514203">
<ele>13.02</ele>
<time>2015-05-02T10:02:19Z</time>
</trkpt>
<trkpt lat="34.9543619" lon="33.6514786">
<ele>13.02</ele>
<time>2015-05-02T10:02:20Z</time>
</trkpt>
<trkpt lat="34.9544314" lon="33.6515284">
<ele>12.02</ele>
<time>2015-05-02T10:02:21Z</time>
</trkpt>
<trkpt lat="34.9544986" lon="33.6515871">
<ele>11.02</ele>
<time>2015-05-02T10:02:22Z</time>
</trkpt>
<trkpt lat="34.9545628" lon="33.6516371">
<ele>10.02</ele>
<time>2015-05-02T10:02:23Z</time>
</trkpt>
<trkpt lat="34.9546344" lon="33.6516942">
<ele>9.02</ele>
<time>2015-05-02T10:02:24Z</time>
</trkpt>
<trkpt lat="34.9546988" lon="33.6517413">
<ele>8.52</ele>
<time>2015-05-02T10:02:25Z</time>
</trkpt>
<trkpt lat="34.9547731" lon="33.6517907">
<ele>8.27</ele>
<time>2015-05-02T10:02:26Z</time>
</trkpt>
<trkpt lat="34.9548382" lon="33.6518251">
<ele>7.14</ele>
<time>2015-05-02T10:02:27Z</time>
</trkpt>
<trkpt lat="34.9549083" lon="33.6518844">
<ele>6.58</ele>
<time>2015-05-02T10:02:28Z</time>
</trkpt>
<trkpt lat="34.9549709" lon="33.6519312">
<ele>6.30</ele>
<time>2015-05-02T10:02:29Z</time>
</trkpt>
<trkpt lat="34.9550317" lon="33.6519809">
<ele>6.66</ele>
<time>2015-05-02T10:02:30Z</time>
</trkpt>
<trkpt lat="34.9550948" lon="33.6520380">
<ele>7.34</ele>
<time>2015-05-02T10:02:31Z</time>
</trkpt>
<trkpt lat="34.9551567" lon="33.6520838">
<ele>7.68</ele>
<time>2015-05-02T10:02:32Z</time>
</trkpt>
<trkpt lat="34.9552189" lon="33.6521259">
<ele>7.85</ele>
<time>2015-05-02T10:02:33Z</time>
</trkpt>
<trkpt lat="34.9552802" lon="33.6521690">
<ele>7.93</ele>
<time>2015-05-02T10:02:34Z</time>
</trkpt>
<trkpt lat="34.9553335" lon="33.6522113">
<ele>7.47</ele>
<time>2015-05-02T10:02:35Z</time>
</trkpt>
<trkpt lat="34.9553927" lon="33.6522474">
<ele>7.24</ele>
<time>2015-05-02T10:02:36Z</time>
</trkpt>
<trkpt lat="34.9554433" lon="33.6522927">
<ele>7.13</ele>
<time>2015-05-02T10:02:37Z</time>
</trkpt>
<trkpt lat="34.9554950" lon="33.6523383">
<ele>7.07</ele>
<time>2015-05-02T10:02:38Z</time>
</trkpt>
<trkpt lat="34.9555543" lon="33.6523786">
<ele>6.54</ele>
<time>2015-05-02T10:02:39Z</time>
</trkpt>
<trkpt lat="34.9556185" lon="33.6524090">
<ele>6.78</ele>
<time>2015-05-02T10:02:40Z</time>
</trkpt>
<trkpt lat="34.9556706" lon="33.6524456">
<ele>7.40</ele>
<time>2015-05-02T10:02:41Z</time>
</trkpt>
<trkpt lat="34.9557312" lon="33.6524738">
<ele>7.21</ele>
<time>2015-05-02T10:02:42Z</time>
</trkpt>
<trkpt lat="34.9557837" lon="33.6525195">
<ele>7.11</ele>
<time>2015-05-02T10:02:43Z</time>
</trkpt>
<trkpt lat="34.9558447" lon="33.6525668">
<ele>6.56</ele>
<time>2015-05-02T10:02:44Z</time>
</trkpt>
<trkpt lat="34.9558884" lon="33.6526057">
<ele>7.29</ele>
<time>2015-05-02T10:02:45Z</time>
</trkpt>
<trkpt lat="34.9559397" lon="33.6526563">
<ele>8.15</ele>
<time>2015-05-02T10:02:46Z</time>
</trkpt>
<trkpt lat="34.9559976" lon="33.6527071">
<ele>8.58</ele>
<time>2015-05-02T10:02:47Z</time>
</trkpt>
<trkpt lat="34.9560579" lon="33.6527559">
<ele>8.30</ele>
<time>2015-05-02T10:02:48Z</time>
</trkpt>
<trkpt lat="34.9561109" lon="33.6528011">
<ele>8.16</ele>
<time>2015-05-02T10:02:49Z</time>
</trkpt>
<trkpt lat="34.9561739" lon="33.6528388">
<ele>7.09</ele>
<time>2015-05-02T10:02:50Z</time>
</trkpt>
<trkpt lat="34.9562149" lon="33.6528692">
<ele>6.55</ele>
<time>2015-05-02T10:02:51Z</time>
</trkpt>
<trkpt lat="34.9562794" lon="33.6529191">
<ele>6.78</ele>
<time>2015-05-02T10:02:52Z</time>
</trkpt>
<trkpt lat="34.9563356" lon="33.6529701">
<ele>6.40</ele>
<time>2015-05-02T10:02:53Z</time>
</trkpt>
<trkpt lat="34.9563935" lon="33.6530198">
<ele>5.71</ele>
<time>2015-05-02T10:02:54Z</time>
</trkpt>
<trkpt lat="34.9564363" lon="33.6530775">
<ele>5.86</ele>
<time>2015-05-02T10:02:55Z</time>
</trkpt>
<trkpt lat="34.9564911" lon="33.6531296">
<ele>5.44</ele>
<time>2015-05-02T10:02:56Z</time>
</trkpt>
<trkpt lat="34.9565396" lon="33.6531817">
<ele>6.23</ele>
<time>2015-05-02T10:02:57Z</time>
</trkpt>
<trkpt lat="34.9565926" lon="33.6532347">
<ele>6.62</ele>
<time>2015-05-02T10:02:58Z</time>
</trkpt>
<trkpt lat="34.9566395" lon="33.6532788">
<ele>7.32</ele>
<time>2015-05-02T10:02:59Z</time>
</trkpt>
<trkpt lat="34.9566864" lon="33.6533301">
<ele>7.67</ele>
<time>2015-05-02T10:03:00Z</time>
</trkpt>
<trkpt lat="34.9567360" lon="33.6533820">
<ele>7.84</ele>
<time>2015-05-02T10:03:01Z</time>
</trkpt>
<trkpt lat="34.9567836" lon="33.6534322">
<ele>7.93</ele>
<time>2015-05-02T10:03:02Z</time>
</trkpt>
<trkpt lat="34.9568390" lon="33.6534798">
<ele>7.97</ele>
<time>2015-05-02T10:03:03Z</time>
</trkpt>
<trkpt lat="34.9568914" lon="33.6535353">
<ele>8.49</ele>
<time>2015-05-02T10:03:04Z</time>
</trkpt>
<trkpt lat="34.9569460" lon="33.6535928">
<ele>8.26</ele>
<time>2015-05-02T10:03:05Z</time>
</trkpt>
<trkpt lat="34.9570006" lon="33.6536574">
<ele>8.14</ele>
<time>2015-05-02T10:03:06Z</time>
</trkpt>
<trkpt lat="34.9570468" lon="33.6537212">
<ele>8.08</ele>
<time>2015-05-02T10:03:07Z</time>
</trkpt>
<trkpt lat="34.9571053" lon="33.6537882">
<ele>8.05</ele>
<time>2015-05-02T10:03:08Z</time>
</trkpt>
<trkpt lat="34.9571636" lon="33.6538485">
<ele>8.03</ele>
<time>2015-05-02T10:03:09Z</time>
</trkpt>
<trkpt lat="34.9572177" lon="33.6539064">
<ele>9.02</ele>
<time>2015-05-02T10:03:10Z</time>
</trkpt>
<trkpt lat="34.9572662" lon="33.6539724">
<ele>9.02</ele>
<time>2015-05-02T10:03:11Z</time>
</trkpt>
<trkpt lat="34.9573255" lon="33.6540286">
<ele>9.02</ele>
<time>2015-05-02T10:03:12Z</time>
</trkpt>
<trkpt lat="34.9573839" lon="33.6540823">
<ele>8.52</ele>
<time>2015-05-02T10:03:13Z</time>
</trkpt>
<trkpt lat="34.9574410" lon="33.6541359">
<ele>8.27</ele>
<time>2015-05-02T10:03:14Z</time>
</trkpt>
<trkpt lat="34.9574956" lon="33.6541802">
<ele>8.14</ele>
<time>2015-05-02T10:03:15Z</time>
</trkpt>
<trkpt lat="34.9575409" lon="33.6542355">
<ele>8.58</ele>
<time>2015-05-02T10:03:16Z</time>
</trkpt>
<trkpt lat="34.9575732" lon="33.6542738">
<ele>8.30</ele>
<time>2015-05-02T10:03:17Z</time>
</trkpt>
<trkpt lat="34.9576220" lon="33.6543368">
<ele>8.09</ele>
<time>2015-05-02T10:03:19Z</time>
</trkpt>
<trkpt lat="34.9576747" lon="33.6544014">
<ele>8.53</ele>
<time>2015-05-02T10:03:21Z</time>
</trkpt>
<trkpt lat="34.9577068" lon="33.6544403">
<ele>8.77</ele>
<time>2015-05-02T10:03:22Z</time>
</trkpt>
<trkpt lat="34.9577704" lon="33.6545118">
<ele>9.21</ele>
<time>2015-05-02T10:03:24Z</time>
</trkpt>
<trkpt lat="34.9578024" lon="33.6545553">
<ele>9.11</ele>
<time>2015-05-02T10:03:25Z</time>
</trkpt>
<trkpt lat="34.9578753" lon="33.6546386">
<ele>8.29</ele>
<time>2015-05-02T10:03:27Z</time>
</trkpt>
<trkpt lat="34.9579183" lon="33.6546906">
<ele>8.15</ele>
<time>2015-05-02T10:03:28Z</time>
</trkpt>
<trkpt lat="34.9579580" lon="33.6547316">
<ele>8.58</ele>
<time>2015-05-02T10:03:29Z</time>
</trkpt>
<trkpt lat="34.9579898" lon="33.6547843">
<ele>8.80</ele>
<time>2015-05-02T10:03:30Z</time>
</trkpt>
<trkpt lat="34.9580278" lon="33.6548305">
<ele>8.91</ele>
<time>2015-05-02T10:03:31Z</time>
</trkpt>
<trkpt lat="34.9580785" lon="33.6548825">
<ele>8.96</ele>
<time>2015-05-02T10:03:32Z</time>
</trkpt>
<trkpt lat="34.9581241" lon="33.6549251">
<ele>9.99</ele>
<time>2015-05-02T10:03:33Z</time>
</trkpt>
<trkpt lat="34.9581700" lon="33.6549736">
<ele>10.50</ele>
<time>2015-05-02T10:03:34Z</time>
</trkpt>
<trkpt lat="34.9582147" lon="33.6550081">
<ele>10.26</ele>
<time>2015-05-02T10:03:35Z</time>
</trkpt>
<trkpt lat="34.9582624" lon="33.6550545">
<ele>9.64</ele>
<time>2015-05-02T10:03:36Z</time>
</trkpt>
<trkpt lat="34.9582939" lon="33.6551015">
<ele>9.33</ele>
<time>2015-05-02T10:03:37Z</time>
</trkpt>
<trkpt lat="34.9583348" lon="33.6551437">
<ele>9.17</ele>
<time>2015-05-02T10:03:38Z</time>
</trkpt>
<trkpt lat="34.9583758" lon="33.6551953">
<ele>9.09</ele>
<time>2015-05-02T10:03:39Z</time>
</trkpt>
<trkpt lat="34.9584233" lon="33.6552552">
<ele>8.55</ele>
<time>2015-05-02T10:03:40Z</time>
</trkpt>
<trkpt lat="34.9584699" lon="33.6553156">
<ele>7.79</ele>
<time>2015-05-02T10:03:41Z</time>
</trkpt>
<trkpt lat="34.9585164" lon="33.6553666">
<ele>7.90</ele>
<time>2015-05-02T10:03:42Z</time>
</trkpt>
<trkpt lat="34.9585569" lon="33.6554270">
<ele>8.96</ele>
<time>2015-05-02T10:03:43Z</time>
</trkpt>
<trkpt lat="34.9586054" lon="33.6554781">
<ele>9.99</ele>
<time>2015-05-02T10:03:44Z</time>
</trkpt>
<trkpt lat="34.9586527" lon="33.6555281">
<ele>11.00</ele>
<time>2015-05-02T10:03:45Z</time>
</trkpt>
<trkpt lat="34.9587025" lon="33.6555821">
<ele>11.01</ele>
<time>2015-05-02T10:03:46Z</time>
</trkpt>
<trkpt lat="34.9587471" lon="33.6556282">
<ele>11.51</ele>
<time>2015-05-02T10:03:47Z</time>
</trkpt>
<trkpt lat="34.9588022" lon="33.6556805">
<ele>10.76</ele>
<time>2015-05-02T10:03:48Z</time>
</trkpt>
<trkpt lat="34.9588515" lon="33.6557337">
<ele>10.39</ele>
<time>2015-05-02T10:03:49Z</time>
</trkpt>
<trkpt lat="34.9588954" lon="33.6557904">
<ele>10.20</ele>
<time>2015-05-02T10:03:50Z</time>
</trkpt>
<trkpt lat="34.9589408" lon="33.6558442">
<ele>10.11</ele>
<time>2015-05-02T10:03:51Z</time>
</trkpt>
<trkpt lat="34.9589931" lon="33.6558926">
<ele>10.06</ele>
<time>2015-05-02T10:03:52Z</time>
</trkpt>
<trkpt lat="34.9590434" lon="33.6559494">
<ele>10.04</ele>
<time>2015-05-02T10:03:53Z</time>
</trkpt>
<trkpt lat="34.9590926" lon="33.6560010">
<ele>10.03</ele>
<time>2015-05-02T10:03:54Z</time>
</trkpt>
<trkpt lat="34.9591402" lon="33.6560490">
<ele>10.02</ele>
<time>2015-05-02T10:03:55Z</time>
</trkpt>
<trkpt lat="34.9591925" lon="33.6561054">
<ele>9.52</ele>
<time>2015-05-02T10:03:56Z</time>
</trkpt>
<trkpt lat="34.9592446" lon="33.6561551">
<ele>9.27</ele>
<time>2015-05-02T10:03:57Z</time>
</trkpt>
<trkpt lat="34.9592942" lon="33.6562157">
<ele>8.64</ele>
<time>2015-05-02T10:03:58Z</time>
</trkpt>
<trkpt lat="34.9593417" lon="33.6562791">
<ele>8.33</ele>
<time>2015-05-02T10:03:59Z</time>
</trkpt>
<trkpt lat="34.9593919" lon="33.6563303">
<ele>8.17</ele>
<time>2015-05-02T10:04:00Z</time>
</trkpt>
<trkpt lat="34.9594374" lon="33.6563948">
<ele>8.09</ele>
<time>2015-05-02T10:04:01Z</time>
</trkpt>
<trkpt lat="34.9594885" lon="33.6564433">
<ele>8.06</ele>
<time>2015-05-02T10:04:02Z</time>
</trkpt>
<trkpt lat="34.9595367" lon="33.6564916">
<ele>8.04</ele>
<time>2015-05-02T10:04:03Z</time>
</trkpt>
<trkpt lat="34.9595886" lon="33.6565454">
<ele>8.53</ele>
<time>2015-05-02T10:04:04Z</time>
</trkpt>
<trkpt lat="34.9596309" lon="33.6565958">
<ele>8.77</ele>
<time>2015-05-02T10:04:05Z</time>
</trkpt>
<trkpt lat="34.9596819" lon="33.6566557">
<ele>8.89</ele>
<time>2015-05-02T10:04:06Z</time>
</trkpt>
<trkpt lat="34.9597341" lon="33.6567120">
<ele>9.45</ele>
<time>2015-05-02T10:04:07Z</time>
</trkpt>
<trkpt lat="34.9597860" lon="33.6567752">
<ele>9.24</ele>
<time>2015-05-02T10:04:08Z</time>
</trkpt>
<trkpt lat="34.9598380" lon="33.6568303">
<ele>9.13</ele>
<time>2015-05-02T10:04:09Z</time>
</trkpt>
<trkpt lat="34.9598890" lon="33.6568851">
<ele>9.07</ele>
<time>2015-05-02T10:04:10Z</time>
</trkpt>
<trkpt lat="34.9599350" lon="33.6569443">
<ele>9.04</ele>
<time>2015-05-02T10:04:11Z</time>
</trkpt>
<trkpt lat="34.9599878" lon="33.6570100">
<ele>9.03</ele>
<time>2015-05-02T10:04:12Z</time>
</trkpt>
<trkpt lat="34.9600385" lon="33.6570696">
<ele>9.02</ele>
<time>2015-05-02T10:04:13Z</time>
</trkpt>
<trkpt lat="34.9600816" lon="33.6571315">
<ele>9.52</ele>
<time>2015-05-02T10:04:14Z</time>
</trkpt>
<trkpt lat="34.9601238" lon="33.6571870">
<ele>9.77</ele>
<time>2015-05-02T10:04:15Z</time>
</trkpt>
<trkpt lat="34.9601754" lon="33.6572526">
<ele>9.39</ele>
<time>2015-05-02T10:04:16Z</time>
</trkpt>
<trkpt lat="34.9602151" lon="33.6573133">
<ele>9.70</ele>
<time>2015-05-02T10:04:17Z</time>
</trkpt>
<trkpt lat="34.9602654" lon="33.6573676">
<ele>9.86</ele>
<time>2015-05-02T10:04:18Z</time>
</trkpt>
<trkpt lat="34.9603061" lon="33.6574177">
<ele>10.44</ele>
<time>2015-05-02T10:04:19Z</time>
</trkpt>
<trkpt lat="34.9603523" lon="33.6574758">
<ele>10.73</ele>
<time>2015-05-02T10:04:20Z</time>
</trkpt>
<trkpt lat="34.9603926" lon="33.6575282">
<ele>11.37</ele>
<time>2015-05-02T10:04:21Z</time>
</trkpt>
<trkpt lat="34.9604374" lon="33.6575714">
<ele>11.69</ele>
<time>2015-05-02T10:04:22Z</time>
</trkpt>
<trkpt lat="34.9604794" lon="33.6576259">
<ele>12.35</ele>
<time>2015-05-02T10:04:23Z</time>
</trkpt>
<trkpt lat="34.9605244" lon="33.6576749">
<ele>12.19</ele>
<time>2015-05-02T10:04:24Z</time>
</trkpt>
<trkpt lat="34.9605676" lon="33.6577261">
<ele>12.10</ele>
<time>2015-05-02T10:04:25Z</time>
</trkpt>
<trkpt lat="34.9606165" lon="33.6577724">
<ele>11.56</ele>
<time>2015-05-02T10:04:26Z</time>
</trkpt>
<trkpt lat="34.9606614" lon="33.6578259">
<ele>10.79</ele>
<time>2015-05-02T10:04:27Z</time>
</trkpt>
<trkpt lat="34.9607080" lon="33.6578780">
<ele>10.90</ele>
<time>2015-05-02T10:04:28Z</time>
</trkpt>
<trkpt lat="34.9607527" lon="33.6579353">
<ele>10.46</ele>
<time>2015-05-02T10:04:29Z</time>
</trkpt>
<trkpt lat="34.9607994" lon="33.6579665">
<ele>9.74</ele>
<time>2015-05-02T10:04:30Z</time>
</trkpt>
<trkpt lat="34.9608450" lon="33.6580233">
<ele>9.88</ele>
<time>2015-05-02T10:04:31Z</time>
</trkpt>
<trkpt lat="34.9608920" lon="33.6580671">
<ele>9.45</ele>
<time>2015-05-02T10:04:32Z</time>
</trkpt>
<trkpt lat="34.9609264" lon="33.6581128">
<ele>9.23</ele>
<time>2015-05-02T10:04:33Z</time>
</trkpt>
<trkpt lat="34.9609942" lon="33.6581666">
<ele>9.07</ele>
<time>2015-05-02T10:04:35Z</time>
</trkpt>
<trkpt lat="34.9610410" lon="33.6581846">
<ele>9.04</ele>
<time>2015-05-02T10:04:36Z</time>
</trkpt>
<trkpt lat="34.9610963" lon="33.6581870">
<ele>9.03</ele>
<time>2015-05-02T10:04:37Z</time>
</trkpt>
<trkpt lat="34.9611476" lon="33.6581636">
<ele>9.02</ele>
<time>2015-05-02T10:04:38Z</time>
</trkpt>
<trkpt lat="34.9612017" lon="33.6581630">
<ele>9.02</ele>
<time>2015-05-02T10:04:39Z</time>
</trkpt>
<trkpt lat="34.9612538" lon="33.6581553">
<ele>9.02</ele>
<time>2015-05-02T10:04:40Z</time>
</trkpt>
<trkpt lat="34.9613065" lon="33.6581324">
<ele>9.02</ele>
<time>2015-05-02T10:04:41Z</time>
</trkpt>
<trkpt lat="34.9613564" lon="33.6581213">
<ele>9.52</ele>
<time>2015-05-02T10:04:42Z</time>
</trkpt>
<trkpt lat="34.9614113" lon="33.6581000">
<ele>9.77</ele>
<time>2015-05-02T10:04:43Z</time>
</trkpt>
<trkpt lat="34.9614524" lon="33.6580555">
<ele>10.39</ele>
<time>2015-05-02T10:04:44Z</time>
</trkpt>
<trkpt lat="34.9615039" lon="33.6580351">
<ele>10.70</ele>
<time>2015-05-02T10:04:45Z</time>
</trkpt>
<trkpt lat="34.9615575" lon="33.6580169">
<ele>10.36</ele>
<time>2015-05-02T10:04:46Z</time>
</trkpt>
<trkpt lat="34.9616140" lon="33.6579998">
<ele>10.69</ele>
<time>2015-05-02T10:04:47Z</time>
</trkpt>
<trkpt lat="34.9616796" lon="33.6579791">
<ele>10.85</ele>
<time>2015-05-02T10:04:48Z</time>
</trkpt>
<trkpt lat="34.9617338" lon="33.6579646">
<ele>10.93</ele>
<time>2015-05-02T10:04:49Z</time>
</trkpt>
<trkpt lat="34.9617863" lon="33.6579428">
<ele>10.97</ele>
<time>2015-05-02T10:04:50Z</time>
</trkpt>
<trkpt lat="34.9618790" lon="33.6579148">
<ele>9.76</ele>
<time>2015-05-02T10:04:52Z</time>
</trkpt>
<trkpt lat="34.9619329" lon="33.6578949">
<ele>9.39</ele>
<time>2015-05-02T10:04:53Z</time>
</trkpt>
<trkpt lat="34.9619790" lon="33.6578781">
<ele>9.70</ele>
<time>2015-05-02T10:04:54Z</time>
</trkpt>
<trkpt lat="34.9620353" lon="33.6578631">
<ele>9.86</ele>
<time>2015-05-02T10:04:55Z</time>
</trkpt>
<trkpt lat="34.9620856" lon="33.6578464">
<ele>9.94</ele>
<time>2015-05-02T10:04:56Z</time>
</trkpt>
<trkpt lat="34.9621358" lon="33.6578273">
<ele>9.98</ele>
<time>2015-05-02T10:04:57Z</time>
</trkpt>
<trkpt lat="34.9621812" lon="33.6577984">
<ele>11.00</ele>
<time>2015-05-02T10:04:58Z</time>
</trkpt>
<trkpt lat="34.9622257" lon="33.6577591">
<ele>12.01</ele>
<time>2015-05-02T10:04:59Z</time>
</trkpt>
<trkpt lat="34.9622854" lon="33.6577378">
<ele>13.01</ele>
<time>2015-05-02T10:05:00Z</time>
</trkpt>
<trkpt lat="34.9623440" lon="33.6577130">
<ele>13.51</ele>
<time>2015-05-02T10:05:01Z</time>
</trkpt>
<trkpt lat="34.9624033" lon="33.6576891">
<ele>13.26</ele>
<time>2015-05-02T10:05:02Z</time>
</trkpt>
<trkpt lat="34.9624680" lon="33.6576730">
<ele>13.14</ele>
<time>2015-05-02T10:05:03Z</time>
</trkpt>
<trkpt lat="34.9625231" lon="33.6576512">
<ele>12.58</ele>
<time>2015-05-02T10:05:04Z</time>
</trkpt>
<trkpt lat="34.9625806" lon="33.6576315">
<ele>12.30</ele>
<time>2015-05-02T10:05:05Z</time>
</trkpt>
<trkpt lat="34.9626373" lon="33.6576099">
<ele>12.16</ele>
<time>2015-05-02T10:05:06Z</time>
</trkpt>
<trkpt lat="34.9626846" lon="33.6575956">
<ele>12.09</ele>
<time>2015-05-02T10:05:07Z</time>
</trkpt>
<trkpt lat="34.9627418" lon="33.6575787">
<ele>11.55</ele>
<time>2015-05-02T10:05:08Z</time>
</trkpt>
<trkpt lat="34.9627910" lon="33.6575718">
<ele>11.28</ele>
<time>2015-05-02T10:05:09Z</time>
</trkpt>
<trkpt lat="34.9628462" lon="33.6575483">
<ele>10.65</ele>
<time>2015-05-02T10:05:10Z</time>
</trkpt>
<trkpt lat="34.9629094" lon="33.6575308">
<ele>10.83</ele>
<time>2015-05-02T10:05:11Z</time>
</trkpt>
<trkpt lat="34.9629683" lon="33.6575220">
<ele>10.42</ele>
<time>2015-05-02T10:05:12Z</time>
</trkpt>
<trkpt lat="34.9630234" lon="33.6574999">
<ele>10.72</ele>
<time>2015-05-02T10:05:13Z</time>
</trkpt>
<trkpt lat="34.9630877" lon="33.6574778">
<ele>10.87</ele>
<time>2015-05-02T10:05:14Z</time>
</trkpt>
<trkpt lat="34.9631446" lon="33.6574655">
<ele>10.94</ele>
<time>2015-05-02T10:05:15Z</time>
</trkpt>
<trkpt lat="34.9632085" lon="33.6574484">
<ele>10.98</ele>
<time>2015-05-02T10:05:16Z</time>
</trkpt>
<trkpt lat="34.9632695" lon="33.6574428">
<ele>11.00</ele>
<time>2015-05-02T10:05:17Z</time>
</trkpt>
<trkpt lat="34.9633228" lon="33.6574242">
<ele>11.01</ele>
<time>2015-05-02T10:05:18Z</time>
</trkpt>
<trkpt lat="34.9633809" lon="33.6574093">
<ele>10.51</ele>
<time>2015-05-02T10:05:19Z</time>
</trkpt>
<trkpt lat="34.9634456" lon="33.6573880">
<ele>10.26</ele>
<time>2015-05-02T10:05:20Z</time>
</trkpt>
<trkpt lat="34.9635064" lon="33.6573688">
<ele>10.14</ele>
<time>2015-05-02T10:05:21Z</time>
</trkpt>
<trkpt lat="34.9635745" lon="33.6573545">
<ele>10.58</ele>
<time>2015-05-02T10:05:22Z</time>
</trkpt>
<trkpt lat="34.9636416" lon="33.6573400">
<ele>10.80</ele>
<time>2015-05-02T10:05:23Z</time>
</trkpt>
<trkpt lat="34.9637173" lon="33.6573355">
<ele>11.41</ele>
<time>2015-05-02T10:05:24Z</time>
</trkpt>
<trkpt lat="34.9637931" lon="33.6573360">
<ele>11.71</ele>
<time>2015-05-02T10:05:25Z</time>
</trkpt>
<trkpt lat="34.9638645" lon="33.6573323">
<ele>12.36</ele>
<time>2015-05-02T10:05:26Z</time>
</trkpt>
<trkpt lat="34.9639415" lon="33.6573288">
<ele>12.19</ele>
<time>2015-05-02T10:05:27Z</time>
</trkpt>
<trkpt lat="34.9640040" lon="33.6573123">
<ele>12.60</ele>
<time>2015-05-02T10:05:28Z</time>
</trkpt>
<trkpt lat="34.9640692" lon="33.6573063">
<ele>12.81</ele>
<time>2015-05-02T10:05:29Z</time>
</trkpt>
<trkpt lat="34.9641367" lon="33.6573093">
<ele>13.41</ele>
<time>2015-05-02T10:05:30Z</time>
</trkpt>
<trkpt lat="34.9642067" lon="33.6573051">
<ele>13.71</ele>
<time>2015-05-02T10:05:31Z</time>
</trkpt>
<trkpt lat="34.9642827" lon="33.6572989">
<ele>13.87</ele>
<time>2015-05-02T10:05:32Z</time>
</trkpt>
<trkpt lat="34.9643476" lon="33.6572984">
<ele>13.94</ele>
<time>2015-05-02T10:05:33Z</time>
</trkpt>
<trkpt lat="34.9644080" lon="33.6572860">
<ele>14.98</ele>
<time>2015-05-02T10:05:34Z</time>
</trkpt>
<trkpt lat="34.9644801" lon="33.6572863">
<ele>15.00</ele>
<time>2015-05-02T10:05:35Z</time>
</trkpt>
<trkpt lat="34.9645412" lon="33.6572793">
<ele>15.01</ele>
<time>2015-05-02T10:05:36Z</time>
</trkpt>
<trkpt lat="34.9645993" lon="33.6572813">
<ele>14.51</ele>
<time>2015-05-02T10:05:37Z</time>
</trkpt>
<trkpt lat="34.9646711" lon="33.6572808">
<ele>13.76</ele>
<time>2015-05-02T10:05:38Z</time>
</trkpt>
<trkpt lat="34.9647369" lon="33.6572773">
<ele>13.39</ele>
<time>2015-05-02T10:05:39Z</time>
</trkpt>
<trkpt lat="34.9648058" lon="33.6572786">
<ele>13.20</ele>
<time>2015-05-02T10:05:40Z</time>
</trkpt>
<trkpt lat="34.9648669" lon="33.6572863">
<ele>12.61</ele>
<time>2015-05-02T10:05:41Z</time>
</trkpt>
<trkpt lat="34.9649136" lon="33.6572896">
<ele>13.31</ele>
<time>2015-05-02T10:05:42Z</time>
</trkpt>
<trkpt lat="34.9649822" lon="33.6572971">
<ele>13.16</ele>
<time>2015-05-02T10:05:43Z</time>
</trkpt>
<trkpt lat="34.9650475" lon="33.6572850">
<ele>12.59</ele>
<time>2015-05-02T10:05:44Z</time>
</trkpt>
<trkpt lat="34.9651003" lon="33.6572642">
<ele>12.80</ele>
<time>2015-05-02T10:05:45Z</time>
</trkpt>
<trkpt lat="34.9651736" lon="33.6572664">
<ele>12.41</ele>
<time>2015-05-02T10:05:46Z</time>
</trkpt>
<trkpt lat="34.9652370" lon="33.6572645">
<ele>12.21</ele>
<time>2015-05-02T10:05:47Z</time>
</trkpt>
<trkpt lat="34.9653079" lon="33.6572639">
<ele>12.11</ele>
<time>2015-05-02T10:05:48Z</time>
</trkpt>
<trkpt lat="34.9653779" lon="33.6572696">
<ele>11.57</ele>
<time>2015-05-02T10:05:49Z</time>
</trkpt>
<trkpt lat="34.9654408" lon="33.6572761">
<ele>11.29</ele>
<time>2015-05-02T10:05:50Z</time>
</trkpt>
<trkpt lat="34.9655080" lon="33.6572791">
<ele>11.15</ele>
<time>2015-05-02T10:05:51Z</time>
</trkpt>
<trkpt lat="34.9655776" lon="33.6572717">
<ele>11.08</ele>
<time>2015-05-02T10:05:52Z</time>
</trkpt>
<trkpt lat="34.9656484" lon="33.6572723">
<ele>10.55</ele>
<time>2015-05-02T10:05:53Z</time>
</trkpt>
<trkpt lat="34.9657095" lon="33.6572684">
<ele>10.28</ele>
<time>2015-05-02T10:05:54Z</time>
</trkpt>
<trkpt lat="34.9657717" lon="33.6572761">
<ele>10.65</ele>
<time>2015-05-02T10:05:55Z</time>
</trkpt>
<trkpt lat="34.9658413" lon="33.6572851">
<ele>10.83</ele>
<time>2015-05-02T10:05:56Z</time>
</trkpt>
<trkpt lat="34.9659119" lon="33.6572709">
<ele>10.92</ele>
<time>2015-05-02T10:05:57Z</time>
</trkpt>
<trkpt lat="34.9659772" lon="33.6572716">
<ele>10.47</ele>
<time>2015-05-02T10:05:58Z</time>
</trkpt>
<trkpt lat="34.9660506" lon="33.6572686">
<ele>10.24</ele>
<time>2015-05-02T10:05:59Z</time>
</trkpt>
<trkpt lat="34.9661192" lon="33.6572694">
<ele>9.63</ele>
<time>2015-05-02T10:06:00Z</time>
</trkpt>
<trkpt lat="34.9661814" lon="33.6572702">
<ele>9.82</ele>
<time>2015-05-02T10:06:01Z</time>
</trkpt>
<trkpt lat="34.9662485" lon="33.6572906">
<ele>8.92</ele>
<time>2015-05-02T10:06:02Z</time>
</trkpt>
<trkpt lat="34.9663084" lon="33.6572918">
<ele>8.47</ele>
<time>2015-05-02T10:06:03Z</time>
</trkpt>
<trkpt lat="34.9663574" lon="33.6572926">
<ele>8.74</ele>
<time>2015-05-02T10:06:04Z</time>
</trkpt>
<trkpt lat="34.9664190" lon="33.6572966">
<ele>8.88</ele>
<time>2015-05-02T10:06:05Z</time>
</trkpt>
<trkpt lat="34.9664777" lon="33.6572984">
<ele>8.95</ele>
<time>2015-05-02T10:06:06Z</time>
</trkpt>
<trkpt lat="34.9665417" lon="33.6573003">
<ele>8.98</ele>
<time>2015-05-02T10:06:07Z</time>
</trkpt>
<trkpt lat="34.9666097" lon="33.6573029">
<ele>9.50</ele>
<time>2015-05-02T10:06:08Z</time>
</trkpt>
<trkpt lat="34.9666734" lon="33.6572986">
<ele>9.76</ele>
<time>2015-05-02T10:06:09Z</time>
</trkpt>
<trkpt lat="34.9667454" lon="33.6573050">
<ele>9.39</ele>
<time>2015-05-02T10:06:10Z</time>
</trkpt>
<trkpt lat="34.9668074" lon="33.6573125">
<ele>9.20</ele>
<time>2015-05-02T10:06:11Z</time>
</trkpt>
<trkpt lat="34.9668764" lon="33.6573097">
<ele>8.61</ele>
<time>2015-05-02T10:06:12Z</time>
</trkpt>
<trkpt lat="34.9669446" lon="33.6573215">
<ele>8.31</ele>
<time>2015-05-02T10:06:13Z</time>
</trkpt>
<trkpt lat="34.9670039" lon="33.6573220">
<ele>8.66</ele>
<time>2015-05-02T10:06:14Z</time>
</trkpt>
<trkpt lat="34.9670744" lon="33.6573206">
<ele>9.34</ele>
<time>2015-05-02T10:06:15Z</time>
</trkpt>
<trkpt lat="34.9671476" lon="33.6573249">
<ele>9.18</ele>
<time>2015-05-02T10:06:16Z</time>
</trkpt>
<trkpt lat="34.9672181" lon="33.6573297">
<ele>8.60</ele>
<time>2015-05-02T10:06:17Z</time>
</trkpt>
<trkpt lat="34.9672962" lon="33.6573258">
<ele>8.31</ele>
<time>2015-05-02T10:06:18Z</time>
</trkpt>
<trkpt lat="34.9673700" lon="33.6573265">
<ele>7.66</ele>
<time>2015-05-02T10:06:19Z</time>
</trkpt>
<trkpt lat="34.9674372" lon="33.6573258">
<ele>7.34</ele>
<time>2015-05-02T10:06:20Z</time>
</trkpt>
<trkpt lat="34.9675065" lon="33.6573241">
<ele>7.18</ele>
<time>2015-05-02T10:06:21Z</time>
</trkpt>
<trkpt lat="34.9675733" lon="33.6573296">
<ele>7.60</ele>
<time>2015-05-02T10:06:22Z</time>
</trkpt>
<trkpt lat="34.9676370" lon="33.6573270">
<ele>7.81</ele>
<time>2015-05-02T10:06:23Z</time>
</trkpt>
<trkpt lat="34.9677072" lon="33.6573245">
<ele>7.91</ele>
<time>2015-05-02T10:06:24Z</time>
</trkpt>
<trkpt lat="34.9677737" lon="33.6573196">
<ele>7.96</ele>
<time>2015-05-02T10:06:25Z</time>
</trkpt>
<trkpt lat="34.9678509" lon="33.6573121">
<ele>8.49</ele>
<time>2015-05-02T10:06:26Z</time>
</trkpt>
<trkpt lat="34.9679197" lon="33.6573031">
<ele>8.25</ele>
<time>2015-05-02T10:06:27Z</time>
</trkpt>
<trkpt lat="34.9680004" lon="33.6573011">
<ele>8.13</ele>
<time>2015-05-02T10:06:28Z</time>
</trkpt>
<trkpt lat="34.9680653" lon="33.6572897">
<ele>7.58</ele>
<time>2015-05-02T10:06:29Z</time>
</trkpt>
<trkpt lat="34.9681400" lon="33.6572747">
<ele>6.80</ele>
<time>2015-05-02T10:06:30Z</time>
</trkpt>
<trkpt lat="34.9682170" lon="33.6572526">
<ele>6.41</ele>
<time>2015-05-02T10:06:31Z</time>
</trkpt>
<trkpt lat="34.9682906" lon="33.6572437">
<ele>5.71</ele>
<time>2015-05-02T10:06:32Z</time>
</trkpt>
<trkpt lat="34.9683649" lon="33.6572309">
<ele>5.36</ele>
<time>2015-05-02T10:06:33Z</time>
</trkpt>
<trkpt lat="34.9684274" lon="33.6572008">
<ele>5.19</ele>
<time>2015-05-02T10:06:34Z</time>
</trkpt>
<trkpt lat="34.9684966" lon="33.6571658">
<ele>5.10</ele>
<time>2015-05-02T10:06:35Z</time>
</trkpt>
<trkpt lat="34.9685658" lon="33.6571306">
<ele>4.56</ele>
<time>2015-05-02T10:06:36Z</time>
</trkpt>
<trkpt lat="34.9686376" lon="33.6571020">
<ele>4.79</ele>
<time>2015-05-02T10:06:37Z</time>
</trkpt>
<trkpt lat="34.9687012" lon="33.6570593">
<ele>5.40</ele>
<time>2015-05-02T10:06:38Z</time>
</trkpt>
<trkpt lat="34.9687594" lon="33.6570260">
<ele>5.71</ele>
<time>2015-05-02T10:06:39Z</time>
</trkpt>
<trkpt lat="34.9688194" lon="33.6569810">
<ele>5.86</ele>
<time>2015-05-02T10:06:40Z</time>
</trkpt>
<trkpt lat="34.9688734" lon="33.6569323">
<ele>6.44</ele>
<time>2015-05-02T10:06:41Z</time>
</trkpt>
<trkpt lat="34.9689337" lon="33.6568862">
<ele>6.73</ele>
<time>2015-05-02T10:06:42Z</time>
</trkpt>
<trkpt lat="34.9689826" lon="33.6568362">
<ele>6.87</ele>
<time>2015-05-02T10:06:43Z</time>
</trkpt>
<trkpt lat="34.9690385" lon="33.6567835">
<ele>6.94</ele>
<time>2015-05-02T10:06:44Z</time>
</trkpt>
<trkpt lat="34.9690952" lon="33.6567276">
<ele>6.98</ele>
<time>2015-05-02T10:06:45Z</time>
</trkpt>
<trkpt lat="34.9691495" lon="33.6566640">
<ele>7.00</ele>
<time>2015-05-02T10:06:46Z</time>
</trkpt>
<trkpt lat="34.9691989" lon="33.6566075">
<ele>7.01</ele>
<time>2015-05-02T10:06:47Z</time>
</trkpt>
<trkpt lat="34.9692500" lon="33.6565404">
<ele>7.51</ele>
<time>2015-05-02T10:06:48Z</time>
</trkpt>
<trkpt lat="34.9693001" lon="33.6564856">
<ele>7.76</ele>
<time>2015-05-02T10:06:49Z</time>
</trkpt>
<trkpt lat="34.9693473" lon="33.6564245">
<ele>7.89</ele>
<time>2015-05-02T10:06:50Z</time>
</trkpt>
<trkpt lat="34.9693993" lon="33.6563684">
<ele>7.95</ele>
<time>2015-05-02T10:06:51Z</time>
</trkpt>
<trkpt lat="34.9694491" lon="33.6563107">
<ele>7.98</ele>
<time>2015-05-02T10:06:52Z</time>
</trkpt>
<trkpt lat="34.9694974" lon="33.6562590">
<ele>8.00</ele>
<time>2015-05-02T10:06:53Z</time>
</trkpt>
<trkpt lat="34.9695531" lon="33.6562099">
<ele>8.01</ele>
<time>2015-05-02T10:06:54Z</time>
</trkpt>
<trkpt lat="34.9696075" lon="33.6561572">
<ele>7.51</ele>
<time>2015-05-02T10:06:55Z</time>
</trkpt>
<trkpt lat="34.9696528" lon="33.6560994">
<ele>6.76</ele>
<time>2015-05-02T10:06:56Z</time>
</trkpt>
<trkpt lat="34.9697047" lon="33.6560401">
<ele>6.89</ele>
<time>2015-05-02T10:06:57Z</time>
</trkpt>
<trkpt lat="34.9697592" lon="33.6559856">
<ele>6.45</ele>
<time>2015-05-02T10:06:58Z</time>
</trkpt>
<trkpt lat="34.9697998" lon="33.6559285">
<ele>6.73</ele>
<time>2015-05-02T10:06:59Z</time>
</trkpt>
<trkpt lat="34.9698556" lon="33.6558631">
<ele>6.88</ele>
<time>2015-05-02T10:07:00Z</time>
</trkpt>
<trkpt lat="34.9699074" lon="33.6557975">
<ele>6.95</ele>
<time>2015-05-02T10:07:01Z</time>
</trkpt>
<trkpt lat="34.9699621" lon="33.6557430">
<ele>6.98</ele>
<time>2015-05-02T10:07:02Z</time>
</trkpt>
<trkpt lat="34.9700158" lon="33.6556876">
<ele>7.00</ele>
<time>2015-05-02T10:07:03Z</time>
</trkpt>
<trkpt lat="34.9700689" lon="33.6556391">
<ele>7.01</ele>
<time>2015-05-02T10:07:04Z</time>
</trkpt>
<trkpt lat="34.9701201" lon="33.6555854">
<ele>7.01</ele>
<time>2015-05-02T10:07:05Z</time>
</trkpt>
<trkpt lat="34.9701789" lon="33.6555260">
<ele>7.01</ele>
<time>2015-05-02T10:07:06Z</time>
</trkpt>
<trkpt lat="34.9702186" lon="33.6554631">
<ele>7.01</ele>
<time>2015-05-02T10:07:07Z</time>
</trkpt>
<trkpt lat="34.9702666" lon="33.6554103">
<ele>7.02</ele>
<time>2015-05-02T10:07:08Z</time>
</trkpt>
<trkpt lat="34.9703137" lon="33.6553609">
<ele>7.02</ele>
<time>2015-05-02T10:07:09Z</time>
</trkpt>
<trkpt lat="34.9703557" lon="33.6553133">
<ele>7.52</ele>
<time>2015-05-02T10:07:10Z</time>
</trkpt>
<trkpt lat="34.9704003" lon="33.6552739">
<ele>7.27</ele>
<time>2015-05-02T10:07:11Z</time>
</trkpt>
<trkpt lat="34.9704348" lon="33.6552327">
<ele>7.14</ele>
<time>2015-05-02T10:07:12Z</time>
</trkpt>
<trkpt lat="34.9704694" lon="33.6551746">
<ele>6.80</ele>
<time>2015-05-02T10:07:14Z</time>
</trkpt>
<trkpt lat="34.9705104" lon="33.6551245">
<ele>6.39</ele>
<time>2015-05-02T10:07:33Z</time>
</trkpt>
<trkpt lat="34.9705488" lon="33.6550891">
<ele>7.36</ele>
<time>2015-05-02T10:07:35Z</time>
</trkpt>
<trkpt lat="34.9705875" lon="33.6550553">
<ele>8.35</ele>
<time>2015-05-02T10:07:37Z</time>
</trkpt>
<trkpt lat="34.9706294" lon="33.6550144">
<ele>8.35</ele>
<time>2015-05-02T10:07:39Z</time>
</trkpt>
<trkpt lat="34.9706812" lon="33.6549621">
<ele>8.60</ele>
<time>2015-05-02T10:07:41Z</time>
</trkpt>
<trkpt lat="34.9707123" lon="33.6548945">
<ele>9.41</ele>
<time>2015-05-02T10:07:43Z</time>
</trkpt>
<trkpt lat="34.9707107" lon="33.6548190">
<ele>9.86</ele>
<time>2015-05-02T10:07:45Z</time>
</trkpt>
<trkpt lat="34.9707038" lon="33.6547550">
<ele>8.73</ele>
<time>2015-05-02T10:07:47Z</time>
</trkpt>
<trkpt lat="34.9707009" lon="33.6546940">
<ele>8.94</ele>
<time>2015-05-02T10:07:49Z</time>
</trkpt>
<trkpt lat="34.9706605" lon="33.6546643">
<ele>9.02</ele>
<time>2015-05-02T10:16:21Z</time>
</trkpt>
<trkpt lat="34.9706823" lon="33.6547214">
<ele>6.52</ele>
<time>2015-05-02T10:18:17Z</time>
</trkpt>
<trkpt lat="34.9707150" lon="33.6547594">
<ele>5.86</ele>
<time>2015-05-02T10:18:21Z</time>
</trkpt>
<trkpt lat="34.9707786" lon="33.6547715">
<ele>9.00</ele>
<time>2015-05-02T10:18:24Z</time>
</trkpt>
<trkpt lat="34.9708355" lon="33.6547572">
<ele>9.26</ele>
<time>2015-05-02T10:18:26Z</time>
</trkpt>
<trkpt lat="34.9709063" lon="33.6547150">
<ele>9.58</ele>
<time>2015-05-02T10:18:28Z</time>
</trkpt>
<trkpt lat="34.9709684" lon="33.6546580">
<ele>9.91</ele>
<time>2015-05-02T10:18:30Z</time>
</trkpt>
<trkpt lat="34.9710219" lon="33.6545944">
<ele>9.99</ele>
<time>2015-05-02T10:18:32Z</time>
</trkpt>
<trkpt lat="34.9710697" lon="33.6545320">
<ele>10.51</ele>
<time>2015-05-02T10:18:34Z</time>
</trkpt>
<trkpt lat="34.9711139" lon="33.6544769">
<ele>10.14</ele>
<time>2015-05-02T10:18:36Z</time>
</trkpt>
<trkpt lat="34.9711570" lon="33.6544245">
<ele>10.05</ele>
<time>2015-05-02T10:18:38Z</time>
</trkpt>
<trkpt lat="34.9712002" lon="33.6543783">
<ele>10.52</ele>
<time>2015-05-02T10:18:40Z</time>
</trkpt>
<trkpt lat="34.9712462" lon="33.6543362">
<ele>10.14</ele>
<time>2015-05-02T10:18:42Z</time>
</trkpt>
<trkpt lat="34.9712879" lon="33.6542914">
<ele>10.80</ele>
<time>2015-05-02T10:18:44Z</time>
</trkpt>
<trkpt lat="34.9713270" lon="33.6542471">
<ele>11.21</ele>
<time>2015-05-02T10:18:46Z</time>
</trkpt>
<trkpt lat="34.9713649" lon="33.6542073">
<ele>11.06</ele>
<time>2015-05-02T10:18:48Z</time>
</trkpt>
<trkpt lat="34.9714051" lon="33.6541635">
<ele>11.78</ele>
<time>2015-05-02T10:18:50Z</time>
</trkpt>
<trkpt lat="34.9714471" lon="33.6541149">
<ele>11.96</ele>
<time>2015-05-02T10:18:52Z</time>
</trkpt>
<trkpt lat="34.9714930" lon="33.6540627">
<ele>12.50</ele>
<time>2015-05-02T10:18:54Z</time>
</trkpt>
<trkpt lat="34.9715518" lon="33.6540002">
<ele>12.89</ele>
<time>2015-05-02T10:18:56Z</time>
</trkpt>
<trkpt lat="34.9716392" lon="33.6539153">
<ele>12.98</ele>
<time>2015-05-02T10:18:58Z</time>
</trkpt>
<trkpt lat="34.9716879" lon="33.6538428">
<ele>13.51</ele>
<time>2015-05-02T10:19:00Z</time>
</trkpt>
<trkpt lat="34.9717608" lon="33.6537995">
<ele>15.14</ele>
<time>2015-05-02T10:19:02Z</time>
</trkpt>
<trkpt lat="34.9718052" lon="33.6537792">
<ele>15.58</ele>
<time>2015-05-02T10:19:03Z</time>
</trkpt>
<trkpt lat="34.9718544" lon="33.6537425">
<ele>15.80</ele>
<time>2015-05-02T10:19:04Z</time>
</trkpt>
<trkpt lat="34.9718376" lon="33.6536155">
<ele>16.91</ele>
<time>2015-05-02T10:19:05Z</time>
</trkpt>
<trkpt lat="34.9718725" lon="33.6535590">
<ele>17.46</ele>
<time>2015-05-02T10:19:06Z</time>
</trkpt>
<trkpt lat="34.9719079" lon="33.6535196">
<ele>16.74</ele>
<time>2015-05-02T10:19:07Z</time>
</trkpt>
<trkpt lat="34.9719598" lon="33.6535026">
<ele>15.88</ele>
<time>2015-05-02T10:19:08Z</time>
</trkpt>
<trkpt lat="34.9720040" lon="33.6534711">
<ele>14.95</ele>
<time>2015-05-02T10:19:09Z</time>
</trkpt>
<trkpt lat="34.9720723" lon="33.6534274">
<ele>15.48</ele>
<time>2015-05-02T10:19:10Z</time>
</trkpt>
<trkpt lat="34.9721127" lon="33.6533888">
<ele>15.75</ele>
<time>2015-05-02T10:19:11Z</time>
</trkpt>
<trkpt lat="34.9721487" lon="33.6533498">
<ele>15.38</ele>
<time>2015-05-02T10:19:12Z</time>
</trkpt>
<trkpt lat="34.9722000" lon="33.6533124">
<ele>15.20</ele>
<time>2015-05-02T10:19:13Z</time>
</trkpt>
<trkpt lat="34.9722313" lon="33.6532683">
<ele>15.11</ele>
<time>2015-05-02T10:19:14Z</time>
</trkpt>
<trkpt lat="34.9722643" lon="33.6532256">
<ele>14.56</ele>
<time>2015-05-02T10:19:15Z</time>
</trkpt>
<trkpt lat="34.9723098" lon="33.6531749">
<ele>14.79</ele>
<time>2015-05-02T10:19:16Z</time>
</trkpt>
<trkpt lat="34.9723583" lon="33.6531303">
<ele>14.90</ele>
<time>2015-05-02T10:19:17Z</time>
</trkpt>
<trkpt lat="34.9724044" lon="33.6530980">
<ele>14.96</ele>
<time>2015-05-02T10:19:18Z</time>
</trkpt>
<trkpt lat="34.9724365" lon="33.6530467">
<ele>14.99</ele>
<time>2015-05-02T10:19:19Z</time>
</trkpt>
<trkpt lat="34.9724934" lon="33.6529680">
<ele>14.51</ele>
<time>2015-05-02T10:19:21Z</time>
</trkpt>
<trkpt lat="34.9725336" lon="33.6529219">
<ele>14.26</ele>
<time>2015-05-02T10:19:22Z</time>
</trkpt>
<trkpt lat="34.9725705" lon="33.6528800">
<ele>13.64</ele>
<time>2015-05-02T10:19:23Z</time>
</trkpt>
<trkpt lat="34.9726137" lon="33.6528418">
<ele>13.83</ele>
<time>2015-05-02T10:19:24Z</time>
</trkpt>
<trkpt lat="34.9726532" lon="33.6528038">
<ele>13.92</ele>
<time>2015-05-02T10:19:25Z</time>
</trkpt>
<trkpt lat="34.9726928" lon="33.6527661">
<ele>13.47</ele>
<time>2015-05-02T10:19:26Z</time>
</trkpt>
<trkpt lat="34.9727478" lon="33.6527335">
<ele>13.74</ele>
<time>2015-05-02T10:19:27Z</time>
</trkpt>
<trkpt lat="34.9727856" lon="33.6527030">
<ele>13.38</ele>
<time>2015-05-02T10:19:28Z</time>
</trkpt>
<trkpt lat="34.9728336" lon="33.6526792">
<ele>13.20</ele>
<time>2015-05-02T10:19:29Z</time>
</trkpt>
<trkpt lat="34.9729137" lon="33.6526346">
<ele>14.31</ele>
<time>2015-05-02T10:19:31Z</time>
</trkpt>
<trkpt lat="34.9729693" lon="33.6526083">
<ele>14.16</ele>
<time>2015-05-02T10:19:32Z</time>
</trkpt>
<trkpt lat="34.9730164" lon="33.6525842">
<ele>14.09</ele>
<time>2015-05-02T10:19:33Z</time>
</trkpt>
<trkpt lat="34.9730765" lon="33.6525682">
<ele>14.55</ele>
<time>2015-05-02T10:19:34Z</time>
</trkpt>
<trkpt lat="34.9731254" lon="33.6525522">
<ele>15.28</ele>
<time>2015-05-02T10:19:35Z</time>
</trkpt>
<trkpt lat="34.9731785" lon="33.6525363">
<ele>15.65</ele>
<time>2015-05-02T10:19:36Z</time>
</trkpt>
<trkpt lat="34.9732290" lon="33.6525246">
<ele>15.83</ele>
<time>2015-05-02T10:19:37Z</time>
</trkpt>
<trkpt lat="34.9732774" lon="33.6525183">
<ele>16.42</ele>
<time>2015-05-02T10:19:38Z</time>
</trkpt>
<trkpt lat="34.9733230" lon="33.6525186">
<ele>17.22</ele>
<time>2015-05-02T10:19:39Z</time>
</trkpt>
<trkpt lat="34.9733799" lon="33.6525203">
<ele>17.12</ele>
<time>2015-05-02T10:19:40Z</time>
</trkpt>
<trkpt lat="34.9734312" lon="33.6525199">
<ele>17.57</ele>
<time>2015-05-02T10:19:41Z</time>
</trkpt>
<trkpt lat="34.9735249" lon="33.6525234">
<ele>18.65</ele>
<time>2015-05-02T10:19:43Z</time>
</trkpt>
<trkpt lat="34.9735770" lon="33.6525314">
<ele>18.83</ele>
<time>2015-05-02T10:19:44Z</time>
</trkpt>
<trkpt lat="34.9736302" lon="33.6525385">
<ele>19.43</ele>
<time>2015-05-02T10:19:45Z</time>
</trkpt>
<trkpt lat="34.9736827" lon="33.6525537">
<ele>19.72</ele>
<time>2015-05-02T10:19:46Z</time>
</trkpt>
<trkpt lat="34.9737738" lon="33.6525825">
<ele>19.94</ele>
<time>2015-05-02T10:19:48Z</time>
</trkpt>
<trkpt lat="34.9738311" lon="33.6526040">
<ele>19.98</ele>
<time>2015-05-02T10:19:49Z</time>
</trkpt>
<trkpt lat="34.9738813" lon="33.6526245">
<ele>19.50</ele>
<time>2015-05-02T10:19:50Z</time>
</trkpt>
<trkpt lat="34.9739440" lon="33.6526558">
<ele>19.26</ele>
<time>2015-05-02T10:19:51Z</time>
</trkpt>
<trkpt lat="34.9739890" lon="33.6526818">
<ele>19.14</ele>
<time>2015-05-02T10:19:52Z</time>
</trkpt>
<trkpt lat="34.9740374" lon="33.6527076">
<ele>19.58</ele>
<time>2015-05-02T10:19:53Z</time>
</trkpt>
<trkpt lat="34.9740872" lon="33.6527360">
<ele>19.80</ele>
<time>2015-05-02T10:19:54Z</time>
</trkpt>
<trkpt lat="34.9741760" lon="33.6528030">
<ele>20.71</ele>
<time>2015-05-02T10:19:56Z</time>
</trkpt>
<trkpt lat="34.9742221" lon="33.6528464">
<ele>20.86</ele>
<time>2015-05-02T10:19:57Z</time>
</trkpt>
<trkpt lat="34.9742643" lon="33.6528919">
<ele>20.94</ele>
<time>2015-05-02T10:19:58Z</time>
</trkpt>
<trkpt lat="34.9743131" lon="33.6529436">
<ele>20.48</ele>
<time>2015-05-02T10:19:59Z</time>
</trkpt>
<trkpt lat="34.9743547" lon="33.6529874">
<ele>20.25</ele>
<time>2015-05-02T10:20:00Z</time>
</trkpt>
<trkpt lat="34.9743994" lon="33.6530366">
<ele>20.13</ele>
<time>2015-05-02T10:20:01Z</time>
</trkpt>
<trkpt lat="34.9744301" lon="33.6530891">
<ele>20.07</ele>
<time>2015-05-02T10:20:02Z</time>
</trkpt>
<trkpt lat="34.9744607" lon="33.6531338">
<ele>20.54</ele>
<time>2015-05-02T10:20:03Z</time>
</trkpt>
<trkpt lat="34.9744979" lon="33.6531830">
<ele>20.78</ele>
<time>2015-05-02T10:20:04Z</time>
</trkpt>
<trkpt lat="34.9745338" lon="33.6532369">
<ele>19.90</ele>
<time>2015-05-02T10:20:05Z</time>
</trkpt>
<trkpt lat="34.9745684" lon="33.6532932">
<ele>19.46</ele>
<time>2015-05-02T10:20:06Z</time>
</trkpt>
<trkpt lat="34.9746103" lon="33.6533494">
<ele>19.24</ele>
<time>2015-05-02T10:20:07Z</time>
</trkpt>
<trkpt lat="34.9746504" lon="33.6534102">
<ele>18.63</ele>
<time>2015-05-02T10:20:08Z</time>
</trkpt>
<trkpt lat="34.9746870" lon="33.6534636">
<ele>18.32</ele>
<time>2015-05-02T10:20:09Z</time>
</trkpt>
<trkpt lat="34.9747127" lon="33.6535272">
<ele>19.17</ele>
<time>2015-05-02T10:20:10Z</time>
</trkpt>
<trkpt lat="34.9747144" lon="33.6535896">
<ele>20.09</ele>
<time>2015-05-02T10:20:11Z</time>
</trkpt>
<trkpt lat="34.9747412" lon="33.6536478">
<ele>20.05</ele>
<time>2015-05-02T10:20:12Z</time>
</trkpt>
<trkpt lat="34.9747741" lon="33.6537573">
<ele>21.78</ele>
<time>2015-05-02T10:20:14Z</time>
</trkpt>
<trkpt lat="34.9747875" lon="33.6538123">
<ele>22.40</ele>
<time>2015-05-02T10:20:15Z</time>
</trkpt>
<trkpt lat="34.9747955" lon="33.6538686">
<ele>22.71</ele>
<time>2015-05-02T10:20:16Z</time>
</trkpt>
<trkpt lat="34.9748121" lon="33.6539376">
<ele>22.86</ele>
<time>2015-05-02T10:20:17Z</time>
</trkpt>
<trkpt lat="34.9748169" lon="33.6539948">
<ele>22.44</ele>
<time>2015-05-02T10:20:18Z</time>
</trkpt>
<trkpt lat="34.9748233" lon="33.6541094">
<ele>22.12</ele>
<time>2015-05-02T10:20:20Z</time>
</trkpt>
<trkpt lat="34.9748291" lon="33.6541782">
<ele>22.07</ele>
<time>2015-05-02T10:20:21Z</time>
</trkpt>
<trkpt lat="34.9748304" lon="33.6542447">
<ele>22.04</ele>
<time>2015-05-02T10:20:22Z</time>
</trkpt>
<trkpt lat="34.9748264" lon="33.6543102">
<ele>21.53</ele>
<time>2015-05-02T10:20:23Z</time>
</trkpt>
<trkpt lat="34.9748262" lon="33.6543664">
<ele>21.27</ele>
<time>2015-05-02T10:20:24Z</time>
</trkpt>
<trkpt lat="34.9748252" lon="33.6544250">
<ele>20.64</ele>
<time>2015-05-02T10:20:25Z</time>
</trkpt>
<trkpt lat="34.9748206" lon="33.6545300">
<ele>20.92</ele>
<time>2015-05-02T10:20:27Z</time>
</trkpt>
<trkpt lat="34.9748133" lon="33.6545932">
<ele>21.97</ele>
<time>2015-05-02T10:20:28Z</time>
</trkpt>
<trkpt lat="34.9748126" lon="33.6546488">
<ele>22.49</ele>
<time>2015-05-02T10:20:29Z</time>
</trkpt>
<trkpt lat="34.9748098" lon="33.6547606">
<ele>22.89</ele>
<time>2015-05-02T10:20:31Z</time>
</trkpt>
<trkpt lat="34.9748183" lon="33.6548261">
<ele>23.95</ele>
<time>2015-05-02T10:20:32Z</time>
</trkpt>
<trkpt lat="34.9748141" lon="33.6548894">
<ele>23.98</ele>
<time>2015-05-02T10:20:33Z</time>
</trkpt>
<trkpt lat="34.9748174" lon="33.6549453">
<ele>24.00</ele>
<time>2015-05-02T10:20:34Z</time>
</trkpt>
<trkpt lat="34.9748029" lon="33.6550466">
<ele>23.51</ele>
<time>2015-05-02T10:20:36Z</time>
</trkpt>
<trkpt lat="34.9748086" lon="33.6551502">
<ele>23.64</ele>
<time>2015-05-02T10:20:38Z</time>
</trkpt>
<trkpt lat="34.9748071" lon="33.6552399">
<ele>24.92</ele>
<time>2015-05-02T10:20:40Z</time>
</trkpt>
<trkpt lat="34.9748037" lon="33.6552951">
<ele>24.97</ele>
<time>2015-05-02T10:20:41Z</time>
</trkpt>
<trkpt lat="34.9748020" lon="33.6553987">
<ele>25.75</ele>
<time>2015-05-02T10:20:43Z</time>
</trkpt>
<trkpt lat="34.9747910" lon="33.6554894">
<ele>25.45</ele>
<time>2015-05-02T10:20:45Z</time>
</trkpt>
<trkpt lat="34.9747889" lon="33.6555759">
<ele>25.87</ele>
<time>2015-05-02T10:20:47Z</time>
</trkpt>
<trkpt lat="34.9747854" lon="33.6556743">
<ele>25.73</ele>
<time>2015-05-02T10:20:49Z</time>
</trkpt>
<trkpt lat="34.9747838" lon="33.6557626">
<ele>25.19</ele>
<time>2015-05-02T10:20:51Z</time>
</trkpt>
<trkpt lat="34.9747887" lon="33.6558534">
<ele>25.06</ele>
<time>2015-05-02T10:20:53Z</time>
</trkpt>
<trkpt lat="34.9747896" lon="33.6559428">
<ele>25.78</ele>
<time>2015-05-02T10:20:55Z</time>
</trkpt>
<trkpt lat="34.9747888" lon="33.6560309">
<ele>25.96</ele>
<time>2015-05-02T10:20:57Z</time>
</trkpt>
<trkpt lat="34.9747843" lon="33.6561164">
<ele>26.00</ele>
<time>2015-05-02T10:20:59Z</time>
</trkpt>
<trkpt lat="34.9747807" lon="33.6562062">
<ele>25.76</ele>
<time>2015-05-02T10:21:01Z</time>
</trkpt>
<trkpt lat="34.9747747" lon="33.6562943">
<ele>25.70</ele>
<time>2015-05-02T10:21:03Z</time>
</trkpt>
<trkpt lat="34.9747709" lon="33.6563848">
<ele>24.69</ele>
<time>2015-05-02T10:21:05Z</time>
</trkpt>
<trkpt lat="34.9747689" lon="33.6564724">
<ele>24.18</ele>
<time>2015-05-02T10:21:07Z</time>
</trkpt>
<trkpt lat="34.9747659" lon="33.6565657">
<ele>24.81</ele>
<time>2015-05-02T10:21:09Z</time>
</trkpt>
<trkpt lat="34.9747676" lon="33.6566564">
<ele>24.21</ele>
<time>2015-05-02T10:21:11Z</time>
</trkpt>
<trkpt lat="34.9747685" lon="33.6567496">
<ele>24.07</ele>
<time>2015-05-02T10:21:13Z</time>
</trkpt>
<trkpt lat="34.9747649" lon="33.6568437">
<ele>25.53</ele>
<time>2015-05-02T10:21:15Z</time>
</trkpt>
<trkpt lat="34.9747646" lon="33.6569419">
<ele>25.14</ele>
<time>2015-05-02T10:21:17Z</time>
</trkpt>
<trkpt lat="34.9747674" lon="33.6570376">
<ele>24.55</ele>
<time>2015-05-02T10:21:19Z</time>
</trkpt>
<trkpt lat="34.9747678" lon="33.6571313">
<ele>23.90</ele>
<time>2015-05-02T10:21:21Z</time>
</trkpt>
<trkpt lat="34.9747726" lon="33.6572205">
<ele>23.74</ele>
<time>2015-05-02T10:21:23Z</time>
</trkpt>
<trkpt lat="34.9747893" lon="33.6573117">
<ele>24.70</ele>
<time>2015-05-02T10:21:25Z</time>
</trkpt>
<trkpt lat="34.9748294" lon="33.6573812">
<ele>26.19</ele>
<time>2015-05-02T10:21:27Z</time>
</trkpt>
<trkpt lat="34.9748771" lon="33.6574158">
<ele>26.31</ele>
<time>2015-05-02T10:21:29Z</time>
</trkpt>
<trkpt lat="34.9749324" lon="33.6574350">
<ele>26.59</ele>
<time>2015-05-02T10:21:31Z</time>
</trkpt>
<trkpt lat="34.9749990" lon="33.6574394">
<ele>27.41</ele>
<time>2015-05-02T10:21:33Z</time>
</trkpt>
<trkpt lat="34.9750712" lon="33.6574340">
<ele>27.86</ele>
<time>2015-05-02T10:21:35Z</time>
</trkpt>
<trkpt lat="34.9751477" lon="33.6574325">
<ele>28.23</ele>
<time>2015-05-02T10:21:37Z</time>
</trkpt>
<trkpt lat="34.9752237" lon="33.6574259">
<ele>28.57</ele>
<time>2015-05-02T10:21:39Z</time>
</trkpt>
<trkpt lat="34.9753031" lon="33.6574200">
<ele>28.90</ele>
<time>2015-05-02T10:21:41Z</time>
</trkpt>
<trkpt lat="34.9753788" lon="33.6574225">
<ele>30.24</ele>
<time>2015-05-02T10:21:43Z</time>
</trkpt>
<trkpt lat="34.9754579" lon="33.6574315">
<ele>30.32</ele>
<time>2015-05-02T10:21:45Z</time>
</trkpt>
<trkpt lat="34.9755092" lon="33.6574339">
<ele>30.17</ele>
<time>2015-05-02T10:21:46Z</time>
</trkpt>
<trkpt lat="34.9756020" lon="33.6574350">
<ele>29.55</ele>
<time>2015-05-02T10:21:48Z</time>
</trkpt>
<trkpt lat="34.9756500" lon="33.6574404">
<ele>29.79</ele>
<time>2015-05-02T10:21:49Z</time>
</trkpt>
<trkpt lat="34.9756980" lon="33.6574355">
<ele>28.90</ele>
<time>2015-05-02T10:21:50Z</time>
</trkpt>
<trkpt lat="34.9757811" lon="33.6574386">
<ele>28.74</ele>
<time>2015-05-02T10:21:52Z</time>
</trkpt>
<trkpt lat="34.9758290" lon="33.6574362">
<ele>28.38</ele>
<time>2015-05-02T10:21:53Z</time>
</trkpt>
<trkpt lat="34.9758799" lon="33.6574368">
<ele>27.70</ele>
<time>2015-05-02T10:21:54Z</time>
</trkpt>
<trkpt lat="34.9759711" lon="33.6574174">
<ele>27.69</ele>
<time>2015-05-02T10:21:56Z</time>
</trkpt>
<trkpt lat="34.9760163" lon="33.6574141">
<ele>27.85</ele>
<time>2015-05-02T10:21:57Z</time>
</trkpt>
<trkpt lat="34.9760628" lon="33.6574068">
<ele>28.43</ele>
<time>2015-05-02T10:21:58Z</time>
</trkpt>
<trkpt lat="34.9761590" lon="33.6574076">
<ele>28.87</ele>
<time>2015-05-02T10:22:00Z</time>
</trkpt>
<trkpt lat="34.9762123" lon="33.6573970">
<ele>28.44</ele>
<time>2015-05-02T10:22:01Z</time>
</trkpt>
<trkpt lat="34.9762583" lon="33.6573846">
<ele>27.73</ele>
<time>2015-05-02T10:22:02Z</time>
</trkpt>
<trkpt lat="34.9763103" lon="33.6573714">
<ele>27.37</ele>
<time>2015-05-02T10:22:03Z</time>
</trkpt>
<trkpt lat="34.9763553" lon="33.6573748">
<ele>28.19</ele>
<time>2015-05-02T10:22:04Z</time>
</trkpt>
<trkpt lat="34.9764108" lon="33.6573700">
<ele>28.61</ele>
<time>2015-05-02T10:22:05Z</time>
</trkpt>
<trkpt lat="34.9764648" lon="33.6573583">
<ele>28.31</ele>
<time>2015-05-02T10:22:06Z</time>
</trkpt>
<trkpt lat="34.9765133" lon="33.6573507">
<ele>28.16</ele>
<time>2015-05-02T10:22:07Z</time>
</trkpt>
<trkpt lat="34.9765594" lon="33.6573407">
<ele>28.59</ele>
<time>2015-05-02T10:22:08Z</time>
</trkpt>
<trkpt lat="34.9766090" lon="33.6573329">
<ele>28.30</ele>
<time>2015-05-02T10:22:09Z</time>
</trkpt>
<trkpt lat="34.9766565" lon="33.6573356">
<ele>28.16</ele>
<time>2015-05-02T10:22:10Z</time>
</trkpt>
<trkpt lat="34.9767437" lon="33.6573249">
<ele>28.80</ele>
<time>2015-05-02T10:22:12Z</time>
</trkpt>
<trkpt lat="34.9768026" lon="33.6573207">
<ele>28.41</ele>
<time>2015-05-02T10:22:13Z</time>
</trkpt>
<trkpt lat="34.9768590" lon="33.6573109">
<ele>28.21</ele>
<time>2015-05-02T10:22:14Z</time>
</trkpt>
<trkpt lat="34.9769058" lon="33.6572950">
<ele>28.11</ele>
<time>2015-05-02T10:22:15Z</time>
</trkpt>
<trkpt lat="34.9769553" lon="33.6572935">
<ele>27.57</ele>
<time>2015-05-02T10:22:16Z</time>
</trkpt>
<trkpt lat="34.9770026" lon="33.6572834">
<ele>27.29</ele>
<time>2015-05-02T10:22:17Z</time>
</trkpt>
<trkpt lat="34.9770541" lon="33.6572734">
<ele>27.15</ele>
<time>2015-05-02T10:22:18Z</time>
</trkpt>
<trkpt lat="34.9771033" lon="33.6572708">
<ele>28.08</ele>
<time>2015-05-02T10:22:19Z</time>
</trkpt>
<trkpt lat="34.9771595" lon="33.6572678">
<ele>28.05</ele>
<time>2015-05-02T10:22:20Z</time>
</trkpt>
<trkpt lat="34.9772080" lon="33.6572656">
<ele>28.03</ele>
<time>2015-05-02T10:22:21Z</time>
</trkpt>
<trkpt lat="34.9772543" lon="33.6572645">
<ele>28.02</ele>
<time>2015-05-02T10:22:22Z</time>
</trkpt>
<trkpt lat="34.9773097" lon="33.6572654">
<ele>28.52</ele>
<time>2015-05-02T10:22:23Z</time>
</trkpt>
<trkpt lat="34.9774111" lon="33.6572578">
<ele>28.89</ele>
<time>2015-05-02T10:22:25Z</time>
</trkpt>
<trkpt lat="34.9774706" lon="33.6572446">
<ele>28.95</ele>
<time>2015-05-02T10:22:26Z</time>
</trkpt>
<trkpt lat="34.9775278" lon="33.6572376">
<ele>28.99</ele>
<time>2015-05-02T10:22:27Z</time>
</trkpt>
<trkpt lat="34.9775942" lon="33.6572205">
<ele>28.50</ele>
<time>2015-05-02T10:22:28Z</time>
</trkpt>
<trkpt lat="34.9776446" lon="33.6571968">
<ele>28.26</ele>
<time>2015-05-02T10:22:29Z</time>
</trkpt>
<trkpt lat="34.9777025" lon="33.6571953">
<ele>28.64</ele>
<time>2015-05-02T10:22:30Z</time>
</trkpt>
<trkpt lat="34.9777687" lon="33.6571905">
<ele>28.83</ele>
<time>2015-05-02T10:22:31Z</time>
</trkpt>
<trkpt lat="34.9778372" lon="33.6571897">
<ele>28.42</ele>
<time>2015-05-02T10:22:32Z</time>
</trkpt>
<trkpt lat="34.9778874" lon="33.6571792">
<ele>28.72</ele>
<time>2015-05-02T10:22:33Z</time>
</trkpt>
<trkpt lat="34.9779486" lon="33.6571776">
<ele>28.87</ele>
<time>2015-05-02T10:22:34Z</time>
</trkpt>
<trkpt lat="34.9780043" lon="33.6571689">
<ele>28.94</ele>
<time>2015-05-02T10:22:35Z</time>
</trkpt>
<trkpt lat="34.9780644" lon="33.6571548">
<ele>28.98</ele>
<time>2015-05-02T10:22:36Z</time>
</trkpt>
<trkpt lat="34.9781324" lon="33.6571481">
<ele>28.50</ele>
<time>2015-05-02T10:22:37Z</time>
</trkpt>
<trkpt lat="34.9781925" lon="33.6571440">
<ele>28.76</ele>
<time>2015-05-02T10:22:38Z</time>
</trkpt>
<trkpt lat="34.9782466" lon="33.6571260">
<ele>28.39</ele>
<time>2015-05-02T10:22:39Z</time>
</trkpt>
<trkpt lat="34.9783145" lon="33.6571115">
<ele>28.20</ele>
<time>2015-05-02T10:22:40Z</time>
</trkpt>
<trkpt lat="34.9783812" lon="33.6570996">
<ele>28.61</ele>
<time>2015-05-02T10:22:41Z</time>
</trkpt>
<trkpt lat="34.9784485" lon="33.6570898">
<ele>28.81</ele>
<time>2015-05-02T10:22:42Z</time>
</trkpt>
<trkpt lat="34.9785115" lon="33.6570850">
<ele>28.41</ele>
<time>2015-05-02T10:22:43Z</time>
</trkpt>
<trkpt lat="34.9785831" lon="33.6570781">
<ele>28.72</ele>
<time>2015-05-02T10:22:44Z</time>
</trkpt>
<trkpt lat="34.9786522" lon="33.6570633">
<ele>28.37</ele>
<time>2015-05-02T10:22:45Z</time>
</trkpt>
<trkpt lat="34.9787276" lon="33.6570513">
<ele>27.69</ele>
<time>2015-05-02T10:22:46Z</time>
</trkpt>
<trkpt lat="34.9787937" lon="33.6570398">
<ele>26.85</ele>
<time>2015-05-02T10:22:47Z</time>
</trkpt>
<trkpt lat="34.9788650" lon="33.6570180">
<ele>26.93</ele>
<time>2015-05-02T10:22:48Z</time>
</trkpt>
<trkpt lat="34.9789195" lon="33.6569937">
<ele>26.98</ele>
<time>2015-05-02T10:22:49Z</time>
</trkpt>
<trkpt lat="34.9789845" lon="33.6569632">
<ele>27.50</ele>
<time>2015-05-02T10:22:50Z</time>
</trkpt>
<trkpt lat="34.9790310" lon="33.6569452">
<ele>28.26</ele>
<time>2015-05-02T10:22:51Z</time>
</trkpt>
<trkpt lat="34.9790965" lon="33.6569173">
<ele>29.14</ele>
<time>2015-05-02T10:22:52Z</time>
</trkpt>
<trkpt lat="34.9791605" lon="33.6569082">
<ele>29.08</ele>
<time>2015-05-02T10:22:53Z</time>
</trkpt>
<trkpt lat="34.9792102" lon="33.6568875">
<ele>29.05</ele>
<time>2015-05-02T10:22:54Z</time>
</trkpt>
<trkpt lat="34.9792678" lon="33.6568731">
<ele>28.53</ele>
<time>2015-05-02T10:22:55Z</time>
</trkpt>
<trkpt lat="34.9793192" lon="33.6568536">
<ele>28.77</ele>
<time>2015-05-02T10:22:56Z</time>
</trkpt>
<trkpt lat="34.9793696" lon="33.6568368">
<ele>28.89</ele>
<time>2015-05-02T10:22:57Z</time>
</trkpt>
<trkpt lat="34.9794279" lon="33.6568245">
<ele>28.96</ele>
<time>2015-05-02T10:22:58Z</time>
</trkpt>
<trkpt lat="34.9794844" lon="33.6568162">
<ele>29.49</ele>
<time>2015-05-02T10:22:59Z</time>
</trkpt>
<trkpt lat="34.9795337" lon="33.6567930">
<ele>29.75</ele>
<time>2015-05-02T10:23:00Z</time>
</trkpt>
<trkpt lat="34.9796324" lon="33.6567606">
<ele>29.95</ele>
<time>2015-05-02T10:23:02Z</time>
</trkpt>
<trkpt lat="34.9796854" lon="33.6567469">
<ele>29.98</ele>
<time>2015-05-02T10:23:03Z</time>
</trkpt>
<trkpt lat="34.9797386" lon="33.6567308">
<ele>30.00</ele>
<time>2015-05-02T10:23:04Z</time>
</trkpt>
<trkpt lat="34.9797930" lon="33.6567185">
<ele>30.01</ele>
<time>2015-05-02T10:23:05Z</time>
</trkpt>
<trkpt lat="34.9798493" lon="33.6567164">
<ele>30.01</ele>
<time>2015-05-02T10:23:06Z</time>
</trkpt>
<trkpt lat="34.9798995" lon="33.6567175">
<ele>29.51</ele>
<time>2015-05-02T10:23:07Z</time>
</trkpt>
<trkpt lat="34.9799539" lon="33.6567155">
<ele>30.26</ele>
<time>2015-05-02T10:23:08Z</time>
</trkpt>
<trkpt lat="34.9800036" lon="33.6567088">
<ele>30.14</ele>
<time>2015-05-02T10:23:09Z</time>
</trkpt>
<trkpt lat="34.9800560" lon="33.6567030">
<ele>30.58</ele>
<time>2015-05-02T10:23:10Z</time>
</trkpt>
<trkpt lat="34.9801159" lon="33.6566996">
<ele>30.80</ele>
<time>2015-05-02T10:23:11Z</time>
</trkpt>
<trkpt lat="34.9801687" lon="33.6566936">
<ele>30.91</ele>
<time>2015-05-02T10:23:12Z</time>
</trkpt>
<trkpt lat="34.9802230" lon="33.6566894">
<ele>30.46</ele>
<time>2015-05-02T10:23:13Z</time>
</trkpt>
<trkpt lat="34.9802828" lon="33.6566851">
<ele>30.24</ele>
<time>2015-05-02T10:23:14Z</time>
</trkpt>
<trkpt lat="34.9803274" lon="33.6566675">
<ele>30.63</ele>
<time>2015-05-02T10:23:15Z</time>
</trkpt>
<trkpt lat="34.9803889" lon="33.6566687">
<ele>30.82</ele>
<time>2015-05-02T10:23:16Z</time>
</trkpt>
<trkpt lat="34.9804475" lon="33.6566730">
<ele>30.42</ele>
<time>2015-05-02T10:23:17Z</time>
</trkpt>
<trkpt lat="34.9804939" lon="33.6566731">
<ele>30.22</ele>
<time>2015-05-02T10:23:18Z</time>
</trkpt>
<trkpt lat="34.9805423" lon="33.6566706">
<ele>30.12</ele>
<time>2015-05-02T10:23:19Z</time>
</trkpt>
<trkpt lat="34.9805951" lon="33.6566661">
<ele>29.57</ele>
<time>2015-05-02T10:23:20Z</time>
</trkpt>
<trkpt lat="34.9806477" lon="33.6566636">
<ele>29.29</ele>
<time>2015-05-02T10:23:21Z</time>
</trkpt>
<trkpt lat="34.9806930" lon="33.6566667">
<ele>28.65</ele>
<time>2015-05-02T10:23:22Z</time>
</trkpt>
<trkpt lat="34.9807818" lon="33.6566398">
<ele>28.68</ele>
<time>2015-05-02T10:23:24Z</time>
</trkpt>
<trkpt lat="34.9808699" lon="33.6566203">
<ele>28.93</ele>
<time>2015-05-02T10:23:26Z</time>
</trkpt>
<trkpt lat="34.9809438" lon="33.6565922">
<ele>29.49</ele>
<time>2015-05-02T10:23:28Z</time>
</trkpt>
<trkpt lat="34.9810092" lon="33.6565872">
<ele>30.14</ele>
<time>2015-05-02T10:23:30Z</time>
</trkpt>
<trkpt lat="34.9810908" lon="33.6565776">
<ele>29.30</ele>
<time>2015-05-02T10:23:32Z</time>
</trkpt>
<trkpt lat="34.9811356" lon="33.6565666">
<ele>29.66</ele>
<time>2015-05-02T10:23:33Z</time>
</trkpt>
<trkpt lat="34.9811867" lon="33.6565710">
<ele>29.84</ele>
<time>2015-05-02T10:23:34Z</time>
</trkpt>
<trkpt lat="34.9812362" lon="33.6565488">
<ele>30.43</ele>
<time>2015-05-02T10:23:35Z</time>
</trkpt>
<trkpt lat="34.9812875" lon="33.6565336">
<ele>30.22</ele>
<time>2015-05-02T10:23:36Z</time>
</trkpt>
<trkpt lat="34.9813446" lon="33.6565050">
<ele>30.12</ele>
<time>2015-05-02T10:23:37Z</time>
</trkpt>
<trkpt lat="34.9813944" lon="33.6564721">
<ele>30.07</ele>
<time>2015-05-02T10:23:38Z</time>
</trkpt>
<trkpt lat="34.9814555" lon="33.6564442">
<ele>30.54</ele>
<time>2015-05-02T10:23:39Z</time>
</trkpt>
<trkpt lat="34.9815080" lon="33.6564294">
<ele>30.78</ele>
<time>2015-05-02T10:23:40Z</time>
</trkpt>
<trkpt lat="34.9815627" lon="33.6564152">
<ele>30.90</ele>
<time>2015-05-02T10:23:41Z</time>
</trkpt>
<trkpt lat="34.9816121" lon="33.6563989">
<ele>30.46</ele>
<time>2015-05-02T10:23:42Z</time>
</trkpt>
<trkpt lat="34.9816611" lon="33.6563837">
<ele>30.74</ele>
<time>2015-05-02T10:23:43Z</time>
</trkpt>
<trkpt lat="34.9817115" lon="33.6563792">
<ele>30.88</ele>
<time>2015-05-02T10:23:44Z</time>
</trkpt>
<trkpt lat="34.9817616" lon="33.6563535">
<ele>30.95</ele>
<time>2015-05-02T10:23:45Z</time>
</trkpt>
<trkpt lat="34.9818111" lon="33.6563288">
<ele>31.48</ele>
<time>2015-05-02T10:23:46Z</time>
</trkpt>
<trkpt lat="34.9819015" lon="33.6562752">
<ele>31.88</ele>
<time>2015-05-02T10:23:48Z</time>
</trkpt>
<trkpt lat="34.9819458" lon="33.6562567">
<ele>31.95</ele>
<time>2015-05-02T10:23:49Z</time>
</trkpt>
<trkpt lat="34.9820186" lon="33.6562120">
<ele>32.75</ele>
<time>2015-05-02T10:23:51Z</time>
</trkpt>
<trkpt lat="34.9821073" lon="33.6561559">
<ele>32.95</ele>
<time>2015-05-02T10:23:53Z</time>
</trkpt>
<trkpt lat="34.9821511" lon="33.6561368">
<ele>32.98</ele>
<time>2015-05-02T10:23:54Z</time>
</trkpt>
<trkpt lat="34.9822332" lon="33.6561104">
<ele>32.51</ele>
<time>2015-05-02T10:23:56Z</time>
</trkpt>
<trkpt lat="34.9823096" lon="33.6560970">
<ele>33.64</ele>
<time>2015-05-02T10:23:58Z</time>
</trkpt>
<trkpt lat="34.9823847" lon="33.6560873">
<ele>34.92</ele>
<time>2015-05-02T10:24:00Z</time>
</trkpt>
<trkpt lat="34.9824255" lon="33.6560633">
<ele>34.97</ele>
<time>2015-05-02T10:24:01Z</time>
</trkpt>
<trkpt lat="34.9824672" lon="33.6560358">
<ele>34.99</ele>
<time>2015-05-02T10:24:02Z</time>
</trkpt>
<trkpt lat="34.9825096" lon="33.6560127">
<ele>35.00</ele>
<time>2015-05-02T10:24:03Z</time>
</trkpt>
<trkpt lat="34.9825668" lon="33.6559954">
<ele>34.51</ele>
<time>2015-05-02T10:24:04Z</time>
</trkpt>
<trkpt lat="34.9826504" lon="33.6559685">
<ele>35.39</ele>
<time>2015-05-02T10:24:06Z</time>
</trkpt>
<trkpt lat="34.9827046" lon="33.6559714">
<ele>35.20</ele>
<time>2015-05-02T10:24:07Z</time>
</trkpt>
<trkpt lat="34.9827500" lon="33.6559671">
<ele>34.61</ele>
<time>2015-05-02T10:24:08Z</time>
</trkpt>
<trkpt lat="34.9828025" lon="33.6559496">
<ele>34.31</ele>
<time>2015-05-02T10:24:09Z</time>
</trkpt>
<trkpt lat="34.9828489" lon="33.6559337">
<ele>34.16</ele>
<time>2015-05-02T10:24:10Z</time>
</trkpt>
<trkpt lat="34.9828966" lon="33.6559163">
<ele>34.09</ele>
<time>2015-05-02T10:24:11Z</time>
</trkpt>
<trkpt lat="34.9829491" lon="33.6558936">
<ele>34.05</ele>
<time>2015-05-02T10:24:12Z</time>
</trkpt>
<trkpt lat="34.9829994" lon="33.6558734">
<ele>33.53</ele>
<time>2015-05-02T10:24:13Z</time>
</trkpt>
<trkpt lat="34.9830427" lon="33.6558416">
<ele>33.28</ele>
<time>2015-05-02T10:24:14Z</time>
</trkpt>
<trkpt lat="34.9830790" lon="33.6558032">
<ele>33.65</ele>
<time>2015-05-02T10:24:15Z</time>
</trkpt>
<trkpt lat="34.9831183" lon="33.6557669">
<ele>33.33</ele>
<time>2015-05-02T10:24:16Z</time>
</trkpt>
<trkpt lat="34.9831795" lon="33.6556992">
<ele>33.09</ele>
<time>2015-05-02T10:24:18Z</time>
</trkpt>
<trkpt lat="34.9832128" lon="33.6556602">
<ele>33.06</ele>
<time>2015-05-02T10:24:19Z</time>
</trkpt>
<trkpt lat="34.9832524" lon="33.6556189">
<ele>33.04</ele>
<time>2015-05-02T10:24:20Z</time>
</trkpt>
<trkpt lat="34.9833109" lon="33.6555406">
<ele>33.02</ele>
<time>2015-05-02T10:24:22Z</time>
</trkpt>
<trkpt lat="34.9833446" lon="33.6554843">
<ele>33.02</ele>
<time>2015-05-02T10:24:23Z</time>
</trkpt>
<trkpt lat="34.9833723" lon="33.6554378">
<ele>33.02</ele>
<time>2015-05-02T10:24:24Z</time>
</trkpt>
<trkpt lat="34.9834101" lon="33.6553872">
<ele>33.02</ele>
<time>2015-05-02T10:24:25Z</time>
</trkpt>
<trkpt lat="34.9834417" lon="33.6553418">
<ele>33.52</ele>
<time>2015-05-02T10:24:26Z</time>
</trkpt>
<trkpt lat="34.9834785" lon="33.6553065">
<ele>34.77</ele>
<time>2015-05-02T10:24:27Z</time>
</trkpt>
<trkpt lat="34.9835113" lon="33.6552595">
<ele>35.39</ele>
<time>2015-05-02T10:24:28Z</time>
</trkpt>
<trkpt lat="34.9835431" lon="33.6552107">
<ele>35.70</ele>
<time>2015-05-02T10:24:29Z</time>
</trkpt>
<trkpt lat="34.9835734" lon="33.6551612">
<ele>35.86</ele>
<time>2015-05-02T10:24:30Z</time>
</trkpt>
<trkpt lat="34.9836043" lon="33.6551148">
<ele>35.94</ele>
<time>2015-05-02T10:24:31Z</time>
</trkpt>
<trkpt lat="34.9836526" lon="33.6550364">
<ele>36.00</ele>
<time>2015-05-02T10:24:33Z</time>
</trkpt>
<trkpt lat="34.9837173" lon="33.6549672">
<ele>36.76</ele>
<time>2015-05-02T10:24:35Z</time>
</trkpt>
<trkpt lat="34.9837573" lon="33.6549331">
<ele>36.89</ele>
<time>2015-05-02T10:24:36Z</time>
</trkpt>
<trkpt lat="34.9838104" lon="33.6548528">
<ele>36.98</ele>
<time>2015-05-02T10:24:38Z</time>
</trkpt>
<trkpt lat="34.9838373" lon="33.6548062">
<ele>37.00</ele>
<time>2015-05-02T10:24:39Z</time>
</trkpt>
<trkpt lat="34.9838982" lon="33.6547157">
<ele>36.51</ele>
<time>2015-05-02T10:24:41Z</time>
</trkpt>
<trkpt lat="34.9839458" lon="33.6546695">
<ele>37.76</ele>
<time>2015-05-02T10:24:42Z</time>
</trkpt>
<trkpt lat="34.9839800" lon="33.6546274">
<ele>37.89</ele>
<time>2015-05-02T10:24:43Z</time>
</trkpt>
<trkpt lat="34.9840103" lon="33.6545853">
<ele>37.45</ele>
<time>2015-05-02T10:24:44Z</time>
</trkpt>
<trkpt lat="34.9840458" lon="33.6545337">
<ele>37.23</ele>
<time>2015-05-02T10:24:45Z</time>
</trkpt>
<trkpt lat="34.9841165" lon="33.6544708">
<ele>36.07</ele>
<time>2015-05-02T10:24:47Z</time>
</trkpt>
<trkpt lat="34.9841506" lon="33.6544208">
<ele>35.54</ele>
<time>2015-05-02T10:24:48Z</time>
</trkpt>
<trkpt lat="34.9841908" lon="33.6543730">
<ele>35.28</ele>
<time>2015-05-02T10:24:49Z</time>
</trkpt>
<trkpt lat="34.9842204" lon="33.6543316">
<ele>35.15</ele>
<time>2015-05-02T10:24:50Z</time>
</trkpt>
<trkpt lat="34.9842869" lon="33.6542445">
<ele>35.05</ele>
<time>2015-05-02T10:24:52Z</time>
</trkpt>
<trkpt lat="34.9843236" lon="33.6542056">
<ele>35.53</ele>
<time>2015-05-02T10:24:53Z</time>
</trkpt>
<trkpt lat="34.9843846" lon="33.6541261">
<ele>36.15</ele>
<time>2015-05-02T10:24:55Z</time>
</trkpt>
<trkpt lat="34.9844179" lon="33.6540818">
<ele>37.08</ele>
<time>2015-05-02T10:24:56Z</time>
</trkpt>
<trkpt lat="34.9844834" lon="33.6540346">
<ele>37.03</ele>
<time>2015-05-02T10:24:58Z</time>
</trkpt>
<trkpt lat="34.9845449" lon="33.6539924">
<ele>37.27</ele>
<time>2015-05-02T10:25:00Z</time>
</trkpt>
<trkpt lat="34.9846080" lon="33.6539258">
<ele>37.83</ele>
<time>2015-05-02T10:25:02Z</time>
</trkpt>
<trkpt lat="34.9846455" lon="33.6538936">
<ele>37.42</ele>
<time>2015-05-02T10:25:03Z</time>
</trkpt>
<trkpt lat="34.9846832" lon="33.6538597">
<ele>37.22</ele>
<time>2015-05-02T10:25:04Z</time>
</trkpt>
<trkpt lat="34.9847543" lon="33.6538072">
<ele>37.07</ele>
<time>2015-05-02T10:25:06Z</time>
</trkpt>
<trkpt lat="34.9848217" lon="33.6537561">
<ele>36.53</ele>
<time>2015-05-02T10:25:08Z</time>
</trkpt>
<trkpt lat="34.9848876" lon="33.6537038">
<ele>35.89</ele>
<time>2015-05-02T10:25:10Z</time>
</trkpt>
<trkpt lat="34.9849487" lon="33.6536558">
<ele>35.49</ele>
<time>2015-05-02T10:25:12Z</time>
</trkpt>
<trkpt lat="34.9850109" lon="33.6536115">
<ele>35.63</ele>
<time>2015-05-02T10:25:14Z</time>
</trkpt>
<trkpt lat="34.9850694" lon="33.6535591">
<ele>36.42</ele>
<time>2015-05-02T10:25:16Z</time>
</trkpt>
<trkpt lat="34.9851347" lon="33.6535058">
<ele>37.37</ele>
<time>2015-05-02T10:25:18Z</time>
</trkpt>
<trkpt lat="34.9852042" lon="33.6534510">
<ele>38.10</ele>
<time>2015-05-02T10:25:20Z</time>
</trkpt>
<trkpt lat="34.9852682" lon="33.6533880">
<ele>38.04</ele>
<time>2015-05-02T10:25:22Z</time>
</trkpt>
<trkpt lat="34.9853364" lon="33.6533316">
<ele>37.52</ele>
<time>2015-05-02T10:25:24Z</time>
</trkpt>
<trkpt lat="34.9854057" lon="33.6532746">
<ele>37.14</ele>
<time>2015-05-02T10:25:26Z</time>
</trkpt>
<trkpt lat="34.9854755" lon="33.6532144">
<ele>36.30</ele>
<time>2015-05-02T10:25:28Z</time>
</trkpt>
<trkpt lat="34.9855416" lon="33.6531549">
<ele>36.09</ele>
<time>2015-05-02T10:25:30Z</time>
</trkpt>
<trkpt lat="34.9856055" lon="33.6530912">
<ele>38.28</ele>
<time>2015-05-02T10:25:32Z</time>
</trkpt>
<trkpt lat="34.9856718" lon="33.6530377">
<ele>36.83</ele>
<time>2015-05-02T10:25:34Z</time>
</trkpt>
<trkpt lat="34.9857367" lon="33.6529786">
<ele>34.97</ele>
<time>2015-05-02T10:25:36Z</time>
</trkpt>
<trkpt lat="34.9857791" lon="33.6528968">
<ele>35.50</ele>
<time>2015-05-02T10:25:38Z</time>
</trkpt>
<trkpt lat="34.9858047" lon="33.6528038">
<ele>36.39</ele>
<time>2015-05-02T10:25:40Z</time>
</trkpt>
<trkpt lat="34.9858419" lon="33.6527125">
<ele>37.86</ele>
<time>2015-05-02T10:25:42Z</time>
</trkpt>
<trkpt lat="34.9858761" lon="33.6526199">
<ele>37.98</ele>
<time>2015-05-02T10:25:44Z</time>
</trkpt>
<trkpt lat="34.9859129" lon="33.6525307">
<ele>39.26</ele>
<time>2015-05-02T10:25:46Z</time>
</trkpt>
<trkpt lat="34.9859490" lon="33.6524478">
<ele>40.83</ele>
<time>2015-05-02T10:25:48Z</time>
</trkpt>
<trkpt lat="34.9859860" lon="33.6523912">
<ele>41.47</ele>
<time>2015-05-02T10:25:50Z</time>
</trkpt>
<trkpt lat="34.9860348" lon="33.6523599">
<ele>41.88</ele>
<time>2015-05-02T10:25:52Z</time>
</trkpt>
<trkpt lat="34.9860905" lon="33.6523340">
<ele>41.98</ele>
<time>2015-05-02T10:25:54Z</time>
</trkpt>
<trkpt lat="34.9861438" lon="33.6523030">
<ele>42.01</ele>
<time>2015-05-02T10:25:56Z</time>
</trkpt>
<trkpt lat="34.9861979" lon="33.6522731">
<ele>42.01</ele>
<time>2015-05-02T10:25:58Z</time>
</trkpt>
<trkpt lat="34.9862484" lon="33.6522409">
<ele>41.27</ele>
<time>2015-05-02T10:26:00Z</time>
</trkpt>
<trkpt lat="34.9862979" lon="33.6522050">
<ele>41.58</ele>
<time>2015-05-02T10:26:02Z</time>
</trkpt>
<trkpt lat="34.9863580" lon="33.6521763">
<ele>44.16</ele>
<time>2015-05-02T10:26:04Z</time>
</trkpt>
<trkpt lat="34.9864128" lon="33.6521405">
<ele>46.05</ele>
<time>2015-05-02T10:26:06Z</time>
</trkpt>
<trkpt lat="34.9864680" lon="33.6520999">
<ele>45.77</ele>
<time>2015-05-02T10:26:08Z</time>
</trkpt>
<trkpt lat="34.9865140" lon="33.6520504">
<ele>45.96</ele>
<time>2015-05-02T10:26:10Z</time>
</trkpt>
<trkpt lat="34.9865511" lon="33.6519959">
<ele>46.00</ele>
<time>2015-05-02T10:26:12Z</time>
</trkpt>
<trkpt lat="34.9865841" lon="33.6519583">
<ele>46.01</ele>
<time>2015-05-02T10:26:14Z</time>
</trkpt>
<trkpt lat="34.9866137" lon="33.6519025">
<ele>46.02</ele>
<time>2015-05-02T10:26:18Z</time>
</trkpt>
<trkpt lat="34.9866343" lon="33.6518314">
<ele>45.89</ele>
<time>2015-05-02T10:26:21Z</time>
</trkpt>
<trkpt lat="34.9866493" lon="33.6517784">
<ele>45.98</ele>
<time>2015-05-02T10:26:23Z</time>
</trkpt>
<trkpt lat="34.9866700" lon="33.6517109">
<ele>47.01</ele>
<time>2015-05-02T10:26:25Z</time>
</trkpt>
<trkpt lat="34.9866896" lon="33.6516384">
<ele>47.51</ele>
<time>2015-05-02T10:26:27Z</time>
</trkpt>
<trkpt lat="34.9867022" lon="33.6515471">
<ele>48.14</ele>
<time>2015-05-02T10:26:29Z</time>
</trkpt>
<trkpt lat="34.9867110" lon="33.6514631">
<ele>49.30</ele>
<time>2015-05-02T10:26:31Z</time>
</trkpt>
<trkpt lat="34.9867149" lon="33.6513858">
<ele>49.84</ele>
<time>2015-05-02T10:26:33Z</time>
</trkpt>
<trkpt lat="34.9867126" lon="33.6513070">
<ele>48.97</ele>
<time>2015-05-02T10:26:35Z</time>
</trkpt>
<trkpt lat="34.9867113" lon="33.6512274">
<ele>49.00</ele>
<time>2015-05-02T10:26:37Z</time>
</trkpt>
<trkpt lat="34.9867119" lon="33.6511490">
<ele>48.51</ele>
<time>2015-05-02T10:26:39Z</time>
</trkpt>
<trkpt lat="34.9867083" lon="33.6510723">
<ele>49.14</ele>
<time>2015-05-02T10:26:41Z</time>
</trkpt>
<trkpt lat="34.9867013" lon="33.6510053">
<ele>50.55</ele>
<time>2015-05-02T10:26:43Z</time>
</trkpt>
<trkpt lat="34.9866937" lon="33.6509390">
<ele>51.40</ele>
<time>2015-05-02T10:26:45Z</time>
</trkpt>
<trkpt lat="34.9866874" lon="33.6508766">
<ele>51.86</ele>
<time>2015-05-02T10:26:47Z</time>
</trkpt>
<trkpt lat="34.9866780" lon="33.6508148">
<ele>51.98</ele>
<time>2015-05-02T10:26:49Z</time>
</trkpt>
<trkpt lat="34.9866694" lon="33.6507594">
<ele>53.01</ele>
<time>2015-05-02T10:26:51Z</time>
</trkpt>
<trkpt lat="34.9866609" lon="33.6507009">
<ele>55.26</ele>
<time>2015-05-02T10:26:53Z</time>
</trkpt>
<trkpt lat="34.9866445" lon="33.6506256">
<ele>58.30</ele>
<time>2015-05-02T10:26:56Z</time>
</trkpt>
<trkpt lat="34.9866224" lon="33.6505728">
<ele>58.53</ele>
<time>2015-05-02T10:27:00Z</time>
</trkpt>
<trkpt lat="34.9865704" lon="33.6505538">
<ele>57.77</ele>
<time>2015-05-02T10:27:06Z</time>
</trkpt>
<trkpt lat="34.9865189" lon="33.6505666">
<ele>56.74</ele>
<time>2015-05-02T10:27:09Z</time>
</trkpt>
<trkpt lat="34.9864642" lon="33.6505742">
<ele>58.11</ele>
<time>2015-05-02T10:27:12Z</time>
</trkpt>
<trkpt lat="34.9864183" lon="33.6505887">
<ele>58.15</ele>
<time>2015-05-02T10:27:15Z</time>
</trkpt>
<trkpt lat="34.9863736" lon="33.6505787">
<ele>57.66</ele>
<time>2015-05-02T10:27:18Z</time>
</trkpt>
<trkpt lat="34.9863527" lon="33.6504997">
<ele>57.47</ele>
<time>2015-05-02T10:27:21Z</time>
</trkpt>
<trkpt lat="34.9863578" lon="33.6504354">
<ele>56.63</ele>
<time>2015-05-02T10:27:23Z</time>
</trkpt>
<trkpt lat="34.9863609" lon="33.6503776">
<ele>56.67</ele>
<time>2015-05-02T10:27:25Z</time>
</trkpt>
<trkpt lat="34.9863640" lon="33.6503055">
<ele>57.85</ele>
<time>2015-05-02T10:27:28Z</time>
</trkpt>
<trkpt lat="34.9863781" lon="33.6502315">
<ele>58.99</ele>
<time>2015-05-02T10:27:31Z</time>
</trkpt>
<trkpt lat="34.9863872" lon="33.6501760">
<ele>59.26</ele>
<time>2015-05-02T10:27:33Z</time>
</trkpt>
<trkpt lat="34.9863506" lon="33.6501151">
<ele>59.42</ele>
<time>2015-05-02T10:27:36Z</time>
</trkpt>
<trkpt lat="34.9862942" lon="33.6501068">
<ele>59.82</ele>
<time>2015-05-02T10:27:39Z</time>
</trkpt>
<trkpt lat="34.9862437" lon="33.6501216">
<ele>60.87</ele>
<time>2015-05-02T10:27:42Z</time>
</trkpt>
<trkpt lat="34.9861952" lon="33.6501280">
<ele>61.75</ele>
<time>2015-05-02T10:27:45Z</time>
</trkpt>
<trkpt lat="34.9861517" lon="33.6501133">
<ele>61.73</ele>
<time>2015-05-02T10:27:48Z</time>
</trkpt>
<trkpt lat="34.9861015" lon="33.6501076">
<ele>63.37</ele>
<time>2015-05-02T10:27:52Z</time>
</trkpt>
<trkpt lat="34.9860576" lon="33.6500845">
<ele>63.29</ele>
<time>2015-05-02T10:27:56Z</time>
</trkpt>
<trkpt lat="34.9860130" lon="33.6500684">
<ele>63.41</ele>
<time>2015-05-02T10:28:00Z</time>
</trkpt>
<trkpt lat="34.9859595" lon="33.6500497">
<ele>62.22</ele>
<time>2015-05-02T10:28:05Z</time>
</trkpt>
<trkpt lat="34.9859146" lon="33.6500309">
<ele>62.59</ele>
<time>2015-05-02T10:28:09Z</time>
</trkpt>
<trkpt lat="34.9858674" lon="33.6500326">
<ele>63.74</ele>
<time>2015-05-02T10:28:13Z</time>
</trkpt>
<trkpt lat="34.9858227" lon="33.6500215">
<ele>64.00</ele>
<time>2015-05-02T10:28:17Z</time>
</trkpt>
<trkpt lat="34.9857697" lon="33.6500070">
<ele>64.01</ele>
<time>2015-05-02T10:28:21Z</time>
</trkpt>
<trkpt lat="34.9857204" lon="33.6499803">
<ele>64.95</ele>
<time>2015-05-02T10:28:25Z</time>
</trkpt>
<trkpt lat="34.9856810" lon="33.6499536">
<ele>64.13</ele>
<time>2015-05-02T10:28:28Z</time>
</trkpt>
<trkpt lat="34.9856406" lon="33.6499228">
<ele>63.16</ele>
<time>2015-05-02T10:28:31Z</time>
</trkpt>
<trkpt lat="34.9855948" lon="33.6499002">
<ele>64.66</ele>
<time>2015-05-02T10:28:34Z</time>
</trkpt>
<trkpt lat="34.9855397" lon="33.6498837">
<ele>66.62</ele>
<time>2015-05-02T10:28:38Z</time>
</trkpt>
<trkpt lat="34.9854890" lon="33.6498808">
<ele>67.55</ele>
<time>2015-05-02T10:28:42Z</time>
</trkpt>
<trkpt lat="34.9854386" lon="33.6498604">
<ele>67.05</ele>
<time>2015-05-02T10:28:46Z</time>
</trkpt>
<trkpt lat="34.9853835" lon="33.6498615">
<ele>69.39</ele>
<time>2015-05-02T10:28:50Z</time>
</trkpt>
<trkpt lat="34.9853263" lon="33.6498518">
<ele>70.73</ele>
<time>2015-05-02T10:28:54Z</time>
</trkpt>
<trkpt lat="34.9852694" lon="33.6498371">
<ele>72.87</ele>
<time>2015-05-02T10:28:58Z</time>
</trkpt>
<trkpt lat="34.9852143" lon="33.6498206">
<ele>72.76</ele>
<time>2015-05-02T10:29:02Z</time>
</trkpt>
<trkpt lat="34.9851612" lon="33.6497956">
<ele>74.25</ele>
<time>2015-05-02T10:29:06Z</time>
</trkpt>
<trkpt lat="34.9851163" lon="33.6497543">
<ele>73.72</ele>
<time>2015-05-02T10:29:10Z</time>
</trkpt>
<trkpt lat="34.9850750" lon="33.6497192">
<ele>74.48</ele>
<time>2015-05-02T10:29:13Z</time>
</trkpt>
<trkpt lat="34.9850318" lon="33.6496906">
<ele>73.82</ele>
<time>2015-05-02T10:29:16Z</time>
</trkpt>
<trkpt lat="34.9849928" lon="33.6496590">
<ele>75.24</ele>
<time>2015-05-02T10:29:19Z</time>
</trkpt>
<trkpt lat="34.9849491" lon="33.6496190">
<ele>76.67</ele>
<time>2015-05-02T10:29:22Z</time>
</trkpt>
<trkpt lat="34.9849083" lon="33.6495732">
<ele>76.47</ele>
<time>2015-05-02T10:29:25Z</time>
</trkpt>
<trkpt lat="34.9848662" lon="33.6495297">
<ele>76.57</ele>
<time>2015-05-02T10:29:28Z</time>
</trkpt>
<trkpt lat="34.9848142" lon="33.6495000">
<ele>77.59</ele>
<time>2015-05-02T10:29:31Z</time>
</trkpt>
<trkpt lat="34.9847616" lon="33.6494772">
<ele>77.46</ele>
<time>2015-05-02T10:29:34Z</time>
</trkpt>
<trkpt lat="34.9847061" lon="33.6494717">
<ele>80.57</ele>
<time>2015-05-02T10:29:37Z</time>
</trkpt>
<trkpt lat="34.9846489" lon="33.6494726">
<ele>81.34</ele>
<time>2015-05-02T10:29:40Z</time>
</trkpt>
<trkpt lat="34.9846018" lon="33.6494622">
<ele>80.93</ele>
<time>2015-05-02T10:29:43Z</time>
</trkpt>
<trkpt lat="34.9845554" lon="33.6494443">
<ele>82.63</ele>
<time>2015-05-02T10:29:46Z</time>
</trkpt>
<trkpt lat="34.9845105" lon="33.6494179">
<ele>83.72</ele>
<time>2015-05-02T10:29:49Z</time>
</trkpt>
<trkpt lat="34.9844713" lon="33.6493833">
<ele>83.48</ele>
<time>2015-05-02T10:29:52Z</time>
</trkpt>
<trkpt lat="34.9844293" lon="33.6493292">
<ele>83.36</ele>
<time>2015-05-02T10:29:56Z</time>
</trkpt>
<trkpt lat="34.9844108" lon="33.6492685">
<ele>82.56</ele>
<time>2015-05-02T10:29:59Z</time>
</trkpt>
<trkpt lat="34.9843991" lon="33.6491999">
<ele>82.08</ele>
<time>2015-05-02T10:30:02Z</time>
</trkpt>
<trkpt lat="34.9843900" lon="33.6491339">
<ele>84.15</ele>
<time>2015-05-02T10:30:05Z</time>
</trkpt>
<trkpt lat="34.9843638" lon="33.6490769">
<ele>84.02</ele>
<time>2015-05-02T10:30:09Z</time>
</trkpt>
<trkpt lat="34.9843449" lon="33.6490062">
<ele>84.27</ele>
<time>2015-05-02T10:30:13Z</time>
</trkpt>
<trkpt lat="34.9843242" lon="33.6489518">
<ele>84.92</ele>
<time>2015-05-02T10:30:16Z</time>
</trkpt>
<trkpt lat="34.9842931" lon="33.6489000">
<ele>86.25</ele>
<time>2015-05-02T10:30:19Z</time>
</trkpt>
<trkpt lat="34.9842579" lon="33.6488459">
<ele>87.42</ele>
<time>2015-05-02T10:30:22Z</time>
</trkpt>
<trkpt lat="34.9842225" lon="33.6487903">
<ele>88.69</ele>
<time>2015-05-02T10:30:25Z</time>
</trkpt>
<trkpt lat="34.9841904" lon="33.6487317">
<ele>90.10</ele>
<time>2015-05-02T10:30:28Z</time>
</trkpt>
<trkpt lat="34.9841594" lon="33.6486713">
<ele>91.78</ele>
<time>2015-05-02T10:30:31Z</time>
</trkpt>
<trkpt lat="34.9841166" lon="33.6486152">
<ele>94.61</ele>
<time>2015-05-02T10:30:34Z</time>
</trkpt>
<trkpt lat="34.9840770" lon="33.6485642">
<ele>94.59</ele>
<time>2015-05-02T10:30:37Z</time>
</trkpt>
<trkpt lat="34.9840353" lon="33.6485243">
<ele>93.34</ele>
<time>2015-05-02T10:30:40Z</time>
</trkpt>
<trkpt lat="34.9839865" lon="33.6484965">
<ele>92.93</ele>
<time>2015-05-02T10:30:43Z</time>
</trkpt>
<trkpt lat="34.9839328" lon="33.6484742">
<ele>95.26</ele>
<time>2015-05-02T10:30:46Z</time>
</trkpt>
<trkpt lat="34.9838776" lon="33.6484494">
<ele>95.30</ele>
<time>2015-05-02T10:30:49Z</time>
</trkpt>
<trkpt lat="34.9838226" lon="33.6484202">
<ele>95.55</ele>
<time>2015-05-02T10:30:52Z</time>
</trkpt>
<trkpt lat="34.9837601" lon="33.6483972">
<ele>95.96</ele>
<time>2015-05-02T10:30:55Z</time>
</trkpt>
<trkpt lat="34.9837003" lon="33.6483702">
<ele>97.26</ele>
<time>2015-05-02T10:30:58Z</time>
</trkpt>
<trkpt lat="34.9836457" lon="33.6483453">
<ele>97.67</ele>
<time>2015-05-02T10:31:01Z</time>
</trkpt>
<trkpt lat="34.9835866" lon="33.6483140">
<ele>97.97</ele>
<time>2015-05-02T10:31:04Z</time>
</trkpt>
<trkpt lat="34.9835320" lon="33.6482808">
<ele>98.51</ele>
<time>2015-05-02T10:31:07Z</time>
</trkpt>
<trkpt lat="34.9834788" lon="33.6482403">
<ele>98.95</ele>
<time>2015-05-02T10:31:10Z</time>
</trkpt>
<trkpt lat="34.9834291" lon="33.6481922">
<ele>98.13</ele>
<time>2015-05-02T10:31:13Z</time>
</trkpt>
<trkpt lat="34.9833788" lon="33.6481441">
<ele>98.03</ele>
<time>2015-05-02T10:31:16Z</time>
</trkpt>
<trkpt lat="34.9833367" lon="33.6480875">
<ele>98.02</ele>
<time>2015-05-02T10:31:19Z</time>
</trkpt>
<trkpt lat="34.9832970" lon="33.6480239">
<ele>98.02</ele>
<time>2015-05-02T10:31:22Z</time>
</trkpt>
<trkpt lat="34.9832528" lon="33.6479700">
<ele>98.89</ele>
<time>2015-05-02T10:31:25Z</time>
</trkpt>
<trkpt lat="34.9832077" lon="33.6479271">
<ele>97.88</ele>
<time>2015-05-02T10:31:28Z</time>
</trkpt>
<trkpt lat="34.9831560" lon="33.6479049">
<ele>96.75</ele>
<time>2015-05-02T10:31:31Z</time>
</trkpt>
<trkpt lat="34.9831109" lon="33.6478841">
<ele>97.11</ele>
<time>2015-05-02T10:31:34Z</time>
</trkpt>
<trkpt lat="34.9830634" lon="33.6478829">
<ele>98.47</ele>
<time>2015-05-02T10:31:40Z</time>
</trkpt>
<trkpt lat="34.9830091" lon="33.6478793">
<ele>98.44</ele>
<time>2015-05-02T10:31:45Z</time>
</trkpt>
<trkpt lat="34.9829631" lon="33.6478716">
<ele>98.19</ele>
<time>2015-05-02T10:31:48Z</time>
</trkpt>
<trkpt lat="34.9829149" lon="33.6478542">
<ele>98.04</ele>
<time>2015-05-02T10:31:51Z</time>
</trkpt>
<trkpt lat="34.9828604" lon="33.6478497">
<ele>97.27</ele>
<time>2015-05-02T10:31:54Z</time>
</trkpt>
<trkpt lat="34.9828061" lon="33.6478526">
<ele>95.17</ele>
<time>2015-05-02T10:31:57Z</time>
</trkpt>
<trkpt lat="34.9827525" lon="33.6478473">
<ele>94.54</ele>
<time>2015-05-02T10:32:00Z</time>
</trkpt>
<trkpt lat="34.9826951" lon="33.6478409">
<ele>96.46</ele>
<time>2015-05-02T10:32:03Z</time>
</trkpt>
<trkpt lat="34.9826372" lon="33.6478441">
<ele>98.70</ele>
<time>2015-05-02T10:32:06Z</time>
</trkpt>
<trkpt lat="34.9825815" lon="33.6478379">
<ele>100.35</ele>
<time>2015-05-02T10:32:09Z</time>
</trkpt>
<trkpt lat="34.9825261" lon="33.6478357">
<ele>101.43</ele>
<time>2015-05-02T10:32:12Z</time>
</trkpt>
<trkpt lat="34.9824723" lon="33.6478556">
<ele>102.29</ele>
<time>2015-05-02T10:32:16Z</time>
</trkpt>
<trkpt lat="34.9824264" lon="33.6478847">
<ele>104.03</ele>
<time>2015-05-02T10:32:20Z</time>
</trkpt>
<trkpt lat="34.9823710" lon="33.6479140">
<ele>104.08</ele>
<time>2015-05-02T10:32:24Z</time>
</trkpt>
<trkpt lat="34.9823242" lon="33.6479214">
<ele>105.15</ele>
<time>2015-05-02T10:32:27Z</time>
</trkpt>
<trkpt lat="34.9822743" lon="33.6479041">
<ele>109.03</ele>
<time>2015-05-02T10:32:30Z</time>
</trkpt>
<trkpt lat="34.9822254" lon="33.6478862">
<ele>109.14</ele>
<time>2015-05-02T10:32:33Z</time>
</trkpt>
<trkpt lat="34.9821771" lon="33.6478736">
<ele>107.91</ele>
<time>2015-05-02T10:32:36Z</time>
</trkpt>
<trkpt lat="34.9821204" lon="33.6478599">
<ele>107.00</ele>
<time>2015-05-02T10:32:39Z</time>
</trkpt>
<trkpt lat="34.9820613" lon="33.6478414">
<ele>108.01</ele>
<time>2015-05-02T10:32:42Z</time>
</trkpt>
<trkpt lat="34.9820076" lon="33.6478149">
<ele>107.64</ele>
<time>2015-05-02T10:32:45Z</time>
</trkpt>
<trkpt lat="34.9819467" lon="33.6477896">
<ele>107.97</ele>
<time>2015-05-02T10:32:48Z</time>
</trkpt>
<trkpt lat="34.9819010" lon="33.6477732">
<ele>108.00</ele>
<time>2015-05-02T10:32:50Z</time>
</trkpt>
<trkpt lat="34.9818561" lon="33.6477553">
<ele>109.26</ele>
<time>2015-05-02T10:32:52Z</time>
</trkpt>
<trkpt lat="34.9818113" lon="33.6477382">
<ele>109.83</ele>
<time>2015-05-02T10:32:54Z</time>
</trkpt>
<trkpt lat="34.9817626" lon="33.6477168">
<ele>109.97</ele>
<time>2015-05-02T10:32:56Z</time>
</trkpt>
<trkpt lat="34.9817171" lon="33.6476951">
<ele>110.00</ele>
<time>2015-05-02T10:32:58Z</time>
</trkpt>
<trkpt lat="34.9816564" lon="33.6476643">
<ele>110.14</ele>
<time>2015-05-02T10:33:01Z</time>
</trkpt>
<trkpt lat="34.9816122" lon="33.6476400">
<ele>109.80</ele>
<time>2015-05-02T10:33:03Z</time>
</trkpt>
<trkpt lat="34.9815620" lon="33.6476088">
<ele>109.96</ele>
<time>2015-05-02T10:33:05Z</time>
</trkpt>
<trkpt lat="34.9815085" lon="33.6475701">
<ele>110.25</ele>
<time>2015-05-02T10:33:07Z</time>
</trkpt>
<trkpt lat="34.9814612" lon="33.6475247">
<ele>111.58</ele>
<time>2015-05-02T10:33:09Z</time>
</trkpt>
<trkpt lat="34.9814240" lon="33.6474837">
<ele>111.16</ele>
<time>2015-05-02T10:33:11Z</time>
</trkpt>
<trkpt lat="34.9813721" lon="33.6474424">
<ele>111.78</ele>
<time>2015-05-02T10:33:14Z</time>
</trkpt>
<trkpt lat="34.9813268" lon="33.6473968">
<ele>112.49</ele>
<time>2015-05-02T10:33:17Z</time>
</trkpt>
<trkpt lat="34.9812809" lon="33.6473507">
<ele>112.82</ele>
<time>2015-05-02T10:33:20Z</time>
</trkpt>
<trkpt lat="34.9812662" lon="33.6472913">
<ele>112.74</ele>
<time>2015-05-02T10:33:23Z</time>
</trkpt>
<trkpt lat="34.9812745" lon="33.6472362">
<ele>113.36</ele>
<time>2015-05-02T10:33:26Z</time>
</trkpt>
<trkpt lat="34.9812937" lon="33.6471850">
<ele>113.06</ele>
<time>2015-05-02T10:33:29Z</time>
</trkpt>
<trkpt lat="34.9813406" lon="33.6471853">
<ele>113.02</ele>
<time>2015-05-02T10:33:32Z</time>
</trkpt>
<trkpt lat="34.9813766" lon="33.6472196">
<ele>113.02</ele>
<time>2015-05-02T10:33:34Z</time>
</trkpt>
<trkpt lat="34.9814209" lon="33.6472531">
<ele>113.52</ele>
<time>2015-05-02T10:33:36Z</time>
</trkpt>
<trkpt lat="34.9814683" lon="33.6472918">
<ele>113.89</ele>
<time>2015-05-02T10:33:38Z</time>
</trkpt>
<trkpt lat="34.9815161" lon="33.6473263">
<ele>113.48</ele>
<time>2015-05-02T10:33:40Z</time>
</trkpt>
<trkpt lat="34.9815658" lon="33.6473534">
<ele>113.13</ele>
<time>2015-05-02T10:33:42Z</time>
</trkpt>
<trkpt lat="34.9816068" lon="33.6473837">
<ele>113.80</ele>
<time>2015-05-02T10:33:44Z</time>
</trkpt>
<trkpt lat="34.9816480" lon="33.6474184">
<ele>113.71</ele>
<time>2015-05-02T10:33:46Z</time>
</trkpt>
<trkpt lat="34.9816937" lon="33.6474464">
<ele>113.94</ele>
<time>2015-05-02T10:33:48Z</time>
</trkpt>
<trkpt lat="34.9817414" lon="33.6474674">
<ele>114.50</ele>
<time>2015-05-02T10:33:50Z</time>
</trkpt>
<trkpt lat="34.9817907" lon="33.6474848">
<ele>115.39</ele>
<time>2015-05-02T10:33:52Z</time>
</trkpt>
<trkpt lat="34.9818394" lon="33.6474956">
<ele>116.61</ele>
<time>2015-05-02T10:33:54Z</time>
</trkpt>
<trkpt lat="34.9818862" lon="33.6475046">
<ele>116.91</ele>
<time>2015-05-02T10:33:56Z</time>
</trkpt>
<trkpt lat="34.9819343" lon="33.6475156">
<ele>115.99</ele>
<time>2015-05-02T10:33:58Z</time>
</trkpt>
<trkpt lat="34.9819856" lon="33.6475147">
<ele>116.76</ele>
<time>2015-05-02T10:34:00Z</time>
</trkpt>
<trkpt lat="34.9820474" lon="33.6475077">
<ele>116.95</ele>
<time>2015-05-02T10:34:02Z</time>
</trkpt>
<trkpt lat="34.9821070" lon="33.6475070">
<ele>115.75</ele>
<time>2015-05-02T10:34:04Z</time>
</trkpt>
<trkpt lat="34.9821644" lon="33.6475087">
<ele>115.20</ele>
<time>2015-05-02T10:34:06Z</time>
</trkpt>
<trkpt lat="34.9822207" lon="33.6475090">
<ele>115.81</ele>
<time>2015-05-02T10:34:08Z</time>
</trkpt>
<trkpt lat="34.9822782" lon="33.6475042">
<ele>116.46</ele>
<time>2015-05-02T10:34:10Z</time>
</trkpt>
<trkpt lat="34.9823384" lon="33.6474962">
<ele>116.13</ele>
<time>2015-05-02T10:34:12Z</time>
</trkpt>
<trkpt lat="34.9824002" lon="33.6474908">
<ele>115.54</ele>
<time>2015-05-02T10:34:14Z</time>
</trkpt>
<trkpt lat="34.9824661" lon="33.6474819">
<ele>115.90</ele>
<time>2015-05-02T10:34:16Z</time>
</trkpt>
<trkpt lat="34.9825314" lon="33.6474742">
<ele>116.49</ele>
<time>2015-05-02T10:34:18Z</time>
</trkpt>
<trkpt lat="34.9825981" lon="33.6474681">
<ele>117.63</ele>
<time>2015-05-02T10:34:20Z</time>
</trkpt>
<trkpt lat="34.9826651" lon="33.6474580">
<ele>117.92</ele>
<time>2015-05-02T10:34:22Z</time>
</trkpt>
<trkpt lat="34.9827300" lon="33.6474375">
<ele>117.99</ele>
<time>2015-05-02T10:34:24Z</time>
</trkpt>
<trkpt lat="34.9827934" lon="33.6474111">
<ele>117.51</ele>
<time>2015-05-02T10:34:26Z</time>
</trkpt>
<trkpt lat="34.9828599" lon="33.6473911">
<ele>116.39</ele>
<time>2015-05-02T10:34:28Z</time>
</trkpt>
<trkpt lat="34.9829306" lon="33.6473878">
<ele>116.61</ele>
<time>2015-05-02T10:34:30Z</time>
</trkpt>
<trkpt lat="34.9830010" lon="33.6473875">
<ele>117.41</ele>
<time>2015-05-02T10:34:32Z</time>
</trkpt>
<trkpt lat="34.9830697" lon="33.6473910">
<ele>119.12</ele>
<time>2015-05-02T10:34:34Z</time>
</trkpt>
<trkpt lat="34.9831380" lon="33.6474047">
<ele>119.04</ele>
<time>2015-05-02T10:34:36Z</time>
</trkpt>
<trkpt lat="34.9832069" lon="33.6474259">
<ele>119.52</ele>
<time>2015-05-02T10:34:38Z</time>
</trkpt>
<trkpt lat="34.9832764" lon="33.6474402">
<ele>119.14</ele>
<time>2015-05-02T10:34:40Z</time>
</trkpt>
<trkpt lat="34.9833441" lon="33.6474607">
<ele>119.55</ele>
<time>2015-05-02T10:34:42Z</time>
</trkpt>
<trkpt lat="34.9834108" lon="33.6474851">
<ele>120.15</ele>
<time>2015-05-02T10:34:44Z</time>
</trkpt>
<trkpt lat="34.9835129" lon="33.6475203">
<ele>120.05</ele>
<time>2015-05-02T10:34:46Z</time>
</trkpt>
<trkpt lat="34.9835969" lon="33.6475581">
<ele>120.27</ele>
<time>2015-05-02T10:34:48Z</time>
</trkpt>
<trkpt lat="34.9836746" lon="33.6475855">
<ele>119.33</ele>
<time>2015-05-02T10:34:50Z</time>
</trkpt>
<trkpt lat="34.9837339" lon="33.6476212">
<ele>119.59</ele>
<time>2015-05-02T10:34:52Z</time>
</trkpt>
<trkpt lat="34.9837943" lon="33.6476507">
<ele>120.66</ele>
<time>2015-05-02T10:34:54Z</time>
</trkpt>
<trkpt lat="34.9838582" lon="33.6476876">
<ele>120.93</ele>
<time>2015-05-02T10:34:56Z</time>
</trkpt>
<trkpt lat="34.9839269" lon="33.6477266">
<ele>119.74</ele>
<time>2015-05-02T10:34:58Z</time>
</trkpt>
<trkpt lat="34.9839912" lon="33.6477691">
<ele>119.20</ele>
<time>2015-05-02T10:35:00Z</time>
</trkpt>
<trkpt lat="34.9840555" lon="33.6478054">
<ele>119.56</ele>
<time>2015-05-02T10:35:02Z</time>
</trkpt>
<trkpt lat="34.9841254" lon="33.6478273">
<ele>119.90</ele>
<time>2015-05-02T10:35:04Z</time>
</trkpt>
<trkpt lat="34.9842029" lon="33.6478405">
<ele>120.24</ele>
<time>2015-05-02T10:35:06Z</time>
</trkpt>
<trkpt lat="34.9842820" lon="33.6478481">
<ele>120.82</ele>
<time>2015-05-02T10:35:08Z</time>
</trkpt>
<trkpt lat="34.9843596" lon="33.6478524">
<ele>121.47</ele>
<time>2015-05-02T10:35:10Z</time>
</trkpt>
<trkpt lat="34.9844313" lon="33.6478655">
<ele>122.63</ele>
<time>2015-05-02T10:35:12Z</time>
</trkpt>
<trkpt lat="34.9844984" lon="33.6478782">
<ele>124.17</ele>
<time>2015-05-02T10:35:14Z</time>
</trkpt>
<trkpt lat="34.9845657" lon="33.6478898">
<ele>124.30</ele>
<time>2015-05-02T10:35:16Z</time>
</trkpt>
<trkpt lat="34.9846290" lon="33.6479029">
<ele>124.09</ele>
<time>2015-05-02T10:35:18Z</time>
</trkpt>
<trkpt lat="34.9846909" lon="33.6479119">
<ele>124.03</ele>
<time>2015-05-02T10:35:20Z</time>
</trkpt>
<trkpt lat="34.9847441" lon="33.6479152">
<ele>124.64</ele>
<time>2015-05-02T10:35:23Z</time>
</trkpt>
<trkpt lat="34.9847955" lon="33.6479281">
<ele>123.43</ele>
<time>2015-05-02T10:35:27Z</time>
</trkpt>
<trkpt lat="34.9848406" lon="33.6479307">
<ele>122.94</ele>
<time>2015-05-02T10:35:30Z</time>
</trkpt>
<trkpt lat="34.9848893" lon="33.6479344">
<ele>122.51</ele>
<time>2015-05-02T10:35:33Z</time>
</trkpt>
<trkpt lat="34.9849400" lon="33.6479284">
<ele>123.70</ele>
<time>2015-05-02T10:35:36Z</time>
</trkpt>
<trkpt lat="34.9849921" lon="33.6479265">
<ele>124.73</ele>
<time>2015-05-02T10:35:39Z</time>
</trkpt>
<trkpt lat="34.9850458" lon="33.6479095">
<ele>124.48</ele>
<time>2015-05-02T10:35:42Z</time>
</trkpt>
<trkpt lat="34.9850973" lon="33.6478986">
<ele>124.95</ele>
<time>2015-05-02T10:35:45Z</time>
</trkpt>
<trkpt lat="34.9851412" lon="33.6478817">
<ele>125.76</ele>
<time>2015-05-02T10:35:48Z</time>
</trkpt>
<trkpt lat="34.9851834" lon="33.6478471">
<ele>125.94</ele>
<time>2015-05-02T10:35:52Z</time>
</trkpt>
<trkpt lat="34.9852084" lon="33.6477930">
<ele>125.26</ele>
<time>2015-05-02T10:35:56Z</time>
</trkpt>
<trkpt lat="34.9851912" lon="33.6477417">
<ele>125.17</ele>
<time>2015-05-02T10:36:03Z</time>
</trkpt>
<trkpt lat="34.9852006" lon="33.6477963">
<ele>128.86</ele>
<time>2015-05-02T10:37:35Z</time>
</trkpt>
<trkpt lat="34.9851853" lon="33.6478709">
<ele>129.00</ele>
<time>2015-05-02T10:37:38Z</time>
</trkpt>
<trkpt lat="34.9851765" lon="33.6479353">
<ele>129.01</ele>
<time>2015-05-02T10:37:41Z</time>
</trkpt>
<trkpt lat="34.9851904" lon="33.6479885">
<ele>129.39</ele>
<time>2015-05-02T10:37:44Z</time>
</trkpt>
<trkpt lat="34.9852382" lon="33.6480237">
<ele>129.91</ele>
<time>2015-05-02T10:37:48Z</time>
</trkpt>
<trkpt lat="34.9852790" lon="33.6480670">
<ele>128.57</ele>
<time>2015-05-02T10:37:52Z</time>
</trkpt>
<trkpt lat="34.9852964" lon="33.6481482">
<ele>127.84</ele>
<time>2015-05-02T10:37:55Z</time>
</trkpt>
<trkpt lat="34.9852972" lon="33.6482526">
<ele>128.72</ele>
<time>2015-05-02T10:37:57Z</time>
</trkpt>
<trkpt lat="34.9852817" lon="33.6483558">
<ele>128.44</ele>
<time>2015-05-02T10:37:59Z</time>
</trkpt>
<trkpt lat="34.9852650" lon="33.6484586">
<ele>128.12</ele>
<time>2015-05-02T10:38:01Z</time>
</trkpt>
<trkpt lat="34.9852574" lon="33.6485508">
<ele>127.29</ele>
<time>2015-05-02T10:38:03Z</time>
</trkpt>
<trkpt lat="34.9852530" lon="33.6486341">
<ele>127.59</ele>
<time>2015-05-02T10:38:05Z</time>
</trkpt>
<trkpt lat="34.9852462" lon="33.6486902">
<ele>127.91</ele>
<time>2015-05-02T10:38:07Z</time>
</trkpt>
<trkpt lat="34.9852503" lon="33.6486240">
<ele>128.03</ele>
<time>2015-05-02T10:39:40Z</time>
</trkpt>
<trkpt lat="34.9852484" lon="33.6485640">
<ele>128.89</ele>
<time>2015-05-02T10:39:43Z</time>
</trkpt>
<trkpt lat="34.9852492" lon="33.6484938">
<ele>128.25</ele>
<time>2015-05-02T10:39:46Z</time>
</trkpt>
<trkpt lat="34.9852571" lon="33.6484134">
<ele>127.17</ele>
<time>2015-05-02T10:39:49Z</time>
</trkpt>
<trkpt lat="34.9852761" lon="33.6483570">
<ele>127.05</ele>
<time>2015-05-02T10:39:51Z</time>
</trkpt>
<trkpt lat="34.9853081" lon="33.6483117">
<ele>127.03</ele>
<time>2015-05-02T10:39:53Z</time>
</trkpt>
<trkpt lat="34.9853584" lon="33.6483182">
<ele>127.64</ele>
<time>2015-05-02T10:39:56Z</time>
</trkpt>
<trkpt lat="34.9853806" lon="33.6483806">
<ele>127.22</ele>
<time>2015-05-02T10:39:59Z</time>
</trkpt>
<trkpt lat="34.9854239" lon="33.6484078">
<ele>128.17</ele>
<time>2015-05-02T10:40:02Z</time>
</trkpt>
<trkpt lat="34.9854654" lon="33.6483864">
<ele>127.28</ele>
<time>2015-05-02T10:40:05Z</time>
</trkpt>
<trkpt lat="34.9855029" lon="33.6483184">
<ele>127.80</ele>
<time>2015-05-02T10:40:08Z</time>
</trkpt>
<trkpt lat="34.9855376" lon="33.6482668">
<ele>127.71</ele>
<time>2015-05-02T10:40:10Z</time>
</trkpt>
<trkpt lat="34.9855798" lon="33.6482153">
<ele>126.69</ele>
<time>2015-05-02T10:40:12Z</time>
</trkpt>
<trkpt lat="34.9856188" lon="33.6481640">
<ele>126.93</ele>
<time>2015-05-02T10:40:14Z</time>
</trkpt>
<trkpt lat="34.9856491" lon="33.6481132">
<ele>127.00</ele>
<time>2015-05-02T10:40:16Z</time>
</trkpt>
<trkpt lat="34.9856827" lon="33.6480458">
<ele>128.14</ele>
<time>2015-05-02T10:40:19Z</time>
</trkpt>
<trkpt lat="34.9857142" lon="33.6480018">
<ele>127.30</ele>
<time>2015-05-02T10:40:21Z</time>
</trkpt>
<trkpt lat="34.9857472" lon="33.6479610">
<ele>126.34</ele>
<time>2015-05-02T10:40:23Z</time>
</trkpt>
<trkpt lat="34.9857877" lon="33.6479309">
<ele>126.10</ele>
<time>2015-05-02T10:40:25Z</time>
</trkpt>
<trkpt lat="34.9858446" lon="33.6479138">
<ele>125.29</ele>
<time>2015-05-02T10:40:27Z</time>
</trkpt>
<trkpt lat="34.9859903" lon="33.6478832">
<ele>123.58</ele>
<time>2015-05-02T10:40:29Z</time>
</trkpt>
<trkpt lat="34.9860507" lon="33.6478819">
<ele>123.80</ele>
<time>2015-05-02T10:40:30Z</time>
</trkpt>
<trkpt lat="34.9861078" lon="33.6478679">
<ele>123.91</ele>
<time>2015-05-02T10:40:31Z</time>
</trkpt>
<trkpt lat="34.9861733" lon="33.6478557">
<ele>123.46</ele>
<time>2015-05-02T10:40:32Z</time>
</trkpt>
<trkpt lat="34.9862370" lon="33.6478487">
<ele>122.74</ele>
<time>2015-05-02T10:40:33Z</time>
</trkpt>
<trkpt lat="34.9862976" lon="33.6478251">
<ele>122.38</ele>
<time>2015-05-02T10:40:34Z</time>
</trkpt>
<trkpt lat="34.9863600" lon="33.6478080">
<ele>121.20</ele>
<time>2015-05-02T10:40:35Z</time>
</trkpt>
<trkpt lat="34.9864282" lon="33.6477886">
<ele>121.61</ele>
<time>2015-05-02T10:40:36Z</time>
</trkpt>
<trkpt lat="34.9864730" lon="33.6477769">
<ele>121.81</ele>
<time>2015-05-02T10:40:37Z</time>
</trkpt>
<trkpt lat="34.9865285" lon="33.6477730">
<ele>121.41</ele>
<time>2015-05-02T10:40:38Z</time>
</trkpt>
<trkpt lat="34.9866101" lon="33.6477440">
<ele>121.12</ele>
<time>2015-05-02T10:40:40Z</time>
</trkpt>
<trkpt lat="34.9866614" lon="33.6477375">
<ele>121.54</ele>
<time>2015-05-02T10:40:42Z</time>
</trkpt>
<trkpt lat="34.9867168" lon="33.6477255">
<ele>122.40</ele>
<time>2015-05-02T10:40:44Z</time>
</trkpt>
<trkpt lat="34.9867772" lon="33.6477169">
<ele>122.86</ele>
<time>2015-05-02T10:40:46Z</time>
</trkpt>
<trkpt lat="34.9868380" lon="33.6477075">
<ele>123.23</ele>
<time>2015-05-02T10:40:48Z</time>
</trkpt>
<trkpt lat="34.9868979" lon="33.6477000">
<ele>123.82</ele>
<time>2015-05-02T10:40:50Z</time>
</trkpt>
<trkpt lat="34.9869568" lon="33.6476926">
<ele>124.47</ele>
<time>2015-05-02T10:40:52Z</time>
</trkpt>
<trkpt lat="34.9870100" lon="33.6476788">
<ele>125.63</ele>
<time>2015-05-02T10:40:54Z</time>
</trkpt>
<trkpt lat="34.9870547" lon="33.6476521">
<ele>125.92</ele>
<time>2015-05-02T10:40:56Z</time>
</trkpt>
<trkpt lat="34.9871006" lon="33.6476049">
<ele>126.50</ele>
<time>2015-05-02T10:40:59Z</time>
</trkpt>
<trkpt lat="34.9871413" lon="33.6475608">
<ele>127.48</ele>
<time>2015-05-02T10:41:03Z</time>
</trkpt>
<trkpt lat="34.9871762" lon="33.6475110">
<ele>128.86</ele>
<time>2015-05-02T10:41:07Z</time>
</trkpt>
<trkpt lat="34.9872142" lon="33.6474740">
<ele>130.69</ele>
<time>2015-05-02T10:41:11Z</time>
</trkpt>
<trkpt lat="34.9872490" lon="33.6474256">
<ele>130.01</ele>
<time>2015-05-02T10:41:16Z</time>
</trkpt>
<trkpt lat="34.9872802" lon="33.6473722">
<ele>130.95</ele>
<time>2015-05-02T10:41:21Z</time>
</trkpt>
<trkpt lat="34.9872755" lon="33.6473128">
<ele>130.82</ele>
<time>2015-05-02T10:41:25Z</time>
</trkpt>
<trkpt lat="34.9872870" lon="33.6472495">
<ele>130.75</ele>
<time>2015-05-02T10:41:29Z</time>
</trkpt>
<trkpt lat="34.9872962" lon="33.6471810">
<ele>130.12</ele>
<time>2015-05-02T10:41:33Z</time>
</trkpt>
<trkpt lat="34.9872526" lon="33.6471289">
<ele>131.40</ele>
<time>2015-05-02T10:41:37Z</time>
</trkpt>
<trkpt lat="34.9872073" lon="33.6471060">
<ele>132.69</ele>
<time>2015-05-02T10:41:40Z</time>
</trkpt>
<trkpt lat="34.9871623" lon="33.6470870">
<ele>132.48</ele>
<time>2015-05-02T10:41:43Z</time>
</trkpt>
<trkpt lat="34.9871185" lon="33.6470651">
<ele>130.70</ele>
<time>2015-05-02T10:41:46Z</time>
</trkpt>
<trkpt lat="34.9870683" lon="33.6470440">
<ele>129.98</ele>
<time>2015-05-02T10:41:49Z</time>
</trkpt>
<trkpt lat="34.9870223" lon="33.6470186">
<ele>130.26</ele>
<time>2015-05-02T10:41:51Z</time>
</trkpt>
<trkpt lat="34.9869742" lon="33.6469886">
<ele>130.08</ele>
<time>2015-05-02T10:41:53Z</time>
</trkpt>
<trkpt lat="34.9869264" lon="33.6469603">
<ele>129.28</ele>
<time>2015-05-02T10:41:55Z</time>
</trkpt>
<trkpt lat="34.9868750" lon="33.6469314">
<ele>129.83</ele>
<time>2015-05-02T10:41:57Z</time>
</trkpt>
<trkpt lat="34.9868245" lon="33.6468999">
<ele>129.97</ele>
<time>2015-05-02T10:41:59Z</time>
</trkpt>
<trkpt lat="34.9867724" lon="33.6468682">
<ele>130.50</ele>
<time>2015-05-02T10:42:01Z</time>
</trkpt>
<trkpt lat="34.9867261" lon="33.6468351">
<ele>131.64</ele>
<time>2015-05-02T10:42:03Z</time>
</trkpt>
<trkpt lat="34.9866825" lon="33.6467881">
<ele>131.42</ele>
<time>2015-05-02T10:42:05Z</time>
</trkpt>
<trkpt lat="34.9866509" lon="33.6467347">
<ele>131.12</ele>
<time>2015-05-02T10:42:07Z</time>
</trkpt>
<trkpt lat="34.9866343" lon="33.6466832">
<ele>131.79</ele>
<time>2015-05-02T10:42:09Z</time>
</trkpt>
<trkpt lat="34.9866528" lon="33.6466177">
<ele>132.00</ele>
<time>2015-05-02T10:42:13Z</time>
</trkpt>
<trkpt lat="34.9866696" lon="33.6465641">
<ele>133.95</ele>
<time>2015-05-02T10:42:17Z</time>
</trkpt>
<trkpt lat="34.9866906" lon="33.6465134">
<ele>134.76</ele>
<time>2015-05-02T10:42:21Z</time>
</trkpt>
<trkpt lat="34.9866948" lon="33.6464521">
<ele>133.82</ele>
<time>2015-05-02T10:42:26Z</time>
</trkpt>
<trkpt lat="34.9866886" lon="33.6463877">
<ele>134.09</ele>
<time>2015-05-02T10:42:32Z</time>
</trkpt>
<trkpt lat="34.9866964" lon="33.6463186">
<ele>134.77</ele>
<time>2015-05-02T10:42:37Z</time>
</trkpt>
<trkpt lat="34.9867281" lon="33.6462714">
<ele>135.50</ele>
<time>2015-05-02T10:42:41Z</time>
</trkpt>
<trkpt lat="34.9867817" lon="33.6462472">
<ele>136.92</ele>
<time>2015-05-02T10:42:45Z</time>
</trkpt>
<trkpt lat="34.9868400" lon="33.6462588">
<ele>138.64</ele>
<time>2015-05-02T10:42:49Z</time>
</trkpt>
<trkpt lat="34.9868844" lon="33.6462688">
<ele>138.97</ele>
<time>2015-05-02T10:42:52Z</time>
</trkpt>
<trkpt lat="34.9869313" lon="33.6462780">
<ele>140.39</ele>
<time>2015-05-02T10:42:55Z</time>
</trkpt>
<trkpt lat="34.9869887" lon="33.6462926">
<ele>140.94</ele>
<time>2015-05-02T10:42:58Z</time>
</trkpt>
<trkpt lat="34.9870348" lon="33.6463032">
<ele>141.25</ele>
<time>2015-05-02T10:43:00Z</time>
</trkpt>
<trkpt lat="34.9870989" lon="33.6463046">
<ele>141.79</ele>
<time>2015-05-02T10:43:03Z</time>
</trkpt>
<trkpt lat="34.9871562" lon="33.6462776">
<ele>141.99</ele>
<time>2015-05-02T10:43:06Z</time>
</trkpt>
<trkpt lat="34.9872143" lon="33.6462498">
<ele>143.14</ele>
<time>2015-05-02T10:43:09Z</time>
</trkpt>
<trkpt lat="34.9872800" lon="33.6462543">
<ele>143.03</ele>
<time>2015-05-02T10:43:12Z</time>
</trkpt>
<trkpt lat="34.9873400" lon="33.6462611">
<ele>142.77</ele>
<time>2015-05-02T10:43:15Z</time>
</trkpt>
<trkpt lat="34.9874010" lon="33.6462669">
<ele>143.11</ele>
<time>2015-05-02T10:43:18Z</time>
</trkpt>
<trkpt lat="34.9874659" lon="33.6462861">
<ele>142.53</ele>
<time>2015-05-02T10:43:21Z</time>
</trkpt>
<trkpt lat="34.9875094" lon="33.6463068">
<ele>142.14</ele>
<time>2015-05-02T10:43:23Z</time>
</trkpt>
<trkpt lat="34.9875562" lon="33.6463281">
<ele>143.30</ele>
<time>2015-05-02T10:43:25Z</time>
</trkpt>
<trkpt lat="34.9876106" lon="33.6463513">
<ele>144.09</ele>
<time>2015-05-02T10:43:27Z</time>
</trkpt>
<trkpt lat="34.9876640" lon="33.6463731">
<ele>144.03</ele>
<time>2015-05-02T10:43:29Z</time>
</trkpt>
<trkpt lat="34.9877079" lon="33.6463950">
<ele>144.77</ele>
<time>2015-05-02T10:43:31Z</time>
</trkpt>
<trkpt lat="34.9877542" lon="33.6464359">
<ele>144.20</ele>
<time>2015-05-02T10:43:33Z</time>
</trkpt>
<trkpt lat="34.9878100" lon="33.6464636">
<ele>144.06</ele>
<time>2015-05-02T10:43:35Z</time>
</trkpt>
<trkpt lat="34.9878704" lon="33.6464858">
<ele>144.03</ele>
<time>2015-05-02T10:43:37Z</time>
</trkpt>
<trkpt lat="34.9879377" lon="33.6465103">
<ele>144.02</ele>
<time>2015-05-02T10:43:39Z</time>
</trkpt>
<trkpt lat="34.9880034" lon="33.6465308">
<ele>143.77</ele>
<time>2015-05-02T10:43:41Z</time>
</trkpt>
<trkpt lat="34.9880619" lon="33.6465454">
<ele>143.95</ele>
<time>2015-05-02T10:43:43Z</time>
</trkpt>
<trkpt lat="34.9881081" lon="33.6465524">
<ele>143.25</ele>
<time>2015-05-02T10:43:45Z</time>
</trkpt>
<trkpt lat="34.9881614" lon="33.6465769">
<ele>143.92</ele>
<time>2015-05-02T10:43:48Z</time>
</trkpt>
<trkpt lat="34.9882223" lon="33.6466063">
<ele>144.50</ele>
<time>2015-05-02T10:43:51Z</time>
</trkpt>
<trkpt lat="34.9882817" lon="33.6466450">
<ele>144.95</ele>
<time>2015-05-02T10:43:54Z</time>
</trkpt>
<trkpt lat="34.9883243" lon="33.6466710">
<ele>145.50</ele>
<time>2015-05-02T10:43:56Z</time>
</trkpt>
<trkpt lat="34.9883692" lon="33.6467037">
<ele>145.39</ele>
<time>2015-05-02T10:43:58Z</time>
</trkpt>
<trkpt lat="34.9884151" lon="33.6467396">
<ele>145.11</ele>
<time>2015-05-02T10:44:00Z</time>
</trkpt>
<trkpt lat="34.9884623" lon="33.6467707">
<ele>144.29</ele>
<time>2015-05-02T10:44:02Z</time>
</trkpt>
<trkpt lat="34.9885092" lon="33.6467991">
<ele>144.83</ele>
<time>2015-05-02T10:44:04Z</time>
</trkpt>
<trkpt lat="34.9885593" lon="33.6468264">
<ele>145.47</ele>
<time>2015-05-02T10:44:06Z</time>
</trkpt>
<trkpt lat="34.9886119" lon="33.6468492">
<ele>145.88</ele>
<time>2015-05-02T10:44:08Z</time>
</trkpt>
<trkpt lat="34.9886672" lon="33.6468712">
<ele>146.48</ele>
<time>2015-05-02T10:44:10Z</time>
</trkpt>
<trkpt lat="34.9887198" lon="33.6468977">
<ele>147.38</ele>
<time>2015-05-02T10:44:12Z</time>
</trkpt>
<trkpt lat="34.9887695" lon="33.6469188">
<ele>147.11</ele>
<time>2015-05-02T10:44:14Z</time>
</trkpt>
<trkpt lat="34.9888192" lon="33.6469184">
<ele>147.04</ele>
<time>2015-05-02T10:44:16Z</time>
</trkpt>
<trkpt lat="34.9888667" lon="33.6469120">
<ele>147.77</ele>
<time>2015-05-02T10:44:18Z</time>
</trkpt>
<trkpt lat="34.9889084" lon="33.6468883">
<ele>148.45</ele>
<time>2015-05-02T10:44:20Z</time>
</trkpt>
<trkpt lat="34.9889478" lon="33.6468333">
<ele>148.95</ele>
<time>2015-05-02T10:44:23Z</time>
</trkpt>
<trkpt lat="34.9889881" lon="33.6467839">
<ele>149.01</ele>
<time>2015-05-02T10:44:27Z</time>
</trkpt>
<trkpt lat="34.9890390" lon="33.6467492">
<ele>148.14</ele>
<time>2015-05-02T10:44:31Z</time>
</trkpt>
<trkpt lat="34.9890823" lon="33.6467094">
<ele>147.09</ele>
<time>2015-05-02T10:44:35Z</time>
</trkpt>
<trkpt lat="34.9891284" lon="33.6466721">
<ele>149.21</ele>
<time>2015-05-02T10:44:39Z</time>
</trkpt>
<trkpt lat="34.9891715" lon="33.6466409">
<ele>150.84</ele>
<time>2015-05-02T10:44:43Z</time>
</trkpt>
<trkpt lat="34.9892171" lon="33.6466091">
<ele>152.63</ele>
<time>2015-05-02T10:44:47Z</time>
</trkpt>
<trkpt lat="34.9892666" lon="33.6465740">
<ele>153.49</ele>
<time>2015-05-02T10:44:51Z</time>
</trkpt>
<trkpt lat="34.9893152" lon="33.6465434">
<ele>154.86</ele>
<time>2015-05-02T10:44:55Z</time>
</trkpt>
<trkpt lat="34.9893619" lon="33.6465161">
<ele>154.13</ele>
<time>2015-05-02T10:44:59Z</time>
</trkpt>
<trkpt lat="34.9894171" lon="33.6465026">
<ele>154.52</ele>
<time>2015-05-02T10:45:03Z</time>
</trkpt>
<trkpt lat="34.9894745" lon="33.6464970">
<ele>154.99</ele>
<time>2015-05-02T10:45:07Z</time>
</trkpt>
<trkpt lat="34.9895295" lon="33.6464764">
<ele>155.76</ele>
<time>2015-05-02T10:45:11Z</time>
</trkpt>
<trkpt lat="34.9895765" lon="33.6464756">
<ele>155.48</ele>
<time>2015-05-02T10:45:14Z</time>
</trkpt>
<trkpt lat="34.9896264" lon="33.6464841">
<ele>154.70</ele>
<time>2015-05-02T10:45:17Z</time>
</trkpt>
<trkpt lat="34.9896734" lon="33.6464982">
<ele>153.60</ele>
<time>2015-05-02T10:45:20Z</time>
</trkpt>
<trkpt lat="34.9897295" lon="33.6465087">
<ele>152.12</ele>
<time>2015-05-02T10:45:24Z</time>
</trkpt>
<trkpt lat="34.9897839" lon="33.6465196">
<ele>153.33</ele>
<time>2015-05-02T10:45:28Z</time>
</trkpt>
<trkpt lat="34.9898368" lon="33.6465177">
<ele>154.47</ele>
<time>2015-05-02T10:45:32Z</time>
</trkpt>
<trkpt lat="34.9898852" lon="33.6465161">
<ele>155.48</ele>
<time>2015-05-02T10:45:36Z</time>
</trkpt>
<trkpt lat="34.9899394" lon="33.6465151">
<ele>159.03</ele>
<time>2015-05-02T10:45:41Z</time>
</trkpt>
<trkpt lat="34.9899921" lon="33.6465182">
<ele>159.30</ele>
<time>2015-05-02T10:45:46Z</time>
</trkpt>
<trkpt lat="34.9900425" lon="33.6465314">
<ele>159.60</ele>
<time>2015-05-02T10:45:50Z</time>
</trkpt>
<trkpt lat="34.9900954" lon="33.6465504">
<ele>158.30</ele>
<time>2015-05-02T10:45:54Z</time>
</trkpt>
<trkpt lat="34.9901362" lon="33.6465904">
<ele>157.97</ele>
<time>2015-05-02T10:45:58Z</time>
</trkpt>
<trkpt lat="34.9901729" lon="33.6466311">
<ele>158.76</ele>
<time>2015-05-02T10:46:02Z</time>
</trkpt>
<trkpt lat="34.9902204" lon="33.6466675">
<ele>160.94</ele>
<time>2015-05-02T10:46:06Z</time>
</trkpt>
<trkpt lat="34.9902585" lon="33.6467017">
<ele>162.63</ele>
<time>2015-05-02T10:46:09Z</time>
</trkpt>
<trkpt lat="34.9902933" lon="33.6467461">
<ele>162.49</ele>
<time>2015-05-02T10:46:13Z</time>
</trkpt>
<trkpt lat="34.9903372" lon="33.6467720">
<ele>161.55</ele>
<time>2015-05-02T10:46:17Z</time>
</trkpt>
<trkpt lat="34.9903700" lon="33.6468108">
<ele>161.05</ele>
<time>2015-05-02T10:46:21Z</time>
</trkpt>
<trkpt lat="34.9904043" lon="33.6468554">
<ele>163.71</ele>
<time>2015-05-02T10:46:25Z</time>
</trkpt>
<trkpt lat="34.9904170" lon="33.6469164">
<ele>165.68</ele>
<time>2015-05-02T10:46:29Z</time>
</trkpt>
<trkpt lat="34.9904445" lon="33.6469700">
<ele>167.31</ele>
<time>2015-05-02T10:46:33Z</time>
</trkpt>
<trkpt lat="34.9904743" lon="33.6470156">
<ele>169.72</ele>
<time>2015-05-02T10:46:37Z</time>
</trkpt>
<trkpt lat="34.9904873" lon="33.6470733">
<ele>171.81</ele>
<time>2015-05-02T10:46:41Z</time>
</trkpt>
<trkpt lat="34.9904702" lon="33.6471350">
<ele>172.13</ele>
<time>2015-05-02T10:46:45Z</time>
</trkpt>
<trkpt lat="34.9904792" lon="33.6471995">
<ele>173.40</ele>
<time>2015-05-02T10:46:49Z</time>
</trkpt>
<trkpt lat="34.9904816" lon="33.6472674">
<ele>174.29</ele>
<time>2015-05-02T10:46:53Z</time>
</trkpt>
<trkpt lat="34.9904830" lon="33.6473293">
<ele>174.10</ele>
<time>2015-05-02T10:46:57Z</time>
</trkpt>
<trkpt lat="34.9905035" lon="33.6473877">
<ele>174.21</ele>
<time>2015-05-02T10:47:01Z</time>
</trkpt>
<trkpt lat="34.9905492" lon="33.6474345">
<ele>174.47</ele>
<time>2015-05-02T10:47:05Z</time>
</trkpt>
<trkpt lat="34.9905934" lon="33.6474606">
<ele>174.57</ele>
<time>2015-05-02T10:47:08Z</time>
</trkpt>
<trkpt lat="34.9906386" lon="33.6474689">
<ele>174.84</ele>
<time>2015-05-02T10:47:11Z</time>
</trkpt>
<trkpt lat="34.9906951" lon="33.6474566">
<ele>175.32</ele>
<time>2015-05-02T10:47:15Z</time>
</trkpt>
<trkpt lat="34.9907521" lon="33.6474526">
<ele>175.22</ele>
<time>2015-05-02T10:47:19Z</time>
</trkpt>
<trkpt lat="34.9908092" lon="33.6474602">
<ele>174.84</ele>
<time>2015-05-02T10:47:23Z</time>
</trkpt>
<trkpt lat="34.9908595" lon="33.6474618">
<ele>176.26</ele>
<time>2015-05-02T10:47:27Z</time>
</trkpt>
<trkpt lat="34.9909061" lon="33.6474724">
<ele>178.34</ele>
<time>2015-05-02T10:47:31Z</time>
</trkpt>
<trkpt lat="34.9909556" lon="33.6474930">
<ele>178.47</ele>
<time>2015-05-02T10:47:35Z</time>
</trkpt>
<trkpt lat="34.9910024" lon="33.6475167">
<ele>179.86</ele>
<time>2015-05-02T10:47:39Z</time>
</trkpt>
<trkpt lat="34.9910416" lon="33.6475649">
<ele>180.63</ele>
<time>2015-05-02T10:47:43Z</time>
</trkpt>
<trkpt lat="34.9910296" lon="33.6476325">
<ele>180.24</ele>
<time>2015-05-02T10:47:47Z</time>
</trkpt>
<trkpt lat="34.9910233" lon="33.6476875">
<ele>179.54</ele>
<time>2015-05-02T10:47:50Z</time>
</trkpt>
<trkpt lat="34.9909793" lon="33.6477213">
<ele>179.92</ele>
<time>2015-05-02T10:47:54Z</time>
</trkpt>
<trkpt lat="34.9909343" lon="33.6477176">
<ele>180.63</ele>
<time>2015-05-02T10:47:57Z</time>
</trkpt>
<trkpt lat="34.9908792" lon="33.6477165">
<ele>181.22</ele>
<time>2015-05-02T10:48:00Z</time>
</trkpt>
<trkpt lat="34.9908251" lon="33.6477133">
<ele>181.07</ele>
<time>2015-05-02T10:48:02Z</time>
</trkpt>
<trkpt lat="34.9907664" lon="33.6477115">
<ele>181.78</ele>
<time>2015-05-02T10:48:04Z</time>
</trkpt>
<trkpt lat="34.9907110" lon="33.6477124">
<ele>181.46</ele>
<time>2015-05-02T10:48:06Z</time>
</trkpt>
<trkpt lat="34.9906567" lon="33.6477262">
<ele>181.63</ele>
<time>2015-05-02T10:48:08Z</time>
</trkpt>
<trkpt lat="34.9906034" lon="33.6477517">
<ele>182.42</ele>
<time>2015-05-02T10:48:10Z</time>
</trkpt>
<trkpt lat="34.9905550" lon="33.6477773">
<ele>182.12</ele>
<time>2015-05-02T10:48:12Z</time>
</trkpt>
<trkpt lat="34.9905106" lon="33.6478117">
<ele>182.03</ele>
<time>2015-05-02T10:48:15Z</time>
</trkpt>
<trkpt lat="34.9905486" lon="33.6477778">
<ele>182.02</ele>
<time>2015-05-02T10:48:47Z</time>
</trkpt>
<trkpt lat="34.9905946" lon="33.6477473">
<ele>182.08</ele>
<time>2015-05-02T10:48:51Z</time>
</trkpt>
<trkpt lat="34.9906508" lon="33.6477238">
<ele>182.52</ele>
<time>2015-05-02T10:48:54Z</time>
</trkpt>
<trkpt lat="34.9907134" lon="33.6477146">
<ele>183.83</ele>
<time>2015-05-02T10:48:57Z</time>
</trkpt>
<trkpt lat="34.9907795" lon="33.6477134">
<ele>184.87</ele>
<time>2015-05-02T10:49:00Z</time>
</trkpt>
<trkpt lat="34.9908276" lon="33.6477109">
<ele>184.23</ele>
<time>2015-05-02T10:49:02Z</time>
</trkpt>
<trkpt lat="34.9908784" lon="33.6477053">
<ele>185.57</ele>
<time>2015-05-02T10:49:04Z</time>
</trkpt>
<trkpt lat="34.9909294" lon="33.6477006">
<ele>185.90</ele>
<time>2015-05-02T10:49:06Z</time>
</trkpt>
<trkpt lat="34.9909763" lon="33.6477103">
<ele>185.99</ele>
<time>2015-05-02T10:49:08Z</time>
</trkpt>
<trkpt lat="34.9910127" lon="33.6477735">
<ele>186.14</ele>
<time>2015-05-02T10:49:11Z</time>
</trkpt>
<trkpt lat="34.9910046" lon="33.6478326">
<ele>186.55</ele>
<time>2015-05-02T10:49:13Z</time>
</trkpt>
<trkpt lat="34.9909870" lon="33.6478934">
<ele>186.40</ele>
<time>2015-05-02T10:49:15Z</time>
</trkpt>
<trkpt lat="34.9909699" lon="33.6479661">
<ele>185.36</ele>
<time>2015-05-02T10:49:17Z</time>
</trkpt>
<trkpt lat="34.9909577" lon="33.6480491">
<ele>184.60</ele>
<time>2015-05-02T10:49:19Z</time>
</trkpt>
<trkpt lat="34.9909497" lon="33.6481370">
<ele>183.66</ele>
<time>2015-05-02T10:49:21Z</time>
</trkpt>
<trkpt lat="34.9909452" lon="33.6482242">
<ele>183.43</ele>
<time>2015-05-02T10:49:23Z</time>
</trkpt>
<trkpt lat="34.9909430" lon="33.6483156">
<ele>182.62</ele>
<time>2015-05-02T10:49:25Z</time>
</trkpt>
<trkpt lat="34.9909478" lon="33.6484040">
<ele>181.42</ele>
<time>2015-05-02T10:49:27Z</time>
</trkpt>
<trkpt lat="34.9909548" lon="33.6484922">
<ele>180.37</ele>
<time>2015-05-02T10:49:29Z</time>
</trkpt>
<trkpt lat="34.9909650" lon="33.6485809">
<ele>180.10</ele>
<time>2015-05-02T10:49:31Z</time>
</trkpt>
<trkpt lat="34.9909766" lon="33.6486775">
<ele>179.79</ele>
<time>2015-05-02T10:49:33Z</time>
</trkpt>
<trkpt lat="34.9909828" lon="33.6487784">
<ele>179.46</ele>
<time>2015-05-02T10:49:35Z</time>
</trkpt>
<trkpt lat="34.9909878" lon="33.6488812">
<ele>179.13</ele>
<time>2015-05-02T10:49:37Z</time>
</trkpt>
<trkpt lat="34.9909969" lon="33.6489814">
<ele>178.29</ele>
<time>2015-05-02T10:49:39Z</time>
</trkpt>
<trkpt lat="34.9910049" lon="33.6490366">
<ele>178.15</ele>
<time>2015-05-02T10:49:40Z</time>
</trkpt>
<trkpt lat="34.9910183" lon="33.6491430">
<ele>178.05</ele>
<time>2015-05-02T10:49:42Z</time>
</trkpt>
<trkpt lat="34.9910165" lon="33.6492514">
<ele>177.27</ele>
<time>2015-05-02T10:49:44Z</time>
</trkpt>
<trkpt lat="34.9910037" lon="33.6493548">
<ele>177.08</ele>
<time>2015-05-02T10:49:46Z</time>
</trkpt>
<trkpt lat="34.9910005" lon="33.6494805">
<ele>176.53</ele>
<time>2015-05-02T10:49:48Z</time>
</trkpt>
<trkpt lat="34.9910082" lon="33.6495899">
<ele>176.15</ele>
<time>2015-05-02T10:49:50Z</time>
</trkpt>
<trkpt lat="34.9910052" lon="33.6497021">
<ele>176.05</ele>
<time>2015-05-02T10:49:52Z</time>
</trkpt>
<trkpt lat="34.9910067" lon="33.6498074">
<ele>175.52</ele>
<time>2015-05-02T10:49:54Z</time>
</trkpt>
<trkpt lat="34.9910018" lon="33.6499177">
<ele>175.14</ele>
<time>2015-05-02T10:49:56Z</time>
</trkpt>
<trkpt lat="34.9910080" lon="33.6499738">
<ele>175.08</ele>
<time>2015-05-02T10:49:57Z</time>
</trkpt>
<trkpt lat="34.9910067" lon="33.6500792">
<ele>175.03</ele>
<time>2015-05-02T10:49:59Z</time>
</trkpt>
<trkpt lat="34.9910044" lon="33.6501690">
<ele>175.02</ele>
<time>2015-05-02T10:50:01Z</time>
</trkpt>
<trkpt lat="34.9910006" lon="33.6502279">
<ele>175.20</ele>
<time>2015-05-02T10:50:10Z</time>
</trkpt>
<trkpt lat="34.9910179" lon="33.6501765">
<ele>178.02</ele>
<time>2015-05-02T11:01:51Z</time>
</trkpt>
<trkpt lat="34.9910296" lon="33.6501041">
<ele>177.14</ele>
<time>2015-05-02T11:01:55Z</time>
</trkpt>
<trkpt lat="34.9910503" lon="33.6500289">
<ele>177.03</ele>
<time>2015-05-02T11:01:58Z</time>
</trkpt>
<trkpt lat="34.9910527" lon="33.6499684">
<ele>177.02</ele>
<time>2015-05-02T11:02:00Z</time>
</trkpt>
<trkpt lat="34.9910441" lon="33.6499096">
<ele>177.52</ele>
<time>2015-05-02T11:02:02Z</time>
</trkpt>
<trkpt lat="34.9910355" lon="33.6498509">
<ele>177.89</ele>
<time>2015-05-02T11:02:04Z</time>
</trkpt>
<trkpt lat="34.9910314" lon="33.6497940">
<ele>177.48</ele>
<time>2015-05-02T11:02:06Z</time>
</trkpt>
<trkpt lat="34.9910278" lon="33.6497158">
<ele>177.20</ele>
<time>2015-05-02T11:02:09Z</time>
</trkpt>
<trkpt lat="34.9910346" lon="33.6496430">
<ele>176.16</ele>
<time>2015-05-02T11:02:12Z</time>
</trkpt>
<trkpt lat="34.9910248" lon="33.6495669">
<ele>176.78</ele>
<time>2015-05-02T11:02:15Z</time>
</trkpt>
<trkpt lat="34.9910129" lon="33.6494919">
<ele>176.99</ele>
<time>2015-05-02T11:02:18Z</time>
</trkpt>
<trkpt lat="34.9910053" lon="33.6494185">
<ele>177.01</ele>
<time>2015-05-02T11:02:21Z</time>
</trkpt>
<trkpt lat="34.9910216" lon="33.6493430">
<ele>177.02</ele>
<time>2015-05-02T11:02:24Z</time>
</trkpt>
<trkpt lat="34.9910378" lon="33.6492692">
<ele>176.14</ele>
<time>2015-05-02T11:02:27Z</time>
</trkpt>
<trkpt lat="34.9910394" lon="33.6492078">
<ele>176.05</ele>
<time>2015-05-02T11:02:29Z</time>
</trkpt>
<trkpt lat="34.9910327" lon="33.6491506">
<ele>176.02</ele>
<time>2015-05-02T11:02:31Z</time>
</trkpt>
<trkpt lat="34.9910046" lon="33.6491054">
<ele>177.27</ele>
<time>2015-05-02T11:02:51Z</time>
</trkpt>
<trkpt lat="34.9909949" lon="33.6490385">
<ele>177.97</ele>
<time>2015-05-02T11:02:55Z</time>
</trkpt>
<trkpt lat="34.9910004" lon="33.6489585">
<ele>175.89</ele>
<time>2015-05-02T11:02:58Z</time>
</trkpt>
<trkpt lat="34.9910055" lon="33.6489021">
<ele>175.23</ele>
<time>2015-05-02T11:03:00Z</time>
</trkpt>
<trkpt lat="34.9910068" lon="33.6488414">
<ele>174.57</ele>
<time>2015-05-02T11:03:02Z</time>
</trkpt>
<trkpt lat="34.9910073" lon="33.6487767">
<ele>174.15</ele>
<time>2015-05-02T11:03:04Z</time>
</trkpt>
<trkpt lat="34.9910024" lon="33.6487115">
<ele>174.05</ele>
<time>2015-05-02T11:03:06Z</time>
</trkpt>
<trkpt lat="34.9909948" lon="33.6486478">
<ele>173.52</ele>
<time>2015-05-02T11:03:08Z</time>
</trkpt>
<trkpt lat="34.9909901" lon="33.6485798">
<ele>173.64</ele>
<time>2015-05-02T11:03:10Z</time>
</trkpt>
<trkpt lat="34.9909865" lon="33.6485109">
<ele>175.17</ele>
<time>2015-05-02T11:03:12Z</time>
</trkpt>
<trkpt lat="34.9909865" lon="33.6484418">
<ele>175.56</ele>
<time>2015-05-02T11:03:14Z</time>
</trkpt>
<trkpt lat="34.9909858" lon="33.6483680">
<ele>176.40</ele>
<time>2015-05-02T11:03:16Z</time>
</trkpt>
<trkpt lat="34.9909877" lon="33.6482956">
<ele>177.11</ele>
<time>2015-05-02T11:03:18Z</time>
</trkpt>
<trkpt lat="34.9909888" lon="33.6482223">
<ele>176.79</ele>
<time>2015-05-02T11:03:20Z</time>
</trkpt>
<trkpt lat="34.9909916" lon="33.6481459">
<ele>176.96</ele>
<time>2015-05-02T11:03:22Z</time>
</trkpt>
<trkpt lat="34.9909989" lon="33.6480728">
<ele>177.75</ele>
<time>2015-05-02T11:03:24Z</time>
</trkpt>
<trkpt lat="34.9910094" lon="33.6480005">
<ele>177.95</ele>
<time>2015-05-02T11:03:26Z</time>
</trkpt>
<trkpt lat="34.9910191" lon="33.6479271">
<ele>178.75</ele>
<time>2015-05-02T11:03:28Z</time>
</trkpt>
<trkpt lat="34.9910284" lon="33.6478535">
<ele>179.45</ele>
<time>2015-05-02T11:03:30Z</time>
</trkpt>
<trkpt lat="34.9910368" lon="33.6477806">
<ele>179.87</ele>
<time>2015-05-02T11:03:32Z</time>
</trkpt>
<trkpt lat="34.9910498" lon="33.6477176">
<ele>180.48</ele>
<time>2015-05-02T11:03:34Z</time>
</trkpt>
<trkpt lat="34.9910660" lon="33.6476542">
<ele>180.88</ele>
<time>2015-05-02T11:03:36Z</time>
</trkpt>
<trkpt lat="34.9910830" lon="33.6475936">
<ele>180.98</ele>
<time>2015-05-02T11:03:38Z</time>
</trkpt>
<trkpt lat="34.9910935" lon="33.6475370">
<ele>180.26</ele>
<time>2015-05-02T11:03:40Z</time>
</trkpt>
<trkpt lat="34.9911167" lon="33.6474799">
<ele>180.92</ele>
<time>2015-05-02T11:03:43Z</time>
</trkpt>
<trkpt lat="34.9911677" lon="33.6474499">
<ele>181.25</ele>
<time>2015-05-02T11:03:46Z</time>
</trkpt>
<trkpt lat="34.9912101" lon="33.6474314">
<ele>181.58</ele>
<time>2015-05-02T11:03:48Z</time>
</trkpt>
<trkpt lat="34.9912718" lon="33.6474108">
<ele>181.96</ele>
<time>2015-05-02T11:03:51Z</time>
</trkpt>
<trkpt lat="34.9913254" lon="33.6473910">
<ele>178.52</ele>
<time>2015-05-02T11:04:48Z</time>
</trkpt>
<trkpt lat="34.9913662" lon="33.6473670">
<ele>177.77</ele>
<time>2015-05-02T11:04:49Z</time>
</trkpt>
<trkpt lat="34.9914494" lon="33.6473179">
<ele>176.39</ele>
<time>2015-05-02T11:04:50Z</time>
</trkpt>
<trkpt lat="34.9915084" lon="33.6472941">
<ele>175.20</ele>
<time>2015-05-02T11:04:51Z</time>
</trkpt>
<trkpt lat="34.9915875" lon="33.6472673">
<ele>174.11</ele>
<time>2015-05-02T11:04:52Z</time>
</trkpt>
<trkpt lat="34.9916668" lon="33.6472461">
<ele>173.56</ele>
<time>2015-05-02T11:04:53Z</time>
</trkpt>
<trkpt lat="34.9917446" lon="33.6472315">
<ele>173.79</ele>
<time>2015-05-02T11:04:54Z</time>
</trkpt>
<trkpt lat="34.9918244" lon="33.6472077">
<ele>173.90</ele>
<time>2015-05-02T11:04:55Z</time>
</trkpt>
<trkpt lat="34.9919132" lon="33.6471922">
<ele>173.46</ele>
<time>2015-05-02T11:04:56Z</time>
</trkpt>
<trkpt lat="34.9919899" lon="33.6471649">
<ele>172.74</ele>
<time>2015-05-02T11:04:57Z</time>
</trkpt>
<trkpt lat="34.9920697" lon="33.6471414">
<ele>172.38</ele>
<time>2015-05-02T11:04:58Z</time>
</trkpt>
<trkpt lat="34.9921312" lon="33.6471207">
<ele>172.20</ele>
<time>2015-05-02T11:04:59Z</time>
</trkpt>
<trkpt lat="34.9921881" lon="33.6471128">
<ele>171.61</ele>
<time>2015-05-02T11:05:00Z</time>
</trkpt>
<trkpt lat="34.9922606" lon="33.6470930">
<ele>171.41</ele>
<time>2015-05-02T11:05:02Z</time>
</trkpt>
<trkpt lat="34.9923220" lon="33.6470748">
<ele>170.37</ele>
<time>2015-05-02T11:05:04Z</time>
</trkpt>
<trkpt lat="34.9923706" lon="33.6470599">
<ele>170.10</ele>
<time>2015-05-02T11:05:06Z</time>
</trkpt>
<trkpt lat="34.9924167" lon="33.6470262">
<ele>169.29</ele>
<time>2015-05-02T11:05:08Z</time>
</trkpt>
<trkpt lat="34.9924739" lon="33.6470163">
<ele>167.17</ele>
<time>2015-05-02T11:05:11Z</time>
</trkpt>
<trkpt lat="34.9925416" lon="33.6470025">
<ele>165.06</ele>
<time>2015-05-02T11:05:13Z</time>
</trkpt>
<trkpt lat="34.9926008" lon="33.6469791">
<ele>163.54</ele>
<time>2015-05-02T11:05:14Z</time>
</trkpt>
<trkpt lat="34.9926611" lon="33.6469466">
<ele>161.28</ele>
<time>2015-05-02T11:05:15Z</time>
</trkpt>
<trkpt lat="34.9927074" lon="33.6469300">
<ele>160.15</ele>
<time>2015-05-02T11:05:16Z</time>
</trkpt>
<trkpt lat="34.9927515" lon="33.6469162">
<ele>159.58</ele>
<time>2015-05-02T11:05:17Z</time>
</trkpt>
<trkpt lat="34.9927988" lon="33.6469011">
<ele>158.80</ele>
<time>2015-05-02T11:05:18Z</time>
</trkpt>
<trkpt lat="34.9928740" lon="33.6468812">
<ele>158.21</ele>
<time>2015-05-02T11:05:20Z</time>
</trkpt>
<trkpt lat="34.9929230" lon="33.6468652">
<ele>157.56</ele>
<time>2015-05-02T11:05:22Z</time>
</trkpt>
<trkpt lat="34.9930007" lon="33.6468433">
<ele>155.90</ele>
<time>2015-05-02T11:05:24Z</time>
</trkpt>
<trkpt lat="34.9930840" lon="33.6468211">
<ele>154.49</ele>
<time>2015-05-02T11:05:26Z</time>
</trkpt>
<trkpt lat="34.9931306" lon="33.6468070">
<ele>154.25</ele>
<time>2015-05-02T11:05:27Z</time>
</trkpt>
<trkpt lat="34.9931817" lon="33.6467815">
<ele>154.13</ele>
<time>2015-05-02T11:05:28Z</time>
</trkpt>
<trkpt lat="34.9932334" lon="33.6467600">
<ele>153.57</ele>
<time>2015-05-02T11:05:29Z</time>
</trkpt>
<trkpt lat="34.9932842" lon="33.6467358">
<ele>153.30</ele>
<time>2015-05-02T11:05:30Z</time>
</trkpt>
<trkpt lat="34.9933318" lon="33.6467186">
<ele>153.66</ele>
<time>2015-05-02T11:05:31Z</time>
</trkpt>
<trkpt lat="34.9933786" lon="33.6467063">
<ele>154.34</ele>
<time>2015-05-02T11:05:32Z</time>
</trkpt>
<trkpt lat="34.9934297" lon="33.6467031">
<ele>154.68</ele>
<time>2015-05-02T11:05:33Z</time>
</trkpt>
<trkpt lat="34.9935152" lon="33.6466716">
<ele>155.18</ele>
<time>2015-05-02T11:05:35Z</time>
</trkpt>
<trkpt lat="34.9935620" lon="33.6466535">
<ele>155.81</ele>
<time>2015-05-02T11:05:37Z</time>
</trkpt>
<trkpt lat="34.9936108" lon="33.6466282">
<ele>157.25</ele>
<time>2015-05-02T11:05:41Z</time>
</trkpt>
<trkpt lat="34.9936585" lon="33.6466331">
<ele>160.28</ele>
<time>2015-05-02T11:05:45Z</time>
</trkpt>
<trkpt lat="34.9937181" lon="33.6466304">
<ele>160.05</ele>
<time>2015-05-02T11:05:48Z</time>
</trkpt>
<trkpt lat="34.9937680" lon="33.6466294">
<ele>160.02</ele>
<time>2015-05-02T11:05:51Z</time>
</trkpt>
<trkpt lat="34.9938233" lon="33.6466212">
<ele>161.70</ele>
<time>2015-05-02T11:05:55Z</time>
</trkpt>
<trkpt lat="34.9938665" lon="33.6465982">
<ele>161.98</ele>
<time>2015-05-02T11:05:58Z</time>
</trkpt>
<trkpt lat="34.9939226" lon="33.6465772">
<ele>161.14</ele>
<time>2015-05-02T11:06:02Z</time>
</trkpt>
<trkpt lat="34.9939781" lon="33.6465535">
<ele>162.84</ele>
<time>2015-05-02T11:06:06Z</time>
</trkpt>
<trkpt lat="34.9940241" lon="33.6465357">
<ele>162.99</ele>
<time>2015-05-02T11:06:09Z</time>
</trkpt>
<trkpt lat="34.9940726" lon="33.6465218">
<ele>163.26</ele>
<time>2015-05-02T11:06:12Z</time>
</trkpt>
<trkpt lat="34.9941187" lon="33.6465011">
<ele>163.55</ele>
<time>2015-05-02T11:06:15Z</time>
</trkpt>
<trkpt lat="34.9941672" lon="33.6464819">
<ele>163.96</ele>
<time>2015-05-02T11:06:18Z</time>
</trkpt>
<trkpt lat="34.9942135" lon="33.6464595">
<ele>164.13</ele>
<time>2015-05-02T11:06:21Z</time>
</trkpt>
<trkpt lat="34.9942695" lon="33.6464432">
<ele>163.78</ele>
<time>2015-05-02T11:06:24Z</time>
</trkpt>
<trkpt lat="34.9943323" lon="33.6464234">
<ele>163.11</ele>
<time>2015-05-02T11:06:27Z</time>
</trkpt>
<trkpt lat="34.9943931" lon="33.6463943">
<ele>163.53</ele>
<time>2015-05-02T11:06:30Z</time>
</trkpt>
<trkpt lat="34.9944399" lon="33.6463719">
<ele>162.64</ele>
<time>2015-05-02T11:06:32Z</time>
</trkpt>
<trkpt lat="34.9944850" lon="33.6463421">
<ele>162.17</ele>
<time>2015-05-02T11:06:34Z</time>
</trkpt>
<trkpt lat="34.9945268" lon="33.6463033">
<ele>161.31</ele>
<time>2015-05-02T11:06:36Z</time>
</trkpt>
<trkpt lat="34.9945671" lon="33.6462695">
<ele>160.34</ele>
<time>2015-05-02T11:06:38Z</time>
</trkpt>
<trkpt lat="34.9946128" lon="33.6462409">
<ele>159.35</ele>
<time>2015-05-02T11:06:40Z</time>
</trkpt>
<trkpt lat="34.9946689" lon="33.6462112">
<ele>158.35</ele>
<time>2015-05-02T11:06:42Z</time>
</trkpt>
<trkpt lat="34.9947812" lon="33.6461495">
<ele>157.35</ele>
<time>2015-05-02T11:06:44Z</time>
</trkpt>
<trkpt lat="34.9948224" lon="33.6461201">
<ele>156.68</ele>
<time>2015-05-02T11:06:45Z</time>
</trkpt>
<trkpt lat="34.9948798" lon="33.6460940">
<ele>156.35</ele>
<time>2015-05-02T11:06:46Z</time>
</trkpt>
<trkpt lat="34.9949306" lon="33.6460757">
<ele>155.68</ele>
<time>2015-05-02T11:06:47Z</time>
</trkpt>
<trkpt lat="34.9949892" lon="33.6460520">
<ele>154.85</ele>
<time>2015-05-02T11:06:48Z</time>
</trkpt>
<trkpt lat="34.9950354" lon="33.6460273">
<ele>154.43</ele>
<time>2015-05-02T11:06:49Z</time>
</trkpt>
<trkpt lat="34.9950859" lon="33.6460005">
<ele>154.22</ele>
<time>2015-05-02T11:06:50Z</time>
</trkpt>
<trkpt lat="34.9951293" lon="33.6459778">
<ele>154.12</ele>
<time>2015-05-02T11:06:51Z</time>
</trkpt>
<trkpt lat="34.9951800" lon="33.6459543">
<ele>154.07</ele>
<time>2015-05-02T11:06:52Z</time>
</trkpt>
<trkpt lat="34.9952552" lon="33.6459093">
<ele>153.28</ele>
<time>2015-05-02T11:06:54Z</time>
</trkpt>
<trkpt lat="34.9952962" lon="33.6458811">
<ele>153.15</ele>
<time>2015-05-02T11:06:55Z</time>
</trkpt>
<trkpt lat="34.9953530" lon="33.6458532">
<ele>152.58</ele>
<time>2015-05-02T11:06:56Z</time>
</trkpt>
<trkpt lat="34.9954028" lon="33.6458313">
<ele>152.30</ele>
<time>2015-05-02T11:06:57Z</time>
</trkpt>
<trkpt lat="34.9954736" lon="33.6458174">
<ele>153.34</ele>
<time>2015-05-02T11:06:59Z</time>
</trkpt>
<trkpt lat="34.9955414" lon="33.6458133">
<ele>154.60</ele>
<time>2015-05-02T11:07:01Z</time>
</trkpt>
<trkpt lat="34.9955919" lon="33.6458018">
<ele>155.66</ele>
<time>2015-05-02T11:07:03Z</time>
</trkpt>
<trkpt lat="34.9956564" lon="33.6458017">
<ele>155.97</ele>
<time>2015-05-02T11:07:06Z</time>
</trkpt>
<trkpt lat="34.9957190" lon="33.6457818">
<ele>154.50</ele>
<time>2015-05-02T11:07:08Z</time>
</trkpt>
<trkpt lat="34.9957648" lon="33.6457581">
<ele>155.14</ele>
<time>2015-05-02T11:07:10Z</time>
</trkpt>
<trkpt lat="34.9958084" lon="33.6457280">
<ele>155.80</ele>
<time>2015-05-02T11:07:12Z</time>
</trkpt>
<trkpt lat="34.9958512" lon="33.6457038">
<ele>155.71</ele>
<time>2015-05-02T11:07:14Z</time>
</trkpt>
<trkpt lat="34.9959074" lon="33.6456789">
<ele>155.98</ele>
<time>2015-05-02T11:07:17Z</time>
</trkpt>
<trkpt lat="34.9959541" lon="33.6456575">
<ele>155.14</ele>
<time>2015-05-02T11:07:20Z</time>
</trkpt>
<trkpt lat="34.9959973" lon="33.6456356">
<ele>155.03</ele>
<time>2015-05-02T11:07:23Z</time>
</trkpt>
<trkpt lat="34.9960430" lon="33.6456268">
<ele>153.64</ele>
<time>2015-05-02T11:07:26Z</time>
</trkpt>
<trkpt lat="34.9960971" lon="33.6456396">
<ele>153.93</ele>
<time>2015-05-02T11:07:30Z</time>
</trkpt>
<trkpt lat="34.9961484" lon="33.6456590">
<ele>154.76</ele>
<time>2015-05-02T11:07:34Z</time>
</trkpt>
<trkpt lat="34.9961950" lon="33.6456329">
<ele>157.31</ele>
<time>2015-05-02T11:07:38Z</time>
</trkpt>
<trkpt lat="34.9962443" lon="33.6456197">
<ele>160.28</ele>
<time>2015-05-02T11:07:42Z</time>
</trkpt>
<trkpt lat="34.9962917" lon="33.6456061">
<ele>161.53</ele>
<time>2015-05-02T11:07:46Z</time>
</trkpt>
<trkpt lat="34.9963368" lon="33.6455943">
<ele>162.86</ele>
<time>2015-05-02T11:07:50Z</time>
</trkpt>
<trkpt lat="34.9963908" lon="33.6455770">
<ele>161.82</ele>
<time>2015-05-02T11:07:54Z</time>
</trkpt>
<trkpt lat="34.9964364" lon="33.6455730">
<ele>162.12</ele>
<time>2015-05-02T11:07:57Z</time>
</trkpt>
<trkpt lat="34.9964824" lon="33.6455603">
<ele>160.40</ele>
<time>2015-05-02T11:08:00Z</time>
</trkpt>
<trkpt lat="34.9965359" lon="33.6455463">
<ele>160.10</ele>
<time>2015-05-02T11:08:04Z</time>
</trkpt>
<trkpt lat="34.9965880" lon="33.6455354">
<ele>162.65</ele>
<time>2015-05-02T11:08:08Z</time>
</trkpt>
<trkpt lat="34.9966452" lon="33.6455345">
<ele>165.31</ele>
<time>2015-05-02T11:08:12Z</time>
</trkpt>
<trkpt lat="34.9966911" lon="33.6455176">
<ele>166.41</ele>
<time>2015-05-02T11:08:16Z</time>
</trkpt>
<trkpt lat="34.9967372" lon="33.6455006">
<ele>166.10</ele>
<time>2015-05-02T11:08:20Z</time>
</trkpt>
<trkpt lat="34.9967883" lon="33.6454904">
<ele>168.15</ele>
<time>2015-05-02T11:08:24Z</time>
</trkpt>
<trkpt lat="34.9968381" lon="33.6454701">
<ele>169.46</ele>
<time>2015-05-02T11:08:28Z</time>
</trkpt>
<trkpt lat="34.9968944" lon="33.6454505">
<ele>169.98</ele>
<time>2015-05-02T11:08:32Z</time>
</trkpt>
<trkpt lat="34.9969504" lon="33.6454329">
<ele>171.39</ele>
<time>2015-05-02T11:08:36Z</time>
</trkpt>
<trkpt lat="34.9970079" lon="33.6454115">
<ele>172.48</ele>
<time>2015-05-02T11:08:40Z</time>
</trkpt>
<trkpt lat="34.9970546" lon="33.6454055">
<ele>172.95</ele>
<time>2015-05-02T11:08:43Z</time>
</trkpt>
<trkpt lat="34.9971022" lon="33.6453947">
<ele>173.51</ele>
<time>2015-05-02T11:08:46Z</time>
</trkpt>
<trkpt lat="34.9971466" lon="33.6453827">
<ele>175.33</ele>
<time>2015-05-02T11:08:49Z</time>
</trkpt>
<trkpt lat="34.9972011" lon="33.6453569">
<ele>176.72</ele>
<time>2015-05-02T11:08:53Z</time>
</trkpt>
<trkpt lat="34.9972570" lon="33.6453384">
<ele>176.87</ele>
<time>2015-05-02T11:08:57Z</time>
</trkpt>
<trkpt lat="34.9973038" lon="33.6453606">
<ele>176.69</ele>
<time>2015-05-02T11:09:01Z</time>
</trkpt>
<trkpt lat="34.9972986" lon="33.6453045">
<ele>176.89</ele>
<time>2015-05-02T11:09:11Z</time>
</trkpt>
<trkpt lat="34.9973072" lon="33.6452405">
<ele>176.51</ele>
<time>2015-05-02T11:09:15Z</time>
</trkpt>
<trkpt lat="34.9973302" lon="33.6451736">
<ele>173.42</ele>
<time>2015-05-02T11:09:19Z</time>
</trkpt>
<trkpt lat="34.9973620" lon="33.6451008">
<ele>171.12</ele>
<time>2015-05-02T11:09:21Z</time>
</trkpt>
<trkpt lat="34.9973821" lon="33.6450466">
<ele>170.07</ele>
<time>2015-05-02T11:09:22Z</time>
</trkpt>
<trkpt lat="34.9974102" lon="33.6449691">
<ele>169.54</ele>
<time>2015-05-02T11:09:23Z</time>
</trkpt>
<trkpt lat="34.9974265" lon="33.6449130">
<ele>168.78</ele>
<time>2015-05-02T11:09:24Z</time>
</trkpt>
<trkpt lat="34.9974552" lon="33.6448492">
<ele>168.46</ele>
<time>2015-05-02T11:09:26Z</time>
</trkpt>
<trkpt lat="34.9975277" lon="33.6448525">
<ele>166.82</ele>
<time>2015-05-02T11:09:29Z</time>
</trkpt>
<trkpt lat="34.9975786" lon="33.6448897">
<ele>165.47</ele>
<time>2015-05-02T11:09:31Z</time>
</trkpt>
<trkpt lat="34.9976222" lon="33.6449356">
<ele>165.13</ele>
<time>2015-05-02T11:09:33Z</time>
</trkpt>
<trkpt lat="34.9976605" lon="33.6449715">
<ele>164.54</ele>
<time>2015-05-02T11:09:35Z</time>
</trkpt>
<trkpt lat="34.9976976" lon="33.6450084">
<ele>163.65</ele>
<time>2015-05-02T11:09:37Z</time>
</trkpt>
<trkpt lat="34.9977442" lon="33.6450598">
<ele>161.47</ele>
<time>2015-05-02T11:09:40Z</time>
</trkpt>
<trkpt lat="34.9977830" lon="33.6451200">
<ele>160.45</ele>
<time>2015-05-02T11:09:43Z</time>
</trkpt>
<trkpt lat="34.9978028" lon="33.6451781">
<ele>159.12</ele>
<time>2015-05-02T11:09:45Z</time>
</trkpt>
<trkpt lat="34.9978129" lon="33.6452439">
<ele>158.29</ele>
<time>2015-05-02T11:09:47Z</time>
</trkpt>
<trkpt lat="34.9978148" lon="33.6453162">
<ele>157.34</ele>
<time>2015-05-02T11:09:49Z</time>
</trkpt>
<trkpt lat="34.9978175" lon="33.6453757">
<ele>157.85</ele>
<time>2015-05-02T11:09:51Z</time>
</trkpt>
<trkpt lat="34.9978715" lon="33.6453488">
<ele>156.62</ele>
<time>2015-05-02T11:09:54Z</time>
</trkpt>
<trkpt lat="34.9978865" lon="33.6452944">
<ele>154.92</ele>
<time>2015-05-02T11:09:56Z</time>
</trkpt>
<trkpt lat="34.9978964" lon="33.6452371">
<ele>153.49</ele>
<time>2015-05-02T11:09:58Z</time>
</trkpt>
<trkpt lat="34.9979031" lon="33.6451669">
<ele>151.88</ele>
<time>2015-05-02T11:10:00Z</time>
</trkpt>
<trkpt lat="34.9979140" lon="33.6451042">
<ele>150.45</ele>
<time>2015-05-02T11:10:01Z</time>
</trkpt>
<trkpt lat="34.9979376" lon="33.6449991">
<ele>148.73</ele>
<time>2015-05-02T11:10:02Z</time>
</trkpt>
<trkpt lat="34.9979641" lon="33.6449478">
<ele>147.37</ele>
<time>2015-05-02T11:10:03Z</time>
</trkpt>
<trkpt lat="34.9979923" lon="33.6448918">
<ele>146.70</ele>
<time>2015-05-02T11:10:04Z</time>
</trkpt>
<trkpt lat="34.9980115" lon="33.6448348">
<ele>145.36</ele>
<time>2015-05-02T11:10:05Z</time>
</trkpt>
<trkpt lat="34.9980373" lon="33.6447836">
<ele>144.69</ele>
<time>2015-05-02T11:10:06Z</time>
</trkpt>
<trkpt lat="34.9980780" lon="33.6446839">
<ele>142.43</ele>
<time>2015-05-02T11:10:08Z</time>
</trkpt>
<trkpt lat="34.9981318" lon="33.6445949">
<ele>140.37</ele>
<time>2015-05-02T11:10:10Z</time>
</trkpt>
<trkpt lat="34.9981599" lon="33.6445509">
<ele>139.19</ele>
<time>2015-05-02T11:10:11Z</time>
</trkpt>
<trkpt lat="34.9982011" lon="33.6445117">
<ele>138.10</ele>
<time>2015-05-02T11:10:12Z</time>
</trkpt>
<trkpt lat="34.9982456" lon="33.6444710">
<ele>137.06</ele>
<time>2015-05-02T11:10:13Z</time>
</trkpt>
<trkpt lat="34.9982855" lon="33.6444345">
<ele>136.54</ele>
<time>2015-05-02T11:10:14Z</time>
</trkpt>
<trkpt lat="34.9983497" lon="33.6444070">
<ele>135.28</ele>
<time>2015-05-02T11:10:15Z</time>
</trkpt>
<trkpt lat="34.9983995" lon="33.6443639">
<ele>134.15</ele>
<time>2015-05-02T11:10:16Z</time>
</trkpt>
<trkpt lat="34.9984470" lon="33.6443491">
<ele>133.58</ele>
<time>2015-05-02T11:10:17Z</time>
</trkpt>
<trkpt lat="34.9985015" lon="33.6443390">
<ele>133.30</ele>
<time>2015-05-02T11:10:18Z</time>
</trkpt>
<trkpt lat="34.9985520" lon="33.6443437">
<ele>133.16</ele>
<time>2015-05-02T11:10:19Z</time>
</trkpt>
<trkpt lat="34.9986050" lon="33.6443439">
<ele>133.09</ele>
<time>2015-05-02T11:10:20Z</time>
</trkpt>
<trkpt lat="34.9986609" lon="33.6443692">
<ele>132.05</ele>
<time>2015-05-02T11:10:21Z</time>
</trkpt>
<trkpt lat="34.9987057" lon="33.6443785">
<ele>131.53</ele>
<time>2015-05-02T11:10:22Z</time>
</trkpt>
<trkpt lat="34.9987639" lon="33.6443751">
<ele>131.27</ele>
<time>2015-05-02T11:10:23Z</time>
</trkpt>
<trkpt lat="34.9988151" lon="33.6443630">
<ele>130.65</ele>
<time>2015-05-02T11:10:24Z</time>
</trkpt>
<trkpt lat="34.9988687" lon="33.6443295">
<ele>130.17</ele>
<time>2015-05-02T11:10:26Z</time>
</trkpt>
<trkpt lat="34.9989077" lon="33.6442764">
<ele>128.79</ele>
<time>2015-05-02T11:10:29Z</time>
</trkpt>
<trkpt lat="34.9989517" lon="33.6442066">
<ele>126.51</ele>
<time>2015-05-02T11:10:48Z</time>
</trkpt>
<trkpt lat="34.9989893" lon="33.6441524">
<ele>125.64</ele>
<time>2015-05-02T11:10:50Z</time>
</trkpt>
<trkpt lat="34.9990422" lon="33.6441250">
<ele>125.33</ele>
<time>2015-05-02T11:10:51Z</time>
</trkpt>
<trkpt lat="34.9990872" lon="33.6441208">
<ele>124.67</ele>
<time>2015-05-02T11:10:52Z</time>
</trkpt>
<trkpt lat="34.9991373" lon="33.6441287">
<ele>124.34</ele>
<time>2015-05-02T11:10:53Z</time>
</trkpt>
<trkpt lat="34.9991976" lon="33.6441525">
<ele>124.18</ele>
<time>2015-05-02T11:10:54Z</time>
</trkpt>
<trkpt lat="34.9992454" lon="33.6441532">
<ele>124.10</ele>
<time>2015-05-02T11:10:55Z</time>
</trkpt>
<trkpt lat="34.9993298" lon="33.6441687">
<ele>123.29</ele>
<time>2015-05-02T11:10:57Z</time>
</trkpt>
<trkpt lat="34.9994006" lon="33.6441970">
<ele>122.33</ele>
<time>2015-05-02T11:10:59Z</time>
</trkpt>
<trkpt lat="34.9994438" lon="33.6442513">
<ele>121.60</ele>
<time>2015-05-02T11:11:01Z</time>
</trkpt>
<trkpt lat="34.9994600" lon="33.6443319">
<ele>119.91</ele>
<time>2015-05-02T11:11:03Z</time>
</trkpt>
<trkpt lat="34.9994632" lon="33.6444352">
<ele>118.24</ele>
<time>2015-05-02T11:11:05Z</time>
</trkpt>
<trkpt lat="34.9994608" lon="33.6445057">
<ele>117.63</ele>
<time>2015-05-02T11:11:06Z</time>
</trkpt>
<trkpt lat="34.9994532" lon="33.6446070">
<ele>116.42</ele>
<time>2015-05-02T11:11:08Z</time>
</trkpt>
<trkpt lat="34.9994340" lon="33.6446672">
<ele>115.72</ele>
<time>2015-05-02T11:11:09Z</time>
</trkpt>
<trkpt lat="34.9994138" lon="33.6447179">
<ele>114.87</ele>
<time>2015-05-02T11:11:10Z</time>
</trkpt>
<trkpt lat="34.9993897" lon="33.6447809">
<ele>114.44</ele>
<time>2015-05-02T11:11:11Z</time>
</trkpt>
<trkpt lat="34.9993622" lon="33.6448423">
<ele>113.23</ele>
<time>2015-05-02T11:11:12Z</time>
</trkpt>
<trkpt lat="34.9993374" lon="33.6448926">
<ele>112.12</ele>
<time>2015-05-02T11:11:13Z</time>
</trkpt>
<trkpt lat="34.9993019" lon="33.6449478">
<ele>111.57</ele>
<time>2015-05-02T11:11:14Z</time>
</trkpt>
<trkpt lat="34.9992384" lon="33.6450125">
<ele>109.90</ele>
<time>2015-05-02T11:11:16Z</time>
</trkpt>
<trkpt lat="34.9991794" lon="33.6450749">
<ele>108.74</ele>
<time>2015-05-02T11:11:18Z</time>
</trkpt>
<trkpt lat="34.9991415" lon="33.6451136">
<ele>107.88</ele>
<time>2015-05-02T11:11:19Z</time>
</trkpt>
<trkpt lat="34.9991048" lon="33.6451579">
<ele>107.45</ele>
<time>2015-05-02T11:11:20Z</time>
</trkpt>
<trkpt lat="34.9990402" lon="33.6452566">
<ele>105.12</ele>
<time>2015-05-02T11:11:22Z</time>
</trkpt>
<trkpt lat="34.9990178" lon="33.6453127">
<ele>104.57</ele>
<time>2015-05-02T11:11:23Z</time>
</trkpt>
<trkpt lat="34.9990069" lon="33.6453738">
<ele>104.29</ele>
<time>2015-05-02T11:11:24Z</time>
</trkpt>
<trkpt lat="34.9990102" lon="33.6454403">
<ele>104.15</ele>
<time>2015-05-02T11:11:25Z</time>
</trkpt>
<trkpt lat="34.9990392" lon="33.6454877">
<ele>104.09</ele>
<time>2015-05-02T11:11:26Z</time>
</trkpt>
<trkpt lat="34.9990587" lon="33.6455420">
<ele>104.05</ele>
<time>2015-05-02T11:11:27Z</time>
</trkpt>
<trkpt lat="34.9990810" lon="33.6455957">
<ele>103.53</ele>
<time>2015-05-02T11:11:28Z</time>
</trkpt>
<trkpt lat="34.9991260" lon="33.6456929">
<ele>102.65</ele>
<time>2015-05-02T11:11:30Z</time>
</trkpt>
<trkpt lat="34.9991757" lon="33.6457810">
<ele>101.67</ele>
<time>2015-05-02T11:11:32Z</time>
</trkpt>
<trkpt lat="34.9992000" lon="33.6458334">
<ele>101.34</ele>
<time>2015-05-02T11:11:33Z</time>
</trkpt>
<trkpt lat="34.9992317" lon="33.6459240">
<ele>101.10</ele>
<time>2015-05-02T11:11:35Z</time>
</trkpt>
<trkpt lat="34.9992655" lon="33.6459908">
<ele>101.04</ele>
<time>2015-05-02T11:11:37Z</time>
</trkpt>
<trkpt lat="34.9992983" lon="33.6460510">
<ele>101.02</ele>
<time>2015-05-02T11:11:39Z</time>
</trkpt>
<trkpt lat="34.9993277" lon="33.6461079">
<ele>101.52</ele>
<time>2015-05-02T11:11:41Z</time>
</trkpt>
<trkpt lat="34.9993720" lon="33.6461668">
<ele>101.08</ele>
<time>2015-05-02T11:11:44Z</time>
</trkpt>
<trkpt lat="34.9994092" lon="33.6462062">
<ele>101.78</ele>
<time>2015-05-02T11:11:46Z</time>
</trkpt>
<trkpt lat="34.9994681" lon="33.6462448">
<ele>101.46</ele>
<time>2015-05-02T11:11:48Z</time>
</trkpt>
<trkpt lat="34.9995267" lon="33.6463010">
<ele>101.88</ele>
<time>2015-05-02T11:11:50Z</time>
</trkpt>
<trkpt lat="34.9995812" lon="33.6463598">
<ele>102.73</ele>
<time>2015-05-02T11:11:52Z</time>
</trkpt>
<trkpt lat="34.9996233" lon="33.6464017">
<ele>102.87</ele>
<time>2015-05-02T11:11:53Z</time>
</trkpt>
<trkpt lat="34.9996616" lon="33.6464411">
<ele>102.94</ele>
<time>2015-05-02T11:11:54Z</time>
</trkpt>
<trkpt lat="34.9997112" lon="33.6464844">
<ele>102.98</ele>
<time>2015-05-02T11:11:55Z</time>
</trkpt>
<trkpt lat="34.9997472" lon="33.6465252">
<ele>103.00</ele>
<time>2015-05-02T11:11:56Z</time>
</trkpt>
<trkpt lat="34.9997827" lon="33.6465753">
<ele>103.01</ele>
<time>2015-05-02T11:11:57Z</time>
</trkpt>
<trkpt lat="34.9998179" lon="33.6466171">
<ele>103.01</ele>
<time>2015-05-02T11:11:58Z</time>
</trkpt>
<trkpt lat="34.9998505" lon="33.6466646">
<ele>103.01</ele>
<time>2015-05-02T11:11:59Z</time>
</trkpt>
<trkpt lat="34.9998852" lon="33.6467133">
<ele>103.01</ele>
<time>2015-05-02T11:12:00Z</time>
</trkpt>
<trkpt lat="34.9999197" lon="33.6467628">
<ele>103.02</ele>
<time>2015-05-02T11:12:01Z</time>
</trkpt>
<trkpt lat="34.9999538" lon="33.6468147">
<ele>103.02</ele>
<time>2015-05-02T11:12:02Z</time>
</trkpt>
<trkpt lat="34.9999870" lon="33.6468644">
<ele>103.02</ele>
<time>2015-05-02T11:12:03Z</time>
</trkpt>
<trkpt lat="35.0000203" lon="33.6469190">
<ele>103.02</ele>
<time>2015-05-02T11:12:04Z</time>
</trkpt>
<trkpt lat="35.0000542" lon="33.6469909">
<ele>103.02</ele>
<time>2015-05-02T11:12:05Z</time>
</trkpt>
<trkpt lat="35.0000835" lon="33.6470464">
<ele>102.52</ele>
<time>2015-05-02T11:12:06Z</time>
</trkpt>
<trkpt lat="35.0001140" lon="33.6471109">
<ele>102.77</ele>
<time>2015-05-02T11:12:07Z</time>
</trkpt>
<trkpt lat="35.0001501" lon="33.6471669">
<ele>102.89</ele>
<time>2015-05-02T11:12:08Z</time>
</trkpt>
<trkpt lat="35.0001908" lon="33.6472140">
<ele>102.95</ele>
<time>2015-05-02T11:12:09Z</time>
</trkpt>
<trkpt lat="35.0002429" lon="33.6472500">
<ele>102.98</ele>
<time>2015-05-02T11:12:10Z</time>
</trkpt>
<trkpt lat="35.0003253" lon="33.6472519">
<ele>102.76</ele>
<time>2015-05-02T11:12:12Z</time>
</trkpt>
<trkpt lat="35.0003649" lon="33.6472250">
<ele>102.89</ele>
<time>2015-05-02T11:12:13Z</time>
</trkpt>
<trkpt lat="35.0004208" lon="33.6471575">
<ele>102.98</ele>
<time>2015-05-02T11:12:15Z</time>
</trkpt>
<trkpt lat="35.0004531" lon="33.6471159">
<ele>103.00</ele>
<time>2015-05-02T11:12:16Z</time>
</trkpt>
<trkpt lat="35.0004733" lon="33.6470666">
<ele>103.01</ele>
<time>2015-05-02T11:12:17Z</time>
</trkpt>
<trkpt lat="35.0005052" lon="33.6470129">
<ele>103.01</ele>
<time>2015-05-02T11:12:18Z</time>
</trkpt>
<trkpt lat="35.0005592" lon="33.6469213">
<ele>102.26</ele>
<time>2015-05-02T11:12:20Z</time>
</trkpt>
<trkpt lat="35.0005821" lon="33.6468612">
<ele>101.64</ele>
<time>2015-05-02T11:12:21Z</time>
</trkpt>
<trkpt lat="35.0006074" lon="33.6468145">
<ele>101.33</ele>
<time>2015-05-02T11:12:22Z</time>
</trkpt>
<trkpt lat="35.0006128" lon="33.6467549">
<ele>101.17</ele>
<time>2015-05-02T11:12:23Z</time>
</trkpt>
<trkpt lat="35.0006232" lon="33.6466935">
<ele>100.59</ele>
<time>2015-05-02T11:12:24Z</time>
</trkpt>
<trkpt lat="35.0006264" lon="33.6466343">
<ele>100.31</ele>
<time>2015-05-02T11:12:25Z</time>
</trkpt>
<trkpt lat="35.0006174" lon="33.6465765">
<ele>100.16</ele>
<time>2015-05-02T11:12:26Z</time>
</trkpt>
<trkpt lat="35.0006024" lon="33.6465238">
<ele>100.09</ele>
<time>2015-05-02T11:12:27Z</time>
</trkpt>
<trkpt lat="35.0005872" lon="33.6464687">
<ele>99.55</ele>
<time>2015-05-02T11:12:28Z</time>
</trkpt>
<trkpt lat="35.0005645" lon="33.6464110">
<ele>99.28</ele>
<time>2015-05-02T11:12:29Z</time>
</trkpt>
<trkpt lat="35.0005311" lon="33.6463328">
<ele>99.08</ele>
<time>2015-05-02T11:12:31Z</time>
</trkpt>
<trkpt lat="35.0004804" lon="33.6462541">
<ele>99.53</ele>
<time>2015-05-02T11:12:33Z</time>
</trkpt>
<trkpt lat="35.0004306" lon="33.6461712">
<ele>99.90</ele>
<time>2015-05-02T11:12:35Z</time>
</trkpt>
<trkpt lat="35.0004040" lon="33.6461254">
<ele>99.96</ele>
<time>2015-05-02T11:12:36Z</time>
</trkpt>
<trkpt lat="35.0003731" lon="33.6460848">
<ele>100.49</ele>
<time>2015-05-02T11:12:37Z</time>
</trkpt>
<trkpt lat="35.0003159" lon="33.6460176">
<ele>100.88</ele>
<time>2015-05-02T11:12:39Z</time>
</trkpt>
<trkpt lat="35.0002553" lon="33.6459470">
<ele>100.98</ele>
<time>2015-05-02T11:12:41Z</time>
</trkpt>
<trkpt lat="35.0002151" lon="33.6459102">
<ele>101.00</ele>
<time>2015-05-02T11:12:42Z</time>
</trkpt>
<trkpt lat="35.0001486" lon="33.6458437">
<ele>101.01</ele>
<time>2015-05-02T11:12:44Z</time>
</trkpt>
<trkpt lat="35.0000829" lon="33.6457922">
<ele>101.01</ele>
<time>2015-05-02T11:12:46Z</time>
</trkpt>
<trkpt lat="35.0000298" lon="33.6457334">
<ele>101.02</ele>
<time>2015-05-02T11:12:48Z</time>
</trkpt>
<trkpt lat="34.9999848" lon="33.6456874">
<ele>101.52</ele>
<time>2015-05-02T11:12:50Z</time>
</trkpt>
<trkpt lat="34.9999509" lon="33.6456451">
<ele>101.89</ele>
<time>2015-05-02T11:12:52Z</time>
</trkpt>
<trkpt lat="34.9999092" lon="33.6455950">
<ele>101.98</ele>
<time>2015-05-02T11:12:54Z</time>
</trkpt>
<trkpt lat="34.9998783" lon="33.6455456">
<ele>102.01</ele>
<time>2015-05-02T11:12:56Z</time>
</trkpt>
<trkpt lat="34.9998609" lon="33.6454925">
<ele>102.01</ele>
<time>2015-05-02T11:12:58Z</time>
</trkpt>
<trkpt lat="34.9998571" lon="33.6454325">
<ele>102.77</ele>
<time>2015-05-02T11:13:00Z</time>
</trkpt>
<trkpt lat="34.9998656" lon="33.6453699">
<ele>102.95</ele>
<time>2015-05-02T11:13:02Z</time>
</trkpt>
<trkpt lat="34.9998826" lon="33.6453050">
<ele>103.00</ele>
<time>2015-05-02T11:13:04Z</time>
</trkpt>
<trkpt lat="34.9999018" lon="33.6452430">
<ele>101.76</ele>
<time>2015-05-02T11:13:06Z</time>
</trkpt>
<trkpt lat="34.9998987" lon="33.6451762">
<ele>100.95</ele>
<time>2015-05-02T11:13:08Z</time>
</trkpt>
<trkpt lat="34.9998810" lon="33.6451025">
<ele>100.75</ele>
<time>2015-05-02T11:13:10Z</time>
</trkpt>
<trkpt lat="34.9998575" lon="33.6450324">
<ele>100.20</ele>
<time>2015-05-02T11:13:12Z</time>
</trkpt>
<trkpt lat="34.9998393" lon="33.6449660">
<ele>100.56</ele>
<time>2015-05-02T11:13:14Z</time>
</trkpt>
<trkpt lat="34.9998232" lon="33.6448899">
<ele>100.21</ele>
<time>2015-05-02T11:13:17Z</time>
</trkpt>
<trkpt lat="34.9998220" lon="33.6448117">
<ele>101.04</ele>
<time>2015-05-02T11:13:20Z</time>
</trkpt>
<trkpt lat="34.9998349" lon="33.6447486">
<ele>101.77</ele>
<time>2015-05-02T11:13:22Z</time>
</trkpt>
<trkpt lat="34.9998632" lon="33.6446971">
<ele>101.96</ele>
<time>2015-05-02T11:13:24Z</time>
</trkpt>
<trkpt lat="34.9999006" lon="33.6446523">
<ele>102.00</ele>
<time>2015-05-02T11:13:26Z</time>
</trkpt>
<trkpt lat="34.9999401" lon="33.6446091">
<ele>102.26</ele>
<time>2015-05-02T11:13:28Z</time>
</trkpt>
<trkpt lat="34.9999792" lon="33.6445721">
<ele>102.33</ele>
<time>2015-05-02T11:13:30Z</time>
</trkpt>
<trkpt lat="35.0000196" lon="33.6445373">
<ele>102.59</ele>
<time>2015-05-02T11:13:32Z</time>
</trkpt>
<trkpt lat="35.0000682" lon="33.6445074">
<ele>102.16</ele>
<time>2015-05-02T11:13:34Z</time>
</trkpt>
<trkpt lat="35.0001396" lon="33.6445027">
<ele>102.05</ele>
<time>2015-05-02T11:13:36Z</time>
</trkpt>
<trkpt lat="35.0002018" lon="33.6445301">
<ele>102.53</ele>
<time>2015-05-02T11:13:38Z</time>
</trkpt>
<trkpt lat="35.0002556" lon="33.6445670">
<ele>102.89</ele>
<time>2015-05-02T11:13:40Z</time>
</trkpt>
<trkpt lat="35.0003079" lon="33.6445884">
<ele>103.74</ele>
<time>2015-05-02T11:13:42Z</time>
</trkpt>
<trkpt lat="35.0003651" lon="33.6445909">
<ele>103.98</ele>
<time>2015-05-02T11:13:45Z</time>
</trkpt>
<trkpt lat="35.0004067" lon="33.6445637">
<ele>102.79</ele>
<time>2015-05-02T11:14:04Z</time>
</trkpt>
<trkpt lat="35.0004581" lon="33.6445321">
<ele>102.21</ele>
<time>2015-05-02T11:14:06Z</time>
</trkpt>
<trkpt lat="35.0005069" lon="33.6444963">
<ele>101.56</ele>
<time>2015-05-02T11:14:08Z</time>
</trkpt>
<trkpt lat="35.0005574" lon="33.6444545">
<ele>101.15</ele>
<time>2015-05-02T11:14:10Z</time>
</trkpt>
<trkpt lat="35.0006255" lon="33.6444010">
<ele>100.30</ele>
<time>2015-05-02T11:14:12Z</time>
</trkpt>
<trkpt lat="35.0007026" lon="33.6443686">
<ele>100.09</ele>
<time>2015-05-02T11:14:14Z</time>
</trkpt>
<trkpt lat="35.0007764" lon="33.6443580">
<ele>100.03</ele>
<time>2015-05-02T11:14:16Z</time>
</trkpt>
<trkpt lat="35.0008481" lon="33.6443538">
<ele>100.27</ele>
<time>2015-05-02T11:14:18Z</time>
</trkpt>
<trkpt lat="35.0009225" lon="33.6443590">
<ele>100.08</ele>
<time>2015-05-02T11:14:20Z</time>
</trkpt>
<trkpt lat="35.0009999" lon="33.6443663">
<ele>100.28</ele>
<time>2015-05-02T11:14:22Z</time>
</trkpt>
<trkpt lat="35.0010802" lon="33.6443718">
<ele>100.58</ele>
<time>2015-05-02T11:14:24Z</time>
</trkpt>
<trkpt lat="35.0011610" lon="33.6443737">
<ele>100.91</ele>
<time>2015-05-02T11:14:26Z</time>
</trkpt>
<trkpt lat="35.0012518" lon="33.6443852">
<ele>101.49</ele>
<time>2015-05-02T11:14:28Z</time>
</trkpt>
<trkpt lat="35.0013008" lon="33.6443930">
<ele>101.75</ele>
<time>2015-05-02T11:14:29Z</time>
</trkpt>
<trkpt lat="35.0013514" lon="33.6444034">
<ele>101.38</ele>
<time>2015-05-02T11:14:30Z</time>
</trkpt>
<trkpt lat="35.0013989" lon="33.6444079">
<ele>101.20</ele>
<time>2015-05-02T11:14:31Z</time>
</trkpt>
<trkpt lat="35.0014482" lon="33.6443959">
<ele>101.11</ele>
<time>2015-05-02T11:14:32Z</time>
</trkpt>
<trkpt lat="35.0015317" lon="33.6443441">
<ele>100.29</ele>
<time>2015-05-02T11:14:34Z</time>
</trkpt>
<trkpt lat="35.0016038" lon="33.6442698">
<ele>100.08</ele>
<time>2015-05-02T11:14:36Z</time>
</trkpt>
<trkpt lat="35.0016449" lon="33.6442054">
<ele>100.05</ele>
<time>2015-05-02T11:14:37Z</time>
</trkpt>
<trkpt lat="35.0016806" lon="33.6441522">
<ele>99.53</ele>
<time>2015-05-02T11:14:38Z</time>
</trkpt>
<trkpt lat="35.0017306" lon="33.6440989">
<ele>99.27</ele>
<time>2015-05-02T11:14:39Z</time>
</trkpt>
<trkpt lat="35.0017908" lon="33.6440450">
<ele>98.65</ele>
<time>2015-05-02T11:14:40Z</time>
</trkpt>
<trkpt lat="35.0018451" lon="33.6439962">
<ele>98.33</ele>
<time>2015-05-02T11:14:41Z</time>
</trkpt>
<trkpt lat="35.0018974" lon="33.6439364">
<ele>98.17</ele>
<time>2015-05-02T11:14:42Z</time>
</trkpt>
<trkpt lat="35.0019403" lon="33.6438841">
<ele>98.09</ele>
<time>2015-05-02T11:14:43Z</time>
</trkpt>
<trkpt lat="35.0019837" lon="33.6438280">
<ele>97.56</ele>
<time>2015-05-02T11:14:44Z</time>
</trkpt>
<trkpt lat="35.0020365" lon="33.6437767">
<ele>97.29</ele>
<time>2015-05-02T11:14:45Z</time>
</trkpt>
<trkpt lat="35.0020888" lon="33.6437447">
<ele>96.65</ele>
<time>2015-05-02T11:14:46Z</time>
</trkpt>
<trkpt lat="35.0021536" lon="33.6437128">
<ele>96.33</ele>
<time>2015-05-02T11:14:47Z</time>
</trkpt>
<trkpt lat="35.0022188" lon="33.6436950">
<ele>96.17</ele>
<time>2015-05-02T11:14:48Z</time>
</trkpt>
<trkpt lat="35.0022811" lon="33.6436796">
<ele>96.10</ele>
<time>2015-05-02T11:14:49Z</time>
</trkpt>
<trkpt lat="35.0023564" lon="33.6436625">
<ele>95.56</ele>
<time>2015-05-02T11:14:50Z</time>
</trkpt>
<trkpt lat="35.0024297" lon="33.6436458">
<ele>95.29</ele>
<time>2015-05-02T11:14:51Z</time>
</trkpt>
<trkpt lat="35.0025114" lon="33.6436319">
<ele>94.65</ele>
<time>2015-05-02T11:14:52Z</time>
</trkpt>
<trkpt lat="35.0026011" lon="33.6436204">
<ele>94.33</ele>
<time>2015-05-02T11:14:53Z</time>
</trkpt>
<trkpt lat="35.0026835" lon="33.6436052">
<ele>94.17</ele>
<time>2015-05-02T11:14:54Z</time>
</trkpt>
<trkpt lat="35.0027725" lon="33.6435954">
<ele>94.10</ele>
<time>2015-05-02T11:14:55Z</time>
</trkpt>
<trkpt lat="35.0028657" lon="33.6435877">
<ele>94.06</ele>
<time>2015-05-02T11:14:56Z</time>
</trkpt>
<trkpt lat="35.0029414" lon="33.6435866">
<ele>93.54</ele>
<time>2015-05-02T11:14:57Z</time>
</trkpt>
<trkpt lat="35.0030308" lon="33.6435922">
<ele>93.28</ele>
<time>2015-05-02T11:14:58Z</time>
</trkpt>
<trkpt lat="35.0031058" lon="33.6435968">
<ele>93.15</ele>
<time>2015-05-02T11:14:59Z</time>
</trkpt>
<trkpt lat="35.0031853" lon="33.6435916">
<ele>93.08</ele>
<time>2015-05-02T11:15:00Z</time>
</trkpt>
<trkpt lat="35.0032664" lon="33.6435888">
<ele>92.55</ele>
<time>2015-05-02T11:15:01Z</time>
</trkpt>
<trkpt lat="35.0033265" lon="33.6435804">
<ele>92.28</ele>
<time>2015-05-02T11:15:02Z</time>
</trkpt>
<trkpt lat="35.0033792" lon="33.6435711">
<ele>91.65</ele>
<time>2015-05-02T11:15:03Z</time>
</trkpt>
<trkpt lat="35.0034244" lon="33.6435630">
<ele>91.33</ele>
<time>2015-05-02T11:15:04Z</time>
</trkpt>
<trkpt lat="35.0034828" lon="33.6435569">
<ele>91.85</ele>
<time>2015-05-02T11:15:06Z</time>
</trkpt>
<trkpt lat="35.0035292" lon="33.6435289">
<ele>91.76</ele>
<time>2015-05-02T11:15:10Z</time>
</trkpt>
<trkpt lat="35.0035334" lon="33.6434667">
<ele>91.58</ele>
<time>2015-05-02T11:16:59Z</time>
</trkpt>
<trkpt lat="35.0035282" lon="33.6434031">
<ele>90.41</ele>
<time>2015-05-02T11:17:01Z</time>
</trkpt>
<trkpt lat="35.0035286" lon="33.6433448">
<ele>89.36</ele>
<time>2015-05-02T11:17:03Z</time>
</trkpt>
<trkpt lat="35.0035463" lon="33.6432730">
<ele>88.31</ele>
<time>2015-05-02T11:17:06Z</time>
</trkpt>
<trkpt lat="35.0035699" lon="33.6432253">
<ele>88.05</ele>
<time>2015-05-02T11:17:09Z</time>
</trkpt>
<trkpt lat="35.0036018" lon="33.6431760">
<ele>89.01</ele>
<time>2015-05-02T11:17:24Z</time>
</trkpt>
<trkpt lat="35.0036381" lon="33.6431071">
<ele>86.89</ele>
<time>2015-05-02T11:17:27Z</time>
</trkpt>
<trkpt lat="35.0036595" lon="33.6430576">
<ele>85.95</ele>
<time>2015-05-02T11:17:28Z</time>
</trkpt>
<trkpt lat="35.0037011" lon="33.6429738">
<ele>84.00</ele>
<time>2015-05-02T11:17:30Z</time>
</trkpt>
<trkpt lat="35.0037471" lon="33.6429060">
<ele>82.01</ele>
<time>2015-05-02T11:17:32Z</time>
</trkpt>
<trkpt lat="35.0037988" lon="33.6428372">
<ele>80.52</ele>
<time>2015-05-02T11:17:34Z</time>
</trkpt>
<trkpt lat="35.0038376" lon="33.6427602">
<ele>78.89</ele>
<time>2015-05-02T11:17:36Z</time>
</trkpt>
<trkpt lat="35.0038529" lon="33.6427073">
<ele>78.23</ele>
<time>2015-05-02T11:17:38Z</time>
</trkpt>
<trkpt lat="35.0039013" lon="33.6426604">
<ele>77.28</ele>
<time>2015-05-02T11:17:42Z</time>
</trkpt>
<trkpt lat="35.0039478" lon="33.6426518">
<ele>77.83</ele>
<time>2015-05-02T11:17:44Z</time>
</trkpt>
<trkpt lat="35.0040005" lon="33.6426730">
<ele>78.49</ele>
<time>2015-05-02T11:17:47Z</time>
</trkpt>
<trkpt lat="35.0040433" lon="33.6427098">
<ele>78.95</ele>
<time>2015-05-02T11:17:50Z</time>
</trkpt>
<trkpt lat="35.0040902" lon="33.6427292">
<ele>79.01</ele>
<time>2015-05-02T11:17:53Z</time>
</trkpt>
<trkpt lat="35.0041381" lon="33.6427478">
<ele>79.89</ele>
<time>2015-05-02T11:17:56Z</time>
</trkpt>
<trkpt lat="35.0041914" lon="33.6427679">
<ele>80.00</ele>
<time>2015-05-02T11:17:59Z</time>
</trkpt>
<trkpt lat="35.0042561" lon="33.6427977">
<ele>79.26</ele>
<time>2015-05-02T11:18:02Z</time>
</trkpt>
<trkpt lat="35.0042992" lon="33.6428169">
<ele>79.08</ele>
<time>2015-05-02T11:18:04Z</time>
</trkpt>
<trkpt lat="35.0043476" lon="33.6428383">
<ele>77.78</ele>
<time>2015-05-02T11:18:06Z</time>
</trkpt>
<trkpt lat="35.0044257" lon="33.6428667">
<ele>75.96</ele>
<time>2015-05-02T11:18:08Z</time>
</trkpt>
<trkpt lat="35.0045024" lon="33.6428845">
<ele>74.00</ele>
<time>2015-05-02T11:18:10Z</time>
</trkpt>
<trkpt lat="35.0045732" lon="33.6428975">
<ele>73.26</ele>
<time>2015-05-02T11:18:12Z</time>
</trkpt>
<trkpt lat="35.0046445" lon="33.6429175">
<ele>71.83</ele>
<time>2015-05-02T11:18:14Z</time>
</trkpt>
<trkpt lat="35.0047170" lon="33.6429421">
<ele>70.72</ele>
<time>2015-05-02T11:18:16Z</time>
</trkpt>
<trkpt lat="35.0047819" lon="33.6429621">
<ele>69.69</ele>
<time>2015-05-02T11:18:18Z</time>
</trkpt>
<trkpt lat="35.0048454" lon="33.6429863">
<ele>69.10</ele>
<time>2015-05-02T11:18:21Z</time>
</trkpt>
<trkpt lat="35.0048831" lon="33.6430216">
<ele>68.52</ele>
<time>2015-05-02T11:18:40Z</time>
</trkpt>
<trkpt lat="35.0048974" lon="33.6430800">
<ele>64.34</ele>
<time>2015-05-02T11:18:53Z</time>
</trkpt>
<trkpt lat="35.0049080" lon="33.6431339">
<ele>61.68</ele>
<time>2015-05-02T11:18:58Z</time>
</trkpt>
<trkpt lat="35.0049277" lon="33.6431833">
<ele>59.15</ele>
<time>2015-05-02T11:19:08Z</time>
</trkpt>
<trkpt lat="35.0049636" lon="33.6432217">
<ele>56.02</ele>
<time>2015-05-02T11:19:17Z</time>
</trkpt>
<trkpt lat="35.0050096" lon="33.6432590">
<ele>55.27</ele>
<time>2015-05-02T11:19:19Z</time>
</trkpt>
<trkpt lat="35.0050665" lon="33.6432477">
<ele>54.27</ele>
<time>2015-05-02T11:19:26Z</time>
</trkpt>
<trkpt lat="35.0050940" lon="33.6432031">
<ele>54.08</ele>
<time>2015-05-02T11:19:28Z</time>
</trkpt>
<trkpt lat="35.0051157" lon="33.6431319">
<ele>54.02</ele>
<time>2015-05-02T11:19:31Z</time>
</trkpt>
<trkpt lat="35.0051366" lon="33.6430794">
<ele>54.02</ele>
<time>2015-05-02T11:19:33Z</time>
</trkpt>
<trkpt lat="35.0051578" lon="33.6430281">
<ele>54.02</ele>
<time>2015-05-02T11:19:35Z</time>
</trkpt>
<trkpt lat="35.0051850" lon="33.6429752">
<ele>54.02</ele>
<time>2015-05-02T11:19:37Z</time>
</trkpt>
<trkpt lat="35.0052104" lon="33.6429284">
<ele>54.77</ele>
<time>2015-05-02T11:19:39Z</time>
</trkpt>
<trkpt lat="35.0052423" lon="33.6428865">
<ele>56.73</ele>
<time>2015-05-02T11:19:46Z</time>
</trkpt>
<trkpt lat="35.0052679" lon="33.6428364">
<ele>57.94</ele>
<time>2015-05-02T11:19:50Z</time>
</trkpt>
<trkpt lat="35.0052838" lon="33.6427769">
<ele>58.11</ele>
<time>2015-05-02T11:19:55Z</time>
</trkpt>
<trkpt lat="35.0052794" lon="33.6427133">
<ele>57.58</ele>
<time>2015-05-02T11:20:00Z</time>
</trkpt>
<trkpt lat="35.0052769" lon="33.6426479">
<ele>58.38</ele>
<time>2015-05-02T11:20:05Z</time>
</trkpt>
<trkpt lat="35.0052755" lon="33.6425877">
<ele>59.87</ele>
<time>2015-05-02T11:20:10Z</time>
</trkpt>
<trkpt lat="35.0052659" lon="33.6425230">
<ele>61.48</ele>
<time>2015-05-02T11:20:15Z</time>
</trkpt>
<trkpt lat="35.0052543" lon="33.6424695">
<ele>62.73</ele>
<time>2015-05-02T11:20:19Z</time>
</trkpt>
<trkpt lat="35.0052441" lon="33.6424124">
<ele>63.00</ele>
<time>2015-05-02T11:20:23Z</time>
</trkpt>
<trkpt lat="35.0052342" lon="33.6423550">
<ele>63.51</ele>
<time>2015-05-02T11:20:27Z</time>
</trkpt>
<trkpt lat="35.0052290" lon="33.6422997">
<ele>63.86</ele>
<time>2015-05-02T11:20:31Z</time>
</trkpt>
<trkpt lat="35.0052479" lon="33.6422418">
<ele>64.26</ele>
<time>2015-05-02T11:20:35Z</time>
</trkpt>
<trkpt lat="35.0052481" lon="33.6421749">
<ele>64.02</ele>
<time>2015-05-02T11:20:40Z</time>
</trkpt>
<trkpt lat="35.0052653" lon="33.6421197">
<ele>64.48</ele>
<time>2015-05-02T11:20:45Z</time>
</trkpt>
<trkpt lat="35.0052968" lon="33.6420698">
<ele>64.12</ele>
<time>2015-05-02T11:20:50Z</time>
</trkpt>
<trkpt lat="35.0053084" lon="33.6420154">
<ele>64.96</ele>
<time>2015-05-02T11:20:54Z</time>
</trkpt>
<trkpt lat="35.0053381" lon="33.6419716">
<ele>65.64</ele>
<time>2015-05-02T11:20:58Z</time>
</trkpt>
<trkpt lat="35.0053775" lon="33.6420145">
<ele>67.98</ele>
<time>2015-05-02T11:21:07Z</time>
</trkpt>
<trkpt lat="35.0053809" lon="33.6420791">
<ele>68.76</ele>
<time>2015-05-02T11:21:09Z</time>
</trkpt>
<trkpt lat="35.0053787" lon="33.6421589">
<ele>68.95</ele>
<time>2015-05-02T11:21:11Z</time>
</trkpt>
<trkpt lat="35.0053806" lon="33.6422493">
<ele>69.00</ele>
<time>2015-05-02T11:21:13Z</time>
</trkpt>
<trkpt lat="35.0053915" lon="33.6423455">
<ele>69.01</ele>
<time>2015-05-02T11:21:15Z</time>
</trkpt>
<trkpt lat="35.0054137" lon="33.6424417">
<ele>69.01</ele>
<time>2015-05-02T11:21:17Z</time>
</trkpt>
<trkpt lat="35.0054414" lon="33.6425367">
<ele>69.02</ele>
<time>2015-05-02T11:21:19Z</time>
</trkpt>
<trkpt lat="35.0054708" lon="33.6426360">
<ele>69.02</ele>
<time>2015-05-02T11:21:21Z</time>
</trkpt>
<trkpt lat="35.0054849" lon="33.6427018">
<ele>69.02</ele>
<time>2015-05-02T11:21:22Z</time>
</trkpt>
<trkpt lat="35.0055100" lon="33.6428068">
<ele>69.02</ele>
<time>2015-05-02T11:21:24Z</time>
</trkpt>
<trkpt lat="35.0055308" lon="33.6428666">
<ele>69.02</ele>
<time>2015-05-02T11:21:25Z</time>
</trkpt>
<trkpt lat="35.0055496" lon="33.6429226">
<ele>69.02</ele>
<time>2015-05-02T11:21:26Z</time>
</trkpt>
<trkpt lat="35.0055690" lon="33.6429749">
<ele>69.02</ele>
<time>2015-05-02T11:21:27Z</time>
</trkpt>
<trkpt lat="35.0055938" lon="33.6430256">
<ele>68.52</ele>
<time>2015-05-02T11:21:28Z</time>
</trkpt>
<trkpt lat="35.0056540" lon="33.6430879">
<ele>68.39</ele>
<time>2015-05-02T11:21:30Z</time>
</trkpt>
<trkpt lat="35.0056965" lon="33.6431062">
<ele>68.20</ele>
<time>2015-05-02T11:21:31Z</time>
</trkpt>
<trkpt lat="35.0057928" lon="33.6431036">
<ele>66.81</ele>
<time>2015-05-02T11:21:33Z</time>
</trkpt>
<trkpt lat="35.0058550" lon="33.6430840">
<ele>66.91</ele>
<time>2015-05-02T11:21:34Z</time>
</trkpt>
<trkpt lat="35.0059108" lon="33.6430443">
<ele>66.97</ele>
<time>2015-05-02T11:21:35Z</time>
</trkpt>
<trkpt lat="35.0059655" lon="33.6430023">
<ele>66.49</ele>
<time>2015-05-02T11:21:36Z</time>
</trkpt>
<trkpt lat="35.0060150" lon="33.6429568">
<ele>66.25</ele>
<time>2015-05-02T11:21:37Z</time>
</trkpt>
<trkpt lat="35.0060670" lon="33.6429008">
<ele>66.13</ele>
<time>2015-05-02T11:21:38Z</time>
</trkpt>
<trkpt lat="35.0061132" lon="33.6428507">
<ele>66.08</ele>
<time>2015-05-02T11:21:39Z</time>
</trkpt>
<trkpt lat="35.0061669" lon="33.6427978">
<ele>66.05</ele>
<time>2015-05-02T11:21:40Z</time>
</trkpt>
<trkpt lat="35.0062239" lon="33.6427569">
<ele>66.03</ele>
<time>2015-05-02T11:21:41Z</time>
</trkpt>
<trkpt lat="35.0062774" lon="33.6427185">
<ele>66.52</ele>
<time>2015-05-02T11:21:42Z</time>
</trkpt>
<trkpt lat="35.0063299" lon="33.6426835">
<ele>66.77</ele>
<time>2015-05-02T11:21:43Z</time>
</trkpt>
<trkpt lat="35.0063772" lon="33.6426408">
<ele>66.89</ele>
<time>2015-05-02T11:21:44Z</time>
</trkpt>
<trkpt lat="35.0064190" lon="33.6426047">
<ele>66.95</ele>
<time>2015-05-02T11:21:45Z</time>
</trkpt>
<trkpt lat="35.0064671" lon="33.6425651">
<ele>66.99</ele>
<time>2015-05-02T11:21:46Z</time>
</trkpt>
<trkpt lat="35.0065120" lon="33.6425327">
<ele>66.50</ele>
<time>2015-05-02T11:21:47Z</time>
</trkpt>
<trkpt lat="35.0065715" lon="33.6425073">
<ele>66.26</ele>
<time>2015-05-02T11:21:48Z</time>
</trkpt>
<trkpt lat="35.0066122" lon="33.6424729">
<ele>66.64</ele>
<time>2015-05-02T11:21:49Z</time>
</trkpt>
<trkpt lat="35.0066969" lon="33.6424149">
<ele>66.92</ele>
<time>2015-05-02T11:21:51Z</time>
</trkpt>
<trkpt lat="35.0067374" lon="33.6423765">
<ele>66.97</ele>
<time>2015-05-02T11:21:52Z</time>
</trkpt>
<trkpt lat="35.0067838" lon="33.6423408">
<ele>66.49</ele>
<time>2015-05-02T11:21:53Z</time>
</trkpt>
<trkpt lat="35.0068266" lon="33.6423068">
<ele>65.75</ele>
<time>2015-05-02T11:21:54Z</time>
</trkpt>
<trkpt lat="35.0068830" lon="33.6422462">
<ele>65.20</ele>
<time>2015-05-02T11:21:56Z</time>
</trkpt>
<trkpt lat="35.0069421" lon="33.6421811">
<ele>65.06</ele>
<time>2015-05-02T11:21:58Z</time>
</trkpt>
<trkpt lat="35.0069736" lon="33.6421340">
<ele>65.04</ele>
<time>2015-05-02T11:21:59Z</time>
</trkpt>
<trkpt lat="35.0070000" lon="33.6420864">
<ele>65.53</ele>
<time>2015-05-02T11:22:00Z</time>
</trkpt>
<trkpt lat="35.0070290" lon="33.6419873">
<ele>65.39</ele>
<time>2015-05-02T11:22:02Z</time>
</trkpt>
<trkpt lat="35.0070534" lon="33.6419039">
<ele>65.86</ele>
<time>2015-05-02T11:22:04Z</time>
</trkpt>
<trkpt lat="35.0070975" lon="33.6418372">
<ele>65.73</ele>
<time>2015-05-02T11:22:06Z</time>
</trkpt>
<trkpt lat="35.0071406" lon="33.6417734">
<ele>66.44</ele>
<time>2015-05-02T11:22:08Z</time>
</trkpt>
<trkpt lat="35.0071829" lon="33.6417063">
<ele>67.37</ele>
<time>2015-05-02T11:22:10Z</time>
</trkpt>
<trkpt lat="35.0072444" lon="33.6416591">
<ele>67.86</ele>
<time>2015-05-02T11:22:12Z</time>
</trkpt>
<trkpt lat="35.0073136" lon="33.6416224">
<ele>67.98</ele>
<time>2015-05-02T11:22:14Z</time>
</trkpt>
<trkpt lat="35.0073887" lon="33.6415982">
<ele>68.26</ele>
<time>2015-05-02T11:22:16Z</time>
</trkpt>
<trkpt lat="35.0074577" lon="33.6415789">
<ele>68.08</ele>
<time>2015-05-02T11:22:18Z</time>
</trkpt>
<trkpt lat="35.0075010" lon="33.6415634">
<ele>67.53</ele>
<time>2015-05-02T11:22:20Z</time>
</trkpt>
<trkpt lat="35.0075615" lon="33.6415707">
<ele>67.22</ele>
<time>2015-05-02T11:22:39Z</time>
</trkpt>
<trkpt lat="35.0076153" lon="33.6415582">
<ele>66.32</ele>
<time>2015-05-02T11:22:41Z</time>
</trkpt>
<trkpt lat="35.0076774" lon="33.6415384">
<ele>65.34</ele>
<time>2015-05-02T11:22:43Z</time>
</trkpt>
<trkpt lat="35.0077405" lon="33.6415011">
<ele>65.85</ele>
<time>2015-05-02T11:22:45Z</time>
</trkpt>
<trkpt lat="35.0077961" lon="33.6414446">
<ele>65.97</ele>
<time>2015-05-02T11:22:47Z</time>
</trkpt>
<trkpt lat="35.0078468" lon="33.6413739">
<ele>66.01</ele>
<time>2015-05-02T11:22:49Z</time>
</trkpt>
<trkpt lat="35.0078876" lon="33.6412931">
<ele>66.01</ele>
<time>2015-05-02T11:22:51Z</time>
</trkpt>
<trkpt lat="35.0079349" lon="33.6411487">
<ele>66.02</ele>
<time>2015-05-02T11:22:53Z</time>
</trkpt>
<trkpt lat="35.0079737" lon="33.6410447">
<ele>65.27</ele>
<time>2015-05-02T11:22:55Z</time>
</trkpt>
<trkpt lat="35.0080115" lon="33.6409520">
<ele>65.08</ele>
<time>2015-05-02T11:22:57Z</time>
</trkpt>
<trkpt lat="35.0080464" lon="33.6408591">
<ele>65.03</ele>
<time>2015-05-02T11:22:59Z</time>
</trkpt>
<trkpt lat="35.0080654" lon="33.6407996">
<ele>65.52</ele>
<time>2015-05-02T11:23:00Z</time>
</trkpt>
<trkpt lat="35.0080845" lon="33.6407442">
<ele>66.27</ele>
<time>2015-05-02T11:23:01Z</time>
</trkpt>
<trkpt lat="35.0081193" lon="33.6406473">
<ele>66.58</ele>
<time>2015-05-02T11:23:03Z</time>
</trkpt>
<trkpt lat="35.0081502" lon="33.6405552">
<ele>67.41</ele>
<time>2015-05-02T11:23:05Z</time>
</trkpt>
<trkpt lat="35.0081766" lon="33.6404626">
<ele>68.36</ele>
<time>2015-05-02T11:23:07Z</time>
</trkpt>
<trkpt lat="35.0081962" lon="33.6404108">
<ele>69.19</ele>
<time>2015-05-02T11:23:08Z</time>
</trkpt>
<trkpt lat="35.0082322" lon="33.6403371">
<ele>69.56</ele>
<time>2015-05-02T11:23:10Z</time>
</trkpt>
<trkpt lat="35.0082505" lon="33.6402731">
<ele>69.90</ele>
<time>2015-05-02T11:23:12Z</time>
</trkpt>
<trkpt lat="35.0082752" lon="33.6402025">
<ele>68.75</ele>
<time>2015-05-02T11:23:15Z</time>
</trkpt>
<trkpt lat="35.0083177" lon="33.6401387">
<ele>68.11</ele>
<time>2015-05-02T11:23:18Z</time>
</trkpt>
<trkpt lat="35.0083498" lon="33.6400882">
<ele>68.04</ele>
<time>2015-05-02T11:23:20Z</time>
</trkpt>
<trkpt lat="35.0083786" lon="33.6400152">
<ele>68.77</ele>
<time>2015-05-02T11:23:22Z</time>
</trkpt>
<trkpt lat="35.0084153" lon="33.6399291">
<ele>68.95</ele>
<time>2015-05-02T11:23:24Z</time>
</trkpt>
<trkpt lat="35.0084529" lon="33.6398479">
<ele>68.25</ele>
<time>2015-05-02T11:23:26Z</time>
</trkpt>
<trkpt lat="35.0084986" lon="33.6397763">
<ele>68.07</ele>
<time>2015-05-02T11:23:28Z</time>
</trkpt>
<trkpt lat="35.0085576" lon="33.6397191">
<ele>67.28</ele>
<time>2015-05-02T11:23:30Z</time>
</trkpt>
<trkpt lat="35.0086208" lon="33.6396757">
<ele>67.08</ele>
<time>2015-05-02T11:23:32Z</time>
</trkpt>
<trkpt lat="35.0086782" lon="33.6396388">
<ele>68.28</ele>
<time>2015-05-02T11:23:34Z</time>
</trkpt>
<trkpt lat="35.0087242" lon="33.6396174">
<ele>68.08</ele>
<time>2015-05-02T11:23:36Z</time>
</trkpt>
<trkpt lat="35.0087758" lon="33.6395943">
<ele>68.77</ele>
<time>2015-05-02T11:23:39Z</time>
</trkpt>
<trkpt lat="35.0088195" lon="33.6395771">
<ele>69.71</ele>
<time>2015-05-02T11:23:41Z</time>
</trkpt>
<trkpt lat="35.0088720" lon="33.6395558">
<ele>69.69</ele>
<time>2015-05-02T11:23:43Z</time>
</trkpt>
<trkpt lat="35.0089250" lon="33.6395188">
<ele>69.43</ele>
<time>2015-05-02T11:23:45Z</time>
</trkpt>
<trkpt lat="35.0089818" lon="33.6394672">
<ele>70.12</ele>
<time>2015-05-02T11:23:47Z</time>
</trkpt>
<trkpt lat="35.0090348" lon="33.6393980">
<ele>70.04</ele>
<time>2015-05-02T11:23:49Z</time>
</trkpt>
<trkpt lat="35.0090808" lon="33.6393202">
<ele>70.02</ele>
<time>2015-05-02T11:23:51Z</time>
</trkpt>
<trkpt lat="35.0091230" lon="33.6392428">
<ele>70.02</ele>
<time>2015-05-02T11:23:53Z</time>
</trkpt>
<trkpt lat="35.0091621" lon="33.6391687">
<ele>70.77</ele>
<time>2015-05-02T11:23:55Z</time>
</trkpt>
<trkpt lat="35.0091995" lon="33.6390880">
<ele>70.95</ele>
<time>2015-05-02T11:23:57Z</time>
</trkpt>
<trkpt lat="35.0092406" lon="33.6390035">
<ele>71.75</ele>
<time>2015-05-02T11:23:59Z</time>
</trkpt>
<trkpt lat="35.0092839" lon="33.6389164">
<ele>71.95</ele>
<time>2015-05-02T11:24:01Z</time>
</trkpt>
<trkpt lat="35.0093467" lon="33.6388073">
<ele>72.00</ele>
<time>2015-05-02T11:24:03Z</time>
</trkpt>
<trkpt lat="35.0093788" lon="33.6387546">
<ele>72.01</ele>
<time>2015-05-02T11:24:04Z</time>
</trkpt>
<trkpt lat="35.0094141" lon="33.6387088">
<ele>72.01</ele>
<time>2015-05-02T11:24:05Z</time>
</trkpt>
<trkpt lat="35.0094511" lon="33.6386661">
<ele>72.51</ele>
<time>2015-05-02T11:24:06Z</time>
</trkpt>
<trkpt lat="35.0094895" lon="33.6386327">
<ele>72.76</ele>
<time>2015-05-02T11:24:07Z</time>
</trkpt>
<trkpt lat="35.0095259" lon="33.6385948">
<ele>72.89</ele>
<time>2015-05-02T11:24:08Z</time>
</trkpt>
<trkpt lat="35.0095648" lon="33.6385608">
<ele>72.45</ele>
<time>2015-05-02T11:24:09Z</time>
</trkpt>
<trkpt lat="35.0096014" lon="33.6385279">
<ele>72.73</ele>
<time>2015-05-02T11:24:10Z</time>
</trkpt>
<trkpt lat="35.0096343" lon="33.6384860">
<ele>73.38</ele>
<time>2015-05-02T11:24:11Z</time>
</trkpt>
<trkpt lat="35.0096733" lon="33.6384375">
<ele>74.20</ele>
<time>2015-05-02T11:24:12Z</time>
</trkpt>
<trkpt lat="35.0097200" lon="33.6384008">
<ele>74.61</ele>
<time>2015-05-02T11:24:13Z</time>
</trkpt>
<trkpt lat="35.0097622" lon="33.6383574">
<ele>74.81</ele>
<time>2015-05-02T11:24:14Z</time>
</trkpt>
<trkpt lat="35.0098005" lon="33.6383101">
<ele>75.41</ele>
<time>2015-05-02T11:24:15Z</time>
</trkpt>
<trkpt lat="35.0098457" lon="33.6382664">
<ele>75.71</ele>
<time>2015-05-02T11:24:16Z</time>
</trkpt>
<trkpt lat="35.0098835" lon="33.6382233">
<ele>75.87</ele>
<time>2015-05-02T11:24:17Z</time>
</trkpt>
<trkpt lat="35.0099264" lon="33.6381821">
<ele>75.94</ele>
<time>2015-05-02T11:24:18Z</time>
</trkpt>
<trkpt lat="35.0099666" lon="33.6381522">
<ele>76.48</ele>
<time>2015-05-02T11:24:19Z</time>
</trkpt>
<trkpt lat="35.0100129" lon="33.6381175">
<ele>76.25</ele>
<time>2015-05-02T11:24:20Z</time>
</trkpt>
<trkpt lat="35.0100580" lon="33.6380767">
<ele>76.13</ele>
<time>2015-05-02T11:24:21Z</time>
</trkpt>
<trkpt lat="35.0101061" lon="33.6380315">
<ele>75.07</ele>
<time>2015-05-02T11:24:22Z</time>
</trkpt>
<trkpt lat="35.0101460" lon="33.6379885">
<ele>75.04</ele>
<time>2015-05-02T11:24:23Z</time>
</trkpt>
<trkpt lat="35.0101903" lon="33.6379461">
<ele>74.53</ele>
<time>2015-05-02T11:24:24Z</time>
</trkpt>
<trkpt lat="35.0102352" lon="33.6378969">
<ele>74.77</ele>
<time>2015-05-02T11:24:25Z</time>
</trkpt>
<trkpt lat="35.0102774" lon="33.6378534">
<ele>75.39</ele>
<time>2015-05-02T11:24:26Z</time>
</trkpt>
<trkpt lat="35.0103173" lon="33.6378094">
<ele>75.71</ele>
<time>2015-05-02T11:24:27Z</time>
</trkpt>
<trkpt lat="35.0103635" lon="33.6377589">
<ele>75.86</ele>
<time>2015-05-02T11:24:28Z</time>
</trkpt>
<trkpt lat="35.0104015" lon="33.6377083">
<ele>75.44</ele>
<time>2015-05-02T11:24:29Z</time>
</trkpt>
<trkpt lat="35.0104414" lon="33.6376614">
<ele>75.23</ele>
<time>2015-05-02T11:24:30Z</time>
</trkpt>
<trkpt lat="35.0104778" lon="33.6376139">
<ele>74.62</ele>
<time>2015-05-02T11:24:31Z</time>
</trkpt>
<trkpt lat="35.0105157" lon="33.6375633">
<ele>74.32</ele>
<time>2015-05-02T11:24:32Z</time>
</trkpt>
<trkpt lat="35.0105509" lon="33.6375061">
<ele>73.67</ele>
<time>2015-05-02T11:24:33Z</time>
</trkpt>
<trkpt lat="35.0105844" lon="33.6374544">
<ele>72.84</ele>
<time>2015-05-02T11:24:34Z</time>
</trkpt>
<trkpt lat="35.0106127" lon="33.6374034">
<ele>72.43</ele>
<time>2015-05-02T11:24:35Z</time>
</trkpt>
<trkpt lat="35.0106461" lon="33.6373394">
<ele>72.22</ele>
<time>2015-05-02T11:24:36Z</time>
</trkpt>
<trkpt lat="35.0106848" lon="33.6372813">
<ele>72.12</ele>
<time>2015-05-02T11:24:37Z</time>
</trkpt>
<trkpt lat="35.0107364" lon="33.6372237">
<ele>72.07</ele>
<time>2015-05-02T11:24:38Z</time>
</trkpt>
<trkpt lat="35.0107684" lon="33.6371546">
<ele>72.54</ele>
<time>2015-05-02T11:24:39Z</time>
</trkpt>
<trkpt lat="35.0108082" lon="33.6370924">
<ele>72.28</ele>
<time>2015-05-02T11:24:40Z</time>
</trkpt>
<trkpt lat="35.0108429" lon="33.6370289">
<ele>72.65</ele>
<time>2015-05-02T11:24:41Z</time>
</trkpt>
<trkpt lat="35.0108774" lon="33.6369645">
<ele>73.33</ele>
<time>2015-05-02T11:24:42Z</time>
</trkpt>
<trkpt lat="35.0109107" lon="33.6369122">
<ele>73.67</ele>
<time>2015-05-02T11:24:43Z</time>
</trkpt>
<trkpt lat="35.0109524" lon="33.6368527">
<ele>73.84</ele>
<time>2015-05-02T11:24:44Z</time>
</trkpt>
<trkpt lat="35.0109867" lon="33.6368018">
<ele>73.43</ele>
<time>2015-05-02T11:24:45Z</time>
</trkpt>
<trkpt lat="35.0110212" lon="33.6367474">
<ele>73.22</ele>
<time>2015-05-02T11:24:46Z</time>
</trkpt>
<trkpt lat="35.0110566" lon="33.6367009">
<ele>73.62</ele>
<time>2015-05-02T11:24:47Z</time>
</trkpt>
<trkpt lat="35.0110939" lon="33.6366395">
<ele>74.32</ele>
<time>2015-05-02T11:24:48Z</time>
</trkpt>
<trkpt lat="35.0111242" lon="33.6365814">
<ele>74.67</ele>
<time>2015-05-02T11:24:49Z</time>
</trkpt>
<trkpt lat="35.0111543" lon="33.6365234">
<ele>74.34</ele>
<time>2015-05-02T11:24:50Z</time>
</trkpt>
<trkpt lat="35.0111825" lon="33.6364717">
<ele>74.18</ele>
<time>2015-05-02T11:24:51Z</time>
</trkpt>
<trkpt lat="35.0112112" lon="33.6364156">
<ele>74.60</ele>
<time>2015-05-02T11:24:52Z</time>
</trkpt>
<trkpt lat="35.0112383" lon="33.6363619">
<ele>74.81</ele>
<time>2015-05-02T11:24:53Z</time>
</trkpt>
<trkpt lat="35.0112774" lon="33.6363111">
<ele>74.91</ele>
<time>2015-05-02T11:24:54Z</time>
</trkpt>
<trkpt lat="35.0113065" lon="33.6362599">
<ele>74.46</ele>
<time>2015-05-02T11:24:55Z</time>
</trkpt>
<trkpt lat="35.0113424" lon="33.6362040">
<ele>74.24</ele>
<time>2015-05-02T11:24:56Z</time>
</trkpt>
<trkpt lat="35.0113647" lon="33.6361457">
<ele>74.13</ele>
<time>2015-05-02T11:24:57Z</time>
</trkpt>
<trkpt lat="35.0113850" lon="33.6360962">
<ele>74.07</ele>
<time>2015-05-02T11:24:58Z</time>
</trkpt>
<trkpt lat="35.0114113" lon="33.6360516">
<ele>75.04</ele>
<time>2015-05-02T11:24:59Z</time>
</trkpt>
<trkpt lat="35.0114567" lon="33.6359846">
<ele>75.53</ele>
<time>2015-05-02T11:25:00Z</time>
</trkpt>
<trkpt lat="35.0115002" lon="33.6358866">
<ele>75.89</ele>
<time>2015-05-02T11:25:02Z</time>
</trkpt>
<trkpt lat="35.0115177" lon="33.6358346">
<ele>75.96</ele>
<time>2015-05-02T11:25:03Z</time>
</trkpt>
<trkpt lat="35.0115609" lon="33.6357485">
<ele>76.00</ele>
<time>2015-05-02T11:25:05Z</time>
</trkpt>
<trkpt lat="35.0116070" lon="33.6356669">
<ele>76.01</ele>
<time>2015-05-02T11:25:07Z</time>
</trkpt>
<trkpt lat="35.0116311" lon="33.6356075">
<ele>77.01</ele>
<time>2015-05-02T11:25:08Z</time>
</trkpt>
<trkpt lat="35.0116498" lon="33.6355558">
<ele>77.52</ele>
<time>2015-05-02T11:25:09Z</time>
</trkpt>
<trkpt lat="35.0116693" lon="33.6355021">
<ele>77.77</ele>
<time>2015-05-02T11:25:10Z</time>
</trkpt>
<trkpt lat="35.0116987" lon="33.6354524">
<ele>77.89</ele>
<time>2015-05-02T11:25:11Z</time>
</trkpt>
<trkpt lat="35.0117410" lon="33.6353556">
<ele>77.73</ele>
<time>2015-05-02T11:25:13Z</time>
</trkpt>
<trkpt lat="35.0117851" lon="33.6352578">
<ele>78.20</ele>
<time>2015-05-02T11:25:15Z</time>
</trkpt>
<trkpt lat="35.0118112" lon="33.6352036">
<ele>78.11</ele>
<time>2015-05-02T11:25:16Z</time>
</trkpt>
<trkpt lat="35.0118327" lon="33.6351532">
<ele>78.56</ele>
<time>2015-05-02T11:25:17Z</time>
</trkpt>
<trkpt lat="35.0118864" lon="33.6350652">
<ele>78.90</ele>
<time>2015-05-02T11:25:19Z</time>
</trkpt>
<trkpt lat="35.0119157" lon="33.6350199">
<ele>78.96</ele>
<time>2015-05-02T11:25:20Z</time>
</trkpt>
<trkpt lat="35.0119627" lon="33.6349261">
<ele>79.50</ele>
<time>2015-05-02T11:25:22Z</time>
</trkpt>
<trkpt lat="35.0120170" lon="33.6348380">
<ele>80.14</ele>
<time>2015-05-02T11:25:24Z</time>
</trkpt>
<trkpt lat="35.0120736" lon="33.6347492">
<ele>80.80</ele>
<time>2015-05-02T11:25:26Z</time>
</trkpt>
<trkpt lat="35.0121186" lon="33.6346736">
<ele>80.96</ele>
<time>2015-05-02T11:25:28Z</time>
</trkpt>
<trkpt lat="35.0121381" lon="33.6346168">
<ele>80.99</ele>
<time>2015-05-02T11:25:29Z</time>
</trkpt>
<trkpt lat="35.0121622" lon="33.6345617">
<ele>81.50</ele>
<time>2015-05-02T11:25:30Z</time>
</trkpt>
<trkpt lat="35.0122122" lon="33.6344702">
<ele>81.39</ele>
<time>2015-05-02T11:25:32Z</time>
</trkpt>
<trkpt lat="35.0122412" lon="33.6344269">
<ele>81.70</ele>
<time>2015-05-02T11:25:33Z</time>
</trkpt>
<trkpt lat="35.0123027" lon="33.6343569">
<ele>81.19</ele>
<time>2015-05-02T11:25:35Z</time>
</trkpt>
<trkpt lat="35.0123669" lon="33.6343030">
<ele>82.31</ele>
<time>2015-05-02T11:25:37Z</time>
</trkpt>
<trkpt lat="35.0124366" lon="33.6342492">
<ele>82.09</ele>
<time>2015-05-02T11:25:39Z</time>
</trkpt>
<trkpt lat="35.0125075" lon="33.6341706">
<ele>82.53</ele>
<time>2015-05-02T11:25:41Z</time>
</trkpt>
<trkpt lat="35.0125472" lon="33.6340678">
<ele>82.15</ele>
<time>2015-05-02T11:25:43Z</time>
</trkpt>
<trkpt lat="35.0125810" lon="33.6340138">
<ele>82.08</ele>
<time>2015-05-02T11:25:44Z</time>
</trkpt>
<trkpt lat="35.0126005" lon="33.6339592">
<ele>81.55</ele>
<time>2015-05-02T11:25:45Z</time>
</trkpt>
<trkpt lat="35.0126136" lon="33.6339006">
<ele>81.28</ele>
<time>2015-05-02T11:25:46Z</time>
</trkpt>
<trkpt lat="35.0126363" lon="33.6338418">
<ele>80.65</ele>
<time>2015-05-02T11:25:47Z</time>
</trkpt>
<trkpt lat="35.0126556" lon="33.6337778">
<ele>80.83</ele>
<time>2015-05-02T11:25:48Z</time>
</trkpt>
<trkpt lat="35.0126953" lon="33.6337276">
<ele>80.92</ele>
<time>2015-05-02T11:25:49Z</time>
</trkpt>
<trkpt lat="35.0127220" lon="33.6336658">
<ele>81.47</ele>
<time>2015-05-02T11:25:50Z</time>
</trkpt>
<trkpt lat="35.0127417" lon="33.6336035">
<ele>81.74</ele>
<time>2015-05-02T11:25:51Z</time>
</trkpt>
<trkpt lat="35.0127673" lon="33.6335310">
<ele>81.38</ele>
<time>2015-05-02T11:25:52Z</time>
</trkpt>
<trkpt lat="35.0127910" lon="33.6334692">
<ele>81.70</ele>
<time>2015-05-02T11:25:53Z</time>
</trkpt>
<trkpt lat="35.0128148" lon="33.6334114">
<ele>81.86</ele>
<time>2015-05-02T11:25:54Z</time>
</trkpt>
<trkpt lat="35.0128328" lon="33.6333547">
<ele>81.94</ele>
<time>2015-05-02T11:25:55Z</time>
</trkpt>
<trkpt lat="35.0128527" lon="33.6332879">
<ele>81.98</ele>
<time>2015-05-02T11:25:56Z</time>
</trkpt>
<trkpt lat="35.0128599" lon="33.6332245">
<ele>82.00</ele>
<time>2015-05-02T11:25:57Z</time>
</trkpt>
<trkpt lat="35.0128913" lon="33.6331651">
<ele>82.51</ele>
<time>2015-05-02T11:25:58Z</time>
</trkpt>
<trkpt lat="35.0129054" lon="33.6330977">
<ele>82.26</ele>
<time>2015-05-02T11:25:59Z</time>
</trkpt>
<trkpt lat="35.0129270" lon="33.6330407">
<ele>82.64</ele>
<time>2015-05-02T11:26:00Z</time>
</trkpt>
<trkpt lat="35.0129557" lon="33.6329790">
<ele>82.83</ele>
<time>2015-05-02T11:26:01Z</time>
</trkpt>
<trkpt lat="35.0129791" lon="33.6329168">
<ele>82.92</ele>
<time>2015-05-02T11:26:02Z</time>
</trkpt>
<trkpt lat="35.0130000" lon="33.6328521">
<ele>82.97</ele>
<time>2015-05-02T11:26:03Z</time>
</trkpt>
<trkpt lat="35.0130227" lon="33.6327956">
<ele>82.99</ele>
<time>2015-05-02T11:26:04Z</time>
</trkpt>
<trkpt lat="35.0130441" lon="33.6327317">
<ele>82.50</ele>
<time>2015-05-02T11:26:05Z</time>
</trkpt>
<trkpt lat="35.0130656" lon="33.6326727">
<ele>82.76</ele>
<time>2015-05-02T11:26:06Z</time>
</trkpt>
<trkpt lat="35.0131254" lon="33.6325853">
<ele>82.45</ele>
<time>2015-05-02T11:26:08Z</time>
</trkpt>
<trkpt lat="35.0131565" lon="33.6324910">
<ele>82.38</ele>
<time>2015-05-02T11:26:10Z</time>
</trkpt>
<trkpt lat="35.0131713" lon="33.6324374">
<ele>82.70</ele>
<time>2015-05-02T11:26:11Z</time>
</trkpt>
<trkpt lat="35.0131981" lon="33.6323403">
<ele>82.19</ele>
<time>2015-05-02T11:26:13Z</time>
</trkpt>
<trkpt lat="35.0132106" lon="33.6322812">
<ele>82.10</ele>
<time>2015-05-02T11:26:14Z</time>
</trkpt>
<trkpt lat="35.0132380" lon="33.6321778">
<ele>81.29</ele>
<time>2015-05-02T11:26:16Z</time>
</trkpt>
<trkpt lat="35.0132692" lon="33.6321218">
<ele>81.65</ele>
<time>2015-05-02T11:26:17Z</time>
</trkpt>
<trkpt lat="35.0132810" lon="33.6320646">
<ele>81.33</ele>
<time>2015-05-02T11:26:18Z</time>
</trkpt>
<trkpt lat="35.0132928" lon="33.6320060">
<ele>81.67</ele>
<time>2015-05-02T11:26:19Z</time>
</trkpt>
<trkpt lat="35.0133034" lon="33.6319430">
<ele>81.35</ele>
<time>2015-05-02T11:26:20Z</time>
</trkpt>
<trkpt lat="35.0133149" lon="33.6318786">
<ele>81.18</ele>
<time>2015-05-02T11:26:21Z</time>
</trkpt>
<trkpt lat="35.0133232" lon="33.6318157">
<ele>81.10</ele>
<time>2015-05-02T11:26:22Z</time>
</trkpt>
<trkpt lat="35.0133368" lon="33.6317594">
<ele>81.06</ele>
<time>2015-05-02T11:26:23Z</time>
</trkpt>
<trkpt lat="35.0133445" lon="33.6316937">
<ele>81.04</ele>
<time>2015-05-02T11:26:24Z</time>
</trkpt>
<trkpt lat="35.0133553" lon="33.6316344">
<ele>81.03</ele>
<time>2015-05-02T11:26:25Z</time>
</trkpt>
<trkpt lat="35.0133638" lon="33.6315768">
<ele>81.02</ele>
<time>2015-05-02T11:26:26Z</time>
</trkpt>
<trkpt lat="35.0133873" lon="33.6314779">
<ele>81.02</ele>
<time>2015-05-02T11:26:28Z</time>
</trkpt>
<trkpt lat="35.0133902" lon="33.6314222">
<ele>81.02</ele>
<time>2015-05-02T11:26:29Z</time>
</trkpt>
<trkpt lat="35.0133976" lon="33.6313637">
<ele>81.52</ele>
<time>2015-05-02T11:26:30Z</time>
</trkpt>
<trkpt lat="35.0134129" lon="33.6312505">
<ele>81.39</ele>
<time>2015-05-02T11:26:32Z</time>
</trkpt>
<trkpt lat="35.0134237" lon="33.6311474">
<ele>81.36</ele>
<time>2015-05-02T11:26:34Z</time>
</trkpt>
<trkpt lat="35.0134336" lon="33.6310410">
<ele>81.10</ele>
<time>2015-05-02T11:26:36Z</time>
</trkpt>
<trkpt lat="35.0134440" lon="33.6309823">
<ele>81.56</ele>
<time>2015-05-02T11:26:37Z</time>
</trkpt>
<trkpt lat="35.0134508" lon="33.6309183">
<ele>81.29</ele>
<time>2015-05-02T11:26:38Z</time>
</trkpt>
<trkpt lat="35.0134581" lon="33.6308500">
<ele>81.65</ele>
<time>2015-05-02T11:26:39Z</time>
</trkpt>
<trkpt lat="35.0134550" lon="33.6307856">
<ele>81.33</ele>
<time>2015-05-02T11:26:40Z</time>
</trkpt>
<trkpt lat="35.0134551" lon="33.6307139">
<ele>81.17</ele>
<time>2015-05-02T11:26:41Z</time>
</trkpt>
<trkpt lat="35.0134569" lon="33.6306474">
<ele>81.10</ele>
<time>2015-05-02T11:26:42Z</time>
</trkpt>
<trkpt lat="35.0134650" lon="33.6305863">
<ele>81.56</ele>
<time>2015-05-02T11:26:43Z</time>
</trkpt>
<trkpt lat="35.0134578" lon="33.6305254">
<ele>81.79</ele>
<time>2015-05-02T11:26:44Z</time>
</trkpt>
<trkpt lat="35.0134518" lon="33.6304691">
<ele>82.40</ele>
<time>2015-05-02T11:26:45Z</time>
</trkpt>
<trkpt lat="35.0134394" lon="33.6303635">
<ele>82.11</ele>
<time>2015-05-02T11:26:47Z</time>
</trkpt>
<trkpt lat="35.0134592" lon="33.6302639">
<ele>82.29</ele>
<time>2015-05-02T11:26:49Z</time>
</trkpt>
<trkpt lat="35.0134500" lon="33.6301592">
<ele>82.08</ele>
<time>2015-05-02T11:26:51Z</time>
</trkpt>
<trkpt lat="35.0134423" lon="33.6300637">
<ele>82.03</ele>
<time>2015-05-02T11:26:53Z</time>
</trkpt>
<trkpt lat="35.0134449" lon="33.6299908">
<ele>81.52</ele>
<time>2015-05-02T11:26:55Z</time>
</trkpt>
<trkpt lat="35.0134405" lon="33.6299061">
<ele>81.89</ele>
<time>2015-05-02T11:26:57Z</time>
</trkpt>
<trkpt lat="35.0134407" lon="33.6298094">
<ele>81.49</ele>
<time>2015-05-02T11:26:59Z</time>
</trkpt>
<trkpt lat="35.0134454" lon="33.6297096">
<ele>81.13</ele>
<time>2015-05-02T11:27:01Z</time>
</trkpt>
<trkpt lat="35.0134579" lon="33.6296567">
<ele>81.07</ele>
<time>2015-05-02T11:27:02Z</time>
</trkpt>
<trkpt lat="35.0134629" lon="33.6295874">
<ele>81.55</ele>
<time>2015-05-02T11:27:03Z</time>
</trkpt>
<trkpt lat="35.0134701" lon="33.6295204">
<ele>82.28</ele>
<time>2015-05-02T11:27:04Z</time>
</trkpt>
<trkpt lat="35.0134826" lon="33.6294471">
<ele>82.15</ele>
<time>2015-05-02T11:27:05Z</time>
</trkpt>
<trkpt lat="35.0134847" lon="33.6293733">
<ele>82.08</ele>
<time>2015-05-02T11:27:06Z</time>
</trkpt>
<trkpt lat="35.0134926" lon="33.6293090">
<ele>82.55</ele>
<time>2015-05-02T11:27:07Z</time>
</trkpt>
<trkpt lat="35.0135106" lon="33.6292257">
<ele>82.28</ele>
<time>2015-05-02T11:27:08Z</time>
</trkpt>
<trkpt lat="35.0135123" lon="33.6291517">
<ele>82.15</ele>
<time>2015-05-02T11:27:09Z</time>
</trkpt>
<trkpt lat="35.0135270" lon="33.6290820">
<ele>81.58</ele>
<time>2015-05-02T11:27:10Z</time>
</trkpt>
<trkpt lat="35.0135367" lon="33.6290152">
<ele>81.30</ele>
<time>2015-05-02T11:27:11Z</time>
</trkpt>
<trkpt lat="35.0135513" lon="33.6289566">
<ele>81.66</ele>
<time>2015-05-02T11:27:12Z</time>
</trkpt>
<trkpt lat="35.0135619" lon="33.6289031">
<ele>81.34</ele>
<time>2015-05-02T11:27:13Z</time>
</trkpt>
<trkpt lat="35.0135761" lon="33.6288423">
<ele>81.68</ele>
<time>2015-05-02T11:27:14Z</time>
</trkpt>
<trkpt lat="35.0135927" lon="33.6287814">
<ele>81.85</ele>
<time>2015-05-02T11:27:15Z</time>
</trkpt>
<trkpt lat="35.0136301" lon="33.6286867">
<ele>81.47</ele>
<time>2015-05-02T11:27:17Z</time>
</trkpt>
<trkpt lat="35.0136506" lon="33.6286356">
<ele>81.24</ele>
<time>2015-05-02T11:27:18Z</time>
</trkpt>
<trkpt lat="35.0136714" lon="33.6285811">
<ele>81.13</ele>
<time>2015-05-02T11:27:19Z</time>
</trkpt>
<trkpt lat="35.0136901" lon="33.6285230">
<ele>80.57</ele>
<time>2015-05-02T11:27:20Z</time>
</trkpt>
<trkpt lat="35.0137108" lon="33.6284722">
<ele>80.29</ele>
<time>2015-05-02T11:27:21Z</time>
</trkpt>
<trkpt lat="35.0137429" lon="33.6283979">
<ele>80.59</ele>
<time>2015-05-02T11:27:23Z</time>
</trkpt>
<trkpt lat="35.0137780" lon="33.6282999">
<ele>81.66</ele>
<time>2015-05-02T11:27:25Z</time>
</trkpt>
<trkpt lat="35.0137994" lon="33.6282085">
<ele>82.68</ele>
<time>2015-05-02T11:27:27Z</time>
</trkpt>
<trkpt lat="35.0138171" lon="33.6281298">
<ele>83.43</ele>
<time>2015-05-02T11:27:29Z</time>
</trkpt>
<trkpt lat="35.0138322" lon="33.6280519">
<ele>84.37</ele>
<time>2015-05-02T11:27:31Z</time>
</trkpt>
<trkpt lat="35.0138536" lon="33.6279812">
<ele>84.85</ele>
<time>2015-05-02T11:27:33Z</time>
</trkpt>
<trkpt lat="35.0138728" lon="33.6279172">
<ele>85.73</ele>
<time>2015-05-02T11:27:35Z</time>
</trkpt>
<trkpt lat="35.0138900" lon="33.6278641">
<ele>85.94</ele>
<time>2015-05-02T11:27:37Z</time>
</trkpt>
<trkpt lat="35.0139054" lon="33.6278102">
<ele>86.50</ele>
<time>2015-05-02T11:27:39Z</time>
</trkpt>
<trkpt lat="35.0139173" lon="33.6277563">
<ele>86.89</ele>
<time>2015-05-02T11:27:41Z</time>
</trkpt>
<trkpt lat="35.0139296" lon="33.6277022">
<ele>86.98</ele>
<time>2015-05-02T11:27:43Z</time>
</trkpt>
<trkpt lat="35.0139441" lon="33.6276460">
<ele>87.01</ele>
<time>2015-05-02T11:27:45Z</time>
</trkpt>
<trkpt lat="35.0139619" lon="33.6275766">
<ele>87.51</ele>
<time>2015-05-02T11:27:47Z</time>
</trkpt>
<trkpt lat="35.0139805" lon="33.6275024">
<ele>87.89</ele>
<time>2015-05-02T11:27:49Z</time>
</trkpt>
<trkpt lat="35.0139965" lon="33.6274326">
<ele>87.98</ele>
<time>2015-05-02T11:27:51Z</time>
</trkpt>
<trkpt lat="35.0140071" lon="33.6273638">
<ele>88.01</ele>
<time>2015-05-02T11:27:53Z</time>
</trkpt>
<trkpt lat="35.0140214" lon="33.6272943">
<ele>88.01</ele>
<time>2015-05-02T11:27:55Z</time>
</trkpt>
<trkpt lat="35.0140315" lon="33.6272259">
<ele>87.77</ele>
<time>2015-05-02T11:27:57Z</time>
</trkpt>
<trkpt lat="35.0140341" lon="33.6271620">
<ele>87.95</ele>
<time>2015-05-02T11:27:59Z</time>
</trkpt>
<trkpt lat="35.0140320" lon="33.6270980">
<ele>88.00</ele>
<time>2015-05-02T11:28:01Z</time>
</trkpt>
<trkpt lat="35.0140346" lon="33.6270270">
<ele>87.51</ele>
<time>2015-05-02T11:28:03Z</time>
</trkpt>
<trkpt lat="35.0140356" lon="33.6269515">
<ele>87.14</ele>
<time>2015-05-02T11:28:05Z</time>
</trkpt>
<trkpt lat="35.0140364" lon="33.6268793">
<ele>87.05</ele>
<time>2015-05-02T11:28:07Z</time>
</trkpt>
<trkpt lat="35.0140382" lon="33.6268118">
<ele>87.02</ele>
<time>2015-05-02T11:28:09Z</time>
</trkpt>
<trkpt lat="35.0140405" lon="33.6267403">
<ele>87.77</ele>
<time>2015-05-02T11:28:11Z</time>
</trkpt>
<trkpt lat="35.0140454" lon="33.6266645">
<ele>87.95</ele>
<time>2015-05-02T11:28:13Z</time>
</trkpt>
<trkpt lat="35.0140488" lon="33.6265939">
<ele>88.00</ele>
<time>2015-05-02T11:28:15Z</time>
</trkpt>
<trkpt lat="35.0140504" lon="33.6265104">
<ele>88.01</ele>
<time>2015-05-02T11:28:18Z</time>
</trkpt>
<trkpt lat="35.0140542" lon="33.6264463">
<ele>88.02</ele>
<time>2015-05-02T11:28:20Z</time>
</trkpt>
<trkpt lat="35.0140606" lon="33.6263607">
<ele>88.02</ele>
<time>2015-05-02T11:28:22Z</time>
</trkpt>
<trkpt lat="35.0140684" lon="33.6262621">
<ele>88.02</ele>
<time>2015-05-02T11:28:24Z</time>
</trkpt>
<trkpt lat="35.0140722" lon="33.6261552">
<ele>88.02</ele>
<time>2015-05-02T11:28:26Z</time>
</trkpt>
<trkpt lat="35.0140788" lon="33.6260472">
<ele>88.02</ele>
<time>2015-05-02T11:28:28Z</time>
</trkpt>
<trkpt lat="35.0140920" lon="33.6259687">
<ele>88.02</ele>
<time>2015-05-02T11:28:29Z</time>
</trkpt>
<trkpt lat="35.0140997" lon="33.6259135">
<ele>88.02</ele>
<time>2015-05-02T11:28:30Z</time>
</trkpt>
<trkpt lat="35.0141081" lon="33.6258500">
<ele>88.52</ele>
<time>2015-05-02T11:28:31Z</time>
</trkpt>
<trkpt lat="35.0141168" lon="33.6257901">
<ele>88.77</ele>
<time>2015-05-02T11:28:32Z</time>
</trkpt>
<trkpt lat="35.0141434" lon="33.6256842">
<ele>89.70</ele>
<time>2015-05-02T11:28:34Z</time>
</trkpt>
<trkpt lat="35.0141558" lon="33.6256250">
<ele>89.86</ele>
<time>2015-05-02T11:28:35Z</time>
</trkpt>
<trkpt lat="35.0141696" lon="33.6255679">
<ele>89.94</ele>
<time>2015-05-02T11:28:36Z</time>
</trkpt>
<trkpt lat="35.0141849" lon="33.6255105">
<ele>89.98</ele>
<time>2015-05-02T11:28:37Z</time>
</trkpt>
<trkpt lat="35.0142046" lon="33.6254573">
<ele>90.00</ele>
<time>2015-05-02T11:28:38Z</time>
</trkpt>
<trkpt lat="35.0142263" lon="33.6253950">
<ele>90.51</ele>
<time>2015-05-02T11:28:39Z</time>
</trkpt>
<trkpt lat="35.0142413" lon="33.6253394">
<ele>90.76</ele>
<time>2015-05-02T11:28:40Z</time>
</trkpt>
<trkpt lat="35.0142736" lon="33.6252230">
<ele>90.70</ele>
<time>2015-05-02T11:28:42Z</time>
</trkpt>
<trkpt lat="35.0142935" lon="33.6251691">
<ele>90.86</ele>
<time>2015-05-02T11:28:43Z</time>
</trkpt>
<trkpt lat="35.0143104" lon="33.6251123">
<ele>90.94</ele>
<time>2015-05-02T11:28:44Z</time>
</trkpt>
<trkpt lat="35.0143246" lon="33.6250462">
<ele>90.98</ele>
<time>2015-05-02T11:28:45Z</time>
</trkpt>
<trkpt lat="35.0143308" lon="33.6249906">
<ele>91.00</ele>
<time>2015-05-02T11:28:46Z</time>
</trkpt>
<trkpt lat="35.0143476" lon="33.6249338">
<ele>91.01</ele>
<time>2015-05-02T11:28:47Z</time>
</trkpt>
<trkpt lat="35.0143662" lon="33.6248826">
<ele>91.01</ele>
<time>2015-05-02T11:28:48Z</time>
</trkpt>
<trkpt lat="35.0143915" lon="33.6247754">
<ele>91.01</ele>
<time>2015-05-02T11:28:50Z</time>
</trkpt>
<trkpt lat="35.0144001" lon="33.6247190">
<ele>91.02</ele>
<time>2015-05-02T11:28:51Z</time>
</trkpt>
<trkpt lat="35.0144072" lon="33.6246595">
<ele>91.02</ele>
<time>2015-05-02T11:28:52Z</time>
</trkpt>
<trkpt lat="35.0144121" lon="33.6245992">
<ele>91.52</ele>
<time>2015-05-02T11:28:53Z</time>
</trkpt>
<trkpt lat="35.0144214" lon="33.6245434">
<ele>91.77</ele>
<time>2015-05-02T11:28:54Z</time>
</trkpt>
<trkpt lat="35.0144311" lon="33.6244816">
<ele>91.89</ele>
<time>2015-05-02T11:28:55Z</time>
</trkpt>
<trkpt lat="35.0144416" lon="33.6244235">
<ele>91.95</ele>
<time>2015-05-02T11:28:56Z</time>
</trkpt>
<trkpt lat="35.0144655" lon="33.6243078">
<ele>92.00</ele>
<time>2015-05-02T11:28:58Z</time>
</trkpt>
<trkpt lat="35.0144728" lon="33.6242481">
<ele>92.51</ele>
<time>2015-05-02T11:28:59Z</time>
</trkpt>
<trkpt lat="35.0144844" lon="33.6241865">
<ele>92.76</ele>
<time>2015-05-02T11:29:00Z</time>
</trkpt>
<trkpt lat="35.0144835" lon="33.6241248">
<ele>92.89</ele>
<time>2015-05-02T11:29:01Z</time>
</trkpt>
<trkpt lat="35.0144802" lon="33.6240666">
<ele>92.95</ele>
<time>2015-05-02T11:29:02Z</time>
</trkpt>
<trkpt lat="35.0144805" lon="33.6240018">
<ele>92.98</ele>
<time>2015-05-02T11:29:03Z</time>
</trkpt>
<trkpt lat="35.0144801" lon="33.6239004">
<ele>92.26</ele>
<time>2015-05-02T11:29:05Z</time>
</trkpt>
<trkpt lat="35.0144589" lon="33.6237927">
<ele>91.58</ele>
<time>2015-05-02T11:29:07Z</time>
</trkpt>
<trkpt lat="35.0144523" lon="33.6236897">
<ele>93.16</ele>
<time>2015-05-02T11:29:09Z</time>
</trkpt>
<trkpt lat="35.0144458" lon="33.6235962">
<ele>93.05</ele>
<time>2015-05-02T11:29:11Z</time>
</trkpt>
<trkpt lat="35.0144431" lon="33.6235366">
<ele>93.03</ele>
<time>2015-05-02T11:29:12Z</time>
</trkpt>
<trkpt lat="35.0144342" lon="33.6234324">
<ele>92.27</ele>
<time>2015-05-02T11:29:14Z</time>
</trkpt>
<trkpt lat="35.0144398" lon="33.6233718">
<ele>92.64</ele>
<time>2015-05-02T11:29:15Z</time>
</trkpt>
<trkpt lat="35.0144435" lon="33.6232923">
<ele>92.33</ele>
<time>2015-05-02T11:29:16Z</time>
</trkpt>
<trkpt lat="35.0144529" lon="33.6232298">
<ele>91.67</ele>
<time>2015-05-02T11:29:17Z</time>
</trkpt>
<trkpt lat="35.0144787" lon="33.6231646">
<ele>91.34</ele>
<time>2015-05-02T11:29:18Z</time>
</trkpt>
<trkpt lat="35.0145240" lon="33.6230645">
<ele>90.35</ele>
<time>2015-05-02T11:29:20Z</time>
</trkpt>
<trkpt lat="35.0145622" lon="33.6230038">
<ele>89.68</ele>
<time>2015-05-02T11:29:21Z</time>
</trkpt>
<trkpt lat="35.0145911" lon="33.6229506">
<ele>89.35</ele>
<time>2015-05-02T11:29:22Z</time>
</trkpt>
<trkpt lat="35.0146182" lon="33.6228903">
<ele>89.18</ele>
<time>2015-05-02T11:29:23Z</time>
</trkpt>
<trkpt lat="35.0146553" lon="33.6228422">
<ele>89.10</ele>
<time>2015-05-02T11:29:24Z</time>
</trkpt>
<trkpt lat="35.0146925" lon="33.6227880">
<ele>89.06</ele>
<time>2015-05-02T11:29:25Z</time>
</trkpt>
<trkpt lat="35.0147392" lon="33.6227069">
<ele>89.03</ele>
<time>2015-05-02T11:29:27Z</time>
</trkpt>
<trkpt lat="35.0147864" lon="33.6226323">
<ele>89.27</ele>
<time>2015-05-02T11:29:29Z</time>
</trkpt>
<trkpt lat="35.0148227" lon="33.6225651">
<ele>89.58</ele>
<time>2015-05-02T11:29:31Z</time>
</trkpt>
<trkpt lat="35.0148589" lon="33.6224844">
<ele>89.91</ele>
<time>2015-05-02T11:29:33Z</time>
</trkpt>
<trkpt lat="35.0148840" lon="33.6224378">
<ele>89.46</ele>
<time>2015-05-02T11:29:34Z</time>
</trkpt>
<trkpt lat="35.0149285" lon="33.6223511">
<ele>89.13</ele>
<time>2015-05-02T11:29:36Z</time>
</trkpt>
<trkpt lat="35.0149747" lon="33.6222614">
<ele>89.29</ele>
<time>2015-05-02T11:29:38Z</time>
</trkpt>
<trkpt lat="35.0150270" lon="33.6221544">
<ele>89.59</ele>
<time>2015-05-02T11:29:40Z</time>
</trkpt>
<trkpt lat="35.0150508" lon="33.6221062">
<ele>89.30</ele>
<time>2015-05-02T11:29:41Z</time>
</trkpt>
<trkpt lat="35.0150811" lon="33.6220233">
<ele>90.34</ele>
<time>2015-05-02T11:29:43Z</time>
</trkpt>
<trkpt lat="35.0150924" lon="33.6219256">
<ele>92.10</ele>
<time>2015-05-02T11:29:45Z</time>
</trkpt>
<trkpt lat="35.0150844" lon="33.6218533">
<ele>93.54</ele>
<time>2015-05-02T11:29:47Z</time>
</trkpt>
<trkpt lat="35.0150981" lon="33.6217857">
<ele>94.46</ele>
<time>2015-05-02T11:29:50Z</time>
</trkpt>
<trkpt lat="35.0151504" lon="33.6217782">
<ele>94.82</ele>
<time>2015-05-02T11:29:53Z</time>
</trkpt>
<trkpt lat="35.0152038" lon="33.6217743">
<ele>94.12</ele>
<time>2015-05-02T11:29:56Z</time>
</trkpt>
<trkpt lat="35.0152480" lon="33.6217492">
<ele>94.28</ele>
<time>2015-05-02T11:29:59Z</time>
</trkpt>
<trkpt lat="35.0152911" lon="33.6217095">
<ele>93.16</ele>
<time>2015-05-02T11:30:03Z</time>
</trkpt>
<trkpt lat="35.0153226" lon="33.6216602">
<ele>93.03</ele>
<time>2015-05-02T11:30:06Z</time>
</trkpt>
<trkpt lat="35.0153646" lon="33.6216254">
<ele>92.52</ele>
<time>2015-05-02T11:30:09Z</time>
</trkpt>
<trkpt lat="35.0154118" lon="33.6216108">
<ele>93.70</ele>
<time>2015-05-02T11:30:12Z</time>
</trkpt>
<trkpt lat="35.0154569" lon="33.6215948">
<ele>93.85</ele>
<time>2015-05-02T11:30:15Z</time>
</trkpt>
<trkpt lat="35.0155014" lon="33.6215797">
<ele>93.13</ele>
<time>2015-05-02T11:30:19Z</time>
</trkpt>
<trkpt lat="35.0155495" lon="33.6215614">
<ele>92.66</ele>
<time>2015-05-02T11:30:22Z</time>
</trkpt>
<trkpt lat="35.0155985" lon="33.6215446">
<ele>93.43</ele>
<time>2015-05-02T11:30:24Z</time>
</trkpt>
<trkpt lat="35.0156479" lon="33.6215306">
<ele>94.12</ele>
<time>2015-05-02T11:30:26Z</time>
</trkpt>
<trkpt lat="35.0156952" lon="33.6215165">
<ele>94.04</ele>
<time>2015-05-02T11:30:28Z</time>
</trkpt>
<trkpt lat="35.0157437" lon="33.6215046">
<ele>93.52</ele>
<time>2015-05-02T11:30:30Z</time>
</trkpt>
<trkpt lat="35.0158003" lon="33.6214910">
<ele>93.14</ele>
<time>2015-05-02T11:30:32Z</time>
</trkpt>
<trkpt lat="35.0158584" lon="33.6214740">
<ele>93.05</ele>
<time>2015-05-02T11:30:34Z</time>
</trkpt>
<trkpt lat="35.0159156" lon="33.6214546">
<ele>94.02</ele>
<time>2015-05-02T11:30:36Z</time>
</trkpt>
<trkpt lat="35.0159775" lon="33.6214379">
<ele>94.77</ele>
<time>2015-05-02T11:30:38Z</time>
</trkpt>
<trkpt lat="35.0160523" lon="33.6214210">
<ele>95.95</ele>
<time>2015-05-02T11:30:40Z</time>
</trkpt>
<trkpt lat="35.0161407" lon="33.6214078">
<ele>97.25</ele>
<time>2015-05-02T11:30:42Z</time>
</trkpt>
<trkpt lat="35.0162192" lon="33.6213989">
<ele>97.57</ele>
<time>2015-05-02T11:30:44Z</time>
</trkpt>
<trkpt lat="35.0163150" lon="33.6213821">
<ele>96.66</ele>
<time>2015-05-02T11:30:46Z</time>
</trkpt>
<trkpt lat="35.0163608" lon="33.6213776">
<ele>96.34</ele>
<time>2015-05-02T11:30:47Z</time>
</trkpt>
<trkpt lat="35.0164420" lon="33.6213674">
<ele>95.35</ele>
<time>2015-05-02T11:30:49Z</time>
</trkpt>
<trkpt lat="35.0164926" lon="33.6213634">
<ele>95.18</ele>
<time>2015-05-02T11:30:50Z</time>
</trkpt>
<trkpt lat="35.0165827" lon="33.6213569">
<ele>94.31</ele>
<time>2015-05-02T11:30:52Z</time>
</trkpt>
<trkpt lat="35.0166322" lon="33.6213562">
<ele>94.16</ele>
<time>2015-05-02T11:30:53Z</time>
</trkpt>
<trkpt lat="35.0166799" lon="33.6213593">
<ele>94.09</ele>
<time>2015-05-02T11:30:54Z</time>
</trkpt>
<trkpt lat="35.0167284" lon="33.6213586">
<ele>93.55</ele>
<time>2015-05-02T11:30:55Z</time>
</trkpt>
<trkpt lat="35.0168127" lon="33.6213698">
<ele>93.15</ele>
<time>2015-05-02T11:30:57Z</time>
</trkpt>
<trkpt lat="35.0168663" lon="33.6213707">
<ele>93.08</ele>
<time>2015-05-02T11:30:58Z</time>
</trkpt>
<trkpt lat="35.0169125" lon="33.6213739">
<ele>92.55</ele>
<time>2015-05-02T11:30:59Z</time>
</trkpt>
<trkpt lat="35.0169640" lon="33.6213757">
<ele>92.28</ele>
<time>2015-05-02T11:31:00Z</time>
</trkpt>
<trkpt lat="35.0170203" lon="33.6213736">
<ele>92.15</ele>
<time>2015-05-02T11:31:01Z</time>
</trkpt>
<trkpt lat="35.0170738" lon="33.6213756">
<ele>92.08</ele>
<time>2015-05-02T11:31:02Z</time>
</trkpt>
<trkpt lat="35.0171314" lon="33.6213862">
<ele>92.05</ele>
<time>2015-05-02T11:31:03Z</time>
</trkpt>
<trkpt lat="35.0171853" lon="33.6213888">
<ele>92.03</ele>
<time>2015-05-02T11:31:04Z</time>
</trkpt>
<trkpt lat="35.0172310" lon="33.6213900">
<ele>92.52</ele>
<time>2015-05-02T11:31:05Z</time>
</trkpt>
<trkpt lat="35.0172879" lon="33.6213954">
<ele>92.27</ele>
<time>2015-05-02T11:31:06Z</time>
</trkpt>
<trkpt lat="35.0173779" lon="33.6214052">
<ele>92.08</ele>
<time>2015-05-02T11:31:08Z</time>
</trkpt>
<trkpt lat="35.0174293" lon="33.6214097">
<ele>91.55</ele>
<time>2015-05-02T11:31:09Z</time>
</trkpt>
<trkpt lat="35.0174806" lon="33.6214167">
<ele>91.28</ele>
<time>2015-05-02T11:31:10Z</time>
</trkpt>
<trkpt lat="35.0175322" lon="33.6214218">
<ele>91.15</ele>
<time>2015-05-02T11:31:11Z</time>
</trkpt>
<trkpt lat="35.0175867" lon="33.6214260">
<ele>91.58</ele>
<time>2015-05-02T11:31:12Z</time>
</trkpt>
<trkpt lat="35.0176380" lon="33.6214322">
<ele>91.80</ele>
<time>2015-05-02T11:31:13Z</time>
</trkpt>
<trkpt lat="35.0177036" lon="33.6214350">
<ele>91.41</ele>
<time>2015-05-02T11:31:14Z</time>
</trkpt>
<trkpt lat="35.0177551" lon="33.6214458">
<ele>91.21</ele>
<time>2015-05-02T11:31:15Z</time>
</trkpt>
<trkpt lat="35.0178099" lon="33.6214467">
<ele>91.11</ele>
<time>2015-05-02T11:31:16Z</time>
</trkpt>
<trkpt lat="35.0178703" lon="33.6214513">
<ele>91.06</ele>
<time>2015-05-02T11:31:17Z</time>
</trkpt>
<trkpt lat="35.0179258" lon="33.6214553">
<ele>91.04</ele>
<time>2015-05-02T11:31:18Z</time>
</trkpt>
<trkpt lat="35.0179909" lon="33.6214621">
<ele>91.03</ele>
<time>2015-05-02T11:31:19Z</time>
</trkpt>
<trkpt lat="35.0180411" lon="33.6214648">
<ele>91.02</ele>
<time>2015-05-02T11:31:20Z</time>
</trkpt>
<trkpt lat="35.0180914" lon="33.6214621">
<ele>91.02</ele>
<time>2015-05-02T11:31:21Z</time>
</trkpt>
<trkpt lat="35.0181464" lon="33.6214633">
<ele>91.02</ele>
<time>2015-05-02T11:31:22Z</time>
</trkpt>
<trkpt lat="35.0181991" lon="33.6214679">
<ele>91.02</ele>
<time>2015-05-02T11:31:23Z</time>
</trkpt>
<trkpt lat="35.0182615" lon="33.6214644">
<ele>91.02</ele>
<time>2015-05-02T11:31:24Z</time>
</trkpt>
<trkpt lat="35.0183268" lon="33.6214562">
<ele>91.02</ele>
<time>2015-05-02T11:31:25Z</time>
</trkpt>
<trkpt lat="35.0183851" lon="33.6214522">
<ele>90.52</ele>
<time>2015-05-02T11:31:26Z</time>
</trkpt>
<trkpt lat="35.0184517" lon="33.6214464">
<ele>90.27</ele>
<time>2015-05-02T11:31:27Z</time>
</trkpt>
<trkpt lat="35.0185146" lon="33.6214428">
<ele>90.14</ele>
<time>2015-05-02T11:31:28Z</time>
</trkpt>
<trkpt lat="35.0185723" lon="33.6214355">
<ele>90.08</ele>
<time>2015-05-02T11:31:29Z</time>
</trkpt>
<trkpt lat="35.0186340" lon="33.6214294">
<ele>90.05</ele>
<time>2015-05-02T11:31:30Z</time>
</trkpt>
<trkpt lat="35.0186825" lon="33.6214224">
<ele>90.03</ele>
<time>2015-05-02T11:31:31Z</time>
</trkpt>
<trkpt lat="35.0187386" lon="33.6214147">
<ele>90.02</ele>
<time>2015-05-02T11:31:32Z</time>
</trkpt>
<trkpt lat="35.0187955" lon="33.6214009">
<ele>90.02</ele>
<time>2015-05-02T11:31:33Z</time>
</trkpt>
<trkpt lat="35.0188459" lon="33.6213898">
<ele>90.02</ele>
<time>2015-05-02T11:31:34Z</time>
</trkpt>
<trkpt lat="35.0189028" lon="33.6213826">
<ele>90.02</ele>
<time>2015-05-02T11:31:35Z</time>
</trkpt>
<trkpt lat="35.0189561" lon="33.6213698">
<ele>90.02</ele>
<time>2015-05-02T11:31:36Z</time>
</trkpt>
<trkpt lat="35.0190025" lon="33.6213609">
<ele>90.02</ele>
<time>2015-05-02T11:31:37Z</time>
</trkpt>
<trkpt lat="35.0190550" lon="33.6213487">
<ele>90.02</ele>
<time>2015-05-02T11:31:38Z</time>
</trkpt>
<trkpt lat="35.0191009" lon="33.6213379">
<ele>90.02</ele>
<time>2015-05-02T11:31:39Z</time>
</trkpt>
<trkpt lat="35.0191529" lon="33.6213272">
<ele>90.02</ele>
<time>2015-05-02T11:31:40Z</time>
</trkpt>
<trkpt lat="35.0192146" lon="33.6213185">
<ele>90.52</ele>
<time>2015-05-02T11:31:41Z</time>
</trkpt>
<trkpt lat="35.0192686" lon="33.6213120">
<ele>90.27</ele>
<time>2015-05-02T11:31:42Z</time>
</trkpt>
<trkpt lat="35.0193329" lon="33.6213004">
<ele>90.14</ele>
<time>2015-05-02T11:31:43Z</time>
</trkpt>
<trkpt lat="35.0193913" lon="33.6212858">
<ele>90.08</ele>
<time>2015-05-02T11:31:44Z</time>
</trkpt>
<trkpt lat="35.0194434" lon="33.6212748">
<ele>90.05</ele>
<time>2015-05-02T11:31:45Z</time>
</trkpt>
<trkpt lat="35.0195014" lon="33.6212624">
<ele>90.03</ele>
<time>2015-05-02T11:31:46Z</time>
</trkpt>
<trkpt lat="35.0195472" lon="33.6212513">
<ele>90.52</ele>
<time>2015-05-02T11:31:47Z</time>
</trkpt>
<trkpt lat="35.0195957" lon="33.6212472">
<ele>90.77</ele>
<time>2015-05-02T11:31:48Z</time>
</trkpt>
<trkpt lat="35.0196421" lon="33.6212429">
<ele>90.89</ele>
<time>2015-05-02T11:31:49Z</time>
</trkpt>
<trkpt lat="35.0196955" lon="33.6212408">
<ele>90.95</ele>
<time>2015-05-02T11:31:50Z</time>
</trkpt>
<trkpt lat="35.0197478" lon="33.6212302">
<ele>90.49</ele>
<time>2015-05-02T11:31:51Z</time>
</trkpt>
<trkpt lat="35.0197987" lon="33.6212257">
<ele>90.25</ele>
<time>2015-05-02T11:31:52Z</time>
</trkpt>
<trkpt lat="35.0198542" lon="33.6212192">
<ele>89.63</ele>
<time>2015-05-02T11:31:53Z</time>
</trkpt>
<trkpt lat="35.0199189" lon="33.6212150">
<ele>89.82</ele>
<time>2015-05-02T11:31:54Z</time>
</trkpt>
<trkpt lat="35.0199720" lon="33.6212106">
<ele>90.42</ele>
<time>2015-05-02T11:31:55Z</time>
</trkpt>
<trkpt lat="35.0200371" lon="33.6212138">
<ele>90.72</ele>
<time>2015-05-02T11:31:56Z</time>
</trkpt>
<trkpt lat="35.0201080" lon="33.6212236">
<ele>90.87</ele>
<time>2015-05-02T11:31:57Z</time>
</trkpt>
<trkpt lat="35.0201685" lon="33.6212235">
<ele>90.94</ele>
<time>2015-05-02T11:31:58Z</time>
</trkpt>
<trkpt lat="35.0202370" lon="33.6212172">
<ele>90.98</ele>
<time>2015-05-02T11:31:59Z</time>
</trkpt>
<trkpt lat="35.0203026" lon="33.6212205">
<ele>91.00</ele>
<time>2015-05-02T11:32:00Z</time>
</trkpt>
<trkpt lat="35.0203592" lon="33.6212289">
<ele>91.01</ele>
<time>2015-05-02T11:32:01Z</time>
</trkpt>
<trkpt lat="35.0204202" lon="33.6212336">
<ele>91.01</ele>
<time>2015-05-02T11:32:02Z</time>
</trkpt>
<trkpt lat="35.0204758" lon="33.6212375">
<ele>91.01</ele>
<time>2015-05-02T11:32:03Z</time>
</trkpt>
<trkpt lat="35.0205291" lon="33.6212406">
<ele>91.01</ele>
<time>2015-05-02T11:32:04Z</time>
</trkpt>
<trkpt lat="35.0205802" lon="33.6212429">
<ele>90.52</ele>
<time>2015-05-02T11:32:05Z</time>
</trkpt>
<trkpt lat="35.0206270" lon="33.6212398">
<ele>90.89</ele>
<time>2015-05-02T11:32:07Z</time>
</trkpt>
<trkpt lat="35.0206758" lon="33.6212424">
<ele>90.75</ele>
<time>2015-05-02T11:32:10Z</time>
</trkpt>
<trkpt lat="35.0207342" lon="33.6212500">
<ele>91.23</ele>
<time>2015-05-02T11:32:13Z</time>
</trkpt>
<trkpt lat="35.0207797" lon="33.6212548">
<ele>91.82</ele>
<time>2015-05-02T11:32:15Z</time>
</trkpt>
<trkpt lat="35.0208370" lon="33.6212592">
<ele>91.97</ele>
<time>2015-05-02T11:32:17Z</time>
</trkpt>
<trkpt lat="35.0209094" lon="33.6212652">
<ele>92.50</ele>
<time>2015-05-02T11:32:19Z</time>
</trkpt>
<trkpt lat="35.0209932" lon="33.6212726">
<ele>92.89</ele>
<time>2015-05-02T11:32:21Z</time>
</trkpt>
<trkpt lat="35.0210782" lon="33.6212720">
<ele>92.98</ele>
<time>2015-05-02T11:32:23Z</time>
</trkpt>
<trkpt lat="35.0211591" lon="33.6212716">
<ele>93.76</ele>
<time>2015-05-02T11:32:25Z</time>
</trkpt>
<trkpt lat="35.0212411" lon="33.6212626">
<ele>94.45</ele>
<time>2015-05-02T11:32:27Z</time>
</trkpt>
<trkpt lat="35.0213269" lon="33.6212482">
<ele>94.62</ele>
<time>2015-05-02T11:32:29Z</time>
</trkpt>
<trkpt lat="35.0214105" lon="33.6212291">
<ele>94.92</ele>
<time>2015-05-02T11:32:31Z</time>
</trkpt>
<trkpt lat="35.0214954" lon="33.6211958">
<ele>94.99</ele>
<time>2015-05-02T11:32:33Z</time>
</trkpt>
<trkpt lat="35.0215490" lon="33.6211600">
<ele>95.00</ele>
<time>2015-05-02T11:32:34Z</time>
</trkpt>
<trkpt lat="35.0215938" lon="33.6211370">
<ele>95.01</ele>
<time>2015-05-02T11:32:35Z</time>
</trkpt>
<trkpt lat="35.0216365" lon="33.6211103">
<ele>95.01</ele>
<time>2015-05-02T11:32:36Z</time>
</trkpt>
<trkpt lat="35.0216799" lon="33.6210884">
<ele>95.51</ele>
<time>2015-05-02T11:32:37Z</time>
</trkpt>
<trkpt lat="35.0217505" lon="33.6210355">
<ele>95.89</ele>
<time>2015-05-02T11:32:39Z</time>
</trkpt>
<trkpt lat="35.0218194" lon="33.6209752">
<ele>95.98</ele>
<time>2015-05-02T11:32:41Z</time>
</trkpt>
<trkpt lat="35.0218581" lon="33.6209406">
<ele>96.00</ele>
<time>2015-05-02T11:32:42Z</time>
</trkpt>
<trkpt lat="35.0218939" lon="33.6209045">
<ele>96.01</ele>
<time>2015-05-02T11:32:43Z</time>
</trkpt>
<trkpt lat="35.0219297" lon="33.6208650">
<ele>96.51</ele>
<time>2015-05-02T11:32:44Z</time>
</trkpt>
<trkpt lat="35.0219659" lon="33.6208172">
<ele>96.76</ele>
<time>2015-05-02T11:32:45Z</time>
</trkpt>
<trkpt lat="35.0220253" lon="33.6207394">
<ele>96.45</ele>
<time>2015-05-02T11:32:47Z</time>
</trkpt>
<trkpt lat="35.0220770" lon="33.6206726">
<ele>96.13</ele>
<time>2015-05-02T11:32:49Z</time>
</trkpt>
<trkpt lat="35.0221239" lon="33.6205997">
<ele>96.79</ele>
<time>2015-05-02T11:32:51Z</time>
</trkpt>
<trkpt lat="35.0221693" lon="33.6205138">
<ele>96.96</ele>
<time>2015-05-02T11:32:53Z</time>
</trkpt>
<trkpt lat="35.0222321" lon="33.6204318">
<ele>97.00</ele>
<time>2015-05-02T11:32:55Z</time>
</trkpt>
<trkpt lat="35.0222640" lon="33.6203801">
<ele>97.01</ele>
<time>2015-05-02T11:32:56Z</time>
</trkpt>
<trkpt lat="35.0222957" lon="33.6203310">
<ele>97.01</ele>
<time>2015-05-02T11:32:57Z</time>
</trkpt>
<trkpt lat="35.0223285" lon="33.6202710">
<ele>97.01</ele>
<time>2015-05-02T11:32:58Z</time>
</trkpt>
<trkpt lat="35.0223610" lon="33.6202250">
<ele>97.02</ele>
<time>2015-05-02T11:32:59Z</time>
</trkpt>
<trkpt lat="35.0223899" lon="33.6201802">
<ele>96.52</ele>
<time>2015-05-02T11:33:00Z</time>
</trkpt>
<trkpt lat="35.0224249" lon="33.6201306">
<ele>96.27</ele>
<time>2015-05-02T11:33:01Z</time>
</trkpt>
<trkpt lat="35.0224764" lon="33.6200404">
<ele>96.83</ele>
<time>2015-05-02T11:33:03Z</time>
</trkpt>
<trkpt lat="35.0225052" lon="33.6199980">
<ele>96.92</ele>
<time>2015-05-02T11:33:04Z</time>
</trkpt>
<trkpt lat="35.0225343" lon="33.6199501">
<ele>96.97</ele>
<time>2015-05-02T11:33:05Z</time>
</trkpt>
<trkpt lat="35.0225657" lon="33.6198964">
<ele>96.99</ele>
<time>2015-05-02T11:33:06Z</time>
</trkpt>
<trkpt lat="35.0225985" lon="33.6198500">
<ele>97.00</ele>
<time>2015-05-02T11:33:07Z</time>
</trkpt>
<trkpt lat="35.0226289" lon="33.6197935">
<ele>97.01</ele>
<time>2015-05-02T11:33:08Z</time>
</trkpt>
<trkpt lat="35.0226592" lon="33.6197335">
<ele>97.01</ele>
<time>2015-05-02T11:33:09Z</time>
</trkpt>
<trkpt lat="35.0226871" lon="33.6196827">
<ele>97.51</ele>
<time>2015-05-02T11:33:10Z</time>
</trkpt>
<trkpt lat="35.0227118" lon="33.6196278">
<ele>97.77</ele>
<time>2015-05-02T11:33:11Z</time>
</trkpt>
<trkpt lat="35.0227366" lon="33.6195783">
<ele>97.89</ele>
<time>2015-05-02T11:33:12Z</time>
</trkpt>
<trkpt lat="35.0227857" lon="33.6194804">
<ele>97.48</ele>
<time>2015-05-02T11:33:14Z</time>
</trkpt>
<trkpt lat="35.0228117" lon="33.6194333">
<ele>97.25</ele>
<time>2015-05-02T11:33:15Z</time>
</trkpt>
<trkpt lat="35.0228595" lon="33.6193349">
<ele>97.07</ele>
<time>2015-05-02T11:33:17Z</time>
</trkpt>
<trkpt lat="35.0228804" lon="33.6192858">
<ele>97.05</ele>
<time>2015-05-02T11:33:18Z</time>
</trkpt>
<trkpt lat="35.0229088" lon="33.6192298">
<ele>97.53</ele>
<time>2015-05-02T11:33:19Z</time>
</trkpt>
<trkpt lat="35.0229276" lon="33.6191671">
<ele>97.77</ele>
<time>2015-05-02T11:33:20Z</time>
</trkpt>
<trkpt lat="35.0229558" lon="33.6191062">
<ele>97.89</ele>
<time>2015-05-02T11:33:21Z</time>
</trkpt>
<trkpt lat="35.0229924" lon="33.6190486">
<ele>97.96</ele>
<time>2015-05-02T11:33:22Z</time>
</trkpt>
<trkpt lat="35.0230186" lon="33.6189982">
<ele>97.99</ele>
<time>2015-05-02T11:33:23Z</time>
</trkpt>
<trkpt lat="35.0230520" lon="33.6189522">
<ele>98.00</ele>
<time>2015-05-02T11:33:24Z</time>
</trkpt>
<trkpt lat="35.0230862" lon="33.6189011">
<ele>98.01</ele>
<time>2015-05-02T11:33:25Z</time>
</trkpt>
<trkpt lat="35.0231360" lon="33.6188154">
<ele>98.01</ele>
<time>2015-05-02T11:33:27Z</time>
</trkpt>
<trkpt lat="35.0231874" lon="33.6187375">
<ele>97.77</ele>
<time>2015-05-02T11:33:29Z</time>
</trkpt>
<trkpt lat="35.0232216" lon="33.6187016">
<ele>97.89</ele>
<time>2015-05-02T11:33:30Z</time>
</trkpt>
<trkpt lat="35.0232585" lon="33.6186632">
<ele>97.95</ele>
<time>2015-05-02T11:33:31Z</time>
</trkpt>
<trkpt lat="35.0232977" lon="33.6186222">
<ele>98.48</ele>
<time>2015-05-02T11:33:32Z</time>
</trkpt>
<trkpt lat="35.0233317" lon="33.6185831">
<ele>98.75</ele>
<time>2015-05-02T11:33:33Z</time>
</trkpt>
<trkpt lat="35.0233665" lon="33.6185477">
<ele>98.88</ele>
<time>2015-05-02T11:33:34Z</time>
</trkpt>
<trkpt lat="35.0234088" lon="33.6185132">
<ele>98.95</ele>
<time>2015-05-02T11:33:35Z</time>
</trkpt>
<trkpt lat="35.0234491" lon="33.6184792">
<ele>99.48</ele>
<time>2015-05-02T11:33:36Z</time>
</trkpt>
<trkpt lat="35.0235314" lon="33.6184123">
<ele>100.63</ele>
<time>2015-05-02T11:33:38Z</time>
</trkpt>
<trkpt lat="35.0235707" lon="33.6183796">
<ele>101.32</ele>
<time>2015-05-02T11:33:39Z</time>
</trkpt>
<trkpt lat="35.0236107" lon="33.6183508">
<ele>101.67</ele>
<time>2015-05-02T11:33:40Z</time>
</trkpt>
<trkpt lat="35.0236573" lon="33.6183203">
<ele>101.84</ele>
<time>2015-05-02T11:33:41Z</time>
</trkpt>
<trkpt lat="35.0237372" lon="33.6182771">
<ele>102.47</ele>
<time>2015-05-02T11:33:43Z</time>
</trkpt>
<trkpt lat="35.0238223" lon="33.6182399">
<ele>102.88</ele>
<time>2015-05-02T11:33:45Z</time>
</trkpt>
<trkpt lat="35.0238740" lon="33.6182131">
<ele>103.45</ele>
<time>2015-05-02T11:33:46Z</time>
</trkpt>
<trkpt lat="35.0239221" lon="33.6181894">
<ele>103.73</ele>
<time>2015-05-02T11:33:47Z</time>
</trkpt>
<trkpt lat="35.0239685" lon="33.6181681">
<ele>103.87</ele>
<time>2015-05-02T11:33:48Z</time>
</trkpt>
<trkpt lat="35.0240220" lon="33.6181476">
<ele>103.95</ele>
<time>2015-05-02T11:33:49Z</time>
</trkpt>
<trkpt lat="35.0241188" lon="33.6181113">
<ele>104.00</ele>
<time>2015-05-02T11:33:51Z</time>
</trkpt>
<trkpt lat="35.0242008" lon="33.6180875">
<ele>104.01</ele>
<time>2015-05-02T11:33:53Z</time>
</trkpt>
<trkpt lat="35.0242546" lon="33.6180816">
<ele>104.01</ele>
<time>2015-05-02T11:33:54Z</time>
</trkpt>
<trkpt lat="35.0243039" lon="33.6180791">
<ele>104.51</ele>
<time>2015-05-02T11:33:55Z</time>
</trkpt>
<trkpt lat="35.0243522" lon="33.6180730">
<ele>104.27</ele>
<time>2015-05-02T11:33:56Z</time>
</trkpt>
<trkpt lat="35.0244038" lon="33.6180664">
<ele>104.14</ele>
<time>2015-05-02T11:33:57Z</time>
</trkpt>
<trkpt lat="35.0245002" lon="33.6180398">
<ele>104.05</ele>
<time>2015-05-02T11:33:59Z</time>
</trkpt>
<trkpt lat="35.0245478" lon="33.6180325">
<ele>104.53</ele>
<time>2015-05-02T11:34:00Z</time>
</trkpt>
<trkpt lat="35.0246324" lon="33.6180188">
<ele>104.89</ele>
<time>2015-05-02T11:34:02Z</time>
</trkpt>
<trkpt lat="35.0247187" lon="33.6180104">
<ele>105.74</ele>
<time>2015-05-02T11:34:04Z</time>
</trkpt>
<trkpt lat="35.0247641" lon="33.6180054">
<ele>105.38</ele>
<time>2015-05-02T11:34:05Z</time>
</trkpt>
<trkpt lat="35.0248600" lon="33.6179845">
<ele>105.11</ele>
<time>2015-05-02T11:34:07Z</time>
</trkpt>
<trkpt lat="35.0249104" lon="33.6179708">
<ele>105.06</ele>
<time>2015-05-02T11:34:08Z</time>
</trkpt>
<trkpt lat="35.0249559" lon="33.6179616">
<ele>104.54</ele>
<time>2015-05-02T11:34:09Z</time>
</trkpt>
<trkpt lat="35.0250096" lon="33.6179500">
<ele>104.78</ele>
<time>2015-05-02T11:34:10Z</time>
</trkpt>
<trkpt lat="35.0250577" lon="33.6179362">
<ele>104.90</ele>
<time>2015-05-02T11:34:11Z</time>
</trkpt>
<trkpt lat="35.0251060" lon="33.6179237">
<ele>105.46</ele>
<time>2015-05-02T11:34:12Z</time>
</trkpt>
<trkpt lat="35.0251550" lon="33.6179154">
<ele>105.24</ele>
<time>2015-05-02T11:34:13Z</time>
</trkpt>
<trkpt lat="35.0252432" lon="33.6178969">
<ele>105.32</ele>
<time>2015-05-02T11:34:15Z</time>
</trkpt>
<trkpt lat="35.0252930" lon="33.6178767">
<ele>105.67</ele>
<time>2015-05-02T11:34:16Z</time>
</trkpt>
<trkpt lat="35.0253383" lon="33.6178662">
<ele>105.84</ele>
<time>2015-05-02T11:34:17Z</time>
</trkpt>
<trkpt lat="35.0253963" lon="33.6178564">
<ele>105.93</ele>
<time>2015-05-02T11:34:18Z</time>
</trkpt>
<trkpt lat="35.0254450" lon="33.6178436">
<ele>105.97</ele>
<time>2015-05-02T11:34:19Z</time>
</trkpt>
<trkpt lat="35.0254990" lon="33.6178336">
<ele>105.99</ele>
<time>2015-05-02T11:34:20Z</time>
</trkpt>
<trkpt lat="35.0255560" lon="33.6178150">
<ele>106.51</ele>
<time>2015-05-02T11:34:21Z</time>
</trkpt>
<trkpt lat="35.0256023" lon="33.6178006">
<ele>106.76</ele>
<time>2015-05-02T11:34:22Z</time>
</trkpt>
<trkpt lat="35.0256561" lon="33.6177844">
<ele>106.89</ele>
<time>2015-05-02T11:34:23Z</time>
</trkpt>
<trkpt lat="35.0257049" lon="33.6177728">
<ele>106.95</ele>
<time>2015-05-02T11:34:24Z</time>
</trkpt>
<trkpt lat="35.0257584" lon="33.6177645">
<ele>106.48</ele>
<time>2015-05-02T11:34:25Z</time>
</trkpt>
<trkpt lat="35.0258077" lon="33.6177487">
<ele>106.25</ele>
<time>2015-05-02T11:34:26Z</time>
</trkpt>
<trkpt lat="35.0258527" lon="33.6177329">
<ele>106.63</ele>
<time>2015-05-02T11:34:27Z</time>
</trkpt>
<trkpt lat="35.0259022" lon="33.6177116">
<ele>106.82</ele>
<time>2015-05-02T11:34:28Z</time>
</trkpt>
<trkpt lat="35.0259622" lon="33.6176979">
<ele>106.92</ele>
<time>2015-05-02T11:34:29Z</time>
</trkpt>
<trkpt lat="35.0260176" lon="33.6176830">
<ele>106.47</ele>
<time>2015-05-02T11:34:30Z</time>
</trkpt>
<trkpt lat="35.0260728" lon="33.6176689">
<ele>106.24</ele>
<time>2015-05-02T11:34:31Z</time>
</trkpt>
<trkpt lat="35.0261219" lon="33.6176433">
<ele>106.13</ele>
<time>2015-05-02T11:34:32Z</time>
</trkpt>
<trkpt lat="35.0262088" lon="33.6176027">
<ele>106.79</ele>
<time>2015-05-02T11:34:34Z</time>
</trkpt>
<trkpt lat="35.0262840" lon="33.6175533">
<ele>106.96</ele>
<time>2015-05-02T11:34:36Z</time>
</trkpt>
<trkpt lat="35.0263591" lon="33.6175206">
<ele>107.75</ele>
<time>2015-05-02T11:34:38Z</time>
</trkpt>
<trkpt lat="35.0264206" lon="33.6174906">
<ele>108.45</ele>
<time>2015-05-02T11:34:40Z</time>
</trkpt>
<trkpt lat="35.0264786" lon="33.6174494">
<ele>108.87</ele>
<time>2015-05-02T11:34:42Z</time>
</trkpt>
<trkpt lat="35.0265357" lon="33.6174212">
<ele>108.98</ele>
<time>2015-05-02T11:34:44Z</time>
</trkpt>
<trkpt lat="35.0265966" lon="33.6173839">
<ele>109.01</ele>
<time>2015-05-02T11:34:46Z</time>
</trkpt>
<trkpt lat="35.0266663" lon="33.6173464">
<ele>109.01</ele>
<time>2015-05-02T11:34:48Z</time>
</trkpt>
<trkpt lat="35.0267437" lon="33.6173010">
<ele>108.27</ele>
<time>2015-05-02T11:34:50Z</time>
</trkpt>
<trkpt lat="35.0268236" lon="33.6172574">
<ele>108.58</ele>
<time>2015-05-02T11:34:52Z</time>
</trkpt>
<trkpt lat="35.0268688" lon="33.6172364">
<ele>108.80</ele>
<time>2015-05-02T11:34:53Z</time>
</trkpt>
<trkpt lat="35.0269148" lon="33.6172095">
<ele>108.91</ele>
<time>2015-05-02T11:34:54Z</time>
</trkpt>
<trkpt lat="35.0269612" lon="33.6171857">
<ele>108.96</ele>
<time>2015-05-02T11:34:55Z</time>
</trkpt>
<trkpt lat="35.0270024" lon="33.6171597">
<ele>108.99</ele>
<time>2015-05-02T11:34:56Z</time>
</trkpt>
<trkpt lat="35.0270836" lon="33.6171078">
<ele>108.26</ele>
<time>2015-05-02T11:34:58Z</time>
</trkpt>
<trkpt lat="35.0271257" lon="33.6170804">
<ele>108.14</ele>
<time>2015-05-02T11:34:59Z</time>
</trkpt>
<trkpt lat="35.0271709" lon="33.6170581">
<ele>108.08</ele>
<time>2015-05-02T11:35:00Z</time>
</trkpt>
<trkpt lat="35.0272215" lon="33.6170336">
<ele>108.05</ele>
<time>2015-05-02T11:35:01Z</time>
</trkpt>
<trkpt lat="35.0272625" lon="33.6170049">
<ele>108.03</ele>
<time>2015-05-02T11:35:02Z</time>
</trkpt>
<trkpt lat="35.0273111" lon="33.6169775">
<ele>107.52</ele>
<time>2015-05-02T11:35:03Z</time>
</trkpt>
<trkpt lat="35.0273570" lon="33.6169513">
<ele>107.77</ele>
<time>2015-05-02T11:35:04Z</time>
</trkpt>
<trkpt lat="35.0273987" lon="33.6169298">
<ele>107.89</ele>
<time>2015-05-02T11:35:05Z</time>
</trkpt>
<trkpt lat="35.0274408" lon="33.6169002">
<ele>107.95</ele>
<time>2015-05-02T11:35:06Z</time>
</trkpt>
<trkpt lat="35.0274844" lon="33.6168858">
<ele>107.99</ele>
<time>2015-05-02T11:35:07Z</time>
</trkpt>
<trkpt lat="35.0275622" lon="33.6168377">
<ele>108.01</ele>
<time>2015-05-02T11:35:09Z</time>
</trkpt>
<trkpt lat="35.0276334" lon="33.6167959">
<ele>108.01</ele>
<time>2015-05-02T11:35:11Z</time>
</trkpt>
<trkpt lat="35.0277043" lon="33.6167587">
<ele>108.77</ele>
<time>2015-05-02T11:35:13Z</time>
</trkpt>
<trkpt lat="35.0277868" lon="33.6167248">
<ele>109.45</ele>
<time>2015-05-02T11:35:15Z</time>
</trkpt>
<trkpt lat="35.0278474" lon="33.6167029">
<ele>109.63</ele>
<time>2015-05-02T11:35:17Z</time>
</trkpt>
<trkpt lat="35.0279117" lon="33.6166779">
<ele>109.92</ele>
<time>2015-05-02T11:35:19Z</time>
</trkpt>
<trkpt lat="35.0279686" lon="33.6166486">
<ele>109.99</ele>
<time>2015-05-02T11:35:21Z</time>
</trkpt>
<trkpt lat="35.0280432" lon="33.6166147">
<ele>110.01</ele>
<time>2015-05-02T11:35:23Z</time>
</trkpt>
<trkpt lat="35.0280898" lon="33.6165969">
<ele>110.01</ele>
<time>2015-05-02T11:35:24Z</time>
</trkpt>
<trkpt lat="35.0281450" lon="33.6165780">
<ele>110.01</ele>
<time>2015-05-02T11:35:25Z</time>
</trkpt>
<trkpt lat="35.0282298" lon="33.6165326">
<ele>109.52</ele>
<time>2015-05-02T11:35:27Z</time>
</trkpt>
<trkpt lat="35.0282732" lon="33.6165084">
<ele>109.27</ele>
<time>2015-05-02T11:35:28Z</time>
</trkpt>
<trkpt lat="35.0283584" lon="33.6164723">
<ele>109.08</ele>
<time>2015-05-02T11:35:30Z</time>
</trkpt>
<trkpt lat="35.0284389" lon="33.6164372">
<ele>109.03</ele>
<time>2015-05-02T11:35:32Z</time>
</trkpt>
<trkpt lat="35.0285112" lon="33.6164036">
<ele>108.27</ele>
<time>2015-05-02T11:35:34Z</time>
</trkpt>
<trkpt lat="35.0285863" lon="33.6163756">
<ele>108.08</ele>
<time>2015-05-02T11:35:36Z</time>
</trkpt>
<trkpt lat="35.0286633" lon="33.6163430">
<ele>108.03</ele>
<time>2015-05-02T11:35:38Z</time>
</trkpt>
<trkpt lat="35.0287511" lon="33.6163152">
<ele>108.52</ele>
<time>2015-05-02T11:35:40Z</time>
</trkpt>
<trkpt lat="35.0288012" lon="33.6162978">
<ele>108.77</ele>
<time>2015-05-02T11:35:41Z</time>
</trkpt>
<trkpt lat="35.0288869" lon="33.6162602">
<ele>108.95</ele>
<time>2015-05-02T11:35:43Z</time>
</trkpt>
<trkpt lat="35.0289314" lon="33.6162468">
<ele>108.99</ele>
<time>2015-05-02T11:35:44Z</time>
</trkpt>
<trkpt lat="35.0290016" lon="33.6162128">
<ele>109.01</ele>
<time>2015-05-02T11:35:46Z</time>
</trkpt>
<trkpt lat="35.0290650" lon="33.6161907">
<ele>109.76</ele>
<time>2015-05-02T11:35:48Z</time>
</trkpt>
<trkpt lat="35.0291372" lon="33.6161642">
<ele>109.20</ele>
<time>2015-05-02T11:35:50Z</time>
</trkpt>
<trkpt lat="35.0292188" lon="33.6161289">
<ele>109.56</ele>
<time>2015-05-02T11:35:52Z</time>
</trkpt>
<trkpt lat="35.0293016" lon="33.6160933">
<ele>109.90</ele>
<time>2015-05-02T11:35:54Z</time>
</trkpt>
<trkpt lat="35.0293852" lon="33.6160594">
<ele>110.74</ele>
<time>2015-05-02T11:35:56Z</time>
</trkpt>
<trkpt lat="35.0294389" lon="33.6160397">
<ele>110.88</ele>
<time>2015-05-02T11:35:57Z</time>
</trkpt>
<trkpt lat="35.0294847" lon="33.6160222">
<ele>110.95</ele>
<time>2015-05-02T11:35:58Z</time>
</trkpt>
<trkpt lat="35.0295346" lon="33.6160006">
<ele>110.98</ele>
<time>2015-05-02T11:35:59Z</time>
</trkpt>
<trkpt lat="35.0295882" lon="33.6159718">
<ele>111.00</ele>
<time>2015-05-02T11:36:00Z</time>
</trkpt>
<trkpt lat="35.0296354" lon="33.6159510">
<ele>111.01</ele>
<time>2015-05-02T11:36:01Z</time>
</trkpt>
<trkpt lat="35.0296862" lon="33.6159318">
<ele>111.01</ele>
<time>2015-05-02T11:36:02Z</time>
</trkpt>
<trkpt lat="35.0297379" lon="33.6159199">
<ele>111.01</ele>
<time>2015-05-02T11:36:03Z</time>
</trkpt>
<trkpt lat="35.0297851" lon="33.6159073">
<ele>111.01</ele>
<time>2015-05-02T11:36:04Z</time>
</trkpt>
<trkpt lat="35.0298349" lon="33.6158879">
<ele>111.52</ele>
<time>2015-05-02T11:36:05Z</time>
</trkpt>
<trkpt lat="35.0299193" lon="33.6158491">
<ele>111.89</ele>
<time>2015-05-02T11:36:07Z</time>
</trkpt>
<trkpt lat="35.0299626" lon="33.6158319">
<ele>111.95</ele>
<time>2015-05-02T11:36:08Z</time>
</trkpt>
<trkpt lat="35.0300518" lon="33.6157961">
<ele>112.00</ele>
<time>2015-05-02T11:36:10Z</time>
</trkpt>
<trkpt lat="35.0300953" lon="33.6157763">
<ele>112.51</ele>
<time>2015-05-02T11:36:11Z</time>
</trkpt>
<trkpt lat="35.0301410" lon="33.6157576">
<ele>112.76</ele>
<time>2015-05-02T11:36:12Z</time>
</trkpt>
<trkpt lat="35.0301933" lon="33.6157441">
<ele>112.39</ele>
<time>2015-05-02T11:36:13Z</time>
</trkpt>
<trkpt lat="35.0302367" lon="33.6157265">
<ele>112.20</ele>
<time>2015-05-02T11:36:14Z</time>
</trkpt>
<trkpt lat="35.0303140" lon="33.6156923">
<ele>112.81</ele>
<time>2015-05-02T11:36:16Z</time>
</trkpt>
<trkpt lat="35.0304055" lon="33.6156555">
<ele>112.97</ele>
<time>2015-05-02T11:36:18Z</time>
</trkpt>
<trkpt lat="35.0304712" lon="33.6156484">
<ele>112.99</ele>
<time>2015-05-02T11:36:19Z</time>
</trkpt>
<trkpt lat="35.0305201" lon="33.6156323">
<ele>113.50</ele>
<time>2015-05-02T11:36:20Z</time>
</trkpt>
<trkpt lat="35.0305752" lon="33.6156176">
<ele>113.76</ele>
<time>2015-05-02T11:36:21Z</time>
</trkpt>
<trkpt lat="35.0306229" lon="33.6155941">
<ele>113.89</ele>
<time>2015-05-02T11:36:22Z</time>
</trkpt>
<trkpt lat="35.0306717" lon="33.6155811">
<ele>113.95</ele>
<time>2015-05-02T11:36:23Z</time>
</trkpt>
<trkpt lat="35.0307218" lon="33.6155661">
<ele>113.98</ele>
<time>2015-05-02T11:36:24Z</time>
</trkpt>
<trkpt lat="35.0307652" lon="33.6155486">
<ele>114.50</ele>
<time>2015-05-02T11:36:25Z</time>
</trkpt>
<trkpt lat="35.0308432" lon="33.6155340">
<ele>114.89</ele>
<time>2015-05-02T11:36:27Z</time>
</trkpt>
<trkpt lat="35.0309232" lon="33.6155133">
<ele>115.73</ele>
<time>2015-05-02T11:36:29Z</time>
</trkpt>
<trkpt lat="35.0309974" lon="33.6154707">
<ele>115.70</ele>
<time>2015-05-02T11:36:31Z</time>
</trkpt>
<trkpt lat="35.0310554" lon="33.6154619">
<ele>115.86</ele>
<time>2015-05-02T11:36:32Z</time>
</trkpt>
<trkpt lat="35.0311470" lon="33.6154322">
<ele>115.98</ele>
<time>2015-05-02T11:36:34Z</time>
</trkpt>
<trkpt lat="35.0312338" lon="33.6154097">
<ele>116.51</ele>
<time>2015-05-02T11:36:36Z</time>
</trkpt>
<trkpt lat="35.0312830" lon="33.6153916">
<ele>116.26</ele>
<time>2015-05-02T11:36:37Z</time>
</trkpt>
<trkpt lat="35.0313239" lon="33.6153653">
<ele>116.14</ele>
<time>2015-05-02T11:36:38Z</time>
</trkpt>
<trkpt lat="35.0313733" lon="33.6153462">
<ele>116.08</ele>
<time>2015-05-02T11:36:39Z</time>
</trkpt>
<trkpt lat="35.0314469" lon="33.6153166">
<ele>116.78</ele>
<time>2015-05-02T11:36:41Z</time>
</trkpt>
<trkpt lat="35.0315138" lon="33.6152851">
<ele>116.21</ele>
<time>2015-05-02T11:36:43Z</time>
</trkpt>
<trkpt lat="35.0315811" lon="33.6152529">
<ele>116.06</ele>
<time>2015-05-02T11:36:45Z</time>
</trkpt>
<trkpt lat="35.0316501" lon="33.6152243">
<ele>116.53</ele>
<time>2015-05-02T11:36:47Z</time>
</trkpt>
<trkpt lat="35.0317227" lon="33.6151952">
<ele>116.64</ele>
<time>2015-05-02T11:36:49Z</time>
</trkpt>
<trkpt lat="35.0317586" lon="33.6151534">
<ele>116.42</ele>
<time>2015-05-02T11:36:51Z</time>
</trkpt>
<trkpt lat="35.0318316" lon="33.6151490">
<ele>115.66</ele>
<time>2015-05-02T11:36:59Z</time>
</trkpt>
<trkpt lat="35.0319002" lon="33.6151865">
<ele>115.93</ele>
<time>2015-05-02T11:37:01Z</time>
</trkpt>
<trkpt lat="35.0319691" lon="33.6152439">
<ele>115.99</ele>
<time>2015-05-02T11:37:03Z</time>
</trkpt>
<trkpt lat="35.0320307" lon="33.6153035">
<ele>115.26</ele>
<time>2015-05-02T11:37:05Z</time>
</trkpt>
<trkpt lat="35.0321015" lon="33.6153596">
<ele>114.58</ele>
<time>2015-05-02T11:37:07Z</time>
</trkpt>
<trkpt lat="35.0321444" lon="33.6153872">
<ele>114.30</ele>
<time>2015-05-02T11:37:08Z</time>
</trkpt>
<trkpt lat="35.0321988" lon="33.6154158">
<ele>114.16</ele>
<time>2015-05-02T11:37:09Z</time>
</trkpt>
<trkpt lat="35.0322787" lon="33.6154362">
<ele>114.55</ele>
<time>2015-05-02T11:37:11Z</time>
</trkpt>
<trkpt lat="35.0323518" lon="33.6154554">
<ele>114.90</ele>
<time>2015-05-02T11:37:13Z</time>
</trkpt>
<trkpt lat="35.0324148" lon="33.6154693">
<ele>115.74</ele>
<time>2015-05-02T11:37:15Z</time>
</trkpt>
<trkpt lat="35.0324680" lon="33.6154740">
<ele>115.95</ele>
<time>2015-05-02T11:37:17Z</time>
</trkpt>
<trkpt lat="35.0325144" lon="33.6154763">
<ele>116.50</ele>
<time>2015-05-02T11:37:19Z</time>
</trkpt>
<trkpt lat="35.0325700" lon="33.6154766">
<ele>117.70</ele>
<time>2015-05-02T11:37:22Z</time>
</trkpt>
<trkpt lat="35.0326216" lon="33.6154743">
<ele>117.48</ele>
<time>2015-05-02T11:37:25Z</time>
</trkpt>
<trkpt lat="35.0326728" lon="33.6154828">
<ele>117.07</ele>
<time>2015-05-02T11:37:28Z</time>
</trkpt>
<trkpt lat="35.0327201" lon="33.6154734">
<ele>116.06</ele>
<time>2015-05-02T11:41:36Z</time>
</trkpt>
<trkpt lat="35.0326838" lon="33.6155458">
<ele>116.20</ele>
<time>2015-05-02T11:41:41Z</time>
</trkpt>
<trkpt lat="35.0326289" lon="33.6156301">
<ele>116.81</ele>
<time>2015-05-02T11:41:43Z</time>
</trkpt>
<trkpt lat="35.0326170" lon="33.6156832">
<ele>116.91</ele>
<time>2015-05-02T11:41:44Z</time>
</trkpt>
<trkpt lat="35.0326174" lon="33.6157891">
<ele>117.24</ele>
<time>2015-05-02T11:41:46Z</time>
</trkpt>
<trkpt lat="35.0326198" lon="33.6158857">
<ele>117.07</ele>
<time>2015-05-02T11:41:48Z</time>
</trkpt>
<trkpt lat="35.0326198" lon="33.6159841">
<ele>117.78</ele>
<time>2015-05-02T11:41:50Z</time>
</trkpt>
<trkpt lat="35.0326150" lon="33.6160861">
<ele>117.96</ele>
<time>2015-05-02T11:41:52Z</time>
</trkpt>
<trkpt lat="35.0325690" lon="33.6162170">
<ele>118.25</ele>
<time>2015-05-02T11:41:54Z</time>
</trkpt>
<trkpt lat="35.0325740" lon="33.6163196">
<ele>118.32</ele>
<time>2015-05-02T11:41:56Z</time>
</trkpt>
<trkpt lat="35.0325621" lon="33.6164114">
<ele>117.59</ele>
<time>2015-05-02T11:41:58Z</time>
</trkpt>
<trkpt lat="35.0325703" lon="33.6164916">
<ele>117.16</ele>
<time>2015-05-02T11:42:00Z</time>
</trkpt>
<trkpt lat="35.0325695" lon="33.6165524">
<ele>117.91</ele>
<time>2015-05-02T11:42:03Z</time>
</trkpt>
<trkpt lat="35.0325129" lon="33.6165564">
<ele>117.13</ele>
<time>2015-05-02T11:42:07Z</time>
</trkpt>
<trkpt lat="35.0324545" lon="33.6165041">
<ele>117.05</ele>
<time>2015-05-02T11:42:09Z</time>
</trkpt>
<trkpt lat="35.0324006" lon="33.6164260">
<ele>116.52</ele>
<time>2015-05-02T11:42:11Z</time>
</trkpt>
<trkpt lat="35.0323304" lon="33.6163232">
<ele>116.14</ele>
<time>2015-05-02T11:42:13Z</time>
</trkpt>
<trkpt lat="35.0322932" lon="33.6162855">
<ele>116.08</ele>
<time>2015-05-02T11:42:14Z</time>
</trkpt>
<trkpt lat="35.0322548" lon="33.6162561">
<ele>116.05</ele>
<time>2015-05-02T11:42:15Z</time>
</trkpt>
<trkpt lat="35.0321718" lon="33.6161929">
<ele>116.27</ele>
<time>2015-05-02T11:42:17Z</time>
</trkpt>
<trkpt lat="35.0321260" lon="33.6161648">
<ele>115.64</ele>
<time>2015-05-02T11:42:18Z</time>
</trkpt>
<trkpt lat="35.0320419" lon="33.6161419">
<ele>114.92</ele>
<time>2015-05-02T11:42:20Z</time>
</trkpt>
<trkpt lat="35.0319932" lon="33.6161050">
<ele>114.97</ele>
<time>2015-05-02T11:42:21Z</time>
</trkpt>
<trkpt lat="35.0319489" lon="33.6161231">
<ele>115.49</ele>
<time>2015-05-02T11:42:22Z</time>
</trkpt>
<trkpt lat="35.0318928" lon="33.6161167">
<ele>115.75</ele>
<time>2015-05-02T11:42:23Z</time>
</trkpt>
<trkpt lat="35.0318357" lon="33.6161053">
<ele>115.89</ele>
<time>2015-05-02T11:42:24Z</time>
</trkpt>
<trkpt lat="35.0317841" lon="33.6160953">
<ele>115.95</ele>
<time>2015-05-02T11:42:25Z</time>
</trkpt>
<trkpt lat="35.0317308" lon="33.6160803">
<ele>116.48</ele>
<time>2015-05-02T11:42:26Z</time>
</trkpt>
<trkpt lat="35.0316821" lon="33.6160669">
<ele>116.25</ele>
<time>2015-05-02T11:42:27Z</time>
</trkpt>
<trkpt lat="35.0316362" lon="33.6160443">
<ele>116.13</ele>
<time>2015-05-02T11:42:28Z</time>
</trkpt>
<trkpt lat="35.0315856" lon="33.6160178">
<ele>116.07</ele>
<time>2015-05-02T11:42:29Z</time>
</trkpt>
<trkpt lat="35.0315446" lon="33.6159900">
<ele>116.05</ele>
<time>2015-05-02T11:42:30Z</time>
</trkpt>
<trkpt lat="35.0315014" lon="33.6159456">
<ele>116.03</ele>
<time>2015-05-02T11:42:31Z</time>
</trkpt>
<trkpt lat="35.0314612" lon="33.6158973">
<ele>116.02</ele>
<time>2015-05-02T11:42:32Z</time>
</trkpt>
<trkpt lat="35.0314228" lon="33.6158514">
<ele>115.52</ele>
<time>2015-05-02T11:42:33Z</time>
</trkpt>
<trkpt lat="35.0313818" lon="33.6157978">
<ele>115.27</ele>
<time>2015-05-02T11:42:34Z</time>
</trkpt>
<trkpt lat="35.0313398" lon="33.6157551">
<ele>115.14</ele>
<time>2015-05-02T11:42:35Z</time>
</trkpt>
<trkpt lat="35.0312982" lon="33.6157096">
<ele>115.08</ele>
<time>2015-05-02T11:42:36Z</time>
</trkpt>
<trkpt lat="35.0312642" lon="33.6156638">
<ele>115.55</ele>
<time>2015-05-02T11:42:37Z</time>
</trkpt>
<trkpt lat="35.0312115" lon="33.6155877">
<ele>115.40</ele>
<time>2015-05-02T11:42:39Z</time>
</trkpt>
<trkpt lat="35.0311761" lon="33.6155292">
<ele>114.61</ele>
<time>2015-05-02T11:42:41Z</time>
</trkpt>
<trkpt lat="35.0312109" lon="33.6154941">
<ele>114.99</ele>
<time>2015-05-02T11:42:50Z</time>
</trkpt>
<trkpt lat="35.0312531" lon="33.6154396">
<ele>115.01</ele>
<time>2015-05-02T11:42:54Z</time>
</trkpt>
<trkpt lat="35.0313115" lon="33.6153924">
<ele>114.52</ele>
<time>2015-05-02T11:42:56Z</time>
</trkpt>
<trkpt lat="35.0313528" lon="33.6153656">
<ele>114.27</ele>
<time>2015-05-02T11:42:57Z</time>
</trkpt>
<trkpt lat="35.0314110" lon="33.6153414">
<ele>114.64</ele>
<time>2015-05-02T11:42:58Z</time>
</trkpt>
<trkpt lat="35.0315034" lon="33.6153057">
<ele>114.92</ele>
<time>2015-05-02T11:43:00Z</time>
</trkpt>
<trkpt lat="35.0315502" lon="33.6152834">
<ele>115.47</ele>
<time>2015-05-02T11:43:01Z</time>
</trkpt>
<trkpt lat="35.0316193" lon="33.6152421">
<ele>115.88</ele>
<time>2015-05-02T11:43:03Z</time>
</trkpt>
<trkpt lat="35.0316944" lon="33.6152070">
<ele>116.48</ele>
<time>2015-05-02T11:43:05Z</time>
</trkpt>
<trkpt lat="35.0317667" lon="33.6151820">
<ele>116.88</ele>
<time>2015-05-02T11:43:07Z</time>
</trkpt>
<trkpt lat="35.0318131" lon="33.6151827">
<ele>116.95</ele>
<time>2015-05-02T11:43:08Z</time>
</trkpt>
<trkpt lat="35.0318901" lon="33.6152233">
<ele>117.00</ele>
<time>2015-05-02T11:43:10Z</time>
</trkpt>
<trkpt lat="35.0319339" lon="33.6152518">
<ele>117.51</ele>
<time>2015-05-02T11:43:11Z</time>
</trkpt>
<trkpt lat="35.0319987" lon="33.6152941">
<ele>118.14</ele>
<time>2015-05-02T11:43:13Z</time>
</trkpt>
<trkpt lat="35.0320676" lon="33.6153389">
<ele>117.55</ele>
<time>2015-05-02T11:43:15Z</time>
</trkpt>
<trkpt lat="35.0321414" lon="33.6153895">
<ele>117.40</ele>
<time>2015-05-02T11:43:17Z</time>
</trkpt>
<trkpt lat="35.0322155" lon="33.6154353">
<ele>117.36</ele>
<time>2015-05-02T11:43:19Z</time>
</trkpt>
<trkpt lat="35.0322877" lon="33.6154662">
<ele>116.35</ele>
<time>2015-05-02T11:43:21Z</time>
</trkpt>
<trkpt lat="35.0323666" lon="33.6154859">
<ele>116.10</ele>
<time>2015-05-02T11:43:23Z</time>
</trkpt>
<trkpt lat="35.0324500" lon="33.6154988">
<ele>116.54</ele>
<time>2015-05-02T11:43:25Z</time>
</trkpt>
<trkpt lat="35.0325322" lon="33.6155020">
<ele>117.15</ele>
<time>2015-05-02T11:43:27Z</time>
</trkpt>
<trkpt lat="35.0326029" lon="33.6154909">
<ele>117.80</ele>
<time>2015-05-02T11:43:29Z</time>
</trkpt>
<trkpt lat="35.0326215" lon="33.6154139">
<ele>117.96</ele>
<time>2015-05-02T11:43:31Z</time>
</trkpt>
<trkpt lat="35.0326194" lon="33.6153242">
<ele>118.00</ele>
<time>2015-05-02T11:43:33Z</time>
</trkpt>
<trkpt lat="35.0326496" lon="33.6152389">
<ele>118.01</ele>
<time>2015-05-02T11:43:35Z</time>
</trkpt>
<trkpt lat="35.0326956" lon="33.6151601">
<ele>117.52</ele>
<time>2015-05-02T11:43:37Z</time>
</trkpt>
<trkpt lat="35.0327220" lon="33.6151152">
<ele>117.77</ele>
<time>2015-05-02T11:43:38Z</time>
</trkpt>
<trkpt lat="35.0327598" lon="33.6150074">
<ele>117.95</ele>
<time>2015-05-02T11:43:40Z</time>
</trkpt>
<trkpt lat="35.0327735" lon="33.6149541">
<ele>117.98</ele>
<time>2015-05-02T11:43:41Z</time>
</trkpt>
<trkpt lat="35.0327816" lon="33.6148587">
<ele>118.76</ele>
<time>2015-05-02T11:43:43Z</time>
</trkpt>
<trkpt lat="35.0327711" lon="33.6147804">
<ele>118.95</ele>
<time>2015-05-02T11:43:45Z</time>
</trkpt>
<trkpt lat="35.0327495" lon="33.6146862">
<ele>119.25</ele>
<time>2015-05-02T11:43:47Z</time>
</trkpt>
<trkpt lat="35.0327074" lon="33.6145839">
<ele>119.07</ele>
<time>2015-05-02T11:43:49Z</time>
</trkpt>
<trkpt lat="35.0326899" lon="33.6145302">
<ele>119.05</ele>
<time>2015-05-02T11:43:50Z</time>
</trkpt>
<trkpt lat="35.0326576" lon="33.6144653">
<ele>119.03</ele>
<time>2015-05-02T11:43:51Z</time>
</trkpt>
<trkpt lat="35.0326260" lon="33.6144025">
<ele>119.02</ele>
<time>2015-05-02T11:43:52Z</time>
</trkpt>
<trkpt lat="35.0325990" lon="33.6143490">
<ele>119.02</ele>
<time>2015-05-02T11:43:53Z</time>
</trkpt>
<trkpt lat="35.0325758" lon="33.6142834">
<ele>118.52</ele>
<time>2015-05-02T11:43:54Z</time>
</trkpt>
<trkpt lat="35.0325245" lon="33.6141948">
<ele>118.89</ele>
<time>2015-05-02T11:43:56Z</time>
</trkpt>
<trkpt lat="35.0325060" lon="33.6141363">
<ele>118.45</ele>
<time>2015-05-02T11:43:57Z</time>
</trkpt>
<trkpt lat="35.0324804" lon="33.6140747">
<ele>118.23</ele>
<time>2015-05-02T11:43:58Z</time>
</trkpt>
<trkpt lat="35.0324473" lon="33.6140143">
<ele>118.13</ele>
<time>2015-05-02T11:43:59Z</time>
</trkpt>
<trkpt lat="35.0324156" lon="33.6139554">
<ele>118.57</ele>
<time>2015-05-02T11:44:00Z</time>
</trkpt>
<trkpt lat="35.0324016" lon="33.6139001">
<ele>117.79</ele>
<time>2015-05-02T11:44:01Z</time>
</trkpt>
<trkpt lat="35.0323701" lon="33.6138262">
<ele>117.40</ele>
<time>2015-05-02T11:44:02Z</time>
</trkpt>
<trkpt lat="35.0323493" lon="33.6137620">
<ele>117.21</ele>
<time>2015-05-02T11:44:03Z</time>
</trkpt>
<trkpt lat="35.0323176" lon="33.6136903">
<ele>117.61</ele>
<time>2015-05-02T11:44:04Z</time>
</trkpt>
<trkpt lat="35.0322994" lon="33.6136057">
<ele>117.81</ele>
<time>2015-05-02T11:44:05Z</time>
</trkpt>
<trkpt lat="35.0322856" lon="33.6135388">
<ele>117.92</ele>
<time>2015-05-02T11:44:06Z</time>
</trkpt>
<trkpt lat="35.0322531" lon="33.6134832">
<ele>117.47</ele>
<time>2015-05-02T11:44:07Z</time>
</trkpt>
<trkpt lat="35.0322076" lon="33.6134234">
<ele>117.24</ele>
<time>2015-05-02T11:44:08Z</time>
</trkpt>
<trkpt lat="35.0321855" lon="33.6133694">
<ele>117.13</ele>
<time>2015-05-02T11:44:09Z</time>
</trkpt>
<trkpt lat="35.0321629" lon="33.6133021">
<ele>116.57</ele>
<time>2015-05-02T11:44:10Z</time>
</trkpt>
<trkpt lat="35.0321371" lon="33.6132379">
<ele>116.29</ele>
<time>2015-05-02T11:44:11Z</time>
</trkpt>
<trkpt lat="35.0321264" lon="33.6131762">
<ele>115.66</ele>
<time>2015-05-02T11:44:12Z</time>
</trkpt>
<trkpt lat="35.0320923" lon="33.6131054">
<ele>115.34</ele>
<time>2015-05-02T11:44:13Z</time>
</trkpt>
<trkpt lat="35.0320707" lon="33.6130332">
<ele>115.68</ele>
<time>2015-05-02T11:44:14Z</time>
</trkpt>
<trkpt lat="35.0320482" lon="33.6129571">
<ele>115.85</ele>
<time>2015-05-02T11:44:15Z</time>
</trkpt>
<trkpt lat="35.0320141" lon="33.6128887">
<ele>115.93</ele>
<time>2015-05-02T11:44:16Z</time>
</trkpt>
<trkpt lat="35.0319777" lon="33.6128261">
<ele>115.97</ele>
<time>2015-05-02T11:44:17Z</time>
</trkpt>
<trkpt lat="35.0319385" lon="33.6127531">
<ele>115.99</ele>
<time>2015-05-02T11:44:18Z</time>
</trkpt>
<trkpt lat="35.0319027" lon="33.6126894">
<ele>116.01</ele>
<time>2015-05-02T11:44:19Z</time>
</trkpt>
<trkpt lat="35.0318623" lon="33.6126191">
<ele>115.51</ele>
<time>2015-05-02T11:44:20Z</time>
</trkpt>
<trkpt lat="35.0318186" lon="33.6125468">
<ele>115.26</ele>
<time>2015-05-02T11:44:21Z</time>
</trkpt>
<trkpt lat="35.0317800" lon="33.6124819">
<ele>115.64</ele>
<time>2015-05-02T11:44:22Z</time>
</trkpt>
<trkpt lat="35.0317376" lon="33.6124116">
<ele>115.83</ele>
<time>2015-05-02T11:44:23Z</time>
</trkpt>
<trkpt lat="35.0316965" lon="33.6123439">
<ele>115.92</ele>
<time>2015-05-02T11:44:24Z</time>
</trkpt>
<trkpt lat="35.0316650" lon="33.6122871">
<ele>116.47</ele>
<time>2015-05-02T11:44:25Z</time>
</trkpt>
<trkpt lat="35.0316163" lon="33.6122295">
<ele>116.74</ele>
<time>2015-05-02T11:44:26Z</time>
</trkpt>
<trkpt lat="35.0315774" lon="33.6121814">
<ele>117.38</ele>
<time>2015-05-02T11:44:27Z</time>
</trkpt>
<trkpt lat="35.0315364" lon="33.6121257">
<ele>117.70</ele>
<time>2015-05-02T11:44:28Z</time>
</trkpt>
<trkpt lat="35.0315062" lon="33.6120667">
<ele>117.86</ele>
<time>2015-05-02T11:44:29Z</time>
</trkpt>
<trkpt lat="35.0314904" lon="33.6119988">
<ele>117.94</ele>
<time>2015-05-02T11:44:30Z</time>
</trkpt>
<trkpt lat="35.0314819" lon="33.6119360">
<ele>117.98</ele>
<time>2015-05-02T11:44:31Z</time>
</trkpt>
<trkpt lat="35.0314774" lon="33.6118740">
<ele>118.00</ele>
<time>2015-05-02T11:44:32Z</time>
</trkpt>
<trkpt lat="35.0314727" lon="33.6117576">
<ele>118.01</ele>
<time>2015-05-02T11:44:34Z</time>
</trkpt>
<trkpt lat="35.0314752" lon="33.6116997">
<ele>118.01</ele>
<time>2015-05-02T11:44:35Z</time>
</trkpt>
<trkpt lat="35.0314795" lon="33.6116354">
<ele>118.01</ele>
<time>2015-05-02T11:44:36Z</time>
</trkpt>
<trkpt lat="35.0314727" lon="33.6115645">
<ele>118.02</ele>
<time>2015-05-02T11:44:37Z</time>
</trkpt>
<trkpt lat="35.0314622" lon="33.6115006">
<ele>118.02</ele>
<time>2015-05-02T11:44:38Z</time>
</trkpt>
<trkpt lat="35.0314432" lon="33.6114341">
<ele>118.02</ele>
<time>2015-05-02T11:44:39Z</time>
</trkpt>
<trkpt lat="35.0314173" lon="33.6113704">
<ele>117.52</ele>
<time>2015-05-02T11:44:40Z</time>
</trkpt>
<trkpt lat="35.0313920" lon="33.6113103">
<ele>117.27</ele>
<time>2015-05-02T11:44:41Z</time>
</trkpt>
<trkpt lat="35.0313613" lon="33.6112335">
<ele>117.14</ele>
<time>2015-05-02T11:44:42Z</time>
</trkpt>
<trkpt lat="35.0313299" lon="33.6111682">
<ele>117.08</ele>
<time>2015-05-02T11:44:43Z</time>
</trkpt>
<trkpt lat="35.0312963" lon="33.6111002">
<ele>116.55</ele>
<time>2015-05-02T11:44:44Z</time>
</trkpt>
<trkpt lat="35.0312596" lon="33.6110204">
<ele>116.28</ele>
<time>2015-05-02T11:44:45Z</time>
</trkpt>
<trkpt lat="35.0312227" lon="33.6109449">
<ele>115.65</ele>
<time>2015-05-02T11:44:46Z</time>
</trkpt>
<trkpt lat="35.0311843" lon="33.6108622">
<ele>115.33</ele>
<time>2015-05-02T11:44:47Z</time>
</trkpt>
<trkpt lat="35.0311494" lon="33.6107851">
<ele>115.17</ele>
<time>2015-05-02T11:44:48Z</time>
</trkpt>
<trkpt lat="35.0311179" lon="33.6107028">
<ele>115.10</ele>
<time>2015-05-02T11:44:49Z</time>
</trkpt>
<trkpt lat="35.0310843" lon="33.6105995">
<ele>115.06</ele>
<time>2015-05-02T11:44:50Z</time>
</trkpt>
<trkpt lat="35.0310524" lon="33.6105216">
<ele>115.04</ele>
<time>2015-05-02T11:44:51Z</time>
</trkpt>
<trkpt lat="35.0310234" lon="33.6104342">
<ele>115.03</ele>
<time>2015-05-02T11:44:52Z</time>
</trkpt>
<trkpt lat="35.0309998" lon="33.6103321">
<ele>114.52</ele>
<time>2015-05-02T11:44:53Z</time>
</trkpt>
<trkpt lat="35.0309812" lon="33.6102485">
<ele>114.27</ele>
<time>2015-05-02T11:44:54Z</time>
</trkpt>
<trkpt lat="35.0309570" lon="33.6101488">
<ele>113.64</ele>
<time>2015-05-02T11:44:55Z</time>
</trkpt>
<trkpt lat="35.0309305" lon="33.6100627">
<ele>113.83</ele>
<time>2015-05-02T11:44:56Z</time>
</trkpt>
<trkpt lat="35.0309084" lon="33.6099834">
<ele>113.92</ele>
<time>2015-05-02T11:44:57Z</time>
</trkpt>
<trkpt lat="35.0308803" lon="33.6098883">
<ele>113.97</ele>
<time>2015-05-02T11:44:58Z</time>
</trkpt>
<trkpt lat="35.0308554" lon="33.6098117">
<ele>113.49</ele>
<time>2015-05-02T11:44:59Z</time>
</trkpt>
<trkpt lat="35.0308222" lon="33.6097324">
<ele>113.25</ele>
<time>2015-05-02T11:45:00Z</time>
</trkpt>
<trkpt lat="35.0307840" lon="33.6096570">
<ele>113.14</ele>
<time>2015-05-02T11:45:01Z</time>
</trkpt>
<trkpt lat="35.0307380" lon="33.6095966">
<ele>113.08</ele>
<time>2015-05-02T11:45:02Z</time>
</trkpt>
<trkpt lat="35.0306900" lon="33.6095328">
<ele>113.05</ele>
<time>2015-05-02T11:45:03Z</time>
</trkpt>
<trkpt lat="35.0306436" lon="33.6094819">
<ele>113.03</ele>
<time>2015-05-02T11:45:04Z</time>
</trkpt>
<trkpt lat="35.0305979" lon="33.6094380">
<ele>113.02</ele>
<time>2015-05-02T11:45:05Z</time>
</trkpt>
<trkpt lat="35.0305434" lon="33.6093835">
<ele>113.02</ele>
<time>2015-05-02T11:45:06Z</time>
</trkpt>
<trkpt lat="35.0304985" lon="33.6093318">
<ele>113.52</ele>
<time>2015-05-02T11:45:07Z</time>
</trkpt>
<trkpt lat="35.0304511" lon="33.6092790">
<ele>113.77</ele>
<time>2015-05-02T11:45:08Z</time>
</trkpt>
<trkpt lat="35.0304006" lon="33.6092200">
<ele>113.89</ele>
<time>2015-05-02T11:45:09Z</time>
</trkpt>
<trkpt lat="35.0303554" lon="33.6091711">
<ele>113.95</ele>
<time>2015-05-02T11:45:10Z</time>
</trkpt>
<trkpt lat="35.0303126" lon="33.6091084">
<ele>113.98</ele>
<time>2015-05-02T11:45:11Z</time>
</trkpt>
<trkpt lat="35.0302700" lon="33.6090501">
<ele>114.00</ele>
<time>2015-05-02T11:45:12Z</time>
</trkpt>
<trkpt lat="35.0302235" lon="33.6089972">
<ele>114.01</ele>
<time>2015-05-02T11:45:13Z</time>
</trkpt>
<trkpt lat="35.0301761" lon="33.6089398">
<ele>114.01</ele>
<time>2015-05-02T11:45:14Z</time>
</trkpt>
<trkpt lat="35.0301356" lon="33.6088843">
<ele>114.01</ele>
<time>2015-05-02T11:45:15Z</time>
</trkpt>
<trkpt lat="35.0300913" lon="33.6088215">
<ele>114.52</ele>
<time>2015-05-02T11:45:16Z</time>
</trkpt>
<trkpt lat="35.0300488" lon="33.6087576">
<ele>114.77</ele>
<time>2015-05-02T11:45:17Z</time>
</trkpt>
<trkpt lat="35.0300174" lon="33.6087072">
<ele>114.89</ele>
<time>2015-05-02T11:45:18Z</time>
</trkpt>
<trkpt lat="35.0299811" lon="33.6086496">
<ele>114.95</ele>
<time>2015-05-02T11:45:19Z</time>
</trkpt>
<trkpt lat="35.0299461" lon="33.6086005">
<ele>114.98</ele>
<time>2015-05-02T11:45:20Z</time>
</trkpt>
<trkpt lat="35.0299139" lon="33.6085505">
<ele>115.00</ele>
<time>2015-05-02T11:45:21Z</time>
</trkpt>
<trkpt lat="35.0298841" lon="33.6084883">
<ele>115.01</ele>
<time>2015-05-02T11:45:22Z</time>
</trkpt>
<trkpt lat="35.0298608" lon="33.6084390">
<ele>115.01</ele>
<time>2015-05-02T11:45:23Z</time>
</trkpt>
<trkpt lat="35.0298294" lon="33.6083924">
<ele>115.01</ele>
<time>2015-05-02T11:45:24Z</time>
</trkpt>
<trkpt lat="35.0297951" lon="33.6083364">
<ele>115.02</ele>
<time>2015-05-02T11:45:25Z</time>
</trkpt>
<trkpt lat="35.0297640" lon="33.6082844">
<ele>115.02</ele>
<time>2015-05-02T11:45:26Z</time>
</trkpt>
<trkpt lat="35.0297293" lon="33.6082298">
<ele>115.02</ele>
<time>2015-05-02T11:45:27Z</time>
</trkpt>
<trkpt lat="35.0296914" lon="33.6081758">
<ele>115.02</ele>
<time>2015-05-02T11:45:28Z</time>
</trkpt>
<trkpt lat="35.0296553" lon="33.6081280">
<ele>115.02</ele>
<time>2015-05-02T11:45:29Z</time>
</trkpt>
<trkpt lat="35.0296120" lon="33.6080754">
<ele>115.02</ele>
<time>2015-05-02T11:45:30Z</time>
</trkpt>
<trkpt lat="35.0295734" lon="33.6080244">
<ele>115.02</ele>
<time>2015-05-02T11:45:31Z</time>
</trkpt>
<trkpt lat="35.0295300" lon="33.6079726">
<ele>114.52</ele>
<time>2015-05-02T11:45:32Z</time>
</trkpt>
<trkpt lat="35.0294808" lon="33.6079197">
<ele>114.27</ele>
<time>2015-05-02T11:45:33Z</time>
</trkpt>
<trkpt lat="35.0294406" lon="33.6078742">
<ele>114.14</ele>
<time>2015-05-02T11:45:34Z</time>
</trkpt>
<trkpt lat="35.0293986" lon="33.6078223">
<ele>114.08</ele>
<time>2015-05-02T11:45:35Z</time>
</trkpt>
<trkpt lat="35.0293616" lon="33.6077740">
<ele>114.55</ele>
<time>2015-05-02T11:45:36Z</time>
</trkpt>
<trkpt lat="35.0293256" lon="33.6077355">
<ele>114.28</ele>
<time>2015-05-02T11:45:37Z</time>
</trkpt>
<trkpt lat="35.0292804" lon="33.6076851">
<ele>114.15</ele>
<time>2015-05-02T11:45:38Z</time>
</trkpt>
<trkpt lat="35.0292382" lon="33.6076406">
<ele>114.08</ele>
<time>2015-05-02T11:45:39Z</time>
</trkpt>
<trkpt lat="35.0291927" lon="33.6075934">
<ele>114.05</ele>
<time>2015-05-02T11:45:40Z</time>
</trkpt>
<trkpt lat="35.0291453" lon="33.6075424">
<ele>114.03</ele>
<time>2015-05-02T11:45:41Z</time>
</trkpt>
<trkpt lat="35.0291062" lon="33.6074977">
<ele>113.52</ele>
<time>2015-05-02T11:45:42Z</time>
</trkpt>
<trkpt lat="35.0290631" lon="33.6074511">
<ele>113.27</ele>
<time>2015-05-02T11:45:43Z</time>
</trkpt>
<trkpt lat="35.0290218" lon="33.6074018">
<ele>112.64</ele>
<time>2015-05-02T11:45:44Z</time>
</trkpt>
<trkpt lat="35.0289762" lon="33.6073606">
<ele>112.33</ele>
<time>2015-05-02T11:45:45Z</time>
</trkpt>
<trkpt lat="35.0289247" lon="33.6073090">
<ele>112.17</ele>
<time>2015-05-02T11:45:46Z</time>
</trkpt>
<trkpt lat="35.0288822" lon="33.6072657">
<ele>112.09</ele>
<time>2015-05-02T11:45:47Z</time>
</trkpt>
<trkpt lat="35.0288415" lon="33.6072131">
<ele>112.06</ele>
<time>2015-05-02T11:45:48Z</time>
</trkpt>
<trkpt lat="35.0287942" lon="33.6071554">
<ele>112.04</ele>
<time>2015-05-02T11:45:49Z</time>
</trkpt>
<trkpt lat="35.0287516" lon="33.6071053">
<ele>112.03</ele>
<time>2015-05-02T11:45:50Z</time>
</trkpt>
<trkpt lat="35.0287121" lon="33.6070509">
<ele>112.02</ele>
<time>2015-05-02T11:45:51Z</time>
</trkpt>
<trkpt lat="35.0286693" lon="33.6069991">
<ele>112.02</ele>
<time>2015-05-02T11:45:52Z</time>
</trkpt>
<trkpt lat="35.0286333" lon="33.6069492">
<ele>112.02</ele>
<time>2015-05-02T11:45:53Z</time>
</trkpt>
<trkpt lat="35.0285955" lon="33.6068898">
<ele>112.02</ele>
<time>2015-05-02T11:45:54Z</time>
</trkpt>
<trkpt lat="35.0285644" lon="33.6068395">
<ele>112.02</ele>
<time>2015-05-02T11:45:55Z</time>
</trkpt>
<trkpt lat="35.0285245" lon="33.6067775">
<ele>112.02</ele>
<time>2015-05-02T11:45:56Z</time>
</trkpt>
<trkpt lat="35.0284918" lon="33.6067156">
<ele>112.02</ele>
<time>2015-05-02T11:45:57Z</time>
</trkpt>
<trkpt lat="35.0284651" lon="33.6066578">
<ele>112.02</ele>
<time>2015-05-02T11:45:58Z</time>
</trkpt>
<trkpt lat="35.0284363" lon="33.6065924">
<ele>112.02</ele>
<time>2015-05-02T11:45:59Z</time>
</trkpt>
<trkpt lat="35.0284104" lon="33.6065257">
<ele>112.02</ele>
<time>2015-05-02T11:46:00Z</time>
</trkpt>
<trkpt lat="35.0283874" lon="33.6064556">
<ele>112.52</ele>
<time>2015-05-02T11:46:01Z</time>
</trkpt>
<trkpt lat="35.0283648" lon="33.6063771">
<ele>112.27</ele>
<time>2015-05-02T11:46:02Z</time>
</trkpt>
<trkpt lat="35.0283419" lon="33.6063088">
<ele>112.64</ele>
<time>2015-05-02T11:46:03Z</time>
</trkpt>
<trkpt lat="35.0283222" lon="33.6062406">
<ele>112.33</ele>
<time>2015-05-02T11:46:04Z</time>
</trkpt>
<trkpt lat="35.0282990" lon="33.6061671">
<ele>112.67</ele>
<time>2015-05-02T11:46:05Z</time>
</trkpt>
<trkpt lat="35.0282811" lon="33.6061029">
<ele>112.84</ele>
<time>2015-05-02T11:46:06Z</time>
</trkpt>
<trkpt lat="35.0282613" lon="33.6060355">
<ele>112.93</ele>
<time>2015-05-02T11:46:07Z</time>
</trkpt>
<trkpt lat="35.0282002" lon="33.6059702">
<ele>112.99</ele>
<time>2015-05-02T11:46:09Z</time>
</trkpt>
<trkpt lat="35.0281272" lon="33.6059641">
<ele>113.01</ele>
<time>2015-05-02T11:46:11Z</time>
</trkpt>
<trkpt lat="35.0280816" lon="33.6059718">
<ele>113.01</ele>
<time>2015-05-02T11:46:12Z</time>
</trkpt>
<trkpt lat="35.0280227" lon="33.6059674">
<ele>113.01</ele>
<time>2015-05-02T11:46:13Z</time>
</trkpt>
<trkpt lat="35.0279679" lon="33.6059570">
<ele>113.02</ele>
<time>2015-05-02T11:46:14Z</time>
</trkpt>
<trkpt lat="35.0279011" lon="33.6059386">
<ele>112.52</ele>
<time>2015-05-02T11:46:15Z</time>
</trkpt>
<trkpt lat="35.0278077" lon="33.6059179">
<ele>112.89</ele>
<time>2015-05-02T11:46:17Z</time>
</trkpt>
<trkpt lat="35.0277537" lon="33.6059040">
<ele>112.95</ele>
<time>2015-05-02T11:46:18Z</time>
</trkpt>
<trkpt lat="35.0277047" lon="33.6058910">
<ele>112.98</ele>
<time>2015-05-02T11:46:19Z</time>
</trkpt>
<trkpt lat="35.0276533" lon="33.6058807">
<ele>113.00</ele>
<time>2015-05-02T11:46:20Z</time>
</trkpt>
<trkpt lat="35.0276032" lon="33.6058695">
<ele>113.01</ele>
<time>2015-05-02T11:46:21Z</time>
</trkpt>
<trkpt lat="35.0275159" lon="33.6058415">
<ele>113.01</ele>
<time>2015-05-02T11:46:23Z</time>
</trkpt>
<trkpt lat="35.0274295" lon="33.6058201">
<ele>113.77</ele>
<time>2015-05-02T11:46:25Z</time>
</trkpt>
<trkpt lat="35.0273738" lon="33.6058087">
<ele>113.89</ele>
<time>2015-05-02T11:46:26Z</time>
</trkpt>
<trkpt lat="35.0272870" lon="33.6057995">
<ele>114.73</ele>
<time>2015-05-02T11:46:28Z</time>
</trkpt>
<trkpt lat="35.0272404" lon="33.6058002">
<ele>114.88</ele>
<time>2015-05-02T11:46:29Z</time>
</trkpt>
<trkpt lat="35.0271615" lon="33.6057829">
<ele>114.98</ele>
<time>2015-05-02T11:46:31Z</time>
</trkpt>
<trkpt lat="35.0271070" lon="33.6057778">
<ele>115.01</ele>
<time>2015-05-02T11:46:33Z</time>
</trkpt>
<trkpt lat="35.0270594" lon="33.6057790">
<ele>115.01</ele>
<time>2015-05-02T11:46:35Z</time>
</trkpt>
<trkpt lat="35.0271164" lon="33.6057530">
<ele>115.92</ele>
<time>2015-05-02T11:47:00Z</time>
</trkpt>
<trkpt lat="35.0271664" lon="33.6057584">
<ele>115.99</ele>
<time>2015-05-02T11:47:02Z</time>
</trkpt>
<trkpt lat="35.0272350" lon="33.6057580">
<ele>116.26</ele>
<time>2015-05-02T11:47:04Z</time>
</trkpt>
<trkpt lat="35.0273051" lon="33.6057599">
<ele>115.33</ele>
<time>2015-05-02T11:47:06Z</time>
</trkpt>
<trkpt lat="35.0273852" lon="33.6057663">
<ele>115.09</ele>
<time>2015-05-02T11:47:08Z</time>
</trkpt>
<trkpt lat="35.0274590" lon="33.6057806">
<ele>115.05</ele>
<time>2015-05-02T11:47:09Z</time>
</trkpt>
<trkpt lat="35.0275100" lon="33.6057929">
<ele>115.04</ele>
<time>2015-05-02T11:47:10Z</time>
</trkpt>
<trkpt lat="35.0275593" lon="33.6058007">
<ele>115.03</ele>
<time>2015-05-02T11:47:11Z</time>
</trkpt>
<trkpt lat="35.0276430" lon="33.6058250">
<ele>115.02</ele>
<time>2015-05-02T11:47:13Z</time>
</trkpt>
<trkpt lat="35.0276896" lon="33.6058390">
<ele>115.02</ele>
<time>2015-05-02T11:47:14Z</time>
</trkpt>
<trkpt lat="35.0277628" lon="33.6058602">
<ele>114.27</ele>
<time>2015-05-02T11:47:16Z</time>
</trkpt>
<trkpt lat="35.0278444" lon="33.6058821">
<ele>114.08</ele>
<time>2015-05-02T11:47:18Z</time>
</trkpt>
<trkpt lat="35.0278874" lon="33.6059006">
<ele>114.55</ele>
<time>2015-05-02T11:47:19Z</time>
</trkpt>
<trkpt lat="35.0279741" lon="33.6059252">
<ele>114.15</ele>
<time>2015-05-02T11:47:21Z</time>
</trkpt>
<trkpt lat="35.0280304" lon="33.6059289">
<ele>114.58</ele>
<time>2015-05-02T11:47:22Z</time>
</trkpt>
<trkpt lat="35.0280765" lon="33.6059378">
<ele>114.80</ele>
<time>2015-05-02T11:47:23Z</time>
</trkpt>
<trkpt lat="35.0281612" lon="33.6059444">
<ele>114.96</ele>
<time>2015-05-02T11:47:25Z</time>
</trkpt>
<trkpt lat="35.0282187" lon="33.6059088">
<ele>115.75</ele>
<time>2015-05-02T11:47:27Z</time>
</trkpt>
<trkpt lat="35.0282232" lon="33.6058532">
<ele>115.95</ele>
<time>2015-05-02T11:47:29Z</time>
</trkpt>
<trkpt lat="35.0282059" lon="33.6057830">
<ele>116.00</ele>
<time>2015-05-02T11:47:31Z</time>
</trkpt>
<trkpt lat="35.0281899" lon="33.6056896">
<ele>115.26</ele>
<time>2015-05-02T11:47:33Z</time>
</trkpt>
<trkpt lat="35.0281741" lon="33.6055880">
<ele>115.08</ele>
<time>2015-05-02T11:47:35Z</time>
</trkpt>
<trkpt lat="35.0281577" lon="33.6054675">
<ele>114.28</ele>
<time>2015-05-02T11:47:37Z</time>
</trkpt>
<trkpt lat="35.0281553" lon="33.6054033">
<ele>114.65</ele>
<time>2015-05-02T11:47:38Z</time>
</trkpt>
<trkpt lat="35.0281455" lon="33.6053436">
<ele>114.83</ele>
<time>2015-05-02T11:47:39Z</time>
</trkpt>
<trkpt lat="35.0281434" lon="33.6052844">
<ele>114.92</ele>
<time>2015-05-02T11:47:40Z</time>
</trkpt>
<trkpt lat="35.0281401" lon="33.6052269">
<ele>114.97</ele>
<time>2015-05-02T11:47:41Z</time>
</trkpt>
<trkpt lat="35.0281362" lon="33.6051642">
<ele>114.99</ele>
<time>2015-05-02T11:47:42Z</time>
</trkpt>
<trkpt lat="35.0281332" lon="33.6050973">
<ele>114.50</ele>
<time>2015-05-02T11:47:43Z</time>
</trkpt>
<trkpt lat="35.0281378" lon="33.6050343">
<ele>114.26</ele>
<time>2015-05-02T11:47:44Z</time>
</trkpt>
<trkpt lat="35.0281425" lon="33.6049775">
<ele>114.14</ele>
<time>2015-05-02T11:47:45Z</time>
</trkpt>
<trkpt lat="35.0281503" lon="33.6049199">
<ele>114.08</ele>
<time>2015-05-02T11:47:46Z</time>
</trkpt>
<trkpt lat="35.0281590" lon="33.6048109">
<ele>114.03</ele>
<time>2015-05-02T11:47:48Z</time>
</trkpt>
<trkpt lat="35.0281661" lon="33.6047469">
<ele>114.52</ele>
<time>2015-05-02T11:47:49Z</time>
</trkpt>
<trkpt lat="35.0281716" lon="33.6046889">
<ele>114.77</ele>
<time>2015-05-02T11:47:50Z</time>
</trkpt>
<trkpt lat="35.0281840" lon="33.6046221">
<ele>114.89</ele>
<time>2015-05-02T11:47:51Z</time>
</trkpt>
<trkpt lat="35.0281916" lon="33.6045576">
<ele>114.95</ele>
<time>2015-05-02T11:47:52Z</time>
</trkpt>
<trkpt lat="35.0282024" lon="33.6044549">
<ele>115.50</ele>
<time>2015-05-02T11:47:54Z</time>
</trkpt>
<trkpt lat="35.0282039" lon="33.6043590">
<ele>115.89</ele>
<time>2015-05-02T11:47:56Z</time>
</trkpt>
<trkpt lat="35.0282024" lon="33.6043025">
<ele>115.95</ele>
<time>2015-05-02T11:47:57Z</time>
</trkpt>
<trkpt lat="35.0281896" lon="33.6042021">
<ele>116.75</ele>
<time>2015-05-02T11:47:59Z</time>
</trkpt>
<trkpt lat="35.0281694" lon="33.6040980">
<ele>116.95</ele>
<time>2015-05-02T11:48:01Z</time>
</trkpt>
<trkpt lat="35.0281560" lon="33.6040404">
<ele>117.48</ele>
<time>2015-05-02T11:48:02Z</time>
</trkpt>
<trkpt lat="35.0281321" lon="33.6039307">
<ele>117.88</ele>
<time>2015-05-02T11:48:04Z</time>
</trkpt>
<trkpt lat="35.0281186" lon="33.6038766">
<ele>117.95</ele>
<time>2015-05-02T11:48:05Z</time>
</trkpt>
<trkpt lat="35.0281101" lon="33.6037832">
<ele>118.00</ele>
<time>2015-05-02T11:48:07Z</time>
</trkpt>
<trkpt lat="35.0280950" lon="33.6037086">
<ele>118.01</ele>
<time>2015-05-02T11:48:09Z</time>
</trkpt>
<trkpt lat="35.0280829" lon="33.6036198">
<ele>118.76</ele>
<time>2015-05-02T11:48:11Z</time>
</trkpt>
<trkpt lat="35.0280650" lon="33.6035218">
<ele>118.95</ele>
<time>2015-05-02T11:48:13Z</time>
</trkpt>
<trkpt lat="35.0280469" lon="33.6034255">
<ele>119.00</ele>
<time>2015-05-02T11:48:15Z</time>
</trkpt>
<trkpt lat="35.0280297" lon="33.6033256">
<ele>119.01</ele>
<time>2015-05-02T11:48:17Z</time>
</trkpt>
<trkpt lat="35.0280238" lon="33.6032701">
<ele>119.01</ele>
<time>2015-05-02T11:48:18Z</time>
</trkpt>
<trkpt lat="35.0280214" lon="33.6031682">
<ele>119.02</ele>
<time>2015-05-02T11:48:20Z</time>
</trkpt>
<trkpt lat="35.0280230" lon="33.6031125">
<ele>119.02</ele>
<time>2015-05-02T11:48:21Z</time>
</trkpt>
<trkpt lat="35.0280345" lon="33.6030098">
<ele>119.02</ele>
<time>2015-05-02T11:48:23Z</time>
</trkpt>
<trkpt lat="35.0280667" lon="33.6029061">
<ele>118.27</ele>
<time>2015-05-02T11:48:25Z</time>
</trkpt>
<trkpt lat="35.0280786" lon="33.6028368">
<ele>118.14</ele>
<time>2015-05-02T11:48:26Z</time>
</trkpt>
<trkpt lat="35.0280920" lon="33.6027778">
<ele>118.58</ele>
<time>2015-05-02T11:48:27Z</time>
</trkpt>
<trkpt lat="35.0281032" lon="33.6027180">
<ele>118.80</ele>
<time>2015-05-02T11:48:28Z</time>
</trkpt>
<trkpt lat="35.0281143" lon="33.6026542">
<ele>118.91</ele>
<time>2015-05-02T11:48:29Z</time>
</trkpt>
<trkpt lat="35.0281252" lon="33.6025499">
<ele>119.49</ele>
<time>2015-05-02T11:48:31Z</time>
</trkpt>
<trkpt lat="35.0281281" lon="33.6024490">
<ele>119.88</ele>
<time>2015-05-02T11:48:33Z</time>
</trkpt>
<trkpt lat="35.0281279" lon="33.6023847">
<ele>119.95</ele>
<time>2015-05-02T11:48:34Z</time>
</trkpt>
<trkpt lat="35.0281254" lon="33.6023284">
<ele>119.98</ele>
<time>2015-05-02T11:48:35Z</time>
</trkpt>
<trkpt lat="35.0281233" lon="33.6022676">
<ele>120.00</ele>
<time>2015-05-02T11:48:36Z</time>
</trkpt>
<trkpt lat="35.0281237" lon="33.6021968">
<ele>120.01</ele>
<time>2015-05-02T11:48:37Z</time>
</trkpt>
<trkpt lat="35.0281202" lon="33.6021344">
<ele>120.01</ele>
<time>2015-05-02T11:48:38Z</time>
</trkpt>
<trkpt lat="35.0281165" lon="33.6020717">
<ele>120.51</ele>
<time>2015-05-02T11:48:39Z</time>
</trkpt>
<trkpt lat="35.0281124" lon="33.6020062">
<ele>120.76</ele>
<time>2015-05-02T11:48:40Z</time>
</trkpt>
<trkpt lat="35.0280945" lon="33.6018890">
<ele>121.45</ele>
<time>2015-05-02T11:48:42Z</time>
</trkpt>
<trkpt lat="35.0280883" lon="33.6018334">
<ele>121.23</ele>
<time>2015-05-02T11:48:43Z</time>
</trkpt>
<trkpt lat="35.0280803" lon="33.6017654">
<ele>121.63</ele>
<time>2015-05-02T11:48:44Z</time>
</trkpt>
<trkpt lat="35.0280733" lon="33.6016956">
<ele>121.82</ele>
<time>2015-05-02T11:48:45Z</time>
</trkpt>
<trkpt lat="35.0280694" lon="33.6016404">
<ele>121.92</ele>
<time>2015-05-02T11:48:46Z</time>
</trkpt>
<trkpt lat="35.0280516" lon="33.6015811">
<ele>121.97</ele>
<time>2015-05-02T11:48:47Z</time>
</trkpt>
<trkpt lat="35.0280454" lon="33.6015178">
<ele>121.99</ele>
<time>2015-05-02T11:48:48Z</time>
</trkpt>
<trkpt lat="35.0280383" lon="33.6014632">
<ele>122.00</ele>
<time>2015-05-02T11:48:49Z</time>
</trkpt>
<trkpt lat="35.0280276" lon="33.6013997">
<ele>122.01</ele>
<time>2015-05-02T11:48:50Z</time>
</trkpt>
<trkpt lat="35.0280227" lon="33.6013426">
<ele>121.51</ele>
<time>2015-05-02T11:48:51Z</time>
</trkpt>
<trkpt lat="35.0280152" lon="33.6012860">
<ele>121.76</ele>
<time>2015-05-02T11:48:52Z</time>
</trkpt>
<trkpt lat="35.0280108" lon="33.6012247">
<ele>121.89</ele>
<time>2015-05-02T11:48:53Z</time>
</trkpt>
<trkpt lat="35.0279971" lon="33.6011704">
<ele>122.45</ele>
<time>2015-05-02T11:48:54Z</time>
</trkpt>
<trkpt lat="35.0279855" lon="33.6011057">
<ele>122.73</ele>
<time>2015-05-02T11:48:55Z</time>
</trkpt>
<trkpt lat="35.0279766" lon="33.6010463">
<ele>122.88</ele>
<time>2015-05-02T11:48:56Z</time>
</trkpt>
<trkpt lat="35.0279653" lon="33.6009912">
<ele>122.95</ele>
<time>2015-05-02T11:48:57Z</time>
</trkpt>
<trkpt lat="35.0279560" lon="33.6009242">
<ele>122.98</ele>
<time>2015-05-02T11:48:58Z</time>
</trkpt>
<trkpt lat="35.0279520" lon="33.6008583">
<ele>123.00</ele>
<time>2015-05-02T11:48:59Z</time>
</trkpt>
<trkpt lat="35.0279396" lon="33.6007981">
<ele>123.01</ele>
<time>2015-05-02T11:49:00Z</time>
</trkpt>
<trkpt lat="35.0279344" lon="33.6007366">
<ele>123.01</ele>
<time>2015-05-02T11:49:01Z</time>
</trkpt>
<trkpt lat="35.0279318" lon="33.6006792">
<ele>123.01</ele>
<time>2015-05-02T11:49:02Z</time>
</trkpt>
<trkpt lat="35.0279181" lon="33.6005738">
<ele>123.77</ele>
<time>2015-05-02T11:49:04Z</time>
</trkpt>
<trkpt lat="35.0279000" lon="33.6004590">
<ele>123.95</ele>
<time>2015-05-02T11:49:06Z</time>
</trkpt>
<trkpt lat="35.0278942" lon="33.6003989">
<ele>123.98</ele>
<time>2015-05-02T11:49:07Z</time>
</trkpt>
<trkpt lat="35.0278863" lon="33.6003405">
<ele>124.00</ele>
<time>2015-05-02T11:49:08Z</time>
</trkpt>
<trkpt lat="35.0278773" lon="33.6002698">
<ele>124.01</ele>
<time>2015-05-02T11:49:09Z</time>
</trkpt>
<trkpt lat="35.0278726" lon="33.6002135">
<ele>124.01</ele>
<time>2015-05-02T11:49:10Z</time>
</trkpt>
<trkpt lat="35.0278677" lon="33.6001416">
<ele>124.01</ele>
<time>2015-05-02T11:49:11Z</time>
</trkpt>
<trkpt lat="35.0278586" lon="33.6000824">
<ele>124.02</ele>
<time>2015-05-02T11:49:12Z</time>
</trkpt>
<trkpt lat="35.0278460" lon="33.5999719">
<ele>124.02</ele>
<time>2015-05-02T11:49:14Z</time>
</trkpt>
<trkpt lat="35.0278359" lon="33.5998756">
<ele>124.02</ele>
<time>2015-05-02T11:49:16Z</time>
</trkpt>
<trkpt lat="35.0278298" lon="33.5998138">
<ele>124.02</ele>
<time>2015-05-02T11:49:17Z</time>
</trkpt>
<trkpt lat="35.0278285" lon="33.5997524">
<ele>124.02</ele>
<time>2015-05-02T11:49:18Z</time>
</trkpt>
<trkpt lat="35.0278210" lon="33.5996884">
<ele>124.02</ele>
<time>2015-05-02T11:49:19Z</time>
</trkpt>
<trkpt lat="35.0278141" lon="33.5996255">
<ele>124.02</ele>
<time>2015-05-02T11:49:20Z</time>
</trkpt>
<trkpt lat="35.0278094" lon="33.5995655">
<ele>124.02</ele>
<time>2015-05-02T11:49:21Z</time>
</trkpt>
<trkpt lat="35.0278012" lon="33.5994999">
<ele>124.02</ele>
<time>2015-05-02T11:49:22Z</time>
</trkpt>
<trkpt lat="35.0277903" lon="33.5993961">
<ele>124.02</ele>
<time>2015-05-02T11:49:24Z</time>
</trkpt>
<trkpt lat="35.0277845" lon="33.5993379">
<ele>124.02</ele>
<time>2015-05-02T11:49:25Z</time>
</trkpt>
<trkpt lat="35.0277724" lon="33.5992402">
<ele>124.77</ele>
<time>2015-05-02T11:49:27Z</time>
</trkpt>
<trkpt lat="35.0277614" lon="33.5991400">
<ele>124.95</ele>
<time>2015-05-02T11:49:29Z</time>
</trkpt>
<trkpt lat="35.0277539" lon="33.5990852">
<ele>124.98</ele>
<time>2015-05-02T11:49:30Z</time>
</trkpt>
<trkpt lat="35.0277437" lon="33.5990300">
<ele>125.00</ele>
<time>2015-05-02T11:49:31Z</time>
</trkpt>
<trkpt lat="35.0277314" lon="33.5989713">
<ele>125.51</ele>
<time>2015-05-02T11:49:32Z</time>
</trkpt>
<trkpt lat="35.0277143" lon="33.5989089">
<ele>125.76</ele>
<time>2015-05-02T11:49:33Z</time>
</trkpt>
<trkpt lat="35.0276916" lon="33.5988042">
<ele>125.95</ele>
<time>2015-05-02T11:49:35Z</time>
</trkpt>
<trkpt lat="35.0276802" lon="33.5987484">
<ele>125.98</ele>
<time>2015-05-02T11:49:36Z</time>
</trkpt>
<trkpt lat="35.0276607" lon="33.5986368">
<ele>126.26</ele>
<time>2015-05-02T11:49:38Z</time>
</trkpt>
<trkpt lat="35.0276380" lon="33.5985386">
<ele>126.83</ele>
<time>2015-05-02T11:49:40Z</time>
</trkpt>
<trkpt lat="35.0276241" lon="33.5984840">
<ele>126.42</ele>
<time>2015-05-02T11:49:41Z</time>
</trkpt>
<trkpt lat="35.0275931" lon="33.5983781">
<ele>126.87</ele>
<time>2015-05-02T11:49:43Z</time>
</trkpt>
<trkpt lat="35.0275776" lon="33.5983231">
<ele>126.94</ele>
<time>2015-05-02T11:49:44Z</time>
</trkpt>
<trkpt lat="35.0275451" lon="33.5982143">
<ele>127.50</ele>
<time>2015-05-02T11:49:46Z</time>
</trkpt>
<trkpt lat="35.0275066" lon="33.5981203">
<ele>127.89</ele>
<time>2015-05-02T11:49:48Z</time>
</trkpt>
<trkpt lat="35.0274739" lon="33.5980311">
<ele>127.98</ele>
<time>2015-05-02T11:49:50Z</time>
</trkpt>
<trkpt lat="35.0274486" lon="33.5979649">
<ele>128.01</ele>
<time>2015-05-02T11:49:52Z</time>
</trkpt>
<trkpt lat="35.0274224" lon="33.5978972">
<ele>128.01</ele>
<time>2015-05-02T11:49:54Z</time>
</trkpt>
<trkpt lat="35.0274013" lon="33.5978190">
<ele>128.52</ele>
<time>2015-05-02T11:49:56Z</time>
</trkpt>
<trkpt lat="35.0273850" lon="33.5977253">
<ele>128.39</ele>
<time>2015-05-02T11:49:58Z</time>
</trkpt>
<trkpt lat="35.0273629" lon="33.5976367">
<ele>128.11</ele>
<time>2015-05-02T11:50:00Z</time>
</trkpt>
<trkpt lat="35.0273371" lon="33.5975515">
<ele>128.04</ele>
<time>2015-05-02T11:50:02Z</time>
</trkpt>
<trkpt lat="35.0273098" lon="33.5974645">
<ele>128.77</ele>
<time>2015-05-02T11:50:04Z</time>
</trkpt>
<trkpt lat="35.0272816" lon="33.5973851">
<ele>129.45</ele>
<time>2015-05-02T11:50:06Z</time>
</trkpt>
<trkpt lat="35.0272507" lon="33.5973028">
<ele>130.63</ele>
<time>2015-05-02T11:50:08Z</time>
</trkpt>
<trkpt lat="35.0272249" lon="33.5972217">
<ele>130.42</ele>
<time>2015-05-02T11:50:10Z</time>
</trkpt>
<trkpt lat="35.0271987" lon="33.5971372">
<ele>131.37</ele>
<time>2015-05-02T11:50:12Z</time>
</trkpt>
<trkpt lat="35.0271685" lon="33.5970528">
<ele>132.35</ele>
<time>2015-05-02T11:50:14Z</time>
</trkpt>
<trkpt lat="35.0271422" lon="33.5969683">
<ele>133.60</ele>
<time>2015-05-02T11:50:16Z</time>
</trkpt>
<trkpt lat="35.0271186" lon="33.5968792">
<ele>133.91</ele>
<time>2015-05-02T11:50:18Z</time>
</trkpt>
<trkpt lat="35.0270902" lon="33.5967863">
<ele>134.49</ele>
<time>2015-05-02T11:50:20Z</time>
</trkpt>
<trkpt lat="35.0270722" lon="33.5967201">
<ele>134.75</ele>
<time>2015-05-02T11:50:21Z</time>
</trkpt>
<trkpt lat="35.0270662" lon="33.5966099">
<ele>135.45</ele>
<time>2015-05-02T11:50:23Z</time>
</trkpt>
<trkpt lat="35.0270362" lon="33.5965577">
<ele>135.23</ele>
<time>2015-05-02T11:50:24Z</time>
</trkpt>
<trkpt lat="35.0270263" lon="33.5965025">
<ele>135.12</ele>
<time>2015-05-02T11:50:25Z</time>
</trkpt>
<trkpt lat="35.0270157" lon="33.5964068">
<ele>135.04</ele>
<time>2015-05-02T11:50:27Z</time>
</trkpt>
<trkpt lat="35.0270106" lon="33.5963522">
<ele>135.03</ele>
<time>2015-05-02T11:50:28Z</time>
</trkpt>
<trkpt lat="35.0270019" lon="33.5962541">
<ele>135.02</ele>
<time>2015-05-02T11:50:30Z</time>
</trkpt>
<trkpt lat="35.0269749" lon="33.5961518">
<ele>135.52</ele>
<time>2015-05-02T11:50:32Z</time>
</trkpt>
<trkpt lat="35.0269560" lon="33.5960437">
<ele>135.64</ele>
<time>2015-05-02T11:50:34Z</time>
</trkpt>
<trkpt lat="35.0269406" lon="33.5959335">
<ele>136.42</ele>
<time>2015-05-02T11:50:36Z</time>
</trkpt>
<trkpt lat="35.0269104" lon="33.5958561">
<ele>136.37</ele>
<time>2015-05-02T11:50:38Z</time>
</trkpt>
<trkpt lat="35.0268790" lon="33.5957683">
<ele>136.10</ele>
<time>2015-05-02T11:50:40Z</time>
</trkpt>
<trkpt lat="35.0268357" lon="33.5956697">
<ele>136.04</ele>
<time>2015-05-02T11:50:42Z</time>
</trkpt>
<trkpt lat="35.0267816" lon="33.5955772">
<ele>136.27</ele>
<time>2015-05-02T11:50:44Z</time>
</trkpt>
<trkpt lat="35.0267531" lon="33.5955320">
<ele>135.64</ele>
<time>2015-05-02T11:50:45Z</time>
</trkpt>
<trkpt lat="35.0267185" lon="33.5954878">
<ele>135.33</ele>
<time>2015-05-02T11:50:46Z</time>
</trkpt>
<trkpt lat="35.0266625" lon="33.5954083">
<ele>135.84</ele>
<time>2015-05-02T11:50:48Z</time>
</trkpt>
<trkpt lat="35.0266146" lon="33.5953249">
<ele>135.97</ele>
<time>2015-05-02T11:50:50Z</time>
</trkpt>
<trkpt lat="35.0265608" lon="33.5952480">
<ele>136.01</ele>
<time>2015-05-02T11:50:52Z</time>
</trkpt>
<trkpt lat="35.0264916" lon="33.5951758">
<ele>136.51</ele>
<time>2015-05-02T11:50:54Z</time>
</trkpt>
<trkpt lat="35.0264372" lon="33.5951125">
<ele>136.89</ele>
<time>2015-05-02T11:50:56Z</time>
</trkpt>
<trkpt lat="35.0263853" lon="33.5950587">
<ele>137.73</ele>
<time>2015-05-02T11:50:58Z</time>
</trkpt>
<trkpt lat="35.0263315" lon="33.5950083">
<ele>138.70</ele>
<time>2015-05-02T11:51:00Z</time>
</trkpt>
<trkpt lat="35.0262796" lon="33.5949524">
<ele>138.94</ele>
<time>2015-05-02T11:51:02Z</time>
</trkpt>
<trkpt lat="35.0262192" lon="33.5948912">
<ele>138.50</ele>
<time>2015-05-02T11:51:04Z</time>
</trkpt>
<trkpt lat="35.0261729" lon="33.5948429">
<ele>138.26</ele>
<time>2015-05-02T11:51:05Z</time>
</trkpt>
<trkpt lat="35.0261337" lon="33.5948067">
<ele>138.14</ele>
<time>2015-05-02T11:51:06Z</time>
</trkpt>
<trkpt lat="35.0260973" lon="33.5947716">
<ele>138.08</ele>
<time>2015-05-02T11:51:07Z</time>
</trkpt>
<trkpt lat="35.0260382" lon="33.5947050">
<ele>138.03</ele>
<time>2015-05-02T11:51:09Z</time>
</trkpt>
<trkpt lat="35.0259704" lon="33.5946362">
<ele>138.77</ele>
<time>2015-05-02T11:51:11Z</time>
</trkpt>
<trkpt lat="35.0259040" lon="33.5945570">
<ele>138.45</ele>
<time>2015-05-02T11:51:13Z</time>
</trkpt>
<trkpt lat="35.0258395" lon="33.5944845">
<ele>138.63</ele>
<time>2015-05-02T11:51:15Z</time>
</trkpt>
<trkpt lat="35.0257962" lon="33.5944160">
<ele>138.92</ele>
<time>2015-05-02T11:51:17Z</time>
</trkpt>
<trkpt lat="35.0257507" lon="33.5943460">
<ele>138.99</ele>
<time>2015-05-02T11:51:19Z</time>
</trkpt>
<trkpt lat="35.0256895" lon="33.5942697">
<ele>137.76</ele>
<time>2015-05-02T11:51:21Z</time>
</trkpt>
<trkpt lat="35.0256531" lon="33.5942360">
<ele>137.89</ele>
<time>2015-05-02T11:51:22Z</time>
</trkpt>
<trkpt lat="35.0255983" lon="33.5941554">
<ele>137.98</ele>
<time>2015-05-02T11:51:24Z</time>
</trkpt>
<trkpt lat="35.0255559" lon="33.5940831">
<ele>137.26</ele>
<time>2015-05-02T11:51:26Z</time>
</trkpt>
<trkpt lat="35.0255135" lon="33.5940049">
<ele>137.58</ele>
<time>2015-05-02T11:51:28Z</time>
</trkpt>
<trkpt lat="35.0254676" lon="33.5939199">
<ele>137.91</ele>
<time>2015-05-02T11:51:30Z</time>
</trkpt>
<trkpt lat="35.0254401" lon="33.5938690">
<ele>138.46</ele>
<time>2015-05-02T11:51:31Z</time>
</trkpt>
<trkpt lat="35.0254042" lon="33.5938175">
<ele>139.24</ele>
<time>2015-05-02T11:51:32Z</time>
</trkpt>
<trkpt lat="35.0253682" lon="33.5937689">
<ele>139.63</ele>
<time>2015-05-02T11:51:33Z</time>
</trkpt>
<trkpt lat="35.0253322" lon="33.5936877">
<ele>139.42</ele>
<time>2015-05-02T11:51:35Z</time>
</trkpt>
<trkpt lat="35.0252954" lon="33.5936100">
<ele>139.62</ele>
<time>2015-05-02T11:51:37Z</time>
</trkpt>
<trkpt lat="35.0252588" lon="33.5935373">
<ele>139.92</ele>
<time>2015-05-02T11:51:39Z</time>
</trkpt>
<trkpt lat="35.0252137" lon="33.5934630">
<ele>139.99</ele>
<time>2015-05-02T11:51:41Z</time>
</trkpt>
<trkpt lat="35.0251791" lon="33.5933755">
<ele>139.26</ele>
<time>2015-05-02T11:51:43Z</time>
</trkpt>
<trkpt lat="35.0251373" lon="33.5933007">
<ele>140.33</ele>
<time>2015-05-02T11:51:45Z</time>
</trkpt>
<trkpt lat="35.0250994" lon="33.5932258">
<ele>140.84</ele>
<time>2015-05-02T11:51:47Z</time>
</trkpt>
<trkpt lat="35.0250646" lon="33.5931379">
<ele>140.97</ele>
<time>2015-05-02T11:51:49Z</time>
</trkpt>
<trkpt lat="35.0250312" lon="33.5930520">
<ele>141.76</ele>
<time>2015-05-02T11:51:51Z</time>
</trkpt>
<trkpt lat="35.0250052" lon="33.5929694">
<ele>141.95</ele>
<time>2015-05-02T11:51:53Z</time>
</trkpt>
<trkpt lat="35.0249855" lon="33.5928929">
<ele>142.00</ele>
<time>2015-05-02T11:51:55Z</time>
</trkpt>
<trkpt lat="35.0249639" lon="33.5928069">
<ele>142.01</ele>
<time>2015-05-02T11:51:57Z</time>
</trkpt>
<trkpt lat="35.0249378" lon="33.5927209">
<ele>141.76</ele>
<time>2015-05-02T11:51:59Z</time>
</trkpt>
<trkpt lat="35.0249236" lon="33.5926018">
<ele>141.95</ele>
<time>2015-05-02T11:52:01Z</time>
</trkpt>
<trkpt lat="35.0249138" lon="33.5925432">
<ele>141.98</ele>
<time>2015-05-02T11:52:02Z</time>
</trkpt>
<trkpt lat="35.0248994" lon="33.5924882">
<ele>142.00</ele>
<time>2015-05-02T11:52:03Z</time>
</trkpt>
<trkpt lat="35.0248882" lon="33.5924302">
<ele>142.51</ele>
<time>2015-05-02T11:52:04Z</time>
</trkpt>
<trkpt lat="35.0248504" lon="33.5923256">
<ele>144.14</ele>
<time>2015-05-02T11:52:06Z</time>
</trkpt>
<trkpt lat="35.0248331" lon="33.5922733">
<ele>144.58</ele>
<time>2015-05-02T11:52:07Z</time>
</trkpt>
<trkpt lat="35.0248111" lon="33.5922220">
<ele>144.80</ele>
<time>2015-05-02T11:52:08Z</time>
</trkpt>
<trkpt lat="35.0247731" lon="33.5921362">
<ele>144.96</ele>
<time>2015-05-02T11:52:10Z</time>
</trkpt>
<trkpt lat="35.0247423" lon="33.5920472">
<ele>145.75</ele>
<time>2015-05-02T11:52:12Z</time>
</trkpt>
<trkpt lat="35.0247005" lon="33.5919638">
<ele>145.70</ele>
<time>2015-05-02T11:52:14Z</time>
</trkpt>
<trkpt lat="35.0246532" lon="33.5918789">
<ele>145.94</ele>
<time>2015-05-02T11:52:16Z</time>
</trkpt>
<trkpt lat="35.0246312" lon="33.5918278">
<ele>145.98</ele>
<time>2015-05-02T11:52:17Z</time>
</trkpt>
<trkpt lat="35.0245871" lon="33.5917404">
<ele>146.01</ele>
<time>2015-05-02T11:52:19Z</time>
</trkpt>
<trkpt lat="35.0245432" lon="33.5916689">
<ele>146.51</ele>
<time>2015-05-02T11:52:21Z</time>
</trkpt>
<trkpt lat="35.0245067" lon="33.5916083">
<ele>146.39</ele>
<time>2015-05-02T11:52:23Z</time>
</trkpt>
<trkpt lat="35.0244709" lon="33.5915393">
<ele>146.61</ele>
<time>2015-05-02T11:52:25Z</time>
</trkpt>
<trkpt lat="35.0244297" lon="33.5914730">
<ele>146.91</ele>
<time>2015-05-02T11:52:27Z</time>
</trkpt>
<trkpt lat="35.0243846" lon="33.5914046">
<ele>147.49</ele>
<time>2015-05-02T11:52:29Z</time>
</trkpt>
<trkpt lat="35.0243372" lon="33.5913344">
<ele>147.88</ele>
<time>2015-05-02T11:52:31Z</time>
</trkpt>
<trkpt lat="35.0242898" lon="33.5912642">
<ele>147.98</ele>
<time>2015-05-02T11:52:33Z</time>
</trkpt>
<trkpt lat="35.0242470" lon="33.5911995">
<ele>148.51</ele>
<time>2015-05-02T11:52:35Z</time>
</trkpt>
<trkpt lat="35.0241998" lon="33.5911389">
<ele>148.64</ele>
<time>2015-05-02T11:52:37Z</time>
</trkpt>
<trkpt lat="35.0241490" lon="33.5910888">
<ele>148.92</ele>
<time>2015-05-02T11:52:39Z</time>
</trkpt>
<trkpt lat="35.0240863" lon="33.5910478">
<ele>149.49</ele>
<time>2015-05-02T11:52:41Z</time>
</trkpt>
<trkpt lat="35.0240151" lon="33.5910191">
<ele>149.89</ele>
<time>2015-05-02T11:52:43Z</time>
</trkpt>
<trkpt lat="35.0239381" lon="33.5909906">
<ele>150.48</ele>
<time>2015-05-02T11:52:45Z</time>
</trkpt>
<trkpt lat="35.0238597" lon="33.5909708">
<ele>150.88</ele>
<time>2015-05-02T11:52:47Z</time>
</trkpt>
<trkpt lat="35.0237948" lon="33.5909582">
<ele>150.95</ele>
<time>2015-05-02T11:52:48Z</time>
</trkpt>
<trkpt lat="35.0237473" lon="33.5909390">
<ele>151.48</ele>
<time>2015-05-02T11:52:49Z</time>
</trkpt>
<trkpt lat="35.0237038" lon="33.5909243">
<ele>151.75</ele>
<time>2015-05-02T11:52:50Z</time>
</trkpt>
<trkpt lat="35.0236552" lon="33.5909183">
<ele>151.38</ele>
<time>2015-05-02T11:52:51Z</time>
</trkpt>
<trkpt lat="35.0235757" lon="33.5909076">
<ele>150.61</ele>
<time>2015-05-02T11:52:53Z</time>
</trkpt>
<trkpt lat="35.0235296" lon="33.5908977">
<ele>150.31</ele>
<time>2015-05-02T11:52:54Z</time>
</trkpt>
<trkpt lat="35.0234747" lon="33.5908885">
<ele>149.66</ele>
<time>2015-05-02T11:52:55Z</time>
</trkpt>
<trkpt lat="35.0234294" lon="33.5908778">
<ele>149.34</ele>
<time>2015-05-02T11:52:56Z</time>
</trkpt>
<trkpt lat="35.0233767" lon="33.5908760">
<ele>148.68</ele>
<time>2015-05-02T11:52:57Z</time>
</trkpt>
<trkpt lat="35.0233229" lon="33.5908690">
<ele>148.35</ele>
<time>2015-05-02T11:52:58Z</time>
</trkpt>
<trkpt lat="35.0232777" lon="33.5908567">
<ele>148.18</ele>
<time>2015-05-02T11:52:59Z</time>
</trkpt>
<trkpt lat="35.0232249" lon="33.5908418">
<ele>148.60</ele>
<time>2015-05-02T11:53:00Z</time>
</trkpt>
<trkpt lat="35.0231732" lon="33.5908335">
<ele>148.81</ele>
<time>2015-05-02T11:53:01Z</time>
</trkpt>
<trkpt lat="35.0231134" lon="33.5908133">
<ele>148.91</ele>
<time>2015-05-02T11:53:02Z</time>
</trkpt>
<trkpt lat="35.0230567" lon="33.5907931">
<ele>148.96</ele>
<time>2015-05-02T11:53:03Z</time>
</trkpt>
<trkpt lat="35.0230053" lon="33.5907851">
<ele>149.49</ele>
<time>2015-05-02T11:53:04Z</time>
</trkpt>
<trkpt lat="35.0229379" lon="33.5907707">
<ele>149.25</ele>
<time>2015-05-02T11:53:05Z</time>
</trkpt>
<trkpt lat="35.0228750" lon="33.5907519">
<ele>149.63</ele>
<time>2015-05-02T11:53:06Z</time>
</trkpt>
<trkpt lat="35.0228070" lon="33.5907306">
<ele>149.83</ele>
<time>2015-05-02T11:53:07Z</time>
</trkpt>
<trkpt lat="35.0227440" lon="33.5906966">
<ele>150.42</ele>
<time>2015-05-02T11:53:08Z</time>
</trkpt>
<trkpt lat="35.0226719" lon="33.5906764">
<ele>150.22</ele>
<time>2015-05-02T11:53:09Z</time>
</trkpt>
<trkpt lat="35.0226282" lon="33.5906610">
<ele>151.12</ele>
<time>2015-05-02T11:53:10Z</time>
</trkpt>
<trkpt lat="35.0225658" lon="33.5906324">
<ele>151.07</ele>
<time>2015-05-02T11:53:11Z</time>
</trkpt>
<trkpt lat="35.0225007" lon="33.5905961">
<ele>150.54</ele>
<time>2015-05-02T11:53:12Z</time>
</trkpt>
<trkpt lat="35.0224411" lon="33.5905735">
<ele>150.28</ele>
<time>2015-05-02T11:53:13Z</time>
</trkpt>
<trkpt lat="35.0223816" lon="33.5905437">
<ele>150.15</ele>
<time>2015-05-02T11:53:14Z</time>
</trkpt>
<trkpt lat="35.0223276" lon="33.5905205">
<ele>150.08</ele>
<time>2015-05-02T11:53:15Z</time>
</trkpt>
<trkpt lat="35.0222686" lon="33.5904896">
<ele>150.55</ele>
<time>2015-05-02T11:53:16Z</time>
</trkpt>
<trkpt lat="35.0222126" lon="33.5904555">
<ele>150.78</ele>
<time>2015-05-02T11:53:17Z</time>
</trkpt>
<trkpt lat="35.0221546" lon="33.5904226">
<ele>150.90</ele>
<time>2015-05-02T11:53:18Z</time>
</trkpt>
<trkpt lat="35.0220920" lon="33.5903851">
<ele>150.46</ele>
<time>2015-05-02T11:53:19Z</time>
</trkpt>
<trkpt lat="35.0220320" lon="33.5903497">
<ele>150.24</ele>
<time>2015-05-02T11:53:20Z</time>
</trkpt>
<trkpt lat="35.0219828" lon="33.5903163">
<ele>150.13</ele>
<time>2015-05-02T11:53:21Z</time>
</trkpt>
<trkpt lat="35.0219251" lon="33.5902995">
<ele>150.07</ele>
<time>2015-05-02T11:53:22Z</time>
</trkpt>
<trkpt lat="35.0218655" lon="33.5902685">
<ele>149.54</ele>
<time>2015-05-02T11:53:23Z</time>
</trkpt>
<trkpt lat="35.0218065" lon="33.5902318">
<ele>149.28</ele>
<time>2015-05-02T11:53:24Z</time>
</trkpt>
<trkpt lat="35.0217437" lon="33.5901986">
<ele>149.65</ele>
<time>2015-05-02T11:53:25Z</time>
</trkpt>
<trkpt lat="35.0216885" lon="33.5901547">
<ele>149.33</ele>
<time>2015-05-02T11:53:26Z</time>
</trkpt>
<trkpt lat="35.0216290" lon="33.5901355">
<ele>149.17</ele>
<time>2015-05-02T11:53:27Z</time>
</trkpt>
<trkpt lat="35.0215754" lon="33.5901018">
<ele>148.59</ele>
<time>2015-05-02T11:53:28Z</time>
</trkpt>
<trkpt lat="35.0215092" lon="33.5900694">
<ele>147.81</ele>
<time>2015-05-02T11:53:29Z</time>
</trkpt>
<trkpt lat="35.0214464" lon="33.5900359">
<ele>147.41</ele>
<time>2015-05-02T11:53:30Z</time>
</trkpt>
<trkpt lat="35.0213855" lon="33.5899958">
<ele>147.21</ele>
<time>2015-05-02T11:53:31Z</time>
</trkpt>
<trkpt lat="35.0213246" lon="33.5899600">
<ele>147.11</ele>
<time>2015-05-02T11:53:32Z</time>
</trkpt>
<trkpt lat="35.0212515" lon="33.5899294">
<ele>146.57</ele>
<time>2015-05-02T11:53:33Z</time>
</trkpt>
<trkpt lat="35.0211897" lon="33.5899057">
<ele>145.79</ele>
<time>2015-05-02T11:53:34Z</time>
</trkpt>
<trkpt lat="35.0211183" lon="33.5898745">
<ele>145.90</ele>
<time>2015-05-02T11:53:35Z</time>
</trkpt>
<trkpt lat="35.0210521" lon="33.5898451">
<ele>145.46</ele>
<time>2015-05-02T11:53:36Z</time>
</trkpt>
<trkpt lat="35.0209873" lon="33.5898102">
<ele>145.24</ele>
<time>2015-05-02T11:53:37Z</time>
</trkpt>
<trkpt lat="35.0209338" lon="33.5897648">
<ele>145.13</ele>
<time>2015-05-02T11:53:38Z</time>
</trkpt>
<trkpt lat="35.0208729" lon="33.5897297">
<ele>144.57</ele>
<time>2015-05-02T11:53:39Z</time>
</trkpt>
<trkpt lat="35.0208023" lon="33.5896911">
<ele>144.29</ele>
<time>2015-05-02T11:53:40Z</time>
</trkpt>
<trkpt lat="35.0207359" lon="33.5896480">
<ele>144.15</ele>
<time>2015-05-02T11:53:41Z</time>
</trkpt>
<trkpt lat="35.0206762" lon="33.5896166">
<ele>143.09</ele>
<time>2015-05-02T11:53:42Z</time>
</trkpt>
<trkpt lat="35.0206037" lon="33.5895862">
<ele>142.55</ele>
<time>2015-05-02T11:53:43Z</time>
</trkpt>
<trkpt lat="35.0205438" lon="33.5895492">
<ele>142.28</ele>
<time>2015-05-02T11:53:44Z</time>
</trkpt>
<trkpt lat="35.0204772" lon="33.5895113">
<ele>142.15</ele>
<time>2015-05-02T11:53:45Z</time>
</trkpt>
<trkpt lat="35.0204142" lon="33.5894727">
<ele>141.58</ele>
<time>2015-05-02T11:53:46Z</time>
</trkpt>
<trkpt lat="35.0203541" lon="33.5894299">
<ele>140.80</ele>
<time>2015-05-02T11:53:47Z</time>
</trkpt>
<trkpt lat="35.0202816" lon="33.5893906">
<ele>140.91</ele>
<time>2015-05-02T11:53:48Z</time>
</trkpt>
<trkpt lat="35.0202082" lon="33.5893557">
<ele>140.96</ele>
<time>2015-05-02T11:53:49Z</time>
</trkpt>
<trkpt lat="35.0201535" lon="33.5893117">
<ele>141.99</ele>
<time>2015-05-02T11:53:50Z</time>
</trkpt>
<trkpt lat="35.0200917" lon="33.5892767">
<ele>142.00</ele>
<time>2015-05-02T11:53:51Z</time>
</trkpt>
<trkpt lat="35.0200384" lon="33.5892323">
<ele>142.01</ele>
<time>2015-05-02T11:53:52Z</time>
</trkpt>
<trkpt lat="35.0199858" lon="33.5891940">
<ele>141.51</ele>
<time>2015-05-02T11:53:53Z</time>
</trkpt>
<trkpt lat="35.0199258" lon="33.5891533">
<ele>141.26</ele>
<time>2015-05-02T11:53:54Z</time>
</trkpt>
<trkpt lat="35.0198813" lon="33.5891239">
<ele>140.64</ele>
<time>2015-05-02T11:53:55Z</time>
</trkpt>
<trkpt lat="35.0198226" lon="33.5890866">
<ele>140.33</ele>
<time>2015-05-02T11:53:56Z</time>
</trkpt>
<trkpt lat="35.0197718" lon="33.5890464">
<ele>139.67</ele>
<time>2015-05-02T11:53:57Z</time>
</trkpt>
<trkpt lat="35.0197200" lon="33.5890102">
<ele>139.34</ele>
<time>2015-05-02T11:53:58Z</time>
</trkpt>
<trkpt lat="35.0196707" lon="33.5889726">
<ele>139.18</ele>
<time>2015-05-02T11:53:59Z</time>
</trkpt>
<trkpt lat="35.0196218" lon="33.5889333">
<ele>139.10</ele>
<time>2015-05-02T11:54:00Z</time>
</trkpt>
<trkpt lat="35.0195815" lon="33.5888993">
<ele>139.06</ele>
<time>2015-05-02T11:54:01Z</time>
</trkpt>
<trkpt lat="35.0195336" lon="33.5888555">
<ele>139.04</ele>
<time>2015-05-02T11:54:02Z</time>
</trkpt>
<trkpt lat="35.0194866" lon="33.5888145">
<ele>138.53</ele>
<time>2015-05-02T11:54:03Z</time>
</trkpt>
<trkpt lat="35.0194410" lon="33.5887768">
<ele>138.27</ele>
<time>2015-05-02T11:54:04Z</time>
</trkpt>
<trkpt lat="35.0193888" lon="33.5887331">
<ele>138.64</ele>
<time>2015-05-02T11:54:05Z</time>
</trkpt>
<trkpt lat="35.0193497" lon="33.5886989">
<ele>138.33</ele>
<time>2015-05-02T11:54:06Z</time>
</trkpt>
<trkpt lat="35.0193129" lon="33.5886492">
<ele>138.17</ele>
<time>2015-05-02T11:54:07Z</time>
</trkpt>
<trkpt lat="35.0192831" lon="33.5885920">
<ele>137.59</ele>
<time>2015-05-02T11:54:08Z</time>
</trkpt>
<trkpt lat="35.0192459" lon="33.5885386">
<ele>137.31</ele>
<time>2015-05-02T11:54:09Z</time>
</trkpt>
<trkpt lat="35.0192150" lon="33.5884886">
<ele>137.66</ele>
<time>2015-05-02T11:54:10Z</time>
</trkpt>
<trkpt lat="35.0191819" lon="33.5884383">
<ele>137.84</ele>
<time>2015-05-02T11:54:11Z</time>
</trkpt>
<trkpt lat="35.0191578" lon="33.5883721">
<ele>137.43</ele>
<time>2015-05-02T11:54:12Z</time>
</trkpt>
<trkpt lat="35.0191193" lon="33.5883227">
<ele>137.22</ele>
<time>2015-05-02T11:54:13Z</time>
</trkpt>
<trkpt lat="35.0190538" lon="33.5882286">
<ele>137.82</ele>
<time>2015-05-02T11:54:15Z</time>
</trkpt>
<trkpt lat="35.0190120" lon="33.5881770">
<ele>137.42</ele>
<time>2015-05-02T11:54:16Z</time>
</trkpt>
<trkpt lat="35.0189741" lon="33.5881283">
<ele>137.22</ele>
<time>2015-05-02T11:54:17Z</time>
</trkpt>
<trkpt lat="35.0189394" lon="33.5880909">
<ele>137.62</ele>
<time>2015-05-02T11:54:18Z</time>
</trkpt>
<trkpt lat="35.0189010" lon="33.5880519">
<ele>137.82</ele>
<time>2015-05-02T11:54:19Z</time>
</trkpt>
<trkpt lat="35.0188314" lon="33.5879822">
<ele>138.72</ele>
<time>2015-05-02T11:54:21Z</time>
</trkpt>
<trkpt lat="35.0187993" lon="33.5878931">
<ele>138.19</ele>
<time>2015-05-02T11:54:23Z</time>
</trkpt>
<trkpt lat="35.0187708" lon="33.5878486">
<ele>138.10</ele>
<time>2015-05-02T11:54:24Z</time>
</trkpt>
<trkpt lat="35.0187322" lon="33.5877774">
<ele>138.54</ele>
<time>2015-05-02T11:54:26Z</time>
</trkpt>
<trkpt lat="35.0186892" lon="33.5876904">
<ele>140.90</ele>
<time>2015-05-02T11:54:28Z</time>
</trkpt>
<trkpt lat="35.0186588" lon="33.5876005">
<ele>141.74</ele>
<time>2015-05-02T11:54:30Z</time>
</trkpt>
<trkpt lat="35.0186322" lon="33.5875163">
<ele>141.45</ele>
<time>2015-05-02T11:54:32Z</time>
</trkpt>
<trkpt lat="35.0186020" lon="33.5874350">
<ele>140.37</ele>
<time>2015-05-02T11:54:34Z</time>
</trkpt>
<trkpt lat="35.0185756" lon="33.5873503">
<ele>140.11</ele>
<time>2015-05-02T11:54:36Z</time>
</trkpt>
<trkpt lat="35.0185513" lon="33.5872612">
<ele>139.29</ele>
<time>2015-05-02T11:54:38Z</time>
</trkpt>
<trkpt lat="35.0185294" lon="33.5871743">
<ele>139.83</ele>
<time>2015-05-02T11:54:40Z</time>
</trkpt>
<trkpt lat="35.0185148" lon="33.5870974">
<ele>139.97</ele>
<time>2015-05-02T11:54:42Z</time>
</trkpt>
<trkpt lat="35.0185070" lon="33.5870402">
<ele>140.75</ele>
<time>2015-05-02T11:54:44Z</time>
</trkpt>
<trkpt lat="35.0184888" lon="33.5869741">
<ele>146.39</ele>
<time>2015-05-02T11:55:06Z</time>
</trkpt>
<trkpt lat="35.0184766" lon="33.5869108">
<ele>146.86</ele>
<time>2015-05-02T11:55:08Z</time>
</trkpt>
<trkpt lat="35.0184484" lon="33.5868337">
<ele>147.73</ele>
<time>2015-05-02T11:55:10Z</time>
</trkpt>
<trkpt lat="35.0184160" lon="33.5867482">
<ele>147.94</ele>
<time>2015-05-02T11:55:12Z</time>
</trkpt>
<trkpt lat="35.0183820" lon="33.5866608">
<ele>147.50</ele>
<time>2015-05-02T11:55:14Z</time>
</trkpt>
<trkpt lat="35.0183343" lon="33.5865744">
<ele>147.14</ele>
<time>2015-05-02T11:55:16Z</time>
</trkpt>
<trkpt lat="35.0182750" lon="33.5864948">
<ele>147.80</ele>
<time>2015-05-02T11:55:18Z</time>
</trkpt>
<trkpt lat="35.0182073" lon="33.5864320">
<ele>147.71</ele>
<time>2015-05-02T11:55:20Z</time>
</trkpt>
<trkpt lat="35.0181438" lon="33.5863750">
<ele>147.19</ele>
<time>2015-05-02T11:55:22Z</time>
</trkpt>
<trkpt lat="35.0180863" lon="33.5863194">
<ele>147.06</ele>
<time>2015-05-02T11:55:24Z</time>
</trkpt>
<trkpt lat="35.0180352" lon="33.5862644">
<ele>146.53</ele>
<time>2015-05-02T11:55:26Z</time>
</trkpt>
<trkpt lat="35.0179846" lon="33.5862138">
<ele>146.64</ele>
<time>2015-05-02T11:55:28Z</time>
</trkpt>
<trkpt lat="35.0179247" lon="33.5861704">
<ele>147.17</ele>
<time>2015-05-02T11:55:30Z</time>
</trkpt>
<trkpt lat="35.0178686" lon="33.5861322">
<ele>147.56</ele>
<time>2015-05-02T11:55:32Z</time>
</trkpt>
<trkpt lat="35.0178160" lon="33.5860927">
<ele>147.15</ele>
<time>2015-05-02T11:55:34Z</time>
</trkpt>
<trkpt lat="35.0177598" lon="33.5860515">
<ele>146.80</ele>
<time>2015-05-02T11:55:36Z</time>
</trkpt>
<trkpt lat="35.0176975" lon="33.5860068">
<ele>147.71</ele>
<time>2015-05-02T11:55:38Z</time>
</trkpt>
<trkpt lat="35.0176328" lon="33.5859564">
<ele>147.44</ele>
<time>2015-05-02T11:55:40Z</time>
</trkpt>
<trkpt lat="35.0175712" lon="33.5859011">
<ele>147.87</ele>
<time>2015-05-02T11:55:42Z</time>
</trkpt>
<trkpt lat="35.0175082" lon="33.5858431">
<ele>147.48</ele>
<time>2015-05-02T11:55:44Z</time>
</trkpt>
<trkpt lat="35.0174424" lon="33.5857899">
<ele>147.88</ele>
<time>2015-05-02T11:55:46Z</time>
</trkpt>
<trkpt lat="35.0173769" lon="33.5857394">
<ele>147.48</ele>
<time>2015-05-02T11:55:48Z</time>
</trkpt>
<trkpt lat="35.0173050" lon="33.5856880">
<ele>147.13</ele>
<time>2015-05-02T11:55:50Z</time>
</trkpt>
<trkpt lat="35.0172415" lon="33.5856471">
<ele>146.57</ele>
<time>2015-05-02T11:55:51Z</time>
</trkpt>
<trkpt lat="35.0171562" lon="33.5856029">
<ele>146.16</ele>
<time>2015-05-02T11:55:53Z</time>
</trkpt>
<trkpt lat="35.0171025" lon="33.5855803">
<ele>146.59</ele>
<time>2015-05-02T11:55:54Z</time>
</trkpt>
<trkpt lat="35.0170322" lon="33.5855066">
<ele>147.41</ele>
<time>2015-05-02T11:55:56Z</time>
</trkpt>
<trkpt lat="35.0169740" lon="33.5854756">
<ele>148.21</ele>
<time>2015-05-02T11:55:57Z</time>
</trkpt>
<trkpt lat="35.0169169" lon="33.5854522">
<ele>147.61</ele>
<time>2015-05-02T11:55:58Z</time>
</trkpt>
<trkpt lat="35.0168528" lon="33.5854224">
<ele>147.32</ele>
<time>2015-05-02T11:55:59Z</time>
</trkpt>
<trkpt lat="35.0167989" lon="33.5853871">
<ele>146.67</ele>
<time>2015-05-02T11:56:00Z</time>
</trkpt>
<trkpt lat="35.0167481" lon="33.5853505">
<ele>146.34</ele>
<time>2015-05-02T11:56:01Z</time>
</trkpt>
<trkpt lat="35.0166925" lon="33.5853169">
<ele>145.68</ele>
<time>2015-05-02T11:56:02Z</time>
</trkpt>
<trkpt lat="35.0166376" lon="33.5852907">
<ele>145.85</ele>
<time>2015-05-02T11:56:03Z</time>
</trkpt>
<trkpt lat="35.0165923" lon="33.5852684">
<ele>145.93</ele>
<time>2015-05-02T11:56:04Z</time>
</trkpt>
<trkpt lat="35.0165421" lon="33.5852412">
<ele>145.97</ele>
<time>2015-05-02T11:56:05Z</time>
</trkpt>
<trkpt lat="35.0165029" lon="33.5852111">
<ele>145.49</ele>
<time>2015-05-02T11:56:06Z</time>
</trkpt>
<trkpt lat="35.0164632" lon="33.5851853">
<ele>145.26</ele>
<time>2015-05-02T11:56:07Z</time>
</trkpt>
<trkpt lat="35.0164009" lon="33.5851216">
<ele>145.83</ele>
<time>2015-05-02T11:56:09Z</time>
</trkpt>
<trkpt lat="35.0163605" lon="33.5850902">
<ele>145.92</ele>
<time>2015-05-02T11:56:10Z</time>
</trkpt>
<trkpt lat="35.0163097" lon="33.5850643">
<ele>145.97</ele>
<time>2015-05-02T11:56:11Z</time>
</trkpt>
<trkpt lat="35.0162678" lon="33.5850380">
<ele>145.99</ele>
<time>2015-05-02T11:56:12Z</time>
</trkpt>
<trkpt lat="35.0162279" lon="33.5850099">
<ele>146.00</ele>
<time>2015-05-02T11:56:13Z</time>
</trkpt>
<trkpt lat="35.0161812" lon="33.5849752">
<ele>146.01</ele>
<time>2015-05-02T11:56:14Z</time>
</trkpt>
<trkpt lat="35.0161343" lon="33.5849362">
<ele>145.51</ele>
<time>2015-05-02T11:56:15Z</time>
</trkpt>
<trkpt lat="35.0160632" lon="33.5848702">
<ele>145.89</ele>
<time>2015-05-02T11:56:17Z</time>
</trkpt>
<trkpt lat="35.0160248" lon="33.5848414">
<ele>145.95</ele>
<time>2015-05-02T11:56:18Z</time>
</trkpt>
<trkpt lat="35.0159938" lon="33.5848004">
<ele>146.48</ele>
<time>2015-05-02T11:56:19Z</time>
</trkpt>
<trkpt lat="35.0159574" lon="33.5847554">
<ele>146.75</ele>
<time>2015-05-02T11:56:20Z</time>
</trkpt>
<trkpt lat="35.0159253" lon="33.5847009">
<ele>146.88</ele>
<time>2015-05-02T11:56:21Z</time>
</trkpt>
<trkpt lat="35.0158902" lon="33.5846554">
<ele>146.95</ele>
<time>2015-05-02T11:56:22Z</time>
</trkpt>
<trkpt lat="35.0158590" lon="33.5846038">
<ele>147.48</ele>
<time>2015-05-02T11:56:23Z</time>
</trkpt>
<trkpt lat="35.0158294" lon="33.5845602">
<ele>147.25</ele>
<time>2015-05-02T11:56:24Z</time>
</trkpt>
<trkpt lat="35.0157996" lon="33.5845140">
<ele>147.13</ele>
<time>2015-05-02T11:56:25Z</time>
</trkpt>
<trkpt lat="35.0157677" lon="33.5844668">
<ele>147.07</ele>
<time>2015-05-02T11:56:26Z</time>
</trkpt>
<trkpt lat="35.0157372" lon="33.5844167">
<ele>147.05</ele>
<time>2015-05-02T11:56:27Z</time>
</trkpt>
<trkpt lat="35.0157107" lon="33.5843641">
<ele>147.03</ele>
<time>2015-05-02T11:56:28Z</time>
</trkpt>
<trkpt lat="35.0156779" lon="33.5843141">
<ele>147.02</ele>
<time>2015-05-02T11:56:29Z</time>
</trkpt>
<trkpt lat="35.0156465" lon="33.5842540">
<ele>147.02</ele>
<time>2015-05-02T11:56:30Z</time>
</trkpt>
<trkpt lat="35.0156228" lon="33.5841966">
<ele>147.52</ele>
<time>2015-05-02T11:56:31Z</time>
</trkpt>
<trkpt lat="35.0155964" lon="33.5841419">
<ele>147.77</ele>
<time>2015-05-02T11:56:32Z</time>
</trkpt>
<trkpt lat="35.0155752" lon="33.5840862">
<ele>147.89</ele>
<time>2015-05-02T11:56:33Z</time>
</trkpt>
<trkpt lat="35.0155509" lon="33.5840383">
<ele>147.95</ele>
<time>2015-05-02T11:56:34Z</time>
</trkpt>
<trkpt lat="35.0155078" lon="33.5839659">
<ele>148.75</ele>
<time>2015-05-02T11:56:36Z</time>
</trkpt>
<trkpt lat="35.0154740" lon="33.5838913">
<ele>148.20</ele>
<time>2015-05-02T11:56:38Z</time>
</trkpt>
<trkpt lat="35.0154363" lon="33.5838218">
<ele>148.56</ele>
<time>2015-05-02T11:56:40Z</time>
</trkpt>
<trkpt lat="35.0153898" lon="33.5837379">
<ele>148.90</ele>
<time>2015-05-02T11:56:42Z</time>
</trkpt>
<trkpt lat="35.0153359" lon="33.5836584">
<ele>148.24</ele>
<time>2015-05-02T11:56:44Z</time>
</trkpt>
<trkpt lat="35.0152800" lon="33.5835648">
<ele>148.32</ele>
<time>2015-05-02T11:56:46Z</time>
</trkpt>
<trkpt lat="35.0152415" lon="33.5835279">
<ele>148.17</ele>
<time>2015-05-02T11:56:47Z</time>
</trkpt>
<trkpt lat="35.0151969" lon="33.5834542">
<ele>147.30</ele>
<time>2015-05-02T11:56:49Z</time>
</trkpt>
<trkpt lat="35.0151672" lon="33.5834072">
<ele>147.16</ele>
<time>2015-05-02T11:56:50Z</time>
</trkpt>
<trkpt lat="35.0151376" lon="33.5833641">
<ele>147.09</ele>
<time>2015-05-02T11:56:51Z</time>
</trkpt>
<trkpt lat="35.0151087" lon="33.5833094">
<ele>147.05</ele>
<time>2015-05-02T11:56:52Z</time>
</trkpt>
<trkpt lat="35.0150904" lon="33.5832446">
<ele>147.53</ele>
<time>2015-05-02T11:56:53Z</time>
</trkpt>
<trkpt lat="35.0150663" lon="33.5831954">
<ele>147.78</ele>
<time>2015-05-02T11:56:54Z</time>
</trkpt>
<trkpt lat="35.0150471" lon="33.5831334">
<ele>148.40</ele>
<time>2015-05-02T11:56:55Z</time>
</trkpt>
<trkpt lat="35.0150219" lon="33.5830810">
<ele>148.71</ele>
<time>2015-05-02T11:56:56Z</time>
</trkpt>
<trkpt lat="35.0150119" lon="33.5830236">
<ele>148.36</ele>
<time>2015-05-02T11:56:57Z</time>
</trkpt>
<trkpt lat="35.0149887" lon="33.5829644">
<ele>148.19</ele>
<time>2015-05-02T11:56:58Z</time>
</trkpt>
<trkpt lat="35.0149722" lon="33.5829037">
<ele>148.10</ele>
<time>2015-05-02T11:56:59Z</time>
</trkpt>
<trkpt lat="35.0149658" lon="33.5828355">
<ele>148.06</ele>
<time>2015-05-02T11:57:00Z</time>
</trkpt>
<trkpt lat="35.0149530" lon="33.5827758">
<ele>148.54</ele>
<time>2015-05-02T11:57:01Z</time>
</trkpt>
<trkpt lat="35.0149454" lon="33.5827203">
<ele>148.78</ele>
<time>2015-05-02T11:57:02Z</time>
</trkpt>
<trkpt lat="35.0149366" lon="33.5826648">
<ele>148.90</ele>
<time>2015-05-02T11:57:03Z</time>
</trkpt>
<trkpt lat="35.0149266" lon="33.5826042">
<ele>149.46</ele>
<time>2015-05-02T11:57:04Z</time>
</trkpt>
<trkpt lat="35.0149233" lon="33.5825466">
<ele>149.24</ele>
<time>2015-05-02T11:57:05Z</time>
</trkpt>
<trkpt lat="35.0149092" lon="33.5824609">
<ele>149.57</ele>
<time>2015-05-02T11:57:07Z</time>
</trkpt>
<trkpt lat="35.0149054" lon="33.5824061">
<ele>149.29</ele>
<time>2015-05-02T11:57:08Z</time>
</trkpt>
<trkpt lat="35.0148930" lon="33.5823018">
<ele>148.59</ele>
<time>2015-05-02T11:57:10Z</time>
</trkpt>
<trkpt lat="35.0148711" lon="33.5821946">
<ele>148.16</ele>
<time>2015-05-02T11:57:12Z</time>
</trkpt>
<trkpt lat="35.0148523" lon="33.5821420">
<ele>149.09</ele>
<time>2015-05-02T11:57:13Z</time>
</trkpt>
<trkpt lat="35.0148581" lon="33.5820828">
<ele>149.05</ele>
<time>2015-05-02T11:57:14Z</time>
</trkpt>
<trkpt lat="35.0148452" lon="33.5820268">
<ele>149.53</ele>
<time>2015-05-02T11:57:15Z</time>
</trkpt>
<trkpt lat="35.0148414" lon="33.5819494">
<ele>149.77</ele>
<time>2015-05-02T11:57:16Z</time>
</trkpt>
<trkpt lat="35.0148360" lon="33.5818897">
<ele>150.40</ele>
<time>2015-05-02T11:57:17Z</time>
</trkpt>
<trkpt lat="35.0148205" lon="33.5818310">
<ele>150.21</ele>
<time>2015-05-02T11:57:18Z</time>
</trkpt>
<trkpt lat="35.0148059" lon="33.5817789">
<ele>150.11</ele>
<time>2015-05-02T11:57:19Z</time>
</trkpt>
<trkpt lat="35.0148006" lon="33.5817201">
<ele>150.06</ele>
<time>2015-05-02T11:57:20Z</time>
</trkpt>
<trkpt lat="35.0147942" lon="33.5816586">
<ele>149.54</ele>
<time>2015-05-02T11:57:21Z</time>
</trkpt>
<trkpt lat="35.0147839" lon="33.5815980">
<ele>149.28</ele>
<time>2015-05-02T11:57:22Z</time>
</trkpt>
<trkpt lat="35.0147745" lon="33.5815325">
<ele>149.15</ele>
<time>2015-05-02T11:57:23Z</time>
</trkpt>
<trkpt lat="35.0147670" lon="33.5814766">
<ele>149.08</ele>
<time>2015-05-02T11:57:24Z</time>
</trkpt>
<trkpt lat="35.0147542" lon="33.5814147">
<ele>148.55</ele>
<time>2015-05-02T11:57:25Z</time>
</trkpt>
<trkpt lat="35.0147522" lon="33.5813468">
<ele>148.28</ele>
<time>2015-05-02T11:57:26Z</time>
</trkpt>
<trkpt lat="35.0147422" lon="33.5812872">
<ele>148.15</ele>
<time>2015-05-02T11:57:27Z</time>
</trkpt>
<trkpt lat="35.0147318" lon="33.5812180">
<ele>148.58</ele>
<time>2015-05-02T11:57:28Z</time>
</trkpt>
<trkpt lat="35.0147216" lon="33.5811593">
<ele>149.30</ele>
<time>2015-05-02T11:57:29Z</time>
</trkpt>
<trkpt lat="35.0146991" lon="33.5810661">
<ele>150.59</ele>
<time>2015-05-02T11:57:31Z</time>
</trkpt>
<trkpt lat="35.0146789" lon="33.5809721">
<ele>150.41</ele>
<time>2015-05-02T11:57:33Z</time>
</trkpt>
<trkpt lat="35.0146607" lon="33.5808752">
<ele>150.86</ele>
<time>2015-05-02T11:57:35Z</time>
</trkpt>
<trkpt lat="35.0146509" lon="33.5808204">
<ele>150.94</ele>
<time>2015-05-02T11:57:36Z</time>
</trkpt>
<trkpt lat="35.0146397" lon="33.5807598">
<ele>150.98</ele>
<time>2015-05-02T11:57:37Z</time>
</trkpt>
<trkpt lat="35.0146230" lon="33.5807032">
<ele>150.50</ele>
<time>2015-05-02T11:57:38Z</time>
</trkpt>
<trkpt lat="35.0146007" lon="33.5806054">
<ele>150.89</ele>
<time>2015-05-02T11:57:40Z</time>
</trkpt>
<trkpt lat="35.0145969" lon="33.5805195">
<ele>150.48</ele>
<time>2015-05-02T11:57:42Z</time>
</trkpt>
<trkpt lat="35.0145637" lon="33.5804465">
<ele>150.13</ele>
<time>2015-05-02T11:57:44Z</time>
</trkpt>
<trkpt lat="35.0145630" lon="33.5803656">
<ele>150.05</ele>
<time>2015-05-02T11:57:46Z</time>
</trkpt>
<trkpt lat="35.0145381" lon="33.5802901">
<ele>150.02</ele>
<time>2015-05-02T11:57:48Z</time>
</trkpt>
<trkpt lat="35.0145297" lon="33.5801871">
<ele>150.77</ele>
<time>2015-05-02T11:57:50Z</time>
</trkpt>
<trkpt lat="35.0145045" lon="33.5801007">
<ele>151.70</ele>
<time>2015-05-02T11:57:52Z</time>
</trkpt>
<trkpt lat="35.0144777" lon="33.5800276">
<ele>151.94</ele>
<time>2015-05-02T11:57:54Z</time>
</trkpt>
<trkpt lat="35.0144485" lon="33.5799608">
<ele>152.00</ele>
<time>2015-05-02T11:57:56Z</time>
</trkpt>
<trkpt lat="35.0144151" lon="33.5798928">
<ele>152.76</ele>
<time>2015-05-02T11:57:58Z</time>
</trkpt>
<trkpt lat="35.0143848" lon="33.5798254">
<ele>153.45</ele>
<time>2015-05-02T11:58:00Z</time>
</trkpt>
<trkpt lat="35.0143624" lon="33.5797620">
<ele>153.88</ele>
<time>2015-05-02T11:58:02Z</time>
</trkpt>
<trkpt lat="35.0143410" lon="33.5797134">
<ele>154.48</ele>
<time>2015-05-02T11:58:04Z</time>
</trkpt>
<trkpt lat="35.0143011" lon="33.5796530">
<ele>155.20</ele>
<time>2015-05-02T11:58:07Z</time>
</trkpt>
<trkpt lat="35.0142524" lon="33.5796001">
<ele>155.54</ele>
<time>2015-05-02T11:58:10Z</time>
</trkpt>
<trkpt lat="35.0142062" lon="33.5795472">
<ele>155.96</ele>
<time>2015-05-02T11:58:13Z</time>
</trkpt>
<trkpt lat="35.0141565" lon="33.5794980">
<ele>157.63</ele>
<time>2015-05-02T11:58:16Z</time>
</trkpt>
<trkpt lat="35.0141146" lon="33.5794353">
<ele>157.22</ele>
<time>2015-05-02T11:58:19Z</time>
</trkpt>
<trkpt lat="35.0140881" lon="33.5793889">
<ele>157.57</ele>
<time>2015-05-02T11:58:21Z</time>
</trkpt>
<trkpt lat="35.0140578" lon="33.5793471">
<ele>157.40</ele>
<time>2015-05-02T11:58:23Z</time>
</trkpt>
<trkpt lat="35.0140237" lon="33.5793103">
<ele>157.86</ele>
<time>2015-05-02T11:58:25Z</time>
</trkpt>
<trkpt lat="35.0139884" lon="33.5792719">
<ele>157.98</ele>
<time>2015-05-02T11:58:27Z</time>
</trkpt>
<trkpt lat="35.0139485" lon="33.5792252">
<ele>157.76</ele>
<time>2015-05-02T11:58:29Z</time>
</trkpt>
<trkpt lat="35.0139089" lon="33.5791812">
<ele>157.95</ele>
<time>2015-05-02T11:58:31Z</time>
</trkpt>
<trkpt lat="35.0138640" lon="33.5791342">
<ele>156.00</ele>
<time>2015-05-02T11:58:33Z</time>
</trkpt>
<trkpt lat="35.0138285" lon="33.5790932">
<ele>155.26</ele>
<time>2015-05-02T11:58:35Z</time>
</trkpt>
<trkpt lat="35.0137814" lon="33.5790406">
<ele>154.92</ele>
<time>2015-05-02T11:58:38Z</time>
</trkpt>
<trkpt lat="35.0137410" lon="33.5789960">
<ele>154.74</ele>
<time>2015-05-02T11:58:40Z</time>
</trkpt>
<trkpt lat="35.0136930" lon="33.5789460">
<ele>155.45</ele>
<time>2015-05-02T11:58:42Z</time>
</trkpt>
<trkpt lat="35.0136350" lon="33.5788863">
<ele>156.62</ele>
<time>2015-05-02T11:58:44Z</time>
</trkpt>
<trkpt lat="35.0135770" lon="33.5788261">
<ele>156.17</ele>
<time>2015-05-02T11:58:46Z</time>
</trkpt>
<trkpt lat="35.0135230" lon="33.5787693">
<ele>156.30</ele>
<time>2015-05-02T11:58:48Z</time>
</trkpt>
<trkpt lat="35.0134796" lon="33.5787239">
<ele>156.34</ele>
<time>2015-05-02T11:58:50Z</time>
</trkpt>
<trkpt lat="35.0134394" lon="33.5786666">
<ele>157.43</ele>
<time>2015-05-02T11:58:53Z</time>
</trkpt>
<trkpt lat="35.0134046" lon="33.5786222">
<ele>157.12</ele>
<time>2015-05-02T11:58:55Z</time>
</trkpt>
<trkpt lat="35.0133624" lon="33.5785718">
<ele>158.29</ele>
<time>2015-05-02T11:58:57Z</time>
</trkpt>
<trkpt lat="35.0133210" lon="33.5785208">
<ele>158.83</ele>
<time>2015-05-02T11:58:59Z</time>
</trkpt>
<trkpt lat="35.0132782" lon="33.5784574">
<ele>158.22</ele>
<time>2015-05-02T11:59:01Z</time>
</trkpt>
<trkpt lat="35.0132375" lon="33.5783941">
<ele>158.82</ele>
<time>2015-05-02T11:59:03Z</time>
</trkpt>
<trkpt lat="35.0131879" lon="33.5783272">
<ele>159.47</ele>
<time>2015-05-02T11:59:05Z</time>
</trkpt>
<trkpt lat="35.0131376" lon="33.5782594">
<ele>159.13</ele>
<time>2015-05-02T11:59:07Z</time>
</trkpt>
<trkpt lat="35.0130831" lon="33.5781772">
<ele>159.04</ele>
<time>2015-05-02T11:59:09Z</time>
</trkpt>
<trkpt lat="35.0130286" lon="33.5780929">
<ele>159.52</ele>
<time>2015-05-02T11:59:11Z</time>
</trkpt>
<trkpt lat="35.0129785" lon="33.5780157">
<ele>159.89</ele>
<time>2015-05-02T11:59:13Z</time>
</trkpt>
<trkpt lat="35.0129344" lon="33.5779481">
<ele>159.99</ele>
<time>2015-05-02T11:59:15Z</time>
</trkpt>
<trkpt lat="35.0128960" lon="33.5778739">
<ele>160.01</ele>
<time>2015-05-02T11:59:17Z</time>
</trkpt>
<trkpt lat="35.0128530" lon="33.5777990">
<ele>159.26</ele>
<time>2015-05-02T11:59:19Z</time>
</trkpt>
<trkpt lat="35.0128096" lon="33.5777150">
<ele>159.08</ele>
<time>2015-05-02T11:59:21Z</time>
</trkpt>
<trkpt lat="35.0127633" lon="33.5776249">
<ele>159.03</ele>
<time>2015-05-02T11:59:23Z</time>
</trkpt>
<trkpt lat="35.0127203" lon="33.5775638">
<ele>159.02</ele>
<time>2015-05-02T11:59:24Z</time>
</trkpt>
<trkpt lat="35.0126889" lon="33.5775127">
<ele>159.02</ele>
<time>2015-05-02T11:59:25Z</time>
</trkpt>
<trkpt lat="35.0126579" lon="33.5774671">
<ele>159.02</ele>
<time>2015-05-02T11:59:26Z</time>
</trkpt>
<trkpt lat="35.0126371" lon="33.5774080">
<ele>159.52</ele>
<time>2015-05-02T11:59:27Z</time>
</trkpt>
<trkpt lat="35.0126100" lon="33.5773571">
<ele>159.27</ele>
<time>2015-05-02T11:59:28Z</time>
</trkpt>
<trkpt lat="35.0125804" lon="33.5772976">
<ele>159.14</ele>
<time>2015-05-02T11:59:29Z</time>
</trkpt>
<trkpt lat="35.0125495" lon="33.5772485">
<ele>158.58</ele>
<time>2015-05-02T11:59:30Z</time>
</trkpt>
<trkpt lat="35.0125206" lon="33.5772006">
<ele>159.30</ele>
<time>2015-05-02T11:59:31Z</time>
</trkpt>
<trkpt lat="35.0124839" lon="33.5771575">
<ele>159.66</ele>
<time>2015-05-02T11:59:32Z</time>
</trkpt>
<trkpt lat="35.0124551" lon="33.5771093">
<ele>159.34</ele>
<time>2015-05-02T11:59:33Z</time>
</trkpt>
<trkpt lat="35.0124248" lon="33.5770580">
<ele>158.68</ele>
<time>2015-05-02T11:59:34Z</time>
</trkpt>
<trkpt lat="35.0123907" lon="33.5770118">
<ele>158.35</ele>
<time>2015-05-02T11:59:35Z</time>
</trkpt>
<trkpt lat="35.0123593" lon="33.5769653">
<ele>158.18</ele>
<time>2015-05-02T11:59:36Z</time>
</trkpt>
<trkpt lat="35.0123197" lon="33.5769172">
<ele>158.10</ele>
<time>2015-05-02T11:59:37Z</time>
</trkpt>
<trkpt lat="35.0122837" lon="33.5768663">
<ele>157.56</ele>
<time>2015-05-02T11:59:38Z</time>
</trkpt>
<trkpt lat="35.0122486" lon="33.5768142">
<ele>157.29</ele>
<time>2015-05-02T11:59:39Z</time>
</trkpt>
<trkpt lat="35.0122151" lon="33.5767654">
<ele>157.65</ele>
<time>2015-05-02T11:59:40Z</time>
</trkpt>
<trkpt lat="35.0121787" lon="33.5767079">
<ele>157.83</ele>
<time>2015-05-02T11:59:41Z</time>
</trkpt>
<trkpt lat="35.0121481" lon="33.5766477">
<ele>157.92</ele>
<time>2015-05-02T11:59:42Z</time>
</trkpt>
<trkpt lat="35.0121100" lon="33.5765981">
<ele>157.97</ele>
<time>2015-05-02T11:59:43Z</time>
</trkpt>
<trkpt lat="35.0120686" lon="33.5765459">
<ele>157.49</ele>
<time>2015-05-02T11:59:44Z</time>
</trkpt>
<trkpt lat="35.0120365" lon="33.5765026">
<ele>157.25</ele>
<time>2015-05-02T11:59:45Z</time>
</trkpt>
<trkpt lat="35.0119928" lon="33.5764497">
<ele>156.64</ele>
<time>2015-05-02T11:59:46Z</time>
</trkpt>
<trkpt lat="35.0119651" lon="33.5764047">
<ele>155.83</ele>
<time>2015-05-02T11:59:47Z</time>
</trkpt>
<trkpt lat="35.0119242" lon="33.5763408">
<ele>155.42</ele>
<time>2015-05-02T11:59:48Z</time>
</trkpt>
<trkpt lat="35.0118798" lon="33.5762812">
<ele>155.22</ele>
<time>2015-05-02T11:59:49Z</time>
</trkpt>
<trkpt lat="35.0118342" lon="33.5762272">
<ele>155.12</ele>
<time>2015-05-02T11:59:50Z</time>
</trkpt>
<trkpt lat="35.0117898" lon="33.5761721">
<ele>155.07</ele>
<time>2015-05-02T11:59:51Z</time>
</trkpt>
<trkpt lat="35.0117415" lon="33.5761166">
<ele>154.54</ele>
<time>2015-05-02T11:59:52Z</time>
</trkpt>
<trkpt lat="35.0116932" lon="33.5760566">
<ele>154.78</ele>
<time>2015-05-02T11:59:53Z</time>
</trkpt>
<trkpt lat="35.0116431" lon="33.5759930">
<ele>154.40</ele>
<time>2015-05-02T11:59:54Z</time>
</trkpt>
<trkpt lat="35.0116005" lon="33.5759323">
<ele>154.21</ele>
<time>2015-05-02T11:59:55Z</time>
</trkpt>
<trkpt lat="35.0115508" lon="33.5758752">
<ele>154.11</ele>
<time>2015-05-02T11:59:56Z</time>
</trkpt>
<trkpt lat="35.0115015" lon="33.5758163">
<ele>154.06</ele>
<time>2015-05-02T11:59:57Z</time>
</trkpt>
<trkpt lat="35.0114495" lon="33.5757518">
<ele>153.54</ele>
<time>2015-05-02T11:59:58Z</time>
</trkpt>
<trkpt lat="35.0113968" lon="33.5756940">
<ele>153.78</ele>
<time>2015-05-02T11:59:59Z</time>
</trkpt>
<trkpt lat="35.0113552" lon="33.5756413">
<ele>153.40</ele>
<time>2015-05-02T12:00:00Z</time>
</trkpt>
<trkpt lat="35.0113030" lon="33.5755781">
<ele>153.21</ele>
<time>2015-05-02T12:00:01Z</time>
</trkpt>
<trkpt lat="35.0112545" lon="33.5755116">
<ele>152.61</ele>
<time>2015-05-02T12:00:02Z</time>
</trkpt>
<trkpt lat="35.0112018" lon="33.5754577">
<ele>152.31</ele>
<time>2015-05-02T12:00:03Z</time>
</trkpt>
<trkpt lat="35.0111578" lon="33.5754006">
<ele>152.66</ele>
<time>2015-05-02T12:00:04Z</time>
</trkpt>
<trkpt lat="35.0111104" lon="33.5753405">
<ele>152.84</ele>
<time>2015-05-02T12:00:05Z</time>
</trkpt>
<trkpt lat="35.0110602" lon="33.5752851">
<ele>152.43</ele>
<time>2015-05-02T12:00:06Z</time>
</trkpt>
<trkpt lat="35.0110256" lon="33.5752110">
<ele>151.72</ele>
<time>2015-05-02T12:00:07Z</time>
</trkpt>
<trkpt lat="35.0109764" lon="33.5751438">
<ele>151.37</ele>
<time>2015-05-02T12:00:08Z</time>
</trkpt>
<trkpt lat="35.0109242" lon="33.5750804">
<ele>150.69</ele>
<time>2015-05-02T12:00:09Z</time>
</trkpt>
<trkpt lat="35.0108795" lon="33.5750188">
<ele>149.85</ele>
<time>2015-05-02T12:00:10Z</time>
</trkpt>
<trkpt lat="35.0108317" lon="33.5749621">
<ele>149.44</ele>
<time>2015-05-02T12:00:11Z</time>
</trkpt>
<trkpt lat="35.0107782" lon="33.5749064">
<ele>149.23</ele>
<time>2015-05-02T12:00:12Z</time>
</trkpt>
<trkpt lat="35.0107226" lon="33.5748470">
<ele>149.12</ele>
<time>2015-05-02T12:00:13Z</time>
</trkpt>
<trkpt lat="35.0106658" lon="33.5747908">
<ele>149.07</ele>
<time>2015-05-02T12:00:14Z</time>
</trkpt>
<trkpt lat="35.0106248" lon="33.5747323">
<ele>148.54</ele>
<time>2015-05-02T12:00:15Z</time>
</trkpt>
<trkpt lat="35.0105697" lon="33.5746708">
<ele>148.28</ele>
<time>2015-05-02T12:00:16Z</time>
</trkpt>
<trkpt lat="35.0105185" lon="33.5746039">
<ele>148.15</ele>
<time>2015-05-02T12:00:17Z</time>
</trkpt>
<trkpt lat="35.0104670" lon="33.5745447">
<ele>148.08</ele>
<time>2015-05-02T12:00:18Z</time>
</trkpt>
<trkpt lat="35.0104168" lon="33.5744829">
<ele>147.55</ele>
<time>2015-05-02T12:00:19Z</time>
</trkpt>
<trkpt lat="35.0103648" lon="33.5744268">
<ele>147.28</ele>
<time>2015-05-02T12:00:20Z</time>
</trkpt>
<trkpt lat="35.0103218" lon="33.5743802">
<ele>146.65</ele>
<time>2015-05-02T12:00:21Z</time>
</trkpt>
<trkpt lat="35.0102864" lon="33.5743264">
<ele>146.33</ele>
<time>2015-05-02T12:00:22Z</time>
</trkpt>
<trkpt lat="35.0102290" lon="33.5742824">
<ele>146.17</ele>
<time>2015-05-02T12:00:23Z</time>
</trkpt>
<trkpt lat="35.0101781" lon="33.5742457">
<ele>146.10</ele>
<time>2015-05-02T12:00:24Z</time>
</trkpt>
<trkpt lat="35.0101202" lon="33.5742171">
<ele>146.06</ele>
<time>2015-05-02T12:00:25Z</time>
</trkpt>
<trkpt lat="35.0100559" lon="33.5741785">
<ele>145.53</ele>
<time>2015-05-02T12:00:27Z</time>
</trkpt>
<trkpt lat="35.0100332" lon="33.5741306">
<ele>145.80</ele>
<time>2015-05-02T12:01:07Z</time>
</trkpt>
<trkpt lat="35.0100060" lon="33.5740522">
<ele>147.61</ele>
<time>2015-05-02T12:01:10Z</time>
</trkpt>
<trkpt lat="35.0100014" lon="33.5739819">
<ele>147.42</ele>
<time>2015-05-02T12:01:12Z</time>
</trkpt>
<trkpt lat="35.0100036" lon="33.5738836">
<ele>146.62</ele>
<time>2015-05-02T12:01:14Z</time>
</trkpt>
<trkpt lat="35.0100179" lon="33.5737971">
<ele>146.32</ele>
<time>2015-05-02T12:01:15Z</time>
</trkpt>
<trkpt lat="35.0100235" lon="33.5737313">
<ele>145.67</ele>
<time>2015-05-02T12:01:16Z</time>
</trkpt>
<trkpt lat="35.0100283" lon="33.5736728">
<ele>145.34</ele>
<time>2015-05-02T12:01:17Z</time>
</trkpt>
<trkpt lat="35.0100378" lon="33.5736166">
<ele>146.18</ele>
<time>2015-05-02T12:01:18Z</time>
</trkpt>
<trkpt lat="35.0100594" lon="33.5735126">
<ele>148.06</ele>
<time>2015-05-02T12:01:20Z</time>
</trkpt>
<trkpt lat="35.0100764" lon="33.5734616">
<ele>148.54</ele>
<time>2015-05-02T12:01:21Z</time>
</trkpt>
<trkpt lat="35.0100973" lon="33.5733633">
<ele>148.40</ele>
<time>2015-05-02T12:01:23Z</time>
</trkpt>
<trkpt lat="35.0101201" lon="33.5732705">
<ele>148.11</ele>
<time>2015-05-02T12:01:25Z</time>
</trkpt>
<trkpt lat="35.0101488" lon="33.5731750">
<ele>148.04</ele>
<time>2015-05-02T12:01:27Z</time>
</trkpt>
<trkpt lat="35.0101494" lon="33.5730853">
<ele>148.27</ele>
<time>2015-05-02T12:01:29Z</time>
</trkpt>
<trkpt lat="35.0101550" lon="33.5729915">
<ele>148.08</ele>
<time>2015-05-02T12:01:31Z</time>
</trkpt>
<trkpt lat="35.0101699" lon="33.5728906">
<ele>147.28</ele>
<time>2015-05-02T12:01:33Z</time>
</trkpt>
<trkpt lat="35.0101831" lon="33.5727889">
<ele>147.83</ele>
<time>2015-05-02T12:01:35Z</time>
</trkpt>
<trkpt lat="35.0101932" lon="33.5727257">
<ele>147.92</ele>
<time>2015-05-02T12:01:36Z</time>
</trkpt>
<trkpt lat="35.0101996" lon="33.5726708">
<ele>148.47</ele>
<time>2015-05-02T12:01:37Z</time>
</trkpt>
<trkpt lat="35.0102065" lon="33.5726059">
<ele>148.74</ele>
<time>2015-05-02T12:01:38Z</time>
</trkpt>
<trkpt lat="35.0102111" lon="33.5724875">
<ele>148.95</ele>
<time>2015-05-02T12:01:40Z</time>
</trkpt>
<trkpt lat="35.0102150" lon="33.5724278">
<ele>148.98</ele>
<time>2015-05-02T12:01:41Z</time>
</trkpt>
<trkpt lat="35.0102208" lon="33.5723708">
<ele>149.00</ele>
<time>2015-05-02T12:01:42Z</time>
</trkpt>
<trkpt lat="35.0102370" lon="33.5723097">
<ele>149.01</ele>
<time>2015-05-02T12:01:43Z</time>
</trkpt>
<trkpt lat="35.0102438" lon="33.5722545">
<ele>149.01</ele>
<time>2015-05-02T12:01:44Z</time>
</trkpt>
<trkpt lat="35.0102628" lon="33.5721534">
<ele>149.51</ele>
<time>2015-05-02T12:01:46Z</time>
</trkpt>
<trkpt lat="35.0102700" lon="33.5720512">
<ele>149.64</ele>
<time>2015-05-02T12:01:48Z</time>
</trkpt>
<trkpt lat="35.0102866" lon="33.5719466">
<ele>149.42</ele>
<time>2015-05-02T12:01:50Z</time>
</trkpt>
<trkpt lat="35.0102948" lon="33.5718434">
<ele>149.12</ele>
<time>2015-05-02T12:01:52Z</time>
</trkpt>
<trkpt lat="35.0102945" lon="33.5717881">
<ele>149.07</ele>
<time>2015-05-02T12:01:53Z</time>
</trkpt>
<trkpt lat="35.0102968" lon="33.5717297">
<ele>148.54</ele>
<time>2015-05-02T12:01:54Z</time>
</trkpt>
<trkpt lat="35.0102992" lon="33.5716726">
<ele>148.28</ele>
<time>2015-05-02T12:01:55Z</time>
</trkpt>
<trkpt lat="35.0103028" lon="33.5715566">
<ele>148.58</ele>
<time>2015-05-02T12:01:57Z</time>
</trkpt>
<trkpt lat="35.0103002" lon="33.5714977">
<ele>149.30</ele>
<time>2015-05-02T12:01:58Z</time>
</trkpt>
<trkpt lat="35.0103063" lon="33.5714216">
<ele>150.16</ele>
<time>2015-05-02T12:01:59Z</time>
</trkpt>
<trkpt lat="35.0103157" lon="33.5713472">
<ele>150.09</ele>
<time>2015-05-02T12:02:00Z</time>
</trkpt>
<trkpt lat="35.0103264" lon="33.5712700">
<ele>150.05</ele>
<time>2015-05-02T12:02:01Z</time>
</trkpt>
<trkpt lat="35.0103324" lon="33.5711905">
<ele>150.53</ele>
<time>2015-05-02T12:02:02Z</time>
</trkpt>
<trkpt lat="35.0103353" lon="33.5711018">
<ele>150.77</ele>
<time>2015-05-02T12:02:03Z</time>
</trkpt>
<trkpt lat="35.0103397" lon="33.5710132">
<ele>150.40</ele>
<time>2015-05-02T12:02:04Z</time>
</trkpt>
<trkpt lat="35.0103293" lon="33.5709338">
<ele>150.21</ele>
<time>2015-05-02T12:02:05Z</time>
</trkpt>
<trkpt lat="35.0103301" lon="33.5708588">
<ele>150.11</ele>
<time>2015-05-02T12:02:06Z</time>
</trkpt>
<trkpt lat="35.0103354" lon="33.5707669">
<ele>149.56</ele>
<time>2015-05-02T12:02:07Z</time>
</trkpt>
<trkpt lat="35.0103354" lon="33.5706904">
<ele>148.79</ele>
<time>2015-05-02T12:02:08Z</time>
</trkpt>
<trkpt lat="35.0103176" lon="33.5706301">
<ele>148.90</ele>
<time>2015-05-02T12:02:09Z</time>
</trkpt>
<trkpt lat="35.0102880" lon="33.5705802">
<ele>149.46</ele>
<time>2015-05-02T12:02:10Z</time>
</trkpt>
<trkpt lat="35.0102186" lon="33.5705187">
<ele>149.13</ele>
<time>2015-05-02T12:02:12Z</time>
</trkpt>
<trkpt lat="35.0101929" lon="33.5704470">
<ele>149.54</ele>
<time>2015-05-02T12:02:14Z</time>
</trkpt>
<trkpt lat="35.0101572" lon="33.5703874">
<ele>147.90</ele>
<time>2015-05-02T12:02:16Z</time>
</trkpt>
<trkpt lat="35.0101317" lon="33.5703119">
<ele>147.24</ele>
<time>2015-05-02T12:02:18Z</time>
</trkpt>
<trkpt lat="35.0101044" lon="33.5702571">
<ele>146.57</ele>
<time>2015-05-02T12:02:20Z</time>
</trkpt>
<trkpt lat="35.0100688" lon="33.5701934">
<ele>146.96</ele>
<time>2015-05-02T12:02:23Z</time>
</trkpt>
<trkpt lat="35.0100612" lon="33.5701260">
<ele>147.01</ele>
<time>2015-05-02T12:02:26Z</time>
</trkpt>
<trkpt lat="35.0100819" lon="33.5700698">
<ele>146.26</ele>
<time>2015-05-02T12:02:28Z</time>
</trkpt>
<trkpt lat="35.0101039" lon="33.5699950">
<ele>145.83</ele>
<time>2015-05-02T12:02:30Z</time>
</trkpt>
<trkpt lat="35.0101142" lon="33.5699055">
<ele>146.47</ele>
<time>2015-05-02T12:02:32Z</time>
</trkpt>
<trkpt lat="35.0101215" lon="33.5698109">
<ele>146.88</ele>
<time>2015-05-02T12:02:34Z</time>
</trkpt>
<trkpt lat="35.0101375" lon="33.5697147">
<ele>146.73</ele>
<time>2015-05-02T12:02:36Z</time>
</trkpt>
<trkpt lat="35.0101507" lon="33.5696255">
<ele>146.94</ele>
<time>2015-05-02T12:02:38Z</time>
</trkpt>
<trkpt lat="35.0101619" lon="33.5695302">
<ele>147.75</ele>
<time>2015-05-02T12:02:40Z</time>
</trkpt>
<trkpt lat="35.0101612" lon="33.5694386">
<ele>148.45</ele>
<time>2015-05-02T12:02:42Z</time>
</trkpt>
<trkpt lat="35.0101408" lon="33.5693604">
<ele>149.37</ele>
<time>2015-05-02T12:02:44Z</time>
</trkpt>
<trkpt lat="35.0100662" lon="33.5693761">
<ele>147.86</ele>
<time>2015-05-02T12:02:46Z</time>
</trkpt>
<trkpt lat="35.0099978" lon="33.5693833">
<ele>146.48</ele>
<time>2015-05-02T12:02:48Z</time>
</trkpt>
<trkpt lat="35.0099305" lon="33.5693884">
<ele>147.38</ele>
<time>2015-05-02T12:02:50Z</time>
</trkpt>
<trkpt lat="35.0098618" lon="33.5694084">
<ele>148.61</ele>
<time>2015-05-02T12:02:52Z</time>
</trkpt>
<trkpt lat="35.0097914" lon="33.5694474">
<ele>149.16</ele>
<time>2015-05-02T12:02:54Z</time>
</trkpt>
<trkpt lat="35.0097351" lon="33.5694915">
<ele>149.09</ele>
<time>2015-05-02T12:02:55Z</time>
</trkpt>
<trkpt lat="35.0096534" lon="33.5695503">
<ele>149.03</ele>
<time>2015-05-02T12:02:57Z</time>
</trkpt>
<trkpt lat="35.0096188" lon="33.5695861">
<ele>149.03</ele>
<time>2015-05-02T12:02:58Z</time>
</trkpt>
<trkpt lat="35.0095759" lon="33.5696264">
<ele>149.02</ele>
<time>2015-05-02T12:02:59Z</time>
</trkpt>
<trkpt lat="35.0095360" lon="33.5696756">
<ele>149.02</ele>
<time>2015-05-02T12:03:00Z</time>
</trkpt>
<trkpt lat="35.0095069" lon="33.5697378">
<ele>149.52</ele>
<time>2015-05-02T12:03:01Z</time>
</trkpt>
<trkpt lat="35.0094603" lon="33.5697688">
<ele>148.77</ele>
<time>2015-05-02T12:03:02Z</time>
</trkpt>
<trkpt lat="35.0094139" lon="33.5698078">
<ele>148.39</ele>
<time>2015-05-02T12:03:03Z</time>
</trkpt>
<trkpt lat="35.0093540" lon="33.5698533">
<ele>147.20</ele>
<time>2015-05-02T12:03:04Z</time>
</trkpt>
<trkpt lat="35.0092983" lon="33.5698896">
<ele>146.61</ele>
<time>2015-05-02T12:03:05Z</time>
</trkpt>
<trkpt lat="35.0092400" lon="33.5699335">
<ele>146.31</ele>
<time>2015-05-02T12:03:06Z</time>
</trkpt>
<trkpt lat="35.0092028" lon="33.5699779">
<ele>145.66</ele>
<time>2015-05-02T12:03:07Z</time>
</trkpt>
<trkpt lat="35.0091538" lon="33.5700227">
<ele>144.84</ele>
<time>2015-05-02T12:03:08Z</time>
</trkpt>
<trkpt lat="35.0091138" lon="33.5700655">
<ele>143.93</ele>
<time>2015-05-02T12:03:09Z</time>
</trkpt>
<trkpt lat="35.0090670" lon="33.5701023">
<ele>143.47</ele>
<time>2015-05-02T12:03:10Z</time>
</trkpt>
<trkpt lat="35.0090214" lon="33.5701401">
<ele>143.24</ele>
<time>2015-05-02T12:03:11Z</time>
</trkpt>
<trkpt lat="35.0089786" lon="33.5701695">
<ele>143.13</ele>
<time>2015-05-02T12:03:12Z</time>
</trkpt>
<trkpt lat="35.0089315" lon="33.5702020">
<ele>143.07</ele>
<time>2015-05-02T12:03:13Z</time>
</trkpt>
<trkpt lat="35.0088780" lon="33.5702397">
<ele>143.04</ele>
<time>2015-05-02T12:03:14Z</time>
</trkpt>
<trkpt lat="35.0088227" lon="33.5702837">
<ele>143.53</ele>
<time>2015-05-02T12:03:15Z</time>
</trkpt>
<trkpt lat="35.0087786" lon="33.5703128">
<ele>143.77</ele>
<time>2015-05-02T12:03:16Z</time>
</trkpt>
<trkpt lat="35.0087310" lon="33.5703455">
<ele>143.39</ele>
<time>2015-05-02T12:03:17Z</time>
</trkpt>
<trkpt lat="35.0086771" lon="33.5703791">
<ele>142.71</ele>
<time>2015-05-02T12:03:18Z</time>
</trkpt>
<trkpt lat="35.0086274" lon="33.5704138">
<ele>142.36</ele>
<time>2015-05-02T12:03:19Z</time>
</trkpt>
<trkpt lat="35.0085758" lon="33.5704413">
<ele>142.19</ele>
<time>2015-05-02T12:03:20Z</time>
</trkpt>
<trkpt lat="35.0085243" lon="33.5704562">
<ele>142.60</ele>
<time>2015-05-02T12:03:21Z</time>
</trkpt>
<trkpt lat="35.0084679" lon="33.5704621">
<ele>142.81</ele>
<time>2015-05-02T12:03:22Z</time>
</trkpt>
<trkpt lat="35.0084138" lon="33.5704667">
<ele>142.91</ele>
<time>2015-05-02T12:03:23Z</time>
</trkpt>
<trkpt lat="35.0083535" lon="33.5704734">
<ele>142.96</ele>
<time>2015-05-02T12:03:24Z</time>
</trkpt>
<trkpt lat="35.0082686" lon="33.5704730">
<ele>142.25</ele>
<time>2015-05-02T12:03:26Z</time>
</trkpt>
<trkpt lat="35.0082094" lon="33.5704702">
<ele>143.13</ele>
<time>2015-05-02T12:03:27Z</time>
</trkpt>
<trkpt lat="35.0081408" lon="33.5704791">
<ele>143.58</ele>
<time>2015-05-02T12:03:28Z</time>
</trkpt>
<trkpt lat="35.0080823" lon="33.5704918">
<ele>143.80</ele>
<time>2015-05-02T12:03:29Z</time>
</trkpt>
<trkpt lat="35.0080188" lon="33.5705115">
<ele>143.41</ele>
<time>2015-05-02T12:03:30Z</time>
</trkpt>
<trkpt lat="35.0079706" lon="33.5705132">
<ele>142.71</ele>
<time>2015-05-02T12:03:31Z</time>
</trkpt>
<trkpt lat="35.0079040" lon="33.5705199">
<ele>141.86</ele>
<time>2015-05-02T12:03:32Z</time>
</trkpt>
<trkpt lat="35.0078455" lon="33.5705269">
<ele>141.94</ele>
<time>2015-05-02T12:03:33Z</time>
</trkpt>
<trkpt lat="35.0077898" lon="33.5705341">
<ele>141.48</ele>
<time>2015-05-02T12:03:34Z</time>
</trkpt>
<trkpt lat="35.0077393" lon="33.5705382">
<ele>141.25</ele>
<time>2015-05-02T12:03:35Z</time>
</trkpt>
<trkpt lat="35.0076806" lon="33.5705495">
<ele>140.63</ele>
<time>2015-05-02T12:03:36Z</time>
</trkpt>
<trkpt lat="35.0076259" lon="33.5705609">
<ele>139.82</ele>
<time>2015-05-02T12:03:37Z</time>
</trkpt>
<trkpt lat="35.0075717" lon="33.5705726">
<ele>140.42</ele>
<time>2015-05-02T12:03:38Z</time>
</trkpt>
<trkpt lat="35.0075193" lon="33.5705907">
<ele>140.72</ele>
<time>2015-05-02T12:03:39Z</time>
</trkpt>
<trkpt lat="35.0074702" lon="33.5706080">
<ele>141.37</ele>
<time>2015-05-02T12:03:40Z</time>
</trkpt>
<trkpt lat="35.0074158" lon="33.5706313">
<ele>140.69</ele>
<time>2015-05-02T12:03:41Z</time>
</trkpt>
<trkpt lat="35.0073619" lon="33.5706593">
<ele>140.35</ele>
<time>2015-05-02T12:03:42Z</time>
</trkpt>
<trkpt lat="35.0073105" lon="33.5706802">
<ele>140.18</ele>
<time>2015-05-02T12:03:43Z</time>
</trkpt>
<trkpt lat="35.0072411" lon="33.5707139">
<ele>140.10</ele>
<time>2015-05-02T12:03:44Z</time>
</trkpt>
<trkpt lat="35.0071831" lon="33.5707427">
<ele>139.56</ele>
<time>2015-05-02T12:03:45Z</time>
</trkpt>
<trkpt lat="35.0071275" lon="33.5707656">
<ele>138.79</ele>
<time>2015-05-02T12:03:46Z</time>
</trkpt>
<trkpt lat="35.0070722" lon="33.5707904">
<ele>138.40</ele>
<time>2015-05-02T12:03:47Z</time>
</trkpt>
<trkpt lat="35.0070085" lon="33.5708194">
<ele>138.21</ele>
<time>2015-05-02T12:03:48Z</time>
</trkpt>
<trkpt lat="35.0069553" lon="33.5708409">
<ele>137.61</ele>
<time>2015-05-02T12:03:49Z</time>
</trkpt>
<trkpt lat="35.0068969" lon="33.5708689">
<ele>137.31</ele>
<time>2015-05-02T12:03:50Z</time>
</trkpt>
<trkpt lat="35.0068459" lon="33.5708942">
<ele>137.17</ele>
<time>2015-05-02T12:03:51Z</time>
</trkpt>
<trkpt lat="35.0067935" lon="33.5709211">
<ele>137.09</ele>
<time>2015-05-02T12:03:52Z</time>
</trkpt>
<trkpt lat="35.0067538" lon="33.5709521">
<ele>137.05</ele>
<time>2015-05-02T12:03:53Z</time>
</trkpt>
<trkpt lat="35.0067077" lon="33.5709913">
<ele>137.03</ele>
<time>2015-05-02T12:03:54Z</time>
</trkpt>
<trkpt lat="35.0066682" lon="33.5710234">
<ele>137.53</ele>
<time>2015-05-02T12:03:55Z</time>
</trkpt>
<trkpt lat="35.0066131" lon="33.5710666">
<ele>137.77</ele>
<time>2015-05-02T12:03:56Z</time>
</trkpt>
<trkpt lat="35.0065689" lon="33.5711030">
<ele>138.39</ele>
<time>2015-05-02T12:03:57Z</time>
</trkpt>
<trkpt lat="35.0065143" lon="33.5711407">
<ele>138.70</ele>
<time>2015-05-02T12:03:58Z</time>
</trkpt>
<trkpt lat="35.0064660" lon="33.5711752">
<ele>138.86</ele>
<time>2015-05-02T12:03:59Z</time>
</trkpt>
<trkpt lat="35.0064151" lon="33.5712146">
<ele>138.94</ele>
<time>2015-05-02T12:04:00Z</time>
</trkpt>
<trkpt lat="35.0063692" lon="33.5712557">
<ele>138.48</ele>
<time>2015-05-02T12:04:01Z</time>
</trkpt>
<trkpt lat="35.0063313" lon="33.5712906">
<ele>138.75</ele>
<time>2015-05-02T12:04:02Z</time>
</trkpt>
<trkpt lat="35.0062876" lon="33.5713363">
<ele>138.38</ele>
<time>2015-05-02T12:04:03Z</time>
</trkpt>
<trkpt lat="35.0062343" lon="33.5713775">
<ele>138.20</ele>
<time>2015-05-02T12:04:04Z</time>
</trkpt>
<trkpt lat="35.0061897" lon="33.5714269">
<ele>137.11</ele>
<time>2015-05-02T12:04:05Z</time>
</trkpt>
<trkpt lat="35.0061352" lon="33.5714705">
<ele>137.06</ele>
<time>2015-05-02T12:04:06Z</time>
</trkpt>
<trkpt lat="35.0060777" lon="33.5715101">
<ele>137.04</ele>
<time>2015-05-02T12:04:07Z</time>
</trkpt>
<trkpt lat="35.0060274" lon="33.5715520">
<ele>136.53</ele>
<time>2015-05-02T12:04:08Z</time>
</trkpt>
<trkpt lat="35.0059760" lon="33.5715921">
<ele>136.27</ele>
<time>2015-05-02T12:04:09Z</time>
</trkpt>
<trkpt lat="35.0059197" lon="33.5716312">
<ele>136.64</ele>
<time>2015-05-02T12:04:10Z</time>
</trkpt>
<trkpt lat="35.0058619" lon="33.5716703">
<ele>136.83</ele>
<time>2015-05-02T12:04:11Z</time>
</trkpt>
<trkpt lat="35.0058064" lon="33.5717039">
<ele>136.42</ele>
<time>2015-05-02T12:04:12Z</time>
</trkpt>
<trkpt lat="35.0057475" lon="33.5717390">
<ele>136.22</ele>
<time>2015-05-02T12:04:13Z</time>
</trkpt>
<trkpt lat="35.0056871" lon="33.5717722">
<ele>136.12</ele>
<time>2015-05-02T12:04:14Z</time>
</trkpt>
<trkpt lat="35.0056305" lon="33.5717963">
<ele>135.57</ele>
<time>2015-05-02T12:04:15Z</time>
</trkpt>
<trkpt lat="35.0055743" lon="33.5718253">
<ele>135.79</ele>
<time>2015-05-02T12:04:16Z</time>
</trkpt>
<trkpt lat="35.0055200" lon="33.5718563">
<ele>135.90</ele>
<time>2015-05-02T12:04:17Z</time>
</trkpt>
<trkpt lat="35.0054626" lon="33.5718874">
<ele>135.96</ele>
<time>2015-05-02T12:04:18Z</time>
</trkpt>
<trkpt lat="35.0054070" lon="33.5718792">
<ele>134.99</ele>
<time>2015-05-02T12:04:19Z</time>
</trkpt>
<trkpt lat="35.0053466" lon="33.5719164">
<ele>133.50</ele>
<time>2015-05-02T12:04:20Z</time>
</trkpt>
<trkpt lat="35.0052942" lon="33.5719481">
<ele>132.76</ele>
<time>2015-05-02T12:04:21Z</time>
</trkpt>
<trkpt lat="35.0052380" lon="33.5719781">
<ele>131.89</ele>
<time>2015-05-02T12:04:22Z</time>
</trkpt>
<trkpt lat="35.0051861" lon="33.5720075">
<ele>131.95</ele>
<time>2015-05-02T12:04:23Z</time>
</trkpt>
<trkpt lat="35.0051328" lon="33.5720478">
<ele>131.48</ele>
<time>2015-05-02T12:04:24Z</time>
</trkpt>
<trkpt lat="35.0050765" lon="33.5720822">
<ele>131.75</ele>
<time>2015-05-02T12:04:25Z</time>
</trkpt>
<trkpt lat="35.0050218" lon="33.5721238">
<ele>132.88</ele>
<time>2015-05-02T12:04:26Z</time>
</trkpt>
<trkpt lat="35.0049656" lon="33.5721627">
<ele>133.95</ele>
<time>2015-05-02T12:04:27Z</time>
</trkpt>
<trkpt lat="35.0049034" lon="33.5722016">
<ele>134.48</ele>
<time>2015-05-02T12:04:28Z</time>
</trkpt>
<trkpt lat="35.0048425" lon="33.5722236">
<ele>134.75</ele>
<time>2015-05-02T12:04:29Z</time>
</trkpt>
<trkpt lat="35.0047822" lon="33.5722618">
<ele>134.88</ele>
<time>2015-05-02T12:04:30Z</time>
</trkpt>
<trkpt lat="35.0047323" lon="33.5723048">
<ele>134.95</ele>
<time>2015-05-02T12:04:31Z</time>
</trkpt>
<trkpt lat="35.0046863" lon="33.5723494">
<ele>134.98</ele>
<time>2015-05-02T12:04:32Z</time>
</trkpt>
<trkpt lat="35.0046405" lon="33.5723934">
<ele>135.00</ele>
<time>2015-05-02T12:04:33Z</time>
</trkpt>
<trkpt lat="35.0045869" lon="33.5724316">
<ele>135.01</ele>
<time>2015-05-02T12:04:34Z</time>
</trkpt>
<trkpt lat="35.0045368" lon="33.5724716">
<ele>135.01</ele>
<time>2015-05-02T12:04:35Z</time>
</trkpt>
<trkpt lat="35.0044834" lon="33.5725108">
<ele>135.01</ele>
<time>2015-05-02T12:04:36Z</time>
</trkpt>
<trkpt lat="35.0044300" lon="33.5725448">
<ele>134.51</ele>
<time>2015-05-02T12:04:37Z</time>
</trkpt>
<trkpt lat="35.0043827" lon="33.5725738">
<ele>133.77</ele>
<time>2015-05-02T12:04:38Z</time>
</trkpt>
<trkpt lat="35.0043292" lon="33.5726264">
<ele>134.39</ele>
<time>2015-05-02T12:04:39Z</time>
</trkpt>
<trkpt lat="35.0042872" lon="33.5726527">
<ele>134.70</ele>
<time>2015-05-02T12:04:40Z</time>
</trkpt>
<trkpt lat="35.0042234" lon="33.5726866">
<ele>134.86</ele>
<time>2015-05-02T12:04:41Z</time>
</trkpt>
<trkpt lat="35.0041644" lon="33.5727089">
<ele>135.44</ele>
<time>2015-05-02T12:04:42Z</time>
</trkpt>
<trkpt lat="35.0041079" lon="33.5727235">
<ele>135.73</ele>
<time>2015-05-02T12:04:43Z</time>
</trkpt>
<trkpt lat="35.0040436" lon="33.5727328">
<ele>135.87</ele>
<time>2015-05-02T12:04:44Z</time>
</trkpt>
<trkpt lat="35.0039807" lon="33.5727364">
<ele>135.94</ele>
<time>2015-05-02T12:04:45Z</time>
</trkpt>
<trkpt lat="35.0039063" lon="33.5727411">
<ele>135.48</ele>
<time>2015-05-02T12:04:46Z</time>
</trkpt>
<trkpt lat="35.0038312" lon="33.5727442">
<ele>134.75</ele>
<time>2015-05-02T12:04:47Z</time>
</trkpt>
<trkpt lat="35.0037642" lon="33.5727575">
<ele>134.38</ele>
<time>2015-05-02T12:04:48Z</time>
</trkpt>
<trkpt lat="35.0036937" lon="33.5727701">
<ele>133.70</ele>
<time>2015-05-02T12:04:49Z</time>
</trkpt>
<trkpt lat="35.0036248" lon="33.5727763">
<ele>132.86</ele>
<time>2015-05-02T12:04:50Z</time>
</trkpt>
<trkpt lat="35.0035634" lon="33.5727960">
<ele>132.94</ele>
<time>2015-05-02T12:04:51Z</time>
</trkpt>
<trkpt lat="35.0035038" lon="33.5728108">
<ele>132.98</ele>
<time>2015-05-02T12:04:52Z</time>
</trkpt>
<trkpt lat="35.0034426" lon="33.5728542">
<ele>132.00</ele>
<time>2015-05-02T12:04:53Z</time>
</trkpt>
<trkpt lat="35.0033914" lon="33.5728955">
<ele>131.51</ele>
<time>2015-05-02T12:04:54Z</time>
</trkpt>
<trkpt lat="35.0033474" lon="33.5729392">
<ele>131.26</ele>
<time>2015-05-02T12:04:55Z</time>
</trkpt>
<trkpt lat="35.0032997" lon="33.5729940">
<ele>130.64</ele>
<time>2015-05-02T12:04:56Z</time>
</trkpt>
<trkpt lat="35.0032609" lon="33.5730444">
<ele>130.33</ele>
<time>2015-05-02T12:04:57Z</time>
</trkpt>
<trkpt lat="35.0032108" lon="33.5731026">
<ele>129.67</ele>
<time>2015-05-02T12:04:58Z</time>
</trkpt>
<trkpt lat="35.0031616" lon="33.5731695">
<ele>128.84</ele>
<time>2015-05-02T12:04:59Z</time>
</trkpt>
<trkpt lat="35.0031170" lon="33.5732342">
<ele>128.93</ele>
<time>2015-05-02T12:05:00Z</time>
</trkpt>
<trkpt lat="35.0030801" lon="33.5732988">
<ele>128.47</ele>
<time>2015-05-02T12:05:01Z</time>
</trkpt>
<trkpt lat="35.0030309" lon="33.5733546">
<ele>128.74</ele>
<time>2015-05-02T12:05:02Z</time>
</trkpt>
<trkpt lat="35.0029804" lon="33.5734074">
<ele>129.38</ele>
<time>2015-05-02T12:05:03Z</time>
</trkpt>
<trkpt lat="35.0029292" lon="33.5734766">
<ele>129.70</ele>
<time>2015-05-02T12:05:04Z</time>
</trkpt>
<trkpt lat="35.0028952" lon="33.5735152">
<ele>129.86</ele>
<time>2015-05-02T12:05:05Z</time>
</trkpt>
<trkpt lat="35.0028451" lon="33.5735631">
<ele>130.44</ele>
<time>2015-05-02T12:05:06Z</time>
</trkpt>
<trkpt lat="35.0028022" lon="33.5736106">
<ele>130.73</ele>
<time>2015-05-02T12:05:07Z</time>
</trkpt>
<trkpt lat="35.0027562" lon="33.5736490">
<ele>130.87</ele>
<time>2015-05-02T12:05:08Z</time>
</trkpt>
<trkpt lat="35.0026993" lon="33.5736864">
<ele>130.44</ele>
<time>2015-05-02T12:05:09Z</time>
</trkpt>
<trkpt lat="35.0026483" lon="33.5737198">
<ele>130.23</ele>
<time>2015-05-02T12:05:10Z</time>
</trkpt>
<trkpt lat="35.0026021" lon="33.5737733">
<ele>130.12</ele>
<time>2015-05-02T12:05:11Z</time>
</trkpt>
<trkpt lat="35.0025508" lon="33.5738028">
<ele>130.07</ele>
<time>2015-05-02T12:05:12Z</time>
</trkpt>
<trkpt lat="35.0025030" lon="33.5738305">
<ele>129.54</ele>
<time>2015-05-02T12:05:13Z</time>
</trkpt>
<trkpt lat="35.0024536" lon="33.5738652">
<ele>130.28</ele>
<time>2015-05-02T12:05:14Z</time>
</trkpt>
<trkpt lat="35.0023844" lon="33.5739133">
<ele>129.83</ele>
<time>2015-05-02T12:05:16Z</time>
</trkpt>
<trkpt lat="35.0023418" lon="33.5739381">
<ele>129.42</ele>
<time>2015-05-02T12:05:17Z</time>
</trkpt>
<trkpt lat="35.0022931" lon="33.5739603">
<ele>129.22</ele>
<time>2015-05-02T12:05:18Z</time>
</trkpt>
<trkpt lat="35.0022502" lon="33.5739798">
<ele>129.62</ele>
<time>2015-05-02T12:05:19Z</time>
</trkpt>
<trkpt lat="35.0021731" lon="33.5740181">
<ele>129.92</ele>
<time>2015-05-02T12:05:21Z</time>
</trkpt>
<trkpt lat="35.0021124" lon="33.5740346">
<ele>129.99</ele>
<time>2015-05-02T12:05:23Z</time>
</trkpt>
<trkpt lat="35.0020399" lon="33.5740728">
<ele>130.76</ele>
<time>2015-05-02T12:05:25Z</time>
</trkpt>
<trkpt lat="35.0019544" lon="33.5741164">
<ele>130.45</ele>
<time>2015-05-02T12:05:27Z</time>
</trkpt>
<trkpt lat="35.0018809" lon="33.5741405">
<ele>129.62</ele>
<time>2015-05-02T12:05:29Z</time>
</trkpt>
<trkpt lat="35.0018187" lon="33.5741774">
<ele>129.67</ele>
<time>2015-05-02T12:05:31Z</time>
</trkpt>
<trkpt lat="35.0017418" lon="33.5742225">
<ele>129.43</ele>
<time>2015-05-02T12:05:33Z</time>
</trkpt>
<trkpt lat="35.0016684" lon="33.5742705">
<ele>129.12</ele>
<time>2015-05-02T12:05:35Z</time>
</trkpt>
<trkpt lat="35.0016258" lon="33.5742972">
<ele>129.57</ele>
<time>2015-05-02T12:05:36Z</time>
</trkpt>
<trkpt lat="35.0015494" lon="33.5743524">
<ele>129.90</ele>
<time>2015-05-02T12:05:38Z</time>
</trkpt>
<trkpt lat="35.0015103" lon="33.5743863">
<ele>129.96</ele>
<time>2015-05-02T12:05:39Z</time>
</trkpt>
<trkpt lat="35.0014668" lon="33.5744086">
<ele>129.99</ele>
<time>2015-05-02T12:05:40Z</time>
</trkpt>
<trkpt lat="35.0013972" lon="33.5744618">
<ele>129.26</ele>
<time>2015-05-02T12:05:42Z</time>
</trkpt>
<trkpt lat="35.0013304" lon="33.5745086">
<ele>127.58</ele>
<time>2015-05-02T12:05:44Z</time>
</trkpt>
<trkpt lat="35.0012646" lon="33.5745544">
<ele>126.66</ele>
<time>2015-05-02T12:05:46Z</time>
</trkpt>
<trkpt lat="35.0011908" lon="33.5745934">
<ele>126.18</ele>
<time>2015-05-02T12:05:48Z</time>
</trkpt>
<trkpt lat="35.0011416" lon="33.5746209">
<ele>126.10</ele>
<time>2015-05-02T12:05:49Z</time>
</trkpt>
<trkpt lat="35.0010949" lon="33.5746365">
<ele>126.06</ele>
<time>2015-05-02T12:05:50Z</time>
</trkpt>
<trkpt lat="35.0010399" lon="33.5746594">
<ele>126.54</ele>
<time>2015-05-02T12:05:51Z</time>
</trkpt>
<trkpt lat="35.0009947" lon="33.5746786">
<ele>125.78</ele>
<time>2015-05-02T12:05:52Z</time>
</trkpt>
<trkpt lat="35.0009458" lon="33.5746877">
<ele>125.90</ele>
<time>2015-05-02T12:05:53Z</time>
</trkpt>
<trkpt lat="35.0009012" lon="33.5747124">
<ele>125.46</ele>
<time>2015-05-02T12:05:54Z</time>
</trkpt>
<trkpt lat="35.0008216" lon="33.5747196">
<ele>125.88</ele>
<time>2015-05-02T12:05:56Z</time>
</trkpt>
<trkpt lat="35.0007446" lon="33.5747300">
<ele>125.98</ele>
<time>2015-05-02T12:05:58Z</time>
</trkpt>
<trkpt lat="35.0006611" lon="33.5747320">
<ele>125.26</ele>
<time>2015-05-02T12:06:00Z</time>
</trkpt>
<trkpt lat="35.0005687" lon="33.5747230">
<ele>124.83</ele>
<time>2015-05-02T12:06:02Z</time>
</trkpt>
<trkpt lat="35.0005219" lon="33.5747103">
<ele>124.92</ele>
<time>2015-05-02T12:06:03Z</time>
</trkpt>
<trkpt lat="35.0004741" lon="33.5747006">
<ele>124.97</ele>
<time>2015-05-02T12:06:04Z</time>
</trkpt>
<trkpt lat="35.0004277" lon="33.5746904">
<ele>124.99</ele>
<time>2015-05-02T12:06:05Z</time>
</trkpt>
<trkpt lat="35.0003809" lon="33.5746813">
<ele>125.00</ele>
<time>2015-05-02T12:06:06Z</time>
</trkpt>
<trkpt lat="35.0003264" lon="33.5746814">
<ele>124.51</ele>
<time>2015-05-02T12:06:07Z</time>
</trkpt>
<trkpt lat="35.0002485" lon="33.5746538">
<ele>124.14</ele>
<time>2015-05-02T12:06:09Z</time>
</trkpt>
<trkpt lat="35.0001975" lon="33.5746411">
<ele>124.08</ele>
<time>2015-05-02T12:06:10Z</time>
</trkpt>
<trkpt lat="35.0001495" lon="33.5746221">
<ele>123.55</ele>
<time>2015-05-02T12:06:11Z</time>
</trkpt>
<trkpt lat="35.0001044" lon="33.5746145">
<ele>123.78</ele>
<time>2015-05-02T12:06:12Z</time>
</trkpt>
<trkpt lat="35.0000519" lon="33.5746009">
<ele>123.90</ele>
<time>2015-05-02T12:06:13Z</time>
</trkpt>
<trkpt lat="34.9999989" lon="33.5745884">
<ele>123.96</ele>
<time>2015-05-02T12:06:14Z</time>
</trkpt>
<trkpt lat="34.9999540" lon="33.5745676">
<ele>123.99</ele>
<time>2015-05-02T12:06:15Z</time>
</trkpt>
<trkpt lat="34.9998708" lon="33.5745360">
<ele>123.26</ele>
<time>2015-05-02T12:06:17Z</time>
</trkpt>
<trkpt lat="34.9998257" lon="33.5745230">
<ele>122.64</ele>
<time>2015-05-02T12:06:18Z</time>
</trkpt>
<trkpt lat="34.9997777" lon="33.5745088">
<ele>122.33</ele>
<time>2015-05-02T12:06:19Z</time>
</trkpt>
<trkpt lat="34.9997308" lon="33.5745003">
<ele>122.67</ele>
<time>2015-05-02T12:06:20Z</time>
</trkpt>
<trkpt lat="34.9996870" lon="33.5744836">
<ele>122.84</ele>
<time>2015-05-02T12:06:21Z</time>
</trkpt>
<trkpt lat="34.9996420" lon="33.5744662">
<ele>122.93</ele>
<time>2015-05-02T12:06:22Z</time>
</trkpt>
<trkpt lat="34.9995575" lon="33.5744375">
<ele>122.99</ele>
<time>2015-05-02T12:06:24Z</time>
</trkpt>
<trkpt lat="34.9995088" lon="33.5744322">
<ele>122.51</ele>
<time>2015-05-02T12:06:25Z</time>
</trkpt>
<trkpt lat="34.9994602" lon="33.5744211">
<ele>122.26</ele>
<time>2015-05-02T12:06:26Z</time>
</trkpt>
<trkpt lat="34.9994113" lon="33.5744064">
<ele>122.14</ele>
<time>2015-05-02T12:06:27Z</time>
</trkpt>
<trkpt lat="34.9993312" lon="33.5743912">
<ele>122.80</ele>
<time>2015-05-02T12:06:29Z</time>
</trkpt>
<trkpt lat="34.9992861" lon="33.5743791">
<ele>122.91</ele>
<time>2015-05-02T12:06:30Z</time>
</trkpt>
<trkpt lat="34.9992325" lon="33.5743614">
<ele>122.96</ele>
<time>2015-05-02T12:06:31Z</time>
</trkpt>
<trkpt lat="34.9991822" lon="33.5743452">
<ele>123.49</ele>
<time>2015-05-02T12:06:32Z</time>
</trkpt>
<trkpt lat="34.9991383" lon="33.5743261">
<ele>123.25</ele>
<time>2015-05-02T12:06:33Z</time>
</trkpt>
<trkpt lat="34.9990913" lon="33.5743060">
<ele>123.13</ele>
<time>2015-05-02T12:06:34Z</time>
</trkpt>
<trkpt lat="34.9990210" lon="33.5742662">
<ele>123.80</ele>
<time>2015-05-02T12:06:36Z</time>
</trkpt>
<trkpt lat="34.9989765" lon="33.5742555">
<ele>123.91</ele>
<time>2015-05-02T12:06:37Z</time>
</trkpt>
<trkpt lat="34.9989314" lon="33.5742373">
<ele>124.46</ele>
<time>2015-05-02T12:06:38Z</time>
</trkpt>
<trkpt lat="34.9988816" lon="33.5742196">
<ele>124.74</ele>
<time>2015-05-02T12:06:39Z</time>
</trkpt>
<trkpt lat="34.9988346" lon="33.5741864">
<ele>124.38</ele>
<time>2015-05-02T12:06:40Z</time>
</trkpt>
<trkpt lat="34.9987505" lon="33.5741354">
<ele>124.11</ele>
<time>2015-05-02T12:06:42Z</time>
</trkpt>
<trkpt lat="34.9987089" lon="33.5741052">
<ele>124.56</ele>
<time>2015-05-02T12:06:43Z</time>
</trkpt>
<trkpt lat="34.9986316" lon="33.5740504">
<ele>124.90</ele>
<time>2015-05-02T12:06:45Z</time>
</trkpt>
<trkpt lat="34.9985926" lon="33.5740219">
<ele>124.96</ele>
<time>2015-05-02T12:06:46Z</time>
</trkpt>
<trkpt lat="34.9985351" lon="33.5739463">
<ele>125.00</ele>
<time>2015-05-02T12:06:48Z</time>
</trkpt>
<trkpt lat="34.9985083" lon="33.5739021">
<ele>124.51</ele>
<time>2015-05-02T12:06:49Z</time>
</trkpt>
<trkpt lat="34.9984707" lon="33.5738309">
<ele>124.14</ele>
<time>2015-05-02T12:06:51Z</time>
</trkpt>
<trkpt lat="34.9984285" lon="33.5737398">
<ele>124.05</ele>
<time>2015-05-02T12:06:53Z</time>
</trkpt>
<trkpt lat="34.9983880" lon="33.5736479">
<ele>124.02</ele>
<time>2015-05-02T12:06:55Z</time>
</trkpt>
<trkpt lat="34.9983643" lon="33.5736012">
<ele>124.02</ele>
<time>2015-05-02T12:06:56Z</time>
</trkpt>
<trkpt lat="34.9983356" lon="33.5735077">
<ele>124.02</ele>
<time>2015-05-02T12:06:58Z</time>
</trkpt>
<trkpt lat="34.9983138" lon="33.5734188">
<ele>125.02</ele>
<time>2015-05-02T12:07:00Z</time>
</trkpt>
<trkpt lat="34.9983011" lon="33.5733396">
<ele>125.02</ele>
<time>2015-05-02T12:07:02Z</time>
</trkpt>
<trkpt lat="34.9982785" lon="33.5732806">
<ele>124.77</ele>
<time>2015-05-02T12:07:04Z</time>
</trkpt>
<trkpt lat="34.9982168" lon="33.5732702">
<ele>124.48</ele>
<time>2015-05-02T12:07:07Z</time>
</trkpt>
<trkpt lat="34.9981570" lon="33.5732987">
<ele>125.45</ele>
<time>2015-05-02T12:07:10Z</time>
</trkpt>
<trkpt lat="34.9980995" lon="33.5733345">
<ele>125.95</ele>
<time>2015-05-02T12:07:13Z</time>
</trkpt>
<trkpt lat="34.9980479" lon="33.5733694">
<ele>126.01</ele>
<time>2015-05-02T12:07:16Z</time>
</trkpt>
<trkpt lat="34.9980005" lon="33.5733986">
<ele>126.76</ele>
<time>2015-05-02T12:07:19Z</time>
</trkpt>
<trkpt lat="34.9979349" lon="33.5734171">
<ele>125.02</ele>
<time>2015-05-02T12:08:03Z</time>
</trkpt>
<trkpt lat="34.9978757" lon="33.5734414">
<ele>125.77</ele>
<time>2015-05-02T12:08:05Z</time>
</trkpt>
<trkpt lat="34.9978102" lon="33.5734705">
<ele>126.70</ele>
<time>2015-05-02T12:08:07Z</time>
</trkpt>
<trkpt lat="34.9977411" lon="33.5734997">
<ele>126.94</ele>
<time>2015-05-02T12:08:09Z</time>
</trkpt>
<trkpt lat="34.9976721" lon="33.5735273">
<ele>127.50</ele>
<time>2015-05-02T12:08:11Z</time>
</trkpt>
<trkpt lat="34.9975955" lon="33.5735597">
<ele>127.89</ele>
<time>2015-05-02T12:08:13Z</time>
</trkpt>
<trkpt lat="34.9975243" lon="33.5735876">
<ele>127.98</ele>
<time>2015-05-02T12:08:15Z</time>
</trkpt>
<trkpt lat="34.9974574" lon="33.5736161">
<ele>128.76</ele>
<time>2015-05-02T12:08:17Z</time>
</trkpt>
<trkpt lat="34.9973978" lon="33.5736479">
<ele>129.70</ele>
<time>2015-05-02T12:08:19Z</time>
</trkpt>
<trkpt lat="34.9973411" lon="33.5736769">
<ele>130.69</ele>
<time>2015-05-02T12:08:21Z</time>
</trkpt>
<trkpt lat="34.9972891" lon="33.5736990">
<ele>130.93</ele>
<time>2015-05-02T12:08:23Z</time>
</trkpt>
<trkpt lat="34.9972391" lon="33.5737220">
<ele>130.25</ele>
<time>2015-05-02T12:08:25Z</time>
</trkpt>
<trkpt lat="34.9971953" lon="33.5737496">
<ele>130.07</ele>
<time>2015-05-02T12:08:27Z</time>
</trkpt>
<trkpt lat="34.9971444" lon="33.5737762">
<ele>130.78</ele>
<time>2015-05-02T12:08:29Z</time>
</trkpt>
<trkpt lat="34.9970937" lon="33.5737961">
<ele>130.21</ele>
<time>2015-05-02T12:08:31Z</time>
</trkpt>
<trkpt lat="34.9970431" lon="33.5738174">
<ele>130.56</ele>
<time>2015-05-02T12:08:33Z</time>
</trkpt>
<trkpt lat="34.9969792" lon="33.5738494">
<ele>129.58</ele>
<time>2015-05-02T12:08:36Z</time>
</trkpt>
<trkpt lat="34.9969329" lon="33.5738716">
<ele>129.16</ele>
<time>2015-05-02T12:08:38Z</time>
</trkpt>
<trkpt lat="34.9968815" lon="33.5738961">
<ele>129.05</ele>
<time>2015-05-02T12:08:40Z</time>
</trkpt>
<trkpt lat="34.9968294" lon="33.5739168">
<ele>129.77</ele>
<time>2015-05-02T12:08:42Z</time>
</trkpt>
<trkpt lat="34.9967719" lon="33.5739340">
<ele>129.96</ele>
<time>2015-05-02T12:08:44Z</time>
</trkpt>
<trkpt lat="34.9967120" lon="33.5739578">
<ele>130.50</ele>
<time>2015-05-02T12:08:46Z</time>
</trkpt>
<trkpt lat="34.9966530" lon="33.5739904">
<ele>131.39</ele>
<time>2015-05-02T12:08:48Z</time>
</trkpt>
<trkpt lat="34.9965907" lon="33.5740251">
<ele>131.11</ele>
<time>2015-05-02T12:08:50Z</time>
</trkpt>
<trkpt lat="34.9965262" lon="33.5740569">
<ele>131.54</ele>
<time>2015-05-02T12:08:52Z</time>
</trkpt>
<trkpt lat="34.9964633" lon="33.5740868">
<ele>131.90</ele>
<time>2015-05-02T12:08:54Z</time>
</trkpt>
<trkpt lat="34.9964061" lon="33.5741217">
<ele>131.99</ele>
<time>2015-05-02T12:08:56Z</time>
</trkpt>
<trkpt lat="34.9963543" lon="33.5741505">
<ele>132.26</ele>
<time>2015-05-02T12:08:58Z</time>
</trkpt>
<trkpt lat="34.9963012" lon="33.5741783">
<ele>132.08</ele>
<time>2015-05-02T12:09:00Z</time>
</trkpt>
<trkpt lat="34.9962458" lon="33.5742047">
<ele>132.03</ele>
<time>2015-05-02T12:09:02Z</time>
</trkpt>
<trkpt lat="34.9961906" lon="33.5742290">
<ele>132.02</ele>
<time>2015-05-02T12:09:04Z</time>
</trkpt>
<trkpt lat="34.9961366" lon="33.5742588">
<ele>132.02</ele>
<time>2015-05-02T12:09:06Z</time>
</trkpt>
<trkpt lat="34.9960846" lon="33.5742889">
<ele>132.27</ele>
<time>2015-05-02T12:09:08Z</time>
</trkpt>
<trkpt lat="34.9960330" lon="33.5743179">
<ele>132.58</ele>
<time>2015-05-02T12:09:10Z</time>
</trkpt>
<trkpt lat="34.9959780" lon="33.5743459">
<ele>132.91</ele>
<time>2015-05-02T12:09:12Z</time>
</trkpt>
<trkpt lat="34.9959244" lon="33.5743770">
<ele>133.24</ele>
<time>2015-05-02T12:09:14Z</time>
</trkpt>
<trkpt lat="34.9958731" lon="33.5744052">
<ele>132.32</ele>
<time>2015-05-02T12:09:16Z</time>
</trkpt>
<trkpt lat="34.9958173" lon="33.5744295">
<ele>132.84</ele>
<time>2015-05-02T12:09:18Z</time>
</trkpt>
<trkpt lat="34.9957627" lon="33.5744579">
<ele>132.97</ele>
<time>2015-05-02T12:09:20Z</time>
</trkpt>
<trkpt lat="34.9957078" lon="33.5744810">
<ele>133.26</ele>
<time>2015-05-02T12:09:22Z</time>
</trkpt>
<trkpt lat="34.9956523" lon="33.5745026">
<ele>133.83</ele>
<time>2015-05-02T12:09:24Z</time>
</trkpt>
<trkpt lat="34.9955967" lon="33.5745278">
<ele>133.72</ele>
<time>2015-05-02T12:09:26Z</time>
</trkpt>
<trkpt lat="34.9955380" lon="33.5745558">
<ele>133.94</ele>
<time>2015-05-02T12:09:28Z</time>
</trkpt>
<trkpt lat="34.9954742" lon="33.5745833">
<ele>134.50</ele>
<time>2015-05-02T12:09:30Z</time>
</trkpt>
<trkpt lat="34.9954105" lon="33.5746105">
<ele>135.64</ele>
<time>2015-05-02T12:09:32Z</time>
</trkpt>
<trkpt lat="34.9953509" lon="33.5746357">
<ele>135.42</ele>
<time>2015-05-02T12:09:34Z</time>
</trkpt>
<trkpt lat="34.9952920" lon="33.5746599">
<ele>135.62</ele>
<time>2015-05-02T12:09:36Z</time>
</trkpt>
<trkpt lat="34.9952334" lon="33.5746865">
<ele>135.67</ele>
<time>2015-05-02T12:09:38Z</time>
</trkpt>
<trkpt lat="34.9951726" lon="33.5747198">
<ele>135.93</ele>
<time>2015-05-02T12:09:40Z</time>
</trkpt>
<trkpt lat="34.9951062" lon="33.5747512">
<ele>135.99</ele>
<time>2015-05-02T12:09:42Z</time>
</trkpt>
<trkpt lat="34.9950365" lon="33.5747828">
<ele>136.01</ele>
<time>2015-05-02T12:09:44Z</time>
</trkpt>
<trkpt lat="34.9949722" lon="33.5748196">
<ele>136.76</ele>
<time>2015-05-02T12:09:46Z</time>
</trkpt>
<trkpt lat="34.9949061" lon="33.5748566">
<ele>136.95</ele>
<time>2015-05-02T12:09:48Z</time>
</trkpt>
<trkpt lat="34.9948369" lon="33.5748962">
<ele>137.00</ele>
<time>2015-05-02T12:09:50Z</time>
</trkpt>
<trkpt lat="34.9947676" lon="33.5749354">
<ele>137.01</ele>
<time>2015-05-02T12:09:52Z</time>
</trkpt>
<trkpt lat="34.9947016" lon="33.5749705">
<ele>136.27</ele>
<time>2015-05-02T12:09:54Z</time>
</trkpt>
<trkpt lat="34.9946406" lon="33.5750053">
<ele>135.83</ele>
<time>2015-05-02T12:09:56Z</time>
</trkpt>
<trkpt lat="34.9945816" lon="33.5750372">
<ele>135.22</ele>
<time>2015-05-02T12:09:58Z</time>
</trkpt>
<trkpt lat="34.9945154" lon="33.5750660">
<ele>135.07</ele>
<time>2015-05-02T12:10:00Z</time>
</trkpt>
<trkpt lat="34.9944493" lon="33.5750974">
<ele>135.78</ele>
<time>2015-05-02T12:10:02Z</time>
</trkpt>
<trkpt lat="34.9943842" lon="33.5751264">
<ele>135.21</ele>
<time>2015-05-02T12:10:04Z</time>
</trkpt>
<trkpt lat="34.9943263" lon="33.5751505">
<ele>135.06</ele>
<time>2015-05-02T12:10:06Z</time>
</trkpt>
<trkpt lat="34.9942743" lon="33.5751786">
<ele>134.52</ele>
<time>2015-05-02T12:10:09Z</time>
</trkpt>
<trkpt lat="34.9942098" lon="33.5752089">
<ele>134.95</ele>
<time>2015-05-02T12:10:12Z</time>
</trkpt>
<trkpt lat="34.9941580" lon="33.5752336">
<ele>135.00</ele>
<time>2015-05-02T12:10:14Z</time>
</trkpt>
<trkpt lat="34.9940985" lon="33.5752599">
<ele>136.51</ele>
<time>2015-05-02T12:10:16Z</time>
</trkpt>
<trkpt lat="34.9940343" lon="33.5752927">
<ele>136.89</ele>
<time>2015-05-02T12:10:18Z</time>
</trkpt>
<trkpt lat="34.9939685" lon="33.5753266">
<ele>136.98</ele>
<time>2015-05-02T12:10:20Z</time>
</trkpt>
<trkpt lat="34.9938993" lon="33.5753623">
<ele>137.76</ele>
<time>2015-05-02T12:10:22Z</time>
</trkpt>
<trkpt lat="34.9938294" lon="33.5753999">
<ele>137.95</ele>
<time>2015-05-02T12:10:24Z</time>
</trkpt>
<trkpt lat="34.9937573" lon="33.5754324">
<ele>137.50</ele>
<time>2015-05-02T12:10:26Z</time>
</trkpt>
<trkpt lat="34.9936824" lon="33.5754659">
<ele>137.64</ele>
<time>2015-05-02T12:10:28Z</time>
</trkpt>
<trkpt lat="34.9936064" lon="33.5755064">
<ele>137.92</ele>
<time>2015-05-02T12:10:30Z</time>
</trkpt>
<trkpt lat="34.9935326" lon="33.5755451">
<ele>137.99</ele>
<time>2015-05-02T12:10:32Z</time>
</trkpt>
<trkpt lat="34.9934653" lon="33.5755808">
<ele>137.26</ele>
<time>2015-05-02T12:10:34Z</time>
</trkpt>
<trkpt lat="34.9934043" lon="33.5756128">
<ele>138.33</ele>
<time>2015-05-02T12:10:36Z</time>
</trkpt>
<trkpt lat="34.9933451" lon="33.5756429">
<ele>138.84</ele>
<time>2015-05-02T12:10:38Z</time>
</trkpt>
<trkpt lat="34.9932849" lon="33.5756717">
<ele>139.22</ele>
<time>2015-05-02T12:10:40Z</time>
</trkpt>
<trkpt lat="34.9932231" lon="33.5756965">
<ele>139.07</ele>
<time>2015-05-02T12:10:42Z</time>
</trkpt>
<trkpt lat="34.9931610" lon="33.5757207">
<ele>139.03</ele>
<time>2015-05-02T12:10:44Z</time>
</trkpt>
<trkpt lat="34.9930979" lon="33.5757440">
<ele>139.52</ele>
<time>2015-05-02T12:10:46Z</time>
</trkpt>
<trkpt lat="34.9930363" lon="33.5757654">
<ele>139.89</ele>
<time>2015-05-02T12:10:48Z</time>
</trkpt>
<trkpt lat="34.9929751" lon="33.5757970">
<ele>139.98</ele>
<time>2015-05-02T12:10:50Z</time>
</trkpt>
<trkpt lat="34.9929163" lon="33.5758314">
<ele>140.51</ele>
<time>2015-05-02T12:10:52Z</time>
</trkpt>
<trkpt lat="34.9928630" lon="33.5758639">
<ele>139.64</ele>
<time>2015-05-02T12:10:54Z</time>
</trkpt>
<trkpt lat="34.9928072" lon="33.5758938">
<ele>139.17</ele>
<time>2015-05-02T12:10:56Z</time>
</trkpt>
<trkpt lat="34.9927503" lon="33.5759124">
<ele>139.05</ele>
<time>2015-05-02T12:10:58Z</time>
</trkpt>
<trkpt lat="34.9926900" lon="33.5759384">
<ele>140.28</ele>
<time>2015-05-02T12:11:00Z</time>
</trkpt>
<trkpt lat="34.9926298" lon="33.5759622">
<ele>139.83</ele>
<time>2015-05-02T12:11:02Z</time>
</trkpt>
<trkpt lat="34.9925717" lon="33.5759815">
<ele>139.22</ele>
<time>2015-05-02T12:11:04Z</time>
</trkpt>
<trkpt lat="34.9925166" lon="33.5759947">
<ele>139.07</ele>
<time>2015-05-02T12:11:06Z</time>
</trkpt>
<trkpt lat="34.9924595" lon="33.5760156">
<ele>139.53</ele>
<time>2015-05-02T12:11:08Z</time>
</trkpt>
<trkpt lat="34.9924009" lon="33.5760374">
<ele>139.89</ele>
<time>2015-05-02T12:11:10Z</time>
</trkpt>
<trkpt lat="34.9923345" lon="33.5760564">
<ele>139.99</ele>
<time>2015-05-02T12:11:12Z</time>
</trkpt>
<trkpt lat="34.9922555" lon="33.5760817">
<ele>140.76</ele>
<time>2015-05-02T12:11:14Z</time>
</trkpt>
<trkpt lat="34.9921834" lon="33.5761002">
<ele>140.20</ele>
<time>2015-05-02T12:11:16Z</time>
</trkpt>
<trkpt lat="34.9921339" lon="33.5761080">
<ele>140.56</ele>
<time>2015-05-02T12:11:18Z</time>
</trkpt>
<trkpt lat="34.9920768" lon="33.5761201">
<ele>140.90</ele>
<time>2015-05-02T12:11:20Z</time>
</trkpt>
<trkpt lat="34.9920091" lon="33.5761351">
<ele>140.99</ele>
<time>2015-05-02T12:11:22Z</time>
</trkpt>
<trkpt lat="34.9919311" lon="33.5761495">
<ele>141.76</ele>
<time>2015-05-02T12:11:24Z</time>
</trkpt>
<trkpt lat="34.9918546" lon="33.5761630">
<ele>141.70</ele>
<time>2015-05-02T12:11:26Z</time>
</trkpt>
<trkpt lat="34.9917764" lon="33.5761734">
<ele>141.94</ele>
<time>2015-05-02T12:11:28Z</time>
</trkpt>
<trkpt lat="34.9916966" lon="33.5761794">
<ele>141.50</ele>
<time>2015-05-02T12:11:30Z</time>
</trkpt>
<trkpt lat="34.9916485" lon="33.5761847">
<ele>141.26</ele>
<time>2015-05-02T12:11:31Z</time>
</trkpt>
<trkpt lat="34.9915663" lon="33.5761922">
<ele>141.83</ele>
<time>2015-05-02T12:11:33Z</time>
</trkpt>
<trkpt lat="34.9914818" lon="33.5762034">
<ele>141.97</ele>
<time>2015-05-02T12:11:35Z</time>
</trkpt>
<trkpt lat="34.9914320" lon="33.5762068">
<ele>141.99</ele>
<time>2015-05-02T12:11:36Z</time>
</trkpt>
<trkpt lat="34.9913856" lon="33.5762081">
<ele>141.50</ele>
<time>2015-05-02T12:11:37Z</time>
</trkpt>
<trkpt lat="34.9913022" lon="33.5762145">
<ele>141.89</ele>
<time>2015-05-02T12:11:39Z</time>
</trkpt>
<trkpt lat="34.9912187" lon="33.5762218">
<ele>141.98</ele>
<time>2015-05-02T12:11:41Z</time>
</trkpt>
<trkpt lat="34.9911365" lon="33.5762228">
<ele>142.01</ele>
<time>2015-05-02T12:11:43Z</time>
</trkpt>
<trkpt lat="34.9910498" lon="33.5762232">
<ele>142.01</ele>
<time>2015-05-02T12:11:45Z</time>
</trkpt>
<trkpt lat="34.9909962" lon="33.5762192">
<ele>142.01</ele>
<time>2015-05-02T12:11:46Z</time>
</trkpt>
<trkpt lat="34.9909472" lon="33.5762250">
<ele>142.02</ele>
<time>2015-05-02T12:11:47Z</time>
</trkpt>
<trkpt lat="34.9908878" lon="33.5762284">
<ele>141.52</ele>
<time>2015-05-02T12:11:48Z</time>
</trkpt>
<trkpt lat="34.9908427" lon="33.5762274">
<ele>141.27</ele>
<time>2015-05-02T12:11:49Z</time>
</trkpt>
<trkpt lat="34.9907481" lon="33.5762421">
<ele>140.33</ele>
<time>2015-05-02T12:11:51Z</time>
</trkpt>
<trkpt lat="34.9907034" lon="33.5762503">
<ele>140.17</ele>
<time>2015-05-02T12:11:52Z</time>
</trkpt>
<trkpt lat="34.9906583" lon="33.5762576">
<ele>139.59</ele>
<time>2015-05-02T12:11:53Z</time>
</trkpt>
<trkpt lat="34.9906096" lon="33.5762648">
<ele>139.31</ele>
<time>2015-05-02T12:11:54Z</time>
</trkpt>
<trkpt lat="34.9905618" lon="33.5762738">
<ele>139.16</ele>
<time>2015-05-02T12:11:55Z</time>
</trkpt>
<trkpt lat="34.9905081" lon="33.5762846">
<ele>139.09</ele>
<time>2015-05-02T12:11:56Z</time>
</trkpt>
<trkpt lat="34.9904577" lon="33.5762946">
<ele>138.55</ele>
<time>2015-05-02T12:11:57Z</time>
</trkpt>
<trkpt lat="34.9904098" lon="33.5762970">
<ele>138.78</ele>
<time>2015-05-02T12:11:58Z</time>
</trkpt>
<trkpt lat="34.9903482" lon="33.5763121">
<ele>138.40</ele>
<time>2015-05-02T12:11:59Z</time>
</trkpt>
<trkpt lat="34.9902961" lon="33.5763239">
<ele>138.21</ele>
<time>2015-05-02T12:12:00Z</time>
</trkpt>
<trkpt lat="34.9902440" lon="33.5763328">
<ele>138.11</ele>
<time>2015-05-02T12:12:01Z</time>
</trkpt>
<trkpt lat="34.9901848" lon="33.5763494">
<ele>138.06</ele>
<time>2015-05-02T12:12:02Z</time>
</trkpt>
<trkpt lat="34.9901300" lon="33.5763587">
<ele>138.04</ele>
<time>2015-05-02T12:12:03Z</time>
</trkpt>
<trkpt lat="34.9900685" lon="33.5763727">
<ele>138.03</ele>
<time>2015-05-02T12:12:04Z</time>
</trkpt>
<trkpt lat="34.9900159" lon="33.5763890">
<ele>138.52</ele>
<time>2015-05-02T12:12:05Z</time>
</trkpt>
<trkpt lat="34.9899609" lon="33.5763987">
<ele>138.77</ele>
<time>2015-05-02T12:12:06Z</time>
</trkpt>
<trkpt lat="34.9898966" lon="33.5764174">
<ele>138.39</ele>
<time>2015-05-02T12:12:07Z</time>
</trkpt>
<trkpt lat="34.9898347" lon="33.5764367">
<ele>138.20</ele>
<time>2015-05-02T12:12:08Z</time>
</trkpt>
<trkpt lat="34.9897715" lon="33.5764549">
<ele>137.61</ele>
<time>2015-05-02T12:12:09Z</time>
</trkpt>
<trkpt lat="34.9897022" lon="33.5764775">
<ele>137.31</ele>
<time>2015-05-02T12:12:10Z</time>
</trkpt>
<trkpt lat="34.9896416" lon="33.5764963">
<ele>137.16</ele>
<time>2015-05-02T12:12:11Z</time>
</trkpt>
<trkpt lat="34.9895717" lon="33.5765179">
<ele>136.59</ele>
<time>2015-05-02T12:12:12Z</time>
</trkpt>
<trkpt lat="34.9895093" lon="33.5765344">
<ele>135.80</ele>
<time>2015-05-02T12:12:13Z</time>
</trkpt>
<trkpt lat="34.9894474" lon="33.5765555">
<ele>135.41</ele>
<time>2015-05-02T12:12:14Z</time>
</trkpt>
<trkpt lat="34.9893814" lon="33.5765718">
<ele>135.21</ele>
<time>2015-05-02T12:12:15Z</time>
</trkpt>
<trkpt lat="34.9893203" lon="33.5765971">
<ele>135.11</ele>
<time>2015-05-02T12:12:16Z</time>
</trkpt>
<trkpt lat="34.9892648" lon="33.5766190">
<ele>135.07</ele>
<time>2015-05-02T12:12:17Z</time>
</trkpt>
<trkpt lat="34.9891929" lon="33.5766380">
<ele>134.54</ele>
<time>2015-05-02T12:12:18Z</time>
</trkpt>
<trkpt lat="34.9891332" lon="33.5766533">
<ele>134.28</ele>
<time>2015-05-02T12:12:19Z</time>
</trkpt>
<trkpt lat="34.9890632" lon="33.5766718">
<ele>134.15</ele>
<time>2015-05-02T12:12:20Z</time>
</trkpt>
<trkpt lat="34.9889999" lon="33.5766883">
<ele>134.08</ele>
<time>2015-05-02T12:12:21Z</time>
</trkpt>
<trkpt lat="34.9889461" lon="33.5767107">
<ele>134.05</ele>
<time>2015-05-02T12:12:22Z</time>
</trkpt>
<trkpt lat="34.9889004" lon="33.5767321">
<ele>134.03</ele>
<time>2015-05-02T12:12:23Z</time>
</trkpt>
<trkpt lat="34.9888482" lon="33.5767500">
<ele>134.02</ele>
<time>2015-05-02T12:12:25Z</time>
</trkpt>
<trkpt lat="34.9887994" lon="33.5767320">
<ele>132.02</ele>
<time>2015-05-02T12:14:21Z</time>
</trkpt>
<trkpt lat="34.9887448" lon="33.5767445">
<ele>132.27</ele>
<time>2015-05-02T12:14:23Z</time>
</trkpt>
<trkpt lat="34.9886791" lon="33.5767676">
<ele>132.33</ele>
<time>2015-05-02T12:14:25Z</time>
</trkpt>
<trkpt lat="34.9886006" lon="33.5767864">
<ele>131.84</ele>
<time>2015-05-02T12:14:27Z</time>
</trkpt>
<trkpt lat="34.9885228" lon="33.5767997">
<ele>131.43</ele>
<time>2015-05-02T12:14:28Z</time>
</trkpt>
<trkpt lat="34.9884654" lon="33.5768162">
<ele>131.22</ele>
<time>2015-05-02T12:14:29Z</time>
</trkpt>
<trkpt lat="34.9884080" lon="33.5768383">
<ele>131.12</ele>
<time>2015-05-02T12:14:30Z</time>
</trkpt>
<trkpt lat="34.9883568" lon="33.5768482">
<ele>130.57</ele>
<time>2015-05-02T12:14:31Z</time>
</trkpt>
<trkpt lat="34.9882982" lon="33.5768728">
<ele>130.29</ele>
<time>2015-05-02T12:14:32Z</time>
</trkpt>
<trkpt lat="34.9882389" lon="33.5768910">
<ele>130.15</ele>
<time>2015-05-02T12:14:33Z</time>
</trkpt>
<trkpt lat="34.9881870" lon="33.5769122">
<ele>130.08</ele>
<time>2015-05-02T12:14:34Z</time>
</trkpt>
<trkpt lat="34.9881303" lon="33.5769264">
<ele>129.55</ele>
<time>2015-05-02T12:14:35Z</time>
</trkpt>
<trkpt lat="34.9880590" lon="33.5769525">
<ele>129.28</ele>
<time>2015-05-02T12:14:36Z</time>
</trkpt>
<trkpt lat="34.9879918" lon="33.5769693">
<ele>130.15</ele>
<time>2015-05-02T12:14:37Z</time>
</trkpt>
<trkpt lat="34.9879228" lon="33.5769874">
<ele>130.58</ele>
<time>2015-05-02T12:14:38Z</time>
</trkpt>
<trkpt lat="34.9878500" lon="33.5770081">
<ele>130.30</ele>
<time>2015-05-02T12:14:39Z</time>
</trkpt>
<trkpt lat="34.9877836" lon="33.5770349">
<ele>130.16</ele>
<time>2015-05-02T12:14:40Z</time>
</trkpt>
<trkpt lat="34.9877136" lon="33.5770434">
<ele>130.59</ele>
<time>2015-05-02T12:14:41Z</time>
</trkpt>
<trkpt lat="34.9876427" lon="33.5770562">
<ele>130.80</ele>
<time>2015-05-02T12:14:42Z</time>
</trkpt>
<trkpt lat="34.9875666" lon="33.5770775">
<ele>130.41</ele>
<time>2015-05-02T12:14:43Z</time>
</trkpt>
<trkpt lat="34.9874900" lon="33.5770961">
<ele>130.21</ele>
<time>2015-05-02T12:14:44Z</time>
</trkpt>
<trkpt lat="34.9874096" lon="33.5771189">
<ele>130.11</ele>
<time>2015-05-02T12:14:45Z</time>
</trkpt>
<trkpt lat="34.9873397" lon="33.5771382">
<ele>130.07</ele>
<time>2015-05-02T12:14:46Z</time>
</trkpt>
<trkpt lat="34.9872645" lon="33.5771601">
<ele>129.54</ele>
<time>2015-05-02T12:14:47Z</time>
</trkpt>
<trkpt lat="34.9871933" lon="33.5771796">
<ele>128.78</ele>
<time>2015-05-02T12:14:48Z</time>
</trkpt>
<trkpt lat="34.9871280" lon="33.5771919">
<ele>128.40</ele>
<time>2015-05-02T12:14:49Z</time>
</trkpt>
<trkpt lat="34.9870550" lon="33.5772090">
<ele>127.71</ele>
<time>2015-05-02T12:14:50Z</time>
</trkpt>
<trkpt lat="34.9869874" lon="33.5772261">
<ele>127.36</ele>
<time>2015-05-02T12:14:51Z</time>
</trkpt>
<trkpt lat="34.9869033" lon="33.5772572">
<ele>127.19</ele>
<time>2015-05-02T12:14:52Z</time>
</trkpt>
<trkpt lat="34.9868326" lon="33.5772737">
<ele>126.60</ele>
<time>2015-05-02T12:14:53Z</time>
</trkpt>
<trkpt lat="34.9867592" lon="33.5772928">
<ele>126.31</ele>
<time>2015-05-02T12:14:54Z</time>
</trkpt>
<trkpt lat="34.9866919" lon="33.5773149">
<ele>126.16</ele>
<time>2015-05-02T12:14:55Z</time>
</trkpt>
<trkpt lat="34.9866217" lon="33.5773412">
<ele>125.59</ele>
<time>2015-05-02T12:14:56Z</time>
</trkpt>
<trkpt lat="34.9865478" lon="33.5773569">
<ele>125.30</ele>
<time>2015-05-02T12:14:57Z</time>
</trkpt>
<trkpt lat="34.9864766" lon="33.5773729">
<ele>125.16</ele>
<time>2015-05-02T12:14:58Z</time>
</trkpt>
<trkpt lat="34.9864106" lon="33.5773929">
<ele>124.59</ele>
<time>2015-05-02T12:14:59Z</time>
</trkpt>
<trkpt lat="34.9863398" lon="33.5774123">
<ele>124.30</ele>
<time>2015-05-02T12:15:00Z</time>
</trkpt>
<trkpt lat="34.9862732" lon="33.5774388">
<ele>124.16</ele>
<time>2015-05-02T12:15:01Z</time>
</trkpt>
<trkpt lat="34.9862106" lon="33.5774663">
<ele>124.59</ele>
<time>2015-05-02T12:15:02Z</time>
</trkpt>
<trkpt lat="34.9861467" lon="33.5774925">
<ele>124.30</ele>
<time>2015-05-02T12:15:03Z</time>
</trkpt>
<trkpt lat="34.9860761" lon="33.5775181">
<ele>123.66</ele>
<time>2015-05-02T12:15:04Z</time>
</trkpt>
<trkpt lat="34.9860197" lon="33.5775316">
<ele>123.34</ele>
<time>2015-05-02T12:15:05Z</time>
</trkpt>
<trkpt lat="34.9859528" lon="33.5775540">
<ele>122.68</ele>
<time>2015-05-02T12:15:06Z</time>
</trkpt>
<trkpt lat="34.9858845" lon="33.5775856">
<ele>121.85</ele>
<time>2015-05-02T12:15:07Z</time>
</trkpt>
<trkpt lat="34.9858186" lon="33.5775961">
<ele>120.93</ele>
<time>2015-05-02T12:15:08Z</time>
</trkpt>
<trkpt lat="34.9857576" lon="33.5776108">
<ele>120.47</ele>
<time>2015-05-02T12:15:09Z</time>
</trkpt>
<trkpt lat="34.9856952" lon="33.5776289">
<ele>120.24</ele>
<time>2015-05-02T12:15:10Z</time>
</trkpt>
<trkpt lat="34.9856279" lon="33.5776508">
<ele>120.13</ele>
<time>2015-05-02T12:15:11Z</time>
</trkpt>
<trkpt lat="34.9855640" lon="33.5776742">
<ele>119.57</ele>
<time>2015-05-02T12:15:12Z</time>
</trkpt>
<trkpt lat="34.9855030" lon="33.5777008">
<ele>119.29</ele>
<time>2015-05-02T12:15:13Z</time>
</trkpt>
<trkpt lat="34.9854438" lon="33.5777264">
<ele>119.16</ele>
<time>2015-05-02T12:15:14Z</time>
</trkpt>
<trkpt lat="34.9853867" lon="33.5777479">
<ele>118.59</ele>
<time>2015-05-02T12:15:15Z</time>
</trkpt>
<trkpt lat="34.9853315" lon="33.5777682">
<ele>117.80</ele>
<time>2015-05-02T12:15:16Z</time>
</trkpt>
<trkpt lat="34.9852705" lon="33.5777913">
<ele>117.41</ele>
<time>2015-05-02T12:15:17Z</time>
</trkpt>
<trkpt lat="34.9852223" lon="33.5778014">
<ele>116.21</ele>
<time>2015-05-02T12:15:18Z</time>
</trkpt>
<trkpt lat="34.9851654" lon="33.5778312">
<ele>115.11</ele>
<time>2015-05-02T12:15:19Z</time>
</trkpt>
<trkpt lat="34.9851048" lon="33.5778524">
<ele>114.57</ele>
<time>2015-05-02T12:15:20Z</time>
</trkpt>
<trkpt lat="34.9850435" lon="33.5778752">
<ele>113.79</ele>
<time>2015-05-02T12:15:21Z</time>
</trkpt>
<trkpt lat="34.9849841" lon="33.5778923">
<ele>113.90</ele>
<time>2015-05-02T12:15:22Z</time>
</trkpt>
<trkpt lat="34.9849199" lon="33.5779233">
<ele>113.96</ele>
<time>2015-05-02T12:15:23Z</time>
</trkpt>
<trkpt lat="34.9848521" lon="33.5779476">
<ele>113.49</ele>
<time>2015-05-02T12:15:24Z</time>
</trkpt>
<trkpt lat="34.9847849" lon="33.5779732">
<ele>113.75</ele>
<time>2015-05-02T12:15:25Z</time>
</trkpt>
<trkpt lat="34.9847170" lon="33.5779986">
<ele>113.38</ele>
<time>2015-05-02T12:15:26Z</time>
</trkpt>
<trkpt lat="34.9846558" lon="33.5780274">
<ele>112.70</ele>
<time>2015-05-02T12:15:27Z</time>
</trkpt>
<trkpt lat="34.9845881" lon="33.5780569">
<ele>112.86</ele>
<time>2015-05-02T12:15:28Z</time>
</trkpt>
<trkpt lat="34.9845302" lon="33.5780898">
<ele>112.94</ele>
<time>2015-05-02T12:15:29Z</time>
</trkpt>
<trkpt lat="34.9844676" lon="33.5781122">
<ele>112.98</ele>
<time>2015-05-02T12:15:30Z</time>
</trkpt>
<trkpt lat="34.9844064" lon="33.5781309">
<ele>113.00</ele>
<time>2015-05-02T12:15:31Z</time>
</trkpt>
<trkpt lat="34.9843408" lon="33.5781495">
<ele>113.01</ele>
<time>2015-05-02T12:15:32Z</time>
</trkpt>
<trkpt lat="34.9842786" lon="33.5781762">
<ele>113.01</ele>
<time>2015-05-02T12:15:33Z</time>
</trkpt>
<trkpt lat="34.9842200" lon="33.5782030">
<ele>112.51</ele>
<time>2015-05-02T12:15:34Z</time>
</trkpt>
<trkpt lat="34.9841591" lon="33.5782294">
<ele>112.26</ele>
<time>2015-05-02T12:15:35Z</time>
</trkpt>
<trkpt lat="34.9840947" lon="33.5782503">
<ele>111.64</ele>
<time>2015-05-02T12:15:36Z</time>
</trkpt>
<trkpt lat="34.9840346" lon="33.5782739">
<ele>111.33</ele>
<time>2015-05-02T12:15:37Z</time>
</trkpt>
<trkpt lat="34.9839755" lon="33.5783002">
<ele>111.67</ele>
<time>2015-05-02T12:15:38Z</time>
</trkpt>
<trkpt lat="34.9839136" lon="33.5783327">
<ele>111.84</ele>
<time>2015-05-02T12:15:39Z</time>
</trkpt>
<trkpt lat="34.9838478" lon="33.5783615">
<ele>112.43</ele>
<time>2015-05-02T12:15:40Z</time>
</trkpt>
<trkpt lat="34.9837935" lon="33.5783854">
<ele>112.22</ele>
<time>2015-05-02T12:15:41Z</time>
</trkpt>
<trkpt lat="34.9837347" lon="33.5784162">
<ele>112.12</ele>
<time>2015-05-02T12:15:42Z</time>
</trkpt>
<trkpt lat="34.9836694" lon="33.5784439">
<ele>112.07</ele>
<time>2015-05-02T12:15:43Z</time>
</trkpt>
<trkpt lat="34.9836076" lon="33.5784722">
<ele>112.04</ele>
<time>2015-05-02T12:15:44Z</time>
</trkpt>
<trkpt lat="34.9835474" lon="33.5784868">
<ele>111.53</ele>
<time>2015-05-02T12:15:45Z</time>
</trkpt>
<trkpt lat="34.9834819" lon="33.5785091">
<ele>111.77</ele>
<time>2015-05-02T12:15:46Z</time>
</trkpt>
<trkpt lat="34.9834198" lon="33.5785308">
<ele>111.89</ele>
<time>2015-05-02T12:15:47Z</time>
</trkpt>
<trkpt lat="34.9833628" lon="33.5785538">
<ele>111.46</ele>
<time>2015-05-02T12:15:48Z</time>
</trkpt>
<trkpt lat="34.9833077" lon="33.5785772">
<ele>111.24</ele>
<time>2015-05-02T12:15:49Z</time>
</trkpt>
<trkpt lat="34.9832524" lon="33.5786071">
<ele>111.13</ele>
<time>2015-05-02T12:15:50Z</time>
</trkpt>
<trkpt lat="34.9831994" lon="33.5786325">
<ele>111.07</ele>
<time>2015-05-02T12:15:51Z</time>
</trkpt>
<trkpt lat="34.9831360" lon="33.5786649">
<ele>111.54</ele>
<time>2015-05-02T12:15:52Z</time>
</trkpt>
<trkpt lat="34.9830727" lon="33.5786905">
<ele>111.78</ele>
<time>2015-05-02T12:15:53Z</time>
</trkpt>
<trkpt lat="34.9830203" lon="33.5787117">
<ele>111.40</ele>
<time>2015-05-02T12:15:54Z</time>
</trkpt>
<trkpt lat="34.9829555" lon="33.5787372">
<ele>111.21</ele>
<time>2015-05-02T12:15:55Z</time>
</trkpt>
<trkpt lat="34.9828896" lon="33.5787742">
<ele>111.61</ele>
<time>2015-05-02T12:15:56Z</time>
</trkpt>
<trkpt lat="34.9828286" lon="33.5788078">
<ele>111.31</ele>
<time>2015-05-02T12:15:57Z</time>
</trkpt>
<trkpt lat="34.9827560" lon="33.5788301">
<ele>111.66</ele>
<time>2015-05-02T12:15:58Z</time>
</trkpt>
<trkpt lat="34.9826919" lon="33.5788636">
<ele>112.34</ele>
<time>2015-05-02T12:15:59Z</time>
</trkpt>
<trkpt lat="34.9826218" lon="33.5788926">
<ele>112.18</ele>
<time>2015-05-02T12:16:00Z</time>
</trkpt>
<trkpt lat="34.9825528" lon="33.5789152">
<ele>112.10</ele>
<time>2015-05-02T12:16:01Z</time>
</trkpt>
<trkpt lat="34.9824914" lon="33.5789397">
<ele>111.56</ele>
<time>2015-05-02T12:16:02Z</time>
</trkpt>
<trkpt lat="34.9824317" lon="33.5789610">
<ele>111.29</ele>
<time>2015-05-02T12:16:03Z</time>
</trkpt>
<trkpt lat="34.9823661" lon="33.5789845">
<ele>111.15</ele>
<time>2015-05-02T12:16:04Z</time>
</trkpt>
<trkpt lat="34.9823118" lon="33.5790001">
<ele>110.58</ele>
<time>2015-05-02T12:16:05Z</time>
</trkpt>
<trkpt lat="34.9822418" lon="33.5790208">
<ele>110.30</ele>
<time>2015-05-02T12:16:06Z</time>
</trkpt>
<trkpt lat="34.9821697" lon="33.5790413">
<ele>110.16</ele>
<time>2015-05-02T12:16:07Z</time>
</trkpt>
<trkpt lat="34.9821052" lon="33.5790591">
<ele>110.09</ele>
<time>2015-05-02T12:16:08Z</time>
</trkpt>
<trkpt lat="34.9820338" lon="33.5790804">
<ele>109.55</ele>
<time>2015-05-02T12:16:09Z</time>
</trkpt>
<trkpt lat="34.9819531" lon="33.5791093">
<ele>108.78</ele>
<time>2015-05-02T12:16:10Z</time>
</trkpt>
<trkpt lat="34.9818903" lon="33.5791294">
<ele>108.40</ele>
<time>2015-05-02T12:16:11Z</time>
</trkpt>
<trkpt lat="34.9818104" lon="33.5791546">
<ele>108.21</ele>
<time>2015-05-02T12:16:12Z</time>
</trkpt>
<trkpt lat="34.9817356" lon="33.5791789">
<ele>107.61</ele>
<time>2015-05-02T12:16:13Z</time>
</trkpt>
<trkpt lat="34.9816629" lon="33.5792011">
<ele>107.31</ele>
<time>2015-05-02T12:16:14Z</time>
</trkpt>
<trkpt lat="34.9815870" lon="33.5792232">
<ele>107.66</ele>
<time>2015-05-02T12:16:15Z</time>
</trkpt>
<trkpt lat="34.9815190" lon="33.5792352">
<ele>107.84</ele>
<time>2015-05-02T12:16:16Z</time>
</trkpt>
<trkpt lat="34.9814472" lon="33.5792620">
<ele>107.43</ele>
<time>2015-05-02T12:16:17Z</time>
</trkpt>
<trkpt lat="34.9813730" lon="33.5792804">
<ele>107.22</ele>
<time>2015-05-02T12:16:18Z</time>
</trkpt>
<trkpt lat="34.9812986" lon="33.5792972">
<ele>107.12</ele>
<time>2015-05-02T12:16:19Z</time>
</trkpt>
<trkpt lat="34.9812239" lon="33.5793183">
<ele>107.07</ele>
<time>2015-05-02T12:16:20Z</time>
</trkpt>
<trkpt lat="34.9811538" lon="33.5793398">
<ele>107.04</ele>
<time>2015-05-02T12:16:21Z</time>
</trkpt>
<trkpt lat="34.9810884" lon="33.5793616">
<ele>107.03</ele>
<time>2015-05-02T12:16:22Z</time>
</trkpt>
<trkpt lat="34.9810206" lon="33.5793848">
<ele>107.02</ele>
<time>2015-05-02T12:16:23Z</time>
</trkpt>
<trkpt lat="34.9809531" lon="33.5794096">
<ele>107.02</ele>
<time>2015-05-02T12:16:24Z</time>
</trkpt>
<trkpt lat="34.9808849" lon="33.5794344">
<ele>107.02</ele>
<time>2015-05-02T12:16:25Z</time>
</trkpt>
<trkpt lat="34.9808145" lon="33.5794605">
<ele>107.52</ele>
<time>2015-05-02T12:16:26Z</time>
</trkpt>
<trkpt lat="34.9807502" lon="33.5794728">
<ele>107.77</ele>
<time>2015-05-02T12:16:27Z</time>
</trkpt>
<trkpt lat="34.9806767" lon="33.5794943">
<ele>107.39</ele>
<time>2015-05-02T12:16:28Z</time>
</trkpt>
<trkpt lat="34.9806024" lon="33.5795166">
<ele>106.70</ele>
<time>2015-05-02T12:16:29Z</time>
</trkpt>
<trkpt lat="34.9805310" lon="33.5795367">
<ele>106.86</ele>
<time>2015-05-02T12:16:30Z</time>
</trkpt>
<trkpt lat="34.9804611" lon="33.5795552">
<ele>106.94</ele>
<time>2015-05-02T12:16:31Z</time>
</trkpt>
<trkpt lat="34.9803906" lon="33.5795710">
<ele>106.98</ele>
<time>2015-05-02T12:16:32Z</time>
</trkpt>
<trkpt lat="34.9803231" lon="33.5795925">
<ele>106.50</ele>
<time>2015-05-02T12:16:33Z</time>
</trkpt>
<trkpt lat="34.9802578" lon="33.5796140">
<ele>106.26</ele>
<time>2015-05-02T12:16:34Z</time>
</trkpt>
<trkpt lat="34.9801992" lon="33.5796332">
<ele>105.64</ele>
<time>2015-05-02T12:16:35Z</time>
</trkpt>
<trkpt lat="34.9801350" lon="33.5796525">
<ele>104.83</ele>
<time>2015-05-02T12:16:36Z</time>
</trkpt>
<trkpt lat="34.9800614" lon="33.5796766">
<ele>104.42</ele>
<time>2015-05-02T12:16:37Z</time>
</trkpt>
<trkpt lat="34.9799963" lon="33.5796931">
<ele>104.22</ele>
<time>2015-05-02T12:16:38Z</time>
</trkpt>
<trkpt lat="34.9799267" lon="33.5797100">
<ele>103.62</ele>
<time>2015-05-02T12:16:39Z</time>
</trkpt>
<trkpt lat="34.9798631" lon="33.5797328">
<ele>103.32</ele>
<time>2015-05-02T12:16:40Z</time>
</trkpt>
<trkpt lat="34.9797963" lon="33.5797439">
<ele>103.17</ele>
<time>2015-05-02T12:16:41Z</time>
</trkpt>
<trkpt lat="34.9797348" lon="33.5797524">
<ele>102.59</ele>
<time>2015-05-02T12:16:42Z</time>
</trkpt>
<trkpt lat="34.9796727" lon="33.5797636">
<ele>102.30</ele>
<time>2015-05-02T12:16:43Z</time>
</trkpt>
<trkpt lat="34.9796060" lon="33.5797730">
<ele>101.66</ele>
<time>2015-05-02T12:16:44Z</time>
</trkpt>
<trkpt lat="34.9795466" lon="33.5797748">
<ele>101.34</ele>
<time>2015-05-02T12:16:45Z</time>
</trkpt>
<trkpt lat="34.9794816" lon="33.5798054">
<ele>100.68</ele>
<time>2015-05-02T12:16:46Z</time>
</trkpt>
<trkpt lat="34.9794215" lon="33.5798259">
<ele>100.35</ele>
<time>2015-05-02T12:16:47Z</time>
</trkpt>
<trkpt lat="34.9793612" lon="33.5798440">
<ele>100.68</ele>
<time>2015-05-02T12:16:48Z</time>
</trkpt>
<trkpt lat="34.9793055" lon="33.5798646">
<ele>100.35</ele>
<time>2015-05-02T12:16:49Z</time>
</trkpt>
<trkpt lat="34.9792547" lon="33.5798772">
<ele>100.68</ele>
<time>2015-05-02T12:16:50Z</time>
</trkpt>
<trkpt lat="34.9791970" lon="33.5798954">
<ele>100.85</ele>
<time>2015-05-02T12:16:51Z</time>
</trkpt>
<trkpt lat="34.9791361" lon="33.5799182">
<ele>100.93</ele>
<time>2015-05-02T12:16:52Z</time>
</trkpt>
<trkpt lat="34.9790763" lon="33.5799133">
<ele>100.47</ele>
<time>2015-05-02T12:16:53Z</time>
</trkpt>
<trkpt lat="34.9790135" lon="33.5799264">
<ele>100.25</ele>
<time>2015-05-02T12:16:54Z</time>
</trkpt>
<trkpt lat="34.9789542" lon="33.5799444">
<ele>100.13</ele>
<time>2015-05-02T12:16:55Z</time>
</trkpt>
<trkpt lat="34.9789050" lon="33.5799580">
<ele>99.57</ele>
<time>2015-05-02T12:16:56Z</time>
</trkpt>
<trkpt lat="34.9788533" lon="33.5799811">
<ele>99.79</ele>
<time>2015-05-02T12:16:57Z</time>
</trkpt>
<trkpt lat="34.9787976" lon="33.5800019">
<ele>99.41</ele>
<time>2015-05-02T12:16:58Z</time>
</trkpt>
<trkpt lat="34.9787027" lon="33.5800212">
<ele>100.61</ele>
<time>2015-05-02T12:17:00Z</time>
</trkpt>
<trkpt lat="34.9786477" lon="33.5800398">
<ele>100.31</ele>
<time>2015-05-02T12:17:01Z</time>
</trkpt>
<trkpt lat="34.9785905" lon="33.5800585">
<ele>100.67</ele>
<time>2015-05-02T12:17:02Z</time>
</trkpt>
<trkpt lat="34.9785298" lon="33.5800760">
<ele>101.34</ele>
<time>2015-05-02T12:17:03Z</time>
</trkpt>
<trkpt lat="34.9784686" lon="33.5800953">
<ele>101.68</ele>
<time>2015-05-02T12:17:04Z</time>
</trkpt>
<trkpt lat="34.9784153" lon="33.5801054">
<ele>101.85</ele>
<time>2015-05-02T12:17:05Z</time>
</trkpt>
<trkpt lat="34.9783547" lon="33.5801257">
<ele>102.43</ele>
<time>2015-05-02T12:17:06Z</time>
</trkpt>
<trkpt lat="34.9783012" lon="33.5801453">
<ele>102.72</ele>
<time>2015-05-02T12:17:07Z</time>
</trkpt>
<trkpt lat="34.9782416" lon="33.5801607">
<ele>102.37</ele>
<time>2015-05-02T12:17:08Z</time>
</trkpt>
<trkpt lat="34.9781863" lon="33.5801689">
<ele>102.19</ele>
<time>2015-05-02T12:17:09Z</time>
</trkpt>
<trkpt lat="34.9781353" lon="33.5801803">
<ele>102.60</ele>
<time>2015-05-02T12:17:10Z</time>
</trkpt>
<trkpt lat="34.9780839" lon="33.5802023">
<ele>102.31</ele>
<time>2015-05-02T12:17:11Z</time>
</trkpt>
<trkpt lat="34.9780309" lon="33.5802185">
<ele>102.16</ele>
<time>2015-05-02T12:17:12Z</time>
</trkpt>
<trkpt lat="34.9779808" lon="33.5802247">
<ele>102.59</ele>
<time>2015-05-02T12:17:13Z</time>
</trkpt>
<trkpt lat="34.9779204" lon="33.5802450">
<ele>102.80</ele>
<time>2015-05-02T12:17:14Z</time>
</trkpt>
<trkpt lat="34.9778736" lon="33.5802618">
<ele>102.41</ele>
<time>2015-05-02T12:17:15Z</time>
</trkpt>
<trkpt lat="34.9778171" lon="33.5802666">
<ele>102.21</ele>
<time>2015-05-02T12:17:16Z</time>
</trkpt>
<trkpt lat="34.9777636" lon="33.5802851">
<ele>102.11</ele>
<time>2015-05-02T12:17:17Z</time>
</trkpt>
<trkpt lat="34.9777055" lon="33.5803073">
<ele>102.57</ele>
<time>2015-05-02T12:17:18Z</time>
</trkpt>
<trkpt lat="34.9776427" lon="33.5803225">
<ele>102.29</ele>
<time>2015-05-02T12:17:19Z</time>
</trkpt>
<trkpt lat="34.9775842" lon="33.5803382">
<ele>102.15</ele>
<time>2015-05-02T12:17:20Z</time>
</trkpt>
<trkpt lat="34.9775216" lon="33.5803569">
<ele>102.08</ele>
<time>2015-05-02T12:17:21Z</time>
</trkpt>
<trkpt lat="34.9774590" lon="33.5803782">
<ele>102.55</ele>
<time>2015-05-02T12:17:22Z</time>
</trkpt>
<trkpt lat="34.9774009" lon="33.5803932">
<ele>102.28</ele>
<time>2015-05-02T12:17:23Z</time>
</trkpt>
<trkpt lat="34.9773447" lon="33.5804148">
<ele>102.15</ele>
<time>2015-05-02T12:17:24Z</time>
</trkpt>
<trkpt lat="34.9772764" lon="33.5804356">
<ele>101.58</ele>
<time>2015-05-02T12:17:25Z</time>
</trkpt>
<trkpt lat="34.9772134" lon="33.5804568">
<ele>100.80</ele>
<time>2015-05-02T12:17:26Z</time>
</trkpt>
<trkpt lat="34.9771586" lon="33.5804678">
<ele>100.41</ele>
<time>2015-05-02T12:17:27Z</time>
</trkpt>
<trkpt lat="34.9770964" lon="33.5804795">
<ele>100.21</ele>
<time>2015-05-02T12:17:28Z</time>
</trkpt>
<trkpt lat="34.9770433" lon="33.5804918">
<ele>99.61</ele>
<time>2015-05-02T12:17:29Z</time>
</trkpt>
<trkpt lat="34.9769940" lon="33.5804979">
<ele>99.81</ele>
<time>2015-05-02T12:17:30Z</time>
</trkpt>
<trkpt lat="34.9769458" lon="33.5805190">
<ele>99.92</ele>
<time>2015-05-02T12:17:31Z</time>
</trkpt>
<trkpt lat="34.9768901" lon="33.5805374">
<ele>99.97</ele>
<time>2015-05-02T12:17:32Z</time>
</trkpt>
<trkpt lat="34.9768387" lon="33.5805434">
<ele>99.99</ele>
<time>2015-05-02T12:17:33Z</time>
</trkpt>
<trkpt lat="34.9767895" lon="33.5805558">
<ele>99.50</ele>
<time>2015-05-02T12:17:34Z</time>
</trkpt>
<trkpt lat="34.9767356" lon="33.5805749">
<ele>99.26</ele>
<time>2015-05-02T12:17:35Z</time>
</trkpt>
<trkpt lat="34.9766811" lon="33.5805888">
<ele>98.64</ele>
<time>2015-05-02T12:17:36Z</time>
</trkpt>
<trkpt lat="34.9766208" lon="33.5806104">
<ele>98.33</ele>
<time>2015-05-02T12:17:37Z</time>
</trkpt>
<trkpt lat="34.9765670" lon="33.5806252">
<ele>97.67</ele>
<time>2015-05-02T12:17:38Z</time>
</trkpt>
<trkpt lat="34.9765024" lon="33.5806466">
<ele>97.34</ele>
<time>2015-05-02T12:17:39Z</time>
</trkpt>
<trkpt lat="34.9764400" lon="33.5806669">
<ele>97.18</ele>
<time>2015-05-02T12:17:40Z</time>
</trkpt>
<trkpt lat="34.9763760" lon="33.5806866">
<ele>97.60</ele>
<time>2015-05-02T12:17:41Z</time>
</trkpt>
<trkpt lat="34.9763158" lon="33.5807059">
<ele>97.81</ele>
<time>2015-05-02T12:17:42Z</time>
</trkpt>
<trkpt lat="34.9762559" lon="33.5807178">
<ele>97.41</ele>
<time>2015-05-02T12:17:43Z</time>
</trkpt>
<trkpt lat="34.9761979" lon="33.5807389">
<ele>96.71</ele>
<time>2015-05-02T12:17:44Z</time>
</trkpt>
<trkpt lat="34.9761451" lon="33.5807510">
<ele>96.36</ele>
<time>2015-05-02T12:17:45Z</time>
</trkpt>
<trkpt lat="34.9760893" lon="33.5807742">
<ele>96.19</ele>
<time>2015-05-02T12:17:46Z</time>
</trkpt>
<trkpt lat="34.9760316" lon="33.5807926">
<ele>96.60</ele>
<time>2015-05-02T12:17:47Z</time>
</trkpt>
<trkpt lat="34.9759746" lon="33.5808108">
<ele>97.31</ele>
<time>2015-05-02T12:17:48Z</time>
</trkpt>
<trkpt lat="34.9759116" lon="33.5808224">
<ele>97.16</ele>
<time>2015-05-02T12:17:49Z</time>
</trkpt>
<trkpt lat="34.9758510" lon="33.5808428">
<ele>96.59</ele>
<time>2015-05-02T12:17:50Z</time>
</trkpt>
<trkpt lat="34.9757872" lon="33.5808567">
<ele>96.80</ele>
<time>2015-05-02T12:17:51Z</time>
</trkpt>
<trkpt lat="34.9757303" lon="33.5808848">
<ele>96.41</ele>
<time>2015-05-02T12:17:52Z</time>
</trkpt>
<trkpt lat="34.9756667" lon="33.5809057">
<ele>96.71</ele>
<time>2015-05-02T12:17:53Z</time>
</trkpt>
<trkpt lat="34.9756179" lon="33.5809346">
<ele>96.86</ele>
<time>2015-05-02T12:17:54Z</time>
</trkpt>
<trkpt lat="34.9755623" lon="33.5809546">
<ele>96.94</ele>
<time>2015-05-02T12:17:55Z</time>
</trkpt>
<trkpt lat="34.9755030" lon="33.5809653">
<ele>96.98</ele>
<time>2015-05-02T12:17:56Z</time>
</trkpt>
<trkpt lat="34.9754521" lon="33.5809935">
<ele>96.50</ele>
<time>2015-05-02T12:17:57Z</time>
</trkpt>
<trkpt lat="34.9754019" lon="33.5810163">
<ele>95.76</ele>
<time>2015-05-02T12:17:58Z</time>
</trkpt>
<trkpt lat="34.9753489" lon="33.5810458">
<ele>95.89</ele>
<time>2015-05-02T12:17:59Z</time>
</trkpt>
<trkpt lat="34.9752884" lon="33.5810798">
<ele>95.95</ele>
<time>2015-05-02T12:18:00Z</time>
</trkpt>
<trkpt lat="34.9752405" lon="33.5811149">
<ele>95.98</ele>
<time>2015-05-02T12:18:01Z</time>
</trkpt>
<trkpt lat="34.9751744" lon="33.5811463">
<ele>95.50</ele>
<time>2015-05-02T12:18:02Z</time>
</trkpt>
<trkpt lat="34.9751169" lon="33.5811808">
<ele>95.76</ele>
<time>2015-05-02T12:18:03Z</time>
</trkpt>
<trkpt lat="34.9750500" lon="33.5812206">
<ele>95.39</ele>
<time>2015-05-02T12:18:04Z</time>
</trkpt>
<trkpt lat="34.9749864" lon="33.5812734">
<ele>95.20</ele>
<time>2015-05-02T12:18:05Z</time>
</trkpt>
<trkpt lat="34.9749311" lon="33.5813133">
<ele>95.11</ele>
<time>2015-05-02T12:18:06Z</time>
</trkpt>
<trkpt lat="34.9748812" lon="33.5813482">
<ele>94.56</ele>
<time>2015-05-02T12:18:07Z</time>
</trkpt>
<trkpt lat="34.9748245" lon="33.5813883">
<ele>94.29</ele>
<time>2015-05-02T12:18:08Z</time>
</trkpt>
<trkpt lat="34.9747756" lon="33.5814194">
<ele>94.15</ele>
<time>2015-05-02T12:18:09Z</time>
</trkpt>
<trkpt lat="34.9747291" lon="33.5814505">
<ele>94.58</ele>
<time>2015-05-02T12:18:10Z</time>
</trkpt>
<trkpt lat="34.9746935" lon="33.5814849">
<ele>94.80</ele>
<time>2015-05-02T12:18:11Z</time>
</trkpt>
<trkpt lat="34.9746465" lon="33.5815090">
<ele>95.41</ele>
<time>2015-05-02T12:18:12Z</time>
</trkpt>
<trkpt lat="34.9745947" lon="33.5815452">
<ele>95.21</ele>
<time>2015-05-02T12:18:13Z</time>
</trkpt>
<trkpt lat="34.9745515" lon="33.5815842">
<ele>95.61</ele>
<time>2015-05-02T12:18:14Z</time>
</trkpt>
<trkpt lat="34.9745076" lon="33.5816385">
<ele>96.32</ele>
<time>2015-05-02T12:18:15Z</time>
</trkpt>
<trkpt lat="34.9744532" lon="33.5816832">
<ele>96.17</ele>
<time>2015-05-02T12:18:16Z</time>
</trkpt>
<trkpt lat="34.9744005" lon="33.5817256">
<ele>96.59</ele>
<time>2015-05-02T12:18:17Z</time>
</trkpt>
<trkpt lat="34.9743504" lon="33.5817725">
<ele>96.80</ele>
<time>2015-05-02T12:18:18Z</time>
</trkpt>
<trkpt lat="34.9743030" lon="33.5818170">
<ele>96.91</ele>
<time>2015-05-02T12:18:19Z</time>
</trkpt>
<trkpt lat="34.9742422" lon="33.5818745">
<ele>96.96</ele>
<time>2015-05-02T12:18:20Z</time>
</trkpt>
<trkpt lat="34.9741921" lon="33.5819228">
<ele>96.49</ele>
<time>2015-05-02T12:18:21Z</time>
</trkpt>
<trkpt lat="34.9741442" lon="33.5819692">
<ele>96.25</ele>
<time>2015-05-02T12:18:22Z</time>
</trkpt>
<trkpt lat="34.9740986" lon="33.5820208">
<ele>96.13</ele>
<time>2015-05-02T12:18:23Z</time>
</trkpt>
<trkpt lat="34.9740529" lon="33.5820730">
<ele>95.58</ele>
<time>2015-05-02T12:18:24Z</time>
</trkpt>
<trkpt lat="34.9740040" lon="33.5821191">
<ele>95.30</ele>
<time>2015-05-02T12:18:25Z</time>
</trkpt>
<trkpt lat="34.9739530" lon="33.5821731">
<ele>95.16</ele>
<time>2015-05-02T12:18:26Z</time>
</trkpt>
<trkpt lat="34.9739174" lon="33.5822219">
<ele>95.09</ele>
<time>2015-05-02T12:18:27Z</time>
</trkpt>
<trkpt lat="34.9738636" lon="33.5822780">
<ele>94.55</ele>
<time>2015-05-02T12:18:28Z</time>
</trkpt>
<trkpt lat="34.9738145" lon="33.5823232">
<ele>94.28</ele>
<time>2015-05-02T12:18:29Z</time>
</trkpt>
<trkpt lat="34.9737666" lon="33.5823704">
<ele>94.15</ele>
<time>2015-05-02T12:18:30Z</time>
</trkpt>
<trkpt lat="34.9737198" lon="33.5824152">
<ele>94.08</ele>
<time>2015-05-02T12:18:31Z</time>
</trkpt>
<trkpt lat="34.9736701" lon="33.5824535">
<ele>93.55</ele>
<time>2015-05-02T12:18:32Z</time>
</trkpt>
<trkpt lat="34.9736230" lon="33.5824952">
<ele>93.28</ele>
<time>2015-05-02T12:18:33Z</time>
</trkpt>
<trkpt lat="34.9735723" lon="33.5825371">
<ele>93.15</ele>
<time>2015-05-02T12:18:34Z</time>
</trkpt>
<trkpt lat="34.9735274" lon="33.5825733">
<ele>92.58</ele>
<time>2015-05-02T12:18:35Z</time>
</trkpt>
<trkpt lat="34.9734758" lon="33.5826022">
<ele>92.30</ele>
<time>2015-05-02T12:18:36Z</time>
</trkpt>
<trkpt lat="34.9734245" lon="33.5826314">
<ele>91.66</ele>
<time>2015-05-02T12:18:37Z</time>
</trkpt>
<trkpt lat="34.9733715" lon="33.5826718">
<ele>90.84</ele>
<time>2015-05-02T12:18:38Z</time>
</trkpt>
<trkpt lat="34.9733179" lon="33.5827084">
<ele>90.93</ele>
<time>2015-05-02T12:18:39Z</time>
</trkpt>
<trkpt lat="34.9732584" lon="33.5827443">
<ele>90.97</ele>
<time>2015-05-02T12:18:40Z</time>
</trkpt>
<trkpt lat="34.9732038" lon="33.5827816">
<ele>91.49</ele>
<time>2015-05-02T12:18:41Z</time>
</trkpt>
<trkpt lat="34.9731439" lon="33.5828172">
<ele>91.25</ele>
<time>2015-05-02T12:18:42Z</time>
</trkpt>
<trkpt lat="34.9730941" lon="33.5828486">
<ele>91.14</ele>
<time>2015-05-02T12:18:43Z</time>
</trkpt>
<trkpt lat="34.9730415" lon="33.5828903">
<ele>91.58</ele>
<time>2015-05-02T12:18:44Z</time>
</trkpt>
<trkpt lat="34.9729848" lon="33.5829236">
<ele>91.80</ele>
<time>2015-05-02T12:18:45Z</time>
</trkpt>
<trkpt lat="34.9729320" lon="33.5829609">
<ele>91.91</ele>
<time>2015-05-02T12:18:46Z</time>
</trkpt>
<trkpt lat="34.9728813" lon="33.5829897">
<ele>91.46</ele>
<time>2015-05-02T12:18:47Z</time>
</trkpt>
<trkpt lat="34.9728248" lon="33.5830144">
<ele>91.24</ele>
<time>2015-05-02T12:18:48Z</time>
</trkpt>
<trkpt lat="34.9727729" lon="33.5830479">
<ele>91.13</ele>
<time>2015-05-02T12:18:49Z</time>
</trkpt>
<trkpt lat="34.9727062" lon="33.5830791">
<ele>91.07</ele>
<time>2015-05-02T12:18:50Z</time>
</trkpt>
<trkpt lat="34.9726492" lon="33.5831106">
<ele>91.04</ele>
<time>2015-05-02T12:18:51Z</time>
</trkpt>
<trkpt lat="34.9725916" lon="33.5831435">
<ele>90.53</ele>
<time>2015-05-02T12:18:52Z</time>
</trkpt>
<trkpt lat="34.9725405" lon="33.5831832">
<ele>90.27</ele>
<time>2015-05-02T12:18:53Z</time>
</trkpt>
<trkpt lat="34.9724823" lon="33.5832185">
<ele>90.14</ele>
<time>2015-05-02T12:18:54Z</time>
</trkpt>
<trkpt lat="34.9724293" lon="33.5832485">
<ele>89.58</ele>
<time>2015-05-02T12:18:55Z</time>
</trkpt>
<trkpt lat="34.9723760" lon="33.5832763">
<ele>89.30</ele>
<time>2015-05-02T12:18:56Z</time>
</trkpt>
<trkpt lat="34.9723218" lon="33.5833008">
<ele>89.16</ele>
<time>2015-05-02T12:18:57Z</time>
</trkpt>
<trkpt lat="34.9722310" lon="33.5833425">
<ele>89.05</ele>
<time>2015-05-02T12:18:59Z</time>
</trkpt>
<trkpt lat="34.9721741" lon="33.5833683">
<ele>89.53</ele>
<time>2015-05-02T12:19:00Z</time>
</trkpt>
<trkpt lat="34.9721179" lon="33.5833996">
<ele>89.77</ele>
<time>2015-05-02T12:19:01Z</time>
</trkpt>
<trkpt lat="34.9720696" lon="33.5834220">
<ele>89.90</ele>
<time>2015-05-02T12:19:02Z</time>
</trkpt>
<trkpt lat="34.9720285" lon="33.5834499">
<ele>89.46</ele>
<time>2015-05-02T12:19:03Z</time>
</trkpt>
<trkpt lat="34.9719664" lon="33.5834829">
<ele>89.24</ele>
<time>2015-05-02T12:19:04Z</time>
</trkpt>
<trkpt lat="34.9719169" lon="33.5835088">
<ele>88.63</ele>
<time>2015-05-02T12:19:05Z</time>
</trkpt>
<trkpt lat="34.9718648" lon="33.5835354">
<ele>88.32</ele>
<time>2015-05-02T12:19:06Z</time>
</trkpt>
<trkpt lat="34.9718105" lon="33.5835646">
<ele>88.17</ele>
<time>2015-05-02T12:19:07Z</time>
</trkpt>
<trkpt lat="34.9717511" lon="33.5835981">
<ele>88.09</ele>
<time>2015-05-02T12:19:08Z</time>
</trkpt>
<trkpt lat="34.9716953" lon="33.5836184">
<ele>88.05</ele>
<time>2015-05-02T12:19:09Z</time>
</trkpt>
<trkpt lat="34.9716435" lon="33.5836384">
<ele>88.04</ele>
<time>2015-05-02T12:19:10Z</time>
</trkpt>
<trkpt lat="34.9715445" lon="33.5836788">
<ele>88.02</ele>
<time>2015-05-02T12:19:12Z</time>
</trkpt>
<trkpt lat="34.9714943" lon="33.5837036">
<ele>88.02</ele>
<time>2015-05-02T12:19:13Z</time>
</trkpt>
<trkpt lat="34.9714420" lon="33.5837342">
<ele>87.52</ele>
<time>2015-05-02T12:19:14Z</time>
</trkpt>
<trkpt lat="34.9713949" lon="33.5837516">
<ele>88.27</ele>
<time>2015-05-02T12:19:15Z</time>
</trkpt>
<trkpt lat="34.9713427" lon="33.5837814">
<ele>88.14</ele>
<time>2015-05-02T12:19:16Z</time>
</trkpt>
<trkpt lat="34.9712906" lon="33.5838098">
<ele>88.08</ele>
<time>2015-05-02T12:19:17Z</time>
</trkpt>
<trkpt lat="34.9712400" lon="33.5838287">
<ele>88.05</ele>
<time>2015-05-02T12:19:18Z</time>
</trkpt>
<trkpt lat="34.9711862" lon="33.5838572">
<ele>87.53</ele>
<time>2015-05-02T12:19:19Z</time>
</trkpt>
<trkpt lat="34.9711244" lon="33.5838917">
<ele>87.27</ele>
<time>2015-05-02T12:19:20Z</time>
</trkpt>
<trkpt lat="34.9710772" lon="33.5839242">
<ele>86.64</ele>
<time>2015-05-02T12:19:21Z</time>
</trkpt>
<trkpt lat="34.9710219" lon="33.5839553">
<ele>86.83</ele>
<time>2015-05-02T12:19:22Z</time>
</trkpt>
<trkpt lat="34.9709722" lon="33.5839742">
<ele>86.42</ele>
<time>2015-05-02T12:19:23Z</time>
</trkpt>
<trkpt lat="34.9709118" lon="33.5839986">
<ele>86.72</ele>
<time>2015-05-02T12:19:24Z</time>
</trkpt>
<trkpt lat="34.9708643" lon="33.5840279">
<ele>86.87</ele>
<time>2015-05-02T12:19:25Z</time>
</trkpt>
<trkpt lat="34.9708120" lon="33.5840623">
<ele>86.94</ele>
<time>2015-05-02T12:19:26Z</time>
</trkpt>
<trkpt lat="34.9707600" lon="33.5840892">
<ele>86.48</ele>
<time>2015-05-02T12:19:27Z</time>
</trkpt>
<trkpt lat="34.9707069" lon="33.5841183">
<ele>86.25</ele>
<time>2015-05-02T12:19:28Z</time>
</trkpt>
<trkpt lat="34.9706503" lon="33.5841485">
<ele>85.63</ele>
<time>2015-05-02T12:19:29Z</time>
</trkpt>
<trkpt lat="34.9705996" lon="33.5841660">
<ele>85.32</ele>
<time>2015-05-02T12:19:30Z</time>
</trkpt>
<trkpt lat="34.9705538" lon="33.5841944">
<ele>84.67</ele>
<time>2015-05-02T12:19:31Z</time>
</trkpt>
<trkpt lat="34.9704626" lon="33.5842230">
<ele>84.18</ele>
<time>2015-05-02T12:19:33Z</time>
</trkpt>
<trkpt lat="34.9703672" lon="33.5842582">
<ele>83.56</ele>
<time>2015-05-02T12:19:35Z</time>
</trkpt>
<trkpt lat="34.9703166" lon="33.5842750">
<ele>83.29</ele>
<time>2015-05-02T12:19:36Z</time>
</trkpt>
<trkpt lat="34.9702666" lon="33.5842882">
<ele>83.65</ele>
<time>2015-05-02T12:19:37Z</time>
</trkpt>
<trkpt lat="34.9702152" lon="33.5843030">
<ele>83.83</ele>
<time>2015-05-02T12:19:38Z</time>
</trkpt>
<trkpt lat="34.9701685" lon="33.5843061">
<ele>83.92</ele>
<time>2015-05-02T12:19:39Z</time>
</trkpt>
<trkpt lat="34.9701105" lon="33.5843147">
<ele>83.47</ele>
<time>2015-05-02T12:19:40Z</time>
</trkpt>
<trkpt lat="34.9700533" lon="33.5843340">
<ele>83.24</ele>
<time>2015-05-02T12:19:41Z</time>
</trkpt>
<trkpt lat="34.9699870" lon="33.5843440">
<ele>82.63</ele>
<time>2015-05-02T12:19:42Z</time>
</trkpt>
<trkpt lat="34.9699249" lon="33.5843482">
<ele>82.32</ele>
<time>2015-05-02T12:19:43Z</time>
</trkpt>
<trkpt lat="34.9698611" lon="33.5843612">
<ele>82.17</ele>
<time>2015-05-02T12:19:44Z</time>
</trkpt>
<trkpt lat="34.9698170" lon="33.5843801">
<ele>82.59</ele>
<time>2015-05-02T12:19:45Z</time>
</trkpt>
<trkpt lat="34.9697660" lon="33.5843859">
<ele>82.30</ele>
<time>2015-05-02T12:19:46Z</time>
</trkpt>
<trkpt lat="34.9697123" lon="33.5843895">
<ele>82.66</ele>
<time>2015-05-02T12:19:47Z</time>
</trkpt>
<trkpt lat="34.9696646" lon="33.5844001">
<ele>82.84</ele>
<time>2015-05-02T12:19:48Z</time>
</trkpt>
<trkpt lat="34.9696126" lon="33.5844024">
<ele>82.43</ele>
<time>2015-05-02T12:19:49Z</time>
</trkpt>
<trkpt lat="34.9695644" lon="33.5844018">
<ele>82.72</ele>
<time>2015-05-02T12:19:50Z</time>
</trkpt>
<trkpt lat="34.9695083" lon="33.5844072">
<ele>83.37</ele>
<time>2015-05-02T12:19:51Z</time>
</trkpt>
<trkpt lat="34.9694468" lon="33.5844067">
<ele>83.19</ele>
<time>2015-05-02T12:19:52Z</time>
</trkpt>
<trkpt lat="34.9693861" lon="33.5844082">
<ele>83.60</ele>
<time>2015-05-02T12:19:53Z</time>
</trkpt>
<trkpt lat="34.9693142" lon="33.5844126">
<ele>83.81</ele>
<time>2015-05-02T12:19:54Z</time>
</trkpt>
<trkpt lat="34.9692495" lon="33.5844136">
<ele>83.91</ele>
<time>2015-05-02T12:19:55Z</time>
</trkpt>
<trkpt lat="34.9691836" lon="33.5844125">
<ele>83.46</ele>
<time>2015-05-02T12:19:56Z</time>
</trkpt>
<trkpt lat="34.9691170" lon="33.5844032">
<ele>82.74</ele>
<time>2015-05-02T12:19:57Z</time>
</trkpt>
<trkpt lat="34.9690530" lon="33.5844058">
<ele>82.38</ele>
<time>2015-05-02T12:19:58Z</time>
</trkpt>
<trkpt lat="34.9689971" lon="33.5843939">
<ele>81.70</ele>
<time>2015-05-02T12:19:59Z</time>
</trkpt>
<trkpt lat="34.9689475" lon="33.5843917">
<ele>81.36</ele>
<time>2015-05-02T12:20:00Z</time>
</trkpt>
<trkpt lat="34.9688944" lon="33.5843900">
<ele>81.19</ele>
<time>2015-05-02T12:20:01Z</time>
</trkpt>
<trkpt lat="34.9688366" lon="33.5843886">
<ele>81.60</ele>
<time>2015-05-02T12:20:02Z</time>
</trkpt>
<trkpt lat="34.9687860" lon="33.5843913">
<ele>81.31</ele>
<time>2015-05-02T12:20:03Z</time>
</trkpt>
<trkpt lat="34.9687234" lon="33.5843923">
<ele>80.66</ele>
<time>2015-05-02T12:20:04Z</time>
</trkpt>
<trkpt lat="34.9686628" lon="33.5843959">
<ele>80.34</ele>
<time>2015-05-02T12:20:05Z</time>
</trkpt>
<trkpt lat="34.9686135" lon="33.5843925">
<ele>79.68</ele>
<time>2015-05-02T12:20:06Z</time>
</trkpt>
<trkpt lat="34.9685537" lon="33.5843923">
<ele>79.35</ele>
<time>2015-05-02T12:20:07Z</time>
</trkpt>
<trkpt lat="34.9684884" lon="33.5843989">
<ele>79.68</ele>
<time>2015-05-02T12:20:08Z</time>
</trkpt>
<trkpt lat="34.9684268" lon="33.5843992">
<ele>79.85</ele>
<time>2015-05-02T12:20:09Z</time>
</trkpt>
<trkpt lat="34.9683632" lon="33.5843954">
<ele>79.93</ele>
<time>2015-05-02T12:20:10Z</time>
</trkpt>
<trkpt lat="34.9683064" lon="33.5843889">
<ele>79.97</ele>
<time>2015-05-02T12:20:11Z</time>
</trkpt>
<trkpt lat="34.9682412" lon="33.5843927">
<ele>80.00</ele>
<time>2015-05-02T12:20:12Z</time>
</trkpt>
<trkpt lat="34.9681765" lon="33.5843970">
<ele>80.01</ele>
<time>2015-05-02T12:20:13Z</time>
</trkpt>
<trkpt lat="34.9681229" lon="33.5844002">
<ele>80.01</ele>
<time>2015-05-02T12:20:14Z</time>
</trkpt>
<trkpt lat="34.9680645" lon="33.5843967">
<ele>80.51</ele>
<time>2015-05-02T12:20:15Z</time>
</trkpt>
<trkpt lat="34.9680117" lon="33.5843902">
<ele>80.76</ele>
<time>2015-05-02T12:20:16Z</time>
</trkpt>
<trkpt lat="34.9679604" lon="33.5843906">
<ele>80.89</ele>
<time>2015-05-02T12:20:17Z</time>
</trkpt>
<trkpt lat="34.9678714" lon="33.5844036">
<ele>80.98</ele>
<time>2015-05-02T12:20:19Z</time>
</trkpt>
<trkpt lat="34.9678115" lon="33.5844123">
<ele>81.00</ele>
<time>2015-05-02T12:20:20Z</time>
</trkpt>
<trkpt lat="34.9677647" lon="33.5844291">
<ele>81.51</ele>
<time>2015-05-02T12:20:21Z</time>
</trkpt>
<trkpt lat="34.9677073" lon="33.5844326">
<ele>81.76</ele>
<time>2015-05-02T12:20:22Z</time>
</trkpt>
<trkpt lat="34.9676440" lon="33.5844369">
<ele>81.89</ele>
<time>2015-05-02T12:20:23Z</time>
</trkpt>
<trkpt lat="34.9675800" lon="33.5844373">
<ele>81.95</ele>
<time>2015-05-02T12:20:24Z</time>
</trkpt>
<trkpt lat="34.9675191" lon="33.5844367">
<ele>81.98</ele>
<time>2015-05-02T12:20:25Z</time>
</trkpt>
<trkpt lat="34.9674598" lon="33.5844424">
<ele>82.00</ele>
<time>2015-05-02T12:20:26Z</time>
</trkpt>
<trkpt lat="34.9674041" lon="33.5844466">
<ele>81.51</ele>
<time>2015-05-02T12:20:27Z</time>
</trkpt>
<trkpt lat="34.9673402" lon="33.5844615">
<ele>81.76</ele>
<time>2015-05-02T12:20:28Z</time>
</trkpt>
<trkpt lat="34.9672848" lon="33.5844756">
<ele>81.39</ele>
<time>2015-05-02T12:20:29Z</time>
</trkpt>
<trkpt lat="34.9672376" lon="33.5844891">
<ele>81.20</ele>
<time>2015-05-02T12:20:30Z</time>
</trkpt>
<trkpt lat="34.9671853" lon="33.5845002">
<ele>81.11</ele>
<time>2015-05-02T12:20:31Z</time>
</trkpt>
<trkpt lat="34.9670838" lon="33.5845314">
<ele>81.29</ele>
<time>2015-05-02T12:20:33Z</time>
</trkpt>
<trkpt lat="34.9670269" lon="33.5845491">
<ele>80.15</ele>
<time>2015-05-02T12:20:34Z</time>
</trkpt>
<trkpt lat="34.9669319" lon="33.5845763">
<ele>78.80</ele>
<time>2015-05-02T12:20:36Z</time>
</trkpt>
<trkpt lat="34.9668843" lon="33.5845920">
<ele>78.91</ele>
<time>2015-05-02T12:20:37Z</time>
</trkpt>
<trkpt lat="34.9667999" lon="33.5846099">
<ele>78.24</ele>
<time>2015-05-02T12:20:39Z</time>
</trkpt>
<trkpt lat="34.9667543" lon="33.5846197">
<ele>78.63</ele>
<time>2015-05-02T12:20:40Z</time>
</trkpt>
<trkpt lat="34.9666722" lon="33.5846342">
<ele>78.17</ele>
<time>2015-05-02T12:20:42Z</time>
</trkpt>
<trkpt lat="34.9665856" lon="33.5846512">
<ele>77.55</ele>
<time>2015-05-02T12:20:44Z</time>
</trkpt>
<trkpt lat="34.9665398" lon="33.5846650">
<ele>77.79</ele>
<time>2015-05-02T12:20:45Z</time>
</trkpt>
<trkpt lat="34.9664870" lon="33.5846719">
<ele>77.90</ele>
<time>2015-05-02T12:20:46Z</time>
</trkpt>
<trkpt lat="34.9663918" lon="33.5846867">
<ele>77.99</ele>
<time>2015-05-02T12:20:48Z</time>
</trkpt>
<trkpt lat="34.9663382" lon="33.5847017">
<ele>78.00</ele>
<time>2015-05-02T12:20:49Z</time>
</trkpt>
<trkpt lat="34.9662834" lon="33.5847144">
<ele>78.01</ele>
<time>2015-05-02T12:20:50Z</time>
</trkpt>
<trkpt lat="34.9662338" lon="33.5847235">
<ele>78.01</ele>
<time>2015-05-02T12:20:51Z</time>
</trkpt>
<trkpt lat="34.9661766" lon="33.5847382">
<ele>78.01</ele>
<time>2015-05-02T12:20:52Z</time>
</trkpt>
<trkpt lat="34.9661217" lon="33.5847523">
<ele>78.02</ele>
<time>2015-05-02T12:20:53Z</time>
</trkpt>
<trkpt lat="34.9660599" lon="33.5847711">
<ele>78.52</ele>
<time>2015-05-02T12:20:54Z</time>
</trkpt>
<trkpt lat="34.9659998" lon="33.5847861">
<ele>78.27</ele>
<time>2015-05-02T12:20:55Z</time>
</trkpt>
<trkpt lat="34.9659422" lon="33.5847955">
<ele>78.14</ele>
<time>2015-05-02T12:20:56Z</time>
</trkpt>
<trkpt lat="34.9658847" lon="33.5848005">
<ele>78.08</ele>
<time>2015-05-02T12:20:57Z</time>
</trkpt>
<trkpt lat="34.9658313" lon="33.5848077">
<ele>79.05</ele>
<time>2015-05-02T12:20:58Z</time>
</trkpt>
<trkpt lat="34.9657729" lon="33.5848097">
<ele>80.03</ele>
<time>2015-05-02T12:20:59Z</time>
</trkpt>
<trkpt lat="34.9657044" lon="33.5848145">
<ele>81.52</ele>
<time>2015-05-02T12:21:00Z</time>
</trkpt>
<trkpt lat="34.9656440" lon="33.5848079">
<ele>82.77</ele>
<time>2015-05-02T12:21:01Z</time>
</trkpt>
<trkpt lat="34.9655958" lon="33.5848236">
<ele>83.89</ele>
<time>2015-05-02T12:21:02Z</time>
</trkpt>
<trkpt lat="34.9655383" lon="33.5848201">
<ele>84.95</ele>
<time>2015-05-02T12:21:03Z</time>
</trkpt>
<trkpt lat="34.9654818" lon="33.5848147">
<ele>84.49</ele>
<time>2015-05-02T12:21:04Z</time>
</trkpt>
<trkpt lat="34.9654274" lon="33.5848055">
<ele>84.75</ele>
<time>2015-05-02T12:21:05Z</time>
</trkpt>
<trkpt lat="34.9653719" lon="33.5847968">
<ele>84.88</ele>
<time>2015-05-02T12:21:06Z</time>
</trkpt>
<trkpt lat="34.9653199" lon="33.5847897">
<ele>85.45</ele>
<time>2015-05-02T12:21:07Z</time>
</trkpt>
<trkpt lat="34.9652644" lon="33.5847796">
<ele>85.73</ele>
<time>2015-05-02T12:21:08Z</time>
</trkpt>
<trkpt lat="34.9652121" lon="33.5847762">
<ele>85.87</ele>
<time>2015-05-02T12:21:09Z</time>
</trkpt>
<trkpt lat="34.9651528" lon="33.5847692">
<ele>84.45</ele>
<time>2015-05-02T12:21:10Z</time>
</trkpt>
<trkpt lat="34.9650935" lon="33.5847585">
<ele>83.73</ele>
<time>2015-05-02T12:21:11Z</time>
</trkpt>
<trkpt lat="34.9650303" lon="33.5847481">
<ele>83.37</ele>
<time>2015-05-02T12:21:12Z</time>
</trkpt>
<trkpt lat="34.9649810" lon="33.5847518">
<ele>83.19</ele>
<time>2015-05-02T12:21:13Z</time>
</trkpt>
<trkpt lat="34.9649112" lon="33.5847504">
<ele>83.11</ele>
<time>2015-05-02T12:21:14Z</time>
</trkpt>
<trkpt lat="34.9648485" lon="33.5847518">
<ele>83.06</ele>
<time>2015-05-02T12:21:15Z</time>
</trkpt>
<trkpt lat="34.9648033" lon="33.5847307">
<ele>83.04</ele>
<time>2015-05-02T12:21:16Z</time>
</trkpt>
<trkpt lat="34.9647397" lon="33.5847287">
<ele>82.53</ele>
<time>2015-05-02T12:21:17Z</time>
</trkpt>
<trkpt lat="34.9646847" lon="33.5847279">
<ele>82.27</ele>
<time>2015-05-02T12:21:18Z</time>
</trkpt>
<trkpt lat="34.9646375" lon="33.5847129">
<ele>81.64</ele>
<time>2015-05-02T12:21:19Z</time>
</trkpt>
<trkpt lat="34.9645802" lon="33.5847162">
<ele>80.83</ele>
<time>2015-05-02T12:21:20Z</time>
</trkpt>
<trkpt lat="34.9645227" lon="33.5847000">
<ele>80.92</ele>
<time>2015-05-02T12:21:21Z</time>
</trkpt>
<trkpt lat="34.9644690" lon="33.5846955">
<ele>80.47</ele>
<time>2015-05-02T12:21:22Z</time>
</trkpt>
<trkpt lat="34.9644164" lon="33.5846890">
<ele>80.24</ele>
<time>2015-05-02T12:21:23Z</time>
</trkpt>
<trkpt lat="34.9643709" lon="33.5846846">
<ele>79.63</ele>
<time>2015-05-02T12:21:24Z</time>
</trkpt>
<trkpt lat="34.9643243" lon="33.5846670">
<ele>79.32</ele>
<time>2015-05-02T12:21:25Z</time>
</trkpt>
<trkpt lat="34.9642715" lon="33.5846588">
<ele>78.67</ele>
<time>2015-05-02T12:21:26Z</time>
</trkpt>
<trkpt lat="34.9642238" lon="33.5846429">
<ele>78.34</ele>
<time>2015-05-02T12:21:27Z</time>
</trkpt>
<trkpt lat="34.9641651" lon="33.5846278">
<ele>77.18</ele>
<time>2015-05-02T12:21:28Z</time>
</trkpt>
<trkpt lat="34.9641097" lon="33.5846057">
<ele>76.60</ele>
<time>2015-05-02T12:21:29Z</time>
</trkpt>
<trkpt lat="34.9640617" lon="33.5845744">
<ele>75.81</ele>
<time>2015-05-02T12:21:30Z</time>
</trkpt>
<trkpt lat="34.9640117" lon="33.5845491">
<ele>74.91</ele>
<time>2015-05-02T12:21:31Z</time>
</trkpt>
<trkpt lat="34.9639503" lon="33.5845213">
<ele>74.46</ele>
<time>2015-05-02T12:21:32Z</time>
</trkpt>
<trkpt lat="34.9638957" lon="33.5844875">
<ele>74.24</ele>
<time>2015-05-02T12:21:33Z</time>
</trkpt>
<trkpt lat="34.9638427" lon="33.5844564">
<ele>73.63</ele>
<time>2015-05-02T12:21:34Z</time>
</trkpt>
<trkpt lat="34.9637885" lon="33.5844176">
<ele>73.32</ele>
<time>2015-05-02T12:21:35Z</time>
</trkpt>
<trkpt lat="34.9637353" lon="33.5843863">
<ele>73.17</ele>
<time>2015-05-02T12:21:36Z</time>
</trkpt>
<trkpt lat="34.9636853" lon="33.5843540">
<ele>73.59</ele>
<time>2015-05-02T12:21:37Z</time>
</trkpt>
<trkpt lat="34.9636334" lon="33.5843286">
<ele>73.30</ele>
<time>2015-05-02T12:21:38Z</time>
</trkpt>
<trkpt lat="34.9635812" lon="33.5843058">
<ele>73.16</ele>
<time>2015-05-02T12:21:39Z</time>
</trkpt>
<trkpt lat="34.9635302" lon="33.5842823">
<ele>73.09</ele>
<time>2015-05-02T12:21:40Z</time>
</trkpt>
<trkpt lat="34.9634735" lon="33.5842545">
<ele>73.05</ele>
<time>2015-05-02T12:21:41Z</time>
</trkpt>
<trkpt lat="34.9634202" lon="33.5842399">
<ele>73.03</ele>
<time>2015-05-02T12:21:42Z</time>
</trkpt>
<trkpt lat="34.9633714" lon="33.5842205">
<ele>72.53</ele>
<time>2015-05-02T12:21:43Z</time>
</trkpt>
<trkpt lat="34.9633200" lon="33.5842074">
<ele>72.27</ele>
<time>2015-05-02T12:21:44Z</time>
</trkpt>
<trkpt lat="34.9632723" lon="33.5841904">
<ele>72.14</ele>
<time>2015-05-02T12:21:45Z</time>
</trkpt>
<trkpt lat="34.9631828" lon="33.5841855">
<ele>72.80</ele>
<time>2015-05-02T12:21:47Z</time>
</trkpt>
<trkpt lat="34.9631289" lon="33.5841877">
<ele>72.41</ele>
<time>2015-05-02T12:21:48Z</time>
</trkpt>
<trkpt lat="34.9630682" lon="33.5841932">
<ele>71.71</ele>
<time>2015-05-02T12:21:49Z</time>
</trkpt>
<trkpt lat="34.9630130" lon="33.5841914">
<ele>71.86</ele>
<time>2015-05-02T12:21:50Z</time>
</trkpt>
<trkpt lat="34.9629629" lon="33.5841989">
<ele>71.94</ele>
<time>2015-05-02T12:21:51Z</time>
</trkpt>
<trkpt lat="34.9629042" lon="33.5842025">
<ele>71.98</ele>
<time>2015-05-02T12:21:52Z</time>
</trkpt>
<trkpt lat="34.9628458" lon="33.5842114">
<ele>71.50</ele>
<time>2015-05-02T12:21:53Z</time>
</trkpt>
<trkpt lat="34.9627915" lon="33.5842181">
<ele>71.26</ele>
<time>2015-05-02T12:21:54Z</time>
</trkpt>
<trkpt lat="34.9627345" lon="33.5842288">
<ele>71.14</ele>
<time>2015-05-02T12:21:55Z</time>
</trkpt>
<trkpt lat="34.9626725" lon="33.5842470">
<ele>71.08</ele>
<time>2015-05-02T12:21:56Z</time>
</trkpt>
<trkpt lat="34.9626207" lon="33.5842592">
<ele>70.55</ele>
<time>2015-05-02T12:21:57Z</time>
</trkpt>
<trkpt lat="34.9625609" lon="33.5842716">
<ele>70.28</ele>
<time>2015-05-02T12:21:58Z</time>
</trkpt>
<trkpt lat="34.9624969" lon="33.5842830">
<ele>70.65</ele>
<time>2015-05-02T12:21:59Z</time>
</trkpt>
<trkpt lat="34.9624377" lon="33.5842852">
<ele>70.83</ele>
<time>2015-05-02T12:22:00Z</time>
</trkpt>
<trkpt lat="34.9623908" lon="33.5842924">
<ele>71.42</ele>
<time>2015-05-02T12:22:01Z</time>
</trkpt>
<trkpt lat="34.9623355" lon="33.5843055">
<ele>71.72</ele>
<time>2015-05-02T12:22:02Z</time>
</trkpt>
<trkpt lat="34.9622531" lon="33.5843300">
<ele>71.44</ele>
<time>2015-05-02T12:22:04Z</time>
</trkpt>
<trkpt lat="34.9621940" lon="33.5843446">
<ele>71.23</ele>
<time>2015-05-02T12:22:05Z</time>
</trkpt>
<trkpt lat="34.9621095" lon="33.5843524">
<ele>71.07</ele>
<time>2015-05-02T12:22:07Z</time>
</trkpt>
<trkpt lat="34.9620564" lon="33.5843477">
<ele>71.04</ele>
<time>2015-05-02T12:22:08Z</time>
</trkpt>
<trkpt lat="34.9620846" lon="33.5844211">
<ele>72.03</ele>
<time>2015-05-02T12:22:09Z</time>
</trkpt>
<trkpt lat="34.9619798" lon="33.5844070">
<ele>71.52</ele>
<time>2015-05-02T12:22:10Z</time>
</trkpt>
<trkpt lat="34.9618752" lon="33.5844285">
<ele>69.64</ele>
<time>2015-05-02T12:22:12Z</time>
</trkpt>
<trkpt lat="34.9618168" lon="33.5844454">
<ele>69.33</ele>
<time>2015-05-02T12:22:13Z</time>
</trkpt>
<trkpt lat="34.9617649" lon="33.5844526">
<ele>68.67</ele>
<time>2015-05-02T12:22:14Z</time>
</trkpt>
<trkpt lat="34.9617118" lon="33.5844576">
<ele>68.84</ele>
<time>2015-05-02T12:22:15Z</time>
</trkpt>
<trkpt lat="34.9616515" lon="33.5844636">
<ele>68.93</ele>
<time>2015-05-02T12:22:16Z</time>
</trkpt>
<trkpt lat="34.9616030" lon="33.5844698">
<ele>68.97</ele>
<time>2015-05-02T12:22:17Z</time>
</trkpt>
<trkpt lat="34.9615537" lon="33.5844726">
<ele>68.49</ele>
<time>2015-05-02T12:22:18Z</time>
</trkpt>
<trkpt lat="34.9615092" lon="33.5844819">
<ele>67.76</ele>
<time>2015-05-02T12:22:19Z</time>
</trkpt>
<trkpt lat="34.9614557" lon="33.5844907">
<ele>67.39</ele>
<time>2015-05-02T12:22:20Z</time>
</trkpt>
<trkpt lat="34.9614033" lon="33.5844984">
<ele>67.20</ele>
<time>2015-05-02T12:22:21Z</time>
</trkpt>
<trkpt lat="34.9613540" lon="33.5845073">
<ele>66.61</ele>
<time>2015-05-02T12:22:22Z</time>
</trkpt>
<trkpt lat="34.9613022" lon="33.5845124">
<ele>66.81</ele>
<time>2015-05-02T12:22:23Z</time>
</trkpt>
<trkpt lat="34.9612433" lon="33.5845171">
<ele>66.41</ele>
<time>2015-05-02T12:22:24Z</time>
</trkpt>
<trkpt lat="34.9611977" lon="33.5845247">
<ele>66.72</ele>
<time>2015-05-02T12:22:25Z</time>
</trkpt>
<trkpt lat="34.9611450" lon="33.5845291">
<ele>66.87</ele>
<time>2015-05-02T12:22:26Z</time>
</trkpt>
<trkpt lat="34.9610575" lon="33.5845475">
<ele>66.73</ele>
<time>2015-05-02T12:22:28Z</time>
</trkpt>
<trkpt lat="34.9610114" lon="33.5845537">
<ele>66.37</ele>
<time>2015-05-02T12:22:29Z</time>
</trkpt>
<trkpt lat="34.9609312" lon="33.5845690">
<ele>66.11</ele>
<time>2015-05-02T12:22:31Z</time>
</trkpt>
<trkpt lat="34.9608621" lon="33.5845748">
<ele>66.04</ele>
<time>2015-05-02T12:22:33Z</time>
</trkpt>
<trkpt lat="34.9608043" lon="33.5845878">
<ele>66.02</ele>
<time>2015-05-02T12:22:35Z</time>
</trkpt>
<trkpt lat="34.9607248" lon="33.5845944">
<ele>65.52</ele>
<time>2015-05-02T12:22:37Z</time>
</trkpt>
<trkpt lat="34.9606550" lon="33.5846008">
<ele>65.64</ele>
<time>2015-05-02T12:22:39Z</time>
</trkpt>
<trkpt lat="34.9605813" lon="33.5846011">
<ele>65.92</ele>
<time>2015-05-02T12:22:41Z</time>
</trkpt>
<trkpt lat="34.9605104" lon="33.5846113">
<ele>65.49</ele>
<time>2015-05-02T12:22:43Z</time>
</trkpt>
<trkpt lat="34.9604387" lon="33.5846315">
<ele>65.14</ele>
<time>2015-05-02T12:22:45Z</time>
</trkpt>
<trkpt lat="34.9603750" lon="33.5846420">
<ele>64.80</ele>
<time>2015-05-02T12:22:47Z</time>
</trkpt>
<trkpt lat="34.9603162" lon="33.5846394">
<ele>65.46</ele>
<time>2015-05-02T12:22:49Z</time>
</trkpt>
<trkpt lat="34.9602608" lon="33.5846378">
<ele>65.88</ele>
<time>2015-05-02T12:22:51Z</time>
</trkpt>
<trkpt lat="34.9602019" lon="33.5846464">
<ele>67.48</ele>
<time>2015-05-02T12:22:53Z</time>
</trkpt>
<trkpt lat="34.9601457" lon="33.5846529">
<ele>68.13</ele>
<time>2015-05-02T12:22:55Z</time>
</trkpt>
<trkpt lat="34.9600847" lon="33.5846582">
<ele>69.30</ele>
<time>2015-05-02T12:22:57Z</time>
</trkpt>
<trkpt lat="34.9600181" lon="33.5846593">
<ele>70.09</ele>
<time>2015-05-02T12:22:59Z</time>
</trkpt>
<trkpt lat="34.9599590" lon="33.5846638">
<ele>70.05</ele>
<time>2015-05-02T12:23:00Z</time>
</trkpt>
<trkpt lat="34.9599086" lon="33.5846606">
<ele>70.03</ele>
<time>2015-05-02T12:23:01Z</time>
</trkpt>
<trkpt lat="34.9598559" lon="33.5846650">
<ele>70.02</ele>
<time>2015-05-02T12:23:02Z</time>
</trkpt>
<trkpt lat="34.9597995" lon="33.5846656">
<ele>70.02</ele>
<time>2015-05-02T12:23:03Z</time>
</trkpt>
<trkpt lat="34.9597452" lon="33.5846694">
<ele>70.02</ele>
<time>2015-05-02T12:23:04Z</time>
</trkpt>
<trkpt lat="34.9597001" lon="33.5846846">
<ele>70.02</ele>
<time>2015-05-02T12:23:05Z</time>
</trkpt>
<trkpt lat="34.9596539" lon="33.5846910">
<ele>70.02</ele>
<time>2015-05-02T12:23:06Z</time>
</trkpt>
<trkpt lat="34.9596086" lon="33.5846943">
<ele>70.02</ele>
<time>2015-05-02T12:23:07Z</time>
</trkpt>
<trkpt lat="34.9595615" lon="33.5847028">
<ele>70.02</ele>
<time>2015-05-02T12:23:08Z</time>
</trkpt>
<trkpt lat="34.9594710" lon="33.5847284">
<ele>69.27</ele>
<time>2015-05-02T12:23:10Z</time>
</trkpt>
<trkpt lat="34.9594254" lon="33.5847440">
<ele>69.14</ele>
<time>2015-05-02T12:23:11Z</time>
</trkpt>
<trkpt lat="34.9593817" lon="33.5847665">
<ele>69.08</ele>
<time>2015-05-02T12:23:12Z</time>
</trkpt>
<trkpt lat="34.9593396" lon="33.5847911">
<ele>69.05</ele>
<time>2015-05-02T12:23:13Z</time>
</trkpt>
<trkpt lat="34.9592926" lon="33.5848261">
<ele>69.03</ele>
<time>2015-05-02T12:23:14Z</time>
</trkpt>
<trkpt lat="34.9592487" lon="33.5848653">
<ele>69.02</ele>
<time>2015-05-02T12:23:15Z</time>
</trkpt>
<trkpt lat="34.9591932" lon="33.5848984">
<ele>68.52</ele>
<time>2015-05-02T12:23:16Z</time>
</trkpt>
<trkpt lat="34.9591430" lon="33.5849370">
<ele>68.27</ele>
<time>2015-05-02T12:23:17Z</time>
</trkpt>
<trkpt lat="34.9590950" lon="33.5849690">
<ele>68.14</ele>
<time>2015-05-02T12:23:18Z</time>
</trkpt>
<trkpt lat="34.9590489" lon="33.5850026">
<ele>68.08</ele>
<time>2015-05-02T12:23:19Z</time>
</trkpt>
<trkpt lat="34.9589998" lon="33.5850363">
<ele>68.05</ele>
<time>2015-05-02T12:23:20Z</time>
</trkpt>
<trkpt lat="34.9589567" lon="33.5850749">
<ele>68.03</ele>
<time>2015-05-02T12:23:21Z</time>
</trkpt>
<trkpt lat="34.9589201" lon="33.5851099">
<ele>67.52</ele>
<time>2015-05-02T12:23:22Z</time>
</trkpt>
<trkpt lat="34.9588425" lon="33.5851682">
<ele>68.39</ele>
<time>2015-05-02T12:23:24Z</time>
</trkpt>
<trkpt lat="34.9588007" lon="33.5852011">
<ele>68.70</ele>
<time>2015-05-02T12:23:25Z</time>
</trkpt>
<trkpt lat="34.9587222" lon="33.5852595">
<ele>68.94</ele>
<time>2015-05-02T12:23:27Z</time>
</trkpt>
<trkpt lat="34.9586515" lon="33.5853133">
<ele>68.25</ele>
<time>2015-05-02T12:23:29Z</time>
</trkpt>
<trkpt lat="34.9586111" lon="33.5853462">
<ele>68.13</ele>
<time>2015-05-02T12:23:30Z</time>
</trkpt>
<trkpt lat="34.9585693" lon="33.5853791">
<ele>68.07</ele>
<time>2015-05-02T12:23:31Z</time>
</trkpt>
<trkpt lat="34.9585300" lon="33.5854195">
<ele>68.04</ele>
<time>2015-05-02T12:23:32Z</time>
</trkpt>
<trkpt lat="34.9584842" lon="33.5854477">
<ele>67.53</ele>
<time>2015-05-02T12:23:33Z</time>
</trkpt>
<trkpt lat="34.9584441" lon="33.5854742">
<ele>66.77</ele>
<time>2015-05-02T12:23:34Z</time>
</trkpt>
<trkpt lat="34.9583962" lon="33.5855072">
<ele>66.39</ele>
<time>2015-05-02T12:23:35Z</time>
</trkpt>
<trkpt lat="34.9583468" lon="33.5855342">
<ele>66.21</ele>
<time>2015-05-02T12:23:36Z</time>
</trkpt>
<trkpt lat="34.9582661" lon="33.5855898">
<ele>66.06</ele>
<time>2015-05-02T12:23:38Z</time>
</trkpt>
<trkpt lat="34.9581781" lon="33.5856446">
<ele>65.28</ele>
<time>2015-05-02T12:23:40Z</time>
</trkpt>
<trkpt lat="34.9581341" lon="33.5856732">
<ele>64.65</ele>
<time>2015-05-02T12:23:41Z</time>
</trkpt>
<trkpt lat="34.9580884" lon="33.5857078">
<ele>64.83</ele>
<time>2015-05-02T12:23:42Z</time>
</trkpt>
<trkpt lat="34.9580421" lon="33.5857368">
<ele>64.92</ele>
<time>2015-05-02T12:23:43Z</time>
</trkpt>
<trkpt lat="34.9579926" lon="33.5857690">
<ele>65.47</ele>
<time>2015-05-02T12:23:44Z</time>
</trkpt>
<trkpt lat="34.9579483" lon="33.5857846">
<ele>66.74</ele>
<time>2015-05-02T12:23:45Z</time>
</trkpt>
<trkpt lat="34.9579034" lon="33.5858147">
<ele>66.88</ele>
<time>2015-05-02T12:23:46Z</time>
</trkpt>
<trkpt lat="34.9578593" lon="33.5858408">
<ele>66.95</ele>
<time>2015-05-02T12:23:47Z</time>
</trkpt>
<trkpt lat="34.9578128" lon="33.5858757">
<ele>67.48</ele>
<time>2015-05-02T12:23:48Z</time>
</trkpt>
<trkpt lat="34.9577708" lon="33.5859026">
<ele>67.75</ele>
<time>2015-05-02T12:23:49Z</time>
</trkpt>
<trkpt lat="34.9577288" lon="33.5859300">
<ele>67.38</ele>
<time>2015-05-02T12:23:50Z</time>
</trkpt>
<trkpt lat="34.9576835" lon="33.5859527">
<ele>67.20</ele>
<time>2015-05-02T12:23:51Z</time>
</trkpt>
<trkpt lat="34.9576102" lon="33.5860007">
<ele>67.06</ele>
<time>2015-05-02T12:23:53Z</time>
</trkpt>
<trkpt lat="34.9575677" lon="33.5860244">
<ele>67.04</ele>
<time>2015-05-02T12:23:54Z</time>
</trkpt>
<trkpt lat="34.9574940" lon="33.5860682">
<ele>66.27</ele>
<time>2015-05-02T12:23:56Z</time>
</trkpt>
<trkpt lat="34.9574425" lon="33.5860980">
<ele>65.64</ele>
<time>2015-05-02T12:23:57Z</time>
</trkpt>
<trkpt lat="34.9573575" lon="33.5861397">
<ele>65.67</ele>
<time>2015-05-02T12:23:59Z</time>
</trkpt>
<trkpt lat="34.9572882" lon="33.5861779">
<ele>65.18</ele>
<time>2015-05-02T12:24:01Z</time>
</trkpt>
<trkpt lat="34.9572135" lon="33.5862124">
<ele>65.56</ele>
<time>2015-05-02T12:24:03Z</time>
</trkpt>
<trkpt lat="34.9571682" lon="33.5862385">
<ele>65.79</ele>
<time>2015-05-02T12:24:04Z</time>
</trkpt>
<trkpt lat="34.9571016" lon="33.5862747">
<ele>65.46</ele>
<time>2015-05-02T12:24:06Z</time>
</trkpt>
<trkpt lat="34.9570348" lon="33.5863112">
<ele>64.88</ele>
<time>2015-05-02T12:24:08Z</time>
</trkpt>
<trkpt lat="34.9569514" lon="33.5863418">
<ele>66.23</ele>
<time>2015-05-02T12:24:10Z</time>
</trkpt>
<trkpt lat="34.9568722" lon="33.5863823">
<ele>66.82</ele>
<time>2015-05-02T12:24:12Z</time>
</trkpt>
<trkpt lat="34.9567824" lon="33.5864224">
<ele>66.97</ele>
<time>2015-05-02T12:24:14Z</time>
</trkpt>
<trkpt lat="34.9567324" lon="33.5864558">
<ele>66.49</ele>
<time>2015-05-02T12:24:15Z</time>
</trkpt>
<trkpt lat="34.9566832" lon="33.5864684">
<ele>65.75</ele>
<time>2015-05-02T12:24:16Z</time>
</trkpt>
<trkpt lat="34.9566379" lon="33.5864954">
<ele>65.38</ele>
<time>2015-05-02T12:24:17Z</time>
</trkpt>
<trkpt lat="34.9565829" lon="33.5865273">
<ele>64.70</ele>
<time>2015-05-02T12:24:18Z</time>
</trkpt>
<trkpt lat="34.9565304" lon="33.5865518">
<ele>64.36</ele>
<time>2015-05-02T12:24:19Z</time>
</trkpt>
<trkpt lat="34.9564751" lon="33.5865706">
<ele>63.69</ele>
<time>2015-05-02T12:24:20Z</time>
</trkpt>
<trkpt lat="34.9564190" lon="33.5866034">
<ele>63.85</ele>
<time>2015-05-02T12:24:21Z</time>
</trkpt>
<trkpt lat="34.9563767" lon="33.5866279">
<ele>63.93</ele>
<time>2015-05-02T12:24:22Z</time>
</trkpt>
<trkpt lat="34.9563222" lon="33.5866622">
<ele>63.97</ele>
<time>2015-05-02T12:24:23Z</time>
</trkpt>
<trkpt lat="34.9562737" lon="33.5866917">
<ele>64.00</ele>
<time>2015-05-02T12:24:24Z</time>
</trkpt>
<trkpt lat="34.9562205" lon="33.5867260">
<ele>63.51</ele>
<time>2015-05-02T12:24:25Z</time>
</trkpt>
<trkpt lat="34.9561728" lon="33.5867524">
<ele>63.76</ele>
<time>2015-05-02T12:24:26Z</time>
</trkpt>
<trkpt lat="34.9561307" lon="33.5867841">
<ele>63.89</ele>
<time>2015-05-02T12:24:27Z</time>
</trkpt>
<trkpt lat="34.9560862" lon="33.5868223">
<ele>63.45</ele>
<time>2015-05-02T12:24:28Z</time>
</trkpt>
<trkpt lat="34.9560451" lon="33.5868446">
<ele>63.23</ele>
<time>2015-05-02T12:24:29Z</time>
</trkpt>
<trkpt lat="34.9559615" lon="33.5868940">
<ele>63.82</ele>
<time>2015-05-02T12:24:31Z</time>
</trkpt>
<trkpt lat="34.9559140" lon="33.5869297">
<ele>63.42</ele>
<time>2015-05-02T12:24:32Z</time>
</trkpt>
<trkpt lat="34.9558780" lon="33.5869701">
<ele>63.72</ele>
<time>2015-05-02T12:24:33Z</time>
</trkpt>
<trkpt lat="34.9558392" lon="33.5870101">
<ele>63.37</ele>
<time>2015-05-02T12:24:34Z</time>
</trkpt>
<trkpt lat="34.9557966" lon="33.5870454">
<ele>63.19</ele>
<time>2015-05-02T12:24:35Z</time>
</trkpt>
<trkpt lat="34.9557497" lon="33.5870854">
<ele>63.60</ele>
<time>2015-05-02T12:24:36Z</time>
</trkpt>
<trkpt lat="34.9557053" lon="33.5871242">
<ele>63.81</ele>
<time>2015-05-02T12:24:37Z</time>
</trkpt>
<trkpt lat="34.9556609" lon="33.5871636">
<ele>63.41</ele>
<time>2015-05-02T12:24:38Z</time>
</trkpt>
<trkpt lat="34.9556134" lon="33.5872018">
<ele>63.21</ele>
<time>2015-05-02T12:24:39Z</time>
</trkpt>
<trkpt lat="34.9555711" lon="33.5872377">
<ele>62.62</ele>
<time>2015-05-02T12:24:40Z</time>
</trkpt>
<trkpt lat="34.9555023" lon="33.5873114">
<ele>62.17</ele>
<time>2015-05-02T12:24:42Z</time>
</trkpt>
<trkpt lat="34.9554399" lon="33.5873822">
<ele>60.80</ele>
<time>2015-05-02T12:24:44Z</time>
</trkpt>
<trkpt lat="34.9553740" lon="33.5874415">
<ele>60.46</ele>
<time>2015-05-02T12:24:46Z</time>
</trkpt>
<trkpt lat="34.9553394" lon="33.5874898">
<ele>59.74</ele>
<time>2015-05-02T12:24:47Z</time>
</trkpt>
<trkpt lat="34.9552888" lon="33.5875388">
<ele>59.38</ele>
<time>2015-05-02T12:24:48Z</time>
</trkpt>
<trkpt lat="34.9552439" lon="33.5875872">
<ele>60.20</ele>
<time>2015-05-02T12:24:49Z</time>
</trkpt>
<trkpt lat="34.9552080" lon="33.5876421">
<ele>60.61</ele>
<time>2015-05-02T12:24:50Z</time>
</trkpt>
<trkpt lat="34.9551742" lon="33.5876972">
<ele>60.81</ele>
<time>2015-05-02T12:24:51Z</time>
</trkpt>
<trkpt lat="34.9551276" lon="33.5877558">
<ele>60.91</ele>
<time>2015-05-02T12:24:52Z</time>
</trkpt>
<trkpt lat="34.9550895" lon="33.5878124">
<ele>60.96</ele>
<time>2015-05-02T12:24:53Z</time>
</trkpt>
<trkpt lat="34.9550477" lon="33.5878608">
<ele>60.99</ele>
<time>2015-05-02T12:24:54Z</time>
</trkpt>
<trkpt lat="34.9550097" lon="33.5879042">
<ele>61.00</ele>
<time>2015-05-02T12:24:55Z</time>
</trkpt>
<trkpt lat="34.9549689" lon="33.5879491">
<ele>61.01</ele>
<time>2015-05-02T12:24:56Z</time>
</trkpt>
<trkpt lat="34.9549257" lon="33.5879852">
<ele>60.51</ele>
<time>2015-05-02T12:24:57Z</time>
</trkpt>
<trkpt lat="34.9548852" lon="33.5880224">
<ele>60.26</ele>
<time>2015-05-02T12:24:58Z</time>
</trkpt>
<trkpt lat="34.9548167" lon="33.5880883">
<ele>60.08</ele>
<time>2015-05-02T12:25:00Z</time>
</trkpt>
<trkpt lat="34.9547578" lon="33.5881561">
<ele>60.78</ele>
<time>2015-05-02T12:25:02Z</time>
</trkpt>
<trkpt lat="34.9547099" lon="33.5882217">
<ele>60.96</ele>
<time>2015-05-02T12:25:04Z</time>
</trkpt>
<trkpt lat="34.9546706" lon="33.5882572">
<ele>60.13</ele>
<time>2015-05-02T12:25:07Z</time>
</trkpt>
<trkpt lat="34.9546019" lon="33.5882806">
<ele>60.66</ele>
<time>2015-05-02T12:25:10Z</time>
</trkpt>
<trkpt lat="34.9545484" lon="33.5883177">
<ele>60.93</ele>
<time>2015-05-02T12:25:12Z</time>
</trkpt>
<trkpt lat="34.9544997" lon="33.5883631">
<ele>59.49</ele>
<time>2015-05-02T12:25:14Z</time>
</trkpt>
<trkpt lat="34.9544506" lon="33.5884046">
<ele>58.64</ele>
<time>2015-05-02T12:25:16Z</time>
</trkpt>
<trkpt lat="34.9543953" lon="33.5884371">
<ele>57.67</ele>
<time>2015-05-02T12:25:18Z</time>
</trkpt>
<trkpt lat="34.9543407" lon="33.5884726">
<ele>57.68</ele>
<time>2015-05-02T12:25:20Z</time>
</trkpt>
<trkpt lat="34.9542918" lon="33.5885133">
<ele>57.93</ele>
<time>2015-05-02T12:25:22Z</time>
</trkpt>
<trkpt lat="34.9542429" lon="33.5885443">
<ele>57.24</ele>
<time>2015-05-02T12:25:24Z</time>
</trkpt>
<trkpt lat="34.9541903" lon="33.5885661">
<ele>58.57</ele>
<time>2015-05-02T12:25:26Z</time>
</trkpt>
<trkpt lat="34.9541442" lon="33.5885976">
<ele>59.41</ele>
<time>2015-05-02T12:25:28Z</time>
</trkpt>
<trkpt lat="34.9541071" lon="33.5886337">
<ele>58.86</ele>
<time>2015-05-02T12:25:30Z</time>
</trkpt>
<trkpt lat="34.9540628" lon="33.5886623">
<ele>58.98</ele>
<time>2015-05-02T12:25:32Z</time>
</trkpt>
<trkpt lat="34.9540095" lon="33.5887099">
<ele>61.76</ele>
<time>2015-05-02T12:25:35Z</time>
</trkpt>
<trkpt lat="34.9539735" lon="33.5887505">
<ele>62.70</ele>
<time>2015-05-02T12:25:37Z</time>
</trkpt>
<trkpt lat="34.9539467" lon="33.5888271">
<ele>64.23</ele>
<time>2015-05-02T12:25:40Z</time>
</trkpt>
<trkpt lat="34.9539360" lon="33.5888872">
<ele>65.32</ele>
<time>2015-05-02T12:25:42Z</time>
</trkpt>
<trkpt lat="34.9539291" lon="33.5889478">
<ele>65.84</ele>
<time>2015-05-02T12:25:44Z</time>
</trkpt>
<trkpt lat="34.9539265" lon="33.5890060">
<ele>65.99</ele>
<time>2015-05-02T12:25:47Z</time>
</trkpt>
<trkpt lat="34.9538981" lon="33.5890720">
<ele>66.51</ele>
<time>2015-05-02T12:25:50Z</time>
</trkpt>
<trkpt lat="34.9538739" lon="33.5891208">
<ele>65.89</ele>
<time>2015-05-02T12:25:52Z</time>
</trkpt>
<trkpt lat="34.9538488" lon="33.5891681">
<ele>66.23</ele>
<time>2015-05-02T12:25:54Z</time>
</trkpt>
<trkpt lat="34.9538217" lon="33.5892152">
<ele>68.07</ele>
<time>2015-05-02T12:25:56Z</time>
</trkpt>
<trkpt lat="34.9537943" lon="33.5892622">
<ele>68.28</ele>
<time>2015-05-02T12:25:58Z</time>
</trkpt>
<trkpt lat="34.9537684" lon="33.5893153">
<ele>68.08</ele>
<time>2015-05-02T12:26:00Z</time>
</trkpt>
<trkpt lat="34.9537393" lon="33.5893695">
<ele>68.03</ele>
<time>2015-05-02T12:26:02Z</time>
</trkpt>
<trkpt lat="34.9537029" lon="33.5894106">
<ele>67.77</ele>
<time>2015-05-02T12:26:04Z</time>
</trkpt>
<trkpt lat="34.9536613" lon="33.5894664">
<ele>65.86</ele>
<time>2015-05-02T12:26:07Z</time>
</trkpt>
<trkpt lat="34.9536333" lon="33.5895346">
<ele>64.25</ele>
<time>2015-05-02T12:26:10Z</time>
</trkpt>
<trkpt lat="34.9535971" lon="33.5895890">
<ele>63.79</ele>
<time>2015-05-02T12:26:13Z</time>
</trkpt>
<trkpt lat="34.9535602" lon="33.5896215">
<ele>63.13</ele>
<time>2015-05-02T12:26:17Z</time>
</trkpt>
<trkpt lat="34.9535184" lon="33.5896656">
<ele>62.71</ele>
<time>2015-05-02T12:26:21Z</time>
</trkpt>
<trkpt lat="34.9534886" lon="33.5897254">
<ele>64.44</ele>
<time>2015-05-02T12:26:23Z</time>
</trkpt>
<trkpt lat="34.9534568" lon="33.5897937">
<ele>65.62</ele>
<time>2015-05-02T12:26:25Z</time>
</trkpt>
<trkpt lat="34.9534274" lon="33.5898639">
<ele>65.92</ele>
<time>2015-05-02T12:26:27Z</time>
</trkpt>
<trkpt lat="34.9533970" lon="33.5899255">
<ele>65.99</ele>
<time>2015-05-02T12:26:29Z</time>
</trkpt>
<trkpt lat="34.9533631" lon="33.5899817">
<ele>66.64</ele>
<time>2015-05-02T12:26:32Z</time>
</trkpt>
<trkpt lat="34.9533229" lon="33.5900120">
<ele>70.01</ele>
<time>2015-05-02T12:26:46Z</time>
</trkpt>
<trkpt lat="34.9532681" lon="33.5900572">
<ele>68.76</ele>
<time>2015-05-02T12:26:49Z</time>
</trkpt>
<trkpt lat="34.9532140" lon="33.5900945">
<ele>66.45</ele>
<time>2015-05-02T12:26:51Z</time>
</trkpt>
<trkpt lat="34.9531596" lon="33.5901198">
<ele>65.38</ele>
<time>2015-05-02T12:26:53Z</time>
</trkpt>
<trkpt lat="34.9531058" lon="33.5901410">
<ele>65.11</ele>
<time>2015-05-02T12:26:55Z</time>
</trkpt>
<trkpt lat="34.9530510" lon="33.5901515">
<ele>64.54</ele>
<time>2015-05-02T12:26:57Z</time>
</trkpt>
<trkpt lat="34.9530179" lon="33.5901112">
<ele>64.90</ele>
<time>2015-05-02T12:26:59Z</time>
</trkpt>
<trkpt lat="34.9530041" lon="33.5900570">
<ele>64.49</ele>
<time>2015-05-02T12:27:01Z</time>
</trkpt>
<trkpt lat="34.9529670" lon="33.5899918">
<ele>64.45</ele>
<time>2015-05-02T12:27:04Z</time>
</trkpt>
<trkpt lat="34.9529312" lon="33.5899223">
<ele>65.45</ele>
<time>2015-05-02T12:27:07Z</time>
</trkpt>
<trkpt lat="34.9529067" lon="33.5898716">
<ele>66.37</ele>
<time>2015-05-02T12:27:09Z</time>
</trkpt>
<trkpt lat="34.9528846" lon="33.5898220">
<ele>67.11</ele>
<time>2015-05-02T12:27:11Z</time>
</trkpt>
<trkpt lat="34.9528602" lon="33.5897713">
<ele>67.54</ele>
<time>2015-05-02T12:27:13Z</time>
</trkpt>
<trkpt lat="34.9528368" lon="33.5897196">
<ele>67.40</ele>
<time>2015-05-02T12:27:15Z</time>
</trkpt>
<trkpt lat="34.9528184" lon="33.5896605">
<ele>66.61</ele>
<time>2015-05-02T12:27:17Z</time>
</trkpt>
<trkpt lat="34.9527993" lon="33.5896081">
<ele>65.66</ele>
<time>2015-05-02T12:27:19Z</time>
</trkpt>
<trkpt lat="34.9527802" lon="33.5895565">
<ele>65.18</ele>
<time>2015-05-02T12:27:21Z</time>
</trkpt>
<trkpt lat="34.9527576" lon="33.5894920">
<ele>64.81</ele>
<time>2015-05-02T12:27:23Z</time>
</trkpt>
<trkpt lat="34.9527282" lon="33.5894367">
<ele>65.71</ele>
<time>2015-05-02T12:27:25Z</time>
</trkpt>
<trkpt lat="34.9526913" lon="33.5894010">
<ele>65.94</ele>
<time>2015-05-02T12:27:27Z</time>
</trkpt>
<trkpt lat="34.9526588" lon="33.5893314">
<ele>66.88</ele>
<time>2015-05-02T12:27:30Z</time>
</trkpt>
<trkpt lat="34.9526575" lon="33.5892674">
<ele>67.73</ele>
<time>2015-05-02T12:27:32Z</time>
</trkpt>
<trkpt lat="34.9526582" lon="33.5892026">
<ele>66.70</ele>
<time>2015-05-02T12:27:34Z</time>
</trkpt>
<trkpt lat="34.9526540" lon="33.5891393">
<ele>65.69</ele>
<time>2015-05-02T12:27:36Z</time>
</trkpt>
<trkpt lat="34.9526514" lon="33.5890824">
<ele>65.18</ele>
<time>2015-05-02T12:27:38Z</time>
</trkpt>
<trkpt lat="34.9526461" lon="33.5890219">
<ele>65.06</ele>
<time>2015-05-02T12:27:40Z</time>
</trkpt>
<trkpt lat="34.9526445" lon="33.5889648">
<ele>65.53</ele>
<time>2015-05-02T12:27:42Z</time>
</trkpt>
<trkpt lat="34.9526308" lon="33.5888944">
<ele>66.39</ele>
<time>2015-05-02T12:27:44Z</time>
</trkpt>
<trkpt lat="34.9526216" lon="33.5888182">
<ele>66.61</ele>
<time>2015-05-02T12:27:46Z</time>
</trkpt>
<trkpt lat="34.9526150" lon="33.5887233">
<ele>68.41</ele>
<time>2015-05-02T12:27:48Z</time>
</trkpt>
<trkpt lat="34.9526034" lon="33.5886260">
<ele>69.62</ele>
<time>2015-05-02T12:27:50Z</time>
</trkpt>
<trkpt lat="34.9525920" lon="33.5885286">
<ele>69.42</ele>
<time>2015-05-02T12:27:52Z</time>
</trkpt>
<trkpt lat="34.9525854" lon="33.5884324">
<ele>69.62</ele>
<time>2015-05-02T12:27:54Z</time>
</trkpt>
<trkpt lat="34.9525703" lon="33.5883332">
<ele>69.17</ele>
<time>2015-05-02T12:27:56Z</time>
</trkpt>
<trkpt lat="34.9525439" lon="33.5882359">
<ele>67.05</ele>
<time>2015-05-02T12:27:58Z</time>
</trkpt>
<trkpt lat="34.9525220" lon="33.5881364">
<ele>65.53</ele>
<time>2015-05-02T12:28:00Z</time>
</trkpt>
<trkpt lat="34.9525066" lon="33.5880476">
<ele>64.39</ele>
<time>2015-05-02T12:28:02Z</time>
</trkpt>
<trkpt lat="34.9525036" lon="33.5879592">
<ele>64.11</ele>
<time>2015-05-02T12:28:04Z</time>
</trkpt>
<trkpt lat="34.9524959" lon="33.5878670">
<ele>64.79</ele>
<time>2015-05-02T12:28:06Z</time>
</trkpt>
<trkpt lat="34.9524774" lon="33.5877748">
<ele>64.96</ele>
<time>2015-05-02T12:28:08Z</time>
</trkpt>
<trkpt lat="34.9524596" lon="33.5876775">
<ele>64.75</ele>
<time>2015-05-02T12:28:10Z</time>
</trkpt>
<trkpt lat="34.9524446" lon="33.5875961">
<ele>64.38</ele>
<time>2015-05-02T12:28:11Z</time>
</trkpt>
<trkpt lat="34.9524316" lon="33.5875292">
<ele>64.20</ele>
<time>2015-05-02T12:28:12Z</time>
</trkpt>
<trkpt lat="34.9524220" lon="33.5874667">
<ele>64.11</ele>
<time>2015-05-02T12:28:13Z</time>
</trkpt>
<trkpt lat="34.9524245" lon="33.5874056">
<ele>64.56</ele>
<time>2015-05-02T12:28:14Z</time>
</trkpt>
<trkpt lat="34.9524108" lon="33.5873440">
<ele>64.29</ele>
<time>2015-05-02T12:28:15Z</time>
</trkpt>
<trkpt lat="34.9524033" lon="33.5872817">
<ele>64.15</ele>
<time>2015-05-02T12:28:16Z</time>
</trkpt>
<trkpt lat="34.9524034" lon="33.5872176">
<ele>64.58</ele>
<time>2015-05-02T12:28:17Z</time>
</trkpt>
<trkpt lat="34.9523981" lon="33.5871556">
<ele>64.80</ele>
<time>2015-05-02T12:28:18Z</time>
</trkpt>
<trkpt lat="34.9523955" lon="33.5871002">
<ele>64.91</ele>
<time>2015-05-02T12:28:19Z</time>
</trkpt>
<trkpt lat="34.9523927" lon="33.5870422">
<ele>64.46</ele>
<time>2015-05-02T12:28:20Z</time>
</trkpt>
<trkpt lat="34.9523812" lon="33.5869372">
<ele>64.13</ele>
<time>2015-05-02T12:28:22Z</time>
</trkpt>
<trkpt lat="34.9523866" lon="33.5868738">
<ele>64.57</ele>
<time>2015-05-02T12:28:23Z</time>
</trkpt>
<trkpt lat="34.9523894" lon="33.5868178">
<ele>64.29</ele>
<time>2015-05-02T12:28:24Z</time>
</trkpt>
<trkpt lat="34.9523845" lon="33.5867616">
<ele>64.65</ele>
<time>2015-05-02T12:28:25Z</time>
</trkpt>
<trkpt lat="34.9523784" lon="33.5867037">
<ele>64.84</ele>
<time>2015-05-02T12:28:26Z</time>
</trkpt>
<trkpt lat="34.9523716" lon="33.5866462">
<ele>64.93</ele>
<time>2015-05-02T12:28:27Z</time>
</trkpt>
<trkpt lat="34.9523631" lon="33.5865828">
<ele>65.47</ele>
<time>2015-05-02T12:28:28Z</time>
</trkpt>
<trkpt lat="34.9523639" lon="33.5865216">
<ele>65.74</ele>
<time>2015-05-02T12:28:29Z</time>
</trkpt>
<trkpt lat="34.9523582" lon="33.5864097">
<ele>66.20</ele>
<time>2015-05-02T12:28:31Z</time>
</trkpt>
<trkpt lat="34.9523524" lon="33.5863087">
<ele>66.31</ele>
<time>2015-05-02T12:28:33Z</time>
</trkpt>
<trkpt lat="34.9523485" lon="33.5862096">
<ele>66.09</ele>
<time>2015-05-02T12:28:35Z</time>
</trkpt>
<trkpt lat="34.9523435" lon="33.5860951">
<ele>66.53</ele>
<time>2015-05-02T12:28:37Z</time>
</trkpt>
<trkpt lat="34.9523339" lon="33.5860057">
<ele>67.15</ele>
<time>2015-05-02T12:28:39Z</time>
</trkpt>
<trkpt lat="34.9523357" lon="33.5859089">
<ele>67.05</ele>
<time>2015-05-02T12:28:41Z</time>
</trkpt>
<trkpt lat="34.9523275" lon="33.5858096">
<ele>67.77</ele>
<time>2015-05-02T12:28:43Z</time>
</trkpt>
<trkpt lat="34.9523250" lon="33.5857484">
<ele>68.40</ele>
<time>2015-05-02T12:28:44Z</time>
</trkpt>
<trkpt lat="34.9523136" lon="33.5856814">
<ele>68.71</ele>
<time>2015-05-02T12:28:45Z</time>
</trkpt>
<trkpt lat="34.9522975" lon="33.5856278">
<ele>68.36</ele>
<time>2015-05-02T12:28:46Z</time>
</trkpt>
<trkpt lat="34.9522786" lon="33.5855751">
<ele>69.19</ele>
<time>2015-05-02T12:28:47Z</time>
</trkpt>
<trkpt lat="34.9522572" lon="33.5855200">
<ele>69.60</ele>
<time>2015-05-02T12:28:48Z</time>
</trkpt>
<trkpt lat="34.9522258" lon="33.5854077">
<ele>69.16</ele>
<time>2015-05-02T12:28:50Z</time>
</trkpt>
<trkpt lat="34.9522052" lon="33.5853544">
<ele>69.09</ele>
<time>2015-05-02T12:28:51Z</time>
</trkpt>
<trkpt lat="34.9521790" lon="33.5852595">
<ele>69.78</ele>
<time>2015-05-02T12:28:53Z</time>
</trkpt>
<trkpt lat="34.9521394" lon="33.5851790">
<ele>69.21</ele>
<time>2015-05-02T12:28:55Z</time>
</trkpt>
<trkpt lat="34.9520999" lon="33.5850920">
<ele>69.81</ele>
<time>2015-05-02T12:28:57Z</time>
</trkpt>
<trkpt lat="34.9520814" lon="33.5850044">
<ele>69.97</ele>
<time>2015-05-02T12:28:59Z</time>
</trkpt>
<trkpt lat="34.9520668" lon="33.5849196">
<ele>70.75</ele>
<time>2015-05-02T12:29:01Z</time>
</trkpt>
<trkpt lat="34.9520525" lon="33.5848567">
<ele>68.70</ele>
<time>2015-05-02T12:29:03Z</time>
</trkpt>
<trkpt lat="34.9520382" lon="33.5847864">
<ele>68.94</ele>
<time>2015-05-02T12:29:05Z</time>
</trkpt>
<trkpt lat="34.9520191" lon="33.5847177">
<ele>68.50</ele>
<time>2015-05-02T12:29:07Z</time>
</trkpt>
<trkpt lat="34.9519982" lon="33.5846373">
<ele>67.64</ele>
<time>2015-05-02T12:29:09Z</time>
</trkpt>
<trkpt lat="34.9519824" lon="33.5844954">
<ele>67.92</ele>
<time>2015-05-02T12:29:11Z</time>
</trkpt>
<trkpt lat="34.9519713" lon="33.5844388">
<ele>68.47</ele>
<time>2015-05-02T12:29:12Z</time>
</trkpt>
<trkpt lat="34.9519583" lon="33.5843426">
<ele>68.13</ele>
<time>2015-05-02T12:29:14Z</time>
</trkpt>
<trkpt lat="34.9519482" lon="33.5842632">
<ele>69.54</ele>
<time>2015-05-02T12:29:16Z</time>
</trkpt>
<trkpt lat="34.9519276" lon="33.5841733">
<ele>70.15</ele>
<time>2015-05-02T12:29:18Z</time>
</trkpt>
<trkpt lat="34.9519240" lon="33.5840782">
<ele>70.55</ele>
<time>2015-05-02T12:29:20Z</time>
</trkpt>
<trkpt lat="34.9519016" lon="33.5839845">
<ele>70.90</ele>
<time>2015-05-02T12:29:22Z</time>
</trkpt>
<trkpt lat="34.9518841" lon="33.5838846">
<ele>70.24</ele>
<time>2015-05-02T12:29:24Z</time>
</trkpt>
<trkpt lat="34.9518680" lon="33.5837795">
<ele>70.07</ele>
<time>2015-05-02T12:29:26Z</time>
</trkpt>
<trkpt lat="34.9518454" lon="33.5836804">
<ele>70.53</ele>
<time>2015-05-02T12:29:28Z</time>
</trkpt>
<trkpt lat="34.9518202" lon="33.5835859">
<ele>70.89</ele>
<time>2015-05-02T12:29:30Z</time>
</trkpt>
<trkpt lat="34.9517980" lon="33.5834928">
<ele>71.49</ele>
<time>2015-05-02T12:29:32Z</time>
</trkpt>
<trkpt lat="34.9517715" lon="33.5833987">
<ele>71.63</ele>
<time>2015-05-02T12:29:34Z</time>
</trkpt>
<trkpt lat="34.9517474" lon="33.5832979">
<ele>72.67</ele>
<time>2015-05-02T12:29:36Z</time>
</trkpt>
<trkpt lat="34.9517294" lon="33.5831921">
<ele>73.43</ele>
<time>2015-05-02T12:29:38Z</time>
</trkpt>
<trkpt lat="34.9517095" lon="33.5830942">
<ele>75.37</ele>
<time>2015-05-02T12:29:40Z</time>
</trkpt>
<trkpt lat="34.9516913" lon="33.5830007">
<ele>75.85</ele>
<time>2015-05-02T12:29:42Z</time>
</trkpt>
<trkpt lat="34.9516672" lon="33.5829070">
<ele>74.48</ele>
<time>2015-05-02T12:29:44Z</time>
</trkpt>
<trkpt lat="34.9516387" lon="33.5828093">
<ele>73.63</ele>
<time>2015-05-02T12:29:46Z</time>
</trkpt>
<trkpt lat="34.9516076" lon="33.5827130">
<ele>73.92</ele>
<time>2015-05-02T12:29:48Z</time>
</trkpt>
<trkpt lat="34.9515826" lon="33.5826200">
<ele>73.49</ele>
<time>2015-05-02T12:29:50Z</time>
</trkpt>
<trkpt lat="34.9515667" lon="33.5825289">
<ele>73.88</ele>
<time>2015-05-02T12:29:52Z</time>
</trkpt>
<trkpt lat="34.9515486" lon="33.5824402">
<ele>74.23</ele>
<time>2015-05-02T12:29:54Z</time>
</trkpt>
<trkpt lat="34.9515253" lon="33.5823498">
<ele>74.07</ele>
<time>2015-05-02T12:29:56Z</time>
</trkpt>
<trkpt lat="34.9515042" lon="33.5822532">
<ele>73.28</ele>
<time>2015-05-02T12:29:58Z</time>
</trkpt>
<trkpt lat="34.9514722" lon="33.5821312">
<ele>73.08</ele>
<time>2015-05-02T12:30:00Z</time>
</trkpt>
<trkpt lat="34.9514493" lon="33.5820381">
<ele>72.78</ele>
<time>2015-05-02T12:30:02Z</time>
</trkpt>
<trkpt lat="34.9514320" lon="33.5819502">
<ele>72.46</ele>
<time>2015-05-02T12:30:04Z</time>
</trkpt>
<trkpt lat="34.9514193" lon="33.5818549">
<ele>70.88</ele>
<time>2015-05-02T12:30:06Z</time>
</trkpt>
<trkpt lat="34.9513993" lon="33.5817579">
<ele>70.98</ele>
<time>2015-05-02T12:30:08Z</time>
</trkpt>
<trkpt lat="34.9513780" lon="33.5816487">
<ele>71.01</ele>
<time>2015-05-02T12:30:10Z</time>
</trkpt>
<trkpt lat="34.9513661" lon="33.5815906">
<ele>71.01</ele>
<time>2015-05-02T12:30:11Z</time>
</trkpt>
<trkpt lat="34.9513493" lon="33.5815282">
<ele>71.01</ele>
<time>2015-05-02T12:30:12Z</time>
</trkpt>
<trkpt lat="34.9513464" lon="33.5814602">
<ele>71.51</ele>
<time>2015-05-02T12:30:13Z</time>
</trkpt>
<trkpt lat="34.9513511" lon="33.5813965">
<ele>72.77</ele>
<time>2015-05-02T12:30:14Z</time>
</trkpt>
<trkpt lat="34.9513333" lon="33.5812970">
<ele>74.20</ele>
<time>2015-05-02T12:30:16Z</time>
</trkpt>
<trkpt lat="34.9513013" lon="33.5812091">
<ele>74.31</ele>
<time>2015-05-02T12:30:18Z</time>
</trkpt>
<trkpt lat="34.9512782" lon="33.5811055">
<ele>74.09</ele>
<time>2015-05-02T12:30:20Z</time>
</trkpt>
<trkpt lat="34.9512692" lon="33.5810487">
<ele>74.05</ele>
<time>2015-05-02T12:30:21Z</time>
</trkpt>
<trkpt lat="34.9512572" lon="33.5809918">
<ele>74.03</ele>
<time>2015-05-02T12:30:22Z</time>
</trkpt>
<trkpt lat="34.9512430" lon="33.5809351">
<ele>74.53</ele>
<time>2015-05-02T12:30:23Z</time>
</trkpt>
<trkpt lat="34.9512320" lon="33.5808371">
<ele>74.14</ele>
<time>2015-05-02T12:30:25Z</time>
</trkpt>
<trkpt lat="34.9512115" lon="33.5807412">
<ele>74.05</ele>
<time>2015-05-02T12:30:27Z</time>
</trkpt>
<trkpt lat="34.9511901" lon="33.5806337">
<ele>74.02</ele>
<time>2015-05-02T12:30:29Z</time>
</trkpt>
<trkpt lat="34.9511826" lon="33.5805600">
<ele>74.02</ele>
<time>2015-05-02T12:30:30Z</time>
</trkpt>
<trkpt lat="34.9511750" lon="33.5805049">
<ele>74.02</ele>
<time>2015-05-02T12:30:31Z</time>
</trkpt>
<trkpt lat="34.9511587" lon="33.5804473">
<ele>74.02</ele>
<time>2015-05-02T12:30:32Z</time>
</trkpt>
<trkpt lat="34.9511398" lon="33.5803807">
<ele>74.02</ele>
<time>2015-05-02T12:30:33Z</time>
</trkpt>
<trkpt lat="34.9511155" lon="33.5802710">
<ele>74.52</ele>
<time>2015-05-02T12:30:35Z</time>
</trkpt>
<trkpt lat="34.9510866" lon="33.5801772">
<ele>76.14</ele>
<time>2015-05-02T12:30:37Z</time>
</trkpt>
<trkpt lat="34.9510701" lon="33.5800886">
<ele>76.80</ele>
<time>2015-05-02T12:30:39Z</time>
</trkpt>
<trkpt lat="34.9510521" lon="33.5799984">
<ele>77.71</ele>
<time>2015-05-02T12:30:41Z</time>
</trkpt>
<trkpt lat="34.9510311" lon="33.5799036">
<ele>78.44</ele>
<time>2015-05-02T12:30:43Z</time>
</trkpt>
<trkpt lat="34.9510030" lon="33.5798040">
<ele>78.12</ele>
<time>2015-05-02T12:30:45Z</time>
</trkpt>
<trkpt lat="34.9509726" lon="33.5797118">
<ele>77.54</ele>
<time>2015-05-02T12:30:47Z</time>
</trkpt>
<trkpt lat="34.9509491" lon="33.5796164">
<ele>78.15</ele>
<time>2015-05-02T12:30:49Z</time>
</trkpt>
<trkpt lat="34.9509229" lon="33.5795222">
<ele>78.55</ele>
<time>2015-05-02T12:30:51Z</time>
</trkpt>
<trkpt lat="34.9508880" lon="33.5794295">
<ele>79.40</ele>
<time>2015-05-02T12:30:53Z</time>
</trkpt>
<trkpt lat="34.9508519" lon="33.5793378">
<ele>79.36</ele>
<time>2015-05-02T12:30:55Z</time>
</trkpt>
<trkpt lat="34.9508047" lon="33.5792384">
<ele>80.35</ele>
<time>2015-05-02T12:30:57Z</time>
</trkpt>
<trkpt lat="34.9507668" lon="33.5791610">
<ele>80.85</ele>
<time>2015-05-02T12:30:59Z</time>
</trkpt>
<trkpt lat="34.9507292" lon="33.5790822">
<ele>82.47</ele>
<time>2015-05-02T12:31:01Z</time>
</trkpt>
<trkpt lat="34.9507161" lon="33.5790079">
<ele>82.38</ele>
<time>2015-05-02T12:31:03Z</time>
</trkpt>
<trkpt lat="34.9506988" lon="33.5789569">
<ele>81.70</ele>
<time>2015-05-02T12:31:04Z</time>
</trkpt>
<trkpt lat="34.9506559" lon="33.5788634">
<ele>81.19</ele>
<time>2015-05-02T12:31:06Z</time>
</trkpt>
<trkpt lat="34.9506124" lon="33.5787794">
<ele>82.56</ele>
<time>2015-05-02T12:31:08Z</time>
</trkpt>
<trkpt lat="34.9505753" lon="33.5787059">
<ele>82.90</ele>
<time>2015-05-02T12:31:10Z</time>
</trkpt>
<trkpt lat="34.9505382" lon="33.5786330">
<ele>82.99</ele>
<time>2015-05-02T12:31:12Z</time>
</trkpt>
<trkpt lat="34.9504988" lon="33.5785567">
<ele>82.51</ele>
<time>2015-05-02T12:31:14Z</time>
</trkpt>
<trkpt lat="34.9504586" lon="33.5784826">
<ele>82.64</ele>
<time>2015-05-02T12:31:16Z</time>
</trkpt>
<trkpt lat="34.9504181" lon="33.5784102">
<ele>82.92</ele>
<time>2015-05-02T12:31:18Z</time>
</trkpt>
<trkpt lat="34.9503779" lon="33.5783417">
<ele>82.99</ele>
<time>2015-05-02T12:31:20Z</time>
</trkpt>
<trkpt lat="34.9503296" lon="33.5782799">
<ele>83.01</ele>
<time>2015-05-02T12:31:22Z</time>
</trkpt>
<trkpt lat="34.9502883" lon="33.5782062">
<ele>82.51</ele>
<time>2015-05-02T12:31:24Z</time>
</trkpt>
<trkpt lat="34.9502623" lon="33.5781210">
<ele>82.89</ele>
<time>2015-05-02T12:31:26Z</time>
</trkpt>
<trkpt lat="34.9502391" lon="33.5780372">
<ele>82.48</ele>
<time>2015-05-02T12:31:28Z</time>
</trkpt>
<trkpt lat="34.9502155" lon="33.5779537">
<ele>81.63</ele>
<time>2015-05-02T12:31:30Z</time>
</trkpt>
<trkpt lat="34.9501955" lon="33.5778638">
<ele>81.17</ele>
<time>2015-05-02T12:31:32Z</time>
</trkpt>
<trkpt lat="34.9501784" lon="33.5777659">
<ele>80.80</ele>
<time>2015-05-02T12:31:34Z</time>
</trkpt>
<trkpt lat="34.9501558" lon="33.5776289">
<ele>81.46</ele>
<time>2015-05-02T12:31:36Z</time>
</trkpt>
<trkpt lat="34.9501370" lon="33.5775324">
<ele>81.88</ele>
<time>2015-05-02T12:31:38Z</time>
</trkpt>
<trkpt lat="34.9501299" lon="33.5774395">
<ele>82.48</ele>
<time>2015-05-02T12:31:40Z</time>
</trkpt>
<trkpt lat="34.9501298" lon="33.5773826">
<ele>83.25</ele>
<time>2015-05-02T12:31:41Z</time>
</trkpt>
<trkpt lat="34.9501156" lon="33.5772764">
<ele>83.82</ele>
<time>2015-05-02T12:31:43Z</time>
</trkpt>
<trkpt lat="34.9501058" lon="33.5772218">
<ele>83.42</ele>
<time>2015-05-02T12:31:44Z</time>
</trkpt>
<trkpt lat="34.9501001" lon="33.5771657">
<ele>83.22</ele>
<time>2015-05-02T12:31:45Z</time>
</trkpt>
<trkpt lat="34.9500878" lon="33.5770683">
<ele>83.57</ele>
<time>2015-05-02T12:31:47Z</time>
</trkpt>
<trkpt lat="34.9500758" lon="33.5769723">
<ele>83.90</ele>
<time>2015-05-02T12:31:49Z</time>
</trkpt>
<trkpt lat="34.9500587" lon="33.5768798">
<ele>82.74</ele>
<time>2015-05-02T12:31:51Z</time>
</trkpt>
<trkpt lat="34.9500576" lon="33.5768218">
<ele>82.88</ele>
<time>2015-05-02T12:31:52Z</time>
</trkpt>
<trkpt lat="34.9500381" lon="33.5767222">
<ele>81.73</ele>
<time>2015-05-02T12:31:54Z</time>
</trkpt>
<trkpt lat="34.9500087" lon="33.5766207">
<ele>81.44</ele>
<time>2015-05-02T12:31:56Z</time>
</trkpt>
<trkpt lat="34.9499961" lon="33.5765619">
<ele>81.23</ele>
<time>2015-05-02T12:31:57Z</time>
</trkpt>
<trkpt lat="34.9499855" lon="33.5764627">
<ele>80.57</ele>
<time>2015-05-02T12:31:59Z</time>
</trkpt>
<trkpt lat="34.9499691" lon="33.5763728">
<ele>80.40</ele>
<time>2015-05-02T12:32:01Z</time>
</trkpt>
<trkpt lat="34.9499644" lon="33.5762869">
<ele>78.86</ele>
<time>2015-05-02T12:32:03Z</time>
</trkpt>
<trkpt lat="34.9499569" lon="33.5762319">
<ele>78.94</ele>
<time>2015-05-02T12:32:04Z</time>
</trkpt>
<trkpt lat="34.9499453" lon="33.5761258">
<ele>79.75</ele>
<time>2015-05-02T12:32:06Z</time>
</trkpt>
<trkpt lat="34.9499477" lon="33.5760620">
<ele>79.88</ele>
<time>2015-05-02T12:32:07Z</time>
</trkpt>
<trkpt lat="34.9499423" lon="33.5759962">
<ele>80.45</ele>
<time>2015-05-02T12:32:08Z</time>
</trkpt>
<trkpt lat="34.9499291" lon="33.5759400">
<ele>80.73</ele>
<time>2015-05-02T12:32:09Z</time>
</trkpt>
<trkpt lat="34.9499252" lon="33.5758406">
<ele>81.70</ele>
<time>2015-05-02T12:32:11Z</time>
</trkpt>
<trkpt lat="34.9499244" lon="33.5757386">
<ele>81.69</ele>
<time>2015-05-02T12:32:13Z</time>
</trkpt>
<trkpt lat="34.9499072" lon="33.5756516">
<ele>81.68</ele>
<time>2015-05-02T12:32:15Z</time>
</trkpt>
<trkpt lat="34.9498895" lon="33.5755565">
<ele>81.68</ele>
<time>2015-05-02T12:32:17Z</time>
</trkpt>
<trkpt lat="34.9498793" lon="33.5754990">
<ele>81.35</ele>
<time>2015-05-02T12:32:18Z</time>
</trkpt>
<trkpt lat="34.9498813" lon="33.5753809">
<ele>81.60</ele>
<time>2015-05-02T12:32:20Z</time>
</trkpt>
<trkpt lat="34.9498510" lon="33.5752767">
<ele>81.91</ele>
<time>2015-05-02T12:32:22Z</time>
</trkpt>
<trkpt lat="34.9498344" lon="33.5752238">
<ele>81.46</ele>
<time>2015-05-02T12:32:23Z</time>
</trkpt>
<trkpt lat="34.9498106" lon="33.5751192">
<ele>80.63</ele>
<time>2015-05-02T12:32:25Z</time>
</trkpt>
<trkpt lat="34.9497912" lon="33.5750358">
<ele>79.67</ele>
<time>2015-05-02T12:32:27Z</time>
</trkpt>
<trkpt lat="34.9497776" lon="33.5749490">
<ele>79.93</ele>
<time>2015-05-02T12:32:29Z</time>
</trkpt>
<trkpt lat="34.9497693" lon="33.5748751">
<ele>81.24</ele>
<time>2015-05-02T12:32:31Z</time>
</trkpt>
<trkpt lat="34.9497533" lon="33.5748065">
<ele>81.82</ele>
<time>2015-05-02T12:32:33Z</time>
</trkpt>
<trkpt lat="34.9497371" lon="33.5747430">
<ele>81.47</ele>
<time>2015-05-02T12:32:35Z</time>
</trkpt>
<trkpt lat="34.9497018" lon="33.5746854">
<ele>81.88</ele>
<time>2015-05-02T12:32:37Z</time>
</trkpt>
<trkpt lat="34.9496491" lon="33.5746628">
<ele>81.98</ele>
<time>2015-05-02T12:32:39Z</time>
</trkpt>
<trkpt lat="34.9495976" lon="33.5746616">
<ele>82.01</ele>
<time>2015-05-02T12:32:41Z</time>
</trkpt>
<trkpt lat="34.9495478" lon="33.5746937">
<ele>82.01</ele>
<time>2015-05-02T12:32:43Z</time>
</trkpt>
<trkpt lat="34.9494900" lon="33.5747509">
<ele>82.02</ele>
<time>2015-05-02T12:32:45Z</time>
</trkpt>
<trkpt lat="34.9494346" lon="33.5748093">
<ele>82.02</ele>
<time>2015-05-02T12:32:46Z</time>
</trkpt>
<trkpt lat="34.9493979" lon="33.5748424">
<ele>82.52</ele>
<time>2015-05-02T12:32:47Z</time>
</trkpt>
<trkpt lat="34.9493255" lon="33.5748954">
<ele>81.64</ele>
<time>2015-05-02T12:32:49Z</time>
</trkpt>
<trkpt lat="34.9492628" lon="33.5749566">
<ele>81.42</ele>
<time>2015-05-02T12:32:51Z</time>
</trkpt>
<trkpt lat="34.9492062" lon="33.5750206">
<ele>80.37</ele>
<time>2015-05-02T12:32:53Z</time>
</trkpt>
<trkpt lat="34.9491458" lon="33.5750905">
<ele>80.35</ele>
<time>2015-05-02T12:32:55Z</time>
</trkpt>
<trkpt lat="34.9490863" lon="33.5751693">
<ele>80.10</ele>
<time>2015-05-02T12:32:57Z</time>
</trkpt>
<trkpt lat="34.9490507" lon="33.5752128">
<ele>79.56</ele>
<time>2015-05-02T12:32:58Z</time>
</trkpt>
<trkpt lat="34.9490070" lon="33.5752558">
<ele>79.79</ele>
<time>2015-05-02T12:32:59Z</time>
</trkpt>
<trkpt lat="34.9489691" lon="33.5753093">
<ele>79.90</ele>
<time>2015-05-02T12:33:00Z</time>
</trkpt>
<trkpt lat="34.9489405" lon="33.5753585">
<ele>78.96</ele>
<time>2015-05-02T12:33:01Z</time>
</trkpt>
<trkpt lat="34.9488965" lon="33.5754073">
<ele>78.49</ele>
<time>2015-05-02T12:33:02Z</time>
</trkpt>
<trkpt lat="34.9488236" lon="33.5754794">
<ele>78.63</ele>
<time>2015-05-02T12:33:04Z</time>
</trkpt>
<trkpt lat="34.9487884" lon="33.5755207">
<ele>78.82</ele>
<time>2015-05-02T12:33:05Z</time>
</trkpt>
<trkpt lat="34.9487430" lon="33.5755538">
<ele>78.92</ele>
<time>2015-05-02T12:33:06Z</time>
</trkpt>
<trkpt lat="34.9486730" lon="33.5756362">
<ele>78.99</ele>
<time>2015-05-02T12:33:08Z</time>
</trkpt>
<trkpt lat="34.9486373" lon="33.5756842">
<ele>79.50</ele>
<time>2015-05-02T12:33:09Z</time>
</trkpt>
<trkpt lat="34.9485989" lon="33.5757260">
<ele>79.76</ele>
<time>2015-05-02T12:33:10Z</time>
</trkpt>
<trkpt lat="34.9485685" lon="33.5757672">
<ele>79.89</ele>
<time>2015-05-02T12:33:11Z</time>
</trkpt>
<trkpt lat="34.9485373" lon="33.5758172">
<ele>79.95</ele>
<time>2015-05-02T12:33:12Z</time>
</trkpt>
<trkpt lat="34.9485083" lon="33.5758634">
<ele>79.98</ele>
<time>2015-05-02T12:33:13Z</time>
</trkpt>
<trkpt lat="34.9484775" lon="33.5759191">
<ele>80.00</ele>
<time>2015-05-02T12:33:14Z</time>
</trkpt>
<trkpt lat="34.9484420" lon="33.5759644">
<ele>80.01</ele>
<time>2015-05-02T12:33:15Z</time>
</trkpt>
<trkpt lat="34.9484027" lon="33.5760196">
<ele>79.51</ele>
<time>2015-05-02T12:33:16Z</time>
</trkpt>
<trkpt lat="34.9483658" lon="33.5760674">
<ele>79.76</ele>
<time>2015-05-02T12:33:17Z</time>
</trkpt>
<trkpt lat="34.9483216" lon="33.5761159">
<ele>79.89</ele>
<time>2015-05-02T12:33:18Z</time>
</trkpt>
<trkpt lat="34.9482855" lon="33.5761790">
<ele>79.45</ele>
<time>2015-05-02T12:33:19Z</time>
</trkpt>
<trkpt lat="34.9482413" lon="33.5762345">
<ele>79.23</ele>
<time>2015-05-02T12:33:20Z</time>
</trkpt>
<trkpt lat="34.9482034" lon="33.5762952">
<ele>79.13</ele>
<time>2015-05-02T12:33:21Z</time>
</trkpt>
<trkpt lat="34.9481702" lon="33.5763616">
<ele>79.07</ele>
<time>2015-05-02T12:33:22Z</time>
</trkpt>
<trkpt lat="34.9481359" lon="33.5764166">
<ele>79.04</ele>
<time>2015-05-02T12:33:23Z</time>
</trkpt>
<trkpt lat="34.9480933" lon="33.5764793">
<ele>79.03</ele>
<time>2015-05-02T12:33:24Z</time>
</trkpt>
<trkpt lat="34.9480552" lon="33.5765424">
<ele>78.52</ele>
<time>2015-05-02T12:33:25Z</time>
</trkpt>
<trkpt lat="34.9480201" lon="33.5766088">
<ele>78.27</ele>
<time>2015-05-02T12:33:26Z</time>
</trkpt>
<trkpt lat="34.9479851" lon="33.5766632">
<ele>78.14</ele>
<time>2015-05-02T12:33:27Z</time>
</trkpt>
<trkpt lat="34.9479430" lon="33.5767172">
<ele>78.08</ele>
<time>2015-05-02T12:33:28Z</time>
</trkpt>
<trkpt lat="34.9479003" lon="33.5767614">
<ele>78.05</ele>
<time>2015-05-02T12:33:29Z</time>
</trkpt>
<trkpt lat="34.9478518" lon="33.5768157">
<ele>78.03</ele>
<time>2015-05-02T12:33:30Z</time>
</trkpt>
<trkpt lat="34.9478157" lon="33.5768581">
<ele>77.52</ele>
<time>2015-05-02T12:33:31Z</time>
</trkpt>
<trkpt lat="34.9477703" lon="33.5769034">
<ele>77.27</ele>
<time>2015-05-02T12:33:32Z</time>
</trkpt>
<trkpt lat="34.9477346" lon="33.5769555">
<ele>76.64</ele>
<time>2015-05-02T12:33:33Z</time>
</trkpt>
<trkpt lat="34.9477037" lon="33.5770081">
<ele>76.33</ele>
<time>2015-05-02T12:33:34Z</time>
</trkpt>
<trkpt lat="34.9476608" lon="33.5770550">
<ele>76.17</ele>
<time>2015-05-02T12:33:35Z</time>
</trkpt>
<trkpt lat="34.9476157" lon="33.5771052">
<ele>76.09</ele>
<time>2015-05-02T12:33:36Z</time>
</trkpt>
<trkpt lat="34.9475853" lon="33.5771479">
<ele>76.06</ele>
<time>2015-05-02T12:33:37Z</time>
</trkpt>
<trkpt lat="34.9475318" lon="33.5772109">
<ele>75.28</ele>
<time>2015-05-02T12:33:39Z</time>
</trkpt>
<trkpt lat="34.9474887" lon="33.5772667">
<ele>74.83</ele>
<time>2015-05-02T12:33:41Z</time>
</trkpt>
<trkpt lat="34.9474438" lon="33.5772713">
<ele>76.20</ele>
<time>2015-05-02T12:33:46Z</time>
</trkpt>
<trkpt lat="34.9473927" lon="33.5772531">
<ele>77.31</ele>
<time>2015-05-02T12:33:48Z</time>
</trkpt>
<trkpt lat="34.9473277" lon="33.5772562">
<ele>78.34</ele>
<time>2015-05-02T12:33:50Z</time>
</trkpt>
<trkpt lat="34.9472708" lon="33.5772571">
<ele>78.18</ele>
<time>2015-05-02T12:33:53Z</time>
</trkpt>
<trkpt lat="34.9472207" lon="33.5772445">
<ele>76.98</ele>
<time>2015-05-02T12:34:24Z</time>
</trkpt>
<trkpt lat="34.9463406" lon="33.5768555">
<ele>77.02</ele>
<time>2015-05-02T12:43:10Z</time>
</trkpt>
<trkpt lat="34.9462964" lon="33.5769010">
<ele>77.77</ele>
<time>2015-05-02T12:43:12Z</time>
</trkpt>
<trkpt lat="34.9462294" lon="33.5768896">
<ele>76.45</ele>
<time>2015-05-02T12:43:15Z</time>
</trkpt>
<trkpt lat="34.9461706" lon="33.5768778">
<ele>74.70</ele>
<time>2015-05-02T12:43:18Z</time>
</trkpt>
<trkpt lat="34.9461212" lon="33.5768617">
<ele>72.35</ele>
<time>2015-05-02T12:43:23Z</time>
</trkpt>
<trkpt lat="34.9460774" lon="33.5768468">
<ele>72.79</ele>
<time>2015-05-02T12:43:27Z</time>
</trkpt>
<trkpt lat="34.9460184" lon="33.5768497">
<ele>71.94</ele>
<time>2015-05-02T12:43:31Z</time>
</trkpt>
<trkpt lat="34.9459646" lon="33.5768451">
<ele>71.50</ele>
<time>2015-05-02T12:43:33Z</time>
</trkpt>
<trkpt lat="34.9459131" lon="33.5768398">
<ele>71.89</ele>
<time>2015-05-02T12:43:35Z</time>
</trkpt>
<trkpt lat="34.9458657" lon="33.5768351">
<ele>71.23</ele>
<time>2015-05-02T12:43:37Z</time>
</trkpt>
<trkpt lat="34.9458163" lon="33.5768239">
<ele>71.82</ele>
<time>2015-05-02T12:43:39Z</time>
</trkpt>
<trkpt lat="34.9457662" lon="33.5768063">
<ele>72.72</ele>
<time>2015-05-02T12:43:41Z</time>
</trkpt>
<trkpt lat="34.9457186" lon="33.5767891">
<ele>73.19</ele>
<time>2015-05-02T12:43:43Z</time>
</trkpt>
<trkpt lat="34.9456490" lon="33.5767880">
<ele>72.54</ele>
<time>2015-05-02T12:43:46Z</time>
</trkpt>
<trkpt lat="34.9455795" lon="33.5767730">
<ele>72.08</ele>
<time>2015-05-02T12:43:49Z</time>
</trkpt>
<trkpt lat="34.9455296" lon="33.5767556">
<ele>72.03</ele>
<time>2015-05-02T12:43:51Z</time>
</trkpt>
<trkpt lat="34.9454737" lon="33.5767344">
<ele>72.27</ele>
<time>2015-05-02T12:43:53Z</time>
</trkpt>
<trkpt lat="34.9454192" lon="33.5767160">
<ele>72.08</ele>
<time>2015-05-02T12:43:55Z</time>
</trkpt>
<trkpt lat="34.9453644" lon="33.5767047">
<ele>71.78</ele>
<time>2015-05-02T12:43:57Z</time>
</trkpt>
<trkpt lat="34.9453138" lon="33.5766954">
<ele>72.46</ele>
<time>2015-05-02T12:43:59Z</time>
</trkpt>
<trkpt lat="34.9452665" lon="33.5766858">
<ele>72.63</ele>
<time>2015-05-02T12:44:01Z</time>
</trkpt>
<trkpt lat="34.9452202" lon="33.5766687">
<ele>72.92</ele>
<time>2015-05-02T12:44:03Z</time>
</trkpt>
<trkpt lat="34.9451722" lon="33.5766470">
<ele>73.01</ele>
<time>2015-05-02T12:44:07Z</time>
</trkpt>
<trkpt lat="34.9451255" lon="33.5766185">
<ele>71.77</ele>
<time>2015-05-02T12:44:11Z</time>
</trkpt>
<trkpt lat="34.9450740" lon="33.5766003">
<ele>72.31</ele>
<time>2015-05-02T12:44:15Z</time>
</trkpt>
<trkpt lat="34.9450272" lon="33.5765616">
<ele>72.97</ele>
<time>2015-05-02T12:44:19Z</time>
</trkpt>
<trkpt lat="34.9449882" lon="33.5765223">
<ele>72.26</ele>
<time>2015-05-02T12:44:23Z</time>
</trkpt>
<trkpt lat="34.9449412" lon="33.5764865">
<ele>72.34</ele>
<time>2015-05-02T12:44:28Z</time>
</trkpt>
<trkpt lat="34.9449058" lon="33.5764457">
<ele>72.79</ele>
<time>2015-05-02T12:44:32Z</time>
</trkpt>
<trkpt lat="34.9448847" lon="33.5763834">
<ele>73.00</ele>
<time>2015-05-02T12:44:36Z</time>
</trkpt>
<trkpt lat="34.9448751" lon="33.5763283">
<ele>73.01</ele>
<time>2015-05-02T12:44:39Z</time>
</trkpt>
<trkpt lat="34.9448566" lon="33.5762777">
<ele>73.02</ele>
<time>2015-05-02T12:44:42Z</time>
</trkpt>
<trkpt lat="34.9448332" lon="33.5762131">
<ele>73.02</ele>
<time>2015-05-02T12:44:46Z</time>
</trkpt>
<trkpt lat="34.9448170" lon="33.5761484">
<ele>73.02</ele>
<time>2015-05-02T12:44:50Z</time>
</trkpt>
<trkpt lat="34.9448293" lon="33.5760932">
<ele>73.93</ele>
<time>2015-05-02T12:45:05Z</time>
</trkpt>
<trkpt lat="34.9448249" lon="33.5760234">
<ele>74.76</ele>
<time>2015-05-02T12:45:08Z</time>
</trkpt>
<trkpt lat="34.9448115" lon="33.5759532">
<ele>74.98</ele>
<time>2015-05-02T12:45:11Z</time>
</trkpt>
<trkpt lat="34.9448153" lon="33.5758849">
<ele>75.01</ele>
<time>2015-05-02T12:45:14Z</time>
</trkpt>
<trkpt lat="34.9448052" lon="33.5758146">
<ele>75.77</ele>
<time>2015-05-02T12:45:17Z</time>
</trkpt>
<trkpt lat="34.9447883" lon="33.5757421">
<ele>75.98</ele>
<time>2015-05-02T12:45:20Z</time>
</trkpt>
<trkpt lat="34.9447749" lon="33.5756714">
<ele>76.76</ele>
<time>2015-05-02T12:45:23Z</time>
</trkpt>
<trkpt lat="34.9447795" lon="33.5755978">
<ele>76.23</ele>
<time>2015-05-02T12:45:26Z</time>
</trkpt>
<trkpt lat="34.9447796" lon="33.5755206">
<ele>76.92</ele>
<time>2015-05-02T12:45:29Z</time>
</trkpt>
<trkpt lat="34.9447805" lon="33.5754598">
<ele>77.88</ele>
<time>2015-05-02T12:45:32Z</time>
</trkpt>
<trkpt lat="34.9447756" lon="33.5753933">
<ele>78.87</ele>
<time>2015-05-02T12:45:35Z</time>
</trkpt>
<trkpt lat="34.9447752" lon="33.5753194">
<ele>79.00</ele>
<time>2015-05-02T12:45:38Z</time>
</trkpt>
<trkpt lat="34.9447728" lon="33.5752640">
<ele>79.89</ele>
<time>2015-05-02T12:45:41Z</time>
</trkpt>
<trkpt lat="34.9447642" lon="33.5752089">
<ele>80.00</ele>
<time>2015-05-02T12:45:44Z</time>
</trkpt>
<trkpt lat="34.9447536" lon="33.5751483">
<ele>80.89</ele>
<time>2015-05-02T12:45:47Z</time>
</trkpt>
<trkpt lat="34.9447385" lon="33.5750885">
<ele>81.00</ele>
<time>2015-05-02T12:45:50Z</time>
</trkpt>
<trkpt lat="34.9447259" lon="33.5750262">
<ele>81.77</ele>
<time>2015-05-02T12:45:54Z</time>
</trkpt>
<trkpt lat="34.9447218" lon="33.5749650">
<ele>82.00</ele>
<time>2015-05-02T12:45:58Z</time>
</trkpt>
<trkpt lat="34.9447100" lon="33.5748957">
<ele>82.52</ele>
<time>2015-05-02T12:46:02Z</time>
</trkpt>
<trkpt lat="34.9446962" lon="33.5748311">
<ele>82.98</ele>
<time>2015-05-02T12:46:06Z</time>
</trkpt>
<trkpt lat="34.9446895" lon="33.5747751">
<ele>83.01</ele>
<time>2015-05-02T12:46:09Z</time>
</trkpt>
<trkpt lat="34.9446847" lon="33.5747155">
<ele>83.02</ele>
<time>2015-05-02T12:46:12Z</time>
</trkpt>
<trkpt lat="34.9446710" lon="33.5746626">
<ele>83.89</ele>
<time>2015-05-02T12:46:15Z</time>
</trkpt>
<trkpt lat="34.9446572" lon="33.5746082">
<ele>84.00</ele>
<time>2015-05-02T12:46:18Z</time>
</trkpt>
<trkpt lat="34.9446486" lon="33.5745502">
<ele>84.76</ele>
<time>2015-05-02T12:46:21Z</time>
</trkpt>
<trkpt lat="34.9446398" lon="33.5744934">
<ele>85.48</ele>
<time>2015-05-02T12:46:24Z</time>
</trkpt>
<trkpt lat="34.9446294" lon="33.5744313">
<ele>86.48</ele>
<time>2015-05-02T12:46:28Z</time>
</trkpt>
<trkpt lat="34.9446154" lon="33.5743755">
<ele>86.98</ele>
<time>2015-05-02T12:46:32Z</time>
</trkpt>
<trkpt lat="34.9445993" lon="33.5743146">
<ele>87.89</ele>
<time>2015-05-02T12:46:36Z</time>
</trkpt>
<trkpt lat="34.9445812" lon="33.5742585">
<ele>88.00</ele>
<time>2015-05-02T12:46:39Z</time>
</trkpt>
<trkpt lat="34.9445583" lon="33.5741973">
<ele>88.52</ele>
<time>2015-05-02T12:46:43Z</time>
</trkpt>
<trkpt lat="34.9445477" lon="33.5741300">
<ele>88.98</ele>
<time>2015-05-02T12:46:47Z</time>
</trkpt>
<trkpt lat="34.9445448" lon="33.5740687">
<ele>89.76</ele>
<time>2015-05-02T12:46:50Z</time>
</trkpt>
<trkpt lat="34.9445476" lon="33.5740094">
<ele>89.95</ele>
<time>2015-05-02T12:46:52Z</time>
</trkpt>
<trkpt lat="34.9445482" lon="33.5739348">
<ele>90.51</ele>
<time>2015-05-02T12:46:55Z</time>
</trkpt>
<trkpt lat="34.9445439" lon="33.5738368">
<ele>90.95</ele>
<time>2015-05-02T12:46:58Z</time>
</trkpt>
<trkpt lat="34.9445391" lon="33.5737542">
<ele>90.50</ele>
<time>2015-05-02T12:47:00Z</time>
</trkpt>
<trkpt lat="34.9445374" lon="33.5736659">
<ele>90.14</ele>
<time>2015-05-02T12:47:02Z</time>
</trkpt>
<trkpt lat="34.9445352" lon="33.5735617">
<ele>90.05</ele>
<time>2015-05-02T12:47:04Z</time>
</trkpt>
<trkpt lat="34.9445221" lon="33.5734546">
<ele>90.02</ele>
<time>2015-05-02T12:47:06Z</time>
</trkpt>
<trkpt lat="34.9445024" lon="33.5733587">
<ele>90.02</ele>
<time>2015-05-02T12:47:08Z</time>
</trkpt>
<trkpt lat="34.9444812" lon="33.5732770">
<ele>90.02</ele>
<time>2015-05-02T12:47:10Z</time>
</trkpt>
<trkpt lat="34.9444639" lon="33.5731997">
<ele>90.52</ele>
<time>2015-05-02T12:47:12Z</time>
</trkpt>
<trkpt lat="34.9444483" lon="33.5731214">
<ele>90.39</ele>
<time>2015-05-02T12:47:14Z</time>
</trkpt>
<trkpt lat="34.9444286" lon="33.5730364">
<ele>90.11</ele>
<time>2015-05-02T12:47:16Z</time>
</trkpt>
<trkpt lat="34.9444068" lon="33.5729415">
<ele>90.04</ele>
<time>2015-05-02T12:47:18Z</time>
</trkpt>
<trkpt lat="34.9443847" lon="33.5728480">
<ele>90.02</ele>
<time>2015-05-02T12:47:20Z</time>
</trkpt>
<trkpt lat="34.9443455" lon="33.5727657">
<ele>90.02</ele>
<time>2015-05-02T12:47:22Z</time>
</trkpt>
<trkpt lat="34.9442897" lon="33.5726978">
<ele>90.02</ele>
<time>2015-05-02T12:47:24Z</time>
</trkpt>
<trkpt lat="34.9442271" lon="33.5726329">
<ele>89.52</ele>
<time>2015-05-02T12:47:26Z</time>
</trkpt>
<trkpt lat="34.9441728" lon="33.5725555">
<ele>89.14</ele>
<time>2015-05-02T12:47:28Z</time>
</trkpt>
<trkpt lat="34.9441470" lon="33.5724662">
<ele>89.55</ele>
<time>2015-05-02T12:47:30Z</time>
</trkpt>
<trkpt lat="34.9441525" lon="33.5723797">
<ele>89.90</ele>
<time>2015-05-02T12:47:32Z</time>
</trkpt>
<trkpt lat="34.9441731" lon="33.5722839">
<ele>89.99</ele>
<time>2015-05-02T12:47:34Z</time>
</trkpt>
<trkpt lat="34.9441837" lon="33.5722253">
<ele>90.00</ele>
<time>2015-05-02T12:47:35Z</time>
</trkpt>
<trkpt lat="34.9442074" lon="33.5721596">
<ele>90.01</ele>
<time>2015-05-02T12:47:36Z</time>
</trkpt>
<trkpt lat="34.9442184" lon="33.5721058">
<ele>90.01</ele>
<time>2015-05-02T12:47:37Z</time>
</trkpt>
<trkpt lat="34.9442231" lon="33.5720473">
<ele>90.01</ele>
<time>2015-05-02T12:47:38Z</time>
</trkpt>
<trkpt lat="34.9442392" lon="33.5719521">
<ele>90.02</ele>
<time>2015-05-02T12:47:40Z</time>
</trkpt>
<trkpt lat="34.9442535" lon="33.5718595">
<ele>90.02</ele>
<time>2015-05-02T12:47:42Z</time>
</trkpt>
<trkpt lat="34.9442597" lon="33.5717458">
<ele>90.02</ele>
<time>2015-05-02T12:47:44Z</time>
</trkpt>
<trkpt lat="34.9442593" lon="33.5716758">
<ele>90.02</ele>
<time>2015-05-02T12:47:45Z</time>
</trkpt>
<trkpt lat="34.9442514" lon="33.5715910">
<ele>90.02</ele>
<time>2015-05-02T12:47:46Z</time>
</trkpt>
<trkpt lat="34.9442317" lon="33.5715204">
<ele>90.02</ele>
<time>2015-05-02T12:47:47Z</time>
</trkpt>
<trkpt lat="34.9442144" lon="33.5714462">
<ele>90.02</ele>
<time>2015-05-02T12:47:48Z</time>
</trkpt>
<trkpt lat="34.9441993" lon="33.5713773">
<ele>90.02</ele>
<time>2015-05-02T12:47:49Z</time>
</trkpt>
<trkpt lat="34.9441835" lon="33.5713162">
<ele>89.52</ele>
<time>2015-05-02T12:47:50Z</time>
</trkpt>
<trkpt lat="34.9441642" lon="33.5712466">
<ele>89.77</ele>
<time>2015-05-02T12:47:51Z</time>
</trkpt>
<trkpt lat="34.9441411" lon="33.5711798">
<ele>89.39</ele>
<time>2015-05-02T12:47:52Z</time>
</trkpt>
<trkpt lat="34.9441193" lon="33.5711204">
<ele>89.20</ele>
<time>2015-05-02T12:47:53Z</time>
</trkpt>
<trkpt lat="34.9440929" lon="33.5710524">
<ele>89.11</ele>
<time>2015-05-02T12:47:54Z</time>
</trkpt>
<trkpt lat="34.9440627" lon="33.5709981">
<ele>89.06</ele>
<time>2015-05-02T12:47:55Z</time>
</trkpt>
<trkpt lat="34.9440340" lon="33.5709477">
<ele>89.04</ele>
<time>2015-05-02T12:47:56Z</time>
</trkpt>
<trkpt lat="34.9440040" lon="33.5708998">
<ele>89.03</ele>
<time>2015-05-02T12:47:57Z</time>
</trkpt>
<trkpt lat="34.9439501" lon="33.5708035">
<ele>89.02</ele>
<time>2015-05-02T12:47:59Z</time>
</trkpt>
<trkpt lat="34.9439273" lon="33.5707553">
<ele>89.02</ele>
<time>2015-05-02T12:48:00Z</time>
</trkpt>
<trkpt lat="34.9439110" lon="33.5707040">
<ele>89.02</ele>
<time>2015-05-02T12:48:01Z</time>
</trkpt>
<trkpt lat="34.9438926" lon="33.5706423">
<ele>89.02</ele>
<time>2015-05-02T12:48:02Z</time>
</trkpt>
<trkpt lat="34.9438672" lon="33.5705285">
<ele>89.02</ele>
<time>2015-05-02T12:48:04Z</time>
</trkpt>
<trkpt lat="34.9438513" lon="33.5704678">
<ele>88.52</ele>
<time>2015-05-02T12:48:05Z</time>
</trkpt>
<trkpt lat="34.9438307" lon="33.5704132">
<ele>88.27</ele>
<time>2015-05-02T12:48:06Z</time>
</trkpt>
<trkpt lat="34.9438012" lon="33.5703601">
<ele>88.64</ele>
<time>2015-05-02T12:48:07Z</time>
</trkpt>
<trkpt lat="34.9437548" lon="33.5702928">
<ele>88.92</ele>
<time>2015-05-02T12:48:09Z</time>
</trkpt>
<trkpt lat="34.9437063" lon="33.5702589">
<ele>89.49</ele>
<time>2015-05-02T12:48:11Z</time>
</trkpt>
<trkpt lat="34.9436429" lon="33.5702636">
<ele>89.95</ele>
<time>2015-05-02T12:48:14Z</time>
</trkpt>
<trkpt lat="34.9435935" lon="33.5702799">
<ele>90.00</ele>
<time>2015-05-02T12:48:16Z</time>
</trkpt>
<trkpt lat="34.9435421" lon="33.5703121">
<ele>90.01</ele>
<time>2015-05-02T12:48:18Z</time>
</trkpt>
<trkpt lat="34.9434888" lon="33.5703499">
<ele>90.51</ele>
<time>2015-05-02T12:48:20Z</time>
</trkpt>
<trkpt lat="34.9434230" lon="33.5703938">
<ele>90.89</ele>
<time>2015-05-02T12:48:22Z</time>
</trkpt>
<trkpt lat="34.9433541" lon="33.5704256">
<ele>90.98</ele>
<time>2015-05-02T12:48:24Z</time>
</trkpt>
<trkpt lat="34.9432894" lon="33.5704438">
<ele>91.01</ele>
<time>2015-05-02T12:48:26Z</time>
</trkpt>
<trkpt lat="34.9432352" lon="33.5704504">
<ele>91.01</ele>
<time>2015-05-02T12:48:28Z</time>
</trkpt>
<trkpt lat="34.9431774" lon="33.5704552">
<ele>91.02</ele>
<time>2015-05-02T12:48:30Z</time>
</trkpt>
<trkpt lat="34.9431096" lon="33.5704633">
<ele>91.02</ele>
<time>2015-05-02T12:48:32Z</time>
</trkpt>
<trkpt lat="34.9430242" lon="33.5704739">
<ele>91.52</ele>
<time>2015-05-02T12:48:34Z</time>
</trkpt>
<trkpt lat="34.9429492" lon="33.5704847">
<ele>91.89</ele>
<time>2015-05-02T12:48:36Z</time>
</trkpt>
<trkpt lat="34.9428769" lon="33.5705135">
<ele>91.98</ele>
<time>2015-05-02T12:48:38Z</time>
</trkpt>
<trkpt lat="34.9428003" lon="33.5705511">
<ele>92.01</ele>
<time>2015-05-02T12:48:40Z</time>
</trkpt>
<trkpt lat="34.9427544" lon="33.5705811">
<ele>92.51</ele>
<time>2015-05-02T12:48:41Z</time>
</trkpt>
<trkpt lat="34.9426845" lon="33.5706239">
<ele>93.39</ele>
<time>2015-05-02T12:48:43Z</time>
</trkpt>
<trkpt lat="34.9426198" lon="33.5706561">
<ele>93.86</ele>
<time>2015-05-02T12:48:45Z</time>
</trkpt>
<trkpt lat="34.9425725" lon="33.5706771">
<ele>93.98</ele>
<time>2015-05-02T12:48:47Z</time>
</trkpt>
<trkpt lat="34.9425179" lon="33.5707099">
<ele>94.01</ele>
<time>2015-05-02T12:48:50Z</time>
</trkpt>
<trkpt lat="34.9424772" lon="33.5707356">
<ele>94.02</ele>
<time>2015-05-02T12:48:53Z</time>
</trkpt>
<trkpt lat="34.9424218" lon="33.5707627">
<ele>94.77</ele>
<time>2015-05-02T12:48:56Z</time>
</trkpt>
<trkpt lat="34.9423786" lon="33.5707811">
<ele>94.95</ele>
<time>2015-05-02T12:48:58Z</time>
</trkpt>
<trkpt lat="34.9423276" lon="33.5708088">
<ele>95.75</ele>
<time>2015-05-02T12:49:00Z</time>
</trkpt>
<trkpt lat="34.9422740" lon="33.5708348">
<ele>96.45</ele>
<time>2015-05-02T12:49:02Z</time>
</trkpt>
<trkpt lat="34.9422191" lon="33.5708620">
<ele>96.37</ele>
<time>2015-05-02T12:49:04Z</time>
</trkpt>
<trkpt lat="34.9421669" lon="33.5708920">
<ele>96.86</ele>
<time>2015-05-02T12:49:06Z</time>
</trkpt>
<trkpt lat="34.9421161" lon="33.5709206">
<ele>97.48</ele>
<time>2015-05-02T12:49:08Z</time>
</trkpt>
<trkpt lat="34.9420623" lon="33.5709515">
<ele>97.88</ele>
<time>2015-05-02T12:49:10Z</time>
</trkpt>
<trkpt lat="34.9420002" lon="33.5709860">
<ele>98.73</ele>
<time>2015-05-02T12:49:12Z</time>
</trkpt>
<trkpt lat="34.9419434" lon="33.5710202">
<ele>98.95</ele>
<time>2015-05-02T12:49:14Z</time>
</trkpt>
<trkpt lat="34.9419045" lon="33.5710499">
<ele>99.00</ele>
<time>2015-05-02T12:49:16Z</time>
</trkpt>
<trkpt lat="34.9418560" lon="33.5711040">
<ele>99.01</ele>
<time>2015-05-02T12:49:19Z</time>
</trkpt>
<trkpt lat="34.9418195" lon="33.5711402">
<ele>99.77</ele>
<time>2015-05-02T12:49:21Z</time>
</trkpt>
<trkpt lat="34.9417650" lon="33.5711778">
<ele>99.95</ele>
<time>2015-05-02T12:49:23Z</time>
</trkpt>
<trkpt lat="34.9417051" lon="33.5712001">
<ele>100.00</ele>
<time>2015-05-02T12:49:25Z</time>
</trkpt>
<trkpt lat="34.9416562" lon="33.5712022">
<ele>100.01</ele>
<time>2015-05-02T12:49:27Z</time>
</trkpt>
<trkpt lat="34.9416104" lon="33.5711977">
<ele>100.02</ele>
<time>2015-05-02T12:49:29Z</time>
</trkpt>
<trkpt lat="34.9415567" lon="33.5711880">
<ele>100.02</ele>
<time>2015-05-02T12:49:31Z</time>
</trkpt>
<trkpt lat="34.9414816" lon="33.5711679">
<ele>100.02</ele>
<time>2015-05-02T12:49:33Z</time>
</trkpt>
<trkpt lat="34.9414129" lon="33.5711479">
<ele>99.27</ele>
<time>2015-05-02T12:49:35Z</time>
</trkpt>
<trkpt lat="34.9413448" lon="33.5711367">
<ele>99.33</ele>
<time>2015-05-02T12:49:37Z</time>
</trkpt>
<trkpt lat="34.9412744" lon="33.5711348">
<ele>99.09</ele>
<time>2015-05-02T12:49:39Z</time>
</trkpt>
<trkpt lat="34.9412007" lon="33.5711478">
<ele>99.04</ele>
<time>2015-05-02T12:49:41Z</time>
</trkpt>
<trkpt lat="34.9411293" lon="33.5711634">
<ele>99.02</ele>
<time>2015-05-02T12:49:43Z</time>
</trkpt>
<trkpt lat="34.9410608" lon="33.5711862">
<ele>99.02</ele>
<time>2015-05-02T12:49:45Z</time>
</trkpt>
<trkpt lat="34.9409826" lon="33.5712267">
<ele>99.52</ele>
<time>2015-05-02T12:49:47Z</time>
</trkpt>
<trkpt lat="34.9409074" lon="33.5712797">
<ele>100.39</ele>
<time>2015-05-02T12:49:49Z</time>
</trkpt>
<trkpt lat="34.9408427" lon="33.5713273">
<ele>100.61</ele>
<time>2015-05-02T12:49:51Z</time>
</trkpt>
<trkpt lat="34.9407906" lon="33.5713619">
<ele>100.91</ele>
<time>2015-05-02T12:49:53Z</time>
</trkpt>
<trkpt lat="34.9407331" lon="33.5714048">
<ele>100.99</ele>
<time>2015-05-02T12:49:55Z</time>
</trkpt>
<trkpt lat="34.9406634" lon="33.5714522">
<ele>101.51</ele>
<time>2015-05-02T12:49:57Z</time>
</trkpt>
<trkpt lat="34.9405846" lon="33.5714813">
<ele>101.89</ele>
<time>2015-05-02T12:49:59Z</time>
</trkpt>
<trkpt lat="34.9405049" lon="33.5714913">
<ele>102.48</ele>
<time>2015-05-02T12:50:01Z</time>
</trkpt>
<trkpt lat="34.9404316" lon="33.5714853">
<ele>102.88</ele>
<time>2015-05-02T12:50:03Z</time>
</trkpt>
<trkpt lat="34.9403742" lon="33.5714787">
<ele>102.98</ele>
<time>2015-05-02T12:50:05Z</time>
</trkpt>
<trkpt lat="34.9403092" lon="33.5714818">
<ele>103.01</ele>
<time>2015-05-02T12:50:07Z</time>
</trkpt>
<trkpt lat="34.9402356" lon="33.5715096">
<ele>103.01</ele>
<time>2015-05-02T12:50:09Z</time>
</trkpt>
<trkpt lat="34.9401840" lon="33.5715758">
<ele>103.02</ele>
<time>2015-05-02T12:50:11Z</time>
</trkpt>
<trkpt lat="34.9401576" lon="33.5716670">
<ele>103.02</ele>
<time>2015-05-02T12:50:13Z</time>
</trkpt>
<trkpt lat="34.9401444" lon="33.5717620">
<ele>103.02</ele>
<time>2015-05-02T12:50:15Z</time>
</trkpt>
<trkpt lat="34.9401209" lon="33.5718504">
<ele>103.02</ele>
<time>2015-05-02T12:50:17Z</time>
</trkpt>
<trkpt lat="34.9400777" lon="33.5719332">
<ele>103.02</ele>
<time>2015-05-02T12:50:19Z</time>
</trkpt>
<trkpt lat="34.9400300" lon="33.5720143">
<ele>103.02</ele>
<time>2015-05-02T12:50:21Z</time>
</trkpt>
<trkpt lat="34.9399863" lon="33.5720949">
<ele>103.02</ele>
<time>2015-05-02T12:50:23Z</time>
</trkpt>
<trkpt lat="34.9399265" lon="33.5721969">
<ele>102.77</ele>
<time>2015-05-02T12:50:25Z</time>
</trkpt>
<trkpt lat="34.9398626" lon="33.5722523">
<ele>102.20</ele>
<time>2015-05-02T12:50:27Z</time>
</trkpt>
<trkpt lat="34.9398141" lon="33.5723136">
<ele>101.81</ele>
<time>2015-05-02T12:50:29Z</time>
</trkpt>
<trkpt lat="34.9397718" lon="33.5723769">
<ele>101.97</ele>
<time>2015-05-02T12:50:31Z</time>
</trkpt>
<trkpt lat="34.9397320" lon="33.5724605">
<ele>102.00</ele>
<time>2015-05-02T12:50:33Z</time>
</trkpt>
<trkpt lat="34.9397066" lon="33.5725094">
<ele>102.01</ele>
<time>2015-05-02T12:50:34Z</time>
</trkpt>
<trkpt lat="34.9396852" lon="33.5725592">
<ele>102.01</ele>
<time>2015-05-02T12:50:35Z</time>
</trkpt>
<trkpt lat="34.9396380" lon="33.5726398">
<ele>102.02</ele>
<time>2015-05-02T12:50:37Z</time>
</trkpt>
<trkpt lat="34.9395835" lon="33.5727002">
<ele>102.02</ele>
<time>2015-05-02T12:50:39Z</time>
</trkpt>
<trkpt lat="34.9395256" lon="33.5727589">
<ele>102.02</ele>
<time>2015-05-02T12:50:41Z</time>
</trkpt>
<trkpt lat="34.9394523" lon="33.5728017">
<ele>102.02</ele>
<time>2015-05-02T12:50:43Z</time>
</trkpt>
<trkpt lat="34.9393815" lon="33.5728357">
<ele>102.02</ele>
<time>2015-05-02T12:50:45Z</time>
</trkpt>
<trkpt lat="34.9393156" lon="33.5728543">
<ele>103.27</ele>
<time>2015-05-02T12:50:47Z</time>
</trkpt>
<trkpt lat="34.9392504" lon="33.5728654">
<ele>103.83</ele>
<time>2015-05-02T12:50:49Z</time>
</trkpt>
<trkpt lat="34.9391854" lon="33.5728723">
<ele>104.47</ele>
<time>2015-05-02T12:50:51Z</time>
</trkpt>
<trkpt lat="34.9391283" lon="33.5728793">
<ele>105.38</ele>
<time>2015-05-02T12:50:53Z</time>
</trkpt>
<trkpt lat="34.9390779" lon="33.5728795">
<ele>105.86</ele>
<time>2015-05-02T12:50:55Z</time>
</trkpt>
<trkpt lat="34.9390252" lon="33.5728772">
<ele>105.98</ele>
<time>2015-05-02T12:50:57Z</time>
</trkpt>
<trkpt lat="34.9389693" lon="33.5728717">
<ele>106.76</ele>
<time>2015-05-02T12:50:59Z</time>
</trkpt>
<trkpt lat="34.9389202" lon="33.5728576">
<ele>106.95</ele>
<time>2015-05-02T12:51:01Z</time>
</trkpt>
<trkpt lat="34.9388647" lon="33.5728278">
<ele>107.01</ele>
<time>2015-05-02T12:51:05Z</time>
</trkpt>
<trkpt lat="34.9388186" lon="33.5728094">
<ele>106.51</ele>
<time>2015-05-02T12:51:07Z</time>
</trkpt>
<trkpt lat="34.9387690" lon="33.5727949">
<ele>106.14</ele>
<time>2015-05-02T12:51:09Z</time>
</trkpt>
<trkpt lat="34.9387227" lon="33.5728030">
<ele>106.05</ele>
<time>2015-05-02T12:51:11Z</time>
</trkpt>
<trkpt lat="34.9386796" lon="33.5728455">
<ele>105.52</ele>
<time>2015-05-02T12:51:14Z</time>
</trkpt>
<trkpt lat="34.9386540" lon="33.5728914">
<ele>105.02</ele>
<time>2015-05-02T12:51:51Z</time>
</trkpt>
<trkpt lat="34.9386130" lon="33.5729163">
<ele>107.05</ele>
<time>2015-05-02T12:55:53Z</time>
</trkpt>
<trkpt lat="34.9386378" lon="33.5728697">
<ele>109.02</ele>
<time>2015-05-02T12:56:24Z</time>
</trkpt>
<trkpt lat="34.9386766" lon="33.5728356">
<ele>108.80</ele>
<time>2015-05-02T12:56:29Z</time>
</trkpt>
<trkpt lat="34.9386799" lon="33.5727732">
<ele>110.63</ele>
<time>2015-05-02T12:56:33Z</time>
</trkpt>
<trkpt lat="34.9386174" lon="33.5727434">
<ele>110.97</ele>
<time>2015-05-02T12:56:36Z</time>
</trkpt>
<trkpt lat="34.9385760" lon="33.5727180">
<ele>111.00</ele>
<time>2015-05-02T12:56:38Z</time>
</trkpt>
<trkpt lat="34.9385265" lon="33.5726751">
<ele>110.14</ele>
<time>2015-05-02T12:56:41Z</time>
</trkpt>
<trkpt lat="34.9384896" lon="33.5726406">
<ele>109.28</ele>
<time>2015-05-02T12:56:44Z</time>
</trkpt>
<trkpt lat="34.9384440" lon="33.5726090">
<ele>109.91</ele>
<time>2015-05-02T12:56:48Z</time>
</trkpt>
<trkpt lat="34.9383985" lon="33.5725924">
<ele>109.76</ele>
<time>2015-05-02T12:56:52Z</time>
</trkpt>
<trkpt lat="34.9383500" lon="33.5725695">
<ele>110.00</ele>
<time>2015-05-02T12:56:56Z</time>
</trkpt>
<trkpt lat="34.9383095" lon="33.5725366">
<ele>110.95</ele>
<time>2015-05-02T12:57:00Z</time>
</trkpt>
<trkpt lat="34.9382570" lon="33.5725243">
<ele>111.70</ele>
<time>2015-05-02T12:57:04Z</time>
</trkpt>
<trkpt lat="34.9381990" lon="33.5725237">
<ele>111.10</ele>
<time>2015-05-02T12:57:07Z</time>
</trkpt>
<trkpt lat="34.9381454" lon="33.5725259">
<ele>111.04</ele>
<time>2015-05-02T12:57:09Z</time>
</trkpt>
<trkpt lat="34.9380959" lon="33.5725336">
<ele>110.77</ele>
<time>2015-05-02T12:57:11Z</time>
</trkpt>
<trkpt lat="34.9380473" lon="33.5725450">
<ele>111.20</ele>
<time>2015-05-02T12:57:13Z</time>
</trkpt>
<trkpt lat="34.9379958" lon="33.5725600">
<ele>111.56</ele>
<time>2015-05-02T12:57:15Z</time>
</trkpt>
<trkpt lat="34.9379464" lon="33.5725748">
<ele>111.65</ele>
<time>2015-05-02T12:57:17Z</time>
</trkpt>
<trkpt lat="34.9378834" lon="33.5725908">
<ele>111.47</ele>
<time>2015-05-02T12:57:20Z</time>
</trkpt>
<trkpt lat="34.9378347" lon="33.5726096">
<ele>111.20</ele>
<time>2015-05-02T12:57:23Z</time>
</trkpt>
<trkpt lat="34.9377880" lon="33.5726680">
<ele>112.04</ele>
<time>2015-05-02T12:57:26Z</time>
</trkpt>
<trkpt lat="34.9377521" lon="33.5727099">
<ele>112.02</ele>
<time>2015-05-02T12:57:28Z</time>
</trkpt>
<trkpt lat="34.9377155" lon="33.5727421">
<ele>112.52</ele>
<time>2015-05-02T12:57:30Z</time>
</trkpt>
<trkpt lat="34.9376668" lon="33.5727808">
<ele>111.33</ele>
<time>2015-05-02T12:57:33Z</time>
</trkpt>
<trkpt lat="34.9376208" lon="33.5728085">
<ele>111.59</ele>
<time>2015-05-02T12:57:35Z</time>
</trkpt>
<trkpt lat="34.9375435" lon="33.5728382">
<ele>111.31</ele>
<time>2015-05-02T12:57:36Z</time>
</trkpt>
<trkpt lat="34.9374946" lon="33.5728458">
<ele>111.16</ele>
<time>2015-05-02T12:57:37Z</time>
</trkpt>
<trkpt lat="34.9374333" lon="33.5728536">
<ele>111.09</ele>
<time>2015-05-02T12:57:38Z</time>
</trkpt>
<trkpt lat="34.9373743" lon="33.5728578">
<ele>111.05</ele>
<time>2015-05-02T12:57:39Z</time>
</trkpt>
<trkpt lat="34.9373100" lon="33.5728620">
<ele>111.03</ele>
<time>2015-05-02T12:57:40Z</time>
</trkpt>
<trkpt lat="34.9372540" lon="33.5728625">
<ele>111.03</ele>
<time>2015-05-02T12:57:41Z</time>
</trkpt>
<trkpt lat="34.9372079" lon="33.5728621">
<ele>111.02</ele>
<time>2015-05-02T12:57:42Z</time>
</trkpt>
<trkpt lat="34.9371173" lon="33.5728571">
<ele>111.02</ele>
<time>2015-05-02T12:57:44Z</time>
</trkpt>
<trkpt lat="34.9370657" lon="33.5728596">
<ele>111.02</ele>
<time>2015-05-02T12:57:45Z</time>
</trkpt>
<trkpt lat="34.9370097" lon="33.5728647">
<ele>111.02</ele>
<time>2015-05-02T12:57:46Z</time>
</trkpt>
<trkpt lat="34.9369647" lon="33.5728708">
<ele>110.52</ele>
<time>2015-05-02T12:57:47Z</time>
</trkpt>
<trkpt lat="34.9369109" lon="33.5728456">
<ele>110.14</ele>
<time>2015-05-02T12:57:49Z</time>
</trkpt>
<trkpt lat="34.9368979" lon="33.5727912">
<ele>109.16</ele>
<time>2015-05-02T12:57:52Z</time>
</trkpt>
<trkpt lat="34.9369098" lon="33.5727143">
<ele>110.05</ele>
<time>2015-05-02T12:57:54Z</time>
</trkpt>
<trkpt lat="34.9369200" lon="33.5725977">
<ele>112.02</ele>
<time>2015-05-02T12:57:56Z</time>
</trkpt>
<trkpt lat="34.9369238" lon="33.5725255">
<ele>113.02</ele>
<time>2015-05-02T12:57:57Z</time>
</trkpt>
<trkpt lat="34.9369355" lon="33.5724546">
<ele>114.52</ele>
<time>2015-05-02T12:57:58Z</time>
</trkpt>
<trkpt lat="34.9369521" lon="33.5723946">
<ele>115.27</ele>
<time>2015-05-02T12:57:59Z</time>
</trkpt>
<trkpt lat="34.9370223" lon="33.5723161">
<ele>116.33</ele>
<time>2015-05-02T12:58:01Z</time>
</trkpt>
<trkpt lat="34.9370848" lon="33.5723258">
<ele>116.59</ele>
<time>2015-05-02T12:58:03Z</time>
</trkpt>
<trkpt lat="34.9371514" lon="33.5723486">
<ele>117.41</ele>
<time>2015-05-02T12:58:05Z</time>
</trkpt>
<trkpt lat="34.9372183" lon="33.5723789">
<ele>117.36</ele>
<time>2015-05-02T12:58:07Z</time>
</trkpt>
<trkpt lat="34.9372924" lon="33.5723739">
<ele>117.85</ele>
<time>2015-05-02T12:58:09Z</time>
</trkpt>
<trkpt lat="34.9373622" lon="33.5723595">
<ele>117.98</ele>
<time>2015-05-02T12:58:11Z</time>
</trkpt>
<trkpt lat="34.9374322" lon="33.5723267">
<ele>116.26</ele>
<time>2015-05-02T12:58:13Z</time>
</trkpt>
<trkpt lat="34.9374840" lon="33.5722764">
<ele>116.58</ele>
<time>2015-05-02T12:58:15Z</time>
</trkpt>
<trkpt lat="34.9375194" lon="33.5722058">
<ele>116.91</ele>
<time>2015-05-02T12:58:17Z</time>
</trkpt>
<trkpt lat="34.9375490" lon="33.5721280">
<ele>117.74</ele>
<time>2015-05-02T12:58:19Z</time>
</trkpt>
<trkpt lat="34.9375759" lon="33.5720549">
<ele>117.95</ele>
<time>2015-05-02T12:58:21Z</time>
</trkpt>
<trkpt lat="34.9375910" lon="33.5719847">
<ele>118.75</ele>
<time>2015-05-02T12:58:23Z</time>
</trkpt>
<trkpt lat="34.9375997" lon="33.5719191">
<ele>119.20</ele>
<time>2015-05-02T12:58:25Z</time>
</trkpt>
<trkpt lat="34.9376190" lon="33.5718547">
<ele>121.31</ele>
<time>2015-05-02T12:58:27Z</time>
</trkpt>
<trkpt lat="34.9376646" lon="33.5717979">
<ele>121.09</ele>
<time>2015-05-02T12:58:29Z</time>
</trkpt>
<trkpt lat="34.9377264" lon="33.5717961">
<ele>122.53</ele>
<time>2015-05-02T12:58:31Z</time>
</trkpt>
<trkpt lat="34.9377755" lon="33.5718568">
<ele>122.15</ele>
<time>2015-05-02T12:58:33Z</time>
</trkpt>
<trkpt lat="34.9378154" lon="33.5719287">
<ele>120.80</ele>
<time>2015-05-02T12:58:35Z</time>
</trkpt>
<trkpt lat="34.9378704" lon="33.5720014">
<ele>120.21</ele>
<time>2015-05-02T12:58:37Z</time>
</trkpt>
<trkpt lat="34.9379310" lon="33.5720587">
<ele>120.56</ele>
<time>2015-05-02T12:58:39Z</time>
</trkpt>
<trkpt lat="34.9380279" lon="33.5721119">
<ele>120.90</ele>
<time>2015-05-02T12:58:41Z</time>
</trkpt>
<trkpt lat="34.9381004" lon="33.5721313">
<ele>121.49</ele>
<time>2015-05-02T12:58:43Z</time>
</trkpt>
<trkpt lat="34.9381633" lon="33.5721544">
<ele>122.38</ele>
<time>2015-05-02T12:58:45Z</time>
</trkpt>
<trkpt lat="34.9382352" lon="33.5721696">
<ele>122.11</ele>
<time>2015-05-02T12:58:47Z</time>
</trkpt>
<trkpt lat="34.9383057" lon="33.5721737">
<ele>121.79</ele>
<time>2015-05-02T12:58:49Z</time>
</trkpt>
<trkpt lat="34.9383830" lon="33.5721761">
<ele>121.21</ele>
<time>2015-05-02T12:58:51Z</time>
</trkpt>
<trkpt lat="34.9384280" lon="33.5721818">
<ele>121.61</ele>
<time>2015-05-02T12:58:52Z</time>
</trkpt>
<trkpt lat="34.9384802" lon="33.5721910">
<ele>121.81</ele>
<time>2015-05-02T12:58:53Z</time>
</trkpt>
<trkpt lat="34.9385572" lon="33.5722243">
<ele>122.22</ele>
<time>2015-05-02T12:58:55Z</time>
</trkpt>
<trkpt lat="34.9386272" lon="33.5722637">
<ele>121.82</ele>
<time>2015-05-02T12:58:57Z</time>
</trkpt>
<trkpt lat="34.9386846" lon="33.5723097">
<ele>121.22</ele>
<time>2015-05-02T12:58:59Z</time>
</trkpt>
<trkpt lat="34.9387268" lon="33.5723326">
<ele>121.12</ele>
<time>2015-05-02T12:59:00Z</time>
</trkpt>
<trkpt lat="34.9387860" lon="33.5723890">
<ele>121.04</ele>
<time>2015-05-02T12:59:02Z</time>
</trkpt>
<trkpt lat="34.9388495" lon="33.5724591">
<ele>121.02</ele>
<time>2015-05-02T12:59:04Z</time>
</trkpt>
<trkpt lat="34.9389085" lon="33.5725403">
<ele>120.27</ele>
<time>2015-05-02T12:59:06Z</time>
</trkpt>
<trkpt lat="34.9389393" lon="33.5725810">
<ele>120.14</ele>
<time>2015-05-02T12:59:07Z</time>
</trkpt>
<trkpt lat="34.9389788" lon="33.5726114">
<ele>120.08</ele>
<time>2015-05-02T12:59:08Z</time>
</trkpt>
<trkpt lat="34.9390302" lon="33.5726443">
<ele>120.05</ele>
<time>2015-05-02T12:59:09Z</time>
</trkpt>
<trkpt lat="34.9390791" lon="33.5726656">
<ele>120.03</ele>
<time>2015-05-02T12:59:10Z</time>
</trkpt>
<trkpt lat="34.9391275" lon="33.5726830">
<ele>120.02</ele>
<time>2015-05-02T12:59:11Z</time>
</trkpt>
<trkpt lat="34.9391747" lon="33.5726838">
<ele>120.02</ele>
<time>2015-05-02T12:59:12Z</time>
</trkpt>
<trkpt lat="34.9392314" lon="33.5726902">
<ele>120.52</ele>
<time>2015-05-02T12:59:13Z</time>
</trkpt>
<trkpt lat="34.9392800" lon="33.5726837">
<ele>121.27</ele>
<time>2015-05-02T12:59:14Z</time>
</trkpt>
<trkpt lat="34.9393648" lon="33.5726752">
<ele>121.58</ele>
<time>2015-05-02T12:59:16Z</time>
</trkpt>
<trkpt lat="34.9394591" lon="33.5726593">
<ele>122.41</ele>
<time>2015-05-02T12:59:18Z</time>
</trkpt>
<trkpt lat="34.9395353" lon="33.5726116">
<ele>122.86</ele>
<time>2015-05-02T12:59:20Z</time>
</trkpt>
<trkpt lat="34.9396002" lon="33.5725602">
<ele>123.73</ele>
<time>2015-05-02T12:59:22Z</time>
</trkpt>
<trkpt lat="34.9396679" lon="33.5724763">
<ele>123.69</ele>
<time>2015-05-02T12:59:24Z</time>
</trkpt>
<trkpt lat="34.9397112" lon="33.5724239">
<ele>123.85</ele>
<time>2015-05-02T12:59:25Z</time>
</trkpt>
<trkpt lat="34.9397665" lon="33.5723392">
<ele>123.48</ele>
<time>2015-05-02T12:59:27Z</time>
</trkpt>
<trkpt lat="34.9398341" lon="33.5722739">
<ele>122.63</ele>
<time>2015-05-02T12:59:29Z</time>
</trkpt>
<trkpt lat="34.9398772" lon="33.5722416">
<ele>122.32</ele>
<time>2015-05-02T12:59:30Z</time>
</trkpt>
<trkpt lat="34.9399136" lon="33.5721969">
<ele>121.67</ele>
<time>2015-05-02T12:59:31Z</time>
</trkpt>
<trkpt lat="34.9399479" lon="33.5721390">
<ele>121.34</ele>
<time>2015-05-02T12:59:32Z</time>
</trkpt>
<trkpt lat="34.9399762" lon="33.5720847">
<ele>121.18</ele>
<time>2015-05-02T12:59:33Z</time>
</trkpt>
<trkpt lat="34.9399959" lon="33.5720238">
<ele>121.60</ele>
<time>2015-05-02T12:59:34Z</time>
</trkpt>
<trkpt lat="34.9400297" lon="33.5719677">
<ele>122.31</ele>
<time>2015-05-02T12:59:35Z</time>
</trkpt>
<trkpt lat="34.9400548" lon="33.5719202">
<ele>122.16</ele>
<time>2015-05-02T12:59:36Z</time>
</trkpt>
<trkpt lat="34.9401000" lon="33.5718207">
<ele>122.05</ele>
<time>2015-05-02T12:59:38Z</time>
</trkpt>
<trkpt lat="34.9401248" lon="33.5717726">
<ele>121.53</ele>
<time>2015-05-02T12:59:39Z</time>
</trkpt>
<trkpt lat="34.9401397" lon="33.5717105">
<ele>120.78</ele>
<time>2015-05-02T12:59:40Z</time>
</trkpt>
<trkpt lat="34.9401643" lon="33.5716545">
<ele>120.90</ele>
<time>2015-05-02T12:59:41Z</time>
</trkpt>
<trkpt lat="34.9401804" lon="33.5716022">
<ele>120.96</ele>
<time>2015-05-02T12:59:42Z</time>
</trkpt>
<trkpt lat="34.9402102" lon="33.5715550">
<ele>120.99</ele>
<time>2015-05-02T12:59:43Z</time>
</trkpt>
<trkpt lat="34.9402964" lon="33.5715107">
<ele>121.01</ele>
<time>2015-05-02T12:59:45Z</time>
</trkpt>
<trkpt lat="34.9403912" lon="33.5714996">
<ele>121.51</ele>
<time>2015-05-02T12:59:47Z</time>
</trkpt>
<trkpt lat="34.9404470" lon="33.5714982">
<ele>121.27</ele>
<time>2015-05-02T12:59:48Z</time>
</trkpt>
<trkpt lat="34.9405076" lon="33.5714914">
<ele>120.64</ele>
<time>2015-05-02T12:59:49Z</time>
</trkpt>
<trkpt lat="34.9405608" lon="33.5714824">
<ele>120.33</ele>
<time>2015-05-02T12:59:50Z</time>
</trkpt>
<trkpt lat="34.9406260" lon="33.5714651">
<ele>119.67</ele>
<time>2015-05-02T12:59:51Z</time>
</trkpt>
<trkpt lat="34.9406745" lon="33.5714398">
<ele>119.34</ele>
<time>2015-05-02T12:59:52Z</time>
</trkpt>
<trkpt lat="34.9407351" lon="33.5713696">
<ele>118.35</ele>
<time>2015-05-02T12:59:54Z</time>
</trkpt>
<trkpt lat="34.9407720" lon="33.5713119">
<ele>116.85</ele>
<time>2015-05-02T12:59:56Z</time>
</trkpt>
<trkpt lat="34.9408306" lon="33.5712968">
<ele>117.00</ele>
<time>2015-05-02T12:59:59Z</time>
</trkpt>
<trkpt lat="34.9408410" lon="33.5713693">
<ele>117.89</ele>
<time>2015-05-02T13:00:02Z</time>
</trkpt>
<trkpt lat="34.9407902" lon="33.5713960">
<ele>119.00</ele>
<time>2015-05-02T13:00:05Z</time>
</trkpt>
<trkpt lat="34.9407426" lon="33.5713480">
<ele>120.39</ele>
<time>2015-05-02T13:00:08Z</time>
</trkpt>
<trkpt lat="34.9406994" lon="33.5713117">
<ele>119.61</ele>
<time>2015-05-02T13:00:10Z</time>
</trkpt>
<trkpt lat="34.9406292" lon="33.5712712">
<ele>119.16</ele>
<time>2015-05-02T13:00:12Z</time>
</trkpt>
<trkpt lat="34.9405853" lon="33.5712458">
<ele>118.59</ele>
<time>2015-05-02T13:00:13Z</time>
</trkpt>
<trkpt lat="34.9405100" lon="33.5712059">
<ele>117.80</ele>
<time>2015-05-02T13:00:14Z</time>
</trkpt>
<trkpt lat="34.9404559" lon="33.5711866">
<ele>117.41</ele>
<time>2015-05-02T13:00:15Z</time>
</trkpt>
<trkpt lat="34.9403785" lon="33.5711644">
<ele>116.36</ele>
<time>2015-05-02T13:00:17Z</time>
</trkpt>
<trkpt lat="34.9403318" lon="33.5711491">
<ele>116.19</ele>
<time>2015-05-02T13:00:18Z</time>
</trkpt>
<trkpt lat="34.9402876" lon="33.5711317">
<ele>116.10</ele>
<time>2015-05-02T13:00:19Z</time>
</trkpt>
<trkpt lat="34.9402369" lon="33.5711076">
<ele>115.56</ele>
<time>2015-05-02T13:00:20Z</time>
</trkpt>
<trkpt lat="34.9401865" lon="33.5710816">
<ele>115.79</ele>
<time>2015-05-02T13:00:21Z</time>
</trkpt>
<trkpt lat="34.9401360" lon="33.5710668">
<ele>115.90</ele>
<time>2015-05-02T13:00:22Z</time>
</trkpt>
<trkpt lat="34.9400900" lon="33.5710669">
<ele>115.46</ele>
<time>2015-05-02T13:00:23Z</time>
</trkpt>
<trkpt lat="34.9400450" lon="33.5710600">
<ele>115.24</ele>
<time>2015-05-02T13:00:24Z</time>
</trkpt>
<trkpt lat="34.9399938" lon="33.5710533">
<ele>114.63</ele>
<time>2015-05-02T13:00:25Z</time>
</trkpt>
<trkpt lat="34.9399446" lon="33.5710532">
<ele>113.82</ele>
<time>2015-05-02T13:00:26Z</time>
</trkpt>
<trkpt lat="34.9398894" lon="33.5710659">
<ele>113.92</ele>
<time>2015-05-02T13:00:27Z</time>
</trkpt>
<trkpt lat="34.9398424" lon="33.5710758">
<ele>113.47</ele>
<time>2015-05-02T13:00:28Z</time>
</trkpt>
<trkpt lat="34.9397985" lon="33.5710928">
<ele>113.24</ele>
<time>2015-05-02T13:00:29Z</time>
</trkpt>
<trkpt lat="34.9397375" lon="33.5711036">
<ele>113.63</ele>
<time>2015-05-02T13:00:30Z</time>
</trkpt>
<trkpt lat="34.9396819" lon="33.5711090">
<ele>113.82</ele>
<time>2015-05-02T13:00:31Z</time>
</trkpt>
<trkpt lat="34.9396269" lon="33.5711143">
<ele>114.42</ele>
<time>2015-05-02T13:00:32Z</time>
</trkpt>
<trkpt lat="34.9395653" lon="33.5711303">
<ele>115.62</ele>
<time>2015-05-02T13:00:34Z</time>
</trkpt>
<trkpt lat="34.9395176" lon="33.5711497">
<ele>119.18</ele>
<time>2015-05-02T13:00:41Z</time>
</trkpt>
<trkpt lat="34.9395248" lon="33.5710600">
<ele>117.30</ele>
<time>2015-05-02T13:00:50Z</time>
</trkpt>
<trkpt lat="34.9395252" lon="33.5710039">
<ele>116.66</ele>
<time>2015-05-02T13:00:51Z</time>
</trkpt>
<trkpt lat="34.9395396" lon="33.5709395">
<ele>116.84</ele>
<time>2015-05-02T13:00:52Z</time>
</trkpt>
<trkpt lat="34.9395665" lon="33.5708738">
<ele>116.43</ele>
<time>2015-05-02T13:00:53Z</time>
</trkpt>
<trkpt lat="34.9395978" lon="33.5708219">
<ele>115.72</ele>
<time>2015-05-02T13:00:54Z</time>
</trkpt>
<trkpt lat="34.9396354" lon="33.5707693">
<ele>115.87</ele>
<time>2015-05-02T13:00:55Z</time>
</trkpt>
<trkpt lat="34.9396737" lon="33.5707198">
<ele>115.94</ele>
<time>2015-05-02T13:00:56Z</time>
</trkpt>
<trkpt lat="34.9397009" lon="33.5706692">
<ele>115.48</ele>
<time>2015-05-02T13:00:57Z</time>
</trkpt>
<trkpt lat="34.9397271" lon="33.5706174">
<ele>115.25</ele>
<time>2015-05-02T13:00:58Z</time>
</trkpt>
<trkpt lat="34.9397559" lon="33.5705094">
<ele>115.07</ele>
<time>2015-05-02T13:01:00Z</time>
</trkpt>
<trkpt lat="34.9397753" lon="33.5704094">
<ele>112.28</ele>
<time>2015-05-02T13:01:02Z</time>
</trkpt>
<trkpt lat="34.9397684" lon="33.5703138">
<ele>109.58</ele>
<time>2015-05-02T13:01:04Z</time>
</trkpt>
<trkpt lat="34.9397790" lon="33.5702352">
<ele>107.16</ele>
<time>2015-05-02T13:01:06Z</time>
</trkpt>
<trkpt lat="34.9397951" lon="33.5701510">
<ele>104.30</ele>
<time>2015-05-02T13:01:08Z</time>
</trkpt>
<trkpt lat="34.9398016" lon="33.5700934">
<ele>102.09</ele>
<time>2015-05-02T13:01:10Z</time>
</trkpt>
<trkpt lat="34.9398167" lon="33.5700249">
<ele>100.28</ele>
<time>2015-05-02T13:01:12Z</time>
</trkpt>
<trkpt lat="34.9398607" lon="33.5699395">
<ele>100.15</ele>
<time>2015-05-02T13:01:13Z</time>
</trkpt>
<trkpt lat="34.9399012" lon="33.5698753">
<ele>100.05</ele>
<time>2015-05-02T13:01:15Z</time>
</trkpt>
<trkpt lat="34.9399346" lon="33.5698167">
<ele>100.77</ele>
<time>2015-05-02T13:01:17Z</time>
</trkpt>
<trkpt lat="34.9399663" lon="33.5697456">
<ele>101.71</ele>
<time>2015-05-02T13:01:19Z</time>
</trkpt>
<trkpt lat="34.9400116" lon="33.5696876">
<ele>102.69</ele>
<time>2015-05-02T13:01:21Z</time>
</trkpt>
<trkpt lat="34.9400508" lon="33.5696475">
<ele>103.68</ele>
<time>2015-05-02T13:01:23Z</time>
</trkpt>
<trkpt lat="34.9400922" lon="33.5696107">
<ele>103.18</ele>
<time>2015-05-02T13:01:25Z</time>
</trkpt>
<trkpt lat="34.9401318" lon="33.5695806">
<ele>103.06</ele>
<time>2015-05-02T13:01:27Z</time>
</trkpt>
<trkpt lat="34.9401754" lon="33.5695359">
<ele>105.27</ele>
<time>2015-05-02T13:01:30Z</time>
</trkpt>
<trkpt lat="34.9402158" lon="33.5695036">
<ele>108.05</ele>
<time>2015-05-02T13:01:33Z</time>
</trkpt>
<trkpt lat="34.9402613" lon="33.5694689">
<ele>105.02</ele>
<time>2015-05-02T13:01:37Z</time>
</trkpt>
<trkpt lat="34.9403068" lon="33.5694379">
<ele>104.33</ele>
<time>2015-05-02T13:01:41Z</time>
</trkpt>
<trkpt lat="34.9403533" lon="33.5693984">
<ele>104.85</ele>
<time>2015-05-02T13:01:45Z</time>
</trkpt>
<trkpt lat="34.9403944" lon="33.5693758">
<ele>105.00</ele>
<time>2015-05-02T13:01:48Z</time>
</trkpt>
<trkpt lat="34.9404331" lon="33.5693449">
<ele>105.01</ele>
<time>2015-05-02T13:01:51Z</time>
</trkpt>
<trkpt lat="34.9404752" lon="33.5693118">
<ele>105.52</ele>
<time>2015-05-02T13:01:54Z</time>
</trkpt>
<trkpt lat="34.9405164" lon="33.5692658">
<ele>105.08</ele>
<time>2015-05-02T13:01:57Z</time>
</trkpt>
<trkpt lat="34.9405563" lon="33.5692138">
<ele>105.02</ele>
<time>2015-05-02T13:02:00Z</time>
</trkpt>
<trkpt lat="34.9405903" lon="33.5691544">
<ele>105.08</ele>
<time>2015-05-02T13:02:04Z</time>
</trkpt>
<trkpt lat="34.9406194" lon="33.5691055">
<ele>105.02</ele>
<time>2015-05-02T13:02:07Z</time>
</trkpt>
<trkpt lat="34.9406458" lon="33.5690532">
<ele>105.52</ele>
<time>2015-05-02T13:02:10Z</time>
</trkpt>
<trkpt lat="34.9406738" lon="33.5689981">
<ele>106.33</ele>
<time>2015-05-02T13:02:13Z</time>
</trkpt>
<trkpt lat="34.9407020" lon="33.5689520">
<ele>106.81</ele>
<time>2015-05-02T13:02:16Z</time>
</trkpt>
<trkpt lat="34.9407411" lon="33.5689019">
<ele>107.00</ele>
<time>2015-05-02T13:02:20Z</time>
</trkpt>
<trkpt lat="34.9407812" lon="33.5688757">
<ele>106.26</ele>
<time>2015-05-02T13:02:23Z</time>
</trkpt>
<trkpt lat="34.9408162" lon="33.5688338">
<ele>105.80</ele>
<time>2015-05-02T13:02:26Z</time>
</trkpt>
<trkpt lat="34.9408641" lon="33.5688127">
<ele>105.99</ele>
<time>2015-05-02T13:02:29Z</time>
</trkpt>
<trkpt lat="34.9409105" lon="33.5688148">
<ele>106.26</ele>
<time>2015-05-02T13:02:32Z</time>
</trkpt>
<trkpt lat="34.9409570" lon="33.5688335">
<ele>106.05</ele>
<time>2015-05-02T13:02:35Z</time>
</trkpt>
<trkpt lat="34.9409991" lon="33.5688670">
<ele>106.02</ele>
<time>2015-05-02T13:02:38Z</time>
</trkpt>
<trkpt lat="34.9410313" lon="33.5689168">
<ele>106.02</ele>
<time>2015-05-02T13:02:41Z</time>
</trkpt>
<trkpt lat="34.9410529" lon="33.5689734">
<ele>106.64</ele>
<time>2015-05-02T13:02:44Z</time>
</trkpt>
<trkpt lat="34.9410706" lon="33.5690276">
<ele>107.72</ele>
<time>2015-05-02T13:02:47Z</time>
</trkpt>
<trkpt lat="34.9410938" lon="33.5690814">
<ele>108.35</ele>
<time>2015-05-02T13:02:50Z</time>
</trkpt>
<trkpt lat="34.9411316" lon="33.5691262">
<ele>108.43</ele>
<time>2015-05-02T13:02:53Z</time>
</trkpt>
<trkpt lat="34.9411751" lon="33.5691620">
<ele>107.19</ele>
<time>2015-05-02T13:02:56Z</time>
</trkpt>
<trkpt lat="34.9412162" lon="33.5691974">
<ele>107.16</ele>
<time>2015-05-02T13:02:59Z</time>
</trkpt>
<trkpt lat="34.9412609" lon="33.5692159">
<ele>107.16</ele>
<time>2015-05-02T13:03:02Z</time>
</trkpt>
<trkpt lat="34.9413032" lon="33.5692374">
<ele>107.03</ele>
<time>2015-05-02T13:03:05Z</time>
</trkpt>
<trkpt lat="34.9413624" lon="33.5692354">
<ele>106.95</ele>
<time>2015-05-02T13:03:09Z</time>
</trkpt>
<trkpt lat="34.9414194" lon="33.5692470">
<ele>105.95</ele>
<time>2015-05-02T13:03:13Z</time>
</trkpt>
<trkpt lat="34.9414724" lon="33.5692541">
<ele>105.51</ele>
<time>2015-05-02T13:03:17Z</time>
</trkpt>
<trkpt lat="34.9415187" lon="33.5692616">
<ele>105.98</ele>
<time>2015-05-02T13:03:21Z</time>
</trkpt>
<trkpt lat="34.9415726" lon="33.5692555">
<ele>106.01</ele>
<time>2015-05-02T13:03:25Z</time>
</trkpt>
<trkpt lat="34.9416236" lon="33.5692581">
<ele>106.95</ele>
<time>2015-05-02T13:03:29Z</time>
</trkpt>
<trkpt lat="34.9416672" lon="33.5692356">
<ele>109.32</ele>
<time>2015-05-02T13:03:33Z</time>
</trkpt>
<trkpt lat="34.9417217" lon="33.5692188">
<ele>109.54</ele>
<time>2015-05-02T13:03:37Z</time>
</trkpt>
<trkpt lat="34.9417665" lon="33.5692083">
<ele>110.58</ele>
<time>2015-05-02T13:03:40Z</time>
</trkpt>
<trkpt lat="34.9418125" lon="33.5691978">
<ele>110.59</ele>
<time>2015-05-02T13:03:43Z</time>
</trkpt>
<trkpt lat="34.9418628" lon="33.5691818">
<ele>110.71</ele>
<time>2015-05-02T13:03:46Z</time>
</trkpt>
<trkpt lat="34.9419112" lon="33.5691629">
<ele>110.85</ele>
<time>2015-05-02T13:03:49Z</time>
</trkpt>
<trkpt lat="34.9419562" lon="33.5691480">
<ele>110.50</ele>
<time>2015-05-02T13:03:52Z</time>
</trkpt>
<trkpt lat="34.9420049" lon="33.5691246">
<ele>110.05</ele>
<time>2015-05-02T13:03:56Z</time>
</trkpt>
<trkpt lat="34.9420642" lon="33.5691076">
<ele>109.27</ele>
<time>2015-05-02T13:04:00Z</time>
</trkpt>
<trkpt lat="34.9421249" lon="33.5690862">
<ele>109.83</ele>
<time>2015-05-02T13:04:02Z</time>
</trkpt>
<trkpt lat="34.9422160" lon="33.5690638">
<ele>110.22</ele>
<time>2015-05-02T13:04:04Z</time>
</trkpt>
<trkpt lat="34.9422899" lon="33.5690598">
<ele>109.12</ele>
<time>2015-05-02T13:04:05Z</time>
</trkpt>
<trkpt lat="34.9423749" lon="33.5690550">
<ele>108.04</ele>
<time>2015-05-02T13:04:07Z</time>
</trkpt>
<trkpt lat="34.9424241" lon="33.5690585">
<ele>108.03</ele>
<time>2015-05-02T13:04:08Z</time>
</trkpt>
<trkpt lat="34.9424776" lon="33.5690656">
<ele>108.02</ele>
<time>2015-05-02T13:04:09Z</time>
</trkpt>
<trkpt lat="34.9425349" lon="33.5690703">
<ele>108.02</ele>
<time>2015-05-02T13:04:10Z</time>
</trkpt>
<trkpt lat="34.9425949" lon="33.5690779">
<ele>108.02</ele>
<time>2015-05-02T13:04:11Z</time>
</trkpt>
<trkpt lat="34.9426542" lon="33.5690740">
<ele>108.02</ele>
<time>2015-05-02T13:04:12Z</time>
</trkpt>
<trkpt lat="34.9427167" lon="33.5690715">
<ele>107.52</ele>
<time>2015-05-02T13:04:13Z</time>
</trkpt>
<trkpt lat="34.9427742" lon="33.5690711">
<ele>107.27</ele>
<time>2015-05-02T13:04:14Z</time>
</trkpt>
<trkpt lat="34.9428321" lon="33.5690746">
<ele>107.64</ele>
<time>2015-05-02T13:04:15Z</time>
</trkpt>
<trkpt lat="34.9428933" lon="33.5690772">
<ele>107.33</ele>
<time>2015-05-02T13:04:16Z</time>
</trkpt>
<trkpt lat="34.9429424" lon="33.5690805">
<ele>107.17</ele>
<time>2015-05-02T13:04:17Z</time>
</trkpt>
<trkpt lat="34.9429904" lon="33.5690849">
<ele>107.09</ele>
<time>2015-05-02T13:04:18Z</time>
</trkpt>
<trkpt lat="34.9430624" lon="33.5690995">
<ele>107.04</ele>
<time>2015-05-02T13:04:20Z</time>
</trkpt>
<trkpt lat="34.9431243" lon="33.5691496">
<ele>107.02</ele>
<time>2015-05-02T13:04:22Z</time>
</trkpt>
<trkpt lat="34.9431656" lon="33.5692363">
<ele>107.02</ele>
<time>2015-05-02T13:04:24Z</time>
</trkpt>
<trkpt lat="34.9432012" lon="33.5693241">
<ele>107.27</ele>
<time>2015-05-02T13:04:26Z</time>
</trkpt>
<trkpt lat="34.9432346" lon="33.5694213">
<ele>106.83</ele>
<time>2015-05-02T13:04:28Z</time>
</trkpt>
<trkpt lat="34.9432683" lon="33.5694989">
<ele>106.22</ele>
<time>2015-05-02T13:04:30Z</time>
</trkpt>
<trkpt lat="34.9433050" lon="33.5695747">
<ele>106.82</ele>
<time>2015-05-02T13:04:32Z</time>
</trkpt>
<trkpt lat="34.9433688" lon="33.5696619">
<ele>106.97</ele>
<time>2015-05-02T13:04:34Z</time>
</trkpt>
<trkpt lat="34.9434022" lon="33.5697116">
<ele>106.49</ele>
<time>2015-05-02T13:04:35Z</time>
</trkpt>
<trkpt lat="34.9434397" lon="33.5697649">
<ele>106.75</ele>
<time>2015-05-02T13:04:36Z</time>
</trkpt>
<trkpt lat="34.9434767" lon="33.5698171">
<ele>106.38</ele>
<time>2015-05-02T13:04:37Z</time>
</trkpt>
<trkpt lat="34.9435090" lon="33.5698850">
<ele>106.20</ele>
<time>2015-05-02T13:04:38Z</time>
</trkpt>
<trkpt lat="34.9435388" lon="33.5699561">
<ele>106.11</ele>
<time>2015-05-02T13:04:39Z</time>
</trkpt>
<trkpt lat="34.9435646" lon="33.5700266">
<ele>105.56</ele>
<time>2015-05-02T13:04:40Z</time>
</trkpt>
<trkpt lat="34.9436018" lon="33.5701073">
<ele>105.40</ele>
<time>2015-05-02T13:04:42Z</time>
</trkpt>
<trkpt lat="34.9436218" lon="33.5701625">
<ele>105.11</ele>
<time>2015-05-02T13:04:44Z</time>
</trkpt>
<trkpt lat="34.9436476" lon="33.5702241">
<ele>105.03</ele>
<time>2015-05-02T13:04:47Z</time>
</trkpt>
<trkpt lat="34.9436925" lon="33.5702448">
<ele>104.27</ele>
<time>2015-05-02T13:04:49Z</time>
</trkpt>
<trkpt lat="34.9437521" lon="33.5702405">
<ele>104.08</ele>
<time>2015-05-02T13:04:51Z</time>
</trkpt>
<trkpt lat="34.9437958" lon="33.5702199">
<ele>104.03</ele>
<time>2015-05-02T13:04:53Z</time>
</trkpt>
<trkpt lat="34.9438478" lon="33.5702096">
<ele>104.02</ele>
<time>2015-05-02T13:04:56Z</time>
</trkpt>
<trkpt lat="34.9438824" lon="33.5701628">
<ele>104.52</ele>
<time>2015-05-02T13:05:00Z</time>
</trkpt>
<trkpt lat="34.9438781" lon="33.5700825">
<ele>104.08</ele>
<time>2015-05-02T13:05:03Z</time>
</trkpt>
<trkpt lat="34.9439086" lon="33.5700417">
<ele>104.03</ele>
<time>2015-05-02T13:05:05Z</time>
</trkpt>
<trkpt lat="34.9439740" lon="33.5700229">
<ele>104.02</ele>
<time>2015-05-02T13:05:08Z</time>
</trkpt>
<trkpt lat="34.9440272" lon="33.5700040">
<ele>104.02</ele>
<time>2015-05-02T13:05:11Z</time>
</trkpt>
<trkpt lat="34.9440774" lon="33.5699806">
<ele>104.02</ele>
<time>2015-05-02T13:05:14Z</time>
</trkpt>
<trkpt lat="34.9441396" lon="33.5699538">
<ele>104.52</ele>
<time>2015-05-02T13:05:17Z</time>
</trkpt>
<trkpt lat="34.9441910" lon="33.5699386">
<ele>104.14</ele>
<time>2015-05-02T13:05:19Z</time>
</trkpt>
<trkpt lat="34.9442693" lon="33.5699231">
<ele>104.05</ele>
<time>2015-05-02T13:05:21Z</time>
</trkpt>
<trkpt lat="34.9443502" lon="33.5699183">
<ele>104.03</ele>
<time>2015-05-02T13:05:22Z</time>
</trkpt>
<trkpt lat="34.9444061" lon="33.5699190">
<ele>104.02</ele>
<time>2015-05-02T13:05:23Z</time>
</trkpt>
<trkpt lat="34.9444623" lon="33.5699153">
<ele>104.02</ele>
<time>2015-05-02T13:05:24Z</time>
</trkpt>
<trkpt lat="34.9445213" lon="33.5699141">
<ele>104.02</ele>
<time>2015-05-02T13:05:25Z</time>
</trkpt>
<trkpt lat="34.9445798" lon="33.5699082">
<ele>104.02</ele>
<time>2015-05-02T13:05:26Z</time>
</trkpt>
<trkpt lat="34.9446362" lon="33.5698941">
<ele>104.02</ele>
<time>2015-05-02T13:05:27Z</time>
</trkpt>
<trkpt lat="34.9446980" lon="33.5698755">
<ele>104.02</ele>
<time>2015-05-02T13:05:28Z</time>
</trkpt>
<trkpt lat="34.9447390" lon="33.5698504">
<ele>103.52</ele>
<time>2015-05-02T13:05:29Z</time>
</trkpt>
<trkpt lat="34.9447943" lon="33.5697699">
<ele>103.14</ele>
<time>2015-05-02T13:05:31Z</time>
</trkpt>
<trkpt lat="34.9448232" lon="33.5697192">
<ele>103.08</ele>
<time>2015-05-02T13:05:32Z</time>
</trkpt>
<trkpt lat="34.9448726" lon="33.5696542">
<ele>103.78</ele>
<time>2015-05-02T13:05:34Z</time>
</trkpt>
<trkpt lat="34.9449163" lon="33.5695920">
<ele>103.96</ele>
<time>2015-05-02T13:05:36Z</time>
</trkpt>
<trkpt lat="34.9449639" lon="33.5695455">
<ele>104.00</ele>
<time>2015-05-02T13:05:38Z</time>
</trkpt>
<trkpt lat="34.9450185" lon="33.5695056">
<ele>104.01</ele>
<time>2015-05-02T13:05:40Z</time>
</trkpt>
<trkpt lat="34.9450704" lon="33.5694842">
<ele>105.27</ele>
<time>2015-05-02T13:05:42Z</time>
</trkpt>
<trkpt lat="34.9451272" lon="33.5694679">
<ele>106.58</ele>
<time>2015-05-02T13:05:44Z</time>
</trkpt>
<trkpt lat="34.9451782" lon="33.5694686">
<ele>108.16</ele>
<time>2015-05-02T13:05:46Z</time>
</trkpt>
<trkpt lat="34.9452360" lon="33.5694692">
<ele>109.41</ele>
<time>2015-05-02T13:05:49Z</time>
</trkpt>
<trkpt lat="34.9452872" lon="33.5694843">
<ele>109.48</ele>
<time>2015-05-02T13:05:53Z</time>
</trkpt>
<trkpt lat="34.9453324" lon="33.5694908">
<ele>109.07</ele>
<time>2015-05-02T13:05:56Z</time>
</trkpt>
<trkpt lat="34.9453777" lon="33.5694938">
<ele>111.65</ele>
<time>2015-05-02T13:05:59Z</time>
</trkpt>
<trkpt lat="34.9454368" lon="33.5694931">
<ele>114.74</ele>
<time>2015-05-02T13:06:03Z</time>
</trkpt>
<trkpt lat="34.9454911" lon="33.5695094">
<ele>111.81</ele>
<time>2015-05-02T13:06:07Z</time>
</trkpt>
<trkpt lat="34.9455345" lon="33.5695371">
<ele>112.12</ele>
<time>2015-05-02T13:06:10Z</time>
</trkpt>
<trkpt lat="34.9455783" lon="33.5695834">
<ele>112.53</ele>
<time>2015-05-02T13:06:13Z</time>
</trkpt>
<trkpt lat="34.9456072" lon="33.5696405">
<ele>112.21</ele>
<time>2015-05-02T13:06:16Z</time>
</trkpt>
<trkpt lat="34.9456262" lon="33.5696906">
<ele>111.29</ele>
<time>2015-05-02T13:06:19Z</time>
</trkpt>
<trkpt lat="34.9456414" lon="33.5697438">
<ele>110.30</ele>
<time>2015-05-02T13:06:22Z</time>
</trkpt>
<trkpt lat="34.9456475" lon="33.5698108">
<ele>108.22</ele>
<time>2015-05-02T13:06:26Z</time>
</trkpt>
<trkpt lat="34.9456636" lon="33.5698625">
<ele>105.72</ele>
<time>2015-05-02T13:06:30Z</time>
</trkpt>
<trkpt lat="34.9456682" lon="33.5699186">
<ele>106.31</ele>
<time>2015-05-02T13:06:34Z</time>
</trkpt>
<trkpt lat="34.9456811" lon="33.5699756">
<ele>107.72</ele>
<time>2015-05-02T13:06:38Z</time>
</trkpt>
<trkpt lat="34.9457044" lon="33.5700385">
<ele>107.88</ele>
<time>2015-05-02T13:06:43Z</time>
</trkpt>
<trkpt lat="34.9457220" lon="33.5700960">
<ele>109.26</ele>
<time>2015-05-02T13:06:47Z</time>
</trkpt>
<trkpt lat="34.9457446" lon="33.5701532">
<ele>108.68</ele>
<time>2015-05-02T13:06:52Z</time>
</trkpt>
<trkpt lat="34.9457815" lon="33.5702008">
<ele>109.51</ele>
<time>2015-05-02T13:06:57Z</time>
</trkpt>
<trkpt lat="34.9458055" lon="33.5702585">
<ele>110.50</ele>
<time>2015-05-02T13:07:02Z</time>
</trkpt>
<trkpt lat="34.9458282" lon="33.5703226">
<ele>112.47</ele>
<time>2015-05-02T13:07:07Z</time>
</trkpt>
<trkpt lat="34.9458537" lon="33.5703755">
<ele>113.67</ele>
<time>2015-05-02T13:07:11Z</time>
</trkpt>
<trkpt lat="34.9458778" lon="33.5704388">
<ele>113.12</ele>
<time>2015-05-02T13:07:15Z</time>
</trkpt>
<trkpt lat="34.9458784" lon="33.5705109">
<ele>113.27</ele>
<time>2015-05-02T13:07:19Z</time>
</trkpt>
<trkpt lat="34.9458618" lon="33.5705753">
<ele>113.78</ele>
<time>2015-05-02T13:07:23Z</time>
</trkpt>
<trkpt lat="34.9458292" lon="33.5706327">
<ele>114.13</ele>
<time>2015-05-02T13:07:27Z</time>
</trkpt>
<trkpt lat="34.9457997" lon="33.5706743">
<ele>116.03</ele>
<time>2015-05-02T13:07:30Z</time>
</trkpt>
<trkpt lat="34.9457660" lon="33.5707188">
<ele>117.77</ele>
<time>2015-05-02T13:07:33Z</time>
</trkpt>
<trkpt lat="34.9457269" lon="33.5707667">
<ele>117.98</ele>
<time>2015-05-02T13:07:36Z</time>
</trkpt>
<trkpt lat="34.9456816" lon="33.5708089">
<ele>117.39</ele>
<time>2015-05-02T13:07:39Z</time>
</trkpt>
<trkpt lat="34.9456368" lon="33.5708378">
<ele>117.11</ele>
<time>2015-05-02T13:07:41Z</time>
</trkpt>
<trkpt lat="34.9455927" lon="33.5708665">
<ele>117.04</ele>
<time>2015-05-02T13:07:43Z</time>
</trkpt>
<trkpt lat="34.9455522" lon="33.5708950">
<ele>115.77</ele>
<time>2015-05-02T13:07:45Z</time>
</trkpt>
<trkpt lat="34.9455090" lon="33.5709249">
<ele>116.45</ele>
<time>2015-05-02T13:07:47Z</time>
</trkpt>
<trkpt lat="34.9454638" lon="33.5709541">
<ele>117.63</ele>
<time>2015-05-02T13:07:49Z</time>
</trkpt>
<trkpt lat="34.9454155" lon="33.5709839">
<ele>116.67</ele>
<time>2015-05-02T13:07:51Z</time>
</trkpt>
<trkpt lat="34.9453638" lon="33.5710214">
<ele>115.93</ele>
<time>2015-05-02T13:07:53Z</time>
</trkpt>
<trkpt lat="34.9453010" lon="33.5710710">
<ele>116.49</ele>
<time>2015-05-02T13:07:55Z</time>
</trkpt>
<trkpt lat="34.9452220" lon="33.5711218">
<ele>115.64</ele>
<time>2015-05-02T13:07:57Z</time>
</trkpt>
<trkpt lat="34.9451436" lon="33.5711494">
<ele>115.33</ele>
<time>2015-05-02T13:07:58Z</time>
</trkpt>
<trkpt lat="34.9450956" lon="33.5711654">
<ele>114.67</ele>
<time>2015-05-02T13:07:59Z</time>
</trkpt>
<trkpt lat="34.9450443" lon="33.5711764">
<ele>114.84</ele>
<time>2015-05-02T13:08:00Z</time>
</trkpt>
<trkpt lat="34.9449985" lon="33.5711820">
<ele>114.93</ele>
<time>2015-05-02T13:08:01Z</time>
</trkpt>
<trkpt lat="34.9449495" lon="33.5711809">
<ele>114.97</ele>
<time>2015-05-02T13:08:02Z</time>
</trkpt>
<trkpt lat="34.9448662" lon="33.5712120">
<ele>115.76</ele>
<time>2015-05-02T13:08:04Z</time>
</trkpt>
<trkpt lat="34.9448140" lon="33.5712741">
<ele>115.20</ele>
<time>2015-05-02T13:08:06Z</time>
</trkpt>
<trkpt lat="34.9448038" lon="33.5713742">
<ele>115.81</ele>
<time>2015-05-02T13:08:08Z</time>
</trkpt>
<trkpt lat="34.9447988" lon="33.5714298">
<ele>115.41</ele>
<time>2015-05-02T13:08:09Z</time>
</trkpt>
<trkpt lat="34.9447771" lon="33.5714829">
<ele>115.22</ele>
<time>2015-05-02T13:08:10Z</time>
</trkpt>
<trkpt lat="34.9447199" lon="33.5715783">
<ele>115.07</ele>
<time>2015-05-02T13:08:12Z</time>
</trkpt>
<trkpt lat="34.9446735" lon="33.5716260">
<ele>115.04</ele>
<time>2015-05-02T13:08:13Z</time>
</trkpt>
<trkpt lat="34.9446289" lon="33.5716601">
<ele>115.03</ele>
<time>2015-05-02T13:08:14Z</time>
</trkpt>
<trkpt lat="34.9445858" lon="33.5716953">
<ele>115.02</ele>
<time>2015-05-02T13:08:15Z</time>
</trkpt>
<trkpt lat="34.9445413" lon="33.5717363">
<ele>115.02</ele>
<time>2015-05-02T13:08:16Z</time>
</trkpt>
<trkpt lat="34.9445133" lon="33.5717981">
<ele>114.02</ele>
<time>2015-05-02T13:08:17Z</time>
</trkpt>
<trkpt lat="34.9444875" lon="33.5718640">
<ele>113.52</ele>
<time>2015-05-02T13:08:18Z</time>
</trkpt>
<trkpt lat="34.9444568" lon="33.5719240">
<ele>113.27</ele>
<time>2015-05-02T13:08:19Z</time>
</trkpt>
<trkpt lat="34.9444260" lon="33.5719944">
<ele>113.14</ele>
<time>2015-05-02T13:08:20Z</time>
</trkpt>
<trkpt lat="34.9444124" lon="33.5720679">
<ele>112.58</ele>
<time>2015-05-02T13:08:21Z</time>
</trkpt>
<trkpt lat="34.9443982" lon="33.5721261">
<ele>112.80</ele>
<time>2015-05-02T13:08:22Z</time>
</trkpt>
<trkpt lat="34.9443696" lon="33.5722070">
<ele>112.91</ele>
<time>2015-05-02T13:08:23Z</time>
</trkpt>
<trkpt lat="34.9443446" lon="33.5722869">
<ele>112.96</ele>
<time>2015-05-02T13:08:24Z</time>
</trkpt>
<trkpt lat="34.9443229" lon="33.5723582">
<ele>112.99</ele>
<time>2015-05-02T13:08:25Z</time>
</trkpt>
<trkpt lat="34.9443069" lon="33.5724371">
<ele>113.00</ele>
<time>2015-05-02T13:08:26Z</time>
</trkpt>
<trkpt lat="34.9442993" lon="33.5725109">
<ele>112.51</ele>
<time>2015-05-02T13:08:27Z</time>
</trkpt>
<trkpt lat="34.9443041" lon="33.5726028">
<ele>112.26</ele>
<time>2015-05-02T13:08:28Z</time>
</trkpt>
<trkpt lat="34.9443186" lon="33.5726802">
<ele>111.64</ele>
<time>2015-05-02T13:08:29Z</time>
</trkpt>
<trkpt lat="34.9443353" lon="33.5727704">
<ele>111.33</ele>
<time>2015-05-02T13:08:30Z</time>
</trkpt>
<trkpt lat="34.9443651" lon="33.5728459">
<ele>111.17</ele>
<time>2015-05-02T13:08:31Z</time>
</trkpt>
<trkpt lat="34.9443953" lon="33.5729199">
<ele>110.59</ele>
<time>2015-05-02T13:08:32Z</time>
</trkpt>
<trkpt lat="34.9444201" lon="33.5729920">
<ele>110.30</ele>
<time>2015-05-02T13:08:33Z</time>
</trkpt>
<trkpt lat="34.9444368" lon="33.5730753">
<ele>109.66</ele>
<time>2015-05-02T13:08:34Z</time>
</trkpt>
<trkpt lat="34.9444512" lon="33.5731386">
<ele>109.34</ele>
<time>2015-05-02T13:08:35Z</time>
</trkpt>
<trkpt lat="34.9444630" lon="33.5731975">
<ele>108.68</ele>
<time>2015-05-02T13:08:36Z</time>
</trkpt>
<trkpt lat="34.9444747" lon="33.5732628">
<ele>108.85</ele>
<time>2015-05-02T13:08:37Z</time>
</trkpt>
<trkpt lat="34.9444909" lon="33.5733406">
<ele>109.43</ele>
<time>2015-05-02T13:08:38Z</time>
</trkpt>
<trkpt lat="34.9445083" lon="33.5734139">
<ele>109.22</ele>
<time>2015-05-02T13:08:39Z</time>
</trkpt>
<trkpt lat="34.9445260" lon="33.5734936">
<ele>109.12</ele>
<time>2015-05-02T13:08:40Z</time>
</trkpt>
<trkpt lat="34.9445274" lon="33.5735767">
<ele>109.57</ele>
<time>2015-05-02T13:08:41Z</time>
</trkpt>
<trkpt lat="34.9445220" lon="33.5736546">
<ele>109.79</ele>
<time>2015-05-02T13:08:42Z</time>
</trkpt>
<trkpt lat="34.9445254" lon="33.5737242">
<ele>109.90</ele>
<time>2015-05-02T13:08:43Z</time>
</trkpt>
<trkpt lat="34.9445378" lon="33.5737864">
<ele>109.96</ele>
<time>2015-05-02T13:08:44Z</time>
</trkpt>
<trkpt lat="34.9445351" lon="33.5738486">
<ele>109.99</ele>
<time>2015-05-02T13:08:45Z</time>
</trkpt>
<trkpt lat="34.9445376" lon="33.5739092">
<ele>110.00</ele>
<time>2015-05-02T13:08:46Z</time>
</trkpt>
<trkpt lat="34.9445408" lon="33.5740220">
<ele>110.01</ele>
<time>2015-05-02T13:08:48Z</time>
</trkpt>
<trkpt lat="34.9445468" lon="33.5740816">
<ele>110.51</ele>
<time>2015-05-02T13:08:49Z</time>
</trkpt>
<trkpt lat="34.9445326" lon="33.5741695">
<ele>110.89</ele>
<time>2015-05-02T13:08:51Z</time>
</trkpt>
<trkpt lat="34.9445482" lon="33.5742347">
<ele>110.98</ele>
<time>2015-05-02T13:08:53Z</time>
</trkpt>
<trkpt lat="34.9445776" lon="33.5743022">
<ele>109.64</ele>
<time>2015-05-02T13:08:56Z</time>
</trkpt>
<trkpt lat="34.9445907" lon="33.5743576">
<ele>109.17</ele>
<time>2015-05-02T13:08:58Z</time>
</trkpt>
<trkpt lat="34.9446308" lon="33.5744425">
<ele>108.55</ele>
<time>2015-05-02T13:09:00Z</time>
</trkpt>
<trkpt lat="34.9446519" lon="33.5745155">
<ele>108.79</ele>
<time>2015-05-02T13:09:01Z</time>
</trkpt>
<trkpt lat="34.9446650" lon="33.5745852">
<ele>108.40</ele>
<time>2015-05-02T13:09:02Z</time>
</trkpt>
<trkpt lat="34.9446739" lon="33.5746709">
<ele>108.21</ele>
<time>2015-05-02T13:09:03Z</time>
</trkpt>
<trkpt lat="34.9446885" lon="33.5747507">
<ele>107.61</ele>
<time>2015-05-02T13:09:04Z</time>
</trkpt>
<trkpt lat="34.9447060" lon="33.5748416">
<ele>106.81</ele>
<time>2015-05-02T13:09:05Z</time>
</trkpt>
<trkpt lat="34.9447186" lon="33.5749354">
<ele>105.92</ele>
<time>2015-05-02T13:09:06Z</time>
</trkpt>
<trkpt lat="34.9447381" lon="33.5750298">
<ele>105.97</ele>
<time>2015-05-02T13:09:07Z</time>
</trkpt>
<trkpt lat="34.9447556" lon="33.5751446">
<ele>105.49</ele>
<time>2015-05-02T13:09:08Z</time>
</trkpt>
<trkpt lat="34.9447719" lon="33.5752548">
<ele>104.25</ele>
<time>2015-05-02T13:09:09Z</time>
</trkpt>
<trkpt lat="34.9447821" lon="33.5753715">
<ele>103.63</ele>
<time>2015-05-02T13:09:10Z</time>
</trkpt>
<trkpt lat="34.9447884" lon="33.5754814">
<ele>103.83</ele>
<time>2015-05-02T13:09:11Z</time>
</trkpt>
<trkpt lat="34.9447910" lon="33.5755997">
<ele>103.42</ele>
<time>2015-05-02T13:09:12Z</time>
</trkpt>
<trkpt lat="34.9447877" lon="33.5757034">
<ele>103.22</ele>
<time>2015-05-02T13:09:13Z</time>
</trkpt>
<trkpt lat="34.9447915" lon="33.5757998">
<ele>102.62</ele>
<time>2015-05-02T13:09:14Z</time>
</trkpt>
<trkpt lat="34.9447910" lon="33.5758804">
<ele>102.82</ele>
<time>2015-05-02T13:09:15Z</time>
</trkpt>
<trkpt lat="34.9447965" lon="33.5759601">
<ele>102.42</ele>
<time>2015-05-02T13:09:16Z</time>
</trkpt>
<trkpt lat="34.9448109" lon="33.5760298">
<ele>101.72</ele>
<time>2015-05-02T13:09:17Z</time>
</trkpt>
<trkpt lat="34.9448238" lon="33.5761059">
<ele>101.37</ele>
<time>2015-05-02T13:09:18Z</time>
</trkpt>
<trkpt lat="34.9448403" lon="33.5761714">
<ele>100.69</ele>
<time>2015-05-02T13:09:19Z</time>
</trkpt>
<trkpt lat="34.9448647" lon="33.5762372">
<ele>100.35</ele>
<time>2015-05-02T13:09:20Z</time>
</trkpt>
<trkpt lat="34.9449041" lon="33.5762985">
<ele>100.35</ele>
<time>2015-05-02T13:09:22Z</time>
</trkpt>
<trkpt lat="34.9449635" lon="33.5763074">
<ele>101.10</ele>
<time>2015-05-02T13:09:24Z</time>
</trkpt>
<trkpt lat="34.9450208" lon="33.5762939">
<ele>101.54</ele>
<time>2015-05-02T13:09:26Z</time>
</trkpt>
<trkpt lat="34.9450741" lon="33.5762683">
<ele>102.90</ele>
<time>2015-05-02T13:09:28Z</time>
</trkpt>
<trkpt lat="34.9451405" lon="33.5762205">
<ele>102.99</ele>
<time>2015-05-02T13:09:30Z</time>
</trkpt>
<trkpt lat="34.9452278" lon="33.5761662">
<ele>103.76</ele>
<time>2015-05-02T13:09:32Z</time>
</trkpt>
<trkpt lat="34.9452679" lon="33.5761393">
<ele>103.39</ele>
<time>2015-05-02T13:09:33Z</time>
</trkpt>
<trkpt lat="34.9453463" lon="33.5761382">
<ele>102.61</ele>
<time>2015-05-02T13:09:35Z</time>
</trkpt>
<trkpt lat="34.9454290" lon="33.5761835">
<ele>102.91</ele>
<time>2015-05-02T13:09:37Z</time>
</trkpt>
<trkpt lat="34.9454727" lon="33.5762224">
<ele>100.97</ele>
<time>2015-05-02T13:09:38Z</time>
</trkpt>
<trkpt lat="34.9455377" lon="33.5762577">
<ele>99.25</ele>
<time>2015-05-02T13:09:40Z</time>
</trkpt>
<trkpt lat="34.9455894" lon="33.5762740">
<ele>98.33</ele>
<time>2015-05-02T13:09:42Z</time>
</trkpt>
<trkpt lat="34.9456459" lon="33.5762548">
<ele>97.84</ele>
<time>2015-05-02T13:09:44Z</time>
</trkpt>
<trkpt lat="34.9457066" lon="33.5761896">
<ele>98.72</ele>
<time>2015-05-02T13:09:46Z</time>
</trkpt>
<trkpt lat="34.9457405" lon="33.5761495">
<ele>98.87</ele>
<time>2015-05-02T13:09:47Z</time>
</trkpt>
<trkpt lat="34.9458257" lon="33.5761500">
<ele>99.73</ele>
<time>2015-05-02T13:09:49Z</time>
</trkpt>
<trkpt lat="34.9458811" lon="33.5762078">
<ele>99.69</ele>
<time>2015-05-02T13:09:51Z</time>
</trkpt>
<trkpt lat="34.9459159" lon="33.5762920">
<ele>98.44</ele>
<time>2015-05-02T13:09:53Z</time>
</trkpt>
<trkpt lat="34.9459467" lon="33.5763896">
<ele>97.37</ele>
<time>2015-05-02T13:09:55Z</time>
</trkpt>
<trkpt lat="34.9459832" lon="33.5764727">
<ele>97.35</ele>
<time>2015-05-02T13:09:57Z</time>
</trkpt>
<trkpt lat="34.9460443" lon="33.5764874">
<ele>97.10</ele>
<time>2015-05-02T13:09:59Z</time>
</trkpt>
<trkpt lat="34.9460976" lon="33.5764464">
<ele>96.54</ele>
<time>2015-05-02T13:10:01Z</time>
</trkpt>
<trkpt lat="34.9461461" lon="33.5763642">
<ele>95.65</ele>
<time>2015-05-02T13:10:03Z</time>
</trkpt>
<trkpt lat="34.9461951" lon="33.5763023">
<ele>95.17</ele>
<time>2015-05-02T13:10:05Z</time>
</trkpt>
<trkpt lat="34.9462441" lon="33.5762291">
<ele>95.56</ele>
<time>2015-05-02T13:10:07Z</time>
</trkpt>
<trkpt lat="34.9463017" lon="33.5761420">
<ele>96.40</ele>
<time>2015-05-02T13:10:09Z</time>
</trkpt>
<trkpt lat="34.9463363" lon="33.5760461">
<ele>96.36</ele>
<time>2015-05-02T13:10:11Z</time>
</trkpt>
<trkpt lat="34.9463470" lon="33.5759900">
<ele>96.19</ele>
<time>2015-05-02T13:10:12Z</time>
</trkpt>
<trkpt lat="34.9463526" lon="33.5759343">
<ele>96.10</ele>
<time>2015-05-02T13:10:13Z</time>
</trkpt>
<trkpt lat="34.9463728" lon="33.5758500">
<ele>95.79</ele>
<time>2015-05-02T13:10:15Z</time>
</trkpt>
<trkpt lat="34.9464102" lon="33.5757779">
<ele>97.96</ele>
<time>2015-05-02T13:10:17Z</time>
</trkpt>
<trkpt lat="34.9464649" lon="33.5757500">
<ele>98.50</ele>
<time>2015-05-02T13:10:19Z</time>
</trkpt>
<trkpt lat="34.9465059" lon="33.5757158">
<ele>96.89</ele>
<time>2015-05-02T13:10:21Z</time>
</trkpt>
<trkpt lat="34.9465455" lon="33.5756697">
<ele>95.25</ele>
<time>2015-05-02T13:10:24Z</time>
</trkpt>
<trkpt lat="34.9465752" lon="33.5756137">
<ele>96.92</ele>
<time>2015-05-02T13:10:27Z</time>
</trkpt>
<trkpt lat="34.9465649" lon="33.5755556">
<ele>97.74</ele>
<time>2015-05-02T13:10:29Z</time>
</trkpt>
<trkpt lat="34.9465262" lon="33.5754936">
<ele>97.45</ele>
<time>2015-05-02T13:10:31Z</time>
</trkpt>
<trkpt lat="34.9464812" lon="33.5754286">
<ele>97.12</ele>
<time>2015-05-02T13:10:33Z</time>
</trkpt>
<trkpt lat="34.9464425" lon="33.5753760">
<ele>99.04</ele>
<time>2015-05-02T13:10:35Z</time>
</trkpt>
<trkpt lat="34.9464089" lon="33.5753351">
<ele>99.27</ele>
<time>2015-05-02T13:10:37Z</time>
</trkpt>
<trkpt lat="34.9463628" lon="33.5752758">
<ele>99.05</ele>
<time>2015-05-02T13:10:40Z</time>
</trkpt>
<trkpt lat="34.9463291" lon="33.5752299">
<ele>99.77</ele>
<time>2015-05-02T13:10:42Z</time>
</trkpt>
<trkpt lat="34.9463412" lon="33.5751586">
<ele>99.21</ele>
<time>2015-05-02T13:10:44Z</time>
</trkpt>
<trkpt lat="34.9463856" lon="33.5751052">
<ele>99.56</ele>
<time>2015-05-02T13:10:46Z</time>
</trkpt>
<trkpt lat="34.9464604" lon="33.5750648">
<ele>99.40</ele>
<time>2015-05-02T13:10:48Z</time>
</trkpt>
<trkpt lat="34.9465036" lon="33.5750448">
<ele>99.21</ele>
<time>2015-05-02T13:10:49Z</time>
</trkpt>
<trkpt lat="34.9465797" lon="33.5750080">
<ele>98.61</ele>
<time>2015-05-02T13:10:50Z</time>
</trkpt>
<trkpt lat="34.9466680" lon="33.5749530">
<ele>98.42</ele>
<time>2015-05-02T13:10:52Z</time>
</trkpt>
<trkpt lat="34.9467298" lon="33.5748849">
<ele>97.87</ele>
<time>2015-05-02T13:10:54Z</time>
</trkpt>
<trkpt lat="34.9467578" lon="33.5748413">
<ele>96.94</ele>
<time>2015-05-02T13:10:55Z</time>
</trkpt>
<trkpt lat="34.9467825" lon="33.5747916">
<ele>96.48</ele>
<time>2015-05-02T13:10:56Z</time>
</trkpt>
<trkpt lat="34.9468118" lon="33.5747246">
<ele>96.75</ele>
<time>2015-05-02T13:10:57Z</time>
</trkpt>
<trkpt lat="34.9468365" lon="33.5746522">
<ele>96.88</ele>
<time>2015-05-02T13:10:58Z</time>
</trkpt>
<trkpt lat="34.9468676" lon="33.5745912">
<ele>96.45</ele>
<time>2015-05-02T13:10:59Z</time>
</trkpt>
<trkpt lat="34.9468978" lon="33.5745252">
<ele>95.73</ele>
<time>2015-05-02T13:11:00Z</time>
</trkpt>
<trkpt lat="34.9469208" lon="33.5744561">
<ele>95.37</ele>
<time>2015-05-02T13:11:01Z</time>
</trkpt>
<trkpt lat="34.9469389" lon="33.5744036">
<ele>96.20</ele>
<time>2015-05-02T13:11:02Z</time>
</trkpt>
<trkpt lat="34.9469776" lon="33.5743146">
<ele>97.06</ele>
<time>2015-05-02T13:11:04Z</time>
</trkpt>
<trkpt lat="34.9470140" lon="33.5742294">
<ele>98.53</ele>
<time>2015-05-02T13:11:06Z</time>
</trkpt>
<trkpt lat="34.9470595" lon="33.5741644">
<ele>97.89</ele>
<time>2015-05-02T13:11:08Z</time>
</trkpt>
<trkpt lat="34.9470869" lon="33.5741048">
<ele>96.49</ele>
<time>2015-05-02T13:11:10Z</time>
</trkpt>
<trkpt lat="34.9470873" lon="33.5740359">
<ele>96.63</ele>
<time>2015-05-02T13:11:12Z</time>
</trkpt>
<trkpt lat="34.9470626" lon="33.5739624">
<ele>96.92</ele>
<time>2015-05-02T13:11:14Z</time>
</trkpt>
<trkpt lat="34.9470062" lon="33.5738632">
<ele>97.49</ele>
<time>2015-05-02T13:11:16Z</time>
</trkpt>
<trkpt lat="34.9469732" lon="33.5738171">
<ele>97.25</ele>
<time>2015-05-02T13:11:17Z</time>
</trkpt>
<trkpt lat="34.9469542" lon="33.5737659">
<ele>96.14</ele>
<time>2015-05-02T13:11:18Z</time>
</trkpt>
<trkpt lat="34.9469518" lon="33.5737107">
<ele>96.08</ele>
<time>2015-05-02T13:11:19Z</time>
</trkpt>
<trkpt lat="34.9469660" lon="33.5736537">
<ele>95.55</ele>
<time>2015-05-02T13:11:20Z</time>
</trkpt>
<trkpt lat="34.9469787" lon="33.5735904">
<ele>95.28</ele>
<time>2015-05-02T13:11:21Z</time>
</trkpt>
<trkpt lat="34.9469922" lon="33.5735349">
<ele>95.15</ele>
<time>2015-05-02T13:11:22Z</time>
</trkpt>
<trkpt lat="34.9470254" lon="33.5734346">
<ele>97.30</ele>
<time>2015-05-02T13:11:24Z</time>
</trkpt>
<trkpt lat="34.9470134" lon="33.5733674">
<ele>96.66</ele>
<time>2015-05-02T13:11:25Z</time>
</trkpt>
<trkpt lat="34.9470087" lon="33.5733081">
<ele>96.34</ele>
<time>2015-05-02T13:11:26Z</time>
</trkpt>
<trkpt lat="34.9470114" lon="33.5732519">
<ele>96.18</ele>
<time>2015-05-02T13:11:27Z</time>
</trkpt>
<trkpt lat="34.9470114" lon="33.5731888">
<ele>96.60</ele>
<time>2015-05-02T13:11:28Z</time>
</trkpt>
<trkpt lat="34.9470224" lon="33.5731248">
<ele>96.81</ele>
<time>2015-05-02T13:11:29Z</time>
</trkpt>
<trkpt lat="34.9470303" lon="33.5730638">
<ele>96.91</ele>
<time>2015-05-02T13:11:30Z</time>
</trkpt>
<trkpt lat="34.9470344" lon="33.5729985">
<ele>96.46</ele>
<time>2015-05-02T13:11:31Z</time>
</trkpt>
<trkpt lat="34.9470426" lon="33.5729375">
<ele>96.24</ele>
<time>2015-05-02T13:11:32Z</time>
</trkpt>
<trkpt lat="34.9470361" lon="33.5728403">
<ele>98.57</ele>
<time>2015-05-02T13:11:34Z</time>
</trkpt>
<trkpt lat="34.9470290" lon="33.5727360">
<ele>99.90</ele>
<time>2015-05-02T13:11:36Z</time>
</trkpt>
<trkpt lat="34.9470121" lon="33.5726544">
<ele>101.24</ele>
<time>2015-05-02T13:11:38Z</time>
</trkpt>
<trkpt lat="34.9469973" lon="33.5725718">
<ele>102.57</ele>
<time>2015-05-02T13:11:40Z</time>
</trkpt>
<trkpt lat="34.9470037" lon="33.5724914">
<ele>100.40</ele>
<time>2015-05-02T13:11:42Z</time>
</trkpt>
<trkpt lat="34.9470200" lon="33.5724170">
<ele>99.86</ele>
<time>2015-05-02T13:11:44Z</time>
</trkpt>
<trkpt lat="34.9470437" lon="33.5723470">
<ele>99.98</ele>
<time>2015-05-02T13:11:46Z</time>
</trkpt>
<trkpt lat="34.9470682" lon="33.5722774">
<ele>98.26</ele>
<time>2015-05-02T13:11:48Z</time>
</trkpt>
<trkpt lat="34.9470815" lon="33.5722033">
<ele>97.83</ele>
<time>2015-05-02T13:11:50Z</time>
</trkpt>
<trkpt lat="34.9470800" lon="33.5721333">
<ele>98.97</ele>
<time>2015-05-02T13:11:52Z</time>
</trkpt>
<trkpt lat="34.9470790" lon="33.5720691">
<ele>98.50</ele>
<time>2015-05-02T13:11:54Z</time>
</trkpt>
<trkpt lat="34.9470826" lon="33.5720080">
<ele>95.64</ele>
<time>2015-05-02T13:11:56Z</time>
</trkpt>
<trkpt lat="34.9470983" lon="33.5719279">
<ele>95.34</ele>
<time>2015-05-02T13:11:59Z</time>
</trkpt>
<trkpt lat="34.9470854" lon="33.5718647">
<ele>100.74</ele>
<time>2015-05-02T13:12:05Z</time>
</trkpt>
<trkpt lat="34.9470786" lon="33.5717952">
<ele>102.06</ele>
<time>2015-05-02T13:12:09Z</time>
</trkpt>
<trkpt lat="34.9470796" lon="33.5717346">
<ele>103.02</ele>
<time>2015-05-02T13:12:12Z</time>
</trkpt>
<trkpt lat="34.9470892" lon="33.5716663">
<ele>103.27</ele>
<time>2015-05-02T13:12:15Z</time>
</trkpt>
<trkpt lat="34.9471091" lon="33.5715938">
<ele>101.30</ele>
<time>2015-05-02T13:12:18Z</time>
</trkpt>
<trkpt lat="34.9471280" lon="33.5715212">
<ele>103.80</ele>
<time>2015-05-02T13:12:21Z</time>
</trkpt>
<trkpt lat="34.9471344" lon="33.5714439">
<ele>105.74</ele>
<time>2015-05-02T13:12:24Z</time>
</trkpt>
<trkpt lat="34.9471384" lon="33.5713892">
<ele>105.20</ele>
<time>2015-05-02T13:12:26Z</time>
</trkpt>
<trkpt lat="34.9471285" lon="33.5713075">
<ele>106.29</ele>
<time>2015-05-02T13:12:29Z</time>
</trkpt>
<trkpt lat="34.9471191" lon="33.5712325">
<ele>105.18</ele>
<time>2015-05-02T13:12:32Z</time>
</trkpt>
<trkpt lat="34.9471030" lon="33.5711623">
<ele>105.04</ele>
<time>2015-05-02T13:12:35Z</time>
</trkpt>
<trkpt lat="34.9470792" lon="33.5711009">
<ele>104.27</ele>
<time>2015-05-02T13:12:37Z</time>
</trkpt>
<trkpt lat="34.9470462" lon="33.5710355">
<ele>103.58</ele>
<time>2015-05-02T13:12:39Z</time>
</trkpt>
<trkpt lat="34.9470038" lon="33.5709774">
<ele>102.16</ele>
<time>2015-05-02T13:12:41Z</time>
</trkpt>
<trkpt lat="34.9469623" lon="33.5709250">
<ele>98.55</ele>
<time>2015-05-02T13:12:43Z</time>
</trkpt>
<trkpt lat="34.9469205" lon="33.5708726">
<ele>98.65</ele>
<time>2015-05-02T13:12:45Z</time>
</trkpt>
<trkpt lat="34.9468740" lon="33.5708287">
<ele>99.67</ele>
<time>2015-05-02T13:12:47Z</time>
</trkpt>
<trkpt lat="34.9468303" lon="33.5707844">
<ele>100.68</ele>
<time>2015-05-02T13:12:49Z</time>
</trkpt>
<trkpt lat="34.9467887" lon="33.5707280">
<ele>99.68</ele>
<time>2015-05-02T13:12:51Z</time>
</trkpt>
<trkpt lat="34.9467432" lon="33.5706590">
<ele>99.18</ele>
<time>2015-05-02T13:12:53Z</time>
</trkpt>
<trkpt lat="34.9466886" lon="33.5705876">
<ele>98.56</ele>
<time>2015-05-02T13:12:55Z</time>
</trkpt>
<trkpt lat="34.9466325" lon="33.5705115">
<ele>98.15</ele>
<time>2015-05-02T13:12:57Z</time>
</trkpt>
<trkpt lat="34.9465925" lon="33.5704341">
<ele>98.80</ele>
<time>2015-05-02T13:12:59Z</time>
</trkpt>
<trkpt lat="34.9465559" lon="33.5703569">
<ele>101.71</ele>
<time>2015-05-02T13:13:01Z</time>
</trkpt>
<trkpt lat="34.9465232" lon="33.5702991">
<ele>101.69</ele>
<time>2015-05-02T13:13:03Z</time>
</trkpt>
<trkpt lat="34.9465059" lon="33.5702334">
<ele>102.68</ele>
<time>2015-05-02T13:13:05Z</time>
</trkpt>
<trkpt lat="34.9464846" lon="33.5701599">
<ele>103.68</ele>
<time>2015-05-02T13:13:07Z</time>
</trkpt>
<trkpt lat="34.9464288" lon="33.5701017">
<ele>105.18</ele>
<time>2015-05-02T13:13:09Z</time>
</trkpt>
<trkpt lat="34.9463507" lon="33.5700733">
<ele>106.06</ele>
<time>2015-05-02T13:13:11Z</time>
</trkpt>
<trkpt lat="34.9462346" lon="33.5700288">
<ele>105.03</ele>
<time>2015-05-02T13:13:13Z</time>
</trkpt>
<trkpt lat="34.9461632" lon="33.5699735">
<ele>103.52</ele>
<time>2015-05-02T13:13:15Z</time>
</trkpt>
<trkpt lat="34.9461283" lon="33.5699258">
<ele>103.27</ele>
<time>2015-05-02T13:13:16Z</time>
</trkpt>
<trkpt lat="34.9460955" lon="33.5698877">
<ele>103.14</ele>
<time>2015-05-02T13:13:17Z</time>
</trkpt>
<trkpt lat="34.9460739" lon="33.5697664">
<ele>99.55</ele>
<time>2015-05-02T13:13:19Z</time>
</trkpt>
<trkpt lat="34.9460736" lon="33.5696995">
<ele>97.28</ele>
<time>2015-05-02T13:13:20Z</time>
</trkpt>
<trkpt lat="34.9460950" lon="33.5696313">
<ele>94.15</ele>
<time>2015-05-02T13:13:21Z</time>
</trkpt>
<trkpt lat="34.9461151" lon="33.5695531">
<ele>91.58</ele>
<time>2015-05-02T13:13:22Z</time>
</trkpt>
<trkpt lat="34.9461340" lon="33.5694849">
<ele>89.80</ele>
<time>2015-05-02T13:13:23Z</time>
</trkpt>
<trkpt lat="34.9461480" lon="33.5694260">
<ele>88.41</ele>
<time>2015-05-02T13:13:24Z</time>
</trkpt>
<trkpt lat="34.9461756" lon="33.5693526">
<ele>87.11</ele>
<time>2015-05-02T13:13:26Z</time>
</trkpt>
<trkpt lat="34.9461978" lon="33.5692951">
<ele>86.29</ele>
<time>2015-05-02T13:13:28Z</time>
</trkpt>
<trkpt lat="34.9462172" lon="33.5692291">
<ele>83.43</ele>
<time>2015-05-02T13:13:31Z</time>
</trkpt>
<trkpt lat="34.9462049" lon="33.5691604">
<ele>82.19</ele>
<time>2015-05-02T13:13:34Z</time>
</trkpt>
<trkpt lat="34.9461581" lon="33.5690946">
<ele>81.81</ele>
<time>2015-05-02T13:13:36Z</time>
</trkpt>
<trkpt lat="34.9460962" lon="33.5689855">
<ele>81.96</ele>
<time>2015-05-02T13:13:38Z</time>
</trkpt>
<trkpt lat="34.9460728" lon="33.5689382">
<ele>81.49</ele>
<time>2015-05-02T13:13:39Z</time>
</trkpt>
<trkpt lat="34.9460453" lon="33.5688945">
<ele>81.75</ele>
<time>2015-05-02T13:13:40Z</time>
</trkpt>
<trkpt lat="34.9459946" lon="33.5688147">
<ele>81.95</ele>
<time>2015-05-02T13:13:42Z</time>
</trkpt>
<trkpt lat="34.9459601" lon="33.5687466">
<ele>82.75</ele>
<time>2015-05-02T13:13:44Z</time>
</trkpt>
<trkpt lat="34.9459214" lon="33.5686723">
<ele>83.45</ele>
<time>2015-05-02T13:13:46Z</time>
</trkpt>
<trkpt lat="34.9458898" lon="33.5685944">
<ele>83.87</ele>
<time>2015-05-02T13:13:48Z</time>
</trkpt>
<trkpt lat="34.9458582" lon="33.5685124">
<ele>82.73</ele>
<time>2015-05-02T13:13:50Z</time>
</trkpt>
<trkpt lat="34.9458060" lon="33.5684259">
<ele>81.44</ele>
<time>2015-05-02T13:13:52Z</time>
</trkpt>
<trkpt lat="34.9457651" lon="33.5683872">
<ele>80.73</ele>
<time>2015-05-02T13:13:53Z</time>
</trkpt>
<trkpt lat="34.9457106" lon="33.5683650">
<ele>80.37</ele>
<time>2015-05-02T13:13:54Z</time>
</trkpt>
<trkpt lat="34.9456642" lon="33.5683659">
<ele>80.19</ele>
<time>2015-05-02T13:13:55Z</time>
</trkpt>
<trkpt lat="34.9456159" lon="33.5683845">
<ele>80.11</ele>
<time>2015-05-02T13:13:56Z</time>
</trkpt>
<trkpt lat="34.9455703" lon="33.5684169">
<ele>80.06</ele>
<time>2015-05-02T13:13:57Z</time>
</trkpt>
<trkpt lat="34.9454938" lon="33.5684826">
<ele>80.03</ele>
<time>2015-05-02T13:13:59Z</time>
</trkpt>
<trkpt lat="34.9454523" lon="33.5685101">
<ele>80.02</ele>
<time>2015-05-02T13:14:00Z</time>
</trkpt>
<trkpt lat="34.9453653" lon="33.5685409">
<ele>80.77</ele>
<time>2015-05-02T13:14:02Z</time>
</trkpt>
<trkpt lat="34.9452847" lon="33.5685525">
<ele>81.70</ele>
<time>2015-05-02T13:14:04Z</time>
</trkpt>
<trkpt lat="34.9452184" lon="33.5685600">
<ele>81.94</ele>
<time>2015-05-02T13:14:06Z</time>
</trkpt>
<trkpt lat="34.9451510" lon="33.5685757">
<ele>81.50</ele>
<time>2015-05-02T13:14:08Z</time>
</trkpt>
<trkpt lat="34.9450941" lon="33.5686234">
<ele>81.14</ele>
<time>2015-05-02T13:14:10Z</time>
</trkpt>
<trkpt lat="34.9450522" lon="33.5687022">
<ele>80.30</ele>
<time>2015-05-02T13:14:12Z</time>
</trkpt>
<trkpt lat="34.9450116" lon="33.5687866">
<ele>80.09</ele>
<time>2015-05-02T13:14:14Z</time>
</trkpt>
<trkpt lat="34.9449790" lon="33.5688677">
<ele>80.03</ele>
<time>2015-05-02T13:14:16Z</time>
</trkpt>
<trkpt lat="34.9449472" lon="33.5689318">
<ele>79.77</ele>
<time>2015-05-02T13:14:18Z</time>
</trkpt>
<trkpt lat="34.9449090" lon="33.5690036">
<ele>81.20</ele>
<time>2015-05-02T13:14:20Z</time>
</trkpt>
<trkpt lat="34.9448741" lon="33.5690842">
<ele>81.31</ele>
<time>2015-05-02T13:14:22Z</time>
</trkpt>
<trkpt lat="34.9448454" lon="33.5691616">
<ele>81.09</ele>
<time>2015-05-02T13:14:24Z</time>
</trkpt>
<trkpt lat="34.9448252" lon="33.5692310">
<ele>81.03</ele>
<time>2015-05-02T13:14:26Z</time>
</trkpt>
<trkpt lat="34.9448067" lon="33.5692873">
<ele>80.52</ele>
<time>2015-05-02T13:14:28Z</time>
</trkpt>
<trkpt lat="34.9447569" lon="33.5693228">
<ele>82.14</ele>
<time>2015-05-02T13:14:30Z</time>
</trkpt>
<trkpt lat="34.9446924" lon="33.5693056">
<ele>83.55</ele>
<time>2015-05-02T13:14:32Z</time>
</trkpt>
<trkpt lat="34.9446264" lon="33.5692801">
<ele>82.40</ele>
<time>2015-05-02T13:14:34Z</time>
</trkpt>
<trkpt lat="34.9445432" lon="33.5692654">
<ele>82.61</ele>
<time>2015-05-02T13:14:36Z</time>
</trkpt>
<trkpt lat="34.9444642" lon="33.5692896">
<ele>82.91</ele>
<time>2015-05-02T13:14:38Z</time>
</trkpt>
<trkpt lat="34.9444055" lon="33.5693337">
<ele>84.24</ele>
<time>2015-05-02T13:14:40Z</time>
</trkpt>
<trkpt lat="34.9443651" lon="33.5693746">
<ele>85.32</ele>
<time>2015-05-02T13:14:42Z</time>
</trkpt>
<trkpt lat="34.9443248" lon="33.5694140">
<ele>86.84</ele>
<time>2015-05-02T13:14:44Z</time>
</trkpt>
<trkpt lat="34.9442838" lon="33.5694558">
<ele>87.72</ele>
<time>2015-05-02T13:14:46Z</time>
</trkpt>
<trkpt lat="34.9442387" lon="33.5694972">
<ele>87.94</ele>
<time>2015-05-02T13:14:48Z</time>
</trkpt>
<trkpt lat="34.9441934" lon="33.5695298">
<ele>88.75</ele>
<time>2015-05-02T13:14:50Z</time>
</trkpt>
<trkpt lat="34.9441447" lon="33.5695464">
<ele>88.98</ele>
<time>2015-05-02T13:14:53Z</time>
</trkpt>
<trkpt lat="34.9440968" lon="33.5695527">
<ele>88.51</ele>
<time>2015-05-02T13:14:57Z</time>
</trkpt>
<trkpt lat="34.9440526" lon="33.5695737">
<ele>88.83</ele>
<time>2015-05-02T13:15:00Z</time>
</trkpt>
<trkpt lat="34.9440134" lon="33.5696056">
<ele>88.99</ele>
<time>2015-05-02T13:15:03Z</time>
</trkpt>
<trkpt lat="34.9439811" lon="33.5696491">
<ele>89.76</ele>
<time>2015-05-02T13:15:06Z</time>
</trkpt>
<trkpt lat="34.9439594" lon="33.5696974">
<ele>90.61</ele>
<time>2015-05-02T13:15:09Z</time>
</trkpt>
<trkpt lat="34.9439444" lon="33.5697610">
<ele>89.24</ele>
<time>2015-05-02T13:15:13Z</time>
</trkpt>
<trkpt lat="34.9439338" lon="33.5698245">
<ele>90.47</ele>
<time>2015-05-02T13:15:17Z</time>
</trkpt>
<trkpt lat="34.9439197" lon="33.5698784">
<ele>91.70</ele>
<time>2015-05-02T13:15:20Z</time>
</trkpt>
<trkpt lat="34.9439021" lon="33.5699322">
<ele>91.98</ele>
<time>2015-05-02T13:15:23Z</time>
</trkpt>
<trkpt lat="34.9438886" lon="33.5699914">
<ele>92.51</ele>
<time>2015-05-02T13:15:26Z</time>
</trkpt>
<trkpt lat="34.9438720" lon="33.5700506">
<ele>92.58</ele>
<time>2015-05-02T13:15:29Z</time>
</trkpt>
<trkpt lat="34.9438574" lon="33.5701030">
<ele>93.71</ele>
<time>2015-05-02T13:15:32Z</time>
</trkpt>
<trkpt lat="34.9438412" lon="33.5701601">
<ele>94.85</ele>
<time>2015-05-02T13:15:35Z</time>
</trkpt>
<trkpt lat="34.9438332" lon="33.5702220">
<ele>94.87</ele>
<time>2015-05-02T13:15:38Z</time>
</trkpt>
<trkpt lat="34.9438227" lon="33.5702917">
<ele>94.94</ele>
<time>2015-05-02T13:15:42Z</time>
</trkpt>
<trkpt lat="34.9438245" lon="33.5703721">
<ele>95.01</ele>
<time>2015-05-02T13:15:45Z</time>
</trkpt>
<trkpt lat="34.9438442" lon="33.5704558">
<ele>95.51</ele>
<time>2015-05-02T13:15:47Z</time>
</trkpt>
<trkpt lat="34.9438755" lon="33.5705406">
<ele>95.39</ele>
<time>2015-05-02T13:15:49Z</time>
</trkpt>
<trkpt lat="34.9439038" lon="33.5706240">
<ele>95.11</ele>
<time>2015-05-02T13:15:51Z</time>
</trkpt>
<trkpt lat="34.9439284" lon="33.5707132">
<ele>94.54</ele>
<time>2015-05-02T13:15:53Z</time>
</trkpt>
<trkpt lat="34.9439560" lon="33.5707982">
<ele>94.90</ele>
<time>2015-05-02T13:15:55Z</time>
</trkpt>
<trkpt lat="34.9439941" lon="33.5708768">
<ele>94.74</ele>
<time>2015-05-02T13:15:57Z</time>
</trkpt>
<trkpt lat="34.9440367" lon="33.5709470">
<ele>94.20</ele>
<time>2015-05-02T13:15:59Z</time>
</trkpt>
<trkpt lat="34.9440798" lon="33.5710178">
<ele>94.31</ele>
<time>2015-05-02T13:16:01Z</time>
</trkpt>
<trkpt lat="34.9441151" lon="33.5710911">
<ele>94.84</ele>
<time>2015-05-02T13:16:03Z</time>
</trkpt>
<trkpt lat="34.9441450" lon="33.5711717">
<ele>94.97</ele>
<time>2015-05-02T13:16:05Z</time>
</trkpt>
<trkpt lat="34.9441764" lon="33.5712563">
<ele>95.00</ele>
<time>2015-05-02T13:16:07Z</time>
</trkpt>
<trkpt lat="34.9442029" lon="33.5713433">
<ele>95.01</ele>
<time>2015-05-02T13:16:09Z</time>
</trkpt>
<trkpt lat="34.9442255" lon="33.5714278">
<ele>95.77</ele>
<time>2015-05-02T13:16:11Z</time>
</trkpt>
<trkpt lat="34.9442454" lon="33.5715233">
<ele>95.95</ele>
<time>2015-05-02T13:16:13Z</time>
</trkpt>
<trkpt lat="34.9442574" lon="33.5716198">
<ele>96.75</ele>
<time>2015-05-02T13:16:15Z</time>
</trkpt>
<trkpt lat="34.9442643" lon="33.5717142">
<ele>96.20</ele>
<time>2015-05-02T13:16:17Z</time>
</trkpt>
<trkpt lat="34.9442606" lon="33.5718032">
<ele>96.06</ele>
<time>2015-05-02T13:16:19Z</time>
</trkpt>
<trkpt lat="34.9442462" lon="33.5719000">
<ele>96.78</ele>
<time>2015-05-02T13:16:21Z</time>
</trkpt>
<trkpt lat="34.9442301" lon="33.5719862">
<ele>96.46</ele>
<time>2015-05-02T13:16:23Z</time>
</trkpt>
<trkpt lat="34.9442238" lon="33.5720716">
<ele>96.13</ele>
<time>2015-05-02T13:16:25Z</time>
</trkpt>
<trkpt lat="34.9442160" lon="33.5721579">
<ele>96.04</ele>
<time>2015-05-02T13:16:27Z</time>
</trkpt>
<trkpt lat="34.9442002" lon="33.5722518">
<ele>96.77</ele>
<time>2015-05-02T13:16:29Z</time>
</trkpt>
<trkpt lat="34.9441802" lon="33.5723377">
<ele>96.96</ele>
<time>2015-05-02T13:16:31Z</time>
</trkpt>
<trkpt lat="34.9441652" lon="33.5724315">
<ele>97.50</ele>
<time>2015-05-02T13:16:33Z</time>
</trkpt>
<trkpt lat="34.9441620" lon="33.5725234">
<ele>97.39</ele>
<time>2015-05-02T13:16:35Z</time>
</trkpt>
<trkpt lat="34.9441805" lon="33.5725746">
<ele>97.20</ele>
<time>2015-05-02T13:16:36Z</time>
</trkpt>
<trkpt lat="34.9442091" lon="33.5726212">
<ele>96.61</ele>
<time>2015-05-02T13:16:37Z</time>
</trkpt>
<trkpt lat="34.9442480" lon="33.5726534">
<ele>96.81</ele>
<time>2015-05-02T13:16:38Z</time>
</trkpt>
<trkpt lat="34.9443092" lon="33.5727273">
<ele>96.22</ele>
<time>2015-05-02T13:16:40Z</time>
</trkpt>
<trkpt lat="34.9443648" lon="33.5728015">
<ele>96.82</ele>
<time>2015-05-02T13:16:42Z</time>
</trkpt>
<trkpt lat="34.9444126" lon="33.5728858">
<ele>97.47</ele>
<time>2015-05-02T13:16:44Z</time>
</trkpt>
<trkpt lat="34.9444260" lon="33.5729425">
<ele>97.74</ele>
<time>2015-05-02T13:16:45Z</time>
</trkpt>
<trkpt lat="34.9444558" lon="33.5730483">
<ele>97.95</ele>
<time>2015-05-02T13:16:47Z</time>
</trkpt>
<trkpt lat="34.9444668" lon="33.5731045">
<ele>97.98</ele>
<time>2015-05-02T13:16:48Z</time>
</trkpt>
<trkpt lat="34.9444722" lon="33.5731601">
<ele>98.50</ele>
<time>2015-05-02T13:16:49Z</time>
</trkpt>
<trkpt lat="34.9444854" lon="33.5732566">
<ele>98.89</ele>
<time>2015-05-02T13:16:51Z</time>
</trkpt>
<trkpt lat="34.9444977" lon="33.5733150">
<ele>99.45</ele>
<time>2015-05-02T13:16:52Z</time>
</trkpt>
<trkpt lat="34.9445195" lon="33.5734177">
<ele>99.87</ele>
<time>2015-05-02T13:16:54Z</time>
</trkpt>
<trkpt lat="34.9445206" lon="33.5734744">
<ele>99.45</ele>
<time>2015-05-02T13:16:55Z</time>
</trkpt>
<trkpt lat="34.9445353" lon="33.5735830">
<ele>99.87</ele>
<time>2015-05-02T13:16:57Z</time>
</trkpt>
<trkpt lat="34.9445446" lon="33.5736696">
<ele>99.98</ele>
<time>2015-05-02T13:16:59Z</time>
</trkpt>
<trkpt lat="34.9445451" lon="33.5737712">
<ele>101.26</ele>
<time>2015-05-02T13:17:01Z</time>
</trkpt>
<trkpt lat="34.9445456" lon="33.5738660">
<ele>102.08</ele>
<time>2015-05-02T13:17:03Z</time>
</trkpt>
<trkpt lat="34.9445439" lon="33.5739711">
<ele>102.03</ele>
<time>2015-05-02T13:17:05Z</time>
</trkpt>
<trkpt lat="34.9445430" lon="33.5740770">
<ele>102.52</ele>
<time>2015-05-02T13:17:07Z</time>
</trkpt>
<trkpt lat="34.9445489" lon="33.5741373">
<ele>102.27</ele>
<time>2015-05-02T13:17:08Z</time>
</trkpt>
<trkpt lat="34.9445643" lon="33.5741996">
<ele>101.64</ele>
<time>2015-05-02T13:17:09Z</time>
</trkpt>
<trkpt lat="34.9445732" lon="33.5742599">
<ele>99.83</ele>
<time>2015-05-02T13:17:10Z</time>
</trkpt>
<trkpt lat="34.9445888" lon="33.5743295">
<ele>98.42</ele>
<time>2015-05-02T13:17:11Z</time>
</trkpt>
<trkpt lat="34.9446109" lon="33.5743976">
<ele>97.72</ele>
<time>2015-05-02T13:17:12Z</time>
</trkpt>
<trkpt lat="34.9446350" lon="33.5744714">
<ele>96.87</ele>
<time>2015-05-02T13:17:13Z</time>
</trkpt>
<trkpt lat="34.9446558" lon="33.5745624">
<ele>96.44</ele>
<time>2015-05-02T13:17:14Z</time>
</trkpt>
<trkpt lat="34.9446839" lon="33.5746502">
<ele>96.23</ele>
<time>2015-05-02T13:17:15Z</time>
</trkpt>
<trkpt lat="34.9447095" lon="33.5747641">
<ele>95.62</ele>
<time>2015-05-02T13:17:16Z</time>
</trkpt>
<trkpt lat="34.9447283" lon="33.5748692">
<ele>95.32</ele>
<time>2015-05-02T13:17:17Z</time>
</trkpt>
<trkpt lat="34.9447421" lon="33.5749803">
<ele>95.17</ele>
<time>2015-05-02T13:17:18Z</time>
</trkpt>
<trkpt lat="34.9447631" lon="33.5751043">
<ele>95.09</ele>
<time>2015-05-02T13:17:19Z</time>
</trkpt>
<trkpt lat="34.9447830" lon="33.5752185">
<ele>95.05</ele>
<time>2015-05-02T13:17:20Z</time>
</trkpt>
<trkpt lat="34.9447998" lon="33.5753530">
<ele>95.03</ele>
<time>2015-05-02T13:17:21Z</time>
</trkpt>
<trkpt lat="34.9448060" lon="33.5754857">
<ele>95.03</ele>
<time>2015-05-02T13:17:22Z</time>
</trkpt>
<trkpt lat="34.9448080" lon="33.5756035">
<ele>95.02</ele>
<time>2015-05-02T13:17:23Z</time>
</trkpt>
<trkpt lat="34.9448087" lon="33.5757397">
<ele>95.02</ele>
<time>2015-05-02T13:17:24Z</time>
</trkpt>
<trkpt lat="34.9448101" lon="33.5758634">
<ele>95.02</ele>
<time>2015-05-02T13:17:25Z</time>
</trkpt>
<trkpt lat="34.9448190" lon="33.5759781">
<ele>94.52</ele>
<time>2015-05-02T13:17:26Z</time>
</trkpt>
<trkpt lat="34.9448318" lon="33.5760948">
<ele>94.27</ele>
<time>2015-05-02T13:17:27Z</time>
</trkpt>
<trkpt lat="34.9448419" lon="33.5761989">
<ele>94.14</ele>
<time>2015-05-02T13:17:28Z</time>
</trkpt>
<trkpt lat="34.9448601" lon="33.5762934">
<ele>94.08</ele>
<time>2015-05-02T13:17:29Z</time>
</trkpt>
<trkpt lat="34.9448868" lon="33.5763866">
<ele>93.55</ele>
<time>2015-05-02T13:17:30Z</time>
</trkpt>
<trkpt lat="34.9448976" lon="33.5764818">
<ele>93.28</ele>
<time>2015-05-02T13:17:31Z</time>
</trkpt>
<trkpt lat="34.9449063" lon="33.5765873">
<ele>93.15</ele>
<time>2015-05-02T13:17:32Z</time>
</trkpt>
<trkpt lat="34.9449068" lon="33.5766743">
<ele>93.08</ele>
<time>2015-05-02T13:17:33Z</time>
</trkpt>
<trkpt lat="34.9449072" lon="33.5767364">
<ele>93.05</ele>
<time>2015-05-02T13:17:34Z</time>
</trkpt>
<trkpt lat="34.9449132" lon="33.5768047">
<ele>93.03</ele>
<time>2015-05-02T13:17:35Z</time>
</trkpt>
<trkpt lat="34.9449233" lon="33.5768845">
<ele>92.52</ele>
<time>2015-05-02T13:17:37Z</time>
</trkpt>
<trkpt lat="34.9449004" lon="33.5769526">
<ele>92.95</ele>
<time>2015-05-02T13:17:40Z</time>
</trkpt>
<trkpt lat="34.9448692" lon="33.5770252">
<ele>93.01</ele>
<time>2015-05-02T13:17:43Z</time>
</trkpt>
<trkpt lat="34.9448395" lon="33.5770722">
<ele>93.01</ele>
<time>2015-05-02T13:17:45Z</time>
</trkpt>
<trkpt lat="34.9448090" lon="33.5771273">
<ele>94.39</ele>
<time>2015-05-02T13:17:48Z</time>
</trkpt>
<trkpt lat="34.9447915" lon="33.5771952">
<ele>94.06</ele>
<time>2015-05-02T13:17:51Z</time>
</trkpt>
<trkpt lat="34.9447519" lon="33.5772615">
<ele>94.02</ele>
<time>2015-05-02T13:17:54Z</time>
</trkpt>
<trkpt lat="34.9447135" lon="33.5773061">
<ele>94.02</ele>
<time>2015-05-02T13:17:56Z</time>
</trkpt>
<trkpt lat="34.9446745" lon="33.5773690">
<ele>94.02</ele>
<time>2015-05-02T13:17:58Z</time>
</trkpt>
<trkpt lat="34.9446505" lon="33.5774159">
<ele>94.02</ele>
<time>2015-05-02T13:17:59Z</time>
</trkpt>
<trkpt lat="34.9446138" lon="33.5774927">
<ele>94.52</ele>
<time>2015-05-02T13:18:00Z</time>
</trkpt>
<trkpt lat="34.9445831" lon="33.5775868">
<ele>94.89</ele>
<time>2015-05-02T13:18:02Z</time>
</trkpt>
<trkpt lat="34.9445484" lon="33.5776847">
<ele>94.23</ele>
<time>2015-05-02T13:18:04Z</time>
</trkpt>
<trkpt lat="34.9445135" lon="33.5777856">
<ele>93.82</ele>
<time>2015-05-02T13:18:06Z</time>
</trkpt>
<trkpt lat="34.9444962" lon="33.5778414">
<ele>93.92</ele>
<time>2015-05-02T13:18:07Z</time>
</trkpt>
<trkpt lat="34.9444802" lon="33.5778992">
<ele>93.47</ele>
<time>2015-05-02T13:18:08Z</time>
</trkpt>
<trkpt lat="34.9444647" lon="33.5779600">
<ele>93.74</ele>
<time>2015-05-02T13:18:09Z</time>
</trkpt>
<trkpt lat="34.9444447" lon="33.5780131">
<ele>93.38</ele>
<time>2015-05-02T13:18:10Z</time>
</trkpt>
<trkpt lat="34.9444289" lon="33.5780724">
<ele>93.70</ele>
<time>2015-05-02T13:18:11Z</time>
</trkpt>
<trkpt lat="34.9444148" lon="33.5781377">
<ele>93.86</ele>
<time>2015-05-02T13:18:12Z</time>
</trkpt>
<trkpt lat="34.9444002" lon="33.5781974">
<ele>93.44</ele>
<time>2015-05-02T13:18:13Z</time>
</trkpt>
<trkpt lat="34.9443877" lon="33.5782644">
<ele>93.73</ele>
<time>2015-05-02T13:18:14Z</time>
</trkpt>
<trkpt lat="34.9443709" lon="33.5783317">
<ele>93.37</ele>
<time>2015-05-02T13:18:15Z</time>
</trkpt>
<trkpt lat="34.9443576" lon="33.5784038">
<ele>93.19</ele>
<time>2015-05-02T13:18:16Z</time>
</trkpt>
<trkpt lat="34.9443442" lon="33.5784838">
<ele>93.10</ele>
<time>2015-05-02T13:18:17Z</time>
</trkpt>
<trkpt lat="34.9443302" lon="33.5785580">
<ele>92.56</ele>
<time>2015-05-02T13:18:18Z</time>
</trkpt>
<trkpt lat="34.9443223" lon="33.5786384">
<ele>92.29</ele>
<time>2015-05-02T13:18:19Z</time>
</trkpt>
<trkpt lat="34.9443101" lon="33.5787287">
<ele>92.15</ele>
<time>2015-05-02T13:18:20Z</time>
</trkpt>
<trkpt lat="34.9443014" lon="33.5788165">
<ele>92.08</ele>
<time>2015-05-02T13:18:21Z</time>
</trkpt>
<trkpt lat="34.9442932" lon="33.5789010">
<ele>91.55</ele>
<time>2015-05-02T13:18:22Z</time>
</trkpt>
<trkpt lat="34.9442880" lon="33.5789838">
<ele>90.78</ele>
<time>2015-05-02T13:18:23Z</time>
</trkpt>
<trkpt lat="34.9442668" lon="33.5790712">
<ele>90.40</ele>
<time>2015-05-02T13:18:24Z</time>
</trkpt>
<trkpt lat="34.9442493" lon="33.5791659">
<ele>90.21</ele>
<time>2015-05-02T13:18:25Z</time>
</trkpt>
<trkpt lat="34.9442419" lon="33.5792506">
<ele>90.11</ele>
<time>2015-05-02T13:18:26Z</time>
</trkpt>
<trkpt lat="34.9442276" lon="33.5793448">
<ele>90.06</ele>
<time>2015-05-02T13:18:27Z</time>
</trkpt>
<trkpt lat="34.9442152" lon="33.5794454">
<ele>90.04</ele>
<time>2015-05-02T13:18:28Z</time>
</trkpt>
<trkpt lat="34.9442072" lon="33.5795431">
<ele>90.03</ele>
<time>2015-05-02T13:18:29Z</time>
</trkpt>
<trkpt lat="34.9441987" lon="33.5796338">
<ele>90.02</ele>
<time>2015-05-02T13:18:30Z</time>
</trkpt>
<trkpt lat="34.9441984" lon="33.5797294">
<ele>89.52</ele>
<time>2015-05-02T13:18:31Z</time>
</trkpt>
<trkpt lat="34.9442066" lon="33.5798150">
<ele>89.27</ele>
<time>2015-05-02T13:18:32Z</time>
</trkpt>
<trkpt lat="34.9442194" lon="33.5798885">
<ele>88.64</ele>
<time>2015-05-02T13:18:33Z</time>
</trkpt>
<trkpt lat="34.9442480" lon="33.5799480">
<ele>88.83</ele>
<time>2015-05-02T13:18:34Z</time>
</trkpt>
<trkpt lat="34.9442914" lon="33.5800312">
<ele>89.97</ele>
<time>2015-05-02T13:18:36Z</time>
</trkpt>
<trkpt lat="34.9443320" lon="33.5800669">
<ele>90.75</ele>
<time>2015-05-02T13:18:38Z</time>
</trkpt>
<trkpt lat="34.9443852" lon="33.5800592">
<ele>92.23</ele>
<time>2015-05-02T13:18:44Z</time>
</trkpt>
<trkpt lat="34.9444155" lon="33.5801131">
<ele>72.51</ele>
<time>2015-05-02T13:20:25Z</time>
</trkpt>
<trkpt lat="34.9443877" lon="33.5801694">
<ele>74.89</ele>
<time>2015-05-02T13:20:27Z</time>
</trkpt>
<trkpt lat="34.9443435" lon="33.5802246">
<ele>74.23</ele>
<time>2015-05-02T13:20:29Z</time>
</trkpt>
<trkpt lat="34.9442900" lon="33.5802888">
<ele>73.32</ele>
<time>2015-05-02T13:20:31Z</time>
</trkpt>
<trkpt lat="34.9442320" lon="33.5803508">
<ele>72.34</ele>
<time>2015-05-02T13:20:33Z</time>
</trkpt>
<trkpt lat="34.9441762" lon="33.5804087">
<ele>71.35</ele>
<time>2015-05-02T13:20:35Z</time>
</trkpt>
<trkpt lat="34.9441215" lon="33.5804632">
<ele>70.35</ele>
<time>2015-05-02T13:20:37Z</time>
</trkpt>
<trkpt lat="34.9440670" lon="33.5805089">
<ele>69.85</ele>
<time>2015-05-02T13:20:39Z</time>
</trkpt>
<trkpt lat="34.9440243" lon="33.5805586">
<ele>69.97</ele>
<time>2015-05-02T13:20:41Z</time>
</trkpt>
<trkpt lat="34.9439823" lon="33.5806097">
<ele>70.01</ele>
<time>2015-05-02T13:20:43Z</time>
</trkpt>
<trkpt lat="34.9439428" lon="33.5806548">
<ele>69.51</ele>
<time>2015-05-02T13:20:45Z</time>
</trkpt>
<trkpt lat="34.9439040" lon="33.5806981">
<ele>69.14</ele>
<time>2015-05-02T13:20:47Z</time>
</trkpt>
<trkpt lat="34.9438519" lon="33.5807537">
<ele>69.05</ele>
<time>2015-05-02T13:20:49Z</time>
</trkpt>
<trkpt lat="34.9437915" lon="33.5808194">
<ele>69.02</ele>
<time>2015-05-02T13:20:51Z</time>
</trkpt>
<trkpt lat="34.9437237" lon="33.5808740">
<ele>69.02</ele>
<time>2015-05-02T13:20:53Z</time>
</trkpt>
<trkpt lat="34.9436542" lon="33.5809149">
<ele>69.02</ele>
<time>2015-05-02T13:20:55Z</time>
</trkpt>
<trkpt lat="34.9435881" lon="33.5809510">
<ele>69.02</ele>
<time>2015-05-02T13:20:57Z</time>
</trkpt>
<trkpt lat="34.9435198" lon="33.5809780">
<ele>68.27</ele>
<time>2015-05-02T13:20:59Z</time>
</trkpt>
<trkpt lat="34.9434424" lon="33.5809976">
<ele>68.08</ele>
<time>2015-05-02T13:21:01Z</time>
</trkpt>
<trkpt lat="34.9433914" lon="33.5809929">
<ele>68.05</ele>
<time>2015-05-02T13:21:02Z</time>
</trkpt>
<trkpt lat="34.9433416" lon="33.5809976">
<ele>68.03</ele>
<time>2015-05-02T13:21:03Z</time>
</trkpt>
<trkpt lat="34.9432586" lon="33.5810106">
<ele>68.02</ele>
<time>2015-05-02T13:21:05Z</time>
</trkpt>
<trkpt lat="34.9432120" lon="33.5810079">
<ele>68.02</ele>
<time>2015-05-02T13:21:06Z</time>
</trkpt>
<trkpt lat="34.9431278" lon="33.5810070">
<ele>68.02</ele>
<time>2015-05-02T13:21:08Z</time>
</trkpt>
<trkpt lat="34.9430443" lon="33.5810082">
<ele>67.52</ele>
<time>2015-05-02T13:21:10Z</time>
</trkpt>
<trkpt lat="34.9429980" lon="33.5810138">
<ele>67.27</ele>
<time>2015-05-02T13:21:11Z</time>
</trkpt>
<trkpt lat="34.9429518" lon="33.5810111">
<ele>67.14</ele>
<time>2015-05-02T13:21:12Z</time>
</trkpt>
<trkpt lat="34.9428567" lon="33.5810119">
<ele>67.05</ele>
<time>2015-05-02T13:21:14Z</time>
</trkpt>
<trkpt lat="34.9428094" lon="33.5810166">
<ele>66.53</ele>
<time>2015-05-02T13:21:15Z</time>
</trkpt>
<trkpt lat="34.9427620" lon="33.5810125">
<ele>66.27</ele>
<time>2015-05-02T13:21:16Z</time>
</trkpt>
<trkpt lat="34.9427081" lon="33.5810153">
<ele>65.64</ele>
<time>2015-05-02T13:21:17Z</time>
</trkpt>
<trkpt lat="34.9426584" lon="33.5810190">
<ele>65.33</ele>
<time>2015-05-02T13:21:18Z</time>
</trkpt>
<trkpt lat="34.9426065" lon="33.5810252">
<ele>65.17</ele>
<time>2015-05-02T13:21:19Z</time>
</trkpt>
<trkpt lat="34.9425551" lon="33.5810308">
<ele>65.09</ele>
<time>2015-05-02T13:21:20Z</time>
</trkpt>
<trkpt lat="34.9424545" lon="33.5810402">
<ele>64.54</ele>
<time>2015-05-02T13:21:22Z</time>
</trkpt>
<trkpt lat="34.9424046" lon="33.5810462">
<ele>64.28</ele>
<time>2015-05-02T13:21:23Z</time>
</trkpt>
<trkpt lat="34.9423537" lon="33.5810646">
<ele>64.15</ele>
<time>2015-05-02T13:21:24Z</time>
</trkpt>
<trkpt lat="34.9422972" lon="33.5810829">
<ele>63.58</ele>
<time>2015-05-02T13:21:25Z</time>
</trkpt>
<trkpt lat="34.9422494" lon="33.5811076">
<ele>63.30</ele>
<time>2015-05-02T13:21:26Z</time>
</trkpt>
<trkpt lat="34.9421841" lon="33.5811302">
<ele>63.66</ele>
<time>2015-05-02T13:21:27Z</time>
</trkpt>
<trkpt lat="34.9421255" lon="33.5811611">
<ele>63.84</ele>
<time>2015-05-02T13:21:28Z</time>
</trkpt>
<trkpt lat="34.9420801" lon="33.5811936">
<ele>63.43</ele>
<time>2015-05-02T13:21:29Z</time>
</trkpt>
<trkpt lat="34.9420350" lon="33.5812277">
<ele>63.22</ele>
<time>2015-05-02T13:21:30Z</time>
</trkpt>
<trkpt lat="34.9419952" lon="33.5812567">
<ele>63.12</ele>
<time>2015-05-02T13:21:31Z</time>
</trkpt>
<trkpt lat="34.9419494" lon="33.5813064">
<ele>63.04</ele>
<time>2015-05-02T13:21:33Z</time>
</trkpt>
<trkpt lat="34.9419717" lon="33.5813687">
<ele>63.77</ele>
<time>2015-05-02T13:21:35Z</time>
</trkpt>
<trkpt lat="34.9420042" lon="33.5814548">
<ele>63.46</ele>
<time>2015-05-02T13:21:37Z</time>
</trkpt>
<trkpt lat="34.9420427" lon="33.5815452">
<ele>63.88</ele>
<time>2015-05-02T13:21:39Z</time>
</trkpt>
<trkpt lat="34.9420918" lon="33.5816534">
<ele>64.73</ele>
<time>2015-05-02T13:21:41Z</time>
</trkpt>
<trkpt lat="34.9421390" lon="33.5817431">
<ele>63.94</ele>
<time>2015-05-02T13:21:43Z</time>
</trkpt>
<trkpt lat="34.9421669" lon="33.5817916">
<ele>63.98</ele>
<time>2015-05-02T13:21:44Z</time>
</trkpt>
<trkpt lat="34.9422180" lon="33.5818893">
<ele>64.51</ele>
<time>2015-05-02T13:21:46Z</time>
</trkpt>
<trkpt lat="34.9422399" lon="33.5819382">
<ele>64.76</ele>
<time>2015-05-02T13:21:47Z</time>
</trkpt>
<trkpt lat="34.9422677" lon="33.5819823">
<ele>64.89</ele>
<time>2015-05-02T13:21:48Z</time>
</trkpt>
<trkpt lat="34.9422975" lon="33.5820269">
<ele>64.95</ele>
<time>2015-05-02T13:21:49Z</time>
</trkpt>
<trkpt lat="34.9423521" lon="33.5821043">
<ele>65.00</ele>
<time>2015-05-02T13:21:51Z</time>
</trkpt>
<trkpt lat="34.9424086" lon="33.5821643">
<ele>65.01</ele>
<time>2015-05-02T13:21:53Z</time>
</trkpt>
<trkpt lat="34.9424698" lon="33.5822292">
<ele>65.77</ele>
<time>2015-05-02T13:21:55Z</time>
</trkpt>
<trkpt lat="34.9425179" lon="33.5822848">
<ele>66.70</ele>
<time>2015-05-02T13:21:57Z</time>
</trkpt>
<trkpt lat="34.9425542" lon="33.5823328">
<ele>67.44</ele>
<time>2015-05-02T13:21:59Z</time>
</trkpt>
<trkpt lat="34.9425845" lon="33.5823756">
<ele>67.87</ele>
<time>2015-05-02T13:22:01Z</time>
</trkpt>
<trkpt lat="34.9426124" lon="33.5824194">
<ele>68.50</ele>
<time>2015-05-02T13:22:09Z</time>
</trkpt>
<trkpt lat="34.9426438" lon="33.5824621">
<ele>68.27</ele>
<time>2015-05-02T13:22:58Z</time>
</trkpt>
<trkpt lat="34.9426974" lon="33.5825052">
<ele>69.33</ele>
<time>2015-05-02T13:23:00Z</time>
</trkpt>
<trkpt lat="34.9427507" lon="33.5825786">
<ele>69.84</ele>
<time>2015-05-02T13:23:02Z</time>
</trkpt>
<trkpt lat="34.9427688" lon="33.5826762">
<ele>68.72</ele>
<time>2015-05-02T13:23:04Z</time>
</trkpt>
<trkpt lat="34.9427264" lon="33.5827257">
<ele>68.87</ele>
<time>2015-05-02T13:23:05Z</time>
</trkpt>
<trkpt lat="34.9426940" lon="33.5827647">
<ele>69.44</ele>
<time>2015-05-02T13:23:06Z</time>
</trkpt>
<trkpt lat="34.9426397" lon="33.5828181">
<ele>69.73</ele>
<time>2015-05-02T13:23:07Z</time>
</trkpt>
<trkpt lat="34.9426054" lon="33.5828643">
<ele>69.37</ele>
<time>2015-05-02T13:23:08Z</time>
</trkpt>
<trkpt lat="34.9425730" lon="33.5829102">
<ele>69.69</ele>
<time>2015-05-02T13:23:09Z</time>
</trkpt>
<trkpt lat="34.9425368" lon="33.5829530">
<ele>69.86</ele>
<time>2015-05-02T13:23:10Z</time>
</trkpt>
<trkpt lat="34.9425009" lon="33.5829997">
<ele>69.44</ele>
<time>2015-05-02T13:23:11Z</time>
</trkpt>
<trkpt lat="34.9424703" lon="33.5830454">
<ele>69.23</ele>
<time>2015-05-02T13:23:12Z</time>
</trkpt>
<trkpt lat="34.9424295" lon="33.5830900">
<ele>69.12</ele>
<time>2015-05-02T13:23:13Z</time>
</trkpt>
<trkpt lat="34.9423744" lon="33.5831496">
<ele>69.57</ele>
<time>2015-05-02T13:23:14Z</time>
</trkpt>
<trkpt lat="34.9423433" lon="33.5832271">
<ele>67.90</ele>
<time>2015-05-02T13:23:16Z</time>
</trkpt>
<trkpt lat="34.9422836" lon="33.5833038">
<ele>67.24</ele>
<time>2015-05-02T13:23:18Z</time>
</trkpt>
<trkpt lat="34.9422488" lon="33.5833456">
<ele>67.63</ele>
<time>2015-05-02T13:23:19Z</time>
</trkpt>
<trkpt lat="34.9422122" lon="33.5833945">
<ele>67.32</ele>
<time>2015-05-02T13:23:20Z</time>
</trkpt>
<trkpt lat="34.9421784" lon="33.5834406">
<ele>67.17</ele>
<time>2015-05-02T13:23:21Z</time>
</trkpt>
<trkpt lat="34.9421424" lon="33.5834939">
<ele>66.59</ele>
<time>2015-05-02T13:23:22Z</time>
</trkpt>
<trkpt lat="34.9421076" lon="33.5835434">
<ele>66.80</ele>
<time>2015-05-02T13:23:23Z</time>
</trkpt>
<trkpt lat="34.9420675" lon="33.5835913">
<ele>66.91</ele>
<time>2015-05-02T13:23:24Z</time>
</trkpt>
<trkpt lat="34.9420360" lon="33.5836474">
<ele>65.96</ele>
<time>2015-05-02T13:23:25Z</time>
</trkpt>
<trkpt lat="34.9420001" lon="33.5836899">
<ele>65.49</ele>
<time>2015-05-02T13:23:26Z</time>
</trkpt>
<trkpt lat="34.9419690" lon="33.5837385">
<ele>65.25</ele>
<time>2015-05-02T13:23:27Z</time>
</trkpt>
<trkpt lat="34.9419292" lon="33.5837846">
<ele>65.13</ele>
<time>2015-05-02T13:23:28Z</time>
</trkpt>
<trkpt lat="34.9418933" lon="33.5838243">
<ele>64.58</ele>
<time>2015-05-02T13:23:29Z</time>
</trkpt>
<trkpt lat="34.9418273" lon="33.5838921">
<ele>64.66</ele>
<time>2015-05-02T13:23:31Z</time>
</trkpt>
<trkpt lat="34.9417925" lon="33.5839390">
<ele>64.84</ele>
<time>2015-05-02T13:23:32Z</time>
</trkpt>
<trkpt lat="34.9417517" lon="33.5839946">
<ele>64.93</ele>
<time>2015-05-02T13:23:33Z</time>
</trkpt>
<trkpt lat="34.9417174" lon="33.5840409">
<ele>64.97</ele>
<time>2015-05-02T13:23:34Z</time>
</trkpt>
<trkpt lat="34.9416778" lon="33.5840850">
<ele>64.49</ele>
<time>2015-05-02T13:23:35Z</time>
</trkpt>
<trkpt lat="34.9416436" lon="33.5841388">
<ele>64.25</ele>
<time>2015-05-02T13:23:36Z</time>
</trkpt>
<trkpt lat="34.9416176" lon="33.5841846">
<ele>64.14</ele>
<time>2015-05-02T13:23:37Z</time>
</trkpt>
<trkpt lat="34.9415807" lon="33.5842418">
<ele>63.58</ele>
<time>2015-05-02T13:23:38Z</time>
</trkpt>
<trkpt lat="34.9415518" lon="33.5842887">
<ele>62.80</ele>
<time>2015-05-02T13:23:39Z</time>
</trkpt>
<trkpt lat="34.9415164" lon="33.5843387">
<ele>61.91</ele>
<time>2015-05-02T13:23:40Z</time>
</trkpt>
<trkpt lat="34.9414773" lon="33.5843865">
<ele>61.46</ele>
<time>2015-05-02T13:23:41Z</time>
</trkpt>
<trkpt lat="34.9414448" lon="33.5844302">
<ele>61.24</ele>
<time>2015-05-02T13:23:42Z</time>
</trkpt>
<trkpt lat="34.9414123" lon="33.5844768">
<ele>60.63</ele>
<time>2015-05-02T13:23:43Z</time>
</trkpt>
<trkpt lat="34.9413732" lon="33.5845269">
<ele>60.32</ele>
<time>2015-05-02T13:23:44Z</time>
</trkpt>
<trkpt lat="34.9413428" lon="33.5845679">
<ele>59.67</ele>
<time>2015-05-02T13:23:45Z</time>
</trkpt>
<trkpt lat="34.9413038" lon="33.5846153">
<ele>59.84</ele>
<time>2015-05-02T13:23:46Z</time>
</trkpt>
<trkpt lat="34.9412718" lon="33.5846553">
<ele>59.93</ele>
<time>2015-05-02T13:23:47Z</time>
</trkpt>
<trkpt lat="34.9412377" lon="33.5847028">
<ele>59.47</ele>
<time>2015-05-02T13:23:48Z</time>
</trkpt>
<trkpt lat="34.9411975" lon="33.5847583">
<ele>59.24</ele>
<time>2015-05-02T13:23:49Z</time>
</trkpt>
<trkpt lat="34.9411649" lon="33.5848056">
<ele>59.63</ele>
<time>2015-05-02T13:23:50Z</time>
</trkpt>
<trkpt lat="34.9411252" lon="33.5848560">
<ele>59.82</ele>
<time>2015-05-02T13:23:51Z</time>
</trkpt>
<trkpt lat="34.9410840" lon="33.5849060">
<ele>59.92</ele>
<time>2015-05-02T13:23:52Z</time>
</trkpt>
<trkpt lat="34.9410553" lon="33.5849497">
<ele>59.97</ele>
<time>2015-05-02T13:23:53Z</time>
</trkpt>
<trkpt lat="34.9410223" lon="33.5850014">
<ele>59.49</ele>
<time>2015-05-02T13:23:54Z</time>
</trkpt>
<trkpt lat="34.9409843" lon="33.5850402">
<ele>59.25</ele>
<time>2015-05-02T13:23:55Z</time>
</trkpt>
<trkpt lat="34.9409501" lon="33.5850865">
<ele>59.13</ele>
<time>2015-05-02T13:23:56Z</time>
</trkpt>
<trkpt lat="34.9409109" lon="33.5851334">
<ele>58.58</ele>
<time>2015-05-02T13:23:57Z</time>
</trkpt>
<trkpt lat="34.9408749" lon="33.5851756">
<ele>58.80</ele>
<time>2015-05-02T13:23:58Z</time>
</trkpt>
<trkpt lat="34.9408418" lon="33.5852148">
<ele>58.41</ele>
<time>2015-05-02T13:23:59Z</time>
</trkpt>
<trkpt lat="34.9408032" lon="33.5852660">
<ele>58.71</ele>
<time>2015-05-02T13:24:00Z</time>
</trkpt>
<trkpt lat="34.9407701" lon="33.5853117">
<ele>58.86</ele>
<time>2015-05-02T13:24:01Z</time>
</trkpt>
<trkpt lat="34.9407334" lon="33.5853625">
<ele>58.94</ele>
<time>2015-05-02T13:24:02Z</time>
</trkpt>
<trkpt lat="34.9406892" lon="33.5854146">
<ele>59.48</ele>
<time>2015-05-02T13:24:03Z</time>
</trkpt>
<trkpt lat="34.9406452" lon="33.5854696">
<ele>59.75</ele>
<time>2015-05-02T13:24:04Z</time>
</trkpt>
<trkpt lat="34.9405971" lon="33.5855278">
<ele>60.38</ele>
<time>2015-05-02T13:24:05Z</time>
</trkpt>
<trkpt lat="34.9405644" lon="33.5855796">
<ele>60.70</ele>
<time>2015-05-02T13:24:06Z</time>
</trkpt>
<trkpt lat="34.9405241" lon="33.5856312">
<ele>60.86</ele>
<time>2015-05-02T13:24:07Z</time>
</trkpt>
<trkpt lat="34.9404843" lon="33.5856846">
<ele>60.94</ele>
<time>2015-05-02T13:24:08Z</time>
</trkpt>
<trkpt lat="34.9404466" lon="33.5857363">
<ele>60.98</ele>
<time>2015-05-02T13:24:09Z</time>
</trkpt>
<trkpt lat="34.9404036" lon="33.5857934">
<ele>60.50</ele>
<time>2015-05-02T13:24:10Z</time>
</trkpt>
<trkpt lat="34.9403671" lon="33.5858492">
<ele>60.76</ele>
<time>2015-05-02T13:24:11Z</time>
</trkpt>
<trkpt lat="34.9403266" lon="33.5859021">
<ele>60.89</ele>
<time>2015-05-02T13:24:12Z</time>
</trkpt>
<trkpt lat="34.9402834" lon="33.5859576">
<ele>60.95</ele>
<time>2015-05-02T13:24:13Z</time>
</trkpt>
<trkpt lat="34.9402434" lon="33.5860149">
<ele>60.98</ele>
<time>2015-05-02T13:24:14Z</time>
</trkpt>
<trkpt lat="34.9402020" lon="33.5860694">
<ele>60.50</ele>
<time>2015-05-02T13:24:15Z</time>
</trkpt>
<trkpt lat="34.9401558" lon="33.5861347">
<ele>60.26</ele>
<time>2015-05-02T13:24:16Z</time>
</trkpt>
<trkpt lat="34.9401088" lon="33.5861920">
<ele>60.14</ele>
<time>2015-05-02T13:24:17Z</time>
</trkpt>
<trkpt lat="34.9400610" lon="33.5862594">
<ele>60.58</ele>
<time>2015-05-02T13:24:18Z</time>
</trkpt>
<trkpt lat="34.9400213" lon="33.5863133">
<ele>60.30</ele>
<time>2015-05-02T13:24:19Z</time>
</trkpt>
<trkpt lat="34.9399787" lon="33.5863682">
<ele>60.66</ele>
<time>2015-05-02T13:24:20Z</time>
</trkpt>
<trkpt lat="34.9399283" lon="33.5864312">
<ele>60.34</ele>
<time>2015-05-02T13:24:21Z</time>
</trkpt>
<trkpt lat="34.9398878" lon="33.5864844">
<ele>60.18</ele>
<time>2015-05-02T13:24:22Z</time>
</trkpt>
<trkpt lat="34.9398424" lon="33.5865480">
<ele>60.60</ele>
<time>2015-05-02T13:24:23Z</time>
</trkpt>
<trkpt lat="34.9397928" lon="33.5866132">
<ele>60.81</ele>
<time>2015-05-02T13:24:24Z</time>
</trkpt>
<trkpt lat="34.9397516" lon="33.5866721">
<ele>60.41</ele>
<time>2015-05-02T13:24:25Z</time>
</trkpt>
<trkpt lat="34.9397028" lon="33.5867359">
<ele>60.21</ele>
<time>2015-05-02T13:24:26Z</time>
</trkpt>
<trkpt lat="34.9396618" lon="33.5867874">
<ele>60.11</ele>
<time>2015-05-02T13:24:27Z</time>
</trkpt>
<trkpt lat="34.9396116" lon="33.5868480">
<ele>60.57</ele>
<time>2015-05-02T13:24:28Z</time>
</trkpt>
<trkpt lat="34.9395643" lon="33.5869136">
<ele>60.79</ele>
<time>2015-05-02T13:24:29Z</time>
</trkpt>
<trkpt lat="34.9395229" lon="33.5869718">
<ele>60.90</ele>
<time>2015-05-02T13:24:30Z</time>
</trkpt>
<trkpt lat="34.9394755" lon="33.5870299">
<ele>60.46</ele>
<time>2015-05-02T13:24:31Z</time>
</trkpt>
<trkpt lat="34.9394229" lon="33.5870950">
<ele>60.24</ele>
<time>2015-05-02T13:24:32Z</time>
</trkpt>
<trkpt lat="34.9393842" lon="33.5871504">
<ele>60.13</ele>
<time>2015-05-02T13:24:33Z</time>
</trkpt>
<trkpt lat="34.9393366" lon="33.5872112">
<ele>60.07</ele>
<time>2015-05-02T13:24:34Z</time>
</trkpt>
<trkpt lat="34.9392997" lon="33.5872664">
<ele>59.54</ele>
<time>2015-05-02T13:24:35Z</time>
</trkpt>
<trkpt lat="34.9392614" lon="33.5873288">
<ele>58.78</ele>
<time>2015-05-02T13:24:36Z</time>
</trkpt>
<trkpt lat="34.9392137" lon="33.5873855">
<ele>58.40</ele>
<time>2015-05-02T13:24:37Z</time>
</trkpt>
<trkpt lat="34.9391782" lon="33.5874347">
<ele>57.71</ele>
<time>2015-05-02T13:24:38Z</time>
</trkpt>
<trkpt lat="34.9391372" lon="33.5874938">
<ele>57.36</ele>
<time>2015-05-02T13:24:39Z</time>
</trkpt>
<trkpt lat="34.9390873" lon="33.5875570">
<ele>56.69</ele>
<time>2015-05-02T13:24:40Z</time>
</trkpt>
<trkpt lat="34.9390439" lon="33.5876141">
<ele>56.85</ele>
<time>2015-05-02T13:24:41Z</time>
</trkpt>
<trkpt lat="34.9389940" lon="33.5876772">
<ele>56.93</ele>
<time>2015-05-02T13:24:42Z</time>
</trkpt>
<trkpt lat="34.9389494" lon="33.5877328">
<ele>56.98</ele>
<time>2015-05-02T13:24:43Z</time>
</trkpt>
<trkpt lat="34.9389038" lon="33.5877912">
<ele>57.00</ele>
<time>2015-05-02T13:24:44Z</time>
</trkpt>
<trkpt lat="34.9388528" lon="33.5878533">
<ele>56.51</ele>
<time>2015-05-02T13:24:45Z</time>
</trkpt>
<trkpt lat="34.9388097" lon="33.5879099">
<ele>56.26</ele>
<time>2015-05-02T13:24:46Z</time>
</trkpt>
<trkpt lat="34.9387688" lon="33.5879683">
<ele>56.14</ele>
<time>2015-05-02T13:24:47Z</time>
</trkpt>
<trkpt lat="34.9387256" lon="33.5880292">
<ele>56.08</ele>
<time>2015-05-02T13:24:48Z</time>
</trkpt>
<trkpt lat="34.9386845" lon="33.5880777">
<ele>55.55</ele>
<time>2015-05-02T13:24:49Z</time>
</trkpt>
<trkpt lat="34.9386389" lon="33.5881424">
<ele>55.28</ele>
<time>2015-05-02T13:24:50Z</time>
</trkpt>
<trkpt lat="34.9386007" lon="33.5882042">
<ele>55.65</ele>
<time>2015-05-02T13:24:51Z</time>
</trkpt>
<trkpt lat="34.9385487" lon="33.5882587">
<ele>55.83</ele>
<time>2015-05-02T13:24:52Z</time>
</trkpt>
<trkpt lat="34.9384975" lon="33.5883260">
<ele>55.92</ele>
<time>2015-05-02T13:24:53Z</time>
</trkpt>
<trkpt lat="34.9384530" lon="33.5883845">
<ele>55.97</ele>
<time>2015-05-02T13:24:54Z</time>
</trkpt>
<trkpt lat="34.9384032" lon="33.5884463">
<ele>55.49</ele>
<time>2015-05-02T13:24:55Z</time>
</trkpt>
<trkpt lat="34.9383571" lon="33.5885046">
<ele>55.25</ele>
<time>2015-05-02T13:24:56Z</time>
</trkpt>
<trkpt lat="34.9383136" lon="33.5885623">
<ele>55.14</ele>
<time>2015-05-02T13:24:57Z</time>
</trkpt>
<trkpt lat="34.9382668" lon="33.5886227">
<ele>55.08</ele>
<time>2015-05-02T13:24:58Z</time>
</trkpt>
<trkpt lat="34.9382345" lon="33.5886800">
<ele>54.05</ele>
<time>2015-05-02T13:24:59Z</time>
</trkpt>
<trkpt lat="34.9381920" lon="33.5887388">
<ele>54.03</ele>
<time>2015-05-02T13:25:00Z</time>
</trkpt>
<trkpt lat="34.9381430" lon="33.5887941">
<ele>54.02</ele>
<time>2015-05-02T13:25:01Z</time>
</trkpt>
<trkpt lat="34.9381004" lon="33.5888466">
<ele>54.02</ele>
<time>2015-05-02T13:25:02Z</time>
</trkpt>
<trkpt lat="34.9380573" lon="33.5889051">
<ele>54.02</ele>
<time>2015-05-02T13:25:03Z</time>
</trkpt>
<trkpt lat="34.9380096" lon="33.5889617">
<ele>54.02</ele>
<time>2015-05-02T13:25:04Z</time>
</trkpt>
<trkpt lat="34.9379741" lon="33.5890099">
<ele>54.02</ele>
<time>2015-05-02T13:25:05Z</time>
</trkpt>
<trkpt lat="34.9379339" lon="33.5890671">
<ele>54.02</ele>
<time>2015-05-02T13:25:06Z</time>
</trkpt>
<trkpt lat="34.9378970" lon="33.5891126">
<ele>54.02</ele>
<time>2015-05-02T13:25:07Z</time>
</trkpt>
<trkpt lat="34.9378525" lon="33.5891627">
<ele>54.52</ele>
<time>2015-05-02T13:25:08Z</time>
</trkpt>
<trkpt lat="34.9378144" lon="33.5892133">
<ele>54.77</ele>
<time>2015-05-02T13:25:09Z</time>
</trkpt>
<trkpt lat="34.9377735" lon="33.5892610">
<ele>54.89</ele>
<time>2015-05-02T13:25:10Z</time>
</trkpt>
<trkpt lat="34.9377351" lon="33.5893117">
<ele>55.45</ele>
<time>2015-05-02T13:25:11Z</time>
</trkpt>
<trkpt lat="34.9377009" lon="33.5893663">
<ele>55.73</ele>
<time>2015-05-02T13:25:12Z</time>
</trkpt>
<trkpt lat="34.9376557" lon="33.5893980">
<ele>55.88</ele>
<time>2015-05-02T13:25:13Z</time>
</trkpt>
<trkpt lat="34.9376612" lon="33.5894723">
<ele>55.45</ele>
<time>2015-05-02T13:25:14Z</time>
</trkpt>
<trkpt lat="34.9376636" lon="33.5895739">
<ele>55.12</ele>
<time>2015-05-02T13:25:16Z</time>
</trkpt>
<trkpt lat="34.9376630" lon="33.5896299">
<ele>55.07</ele>
<time>2015-05-02T13:25:17Z</time>
</trkpt>
<trkpt lat="34.9376416" lon="33.5897469">
<ele>55.78</ele>
<time>2015-05-02T13:25:19Z</time>
</trkpt>
<trkpt lat="34.9376245" lon="33.5898169">
<ele>55.90</ele>
<time>2015-05-02T13:25:20Z</time>
</trkpt>
<trkpt lat="34.9376030" lon="33.5898764">
<ele>55.46</ele>
<time>2015-05-02T13:25:21Z</time>
</trkpt>
<trkpt lat="34.9375651" lon="33.5899378">
<ele>55.24</ele>
<time>2015-05-02T13:25:22Z</time>
</trkpt>
<trkpt lat="34.9375325" lon="33.5899814">
<ele>54.63</ele>
<time>2015-05-02T13:25:23Z</time>
</trkpt>
<trkpt lat="34.9374919" lon="33.5900134">
<ele>53.82</ele>
<time>2015-05-02T13:25:24Z</time>
</trkpt>
<trkpt lat="34.9374404" lon="33.5900474">
<ele>53.42</ele>
<time>2015-05-02T13:25:25Z</time>
</trkpt>
<trkpt lat="34.9373902" lon="33.5900785">
<ele>53.22</ele>
<time>2015-05-02T13:25:26Z</time>
</trkpt>
<trkpt lat="34.9373358" lon="33.5900999">
<ele>53.62</ele>
<time>2015-05-02T13:25:27Z</time>
</trkpt>
<trkpt lat="34.9372763" lon="33.5901263">
<ele>53.82</ele>
<time>2015-05-02T13:25:28Z</time>
</trkpt>
<trkpt lat="34.9372236" lon="33.5901539">
<ele>54.42</ele>
<time>2015-05-02T13:25:29Z</time>
</trkpt>
<trkpt lat="34.9371656" lon="33.5901874">
<ele>54.22</ele>
<time>2015-05-02T13:25:30Z</time>
</trkpt>
<trkpt lat="34.9371195" lon="33.5902162">
<ele>54.12</ele>
<time>2015-05-02T13:25:31Z</time>
</trkpt>
<trkpt lat="34.9370744" lon="33.5902526">
<ele>53.57</ele>
<time>2015-05-02T13:25:32Z</time>
</trkpt>
<trkpt lat="34.9370355" lon="33.5903016">
<ele>52.79</ele>
<time>2015-05-02T13:25:33Z</time>
</trkpt>
<trkpt lat="34.9369980" lon="33.5903494">
<ele>52.40</ele>
<time>2015-05-02T13:25:34Z</time>
</trkpt>
<trkpt lat="34.9369584" lon="33.5903979">
<ele>52.71</ele>
<time>2015-05-02T13:25:35Z</time>
</trkpt>
<trkpt lat="34.9369184" lon="33.5904485">
<ele>52.86</ele>
<time>2015-05-02T13:25:36Z</time>
</trkpt>
<trkpt lat="34.9368840" lon="33.5904941">
<ele>52.94</ele>
<time>2015-05-02T13:25:37Z</time>
</trkpt>
<trkpt lat="34.9368469" lon="33.5905424">
<ele>53.48</ele>
<time>2015-05-02T13:25:38Z</time>
</trkpt>
<trkpt lat="34.9368032" lon="33.5906018">
<ele>53.75</ele>
<time>2015-05-02T13:25:39Z</time>
</trkpt>
<trkpt lat="34.9367539" lon="33.5906254">
<ele>54.38</ele>
<time>2015-05-02T13:25:40Z</time>
</trkpt>
<trkpt lat="34.9366878" lon="33.5906951">
<ele>54.70</ele>
<time>2015-05-02T13:25:41Z</time>
</trkpt>
<trkpt lat="34.9366415" lon="33.5907420">
<ele>54.86</ele>
<time>2015-05-02T13:25:42Z</time>
</trkpt>
<trkpt lat="34.9366356" lon="33.5908113">
<ele>54.44</ele>
<time>2015-05-02T13:25:43Z</time>
</trkpt>
<trkpt lat="34.9365968" lon="33.5908670">
<ele>53.73</ele>
<time>2015-05-02T13:25:44Z</time>
</trkpt>
<trkpt lat="34.9365525" lon="33.5909115">
<ele>54.37</ele>
<time>2015-05-02T13:25:45Z</time>
</trkpt>
<trkpt lat="34.9365100" lon="33.5909731">
<ele>54.19</ele>
<time>2015-05-02T13:25:46Z</time>
</trkpt>
<trkpt lat="34.9364730" lon="33.5910236">
<ele>53.60</ele>
<time>2015-05-02T13:25:47Z</time>
</trkpt>
<trkpt lat="34.9364383" lon="33.5910741">
<ele>53.31</ele>
<time>2015-05-02T13:25:48Z</time>
</trkpt>
<trkpt lat="34.9364028" lon="33.5911338">
<ele>53.16</ele>
<time>2015-05-02T13:25:49Z</time>
</trkpt>
<trkpt lat="34.9363726" lon="33.5911774">
<ele>52.59</ele>
<time>2015-05-02T13:25:50Z</time>
</trkpt>
<trkpt lat="34.9363375" lon="33.5912308">
<ele>52.30</ele>
<time>2015-05-02T13:25:51Z</time>
</trkpt>
<trkpt lat="34.9362942" lon="33.5912816">
<ele>52.16</ele>
<time>2015-05-02T13:25:52Z</time>
</trkpt>
<trkpt lat="34.9362572" lon="33.5913335">
<ele>52.09</ele>
<time>2015-05-02T13:25:53Z</time>
</trkpt>
<trkpt lat="34.9362068" lon="33.5913877">
<ele>51.55</ele>
<time>2015-05-02T13:25:54Z</time>
</trkpt>
<trkpt lat="34.9361600" lon="33.5914393">
<ele>51.78</ele>
<time>2015-05-02T13:25:55Z</time>
</trkpt>
<trkpt lat="34.9361163" lon="33.5914892">
<ele>51.90</ele>
<time>2015-05-02T13:25:56Z</time>
</trkpt>
<trkpt lat="34.9360703" lon="33.5915488">
<ele>51.96</ele>
<time>2015-05-02T13:25:57Z</time>
</trkpt>
<trkpt lat="34.9360266" lon="33.5915951">
<ele>51.49</ele>
<time>2015-05-02T13:25:58Z</time>
</trkpt>
<trkpt lat="34.9359858" lon="33.5916518">
<ele>51.75</ele>
<time>2015-05-02T13:25:59Z</time>
</trkpt>
<trkpt lat="34.9359353" lon="33.5917177">
<ele>51.88</ele>
<time>2015-05-02T13:26:00Z</time>
</trkpt>
<trkpt lat="34.9358911" lon="33.5917747">
<ele>51.95</ele>
<time>2015-05-02T13:26:01Z</time>
</trkpt>
<trkpt lat="34.9358354" lon="33.5918320">
<ele>51.48</ele>
<time>2015-05-02T13:26:02Z</time>
</trkpt>
<trkpt lat="34.9357872" lon="33.5918938">
<ele>51.75</ele>
<time>2015-05-02T13:26:03Z</time>
</trkpt>
<trkpt lat="34.9357372" lon="33.5919540">
<ele>51.38</ele>
<time>2015-05-02T13:26:04Z</time>
</trkpt>
<trkpt lat="34.9356900" lon="33.5920142">
<ele>51.20</ele>
<time>2015-05-02T13:26:05Z</time>
</trkpt>
<trkpt lat="34.9356514" lon="33.5920756">
<ele>50.61</ele>
<time>2015-05-02T13:26:06Z</time>
</trkpt>
<trkpt lat="34.9356089" lon="33.5921444">
<ele>49.81</ele>
<time>2015-05-02T13:26:07Z</time>
</trkpt>
<trkpt lat="34.9355694" lon="33.5922090">
<ele>49.41</ele>
<time>2015-05-02T13:26:08Z</time>
</trkpt>
<trkpt lat="34.9355275" lon="33.5922656">
<ele>49.21</ele>
<time>2015-05-02T13:26:09Z</time>
</trkpt>
<trkpt lat="34.9354818" lon="33.5923333">
<ele>49.12</ele>
<time>2015-05-02T13:26:10Z</time>
</trkpt>
<trkpt lat="34.9354337" lon="33.5923892">
<ele>49.57</ele>
<time>2015-05-02T13:26:11Z</time>
</trkpt>
<trkpt lat="34.9353840" lon="33.5924502">
<ele>49.79</ele>
<time>2015-05-02T13:26:12Z</time>
</trkpt>
<trkpt lat="34.9353350" lon="33.5925181">
<ele>49.40</ele>
<time>2015-05-02T13:26:13Z</time>
</trkpt>
<trkpt lat="34.9352904" lon="33.5925809">
<ele>49.21</ele>
<time>2015-05-02T13:26:14Z</time>
</trkpt>
<trkpt lat="34.9352390" lon="33.5926462">
<ele>49.11</ele>
<time>2015-05-02T13:26:15Z</time>
</trkpt>
<trkpt lat="34.9351906" lon="33.5927095">
<ele>49.06</ele>
<time>2015-05-02T13:26:16Z</time>
</trkpt>
<trkpt lat="34.9351473" lon="33.5927673">
<ele>49.04</ele>
<time>2015-05-02T13:26:17Z</time>
</trkpt>
<trkpt lat="34.9351058" lon="33.5928361">
<ele>48.53</ele>
<time>2015-05-02T13:26:18Z</time>
</trkpt>
<trkpt lat="34.9350675" lon="33.5928963">
<ele>48.27</ele>
<time>2015-05-02T13:26:19Z</time>
</trkpt>
<trkpt lat="34.9350248" lon="33.5929482">
<ele>48.14</ele>
<time>2015-05-02T13:26:20Z</time>
</trkpt>
<trkpt lat="34.9349761" lon="33.5930036">
<ele>48.08</ele>
<time>2015-05-02T13:26:21Z</time>
</trkpt>
<trkpt lat="34.9349364" lon="33.5930523">
<ele>48.05</ele>
<time>2015-05-02T13:26:22Z</time>
</trkpt>
<trkpt lat="34.9348917" lon="33.5931048">
<ele>47.53</ele>
<time>2015-05-02T13:26:23Z</time>
</trkpt>
<trkpt lat="34.9348285" lon="33.5931494">
<ele>47.27</ele>
<time>2015-05-02T13:26:24Z</time>
</trkpt>
<trkpt lat="34.9347901" lon="33.5931923">
<ele>46.65</ele>
<time>2015-05-02T13:26:25Z</time>
</trkpt>
<trkpt lat="34.9347499" lon="33.5932735">
<ele>46.83</ele>
<time>2015-05-02T13:26:26Z</time>
</trkpt>
<trkpt lat="34.9346978" lon="33.5933249">
<ele>47.42</ele>
<time>2015-05-02T13:26:27Z</time>
</trkpt>
<trkpt lat="34.9346612" lon="33.5933861">
<ele>48.22</ele>
<time>2015-05-02T13:26:28Z</time>
</trkpt>
<trkpt lat="34.9346162" lon="33.5934577">
<ele>48.12</ele>
<time>2015-05-02T13:26:29Z</time>
</trkpt>
<trkpt lat="34.9345711" lon="33.5935093">
<ele>47.57</ele>
<time>2015-05-02T13:26:30Z</time>
</trkpt>
<trkpt lat="34.9345218" lon="33.5935846">
<ele>47.79</ele>
<time>2015-05-02T13:26:31Z</time>
</trkpt>
<trkpt lat="34.9344758" lon="33.5936490">
<ele>47.40</ele>
<time>2015-05-02T13:26:32Z</time>
</trkpt>
<trkpt lat="34.9344274" lon="33.5937099">
<ele>47.21</ele>
<time>2015-05-02T13:26:33Z</time>
</trkpt>
<trkpt lat="34.9343726" lon="33.5937813">
<ele>47.11</ele>
<time>2015-05-02T13:26:34Z</time>
</trkpt>
<trkpt lat="34.9343324" lon="33.5938355">
<ele>47.06</ele>
<time>2015-05-02T13:26:35Z</time>
</trkpt>
<trkpt lat="34.9342885" lon="33.5938978">
<ele>47.04</ele>
<time>2015-05-02T13:26:36Z</time>
</trkpt>
<trkpt lat="34.9342421" lon="33.5939665">
<ele>47.03</ele>
<time>2015-05-02T13:26:37Z</time>
</trkpt>
<trkpt lat="34.9342006" lon="33.5940255">
<ele>47.02</ele>
<time>2015-05-02T13:26:38Z</time>
</trkpt>
<trkpt lat="34.9341531" lon="33.5940912">
<ele>47.52</ele>
<time>2015-05-02T13:26:39Z</time>
</trkpt>
<trkpt lat="34.9341125" lon="33.5941451">
<ele>47.77</ele>
<time>2015-05-02T13:26:40Z</time>
</trkpt>
<trkpt lat="34.9340684" lon="33.5942055">
<ele>47.89</ele>
<time>2015-05-02T13:26:41Z</time>
</trkpt>
<trkpt lat="34.9340198" lon="33.5942789">
<ele>48.45</ele>
<time>2015-05-02T13:26:42Z</time>
</trkpt>
<trkpt lat="34.9339804" lon="33.5943367">
<ele>48.23</ele>
<time>2015-05-02T13:26:43Z</time>
</trkpt>
<trkpt lat="34.9339329" lon="33.5944028">
<ele>48.13</ele>
<time>2015-05-02T13:26:44Z</time>
</trkpt>
<trkpt lat="34.9338808" lon="33.5944760">
<ele>48.57</ele>
<time>2015-05-02T13:26:45Z</time>
</trkpt>
<trkpt lat="34.9338393" lon="33.5945379">
<ele>48.79</ele>
<time>2015-05-02T13:26:46Z</time>
</trkpt>
<trkpt lat="34.9337937" lon="33.5946066">
<ele>48.40</ele>
<time>2015-05-02T13:26:47Z</time>
</trkpt>
<trkpt lat="34.9337582" lon="33.5946636">
<ele>48.21</ele>
<time>2015-05-02T13:26:48Z</time>
</trkpt>
<trkpt lat="34.9337205" lon="33.5947075">
<ele>48.11</ele>
<time>2015-05-02T13:26:49Z</time>
</trkpt>
<trkpt lat="34.9336836" lon="33.5947521">
<ele>48.06</ele>
<time>2015-05-02T13:26:50Z</time>
</trkpt>
<trkpt lat="34.9336388" lon="33.5948336">
<ele>47.03</ele>
<time>2015-05-02T13:26:52Z</time>
</trkpt>
<trkpt lat="34.9336059" lon="33.5948792">
<ele>46.77</ele>
<time>2015-05-02T13:26:54Z</time>
</trkpt>
<trkpt lat="34.9335688" lon="33.5949387">
<ele>46.33</ele>
<time>2015-05-02T13:27:30Z</time>
</trkpt>
<trkpt lat="34.9335398" lon="33.5949835">
<ele>46.59</ele>
<time>2015-05-02T13:27:32Z</time>
</trkpt>
<trkpt lat="34.9334942" lon="33.5950445">
<ele>46.91</ele>
<time>2015-05-02T13:27:34Z</time>
</trkpt>
<trkpt lat="34.9334642" lon="33.5950854">
<ele>46.46</ele>
<time>2015-05-02T13:27:35Z</time>
</trkpt>
<trkpt lat="34.9334353" lon="33.5951281">
<ele>46.24</ele>
<time>2015-05-02T13:27:36Z</time>
</trkpt>
<trkpt lat="34.9333782" lon="33.5952160">
<ele>46.07</ele>
<time>2015-05-02T13:27:38Z</time>
</trkpt>
<trkpt lat="34.9333222" lon="33.5952991">
<ele>46.03</ele>
<time>2015-05-02T13:27:40Z</time>
</trkpt>
<trkpt lat="34.9332913" lon="33.5953437">
<ele>46.02</ele>
<time>2015-05-02T13:27:41Z</time>
</trkpt>
<trkpt lat="34.9332325" lon="33.5954248">
<ele>46.02</ele>
<time>2015-05-02T13:27:43Z</time>
</trkpt>
<trkpt lat="34.9331778" lon="33.5954999">
<ele>46.02</ele>
<time>2015-05-02T13:27:45Z</time>
</trkpt>
<trkpt lat="34.9331228" lon="33.5955752">
<ele>46.02</ele>
<time>2015-05-02T13:27:47Z</time>
</trkpt>
<trkpt lat="34.9330689" lon="33.5956536">
<ele>46.52</ele>
<time>2015-05-02T13:27:49Z</time>
</trkpt>
<trkpt lat="34.9330203" lon="33.5957319">
<ele>46.89</ele>
<time>2015-05-02T13:27:51Z</time>
</trkpt>
<trkpt lat="34.9329747" lon="33.5958052">
<ele>47.73</ele>
<time>2015-05-02T13:27:53Z</time>
</trkpt>
<trkpt lat="34.9329360" lon="33.5957710">
<ele>50.02</ele>
<time>2015-05-02T13:28:18Z</time>
</trkpt>
<trkpt lat="34.9329032" lon="33.5957175">
<ele>49.39</ele>
<time>2015-05-02T13:28:21Z</time>
</trkpt>
<trkpt lat="34.9328659" lon="33.5956750">
<ele>48.81</ele>
<time>2015-05-02T13:28:24Z</time>
</trkpt>
<trkpt lat="34.9328373" lon="33.5956214">
<ele>47.74</ele>
<time>2015-05-02T13:28:27Z</time>
</trkpt>
<trkpt lat="34.9328328" lon="33.5955606">
<ele>47.86</ele>
<time>2015-05-02T13:28:30Z</time>
</trkpt>
<trkpt lat="34.9328372" lon="33.5954881">
<ele>46.19</ele>
<time>2015-05-02T13:28:34Z</time>
</trkpt>
<trkpt lat="34.9328589" lon="33.5954327">
<ele>46.03</ele>
<time>2015-05-02T13:28:38Z</time>
</trkpt>
<trkpt lat="34.9329018" lon="33.5953944">
<ele>48.14</ele>
<time>2015-05-02T13:28:46Z</time>
</trkpt>
<trkpt lat="34.9329354" lon="33.5953406">
<ele>48.41</ele>
<time>2015-05-02T13:28:49Z</time>
</trkpt>
<trkpt lat="34.9329776" lon="33.5952976">
<ele>48.61</ele>
<time>2015-05-02T13:28:51Z</time>
</trkpt>
<trkpt lat="34.9330226" lon="33.5952579">
<ele>49.42</ele>
<time>2015-05-02T13:28:53Z</time>
</trkpt>
<trkpt lat="34.9330698" lon="33.5951963">
<ele>49.37</ele>
<time>2015-05-02T13:28:55Z</time>
</trkpt>
<trkpt lat="34.9331223" lon="33.5951279">
<ele>49.10</ele>
<time>2015-05-02T13:28:57Z</time>
</trkpt>
<trkpt lat="34.9331762" lon="33.5950546">
<ele>49.54</ele>
<time>2015-05-02T13:28:59Z</time>
</trkpt>
<trkpt lat="34.9332289" lon="33.5949761">
<ele>50.65</ele>
<time>2015-05-02T13:29:01Z</time>
</trkpt>
<trkpt lat="34.9332821" lon="33.5949065">
<ele>51.67</ele>
<time>2015-05-02T13:29:03Z</time>
</trkpt>
<trkpt lat="34.9333373" lon="33.5948347">
<ele>53.43</ele>
<time>2015-05-02T13:29:05Z</time>
</trkpt>
<trkpt lat="34.9333948" lon="33.5947617">
<ele>53.62</ele>
<time>2015-05-02T13:29:07Z</time>
</trkpt>
<trkpt lat="34.9334474" lon="33.5946891">
<ele>53.92</ele>
<time>2015-05-02T13:29:09Z</time>
</trkpt>
<trkpt lat="34.9335003" lon="33.5946210">
<ele>55.49</ele>
<time>2015-05-02T13:29:11Z</time>
</trkpt>
<trkpt lat="34.9335249" lon="33.5945503">
<ele>55.88</ele>
<time>2015-05-02T13:29:13Z</time>
</trkpt>
<trkpt lat="34.9335369" lon="33.5944875">
<ele>57.25</ele>
<time>2015-05-02T13:29:16Z</time>
</trkpt>
<trkpt lat="34.9335702" lon="33.5944349">
<ele>57.05</ele>
<time>2015-05-02T13:29:19Z</time>
</trkpt>
<trkpt lat="34.9335968" lon="33.5943616">
<ele>52.39</ele>
<time>2015-05-02T13:29:22Z</time>
</trkpt>
<trkpt lat="34.9336314" lon="33.5943029">
<ele>47.31</ele>
<time>2015-05-02T13:29:25Z</time>
</trkpt>
<trkpt lat="34.9336139" lon="33.5942409">
<ele>33.63</ele>
<time>2015-05-02T13:31:24Z</time>
</trkpt>
<trkpt lat="34.9337294" lon="33.5941848">
<ele>34.02</ele>
<time>2015-05-02T13:49:13Z</time>
</trkpt>
<trkpt lat="34.9338081" lon="33.5941985">
<ele>34.52</ele>
<time>2015-05-02T13:49:16Z</time>
</trkpt>
<trkpt lat="34.9337681" lon="33.5941603">
<ele>36.64</ele>
<time>2015-05-02T13:53:24Z</time>
</trkpt>
<trkpt lat="34.9338021" lon="33.5940987">
<ele>39.84</ele>
<time>2015-05-02T13:53:27Z</time>
</trkpt>
<trkpt lat="34.9337587" lon="33.5940834">
<ele>42.01</ele>
<time>2015-05-02T13:53:36Z</time>
</trkpt>
<trkpt lat="34.9336233" lon="33.5939064">
<ele>45.52</ele>
<time>2015-05-02T13:53:53Z</time>
</trkpt>
<trkpt lat="34.9335841" lon="33.5938609">
<ele>45.27</ele>
<time>2015-05-02T13:53:54Z</time>
</trkpt>
<trkpt lat="34.9335349" lon="33.5938018">
<ele>45.55</ele>
<time>2015-05-02T13:53:57Z</time>
</trkpt>
<trkpt lat="34.9334738" lon="33.5937064">
<ele>46.65</ele>
<time>2015-05-02T13:53:59Z</time>
</trkpt>
<trkpt lat="34.9334406" lon="33.5936416">
<ele>48.24</ele>
<time>2015-05-02T13:54:03Z</time>
</trkpt>
<trkpt lat="34.9333945" lon="33.5936271">
<ele>54.98</ele>
<time>2015-05-02T13:54:17Z</time>
</trkpt>
<trkpt lat="34.9336948" lon="33.5938761">
<ele>56.02</ele>
<time>2015-05-02T14:28:14Z</time>
</trkpt>
<trkpt lat="34.9336606" lon="33.5939137">
<ele>52.27</ele>
<time>2015-05-02T14:29:01Z</time>
</trkpt>
<trkpt lat="34.9336258" lon="33.5943278">
<ele>61.02</ele>
<time>2015-05-02T14:31:12Z</time>
</trkpt>
<trkpt lat="34.9335969" lon="33.5942857">
<ele>50.02</ele>
<time>2015-05-02T14:40:03Z</time>
</trkpt>
<trkpt lat="34.9335686" lon="33.5943618">
<ele>52.01</ele>
<time>2015-05-02T14:40:34Z</time>
</trkpt>
<trkpt lat="34.9335258" lon="33.5944226">
<ele>51.52</ele>
<time>2015-05-02T14:40:37Z</time>
</trkpt>
<trkpt lat="34.9335073" lon="33.5944763">
<ele>51.89</ele>
<time>2015-05-02T14:40:39Z</time>
</trkpt>
<trkpt lat="34.9334926" lon="33.5945379">
<ele>51.98</ele>
<time>2015-05-02T14:40:41Z</time>
</trkpt>
<trkpt lat="34.9334627" lon="33.5946242">
<ele>52.01</ele>
<time>2015-05-02T14:40:43Z</time>
</trkpt>
<trkpt lat="34.9334108" lon="33.5947048">
<ele>51.26</ele>
<time>2015-05-02T14:40:45Z</time>
</trkpt>
<trkpt lat="34.9333512" lon="33.5947741">
<ele>50.33</ele>
<time>2015-05-02T14:40:47Z</time>
</trkpt>
<trkpt lat="34.9332929" lon="33.5948427">
<ele>49.34</ele>
<time>2015-05-02T14:40:49Z</time>
</trkpt>
<trkpt lat="34.9332628" lon="33.5948854">
<ele>49.18</ele>
<time>2015-05-02T14:40:50Z</time>
</trkpt>
<trkpt lat="34.9332292" lon="33.5949494">
<ele>49.10</ele>
<time>2015-05-02T14:40:51Z</time>
</trkpt>
<trkpt lat="34.9331686" lon="33.5950359">
<ele>48.54</ele>
<time>2015-05-02T14:40:53Z</time>
</trkpt>
<trkpt lat="34.9331388" lon="33.5950795">
<ele>48.28</ele>
<time>2015-05-02T14:40:54Z</time>
</trkpt>
<trkpt lat="34.9331052" lon="33.5951266">
<ele>48.65</ele>
<time>2015-05-02T14:40:55Z</time>
</trkpt>
<trkpt lat="34.9330707" lon="33.5951711">
<ele>48.33</ele>
<time>2015-05-02T14:40:56Z</time>
</trkpt>
<trkpt lat="34.9330390" lon="33.5952105">
<ele>48.17</ele>
<time>2015-05-02T14:40:57Z</time>
</trkpt>
<trkpt lat="34.9329995" lon="33.5952536">
<ele>48.09</ele>
<time>2015-05-02T14:40:58Z</time>
</trkpt>
<trkpt lat="34.9329370" lon="33.5953351">
<ele>47.54</ele>
<time>2015-05-02T14:41:00Z</time>
</trkpt>
<trkpt lat="34.9328954" lon="33.5953766">
<ele>47.28</ele>
<time>2015-05-02T14:41:01Z</time>
</trkpt>
<trkpt lat="34.9328558" lon="33.5954026">
<ele>47.15</ele>
<time>2015-05-02T14:41:02Z</time>
</trkpt>
<trkpt lat="34.9328121" lon="33.5954208">
<ele>47.08</ele>
<time>2015-05-02T14:41:03Z</time>
</trkpt>
<trkpt lat="34.9327419" lon="33.5954169">
<ele>47.03</ele>
<time>2015-05-02T14:41:05Z</time>
</trkpt>
<trkpt lat="34.9326780" lon="33.5953899">
<ele>47.02</ele>
<time>2015-05-02T14:41:07Z</time>
</trkpt>
<trkpt lat="34.9326305" lon="33.5953486">
<ele>47.02</ele>
<time>2015-05-02T14:41:09Z</time>
</trkpt>
<trkpt lat="34.9325977" lon="33.5953102">
<ele>47.52</ele>
<time>2015-05-02T14:41:11Z</time>
</trkpt>
<trkpt lat="34.9325492" lon="33.5953454">
<ele>48.48</ele>
<time>2015-05-02T14:41:15Z</time>
</trkpt>
<trkpt lat="34.9325396" lon="33.5954037">
<ele>48.88</ele>
<time>2015-05-02T14:41:17Z</time>
</trkpt>
<trkpt lat="34.9325602" lon="33.5954596">
<ele>48.98</ele>
<time>2015-05-02T14:41:19Z</time>
</trkpt>
<trkpt lat="34.9325928" lon="33.5955009">
<ele>49.01</ele>
<time>2015-05-02T14:41:21Z</time>
</trkpt>
<trkpt lat="34.9326338" lon="33.5955613">
<ele>49.01</ele>
<time>2015-05-02T14:41:24Z</time>
</trkpt>
<trkpt lat="34.9326661" lon="33.5956037">
<ele>49.52</ele>
<time>2015-05-02T14:41:27Z</time>
</trkpt>
<trkpt lat="34.9326994" lon="33.5956603">
<ele>50.14</ele>
<time>2015-05-02T14:41:41Z</time>
</trkpt>
<trkpt lat="34.9327270" lon="33.5957079">
<ele>49.28</ele>
<time>2015-05-02T14:41:44Z</time>
</trkpt>
<trkpt lat="34.9327557" lon="33.5958013">
<ele>49.05</ele>
<time>2015-05-02T14:41:47Z</time>
</trkpt>
<trkpt lat="34.9327682" lon="33.5958556">
<ele>48.53</ele>
<time>2015-05-02T14:41:48Z</time>
</trkpt>
<trkpt lat="34.9327756" lon="33.5959153">
<ele>48.27</ele>
<time>2015-05-02T14:41:49Z</time>
</trkpt>
<trkpt lat="34.9327373" lon="33.5960375">
<ele>48.08</ele>
<time>2015-05-02T14:41:51Z</time>
</trkpt>
<trkpt lat="34.9327090" lon="33.5960836">
<ele>48.05</ele>
<time>2015-05-02T14:41:52Z</time>
</trkpt>
<trkpt lat="34.9326758" lon="33.5961230">
<ele>47.53</ele>
<time>2015-05-02T14:41:53Z</time>
</trkpt>
<trkpt lat="34.9326432" lon="33.5961692">
<ele>47.27</ele>
<time>2015-05-02T14:41:54Z</time>
</trkpt>
<trkpt lat="34.9326087" lon="33.5962116">
<ele>47.15</ele>
<time>2015-05-02T14:41:55Z</time>
</trkpt>
<trkpt lat="34.9325489" lon="33.5962944">
<ele>47.05</ele>
<time>2015-05-02T14:41:57Z</time>
</trkpt>
<trkpt lat="34.9324984" lon="33.5963773">
<ele>47.02</ele>
<time>2015-05-02T14:41:59Z</time>
</trkpt>
<trkpt lat="34.9324654" lon="33.5964199">
<ele>47.02</ele>
<time>2015-05-02T14:42:00Z</time>
</trkpt>
<trkpt lat="34.9324096" lon="33.5965127">
<ele>46.52</ele>
<time>2015-05-02T14:42:02Z</time>
</trkpt>
<trkpt lat="34.9323777" lon="33.5965590">
<ele>46.27</ele>
<time>2015-05-02T14:42:03Z</time>
</trkpt>
<trkpt lat="34.9323420" lon="33.5966089">
<ele>46.14</ele>
<time>2015-05-02T14:42:04Z</time>
</trkpt>
<trkpt lat="34.9323059" lon="33.5966626">
<ele>46.08</ele>
<time>2015-05-02T14:42:05Z</time>
</trkpt>
<trkpt lat="34.9322480" lon="33.5967534">
<ele>45.28</ele>
<time>2015-05-02T14:42:07Z</time>
</trkpt>
<trkpt lat="34.9322171" lon="33.5967994">
<ele>45.15</ele>
<time>2015-05-02T14:42:08Z</time>
</trkpt>
<trkpt lat="34.9321706" lon="33.5968788">
<ele>44.30</ele>
<time>2015-05-02T14:42:10Z</time>
</trkpt>
<trkpt lat="34.9321410" lon="33.5969202">
<ele>44.16</ele>
<time>2015-05-02T14:42:11Z</time>
</trkpt>
<trkpt lat="34.9321116" lon="33.5969628">
<ele>44.59</ele>
<time>2015-05-02T14:42:12Z</time>
</trkpt>
<trkpt lat="34.9320777" lon="33.5970094">
<ele>44.80</ele>
<time>2015-05-02T14:42:13Z</time>
</trkpt>
<trkpt lat="34.9320484" lon="33.5970570">
<ele>44.91</ele>
<time>2015-05-02T14:42:14Z</time>
</trkpt>
<trkpt lat="34.9320209" lon="33.5971059">
<ele>44.96</ele>
<time>2015-05-02T14:42:15Z</time>
</trkpt>
<trkpt lat="34.9319873" lon="33.5971527">
<ele>44.99</ele>
<time>2015-05-02T14:42:16Z</time>
</trkpt>
<trkpt lat="34.9319582" lon="33.5971973">
<ele>45.00</ele>
<time>2015-05-02T14:42:17Z</time>
</trkpt>
<trkpt lat="34.9319226" lon="33.5972468">
<ele>45.01</ele>
<time>2015-05-02T14:42:18Z</time>
</trkpt>
<trkpt lat="34.9318900" lon="33.5972910">
<ele>45.01</ele>
<time>2015-05-02T14:42:19Z</time>
</trkpt>
<trkpt lat="34.9318547" lon="33.5973344">
<ele>45.01</ele>
<time>2015-05-02T14:42:20Z</time>
</trkpt>
<trkpt lat="34.9318241" lon="33.5973807">
<ele>45.02</ele>
<time>2015-05-02T14:42:21Z</time>
</trkpt>
<trkpt lat="34.9317624" lon="33.5974612">
<ele>45.02</ele>
<time>2015-05-02T14:42:23Z</time>
</trkpt>
<trkpt lat="34.9317124" lon="33.5975460">
<ele>44.27</ele>
<time>2015-05-02T14:42:25Z</time>
</trkpt>
<trkpt lat="34.9316796" lon="33.5975918">
<ele>44.14</ele>
<time>2015-05-02T14:42:26Z</time>
</trkpt>
<trkpt lat="34.9316611" lon="33.5976494">
<ele>43.58</ele>
<time>2015-05-02T14:42:27Z</time>
</trkpt>
<trkpt lat="34.9316119" lon="33.5977350">
<ele>43.66</ele>
<time>2015-05-02T14:42:29Z</time>
</trkpt>
<trkpt lat="34.9315924" lon="33.5977861">
<ele>43.84</ele>
<time>2015-05-02T14:42:30Z</time>
</trkpt>
<trkpt lat="34.9315675" lon="33.5978359">
<ele>43.93</ele>
<time>2015-05-02T14:42:31Z</time>
</trkpt>
<trkpt lat="34.9315013" lon="33.5979257">
<ele>45.24</ele>
<time>2015-05-02T14:42:33Z</time>
</trkpt>
<trkpt lat="34.9314775" lon="33.5979862">
<ele>45.63</ele>
<time>2015-05-02T14:42:34Z</time>
</trkpt>
<trkpt lat="34.9314341" lon="33.5980872">
<ele>46.42</ele>
<time>2015-05-02T14:42:36Z</time>
</trkpt>
<trkpt lat="34.9314138" lon="33.5981498">
<ele>46.72</ele>
<time>2015-05-02T14:42:37Z</time>
</trkpt>
<trkpt lat="34.9313863" lon="33.5982172">
<ele>46.87</ele>
<time>2015-05-02T14:42:38Z</time>
</trkpt>
<trkpt lat="34.9313711" lon="33.5982739">
<ele>45.94</ele>
<time>2015-05-02T14:42:39Z</time>
</trkpt>
<trkpt lat="34.9313401" lon="33.5983315">
<ele>44.98</ele>
<time>2015-05-02T14:42:40Z</time>
</trkpt>
<trkpt lat="34.9313165" lon="33.5983823">
<ele>44.50</ele>
<time>2015-05-02T14:42:41Z</time>
</trkpt>
<trkpt lat="34.9312753" lon="33.5984912">
<ele>43.39</ele>
<time>2015-05-02T14:42:43Z</time>
</trkpt>
<trkpt lat="34.9312464" lon="33.5985421">
<ele>43.70</ele>
<time>2015-05-02T14:42:44Z</time>
</trkpt>
<trkpt lat="34.9312064" lon="33.5986429">
<ele>43.94</ele>
<time>2015-05-02T14:42:46Z</time>
</trkpt>
<trkpt lat="34.9311558" lon="33.5987260">
<ele>44.00</ele>
<time>2015-05-02T14:42:48Z</time>
</trkpt>
<trkpt lat="34.9311311" lon="33.5987741">
<ele>44.01</ele>
<time>2015-05-02T14:42:49Z</time>
</trkpt>
<trkpt lat="34.9311117" lon="33.5988376">
<ele>43.51</ele>
<time>2015-05-02T14:42:50Z</time>
</trkpt>
<trkpt lat="34.9310924" lon="33.5988898">
<ele>42.76</ele>
<time>2015-05-02T14:42:51Z</time>
</trkpt>
<trkpt lat="34.9310664" lon="33.5989546">
<ele>42.89</ele>
<time>2015-05-02T14:42:52Z</time>
</trkpt>
<trkpt lat="34.9310325" lon="33.5990098">
<ele>43.95</ele>
<time>2015-05-02T14:42:53Z</time>
</trkpt>
<trkpt lat="34.9309751" lon="33.5991088">
<ele>43.25</ele>
<time>2015-05-02T14:42:55Z</time>
</trkpt>
<trkpt lat="34.9309474" lon="33.5991613">
<ele>43.13</ele>
<time>2015-05-02T14:42:56Z</time>
</trkpt>
<trkpt lat="34.9309175" lon="33.5992130">
<ele>43.57</ele>
<time>2015-05-02T14:42:57Z</time>
</trkpt>
<trkpt lat="34.9308906" lon="33.5992612">
<ele>43.80</ele>
<time>2015-05-02T14:42:58Z</time>
</trkpt>
<trkpt lat="34.9308472" lon="33.5993600">
<ele>43.46</ele>
<time>2015-05-02T14:43:00Z</time>
</trkpt>
<trkpt lat="34.9308195" lon="33.5994083">
<ele>43.24</ele>
<time>2015-05-02T14:43:01Z</time>
</trkpt>
<trkpt lat="34.9307753" lon="33.5994969">
<ele>43.07</ele>
<time>2015-05-02T14:43:03Z</time>
</trkpt>
<trkpt lat="34.9307402" lon="33.5995788">
<ele>41.78</ele>
<time>2015-05-02T14:43:05Z</time>
</trkpt>
<trkpt lat="34.9307086" lon="33.5996540">
<ele>41.71</ele>
<time>2015-05-02T14:43:07Z</time>
</trkpt>
<trkpt lat="34.9306693" lon="33.5997334">
<ele>42.69</ele>
<time>2015-05-02T14:43:09Z</time>
</trkpt>
<trkpt lat="34.9306258" lon="33.5998103">
<ele>43.68</ele>
<time>2015-05-02T14:43:11Z</time>
</trkpt>
<trkpt lat="34.9305822" lon="33.5998934">
<ele>44.68</ele>
<time>2015-05-02T14:43:13Z</time>
</trkpt>
<trkpt lat="34.9305590" lon="33.5999589">
<ele>44.35</ele>
<time>2015-05-02T14:43:14Z</time>
</trkpt>
<trkpt lat="34.9305216" lon="33.6000510">
<ele>44.10</ele>
<time>2015-05-02T14:43:16Z</time>
</trkpt>
<trkpt lat="34.9304953" lon="33.6001021">
<ele>44.56</ele>
<time>2015-05-02T14:43:17Z</time>
</trkpt>
<trkpt lat="34.9304691" lon="33.6001679">
<ele>44.79</ele>
<time>2015-05-02T14:43:18Z</time>
</trkpt>
<trkpt lat="34.9304449" lon="33.6002270">
<ele>44.90</ele>
<time>2015-05-02T14:43:19Z</time>
</trkpt>
<trkpt lat="34.9304153" lon="33.6002904">
<ele>45.46</ele>
<time>2015-05-02T14:43:20Z</time>
</trkpt>
<trkpt lat="34.9303860" lon="33.6003525">
<ele>45.24</ele>
<time>2015-05-02T14:43:21Z</time>
</trkpt>
<trkpt lat="34.9303567" lon="33.6004126">
<ele>45.13</ele>
<time>2015-05-02T14:43:22Z</time>
</trkpt>
<trkpt lat="34.9303284" lon="33.6004756">
<ele>45.07</ele>
<time>2015-05-02T14:43:23Z</time>
</trkpt>
<trkpt lat="34.9303088" lon="33.6005276">
<ele>45.04</ele>
<time>2015-05-02T14:43:24Z</time>
</trkpt>
<trkpt lat="34.9302846" lon="33.6005880">
<ele>45.03</ele>
<time>2015-05-02T14:43:25Z</time>
</trkpt>
<trkpt lat="34.9302562" lon="33.6006575">
<ele>45.02</ele>
<time>2015-05-02T14:43:26Z</time>
</trkpt>
<trkpt lat="34.9302249" lon="33.6007196">
<ele>45.02</ele>
<time>2015-05-02T14:43:27Z</time>
</trkpt>
<trkpt lat="34.9301961" lon="33.6007835">
<ele>45.02</ele>
<time>2015-05-02T14:43:28Z</time>
</trkpt>
<trkpt lat="34.9301633" lon="33.6008437">
<ele>45.02</ele>
<time>2015-05-02T14:43:29Z</time>
</trkpt>
<trkpt lat="34.9301316" lon="33.6009030">
<ele>45.02</ele>
<time>2015-05-02T14:43:30Z</time>
</trkpt>
<trkpt lat="34.9301057" lon="33.6009622">
<ele>45.02</ele>
<time>2015-05-02T14:43:31Z</time>
</trkpt>
<trkpt lat="34.9300727" lon="33.6010254">
<ele>45.02</ele>
<time>2015-05-02T14:43:32Z</time>
</trkpt>
<trkpt lat="34.9300393" lon="33.6010937">
<ele>44.52</ele>
<time>2015-05-02T14:43:33Z</time>
</trkpt>
<trkpt lat="34.9300039" lon="33.6011539">
<ele>44.77</ele>
<time>2015-05-02T14:43:34Z</time>
</trkpt>
<trkpt lat="34.9299649" lon="33.6012187">
<ele>44.89</ele>
<time>2015-05-02T14:43:35Z</time>
</trkpt>
<trkpt lat="34.9299300" lon="33.6012820">
<ele>44.95</ele>
<time>2015-05-02T14:43:36Z</time>
</trkpt>
<trkpt lat="34.9298940" lon="33.6013419">
<ele>44.98</ele>
<time>2015-05-02T14:43:37Z</time>
</trkpt>
<trkpt lat="34.9298583" lon="33.6014008">
<ele>45.00</ele>
<time>2015-05-02T14:43:38Z</time>
</trkpt>
<trkpt lat="34.9298301" lon="33.6014670">
<ele>45.01</ele>
<time>2015-05-02T14:43:39Z</time>
</trkpt>
<trkpt lat="34.9297992" lon="33.6015279">
<ele>45.01</ele>
<time>2015-05-02T14:43:40Z</time>
</trkpt>
<trkpt lat="34.9297689" lon="33.6015925">
<ele>44.51</ele>
<time>2015-05-02T14:43:41Z</time>
</trkpt>
<trkpt lat="34.9297411" lon="33.6016583">
<ele>44.27</ele>
<time>2015-05-02T14:43:42Z</time>
</trkpt>
<trkpt lat="34.9297036" lon="33.6017185">
<ele>44.64</ele>
<time>2015-05-02T14:43:43Z</time>
</trkpt>
<trkpt lat="34.9296706" lon="33.6017859">
<ele>44.33</ele>
<time>2015-05-02T14:43:44Z</time>
</trkpt>
<trkpt lat="34.9296436" lon="33.6018508">
<ele>44.17</ele>
<time>2015-05-02T14:43:45Z</time>
</trkpt>
<trkpt lat="34.9296103" lon="33.6019176">
<ele>44.09</ele>
<time>2015-05-02T14:43:46Z</time>
</trkpt>
<trkpt lat="34.9295755" lon="33.6019798">
<ele>44.06</ele>
<time>2015-05-02T14:43:47Z</time>
</trkpt>
<trkpt lat="34.9295375" lon="33.6020485">
<ele>44.04</ele>
<time>2015-05-02T14:43:48Z</time>
</trkpt>
<trkpt lat="34.9295072" lon="33.6021119">
<ele>44.03</ele>
<time>2015-05-02T14:43:49Z</time>
</trkpt>
<trkpt lat="34.9294703" lon="33.6021790">
<ele>44.02</ele>
<time>2015-05-02T14:43:50Z</time>
</trkpt>
<trkpt lat="34.9294373" lon="33.6022453">
<ele>44.02</ele>
<time>2015-05-02T14:43:51Z</time>
</trkpt>
<trkpt lat="34.9294054" lon="33.6023094">
<ele>44.02</ele>
<time>2015-05-02T14:43:52Z</time>
</trkpt>
<trkpt lat="34.9293813" lon="33.6023687">
<ele>44.02</ele>
<time>2015-05-02T14:43:53Z</time>
</trkpt>
<trkpt lat="34.9293484" lon="33.6024190">
<ele>44.02</ele>
<time>2015-05-02T14:43:54Z</time>
</trkpt>
<trkpt lat="34.9293228" lon="33.6024749">
<ele>44.02</ele>
<time>2015-05-02T14:43:55Z</time>
</trkpt>
<trkpt lat="34.9292932" lon="33.6025336">
<ele>44.02</ele>
<time>2015-05-02T14:43:56Z</time>
</trkpt>
<trkpt lat="34.9292565" lon="33.6025861">
<ele>44.02</ele>
<time>2015-05-02T14:43:57Z</time>
</trkpt>
<trkpt lat="34.9292365" lon="33.6026393">
<ele>44.02</ele>
<time>2015-05-02T14:43:58Z</time>
</trkpt>
<trkpt lat="34.9292104" lon="33.6026860">
<ele>44.02</ele>
<time>2015-05-02T14:43:59Z</time>
</trkpt>
<trkpt lat="34.9291759" lon="33.6027541">
<ele>44.52</ele>
<time>2015-05-02T14:44:00Z</time>
</trkpt>
<trkpt lat="34.9291410" lon="33.6028123">
<ele>44.77</ele>
<time>2015-05-02T14:44:01Z</time>
</trkpt>
<trkpt lat="34.9291199" lon="33.6028769">
<ele>44.39</ele>
<time>2015-05-02T14:44:02Z</time>
</trkpt>
<trkpt lat="34.9290836" lon="33.6029370">
<ele>44.70</ele>
<time>2015-05-02T14:44:03Z</time>
</trkpt>
<trkpt lat="34.9290527" lon="33.6030070">
<ele>44.36</ele>
<time>2015-05-02T14:44:04Z</time>
</trkpt>
<trkpt lat="34.9290169" lon="33.6030740">
<ele>44.19</ele>
<time>2015-05-02T14:44:05Z</time>
</trkpt>
<trkpt lat="34.9289821" lon="33.6031362">
<ele>44.10</ele>
<time>2015-05-02T14:44:06Z</time>
</trkpt>
<trkpt lat="34.9289443" lon="33.6031986">
<ele>44.06</ele>
<time>2015-05-02T14:44:07Z</time>
</trkpt>
<trkpt lat="34.9289115" lon="33.6032521">
<ele>44.04</ele>
<time>2015-05-02T14:44:08Z</time>
</trkpt>
<trkpt lat="34.9288794" lon="33.6033132">
<ele>44.03</ele>
<time>2015-05-02T14:44:09Z</time>
</trkpt>
<trkpt lat="34.9288492" lon="33.6033754">
<ele>44.02</ele>
<time>2015-05-02T14:44:10Z</time>
</trkpt>
<trkpt lat="34.9288235" lon="33.6034241">
<ele>44.02</ele>
<time>2015-05-02T14:44:11Z</time>
</trkpt>
<trkpt lat="34.9287896" lon="33.6034799">
<ele>44.02</ele>
<time>2015-05-02T14:44:12Z</time>
</trkpt>
<trkpt lat="34.9287667" lon="33.6035278">
<ele>44.02</ele>
<time>2015-05-02T14:44:13Z</time>
</trkpt>
<trkpt lat="34.9287447" lon="33.6035817">
<ele>44.02</ele>
<time>2015-05-02T14:44:14Z</time>
</trkpt>
<trkpt lat="34.9287418" lon="33.6036859">
<ele>43.77</ele>
<time>2015-05-02T14:44:16Z</time>
</trkpt>
<trkpt lat="34.9287695" lon="33.6037545">
<ele>43.95</ele>
<time>2015-05-02T14:44:18Z</time>
</trkpt>
<trkpt lat="34.9287938" lon="33.6038292">
<ele>44.00</ele>
<time>2015-05-02T14:44:20Z</time>
</trkpt>
<trkpt lat="34.9288149" lon="33.6038932">
<ele>44.39</ele>
<time>2015-05-02T14:45:06Z</time>
</trkpt>
<trkpt lat="34.9288365" lon="33.6039486">
<ele>44.61</ele>
<time>2015-05-02T14:45:08Z</time>
</trkpt>
<trkpt lat="34.9288744" lon="33.6040126">
<ele>45.41</ele>
<time>2015-05-02T14:45:10Z</time>
</trkpt>
<trkpt lat="34.9289324" lon="33.6040782">
<ele>45.37</ele>
<time>2015-05-02T14:45:12Z</time>
</trkpt>
<trkpt lat="34.9290148" lon="33.6041488">
<ele>45.10</ele>
<time>2015-05-02T14:45:14Z</time>
</trkpt>
<trkpt lat="34.9290553" lon="33.6041755">
<ele>45.06</ele>
<time>2015-05-02T14:45:15Z</time>
</trkpt>
<trkpt lat="34.9290952" lon="33.6042045">
<ele>45.04</ele>
<time>2015-05-02T14:45:16Z</time>
</trkpt>
<trkpt lat="34.9291349" lon="33.6042335">
<ele>45.03</ele>
<time>2015-05-02T14:45:17Z</time>
</trkpt>
<trkpt lat="34.9291771" lon="33.6042625">
<ele>45.02</ele>
<time>2015-05-02T14:45:18Z</time>
</trkpt>
<trkpt lat="34.9292285" lon="33.6042910">
<ele>45.02</ele>
<time>2015-05-02T14:45:19Z</time>
</trkpt>
<trkpt lat="34.9292844" lon="33.6043184">
<ele>45.02</ele>
<time>2015-05-02T14:45:20Z</time>
</trkpt>
<trkpt lat="34.9293351" lon="33.6043517">
<ele>45.02</ele>
<time>2015-05-02T14:45:21Z</time>
</trkpt>
<trkpt lat="34.9293922" lon="33.6043874">
<ele>45.02</ele>
<time>2015-05-02T14:45:22Z</time>
</trkpt>
<trkpt lat="34.9294473" lon="33.6044194">
<ele>45.02</ele>
<time>2015-05-02T14:45:23Z</time>
</trkpt>
<trkpt lat="34.9295019" lon="33.6044534">
<ele>45.02</ele>
<time>2015-05-02T14:45:24Z</time>
</trkpt>
<trkpt lat="34.9295643" lon="33.6044877">
<ele>45.02</ele>
<time>2015-05-02T14:45:25Z</time>
</trkpt>
<trkpt lat="34.9296217" lon="33.6045210">
<ele>44.52</ele>
<time>2015-05-02T14:45:26Z</time>
</trkpt>
<trkpt lat="34.9296830" lon="33.6045604">
<ele>44.27</ele>
<time>2015-05-02T14:45:27Z</time>
</trkpt>
<trkpt lat="34.9297411" lon="33.6046006">
<ele>43.64</ele>
<time>2015-05-02T14:45:28Z</time>
</trkpt>
<trkpt lat="34.9297992" lon="33.6046390">
<ele>43.33</ele>
<time>2015-05-02T14:45:29Z</time>
</trkpt>
<trkpt lat="34.9298601" lon="33.6046718">
<ele>43.17</ele>
<time>2015-05-02T14:45:30Z</time>
</trkpt>
<trkpt lat="34.9299140" lon="33.6047090">
<ele>42.59</ele>
<time>2015-05-02T14:45:31Z</time>
</trkpt>
<trkpt lat="34.9299800" lon="33.6047469">
<ele>42.31</ele>
<time>2015-05-02T14:45:32Z</time>
</trkpt>
<trkpt lat="34.9300627" lon="33.6047844">
<ele>41.66</ele>
<time>2015-05-02T14:45:33Z</time>
</trkpt>
<trkpt lat="34.9301314" lon="33.6048223">
<ele>41.34</ele>
<time>2015-05-02T14:45:34Z</time>
</trkpt>
<trkpt lat="34.9302079" lon="33.6048600">
<ele>40.68</ele>
<time>2015-05-02T14:45:35Z</time>
</trkpt>
<trkpt lat="34.9302746" lon="33.6048956">
<ele>40.35</ele>
<time>2015-05-02T14:45:36Z</time>
</trkpt>
<trkpt lat="34.9303418" lon="33.6049307">
<ele>39.68</ele>
<time>2015-05-02T14:45:37Z</time>
</trkpt>
<trkpt lat="34.9304148" lon="33.6049676">
<ele>39.35</ele>
<time>2015-05-02T14:45:38Z</time>
</trkpt>
<trkpt lat="34.9304777" lon="33.6050012">
<ele>39.18</ele>
<time>2015-05-02T14:45:39Z</time>
</trkpt>
<trkpt lat="34.9305441" lon="33.6050341">
<ele>39.10</ele>
<time>2015-05-02T14:45:40Z</time>
</trkpt>
<trkpt lat="34.9306109" lon="33.6050718">
<ele>38.56</ele>
<time>2015-05-02T14:45:41Z</time>
</trkpt>
<trkpt lat="34.9306750" lon="33.6051071">
<ele>38.29</ele>
<time>2015-05-02T14:45:42Z</time>
</trkpt>
<trkpt lat="34.9307377" lon="33.6051413">
<ele>38.15</ele>
<time>2015-05-02T14:45:43Z</time>
</trkpt>
<trkpt lat="34.9307967" lon="33.6051775">
<ele>37.58</ele>
<time>2015-05-02T14:45:44Z</time>
</trkpt>
<trkpt lat="34.9308529" lon="33.6052081">
<ele>37.30</ele>
<time>2015-05-02T14:45:45Z</time>
</trkpt>
<trkpt lat="34.9309151" lon="33.6052396">
<ele>37.16</ele>
<time>2015-05-02T14:45:46Z</time>
</trkpt>
<trkpt lat="34.9309671" lon="33.6052635">
<ele>37.09</ele>
<time>2015-05-02T14:45:47Z</time>
</trkpt>
<trkpt lat="34.9310204" lon="33.6052925">
<ele>36.55</ele>
<time>2015-05-02T14:45:48Z</time>
</trkpt>
<trkpt lat="34.9310792" lon="33.6053267">
<ele>36.78</ele>
<time>2015-05-02T14:45:49Z</time>
</trkpt>
<trkpt lat="34.9311312" lon="33.6053584">
<ele>36.90</ele>
<time>2015-05-02T14:45:50Z</time>
</trkpt>
<trkpt lat="34.9311871" lon="33.6053878">
<ele>36.96</ele>
<time>2015-05-02T14:45:51Z</time>
</trkpt>
<trkpt lat="34.9312429" lon="33.6054127">
<ele>36.49</ele>
<time>2015-05-02T14:45:52Z</time>
</trkpt>
<trkpt lat="34.9313523" lon="33.6054663">
<ele>37.13</ele>
<time>2015-05-02T14:45:54Z</time>
</trkpt>
<trkpt lat="34.9314006" lon="33.6054987">
<ele>37.57</ele>
<time>2015-05-02T14:45:55Z</time>
</trkpt>
<trkpt lat="34.9314675" lon="33.6055581">
<ele>37.80</ele>
<time>2015-05-02T14:45:56Z</time>
</trkpt>
<trkpt lat="34.9315254" lon="33.6055666">
<ele>38.41</ele>
<time>2015-05-02T14:45:57Z</time>
</trkpt>
<trkpt lat="34.9315740" lon="33.6055948">
<ele>38.71</ele>
<time>2015-05-02T14:45:58Z</time>
</trkpt>
<trkpt lat="34.9316274" lon="33.6056274">
<ele>38.86</ele>
<time>2015-05-02T14:45:59Z</time>
</trkpt>
<trkpt lat="34.9316753" lon="33.6056598">
<ele>39.44</ele>
<time>2015-05-02T14:46:00Z</time>
</trkpt>
<trkpt lat="34.9317235" lon="33.6056926">
<ele>40.23</ele>
<time>2015-05-02T14:46:01Z</time>
</trkpt>
<trkpt lat="34.9317735" lon="33.6057194">
<ele>40.12</ele>
<time>2015-05-02T14:46:02Z</time>
</trkpt>
<trkpt lat="34.9318163" lon="33.6057442">
<ele>40.07</ele>
<time>2015-05-02T14:46:03Z</time>
</trkpt>
<trkpt lat="34.9318660" lon="33.6057766">
<ele>40.04</ele>
<time>2015-05-02T14:46:04Z</time>
</trkpt>
<trkpt lat="34.9319122" lon="33.6058127">
<ele>40.03</ele>
<time>2015-05-02T14:46:05Z</time>
</trkpt>
<trkpt lat="34.9319557" lon="33.6058440">
<ele>40.02</ele>
<time>2015-05-02T14:46:06Z</time>
</trkpt>
<trkpt lat="34.9320100" lon="33.6058817">
<ele>40.02</ele>
<time>2015-05-02T14:46:07Z</time>
</trkpt>
<trkpt lat="34.9320616" lon="33.6059168">
<ele>40.02</ele>
<time>2015-05-02T14:46:08Z</time>
</trkpt>
<trkpt lat="34.9321046" lon="33.6059491">
<ele>39.52</ele>
<time>2015-05-02T14:46:09Z</time>
</trkpt>
<trkpt lat="34.9321556" lon="33.6059875">
<ele>39.27</ele>
<time>2015-05-02T14:46:10Z</time>
</trkpt>
<trkpt lat="34.9321935" lon="33.6060210">
<ele>39.14</ele>
<time>2015-05-02T14:46:11Z</time>
</trkpt>
<trkpt lat="34.9322425" lon="33.6060598">
<ele>39.58</ele>
<time>2015-05-02T14:46:12Z</time>
</trkpt>
<trkpt lat="34.9322930" lon="33.6060990">
<ele>39.30</ele>
<time>2015-05-02T14:46:13Z</time>
</trkpt>
<trkpt lat="34.9323299" lon="33.6061361">
<ele>39.16</ele>
<time>2015-05-02T14:46:14Z</time>
</trkpt>
<trkpt lat="34.9323738" lon="33.6061810">
<ele>38.59</ele>
<time>2015-05-02T14:46:15Z</time>
</trkpt>
<trkpt lat="34.9324227" lon="33.6062243">
<ele>38.80</ele>
<time>2015-05-02T14:46:16Z</time>
</trkpt>
<trkpt lat="34.9324636" lon="33.6062652">
<ele>38.91</ele>
<time>2015-05-02T14:46:17Z</time>
</trkpt>
<trkpt lat="34.9325137" lon="33.6063106">
<ele>38.96</ele>
<time>2015-05-02T14:46:18Z</time>
</trkpt>
<trkpt lat="34.9325549" lon="33.6063504">
<ele>38.99</ele>
<time>2015-05-02T14:46:19Z</time>
</trkpt>
<trkpt lat="34.9325960" lon="33.6063947">
<ele>38.50</ele>
<time>2015-05-02T14:46:20Z</time>
</trkpt>
<trkpt lat="34.9326427" lon="33.6064421">
<ele>38.76</ele>
<time>2015-05-02T14:46:21Z</time>
</trkpt>
<trkpt lat="34.9326766" lon="33.6064869">
<ele>38.89</ele>
<time>2015-05-02T14:46:22Z</time>
</trkpt>
<trkpt lat="34.9327217" lon="33.6065336">
<ele>38.95</ele>
<time>2015-05-02T14:46:23Z</time>
</trkpt>
<trkpt lat="34.9327628" lon="33.6065757">
<ele>38.48</ele>
<time>2015-05-02T14:46:24Z</time>
</trkpt>
<trkpt lat="34.9327997" lon="33.6066182">
<ele>38.75</ele>
<time>2015-05-02T14:46:25Z</time>
</trkpt>
<trkpt lat="34.9328386" lon="33.6066655">
<ele>38.88</ele>
<time>2015-05-02T14:46:26Z</time>
</trkpt>
<trkpt lat="34.9328751" lon="33.6067079">
<ele>38.95</ele>
<time>2015-05-02T14:46:27Z</time>
</trkpt>
<trkpt lat="34.9329168" lon="33.6067558">
<ele>38.48</ele>
<time>2015-05-02T14:46:28Z</time>
</trkpt>
<trkpt lat="34.9329597" lon="33.6068078">
<ele>38.25</ele>
<time>2015-05-02T14:46:29Z</time>
</trkpt>
<trkpt lat="34.9330002" lon="33.6068545">
<ele>38.63</ele>
<time>2015-05-02T14:46:30Z</time>
</trkpt>
<trkpt lat="34.9330468" lon="33.6069079">
<ele>38.82</ele>
<time>2015-05-02T14:46:31Z</time>
</trkpt>
<trkpt lat="34.9330880" lon="33.6069566">
<ele>38.92</ele>
<time>2015-05-02T14:46:32Z</time>
</trkpt>
<trkpt lat="34.9331296" lon="33.6070076">
<ele>38.47</ele>
<time>2015-05-02T14:46:33Z</time>
</trkpt>
<trkpt lat="34.9331768" lon="33.6070655">
<ele>38.24</ele>
<time>2015-05-02T14:46:34Z</time>
</trkpt>
<trkpt lat="34.9332218" lon="33.6071165">
<ele>38.13</ele>
<time>2015-05-02T14:46:35Z</time>
</trkpt>
<trkpt lat="34.9332670" lon="33.6071798">
<ele>38.07</ele>
<time>2015-05-02T14:46:36Z</time>
</trkpt>
<trkpt lat="34.9333114" lon="33.6072346">
<ele>38.04</ele>
<time>2015-05-02T14:46:37Z</time>
</trkpt>
<trkpt lat="34.9333598" lon="33.6072931">
<ele>38.03</ele>
<time>2015-05-02T14:46:38Z</time>
</trkpt>
<trkpt lat="34.9334077" lon="33.6073478">
<ele>37.52</ele>
<time>2015-05-02T14:46:39Z</time>
</trkpt>
<trkpt lat="34.9334518" lon="33.6074013">
<ele>37.77</ele>
<time>2015-05-02T14:46:40Z</time>
</trkpt>
<trkpt lat="34.9334929" lon="33.6074510">
<ele>37.89</ele>
<time>2015-05-02T14:46:41Z</time>
</trkpt>
<trkpt lat="34.9335310" lon="33.6074831">
<ele>37.45</ele>
<time>2015-05-02T14:46:42Z</time>
</trkpt>
<trkpt lat="34.9335812" lon="33.6075400">
<ele>37.88</ele>
<time>2015-05-02T14:46:44Z</time>
</trkpt>
<trkpt lat="34.9336258" lon="33.6075978">
<ele>37.48</ele>
<time>2015-05-02T14:46:46Z</time>
</trkpt>
<trkpt lat="34.9336681" lon="33.6076599">
<ele>37.88</ele>
<time>2015-05-02T14:46:48Z</time>
</trkpt>
<trkpt lat="34.9337124" lon="33.6077074">
<ele>37.23</ele>
<time>2015-05-02T14:46:50Z</time>
</trkpt>
<trkpt lat="34.9337542" lon="33.6077526">
<ele>37.52</ele>
<time>2015-05-02T14:47:14Z</time>
</trkpt>
<trkpt lat="34.9338172" lon="33.6077994">
<ele>37.08</ele>
<time>2015-05-02T14:47:17Z</time>
</trkpt>
<trkpt lat="34.9338779" lon="33.6078365">
<ele>37.03</ele>
<time>2015-05-02T14:47:19Z</time>
</trkpt>
<trkpt lat="34.9339226" lon="33.6079058">
<ele>37.02</ele>
<time>2015-05-02T14:47:21Z</time>
</trkpt>
<trkpt lat="34.9338986" lon="33.6080411">
<ele>37.02</ele>
<time>2015-05-02T14:47:23Z</time>
</trkpt>
<trkpt lat="34.9338683" lon="33.6080879">
<ele>37.02</ele>
<time>2015-05-02T14:47:24Z</time>
</trkpt>
<trkpt lat="34.9338362" lon="33.6081355">
<ele>36.52</ele>
<time>2015-05-02T14:47:25Z</time>
</trkpt>
<trkpt lat="34.9338096" lon="33.6081842">
<ele>36.27</ele>
<time>2015-05-02T14:47:26Z</time>
</trkpt>
<trkpt lat="34.9337727" lon="33.6082224">
<ele>36.14</ele>
<time>2015-05-02T14:47:27Z</time>
</trkpt>
<trkpt lat="34.9337340" lon="33.6082702">
<ele>36.08</ele>
<time>2015-05-02T14:47:28Z</time>
</trkpt>
<trkpt lat="34.9336946" lon="33.6083160">
<ele>36.05</ele>
<time>2015-05-02T14:47:29Z</time>
</trkpt>
<trkpt lat="34.9336517" lon="33.6083570">
<ele>36.53</ele>
<time>2015-05-02T14:47:30Z</time>
</trkpt>
<trkpt lat="34.9336099" lon="33.6083921">
<ele>36.77</ele>
<time>2015-05-02T14:47:31Z</time>
</trkpt>
<trkpt lat="34.9335739" lon="33.6084470">
<ele>36.89</ele>
<time>2015-05-02T14:47:32Z</time>
</trkpt>
<trkpt lat="34.9335293" lon="33.6084918">
<ele>36.96</ele>
<time>2015-05-02T14:47:33Z</time>
</trkpt>
<trkpt lat="34.9334868" lon="33.6085244">
<ele>36.99</ele>
<time>2015-05-02T14:47:34Z</time>
</trkpt>
<trkpt lat="34.9334370" lon="33.6085726">
<ele>37.00</ele>
<time>2015-05-02T14:47:35Z</time>
</trkpt>
<trkpt lat="34.9333881" lon="33.6086252">
<ele>37.01</ele>
<time>2015-05-02T14:47:36Z</time>
</trkpt>
<trkpt lat="34.9333365" lon="33.6086705">
<ele>37.01</ele>
<time>2015-05-02T14:47:37Z</time>
</trkpt>
<trkpt lat="34.9332818" lon="33.6087263">
<ele>37.01</ele>
<time>2015-05-02T14:47:38Z</time>
</trkpt>
<trkpt lat="34.9332435" lon="33.6087726">
<ele>37.02</ele>
<time>2015-05-02T14:47:39Z</time>
</trkpt>
<trkpt lat="34.9331855" lon="33.6088246">
<ele>37.52</ele>
<time>2015-05-02T14:47:40Z</time>
</trkpt>
<trkpt lat="34.9331324" lon="33.6088769">
<ele>37.77</ele>
<time>2015-05-02T14:47:41Z</time>
</trkpt>
<trkpt lat="34.9330646" lon="33.6089227">
<ele>37.89</ele>
<time>2015-05-02T14:47:42Z</time>
</trkpt>
<trkpt lat="34.9330142" lon="33.6089806">
<ele>37.95</ele>
<time>2015-05-02T14:47:43Z</time>
</trkpt>
<trkpt lat="34.9329639" lon="33.6090226">
<ele>37.48</ele>
<time>2015-05-02T14:47:44Z</time>
</trkpt>
<trkpt lat="34.9329140" lon="33.6090834">
<ele>37.75</ele>
<time>2015-05-02T14:47:45Z</time>
</trkpt>
<trkpt lat="34.9328633" lon="33.6091340">
<ele>37.38</ele>
<time>2015-05-02T14:47:46Z</time>
</trkpt>
<trkpt lat="34.9328146" lon="33.6091746">
<ele>37.20</ele>
<time>2015-05-02T14:47:47Z</time>
</trkpt>
<trkpt lat="34.9327582" lon="33.6092296">
<ele>37.11</ele>
<time>2015-05-02T14:47:48Z</time>
</trkpt>
<trkpt lat="34.9327227" lon="33.6092808">
<ele>37.06</ele>
<time>2015-05-02T14:47:49Z</time>
</trkpt>
<trkpt lat="34.9326787" lon="33.6093285">
<ele>37.54</ele>
<time>2015-05-02T14:47:50Z</time>
</trkpt>
<trkpt lat="34.9326327" lon="33.6093710">
<ele>37.78</ele>
<time>2015-05-02T14:47:51Z</time>
</trkpt>
<trkpt lat="34.9325789" lon="33.6094185">
<ele>37.90</ele>
<time>2015-05-02T14:47:52Z</time>
</trkpt>
<trkpt lat="34.9325254" lon="33.6094693">
<ele>37.96</ele>
<time>2015-05-02T14:47:53Z</time>
</trkpt>
<trkpt lat="34.9324750" lon="33.6095232">
<ele>37.99</ele>
<time>2015-05-02T14:47:54Z</time>
</trkpt>
<trkpt lat="34.9324297" lon="33.6095763">
<ele>37.50</ele>
<time>2015-05-02T14:47:55Z</time>
</trkpt>
<trkpt lat="34.9323781" lon="33.6096230">
<ele>37.26</ele>
<time>2015-05-02T14:47:56Z</time>
</trkpt>
<trkpt lat="34.9323256" lon="33.6096762">
<ele>37.64</ele>
<time>2015-05-02T14:47:57Z</time>
</trkpt>
<trkpt lat="34.9322755" lon="33.6097302">
<ele>37.33</ele>
<time>2015-05-02T14:47:58Z</time>
</trkpt>
<trkpt lat="34.9322219" lon="33.6097878">
<ele>37.17</ele>
<time>2015-05-02T14:47:59Z</time>
</trkpt>
<trkpt lat="34.9321657" lon="33.6098347">
<ele>37.09</ele>
<time>2015-05-02T14:48:00Z</time>
</trkpt>
<trkpt lat="34.9321172" lon="33.6098903">
<ele>37.55</ele>
<time>2015-05-02T14:48:01Z</time>
</trkpt>
<trkpt lat="34.9320717" lon="33.6099415">
<ele>37.29</ele>
<time>2015-05-02T14:48:02Z</time>
</trkpt>
<trkpt lat="34.9320224" lon="33.6099962">
<ele>37.15</ele>
<time>2015-05-02T14:48:03Z</time>
</trkpt>
<trkpt lat="34.9319889" lon="33.6100489">
<ele>37.08</ele>
<time>2015-05-02T14:48:04Z</time>
</trkpt>
<trkpt lat="34.9319407" lon="33.6101211">
<ele>37.05</ele>
<time>2015-05-02T14:48:05Z</time>
</trkpt>
<trkpt lat="34.9318946" lon="33.6101821">
<ele>37.03</ele>
<time>2015-05-02T14:48:06Z</time>
</trkpt>
<trkpt lat="34.9318467" lon="33.6102449">
<ele>37.02</ele>
<time>2015-05-02T14:48:07Z</time>
</trkpt>
<trkpt lat="34.9317912" lon="33.6103124">
<ele>37.02</ele>
<time>2015-05-02T14:48:08Z</time>
</trkpt>
<trkpt lat="34.9317460" lon="33.6103775">
<ele>36.52</ele>
<time>2015-05-02T14:48:09Z</time>
</trkpt>
<trkpt lat="34.9317100" lon="33.6104532">
<ele>36.77</ele>
<time>2015-05-02T14:48:10Z</time>
</trkpt>
<trkpt lat="34.9316697" lon="33.6105304">
<ele>36.89</ele>
<time>2015-05-02T14:48:11Z</time>
</trkpt>
<trkpt lat="34.9316310" lon="33.6106147">
<ele>36.95</ele>
<time>2015-05-02T14:48:12Z</time>
</trkpt>
<trkpt lat="34.9315844" lon="33.6106893">
<ele>36.98</ele>
<time>2015-05-02T14:48:13Z</time>
</trkpt>
<trkpt lat="34.9315306" lon="33.6107611">
<ele>37.00</ele>
<time>2015-05-02T14:48:14Z</time>
</trkpt>
<trkpt lat="34.9314929" lon="33.6108345">
<ele>37.01</ele>
<time>2015-05-02T14:48:15Z</time>
</trkpt>
<trkpt lat="34.9314552" lon="33.6109119">
<ele>37.01</ele>
<time>2015-05-02T14:48:16Z</time>
</trkpt>
<trkpt lat="34.9314125" lon="33.6109875">
<ele>36.51</ele>
<time>2015-05-02T14:48:17Z</time>
</trkpt>
<trkpt lat="34.9313702" lon="33.6110656">
<ele>36.27</ele>
<time>2015-05-02T14:48:18Z</time>
</trkpt>
<trkpt lat="34.9313356" lon="33.6111369">
<ele>36.14</ele>
<time>2015-05-02T14:48:19Z</time>
</trkpt>
<trkpt lat="34.9313007" lon="33.6112080">
<ele>36.08</ele>
<time>2015-05-02T14:48:20Z</time>
</trkpt>
<trkpt lat="34.9312609" lon="33.6112797">
<ele>36.05</ele>
<time>2015-05-02T14:48:21Z</time>
</trkpt>
<trkpt lat="34.9312348" lon="33.6113525">
<ele>36.03</ele>
<time>2015-05-02T14:48:22Z</time>
</trkpt>
<trkpt lat="34.9312019" lon="33.6114216">
<ele>35.52</ele>
<time>2015-05-02T14:48:23Z</time>
</trkpt>
<trkpt lat="34.9311861" lon="33.6115022">
<ele>35.77</ele>
<time>2015-05-02T14:48:24Z</time>
</trkpt>
<trkpt lat="34.9311693" lon="33.6115647">
<ele>35.89</ele>
<time>2015-05-02T14:48:25Z</time>
</trkpt>
<trkpt lat="34.9311451" lon="33.6116301">
<ele>36.45</ele>
<time>2015-05-02T14:48:26Z</time>
</trkpt>
<trkpt lat="34.9311227" lon="33.6116962">
<ele>36.74</ele>
<time>2015-05-02T14:48:27Z</time>
</trkpt>
<trkpt lat="34.9311023" lon="33.6117643">
<ele>36.88</ele>
<time>2015-05-02T14:48:28Z</time>
</trkpt>
<trkpt lat="34.9310807" lon="33.6118350">
<ele>36.95</ele>
<time>2015-05-02T14:48:29Z</time>
</trkpt>
<trkpt lat="34.9310678" lon="33.6119013">
<ele>36.98</ele>
<time>2015-05-02T14:48:30Z</time>
</trkpt>
<trkpt lat="34.9310492" lon="33.6119795">
<ele>37.00</ele>
<time>2015-05-02T14:48:31Z</time>
</trkpt>
<trkpt lat="34.9310350" lon="33.6120508">
<ele>37.51</ele>
<time>2015-05-02T14:48:32Z</time>
</trkpt>
<trkpt lat="34.9310228" lon="33.6121232">
<ele>37.76</ele>
<time>2015-05-02T14:48:33Z</time>
</trkpt>
<trkpt lat="34.9310033" lon="33.6121937">
<ele>37.39</ele>
<time>2015-05-02T14:48:34Z</time>
</trkpt>
<trkpt lat="34.9309948" lon="33.6122566">
<ele>37.20</ele>
<time>2015-05-02T14:48:35Z</time>
</trkpt>
<trkpt lat="34.9309788" lon="33.6123271">
<ele>37.11</ele>
<time>2015-05-02T14:48:36Z</time>
</trkpt>
<trkpt lat="34.9309612" lon="33.6123998">
<ele>37.56</ele>
<time>2015-05-02T14:48:37Z</time>
</trkpt>
<trkpt lat="34.9309462" lon="33.6124691">
<ele>37.79</ele>
<time>2015-05-02T14:48:38Z</time>
</trkpt>
<trkpt lat="34.9309388" lon="33.6125387">
<ele>37.40</ele>
<time>2015-05-02T14:48:39Z</time>
</trkpt>
<trkpt lat="34.9309258" lon="33.6126036">
<ele>37.21</ele>
<time>2015-05-02T14:48:40Z</time>
</trkpt>
<trkpt lat="34.9309148" lon="33.6126760">
<ele>37.11</ele>
<time>2015-05-02T14:48:41Z</time>
</trkpt>
<trkpt lat="34.9309102" lon="33.6127307">
<ele>37.06</ele>
<time>2015-05-02T14:48:42Z</time>
</trkpt>
<trkpt lat="34.9308958" lon="33.6128019">
<ele>37.04</ele>
<time>2015-05-02T14:48:43Z</time>
</trkpt>
<trkpt lat="34.9308794" lon="33.6128682">
<ele>37.03</ele>
<time>2015-05-02T14:48:44Z</time>
</trkpt>
<trkpt lat="34.9308682" lon="33.6129403">
<ele>37.02</ele>
<time>2015-05-02T14:48:45Z</time>
</trkpt>
<trkpt lat="34.9308558" lon="33.6130144">
<ele>37.02</ele>
<time>2015-05-02T14:48:46Z</time>
</trkpt>
<trkpt lat="34.9308527" lon="33.6130882">
<ele>37.02</ele>
<time>2015-05-02T14:48:47Z</time>
</trkpt>
<trkpt lat="34.9308387" lon="33.6131636">
<ele>37.02</ele>
<time>2015-05-02T14:48:48Z</time>
</trkpt>
<trkpt lat="34.9308298" lon="33.6132341">
<ele>37.02</ele>
<time>2015-05-02T14:48:49Z</time>
</trkpt>
<trkpt lat="34.9308160" lon="33.6133130">
<ele>37.02</ele>
<time>2015-05-02T14:48:50Z</time>
</trkpt>
<trkpt lat="34.9308087" lon="33.6133959">
<ele>37.02</ele>
<time>2015-05-02T14:48:51Z</time>
</trkpt>
<trkpt lat="34.9307913" lon="33.6134784">
<ele>37.02</ele>
<time>2015-05-02T14:48:52Z</time>
</trkpt>
<trkpt lat="34.9307783" lon="33.6135471">
<ele>37.02</ele>
<time>2015-05-02T14:48:53Z</time>
</trkpt>
<trkpt lat="34.9307617" lon="33.6136184">
<ele>37.02</ele>
<time>2015-05-02T14:48:54Z</time>
</trkpt>
<trkpt lat="34.9307449" lon="33.6137012">
<ele>37.02</ele>
<time>2015-05-02T14:48:55Z</time>
</trkpt>
<trkpt lat="34.9307311" lon="33.6137807">
<ele>36.52</ele>
<time>2015-05-02T14:48:56Z</time>
</trkpt>
<trkpt lat="34.9307246" lon="33.6138597">
<ele>36.27</ele>
<time>2015-05-02T14:48:57Z</time>
</trkpt>
<trkpt lat="34.9307280" lon="33.6139400">
<ele>35.64</ele>
<time>2015-05-02T14:48:58Z</time>
</trkpt>
<trkpt lat="34.9307479" lon="33.6140066">
<ele>35.33</ele>
<time>2015-05-02T14:48:59Z</time>
</trkpt>
<trkpt lat="34.9307812" lon="33.6140918">
<ele>35.67</ele>
<time>2015-05-02T14:49:00Z</time>
</trkpt>
<trkpt lat="34.9308177" lon="33.6141700">
<ele>35.84</ele>
<time>2015-05-02T14:49:01Z</time>
</trkpt>
<trkpt lat="34.9308570" lon="33.6142445">
<ele>35.93</ele>
<time>2015-05-02T14:49:02Z</time>
</trkpt>
<trkpt lat="34.9308714" lon="33.6143162">
<ele>35.97</ele>
<time>2015-05-02T14:49:03Z</time>
</trkpt>
<trkpt lat="34.9308813" lon="33.6143942">
<ele>36.49</ele>
<time>2015-05-02T14:49:04Z</time>
</trkpt>
<trkpt lat="34.9308866" lon="33.6144720">
<ele>36.76</ele>
<time>2015-05-02T14:49:05Z</time>
</trkpt>
<trkpt lat="34.9308728" lon="33.6145554">
<ele>36.39</ele>
<time>2015-05-02T14:49:06Z</time>
</trkpt>
<trkpt lat="34.9308513" lon="33.6146289">
<ele>36.20</ele>
<time>2015-05-02T14:49:07Z</time>
</trkpt>
<trkpt lat="34.9308197" lon="33.6147154">
<ele>36.61</ele>
<time>2015-05-02T14:49:08Z</time>
</trkpt>
<trkpt lat="34.9307741" lon="33.6147967">
<ele>36.81</ele>
<time>2015-05-02T14:49:09Z</time>
</trkpt>
<trkpt lat="34.9307224" lon="33.6148613">
<ele>36.91</ele>
<time>2015-05-02T14:49:10Z</time>
</trkpt>
<trkpt lat="34.9306702" lon="33.6149115">
<ele>36.97</ele>
<time>2015-05-02T14:49:11Z</time>
</trkpt>
<trkpt lat="34.9306164" lon="33.6149690">
<ele>36.99</ele>
<time>2015-05-02T14:49:12Z</time>
</trkpt>
<trkpt lat="34.9305748" lon="33.6150318">
<ele>37.00</ele>
<time>2015-05-02T14:49:13Z</time>
</trkpt>
<trkpt lat="34.9305377" lon="33.6151005">
<ele>37.01</ele>
<time>2015-05-02T14:49:14Z</time>
</trkpt>
<trkpt lat="34.9305180" lon="33.6151696">
<ele>36.51</ele>
<time>2015-05-02T14:49:15Z</time>
</trkpt>
<trkpt lat="34.9304923" lon="33.6152589">
<ele>36.26</ele>
<time>2015-05-02T14:49:16Z</time>
</trkpt>
<trkpt lat="34.9304774" lon="33.6153418">
<ele>35.64</ele>
<time>2015-05-02T14:49:17Z</time>
</trkpt>
<trkpt lat="34.9304615" lon="33.6154306">
<ele>35.33</ele>
<time>2015-05-02T14:49:18Z</time>
</trkpt>
<trkpt lat="34.9304479" lon="33.6155082">
<ele>35.17</ele>
<time>2015-05-02T14:49:19Z</time>
</trkpt>
<trkpt lat="34.9304301" lon="33.6155938">
<ele>34.59</ele>
<time>2015-05-02T14:49:20Z</time>
</trkpt>
<trkpt lat="34.9304168" lon="33.6156741">
<ele>34.81</ele>
<time>2015-05-02T14:49:21Z</time>
</trkpt>
<trkpt lat="34.9304081" lon="33.6157588">
<ele>34.91</ele>
<time>2015-05-02T14:49:22Z</time>
</trkpt>
<trkpt lat="34.9303971" lon="33.6158360">
<ele>34.96</ele>
<time>2015-05-02T14:49:23Z</time>
</trkpt>
<trkpt lat="34.9303839" lon="33.6159204">
<ele>34.99</ele>
<time>2015-05-02T14:49:24Z</time>
</trkpt>
<trkpt lat="34.9303801" lon="33.6159906">
<ele>35.00</ele>
<time>2015-05-02T14:49:25Z</time>
</trkpt>
<trkpt lat="34.9303654" lon="33.6160738">
<ele>35.01</ele>
<time>2015-05-02T14:49:26Z</time>
</trkpt>
<trkpt lat="34.9303565" lon="33.6161539">
<ele>35.01</ele>
<time>2015-05-02T14:49:27Z</time>
</trkpt>
<trkpt lat="34.9303421" lon="33.6162309">
<ele>35.01</ele>
<time>2015-05-02T14:49:28Z</time>
</trkpt>
<trkpt lat="34.9303396" lon="33.6162907">
<ele>35.02</ele>
<time>2015-05-02T14:49:29Z</time>
</trkpt>
<trkpt lat="34.9303284" lon="33.6163527">
<ele>34.52</ele>
<time>2015-05-02T14:49:30Z</time>
</trkpt>
<trkpt lat="34.9303309" lon="33.6164260">
<ele>34.14</ele>
<time>2015-05-02T14:49:32Z</time>
</trkpt>
<trkpt lat="34.9303472" lon="33.6164848">
<ele>34.96</ele>
<time>2015-05-02T14:49:36Z</time>
</trkpt>
<trkpt lat="34.9303371" lon="33.6165644">
<ele>36.01</ele>
<time>2015-05-02T14:49:40Z</time>
</trkpt>
<trkpt lat="34.9303255" lon="33.6166389">
<ele>35.52</ele>
<time>2015-05-02T14:49:42Z</time>
</trkpt>
<trkpt lat="34.9303102" lon="33.6167291">
<ele>34.89</ele>
<time>2015-05-02T14:49:44Z</time>
</trkpt>
<trkpt lat="34.9302959" lon="33.6168280">
<ele>34.23</ele>
<time>2015-05-02T14:49:46Z</time>
</trkpt>
<trkpt lat="34.9303050" lon="33.6169265">
<ele>34.07</ele>
<time>2015-05-02T14:49:48Z</time>
</trkpt>
<trkpt lat="34.9303212" lon="33.6170084">
<ele>34.03</ele>
<time>2015-05-02T14:49:50Z</time>
</trkpt>
<trkpt lat="34.9302916" lon="33.6170781">
<ele>34.02</ele>
<time>2015-05-02T14:49:52Z</time>
</trkpt>
<trkpt lat="34.9302821" lon="33.6171513">
<ele>34.77</ele>
<time>2015-05-02T14:49:54Z</time>
</trkpt>
<trkpt lat="34.9302778" lon="33.6172164">
<ele>35.45</ele>
<time>2015-05-02T14:49:56Z</time>
</trkpt>
<trkpt lat="34.9302474" lon="33.6172756">
<ele>35.13</ele>
<time>2015-05-02T14:49:58Z</time>
</trkpt>
<trkpt lat="34.9302255" lon="33.6173499">
<ele>35.04</ele>
<time>2015-05-02T14:50:00Z</time>
</trkpt>
<trkpt lat="34.9302060" lon="33.6174313">
<ele>35.52</ele>
<time>2015-05-02T14:50:02Z</time>
</trkpt>
<trkpt lat="34.9301829" lon="33.6174885">
<ele>35.77</ele>
<time>2015-05-02T14:50:03Z</time>
</trkpt>
<trkpt lat="34.9301720" lon="33.6175473">
<ele>35.89</ele>
<time>2015-05-02T14:50:04Z</time>
</trkpt>
<trkpt lat="34.9301671" lon="33.6176025">
<ele>35.95</ele>
<time>2015-05-02T14:50:05Z</time>
</trkpt>
<trkpt lat="34.9301590" lon="33.6176985">
<ele>35.50</ele>
<time>2015-05-02T14:50:07Z</time>
</trkpt>
<trkpt lat="34.9301514" lon="33.6177537">
<ele>35.26</ele>
<time>2015-05-02T14:50:08Z</time>
</trkpt>
<trkpt lat="34.9301411" lon="33.6178533">
<ele>34.58</ele>
<time>2015-05-02T14:50:10Z</time>
</trkpt>
<trkpt lat="34.9301218" lon="33.6179567">
<ele>34.91</ele>
<time>2015-05-02T14:50:12Z</time>
</trkpt>
<trkpt lat="34.9301123" lon="33.6180105">
<ele>34.96</ele>
<time>2015-05-02T14:50:13Z</time>
</trkpt>
<trkpt lat="34.9301111" lon="33.6180656">
<ele>34.49</ele>
<time>2015-05-02T14:50:14Z</time>
</trkpt>
<trkpt lat="34.9300990" lon="33.6181750">
<ele>34.88</ele>
<time>2015-05-02T14:50:16Z</time>
</trkpt>
<trkpt lat="34.9300955" lon="33.6182418">
<ele>34.95</ele>
<time>2015-05-02T14:50:17Z</time>
</trkpt>
<trkpt lat="34.9301001" lon="33.6183060">
<ele>34.98</ele>
<time>2015-05-02T14:50:18Z</time>
</trkpt>
<trkpt lat="34.9300992" lon="33.6183683">
<ele>35.50</ele>
<time>2015-05-02T14:50:19Z</time>
</trkpt>
<trkpt lat="34.9300914" lon="33.6184347">
<ele>35.76</ele>
<time>2015-05-02T14:50:20Z</time>
</trkpt>
<trkpt lat="34.9300981" lon="33.6184974">
<ele>35.89</ele>
<time>2015-05-02T14:50:21Z</time>
</trkpt>
<trkpt lat="34.9300934" lon="33.6185682">
<ele>35.95</ele>
<time>2015-05-02T14:50:22Z</time>
</trkpt>
<trkpt lat="34.9300826" lon="33.6186302">
<ele>35.98</ele>
<time>2015-05-02T14:50:23Z</time>
</trkpt>
<trkpt lat="34.9300748" lon="33.6186967">
<ele>35.50</ele>
<time>2015-05-02T14:50:24Z</time>
</trkpt>
<trkpt lat="34.9300696" lon="33.6187599">
<ele>35.76</ele>
<time>2015-05-02T14:50:25Z</time>
</trkpt>
<trkpt lat="34.9300619" lon="33.6188254">
<ele>35.89</ele>
<time>2015-05-02T14:50:26Z</time>
</trkpt>
<trkpt lat="34.9300619" lon="33.6188844">
<ele>35.45</ele>
<time>2015-05-02T14:50:27Z</time>
</trkpt>
<trkpt lat="34.9300666" lon="33.6189571">
<ele>35.23</ele>
<time>2015-05-02T14:50:28Z</time>
</trkpt>
<trkpt lat="34.9300666" lon="33.6190156">
<ele>35.62</ele>
<time>2015-05-02T14:50:29Z</time>
</trkpt>
<trkpt lat="34.9300667" lon="33.6190849">
<ele>35.82</ele>
<time>2015-05-02T14:50:30Z</time>
</trkpt>
<trkpt lat="34.9300598" lon="33.6191565">
<ele>35.92</ele>
<time>2015-05-02T14:50:31Z</time>
</trkpt>
<trkpt lat="34.9300615" lon="33.6192234">
<ele>35.97</ele>
<time>2015-05-02T14:50:32Z</time>
</trkpt>
<trkpt lat="34.9300665" lon="33.6192912">
<ele>35.49</ele>
<time>2015-05-02T14:50:33Z</time>
</trkpt>
<trkpt lat="34.9300754" lon="33.6193627">
<ele>35.25</ele>
<time>2015-05-02T14:50:34Z</time>
</trkpt>
<trkpt lat="34.9300777" lon="33.6194228">
<ele>35.13</ele>
<time>2015-05-02T14:50:35Z</time>
</trkpt>
<trkpt lat="34.9300785" lon="33.6194983">
<ele>35.08</ele>
<time>2015-05-02T14:50:36Z</time>
</trkpt>
<trkpt lat="34.9300814" lon="33.6195680">
<ele>34.55</ele>
<time>2015-05-02T14:50:37Z</time>
</trkpt>
<trkpt lat="34.9300877" lon="33.6196360">
<ele>34.28</ele>
<time>2015-05-02T14:50:38Z</time>
</trkpt>
<trkpt lat="34.9300950" lon="33.6196956">
<ele>34.15</ele>
<time>2015-05-02T14:50:39Z</time>
</trkpt>
<trkpt lat="34.9300982" lon="33.6197571">
<ele>34.08</ele>
<time>2015-05-02T14:50:40Z</time>
</trkpt>
<trkpt lat="34.9301026" lon="33.6198323">
<ele>34.55</ele>
<time>2015-05-02T14:50:41Z</time>
</trkpt>
<trkpt lat="34.9301037" lon="33.6198947">
<ele>34.78</ele>
<time>2015-05-02T14:50:42Z</time>
</trkpt>
<trkpt lat="34.9301101" lon="33.6199573">
<ele>34.90</ele>
<time>2015-05-02T14:50:43Z</time>
</trkpt>
<trkpt lat="34.9301176" lon="33.6200218">
<ele>34.96</ele>
<time>2015-05-02T14:50:44Z</time>
</trkpt>
<trkpt lat="34.9301279" lon="33.6200888">
<ele>34.99</ele>
<time>2015-05-02T14:50:45Z</time>
</trkpt>
<trkpt lat="34.9301369" lon="33.6201526">
<ele>35.00</ele>
<time>2015-05-02T14:50:46Z</time>
</trkpt>
<trkpt lat="34.9301532" lon="33.6202104">
<ele>34.51</ele>
<time>2015-05-02T14:50:47Z</time>
</trkpt>
<trkpt lat="34.9301652" lon="33.6202643">
<ele>34.76</ele>
<time>2015-05-02T14:50:48Z</time>
</trkpt>
<trkpt lat="34.9301872" lon="33.6203206">
<ele>34.98</ele>
<time>2015-05-02T14:50:51Z</time>
</trkpt>
<trkpt lat="34.9301844" lon="33.6203800">
<ele>35.95</ele>
<time>2015-05-02T14:50:57Z</time>
</trkpt>
<trkpt lat="34.9301880" lon="33.6204519">
<ele>36.00</ele>
<time>2015-05-02T14:50:59Z</time>
</trkpt>
<trkpt lat="34.9301962" lon="33.6205436">
<ele>36.01</ele>
<time>2015-05-02T14:51:01Z</time>
</trkpt>
<trkpt lat="34.9302036" lon="33.6206343">
<ele>36.02</ele>
<time>2015-05-02T14:51:03Z</time>
</trkpt>
<trkpt lat="34.9302154" lon="33.6207171">
<ele>36.02</ele>
<time>2015-05-02T14:51:05Z</time>
</trkpt>
<trkpt lat="34.9302280" lon="33.6208004">
<ele>36.02</ele>
<time>2015-05-02T14:51:07Z</time>
</trkpt>
<trkpt lat="34.9302528" lon="33.6208844">
<ele>36.27</ele>
<time>2015-05-02T14:51:09Z</time>
</trkpt>
<trkpt lat="34.9302910" lon="33.6209497">
<ele>35.58</ele>
<time>2015-05-02T14:51:11Z</time>
</trkpt>
<trkpt lat="34.9303094" lon="33.6210033">
<ele>35.91</ele>
<time>2015-05-02T14:51:13Z</time>
</trkpt>
<trkpt lat="34.9302749" lon="33.6210576">
<ele>35.38</ele>
<time>2015-05-02T14:51:17Z</time>
</trkpt>
<trkpt lat="34.9302444" lon="33.6211114">
<ele>35.00</ele>
<time>2015-05-02T14:51:25Z</time>
</trkpt>
<trkpt lat="34.9302475" lon="33.6211690">
<ele>36.01</ele>
<time>2015-05-02T14:51:44Z</time>
</trkpt>
<trkpt lat="34.9302504" lon="33.6212406">
<ele>36.26</ele>
<time>2015-05-02T14:51:46Z</time>
</trkpt>
<trkpt lat="34.9302544" lon="33.6213989">
<ele>36.08</ele>
<time>2015-05-02T14:51:48Z</time>
</trkpt>
<trkpt lat="34.9302571" lon="33.6214635">
<ele>36.05</ele>
<time>2015-05-02T14:51:49Z</time>
</trkpt>
<trkpt lat="34.9302606" lon="33.6215263">
<ele>36.03</ele>
<time>2015-05-02T14:51:50Z</time>
</trkpt>
<trkpt lat="34.9302667" lon="33.6215841">
<ele>36.02</ele>
<time>2015-05-02T14:51:51Z</time>
</trkpt>
<trkpt lat="34.9302715" lon="33.6216478">
<ele>36.02</ele>
<time>2015-05-02T14:51:52Z</time>
</trkpt>
<trkpt lat="34.9302742" lon="33.6217079">
<ele>35.52</ele>
<time>2015-05-02T14:51:53Z</time>
</trkpt>
<trkpt lat="34.9302806" lon="33.6217715">
<ele>35.77</ele>
<time>2015-05-02T14:51:54Z</time>
</trkpt>
<trkpt lat="34.9302924" lon="33.6218324">
<ele>35.89</ele>
<time>2015-05-02T14:51:55Z</time>
</trkpt>
<trkpt lat="34.9302880" lon="33.6218978">
<ele>35.95</ele>
<time>2015-05-02T14:51:56Z</time>
</trkpt>
<trkpt lat="34.9302849" lon="33.6219639">
<ele>35.98</ele>
<time>2015-05-02T14:51:57Z</time>
</trkpt>
<trkpt lat="34.9302798" lon="33.6220294">
<ele>36.00</ele>
<time>2015-05-02T14:51:58Z</time>
</trkpt>
<trkpt lat="34.9302788" lon="33.6220940">
<ele>36.01</ele>
<time>2015-05-02T14:51:59Z</time>
</trkpt>
<trkpt lat="34.9302807" lon="33.6221586">
<ele>36.01</ele>
<time>2015-05-02T14:52:00Z</time>
</trkpt>
<trkpt lat="34.9302823" lon="33.6222246">
<ele>36.01</ele>
<time>2015-05-02T14:52:01Z</time>
</trkpt>
<trkpt lat="34.9302829" lon="33.6222881">
<ele>36.02</ele>
<time>2015-05-02T14:52:02Z</time>
</trkpt>
<trkpt lat="34.9302957" lon="33.6223520">
<ele>36.52</ele>
<time>2015-05-02T14:52:03Z</time>
</trkpt>
<trkpt lat="34.9303022" lon="33.6224150">
<ele>36.77</ele>
<time>2015-05-02T14:52:04Z</time>
</trkpt>
<trkpt lat="34.9303109" lon="33.6224764">
<ele>36.39</ele>
<time>2015-05-02T14:52:05Z</time>
</trkpt>
<trkpt lat="34.9303145" lon="33.6225404">
<ele>36.70</ele>
<time>2015-05-02T14:52:06Z</time>
</trkpt>
<trkpt lat="34.9303153" lon="33.6226098">
<ele>36.86</ele>
<time>2015-05-02T14:52:07Z</time>
</trkpt>
<trkpt lat="34.9303198" lon="33.6226794">
<ele>36.94</ele>
<time>2015-05-02T14:52:08Z</time>
</trkpt>
<trkpt lat="34.9303167" lon="33.6227378">
<ele>36.98</ele>
<time>2015-05-02T14:52:09Z</time>
</trkpt>
<trkpt lat="34.9303267" lon="33.6227959">
<ele>37.00</ele>
<time>2015-05-02T14:52:10Z</time>
</trkpt>
<trkpt lat="34.9303323" lon="33.6228542">
<ele>37.01</ele>
<time>2015-05-02T14:52:11Z</time>
</trkpt>
<trkpt lat="34.9303372" lon="33.6229178">
<ele>37.01</ele>
<time>2015-05-02T14:52:12Z</time>
</trkpt>
<trkpt lat="34.9303472" lon="33.6230198">
<ele>37.76</ele>
<time>2015-05-02T14:52:14Z</time>
</trkpt>
<trkpt lat="34.9303531" lon="33.6230783">
<ele>37.89</ele>
<time>2015-05-02T14:52:15Z</time>
</trkpt>
<trkpt lat="34.9303719" lon="33.6231664">
<ele>37.48</ele>
<time>2015-05-02T14:52:17Z</time>
</trkpt>
<trkpt lat="34.9303807" lon="33.6232350">
<ele>37.13</ele>
<time>2015-05-02T14:52:19Z</time>
</trkpt>
<trkpt lat="34.9303906" lon="33.6233154">
<ele>37.05</ele>
<time>2015-05-02T14:52:21Z</time>
</trkpt>
<trkpt lat="34.9304060" lon="33.6233818">
<ele>37.02</ele>
<time>2015-05-02T14:52:24Z</time>
</trkpt>
<trkpt lat="34.9304097" lon="33.6234384">
<ele>37.02</ele>
<time>2015-05-02T14:52:27Z</time>
</trkpt>
<trkpt lat="34.9304207" lon="33.6235050">
<ele>37.01</ele>
<time>2015-05-02T14:52:34Z</time>
</trkpt>
<trkpt lat="34.9304260" lon="33.6235696">
<ele>37.01</ele>
<time>2015-05-02T14:52:36Z</time>
</trkpt>
<trkpt lat="34.9304289" lon="33.6236724">
<ele>36.27</ele>
<time>2015-05-02T14:52:38Z</time>
</trkpt>
<trkpt lat="34.9304405" lon="33.6237711">
<ele>36.14</ele>
<time>2015-05-02T14:52:39Z</time>
</trkpt>
<trkpt lat="34.9304431" lon="33.6238418">
<ele>36.58</ele>
<time>2015-05-02T14:52:40Z</time>
</trkpt>
<trkpt lat="34.9304519" lon="33.6239048">
<ele>36.30</ele>
<time>2015-05-02T14:52:41Z</time>
</trkpt>
<trkpt lat="34.9304644" lon="33.6239721">
<ele>36.16</ele>
<time>2015-05-02T14:52:42Z</time>
</trkpt>
<trkpt lat="34.9304729" lon="33.6240402">
<ele>36.09</ele>
<time>2015-05-02T14:52:43Z</time>
</trkpt>
<trkpt lat="34.9304754" lon="33.6241058">
<ele>35.55</ele>
<time>2015-05-02T14:52:44Z</time>
</trkpt>
<trkpt lat="34.9304779" lon="33.6241726">
<ele>35.78</ele>
<time>2015-05-02T14:52:45Z</time>
</trkpt>
<trkpt lat="34.9304841" lon="33.6242476">
<ele>35.90</ele>
<time>2015-05-02T14:52:46Z</time>
</trkpt>
<trkpt lat="34.9304883" lon="33.6243201">
<ele>35.96</ele>
<time>2015-05-02T14:52:47Z</time>
</trkpt>
<trkpt lat="34.9304979" lon="33.6244000">
<ele>35.99</ele>
<time>2015-05-02T14:52:48Z</time>
</trkpt>
<trkpt lat="34.9305022" lon="33.6244713">
<ele>36.00</ele>
<time>2015-05-02T14:52:49Z</time>
</trkpt>
<trkpt lat="34.9305055" lon="33.6245277">
<ele>35.51</ele>
<time>2015-05-02T14:52:50Z</time>
</trkpt>
<trkpt lat="34.9305131" lon="33.6245945">
<ele>35.26</ele>
<time>2015-05-02T14:52:51Z</time>
</trkpt>
<trkpt lat="34.9305165" lon="33.6246718">
<ele>35.14</ele>
<time>2015-05-02T14:52:52Z</time>
</trkpt>
<trkpt lat="34.9305160" lon="33.6247407">
<ele>35.08</ele>
<time>2015-05-02T14:52:53Z</time>
</trkpt>
<trkpt lat="34.9305268" lon="33.6248044">
<ele>34.55</ele>
<time>2015-05-02T14:52:54Z</time>
</trkpt>
<trkpt lat="34.9305292" lon="33.6248827">
<ele>34.28</ele>
<time>2015-05-02T14:52:55Z</time>
</trkpt>
<trkpt lat="34.9305435" lon="33.6249546">
<ele>34.65</ele>
<time>2015-05-02T14:52:56Z</time>
</trkpt>
<trkpt lat="34.9305523" lon="33.6250291">
<ele>34.33</ele>
<time>2015-05-02T14:52:57Z</time>
</trkpt>
<trkpt lat="34.9305491" lon="33.6250895">
<ele>34.17</ele>
<time>2015-05-02T14:52:58Z</time>
</trkpt>
<trkpt lat="34.9305604" lon="33.6251524">
<ele>33.91</ele>
<time>2015-05-02T14:53:01Z</time>
</trkpt>
<trkpt lat="34.9305532" lon="33.6252416">
<ele>33.16</ele>
<time>2015-05-02T14:53:25Z</time>
</trkpt>
<trkpt lat="34.9305578" lon="33.6252989">
<ele>33.09</ele>
<time>2015-05-02T14:53:26Z</time>
</trkpt>
<trkpt lat="34.9305554" lon="33.6253598">
<ele>33.05</ele>
<time>2015-05-02T14:53:27Z</time>
</trkpt>
<trkpt lat="34.9305572" lon="33.6254247">
<ele>33.03</ele>
<time>2015-05-02T14:53:28Z</time>
</trkpt>
<trkpt lat="34.9305663" lon="33.6254919">
<ele>33.02</ele>
<time>2015-05-02T14:53:29Z</time>
</trkpt>
<trkpt lat="34.9305688" lon="33.6255571">
<ele>33.52</ele>
<time>2015-05-02T14:53:30Z</time>
</trkpt>
<trkpt lat="34.9305747" lon="33.6256262">
<ele>33.27</ele>
<time>2015-05-02T14:53:31Z</time>
</trkpt>
<trkpt lat="34.9305673" lon="33.6257012">
<ele>30.64</ele>
<time>2015-05-02T14:53:32Z</time>
</trkpt>
<trkpt lat="34.9305716" lon="33.6257847">
<ele>27.83</ele>
<time>2015-05-02T14:53:33Z</time>
</trkpt>
<trkpt lat="34.9305708" lon="33.6258564">
<ele>25.42</ele>
<time>2015-05-02T14:53:34Z</time>
</trkpt>
<trkpt lat="34.9305699" lon="33.6259302">
<ele>23.22</ele>
<time>2015-05-02T14:53:35Z</time>
</trkpt>
<trkpt lat="34.9305677" lon="33.6260125">
<ele>22.12</ele>
<time>2015-05-02T14:53:36Z</time>
</trkpt>
<trkpt lat="34.9305651" lon="33.6260884">
<ele>21.07</ele>
<time>2015-05-02T14:53:37Z</time>
</trkpt>
<trkpt lat="34.9305636" lon="33.6261738">
<ele>20.04</ele>
<time>2015-05-02T14:53:38Z</time>
</trkpt>
<trkpt lat="34.9305626" lon="33.6262480">
<ele>20.03</ele>
<time>2015-05-02T14:53:39Z</time>
</trkpt>
<trkpt lat="34.9305606" lon="33.6263302">
<ele>19.52</ele>
<time>2015-05-02T14:53:40Z</time>
</trkpt>
<trkpt lat="34.9305613" lon="33.6264143">
<ele>19.27</ele>
<time>2015-05-02T14:53:41Z</time>
</trkpt>
<trkpt lat="34.9305620" lon="33.6264947">
<ele>18.64</ele>
<time>2015-05-02T14:53:42Z</time>
</trkpt>
<trkpt lat="34.9305625" lon="33.6265793">
<ele>18.33</ele>
<time>2015-05-02T14:53:43Z</time>
</trkpt>
<trkpt lat="34.9305588" lon="33.6266652">
<ele>18.17</ele>
<time>2015-05-02T14:53:44Z</time>
</trkpt>
<trkpt lat="34.9305598" lon="33.6267351">
<ele>18.09</ele>
<time>2015-05-02T14:53:45Z</time>
</trkpt>
<trkpt lat="34.9305655" lon="33.6268219">
<ele>17.56</ele>
<time>2015-05-02T14:53:46Z</time>
</trkpt>
<trkpt lat="34.9305697" lon="33.6269035">
<ele>17.29</ele>
<time>2015-05-02T14:53:47Z</time>
</trkpt>
<trkpt lat="34.9305693" lon="33.6269912">
<ele>16.65</ele>
<time>2015-05-02T14:53:48Z</time>
</trkpt>
<trkpt lat="34.9305679" lon="33.6270840">
<ele>16.83</ele>
<time>2015-05-02T14:53:49Z</time>
</trkpt>
<trkpt lat="34.9305690" lon="33.6271651">
<ele>16.42</ele>
<time>2015-05-02T14:53:50Z</time>
</trkpt>
<trkpt lat="34.9305784" lon="33.6272475">
<ele>16.22</ele>
<time>2015-05-02T14:53:51Z</time>
</trkpt>
<trkpt lat="34.9305747" lon="33.6273393">
<ele>16.12</ele>
<time>2015-05-02T14:53:52Z</time>
</trkpt>
<trkpt lat="34.9305663" lon="33.6274202">
<ele>16.07</ele>
<time>2015-05-02T14:53:53Z</time>
</trkpt>
<trkpt lat="34.9305628" lon="33.6275122">
<ele>15.04</ele>
<time>2015-05-02T14:53:54Z</time>
</trkpt>
<trkpt lat="34.9305600" lon="33.6275869">
<ele>15.03</ele>
<time>2015-05-02T14:53:55Z</time>
</trkpt>
<trkpt lat="34.9305597" lon="33.6276718">
<ele>15.02</ele>
<time>2015-05-02T14:53:56Z</time>
</trkpt>
<trkpt lat="34.9305602" lon="33.6277605">
<ele>15.02</ele>
<time>2015-05-02T14:53:57Z</time>
</trkpt>
<trkpt lat="34.9305600" lon="33.6278382">
<ele>15.02</ele>
<time>2015-05-02T14:53:58Z</time>
</trkpt>
<trkpt lat="34.9305613" lon="33.6279305">
<ele>14.52</ele>
<time>2015-05-02T14:53:59Z</time>
</trkpt>
<trkpt lat="34.9305664" lon="33.6280163">
<ele>14.27</ele>
<time>2015-05-02T14:54:00Z</time>
</trkpt>
<trkpt lat="34.9305590" lon="33.6281058">
<ele>14.14</ele>
<time>2015-05-02T14:54:01Z</time>
</trkpt>
<trkpt lat="34.9305545" lon="33.6282019">
<ele>13.58</ele>
<time>2015-05-02T14:54:02Z</time>
</trkpt>
<trkpt lat="34.9305539" lon="33.6282870">
<ele>13.80</ele>
<time>2015-05-02T14:54:03Z</time>
</trkpt>
<trkpt lat="34.9305562" lon="33.6283713">
<ele>13.91</ele>
<time>2015-05-02T14:54:04Z</time>
</trkpt>
<trkpt lat="34.9305571" lon="33.6284579">
<ele>13.46</ele>
<time>2015-05-02T14:54:05Z</time>
</trkpt>
<trkpt lat="34.9305531" lon="33.6285420">
<ele>13.74</ele>
<time>2015-05-02T14:54:06Z</time>
</trkpt>
<trkpt lat="34.9305530" lon="33.6286207">
<ele>13.88</ele>
<time>2015-05-02T14:54:07Z</time>
</trkpt>
<trkpt lat="34.9305574" lon="33.6287031">
<ele>13.45</ele>
<time>2015-05-02T14:54:08Z</time>
</trkpt>
<trkpt lat="34.9305609" lon="33.6287834">
<ele>13.73</ele>
<time>2015-05-02T14:54:09Z</time>
</trkpt>
<trkpt lat="34.9305615" lon="33.6288589">
<ele>13.87</ele>
<time>2015-05-02T14:54:10Z</time>
</trkpt>
<trkpt lat="34.9305550" lon="33.6289357">
<ele>13.44</ele>
<time>2015-05-02T14:54:11Z</time>
</trkpt>
<trkpt lat="34.9305535" lon="33.6290173">
<ele>13.73</ele>
<time>2015-05-02T14:54:12Z</time>
</trkpt>
<trkpt lat="34.9305490" lon="33.6291023">
<ele>13.87</ele>
<time>2015-05-02T14:54:13Z</time>
</trkpt>
<trkpt lat="34.9305456" lon="33.6291798">
<ele>13.94</ele>
<time>2015-05-02T14:54:14Z</time>
</trkpt>
<trkpt lat="34.9305394" lon="33.6292571">
<ele>13.48</ele>
<time>2015-05-02T14:54:15Z</time>
</trkpt>
<trkpt lat="34.9305391" lon="33.6293382">
<ele>13.25</ele>
<time>2015-05-02T14:54:16Z</time>
</trkpt>
<trkpt lat="34.9305343" lon="33.6294127">
<ele>12.63</ele>
<time>2015-05-02T14:54:17Z</time>
</trkpt>
<trkpt lat="34.9305311" lon="33.6294944">
<ele>12.32</ele>
<time>2015-05-02T14:54:18Z</time>
</trkpt>
<trkpt lat="34.9305289" lon="33.6295707">
<ele>12.17</ele>
<time>2015-05-02T14:54:19Z</time>
</trkpt>
<trkpt lat="34.9305302" lon="33.6296409">
<ele>12.09</ele>
<time>2015-05-02T14:54:20Z</time>
</trkpt>
<trkpt lat="34.9305301" lon="33.6297187">
<ele>12.05</ele>
<time>2015-05-02T14:54:21Z</time>
</trkpt>
<trkpt lat="34.9305293" lon="33.6297856">
<ele>12.04</ele>
<time>2015-05-02T14:54:22Z</time>
</trkpt>
<trkpt lat="34.9305302" lon="33.6298623">
<ele>12.03</ele>
<time>2015-05-02T14:54:23Z</time>
</trkpt>
<trkpt lat="34.9305294" lon="33.6299407">
<ele>12.02</ele>
<time>2015-05-02T14:54:24Z</time>
</trkpt>
<trkpt lat="34.9305281" lon="33.6300097">
<ele>11.52</ele>
<time>2015-05-02T14:54:25Z</time>
</trkpt>
<trkpt lat="34.9305277" lon="33.6300879">
<ele>11.27</ele>
<time>2015-05-02T14:54:26Z</time>
</trkpt>
<trkpt lat="34.9305243" lon="33.6301586">
<ele>11.14</ele>
<time>2015-05-02T14:54:27Z</time>
</trkpt>
<trkpt lat="34.9305230" lon="33.6302322">
<ele>11.08</ele>
<time>2015-05-02T14:54:28Z</time>
</trkpt>
<trkpt lat="34.9305211" lon="33.6303146">
<ele>11.05</ele>
<time>2015-05-02T14:54:29Z</time>
</trkpt>
<trkpt lat="34.9305185" lon="33.6303856">
<ele>11.53</ele>
<time>2015-05-02T14:54:30Z</time>
</trkpt>
<trkpt lat="34.9305133" lon="33.6304557">
<ele>12.27</ele>
<time>2015-05-02T14:54:31Z</time>
</trkpt>
<trkpt lat="34.9304982" lon="33.6305855">
<ele>12.83</ele>
<time>2015-05-02T14:54:33Z</time>
</trkpt>
<trkpt lat="34.9304889" lon="33.6306402">
<ele>13.42</ele>
<time>2015-05-02T14:54:34Z</time>
</trkpt>
<trkpt lat="34.9305034" lon="33.6307342">
<ele>13.72</ele>
<time>2015-05-02T14:54:35Z</time>
</trkpt>
<trkpt lat="34.9305238" lon="33.6308332">
<ele>15.19</ele>
<time>2015-05-02T14:54:37Z</time>
</trkpt>
<trkpt lat="34.9305138" lon="33.6309543">
<ele>16.56</ele>
<time>2015-05-02T14:54:39Z</time>
</trkpt>
<trkpt lat="34.9305031" lon="33.6310330">
<ele>16.79</ele>
<time>2015-05-02T14:54:40Z</time>
</trkpt>
<trkpt lat="34.9305004" lon="33.6311027">
<ele>16.40</ele>
<time>2015-05-02T14:54:41Z</time>
</trkpt>
<trkpt lat="34.9305163" lon="33.6311967">
<ele>16.21</ele>
<time>2015-05-02T14:54:42Z</time>
</trkpt>
<trkpt lat="34.9305231" lon="33.6312614">
<ele>16.11</ele>
<time>2015-05-02T14:54:43Z</time>
</trkpt>
<trkpt lat="34.9305208" lon="33.6313283">
<ele>16.06</ele>
<time>2015-05-02T14:54:44Z</time>
</trkpt>
<trkpt lat="34.9305110" lon="33.6314039">
<ele>15.04</ele>
<time>2015-05-02T14:54:45Z</time>
</trkpt>
<trkpt lat="34.9305150" lon="33.6314754">
<ele>14.53</ele>
<time>2015-05-02T14:54:46Z</time>
</trkpt>
<trkpt lat="34.9305132" lon="33.6315447">
<ele>14.27</ele>
<time>2015-05-02T14:54:47Z</time>
</trkpt>
<trkpt lat="34.9305111" lon="33.6316073">
<ele>13.64</ele>
<time>2015-05-02T14:54:48Z</time>
</trkpt>
<trkpt lat="34.9305024" lon="33.6316671">
<ele>13.33</ele>
<time>2015-05-02T14:54:49Z</time>
</trkpt>
<trkpt lat="34.9304972" lon="33.6317392">
<ele>12.67</ele>
<time>2015-05-02T14:54:50Z</time>
</trkpt>
<trkpt lat="34.9304989" lon="33.6318422">
<ele>12.43</ele>
<time>2015-05-02T14:54:52Z</time>
</trkpt>
<trkpt lat="34.9304941" lon="33.6319024">
<ele>12.22</ele>
<time>2015-05-02T14:54:53Z</time>
</trkpt>
<trkpt lat="34.9304972" lon="33.6320024">
<ele>12.07</ele>
<time>2015-05-02T14:54:55Z</time>
</trkpt>
<trkpt lat="34.9304960" lon="33.6320601">
<ele>12.04</ele>
<time>2015-05-02T14:54:56Z</time>
</trkpt>
<trkpt lat="34.9304920" lon="33.6321736">
<ele>11.52</ele>
<time>2015-05-02T14:54:58Z</time>
</trkpt>
<trkpt lat="34.9304874" lon="33.6322858">
<ele>11.89</ele>
<time>2015-05-02T14:55:00Z</time>
</trkpt>
<trkpt lat="34.9304891" lon="33.6323436">
<ele>11.45</ele>
<time>2015-05-02T14:55:01Z</time>
</trkpt>
<trkpt lat="34.9304889" lon="33.6324508">
<ele>12.88</ele>
<time>2015-05-02T14:55:03Z</time>
</trkpt>
<trkpt lat="34.9304909" lon="33.6325433">
<ele>13.23</ele>
<time>2015-05-02T14:55:05Z</time>
</trkpt>
<trkpt lat="34.9304586" lon="33.6326029">
<ele>13.28</ele>
<time>2015-05-02T14:55:09Z</time>
</trkpt>
<trkpt lat="34.9303982" lon="33.6325757">
<ele>12.58</ele>
<time>2015-05-02T14:55:11Z</time>
</trkpt>
<trkpt lat="34.9303447" lon="33.6325661">
<ele>11.55</ele>
<time>2015-05-02T14:55:15Z</time>
</trkpt>
<trkpt lat="34.9302892" lon="33.6325794">
<ele>11.15</ele>
<time>2015-05-02T14:55:17Z</time>
</trkpt>
<trkpt lat="34.9302435" lon="33.6326311">
<ele>11.05</ele>
<time>2015-05-02T14:55:19Z</time>
</trkpt>
<trkpt lat="34.9301944" lon="33.6326905">
<ele>11.02</ele>
<time>2015-05-02T14:55:21Z</time>
</trkpt>
<trkpt lat="34.9301092" lon="33.6327376">
<ele>11.02</ele>
<time>2015-05-02T14:55:23Z</time>
</trkpt>
<trkpt lat="34.9300286" lon="33.6327546">
<ele>11.02</ele>
<time>2015-05-02T14:55:24Z</time>
</trkpt>
<trkpt lat="34.9299711" lon="33.6327660">
<ele>11.02</ele>
<time>2015-05-02T14:55:25Z</time>
</trkpt>
<trkpt lat="34.9299201" lon="33.6327751">
<ele>11.02</ele>
<time>2015-05-02T14:55:26Z</time>
</trkpt>
<trkpt lat="34.9298647" lon="33.6327894">
<ele>11.02</ele>
<time>2015-05-02T14:55:27Z</time>
</trkpt>
<trkpt lat="34.9298056" lon="33.6328052">
<ele>11.02</ele>
<time>2015-05-02T14:55:28Z</time>
</trkpt>
<trkpt lat="34.9297523" lon="33.6328187">
<ele>11.02</ele>
<time>2015-05-02T14:55:29Z</time>
</trkpt>
<trkpt lat="34.9296946" lon="33.6328331">
<ele>11.02</ele>
<time>2015-05-02T14:55:30Z</time>
</trkpt>
<trkpt lat="34.9296412" lon="33.6328478">
<ele>11.02</ele>
<time>2015-05-02T14:55:31Z</time>
</trkpt>
<trkpt lat="34.9295936" lon="33.6328613">
<ele>11.52</ele>
<time>2015-05-02T14:55:32Z</time>
</trkpt>
<trkpt lat="34.9295177" lon="33.6328687">
<ele>11.77</ele>
<time>2015-05-02T14:55:33Z</time>
</trkpt>
<trkpt lat="34.9294582" lon="33.6328635">
<ele>12.20</ele>
<time>2015-05-02T14:55:35Z</time>
</trkpt>
<trkpt lat="34.9294136" lon="33.6328840">
<ele>11.08</ele>
<time>2015-05-02T14:55:42Z</time>
</trkpt>
<trkpt lat="34.9293640" lon="33.6329026">
<ele>12.40</ele>
<time>2015-05-02T14:55:45Z</time>
</trkpt>
<trkpt lat="34.9293189" lon="33.6329493">
<ele>13.36</ele>
<time>2015-05-02T14:55:47Z</time>
</trkpt>
<trkpt lat="34.9292615" lon="33.6330168">
<ele>13.85</ele>
<time>2015-05-02T14:55:49Z</time>
</trkpt>
<trkpt lat="34.9291530" lon="33.6330434">
<ele>13.23</ele>
<time>2015-05-02T14:55:51Z</time>
</trkpt>
<trkpt lat="34.9291038" lon="33.6330604">
<ele>13.12</ele>
<time>2015-05-02T14:55:52Z</time>
</trkpt>
<trkpt lat="34.9290236" lon="33.6330981">
<ele>13.54</ele>
<time>2015-05-02T14:55:54Z</time>
</trkpt>
<trkpt lat="34.9289321" lon="33.6331344">
<ele>13.40</ele>
<time>2015-05-02T14:55:56Z</time>
</trkpt>
<trkpt lat="34.9288807" lon="33.6331518">
<ele>13.21</ele>
<time>2015-05-02T14:55:57Z</time>
</trkpt>
<trkpt lat="34.9288318" lon="33.6331590">
<ele>13.11</ele>
<time>2015-05-02T14:55:58Z</time>
</trkpt>
<trkpt lat="34.9287786" lon="33.6331667">
<ele>12.56</ele>
<time>2015-05-02T14:55:59Z</time>
</trkpt>
<trkpt lat="34.9287211" lon="33.6331814">
<ele>12.29</ele>
<time>2015-05-02T14:56:00Z</time>
</trkpt>
<trkpt lat="34.9286752" lon="33.6331944">
<ele>12.15</ele>
<time>2015-05-02T14:56:01Z</time>
</trkpt>
<trkpt lat="34.9286261" lon="33.6332065">
<ele>12.08</ele>
<time>2015-05-02T14:56:02Z</time>
</trkpt>
<trkpt lat="34.9285756" lon="33.6332201">
<ele>12.05</ele>
<time>2015-05-02T14:56:03Z</time>
</trkpt>
<trkpt lat="34.9285191" lon="33.6332314">
<ele>11.53</ele>
<time>2015-05-02T14:56:04Z</time>
</trkpt>
<trkpt lat="34.9284622" lon="33.6332476">
<ele>11.27</ele>
<time>2015-05-02T14:56:05Z</time>
</trkpt>
<trkpt lat="34.9284137" lon="33.6332610">
<ele>11.15</ele>
<time>2015-05-02T14:56:06Z</time>
</trkpt>
<trkpt lat="34.9283623" lon="33.6332729">
<ele>10.58</ele>
<time>2015-05-02T14:56:07Z</time>
</trkpt>
<trkpt lat="34.9283124" lon="33.6332870">
<ele>10.30</ele>
<time>2015-05-02T14:56:08Z</time>
</trkpt>
<trkpt lat="34.9282260" lon="33.6333096">
<ele>10.09</ele>
<time>2015-05-02T14:56:10Z</time>
</trkpt>
<trkpt lat="34.9281821" lon="33.6333225">
<ele>10.55</ele>
<time>2015-05-02T14:56:11Z</time>
</trkpt>
<trkpt lat="34.9281316" lon="33.6333327">
<ele>10.78</ele>
<time>2015-05-02T14:56:12Z</time>
</trkpt>
<trkpt lat="34.9280121" lon="33.6333128">
<ele>11.46</ele>
<time>2015-05-02T14:56:14Z</time>
</trkpt>
<trkpt lat="34.9279724" lon="33.6333515">
<ele>11.74</ele>
<time>2015-05-02T14:56:15Z</time>
</trkpt>
<trkpt lat="34.9279064" lon="33.6333692">
<ele>11.70</ele>
<time>2015-05-02T14:56:17Z</time>
</trkpt>
<trkpt lat="34.9278429" lon="33.6333790">
<ele>11.94</ele>
<time>2015-05-02T14:56:19Z</time>
</trkpt>
<trkpt lat="34.9277903" lon="33.6334027">
<ele>13.50</ele>
<time>2015-05-02T14:56:21Z</time>
</trkpt>
<trkpt lat="34.9277438" lon="33.6334192">
<ele>12.89</ele>
<time>2015-05-02T14:56:23Z</time>
</trkpt>
<trkpt lat="34.9276835" lon="33.6334126">
<ele>13.73</ele>
<time>2015-05-02T14:56:25Z</time>
</trkpt>
<trkpt lat="34.9276381" lon="33.6334385">
<ele>14.70</ele>
<time>2015-05-02T14:56:27Z</time>
</trkpt>
<trkpt lat="34.9275908" lon="33.6334532">
<ele>14.19</ele>
<time>2015-05-02T14:56:29Z</time>
</trkpt>
<trkpt lat="34.9275316" lon="33.6334572">
<ele>14.06</ele>
<time>2015-05-02T14:56:31Z</time>
</trkpt>
<trkpt lat="34.9274863" lon="33.6334624">
<ele>14.04</ele>
<time>2015-05-02T14:56:32Z</time>
</trkpt>
<trkpt lat="34.9273980" lon="33.6334749">
<ele>13.52</ele>
<time>2015-05-02T14:56:34Z</time>
</trkpt>
<trkpt lat="34.9273074" lon="33.6334896">
<ele>13.14</ele>
<time>2015-05-02T14:56:36Z</time>
</trkpt>
<trkpt lat="34.9272576" lon="33.6334990">
<ele>13.08</ele>
<time>2015-05-02T14:56:37Z</time>
</trkpt>
<trkpt lat="34.9271700" lon="33.6335148">
<ele>12.28</ele>
<time>2015-05-02T14:56:39Z</time>
</trkpt>
<trkpt lat="34.9271263" lon="33.6335279">
<ele>12.15</ele>
<time>2015-05-02T14:56:40Z</time>
</trkpt>
<trkpt lat="34.9270545" lon="33.6335569">
<ele>12.30</ele>
<time>2015-05-02T14:56:42Z</time>
</trkpt>
<trkpt lat="34.9270299" lon="33.6336367">
<ele>10.84</ele>
<time>2015-05-02T14:56:44Z</time>
</trkpt>
<trkpt lat="34.9270406" lon="33.6336925">
<ele>10.43</ele>
<time>2015-05-02T14:56:45Z</time>
</trkpt>
<trkpt lat="34.9270570" lon="33.6337461">
<ele>9.72</ele>
<time>2015-05-02T14:56:46Z</time>
</trkpt>
<trkpt lat="34.9270766" lon="33.6338043">
<ele>9.37</ele>
<time>2015-05-02T14:56:47Z</time>
</trkpt>
<trkpt lat="34.9271364" lon="33.6339154">
<ele>9.69</ele>
<time>2015-05-02T14:56:48Z</time>
</trkpt>
<trkpt lat="34.9271626" lon="33.6340038">
<ele>9.44</ele>
<time>2015-05-02T14:56:50Z</time>
</trkpt>
<trkpt lat="34.9272018" lon="33.6340770">
<ele>10.37</ele>
<time>2015-05-02T14:56:52Z</time>
</trkpt>
<trkpt lat="34.9272329" lon="33.6341373">
<ele>9.60</ele>
<time>2015-05-02T14:56:54Z</time>
</trkpt>
<trkpt lat="34.9272876" lon="33.6341931">
<ele>8.16</ele>
<time>2015-05-02T14:56:56Z</time>
</trkpt>
<trkpt lat="34.9273532" lon="33.6341842">
<ele>9.30</ele>
<time>2015-05-02T14:56:58Z</time>
</trkpt>
<trkpt lat="34.9273906" lon="33.6341448">
<ele>9.16</ele>
<time>2015-05-02T14:56:59Z</time>
</trkpt>
<trkpt lat="34.9274491" lon="33.6340706">
<ele>9.59</ele>
<time>2015-05-02T14:57:00Z</time>
</trkpt>
<trkpt lat="34.9274946" lon="33.6340250">
<ele>10.30</ele>
<time>2015-05-02T14:57:01Z</time>
</trkpt>
<trkpt lat="34.9275402" lon="33.6339954">
<ele>10.66</ele>
<time>2015-05-02T14:57:02Z</time>
</trkpt>
<trkpt lat="34.9275785" lon="33.6339552">
<ele>10.84</ele>
<time>2015-05-02T14:57:03Z</time>
</trkpt>
<trkpt lat="34.9276286" lon="33.6339145">
<ele>10.93</ele>
<time>2015-05-02T14:57:04Z</time>
</trkpt>
<trkpt lat="34.9277018" lon="33.6338425">
<ele>10.99</ele>
<time>2015-05-02T14:57:06Z</time>
</trkpt>
<trkpt lat="34.9277426" lon="33.6338134">
<ele>11.00</ele>
<time>2015-05-02T14:57:07Z</time>
</trkpt>
<trkpt lat="34.9278156" lon="33.6337620">
<ele>12.26</ele>
<time>2015-05-02T14:57:09Z</time>
</trkpt>
<trkpt lat="34.9278754" lon="33.6337140">
<ele>12.83</ele>
<time>2015-05-02T14:57:11Z</time>
</trkpt>
<trkpt lat="34.9279237" lon="33.6336782">
<ele>12.97</ele>
<time>2015-05-02T14:57:13Z</time>
</trkpt>
<trkpt lat="34.9279709" lon="33.6336612">
<ele>13.00</ele>
<time>2015-05-02T14:57:15Z</time>
</trkpt>
<trkpt lat="34.9280263" lon="33.6336788">
<ele>13.76</ele>
<time>2015-05-02T14:57:17Z</time>
</trkpt>
<trkpt lat="34.9280857" lon="33.6337205">
<ele>13.45</ele>
<time>2015-05-02T14:57:19Z</time>
</trkpt>
<trkpt lat="34.9281259" lon="33.6337488">
<ele>13.23</ele>
<time>2015-05-02T14:57:20Z</time>
</trkpt>
<trkpt lat="34.9282006" lon="33.6338034">
<ele>12.32</ele>
<time>2015-05-02T14:57:22Z</time>
</trkpt>
<trkpt lat="34.9282638" lon="33.6338719">
<ele>12.09</ele>
<time>2015-05-02T14:57:24Z</time>
</trkpt>
<trkpt lat="34.9282868" lon="33.6339287">
<ele>11.55</ele>
<time>2015-05-02T14:57:25Z</time>
</trkpt>
<trkpt lat="34.9282899" lon="33.6340738">
<ele>11.29</ele>
<time>2015-05-02T14:57:26Z</time>
</trkpt>
<trkpt lat="34.9283040" lon="33.6341300">
<ele>10.15</ele>
<time>2015-05-02T14:57:27Z</time>
</trkpt>
<trkpt lat="34.9283187" lon="33.6341960">
<ele>10.08</ele>
<time>2015-05-02T14:57:28Z</time>
</trkpt>
<trkpt lat="34.9283228" lon="33.6342519">
<ele>9.55</ele>
<time>2015-05-02T14:57:29Z</time>
</trkpt>
<trkpt lat="34.9283271" lon="33.6343181">
<ele>9.28</ele>
<time>2015-05-02T14:57:30Z</time>
</trkpt>
<trkpt lat="34.9283153" lon="33.6343717">
<ele>9.15</ele>
<time>2015-05-02T14:57:31Z</time>
</trkpt>
<trkpt lat="34.9283116" lon="33.6344338">
<ele>9.08</ele>
<time>2015-05-02T14:57:32Z</time>
</trkpt>
<trkpt lat="34.9283041" lon="33.6345043">
<ele>9.05</ele>
<time>2015-05-02T14:57:33Z</time>
</trkpt>
<trkpt lat="34.9282936" lon="33.6345605">
<ele>9.03</ele>
<time>2015-05-02T14:57:34Z</time>
</trkpt>
<trkpt lat="34.9282861" lon="33.6346240">
<ele>9.02</ele>
<time>2015-05-02T14:57:35Z</time>
</trkpt>
<trkpt lat="34.9282775" lon="33.6346941">
<ele>9.52</ele>
<time>2015-05-02T14:57:36Z</time>
</trkpt>
<trkpt lat="34.9282688" lon="33.6347564">
<ele>9.77</ele>
<time>2015-05-02T14:57:37Z</time>
</trkpt>
<trkpt lat="34.9282581" lon="33.6348285">
<ele>9.89</ele>
<time>2015-05-02T14:57:38Z</time>
</trkpt>
<trkpt lat="34.9282432" lon="33.6348869">
<ele>9.45</ele>
<time>2015-05-02T14:57:39Z</time>
</trkpt>
<trkpt lat="34.9282342" lon="33.6349464">
<ele>9.24</ele>
<time>2015-05-02T14:57:40Z</time>
</trkpt>
<trkpt lat="34.9282272" lon="33.6350194">
<ele>9.13</ele>
<time>2015-05-02T14:57:41Z</time>
</trkpt>
<trkpt lat="34.9282140" lon="33.6350767">
<ele>9.57</ele>
<time>2015-05-02T14:57:42Z</time>
</trkpt>
<trkpt lat="34.9282036" lon="33.6351457">
<ele>9.79</ele>
<time>2015-05-02T14:57:43Z</time>
</trkpt>
<trkpt lat="34.9281940" lon="33.6352077">
<ele>9.90</ele>
<time>2015-05-02T14:57:44Z</time>
</trkpt>
<trkpt lat="34.9281955" lon="33.6353146">
<ele>8.74</ele>
<time>2015-05-02T14:57:46Z</time>
</trkpt>
<trkpt lat="34.9282219" lon="33.6354041">
<ele>8.20</ele>
<time>2015-05-02T14:57:48Z</time>
</trkpt>
<trkpt lat="34.9282318" lon="33.6354814">
<ele>7.31</ele>
<time>2015-05-02T14:57:50Z</time>
</trkpt>
<trkpt lat="34.9281878" lon="33.6355053">
<ele>14.76</ele>
<time>2015-05-02T15:03:23Z</time>
</trkpt>
<trkpt lat="34.9281391" lon="33.6355372">
<ele>14.13</ele>
<time>2015-05-02T15:03:28Z</time>
</trkpt>
<trkpt lat="34.9281456" lon="33.6356078">
<ele>14.03</ele>
<time>2015-05-02T15:03:31Z</time>
</trkpt>
<trkpt lat="34.9281404" lon="33.6356670">
<ele>14.02</ele>
<time>2015-05-02T15:03:33Z</time>
</trkpt>
<trkpt lat="34.9281236" lon="33.6357323">
<ele>14.27</ele>
<time>2015-05-02T15:03:35Z</time>
</trkpt>
<trkpt lat="34.9281106" lon="33.6358052">
<ele>14.08</ele>
<time>2015-05-02T15:03:37Z</time>
</trkpt>
<trkpt lat="34.9281041" lon="33.6358756">
<ele>14.03</ele>
<time>2015-05-02T15:03:39Z</time>
</trkpt>
<trkpt lat="34.9281058" lon="33.6359409">
<ele>14.02</ele>
<time>2015-05-02T15:03:41Z</time>
</trkpt>
<trkpt lat="34.9280961" lon="33.6359986">
<ele>14.77</ele>
<time>2015-05-02T15:03:44Z</time>
</trkpt>
<trkpt lat="34.9280691" lon="33.6360616">
<ele>16.44</ele>
<time>2015-05-02T15:03:48Z</time>
</trkpt>
<trkpt lat="34.9280575" lon="33.6361277">
<ele>16.94</ele>
<time>2015-05-02T15:03:51Z</time>
</trkpt>
<trkpt lat="34.9280504" lon="33.6361995">
<ele>17.13</ele>
<time>2015-05-02T15:03:54Z</time>
</trkpt>
<trkpt lat="34.9280438" lon="33.6362809">
<ele>15.16</ele>
<time>2015-05-02T15:03:57Z</time>
</trkpt>
<trkpt lat="34.9280372" lon="33.6363375">
<ele>15.05</ele>
<time>2015-05-02T15:03:59Z</time>
</trkpt>
<trkpt lat="34.9280320" lon="33.6363950">
<ele>17.52</ele>
<time>2015-05-02T15:04:01Z</time>
</trkpt>
<trkpt lat="34.9280301" lon="33.6364551">
<ele>19.89</ele>
<time>2015-05-02T15:04:03Z</time>
</trkpt>
<trkpt lat="34.9280163" lon="33.6365164">
<ele>20.49</ele>
<time>2015-05-02T15:04:05Z</time>
</trkpt>
<trkpt lat="34.9280024" lon="33.6365831">
<ele>19.88</ele>
<time>2015-05-02T15:04:07Z</time>
</trkpt>
<trkpt lat="34.9279984" lon="33.6366522">
<ele>18.48</ele>
<time>2015-05-02T15:04:09Z</time>
</trkpt>
<trkpt lat="34.9280300" lon="33.6366985">
<ele>15.84</ele>
<time>2015-05-02T15:04:14Z</time>
</trkpt>
<trkpt lat="34.9279850" lon="33.6366922">
<ele>18.20</ele>
<time>2015-05-02T15:06:26Z</time>
</trkpt>
<trkpt lat="34.9279276" lon="33.6367050">
<ele>15.78</ele>
<time>2015-05-02T15:06:30Z</time>
</trkpt>
<trkpt lat="34.9278721" lon="33.6367075">
<ele>13.81</ele>
<time>2015-05-02T15:06:34Z</time>
</trkpt>
<trkpt lat="34.9278136" lon="33.6367093">
<ele>10.50</ele>
<time>2015-05-02T15:06:38Z</time>
</trkpt>
<trkpt lat="34.9277571" lon="33.6367092">
<ele>7.73</ele>
<time>2015-05-02T15:06:42Z</time>
</trkpt>
<trkpt lat="34.9277055" lon="33.6367066">
<ele>6.56</ele>
<time>2015-05-02T15:06:46Z</time>
</trkpt>
<trkpt lat="34.9276571" lon="33.6367190">
<ele>9.44</ele>
<time>2015-05-02T15:07:05Z</time>
</trkpt>
<trkpt lat="34.9276061" lon="33.6367338">
<ele>12.01</ele>
<time>2015-05-02T15:07:12Z</time>
</trkpt>
<trkpt lat="34.9275512" lon="33.6367390">
<ele>12.02</ele>
<time>2015-05-02T15:07:16Z</time>
</trkpt>
<trkpt lat="34.9274910" lon="33.6367445">
<ele>14.21</ele>
<time>2015-05-02T15:07:28Z</time>
</trkpt>
<trkpt lat="34.9274428" lon="33.6367392">
<ele>15.66</ele>
<time>2015-05-02T15:07:31Z</time>
</trkpt>
<trkpt lat="34.9273878" lon="33.6367559">
<ele>14.24</ele>
<time>2015-05-02T15:07:35Z</time>
</trkpt>
<trkpt lat="34.9273756" lon="33.6368138">
<ele>14.48</ele>
<time>2015-05-02T15:07:46Z</time>
</trkpt>
<trkpt lat="34.9273563" lon="33.6368689">
<ele>12.09</ele>
<time>2015-05-02T15:07:52Z</time>
</trkpt>
<trkpt lat="34.9273437" lon="33.6369300">
<ele>11.03</ele>
<time>2015-05-02T15:07:59Z</time>
</trkpt>
<trkpt lat="34.9273350" lon="33.6369852">
<ele>10.52</ele>
<time>2015-05-02T15:08:01Z</time>
</trkpt>
<trkpt lat="34.9273313" lon="33.6370467">
<ele>10.14</ele>
<time>2015-05-02T15:08:03Z</time>
</trkpt>
<trkpt lat="34.9273291" lon="33.6371089">
<ele>10.05</ele>
<time>2015-05-02T15:08:05Z</time>
</trkpt>
<trkpt lat="34.9273272" lon="33.6371669">
<ele>9.52</ele>
<time>2015-05-02T15:08:07Z</time>
</trkpt>
<trkpt lat="34.9273263" lon="33.6372302">
<ele>9.14</ele>
<time>2015-05-02T15:08:09Z</time>
</trkpt>
<trkpt lat="34.9273281" lon="33.6373177">
<ele>9.05</ele>
<time>2015-05-02T15:08:11Z</time>
</trkpt>
<trkpt lat="34.9273237" lon="33.6374066">
<ele>9.52</ele>
<time>2015-05-02T15:08:13Z</time>
</trkpt>
<trkpt lat="34.9273168" lon="33.6374846">
<ele>9.64</ele>
<time>2015-05-02T15:08:15Z</time>
</trkpt>
<trkpt lat="34.9273055" lon="33.6375544">
<ele>9.92</ele>
<time>2015-05-02T15:08:17Z</time>
</trkpt>
<trkpt lat="34.9272952" lon="33.6376199">
<ele>9.99</ele>
<time>2015-05-02T15:08:19Z</time>
</trkpt>
<trkpt lat="34.9272946" lon="33.6376953">
<ele>10.01</ele>
<time>2015-05-02T15:08:21Z</time>
</trkpt>
<trkpt lat="34.9272936" lon="33.6377806">
<ele>9.26</ele>
<time>2015-05-02T15:08:23Z</time>
</trkpt>
<trkpt lat="34.9272880" lon="33.6378702">
<ele>9.58</ele>
<time>2015-05-02T15:08:25Z</time>
</trkpt>
<trkpt lat="34.9272814" lon="33.6379550">
<ele>9.41</ele>
<time>2015-05-02T15:08:27Z</time>
</trkpt>
<trkpt lat="34.9272755" lon="33.6380134">
<ele>9.61</ele>
<time>2015-05-02T15:08:29Z</time>
</trkpt>
<trkpt lat="34.9272523" lon="33.6380702">
<ele>10.02</ele>
<time>2015-05-02T15:08:57Z</time>
</trkpt>
<trkpt lat="34.9272250" lon="33.6381153">
<ele>7.45</ele>
<time>2015-05-02T15:09:21Z</time>
</trkpt>
<trkpt lat="34.9271758" lon="33.6381509">
<ele>6.73</ele>
<time>2015-05-02T15:09:45Z</time>
</trkpt>
<trkpt lat="34.9271282" lon="33.6381694">
<ele>8.95</ele>
<time>2015-05-02T15:09:55Z</time>
</trkpt>
<trkpt lat="34.9270685" lon="33.6381580">
<ele>8.26</ele>
<time>2015-05-02T15:09:59Z</time>
</trkpt>
<trkpt lat="34.9270139" lon="33.6381430">
<ele>8.08</ele>
<time>2015-05-02T15:10:01Z</time>
</trkpt>
<trkpt lat="34.9269526" lon="33.6381340">
<ele>8.03</ele>
<time>2015-05-02T15:10:03Z</time>
</trkpt>
<trkpt lat="34.9268878" lon="33.6381269">
<ele>8.02</ele>
<time>2015-05-02T15:10:05Z</time>
</trkpt>
<trkpt lat="34.9268240" lon="33.6381204">
<ele>8.77</ele>
<time>2015-05-02T15:10:07Z</time>
</trkpt>
<trkpt lat="34.9267556" lon="33.6381183">
<ele>7.70</ele>
<time>2015-05-02T15:10:09Z</time>
</trkpt>
<trkpt lat="34.9266850" lon="33.6381193">
<ele>8.44</ele>
<time>2015-05-02T15:10:11Z</time>
</trkpt>
<trkpt lat="34.9266163" lon="33.6381180">
<ele>8.87</ele>
<time>2015-05-02T15:10:13Z</time>
</trkpt>
<trkpt lat="34.9265540" lon="33.6381199">
<ele>9.48</ele>
<time>2015-05-02T15:10:15Z</time>
</trkpt>
<trkpt lat="34.9265053" lon="33.6381132">
<ele>9.88</ele>
<time>2015-05-02T15:10:17Z</time>
</trkpt>
<trkpt lat="34.9264354" lon="33.6381005">
<ele>9.98</ele>
<time>2015-05-02T15:10:19Z</time>
</trkpt>
<trkpt lat="34.9263649" lon="33.6381036">
<ele>10.76</ele>
<time>2015-05-02T15:10:21Z</time>
</trkpt>
<trkpt lat="34.9262948" lon="33.6380972">
<ele>9.70</ele>
<time>2015-05-02T15:10:23Z</time>
</trkpt>
<trkpt lat="34.9262099" lon="33.6380826">
<ele>9.94</ele>
<time>2015-05-02T15:10:25Z</time>
</trkpt>
<trkpt lat="34.9261645" lon="33.6380761">
<ele>10.48</ele>
<time>2015-05-02T15:10:26Z</time>
</trkpt>
<trkpt lat="34.9260748" lon="33.6380596">
<ele>10.88</ele>
<time>2015-05-02T15:10:28Z</time>
</trkpt>
<trkpt lat="34.9260203" lon="33.6380468">
<ele>10.95</ele>
<time>2015-05-02T15:10:29Z</time>
</trkpt>
<trkpt lat="34.9259632" lon="33.6380505">
<ele>10.98</ele>
<time>2015-05-02T15:10:30Z</time>
</trkpt>
<trkpt lat="34.9259011" lon="33.6380304">
<ele>11.01</ele>
<time>2015-05-02T15:10:32Z</time>
</trkpt>
<trkpt lat="34.9258325" lon="33.6380185">
<ele>11.01</ele>
<time>2015-05-02T15:10:34Z</time>
</trkpt>
<trkpt lat="34.9257770" lon="33.6380164">
<ele>10.52</ele>
<time>2015-05-02T15:10:36Z</time>
</trkpt>
<trkpt lat="34.9257289" lon="33.6380072">
<ele>10.64</ele>
<time>2015-05-02T15:10:38Z</time>
</trkpt>
<trkpt lat="34.9256658" lon="33.6379931">
<ele>11.72</ele>
<time>2015-05-02T15:10:41Z</time>
</trkpt>
<trkpt lat="34.9256145" lon="33.6379824">
<ele>12.60</ele>
<time>2015-05-02T15:10:44Z</time>
</trkpt>
<trkpt lat="34.9255579" lon="33.6379636">
<ele>11.34</ele>
<time>2015-05-02T15:10:47Z</time>
</trkpt>
<trkpt lat="34.9255041" lon="33.6379516">
<ele>10.85</ele>
<time>2015-05-02T15:10:49Z</time>
</trkpt>
<trkpt lat="34.9254424" lon="33.6379358">
<ele>11.47</ele>
<time>2015-05-02T15:10:51Z</time>
</trkpt>
<trkpt lat="34.9253834" lon="33.6379189">
<ele>11.13</ele>
<time>2015-05-02T15:10:53Z</time>
</trkpt>
<trkpt lat="34.9253285" lon="33.6379060">
<ele>11.04</ele>
<time>2015-05-02T15:10:55Z</time>
</trkpt>
<trkpt lat="34.9252699" lon="33.6378867">
<ele>11.02</ele>
<time>2015-05-02T15:10:57Z</time>
</trkpt>
<trkpt lat="34.9252132" lon="33.6378673">
<ele>12.27</ele>
<time>2015-05-02T15:10:59Z</time>
</trkpt>
<trkpt lat="34.9251552" lon="33.6378502">
<ele>12.83</ele>
<time>2015-05-02T15:11:01Z</time>
</trkpt>
<trkpt lat="34.9251027" lon="33.6378332">
<ele>13.47</ele>
<time>2015-05-02T15:11:03Z</time>
</trkpt>
<trkpt lat="34.9250467" lon="33.6378153">
<ele>13.88</ele>
<time>2015-05-02T15:11:05Z</time>
</trkpt>
<trkpt lat="34.9249910" lon="33.6377929">
<ele>14.73</ele>
<time>2015-05-02T15:11:07Z</time>
</trkpt>
<trkpt lat="34.9249349" lon="33.6377682">
<ele>15.69</ele>
<time>2015-05-02T15:11:09Z</time>
</trkpt>
<trkpt lat="34.9248812" lon="33.6377483">
<ele>15.69</ele>
<time>2015-05-02T15:11:11Z</time>
</trkpt>
<trkpt lat="34.9248198" lon="33.6377267">
<ele>15.93</ele>
<time>2015-05-02T15:11:13Z</time>
</trkpt>
<trkpt lat="34.9247531" lon="33.6377108">
<ele>16.00</ele>
<time>2015-05-02T15:11:15Z</time>
</trkpt>
<trkpt lat="34.9246873" lon="33.6376965">
<ele>16.01</ele>
<time>2015-05-02T15:11:17Z</time>
</trkpt>
<trkpt lat="34.9246282" lon="33.6376832">
<ele>14.76</ele>
<time>2015-05-02T15:11:19Z</time>
</trkpt>
<trkpt lat="34.9245676" lon="33.6376713">
<ele>14.20</ele>
<time>2015-05-02T15:11:21Z</time>
</trkpt>
<trkpt lat="34.9245051" lon="33.6376643">
<ele>14.06</ele>
<time>2015-05-02T15:11:23Z</time>
</trkpt>
<trkpt lat="34.9244395" lon="33.6376526">
<ele>12.78</ele>
<time>2015-05-02T15:11:25Z</time>
</trkpt>
<trkpt lat="34.9243876" lon="33.6376500">
<ele>12.46</ele>
<time>2015-05-02T15:11:27Z</time>
</trkpt>
<trkpt lat="34.9243396" lon="33.6376478">
<ele>11.38</ele>
<time>2015-05-02T15:11:29Z</time>
</trkpt>
<trkpt lat="34.9242777" lon="33.6376398">
<ele>11.06</ele>
<time>2015-05-02T15:11:32Z</time>
</trkpt>
<trkpt lat="34.9242116" lon="33.6376219">
<ele>11.02</ele>
<time>2015-05-02T15:11:35Z</time>
</trkpt>
<trkpt lat="34.9241488" lon="33.6376009">
<ele>11.02</ele>
<time>2015-05-02T15:11:37Z</time>
</trkpt>
<trkpt lat="34.9240816" lon="33.6375841">
<ele>11.02</ele>
<time>2015-05-02T15:11:39Z</time>
</trkpt>
<trkpt lat="34.9240117" lon="33.6375732">
<ele>12.02</ele>
<time>2015-05-02T15:11:41Z</time>
</trkpt>
<trkpt lat="34.9239564" lon="33.6375634">
<ele>12.77</ele>
<time>2015-05-02T15:11:43Z</time>
</trkpt>
<trkpt lat="34.9239096" lon="33.6375525">
<ele>13.70</ele>
<time>2015-05-02T15:11:45Z</time>
</trkpt>
<trkpt lat="34.9238656" lon="33.6375410">
<ele>15.19</ele>
<time>2015-05-02T15:11:47Z</time>
</trkpt>
<trkpt lat="34.9238174" lon="33.6375324">
<ele>16.31</ele>
<time>2015-05-02T15:11:49Z</time>
</trkpt>
<trkpt lat="34.9237683" lon="33.6375217">
<ele>16.84</ele>
<time>2015-05-02T15:11:51Z</time>
</trkpt>
<trkpt lat="34.9237089" lon="33.6375136">
<ele>16.47</ele>
<time>2015-05-02T15:11:53Z</time>
</trkpt>
<trkpt lat="34.9236544" lon="33.6375122">
<ele>16.13</ele>
<time>2015-05-02T15:11:55Z</time>
</trkpt>
<trkpt lat="34.9235961" lon="33.6375083">
<ele>16.04</ele>
<time>2015-05-02T15:11:57Z</time>
</trkpt>
<trkpt lat="34.9235319" lon="33.6375011">
<ele>16.02</ele>
<time>2015-05-02T15:11:59Z</time>
</trkpt>
<trkpt lat="34.9234637" lon="33.6374950">
<ele>16.02</ele>
<time>2015-05-02T15:12:01Z</time>
</trkpt>
<trkpt lat="34.9234083" lon="33.6374935">
<ele>14.77</ele>
<time>2015-05-02T15:12:03Z</time>
</trkpt>
<trkpt lat="34.9233616" lon="33.6374837">
<ele>14.95</ele>
<time>2015-05-02T15:12:05Z</time>
</trkpt>
<trkpt lat="34.9232969" lon="33.6374726">
<ele>14.51</ele>
<time>2015-05-02T15:12:08Z</time>
</trkpt>
<trkpt lat="34.9232488" lon="33.6374689">
<ele>13.39</ele>
<time>2015-05-02T15:12:10Z</time>
</trkpt>
<trkpt lat="34.9231842" lon="33.6374542">
<ele>11.86</ele>
<time>2015-05-02T15:12:12Z</time>
</trkpt>
<trkpt lat="34.9231082" lon="33.6374576">
<ele>9.98</ele>
<time>2015-05-02T15:12:14Z</time>
</trkpt>
<trkpt lat="34.9230436" lon="33.6374655">
<ele>10.01</ele>
<time>2015-05-02T15:12:16Z</time>
</trkpt>
<trkpt lat="34.9229893" lon="33.6374612">
<ele>10.01</ele>
<time>2015-05-02T15:12:18Z</time>
</trkpt>
<trkpt lat="34.9229350" lon="33.6374518">
<ele>10.02</ele>
<time>2015-05-02T15:12:20Z</time>
</trkpt>
<trkpt lat="34.9228859" lon="33.6374406">
<ele>9.52</ele>
<time>2015-05-02T15:12:22Z</time>
</trkpt>
<trkpt lat="34.9228327" lon="33.6374311">
<ele>9.64</ele>
<time>2015-05-02T15:12:24Z</time>
</trkpt>
<trkpt lat="34.9227772" lon="33.6374251">
<ele>9.42</ele>
<time>2015-05-02T15:12:26Z</time>
</trkpt>
<trkpt lat="34.9227180" lon="33.6374142">
<ele>9.12</ele>
<time>2015-05-02T15:12:28Z</time>
</trkpt>
<trkpt lat="34.9226638" lon="33.6374063">
<ele>9.04</ele>
<time>2015-05-02T15:12:30Z</time>
</trkpt>
<trkpt lat="34.9226138" lon="33.6374051">
<ele>9.02</ele>
<time>2015-05-02T15:12:32Z</time>
</trkpt>
<trkpt lat="34.9225475" lon="33.6373942">
<ele>8.27</ele>
<time>2015-05-02T15:12:35Z</time>
</trkpt>
<trkpt lat="34.9224959" lon="33.6373781">
<ele>8.08</ele>
<time>2015-05-02T15:12:37Z</time>
</trkpt>
<trkpt lat="34.9224438" lon="33.6373589">
<ele>8.53</ele>
<time>2015-05-02T15:12:39Z</time>
</trkpt>
<trkpt lat="34.9223888" lon="33.6373512">
<ele>8.39</ele>
<time>2015-05-02T15:12:41Z</time>
</trkpt>
<trkpt lat="34.9223353" lon="33.6373500">
<ele>8.61</ele>
<time>2015-05-02T15:12:43Z</time>
</trkpt>
<trkpt lat="34.9222797" lon="33.6373487">
<ele>9.41</ele>
<time>2015-05-02T15:12:45Z</time>
</trkpt>
<trkpt lat="34.9222286" lon="33.6373518">
<ele>9.87</ele>
<time>2015-05-02T15:12:47Z</time>
</trkpt>
<trkpt lat="34.9221762" lon="33.6373513">
<ele>9.73</ele>
<time>2015-05-02T15:12:49Z</time>
</trkpt>
<trkpt lat="34.9221195" lon="33.6373422">
<ele>9.94</ele>
<time>2015-05-02T15:12:51Z</time>
</trkpt>
<trkpt lat="34.9220531" lon="33.6373311">
<ele>10.00</ele>
<time>2015-05-02T15:12:53Z</time>
</trkpt>
<trkpt lat="34.9219915" lon="33.6373348">
<ele>10.51</ele>
<time>2015-05-02T15:12:55Z</time>
</trkpt>
<trkpt lat="34.9219317" lon="33.6373417">
<ele>10.14</ele>
<time>2015-05-02T15:12:57Z</time>
</trkpt>
<trkpt lat="34.9218737" lon="33.6373374">
<ele>9.30</ele>
<time>2015-05-02T15:12:59Z</time>
</trkpt>
<trkpt lat="34.9218180" lon="33.6373352">
<ele>9.59</ele>
<time>2015-05-02T15:13:01Z</time>
</trkpt>
<trkpt lat="34.9217504" lon="33.6373306">
<ele>11.21</ele>
<time>2015-05-02T15:13:04Z</time>
</trkpt>
<trkpt lat="34.9216991" lon="33.6373361">
<ele>11.07</ele>
<time>2015-05-02T15:13:06Z</time>
</trkpt>
<trkpt lat="34.9216498" lon="33.6373435">
<ele>11.03</ele>
<time>2015-05-02T15:13:08Z</time>
</trkpt>
<trkpt lat="34.9216149" lon="33.6372961">
<ele>13.93</ele>
<time>2015-05-02T15:13:16Z</time>
</trkpt>
<trkpt lat="34.9215823" lon="33.6372574">
<ele>15.98</ele>
<time>2015-05-02T15:13:21Z</time>
</trkpt>
<trkpt lat="34.9215492" lon="33.6372158">
<ele>18.25</ele>
<time>2015-05-02T15:13:30Z</time>
</trkpt>
<trkpt lat="34.9215167" lon="33.6371637">
<ele>17.28</ele>
<time>2015-05-02T15:13:34Z</time>
</trkpt>
<trkpt lat="34.9214988" lon="33.6371017">
<ele>13.37</ele>
<time>2015-05-02T15:13:39Z</time>
</trkpt>
<trkpt lat="34.9214803" lon="33.6370444">
<ele>12.93</ele>
<time>2015-05-02T15:13:50Z</time>
</trkpt>
<trkpt lat="34.9214565" lon="33.6369801">
<ele>12.07</ele>
<time>2015-05-02T15:13:54Z</time>
</trkpt>
<trkpt lat="34.9214212" lon="33.6369303">
<ele>11.14</ele>
<time>2015-05-02T15:13:58Z</time>
</trkpt>
<trkpt lat="34.9213890" lon="33.6368888">
<ele>11.28</ele>
<time>2015-05-02T15:14:01Z</time>
</trkpt>
<trkpt lat="34.9213554" lon="33.6368507">
<ele>11.17</ele>
<time>2015-05-02T15:14:04Z</time>
</trkpt>
<trkpt lat="34.9213055" lon="33.6368283">
<ele>10.84</ele>
<time>2015-05-02T15:14:08Z</time>
</trkpt>
<trkpt lat="34.9212555" lon="33.6368559">
<ele>9.25</ele>
<time>2015-05-02T15:14:12Z</time>
</trkpt>
<trkpt lat="34.9212058" lon="33.6368863">
<ele>9.16</ele>
<time>2015-05-02T15:14:16Z</time>
</trkpt>
<trkpt lat="34.9211618" lon="33.6369168">
<ele>9.09</ele>
<time>2015-05-02T15:14:20Z</time>
</trkpt>
<trkpt lat="34.9211234" lon="33.6369517">
<ele>10.46</ele>
<time>2015-05-02T15:14:24Z</time>
</trkpt>
<trkpt lat="34.9210776" lon="33.6369437">
<ele>11.93</ele>
<time>2015-05-02T15:14:30Z</time>
</trkpt>
<trkpt lat="34.9210281" lon="33.6369318">
<ele>13.70</ele>
<time>2015-05-02T15:14:34Z</time>
</trkpt>
<trkpt lat="34.9209788" lon="33.6369221">
<ele>15.43</ele>
<time>2015-05-02T15:14:38Z</time>
</trkpt>
<trkpt lat="34.9209246" lon="33.6369178">
<ele>15.53</ele>
<time>2015-05-02T15:14:45Z</time>
</trkpt>
<trkpt lat="34.9208767" lon="33.6369117">
<ele>17.21</ele>
<time>2015-05-02T15:14:48Z</time>
</trkpt>
<trkpt lat="34.9208250" lon="33.6369087">
<ele>16.29</ele>
<time>2015-05-02T15:14:51Z</time>
</trkpt>
<trkpt lat="34.9207673" lon="33.6369116">
<ele>16.05</ele>
<time>2015-05-02T15:14:54Z</time>
</trkpt>
<trkpt lat="34.9207144" lon="33.6369178">
<ele>15.77</ele>
<time>2015-05-02T15:14:56Z</time>
</trkpt>
<trkpt lat="34.9206673" lon="33.6369151">
<ele>14.71</ele>
<time>2015-05-02T15:14:58Z</time>
</trkpt>
<trkpt lat="34.9206178" lon="33.6369154">
<ele>14.19</ele>
<time>2015-05-02T15:15:00Z</time>
</trkpt>
<trkpt lat="34.9205676" lon="33.6369092">
<ele>15.31</ele>
<time>2015-05-02T15:15:02Z</time>
</trkpt>
<trkpt lat="34.9205029" lon="33.6369044">
<ele>14.30</ele>
<time>2015-05-02T15:15:05Z</time>
</trkpt>
<trkpt lat="34.9204535" lon="33.6368952">
<ele>13.59</ele>
<time>2015-05-02T15:15:07Z</time>
</trkpt>
<trkpt lat="34.9203904" lon="33.6368814">
<ele>13.41</ele>
<time>2015-05-02T15:15:09Z</time>
</trkpt>
<trkpt lat="34.9203339" lon="33.6368654">
<ele>13.61</ele>
<time>2015-05-02T15:15:11Z</time>
</trkpt>
<trkpt lat="34.9202809" lon="33.6368613">
<ele>13.42</ele>
<time>2015-05-02T15:15:13Z</time>
</trkpt>
<trkpt lat="34.9202296" lon="33.6368555">
<ele>13.07</ele>
<time>2015-05-02T15:15:16Z</time>
</trkpt>
<trkpt lat="34.9201743" lon="33.6368430">
<ele>14.96</ele>
<time>2015-05-02T15:15:21Z</time>
</trkpt>
<trkpt lat="34.9201053" lon="33.6368231">
<ele>15.88</ele>
<time>2015-05-02T15:15:24Z</time>
</trkpt>
<trkpt lat="34.9200564" lon="33.6368136">
<ele>15.48</ele>
<time>2015-05-02T15:15:26Z</time>
</trkpt>
<trkpt lat="34.9199938" lon="33.6368093">
<ele>15.07</ele>
<time>2015-05-02T15:15:29Z</time>
</trkpt>
<trkpt lat="34.9199476" lon="33.6368169">
<ele>15.02</ele>
<time>2015-05-02T15:15:32Z</time>
</trkpt>
<trkpt lat="34.9199029" lon="33.6367867">
<ele>17.00</ele>
<time>2015-05-02T15:15:40Z</time>
</trkpt>
<trkpt lat="34.9198436" lon="33.6367756">
<ele>17.14</ele>
<time>2015-05-02T15:15:43Z</time>
</trkpt>
<trkpt lat="34.9197943" lon="33.6367691">
<ele>16.78</ele>
<time>2015-05-02T15:15:46Z</time>
</trkpt>
<trkpt lat="34.9197416" lon="33.6367557">
<ele>18.11</ele>
<time>2015-05-02T15:15:49Z</time>
</trkpt>
<trkpt lat="34.9196876" lon="33.6367529">
<ele>16.40</ele>
<time>2015-05-02T15:15:52Z</time>
</trkpt>
<trkpt lat="34.9196382" lon="33.6367608">
<ele>16.19</ele>
<time>2015-05-02T15:15:55Z</time>
</trkpt>
<trkpt lat="34.9195930" lon="33.6367416">
<ele>19.15</ele>
<time>2015-05-02T15:15:59Z</time>
</trkpt>
<trkpt lat="34.9195527" lon="33.6367142">
<ele>21.09</ele>
<time>2015-05-02T15:16:07Z</time>
</trkpt>
<trkpt lat="34.9195046" lon="33.6366873">
<ele>22.05</ele>
<time>2015-05-02T15:16:12Z</time>
</trkpt>
<trkpt lat="34.9194576" lon="33.6367164">
<ele>17.77</ele>
<time>2015-05-02T15:16:15Z</time>
</trkpt>
<trkpt lat="34.9193960" lon="33.6367205">
<ele>17.11</ele>
<time>2015-05-02T15:16:18Z</time>
</trkpt>
<trkpt lat="34.9193340" lon="33.6367091">
<ele>16.15</ele>
<time>2015-05-02T15:16:21Z</time>
</trkpt>
<trkpt lat="34.9192760" lon="33.6366887">
<ele>16.78</ele>
<time>2015-05-02T15:16:24Z</time>
</trkpt>
<trkpt lat="34.9192216" lon="33.6366717">
<ele>18.86</ele>
<time>2015-05-02T15:16:27Z</time>
</trkpt>
<trkpt lat="34.9191666" lon="33.6366609">
<ele>18.62</ele>
<time>2015-05-02T15:16:30Z</time>
</trkpt>
<trkpt lat="34.9191232" lon="33.6366431">
<ele>18.17</ele>
<time>2015-05-02T15:16:32Z</time>
</trkpt>
<trkpt lat="34.9190644" lon="33.6366349">
<ele>19.53</ele>
<time>2015-05-02T15:16:35Z</time>
</trkpt>
<trkpt lat="34.9190273" lon="33.6366894">
<ele>18.83</ele>
<time>2015-05-02T15:16:38Z</time>
</trkpt>
<trkpt lat="34.9190194" lon="33.6367497">
<ele>15.62</ele>
<time>2015-05-02T15:16:41Z</time>
</trkpt>
<trkpt lat="34.9190241" lon="33.6368152">
<ele>15.07</ele>
<time>2015-05-02T15:16:48Z</time>
</trkpt>
<trkpt lat="34.9190223" lon="33.6369006">
<ele>14.15</ele>
<time>2015-05-02T15:16:51Z</time>
</trkpt>
<trkpt lat="34.9190169" lon="33.6369868">
<ele>13.55</ele>
<time>2015-05-02T15:16:53Z</time>
</trkpt>
<trkpt lat="34.9190105" lon="33.6370750">
<ele>13.15</ele>
<time>2015-05-02T15:16:55Z</time>
</trkpt>
<trkpt lat="34.9190018" lon="33.6371629">
<ele>13.05</ele>
<time>2015-05-02T15:16:57Z</time>
</trkpt>
<trkpt lat="34.9189939" lon="33.6372444">
<ele>13.02</ele>
<time>2015-05-02T15:16:59Z</time>
</trkpt>
<trkpt lat="34.9189896" lon="33.6373279">
<ele>12.52</ele>
<time>2015-05-02T15:17:01Z</time>
</trkpt>
<trkpt lat="34.9189855" lon="33.6374039">
<ele>12.14</ele>
<time>2015-05-02T15:17:03Z</time>
</trkpt>
<trkpt lat="34.9189845" lon="33.6374838">
<ele>12.80</ele>
<time>2015-05-02T15:17:05Z</time>
</trkpt>
<trkpt lat="34.9189817" lon="33.6375652">
<ele>12.21</ele>
<time>2015-05-02T15:17:07Z</time>
</trkpt>
<trkpt lat="34.9189778" lon="33.6376484">
<ele>12.06</ele>
<time>2015-05-02T15:17:09Z</time>
</trkpt>
<trkpt lat="34.9189750" lon="33.6377148">
<ele>12.78</ele>
<time>2015-05-02T15:17:11Z</time>
</trkpt>
<trkpt lat="34.9189691" lon="33.6377922">
<ele>13.49</ele>
<time>2015-05-02T15:17:14Z</time>
</trkpt>
<trkpt lat="34.9189388" lon="33.6378599">
<ele>12.70</ele>
<time>2015-05-02T15:17:17Z</time>
</trkpt>
<trkpt lat="34.9188932" lon="33.6378954">
<ele>12.69</ele>
<time>2015-05-02T15:17:19Z</time>
</trkpt>
<trkpt lat="34.9188430" lon="33.6379162">
<ele>11.68</ele>
<time>2015-05-02T15:17:21Z</time>
</trkpt>
<trkpt lat="34.9187927" lon="33.6379328">
<ele>11.18</ele>
<time>2015-05-02T15:17:23Z</time>
</trkpt>
<trkpt lat="34.9187450" lon="33.6379537">
<ele>10.31</ele>
<time>2015-05-02T15:17:25Z</time>
</trkpt>
<trkpt lat="34.9186998" lon="33.6379687">
<ele>10.09</ele>
<time>2015-05-02T15:17:27Z</time>
</trkpt>
<trkpt lat="34.9186511" lon="33.6379765">
<ele>9.28</ele>
<time>2015-05-02T15:17:29Z</time>
</trkpt>
<trkpt lat="34.9186037" lon="33.6379822">
<ele>9.08</ele>
<time>2015-05-02T15:17:31Z</time>
</trkpt>
<trkpt lat="34.9185546" lon="33.6379740">
<ele>8.53</ele>
<time>2015-05-02T15:17:33Z</time>
</trkpt>
<trkpt lat="34.9184937" lon="33.6379463">
<ele>8.08</ele>
<time>2015-05-02T15:17:36Z</time>
</trkpt>
<trkpt lat="34.9184540" lon="33.6379088">
<ele>11.01</ele>
<time>2015-05-02T15:17:53Z</time>
</trkpt>
<trkpt lat="34.9184042" lon="33.6379092">
<ele>11.14</ele>
<time>2015-05-02T15:17:56Z</time>
</trkpt>
<trkpt lat="34.9183558" lon="33.6379232">
<ele>11.09</ele>
<time>2015-05-02T15:18:00Z</time>
</trkpt>
<trkpt lat="34.9183030" lon="33.6379348">
<ele>9.86</ele>
<time>2015-05-02T15:18:07Z</time>
</trkpt>
<trkpt lat="34.9182549" lon="33.6379375">
<ele>11.97</ele>
<time>2015-05-02T15:18:14Z</time>
</trkpt>
<trkpt lat="34.9182033" lon="33.6379400">
<ele>11.51</ele>
<time>2015-05-02T15:18:17Z</time>
</trkpt>
<trkpt lat="34.9181562" lon="33.6379401">
<ele>11.08</ele>
<time>2015-05-02T15:18:20Z</time>
</trkpt>
<trkpt lat="34.9181083" lon="33.6379402">
<ele>10.15</ele>
<time>2015-05-02T15:18:23Z</time>
</trkpt>
<trkpt lat="34.9180611" lon="33.6379380">
<ele>10.78</ele>
<time>2015-05-02T15:18:26Z</time>
</trkpt>
<trkpt lat="34.9180044" lon="33.6379442">
<ele>12.69</ele>
<time>2015-05-02T15:18:30Z</time>
</trkpt>
<trkpt lat="34.9179467" lon="33.6379304">
<ele>13.00</ele>
<time>2015-05-02T15:18:34Z</time>
</trkpt>
<trkpt lat="34.9178977" lon="33.6379266">
<ele>13.51</ele>
<time>2015-05-02T15:18:37Z</time>
</trkpt>
<trkpt lat="34.9178464" lon="33.6379058">
<ele>11.80</ele>
<time>2015-05-02T15:18:41Z</time>
</trkpt>
<trkpt lat="34.9178118" lon="33.6378692">
<ele>10.86</ele>
<time>2015-05-02T15:18:44Z</time>
</trkpt>
<trkpt lat="34.9177674" lon="33.6378288">
<ele>11.00</ele>
<time>2015-05-02T15:18:47Z</time>
</trkpt>
<trkpt lat="34.9177176" lon="33.6378093">
<ele>12.39</ele>
<time>2015-05-02T15:18:51Z</time>
</trkpt>
<trkpt lat="34.9176619" lon="33.6378275">
<ele>12.78</ele>
<time>2015-05-02T15:18:56Z</time>
</trkpt>
<trkpt lat="34.9176161" lon="33.6378469">
<ele>12.94</ele>
<time>2015-05-02T15:19:00Z</time>
</trkpt>
<trkpt lat="34.9175680" lon="33.6378416">
<ele>12.80</ele>
<time>2015-05-02T15:19:21Z</time>
</trkpt>
<trkpt lat="34.9175174" lon="33.6378685">
<ele>12.25</ele>
<time>2015-05-02T15:19:25Z</time>
</trkpt>
<trkpt lat="34.9174725" lon="33.6378943">
<ele>11.28</ele>
<time>2015-05-02T15:19:29Z</time>
</trkpt>
<trkpt lat="34.9174194" lon="33.6379206">
<ele>10.95</ele>
<time>2015-05-02T15:19:53Z</time>
</trkpt>
<trkpt lat="34.9173664" lon="33.6379521">
<ele>11.01</ele>
<time>2015-05-02T15:19:57Z</time>
</trkpt>
<trkpt lat="34.9173235" lon="33.6379704">
<ele>11.89</ele>
<time>2015-05-02T15:20:00Z</time>
</trkpt>
<trkpt lat="34.9172787" lon="33.6379821">
<ele>12.00</ele>
<time>2015-05-02T15:20:03Z</time>
</trkpt>
<trkpt lat="34.9172311" lon="33.6379858">
<ele>12.01</ele>
<time>2015-05-02T15:20:06Z</time>
</trkpt>
<trkpt lat="34.9171838" lon="33.6379911">
<ele>11.27</ele>
<time>2015-05-02T15:20:09Z</time>
</trkpt>
<trkpt lat="34.9171375" lon="33.6379932">
<ele>11.17</ele>
<time>2015-05-02T15:20:12Z</time>
</trkpt>
<trkpt lat="34.9170774" lon="33.6379982">
<ele>10.59</ele>
<time>2015-05-02T15:20:16Z</time>
</trkpt>
<trkpt lat="34.9170184" lon="33.6380003">
<ele>10.99</ele>
<time>2015-05-02T15:20:20Z</time>
</trkpt>
<trkpt lat="34.9169586" lon="33.6380007">
<ele>11.01</ele>
<time>2015-05-02T15:20:24Z</time>
</trkpt>
<trkpt lat="34.9168999" lon="33.6380069">
<ele>11.52</ele>
<time>2015-05-02T15:20:28Z</time>
</trkpt>
<trkpt lat="34.9168533" lon="33.6380097">
<ele>11.83</ele>
<time>2015-05-02T15:20:31Z</time>
</trkpt>
<trkpt lat="34.9168050" lon="33.6380134">
<ele>11.12</ele>
<time>2015-05-02T15:20:34Z</time>
</trkpt>
<trkpt lat="34.9167539" lon="33.6380166">
<ele>10.90</ele>
<time>2015-05-02T15:20:37Z</time>
</trkpt>
<trkpt lat="34.9167050" lon="33.6380244">
<ele>10.38</ele>
<time>2015-05-02T15:20:40Z</time>
</trkpt>
<trkpt lat="34.9166460" lon="33.6380365">
<ele>10.04</ele>
<time>2015-05-02T15:20:44Z</time>
</trkpt>
<trkpt lat="34.9165866" lon="33.6380444">
<ele>10.02</ele>
<time>2015-05-02T15:20:48Z</time>
</trkpt>
<trkpt lat="34.9165319" lon="33.6380559">
<ele>10.02</ele>
<time>2015-05-02T15:20:52Z</time>
</trkpt>
<trkpt lat="34.9165085" lon="33.6381144">
<ele>10.48</ele>
<time>2015-05-02T15:20:57Z</time>
</trkpt>
<trkpt lat="34.9164863" lon="33.6381738">
<ele>11.86</ele>
<time>2015-05-02T15:21:01Z</time>
</trkpt>
<trkpt lat="34.9164425" lon="33.6382074">
<ele>12.69</ele>
<time>2015-05-02T15:21:05Z</time>
</trkpt>
<trkpt lat="34.9163904" lon="33.6381966">
<ele>12.06</ele>
<time>2015-05-02T15:21:09Z</time>
</trkpt>
<trkpt lat="34.9163380" lon="33.6381908">
<ele>10.33</ele>
<time>2015-05-02T15:21:13Z</time>
</trkpt>
<trkpt lat="34.9162814" lon="33.6381817">
<ele>10.54</ele>
<time>2015-05-02T15:21:17Z</time>
</trkpt>
<trkpt lat="34.9162249" lon="33.6381854">
<ele>10.11</ele>
<time>2015-05-02T15:21:21Z</time>
</trkpt>
<trkpt lat="34.9161774" lon="33.6381860">
<ele>10.03</ele>
<time>2015-05-02T15:21:24Z</time>
</trkpt>
<trkpt lat="34.9161281" lon="33.6381849">
<ele>9.52</ele>
<time>2015-05-02T15:21:27Z</time>
</trkpt>
<trkpt lat="34.9160775" lon="33.6381744">
<ele>9.58</ele>
<time>2015-05-02T15:21:30Z</time>
</trkpt>
<trkpt lat="34.9160266" lon="33.6381726">
<ele>8.71</ele>
<time>2015-05-02T15:21:33Z</time>
</trkpt>
<trkpt lat="34.9159781" lon="33.6381681">
<ele>8.85</ele>
<time>2015-05-02T15:21:36Z</time>
</trkpt>
<trkpt lat="34.9159324" lon="33.6381586">
<ele>9.00</ele>
<time>2015-05-02T15:21:39Z</time>
</trkpt>
<trkpt lat="34.9158740" lon="33.6381574">
<ele>9.01</ele>
<time>2015-05-02T15:21:43Z</time>
</trkpt>
<trkpt lat="34.9158292" lon="33.6381532">
<ele>9.14</ele>
<time>2015-05-02T15:21:46Z</time>
</trkpt>
<trkpt lat="34.9157716" lon="33.6381502">
<ele>8.52</ele>
<time>2015-05-02T15:21:50Z</time>
</trkpt>
<trkpt lat="34.9157130" lon="33.6381586">
<ele>7.80</ele>
<time>2015-05-02T15:21:54Z</time>
</trkpt>
<trkpt lat="34.9156628" lon="33.6381597">
<ele>8.74</ele>
<time>2015-05-02T15:21:57Z</time>
</trkpt>
<trkpt lat="34.9156132" lon="33.6381540">
<ele>8.98</ele>
<time>2015-05-02T15:22:00Z</time>
</trkpt>
<trkpt lat="34.9155662" lon="33.6381508">
<ele>7.64</ele>
<time>2015-05-02T15:22:03Z</time>
</trkpt>
<trkpt lat="34.9155061" lon="33.6381509">
<ele>7.80</ele>
<time>2015-05-02T15:22:07Z</time>
</trkpt>
<trkpt lat="34.9154604" lon="33.6381458">
<ele>7.61</ele>
<time>2015-05-02T15:22:10Z</time>
</trkpt>
<trkpt lat="34.9154151" lon="33.6381382">
<ele>8.87</ele>
<time>2015-05-02T15:22:14Z</time>
</trkpt>
<trkpt lat="34.9153636" lon="33.6381510">
<ele>7.63</ele>
<time>2015-05-02T15:22:18Z</time>
</trkpt>
<trkpt lat="34.9153077" lon="33.6381412">
<ele>6.68</ele>
<time>2015-05-02T15:22:22Z</time>
</trkpt>
<trkpt lat="34.9152522" lon="33.6381177">
<ele>8.68</ele>
<time>2015-05-02T15:22:26Z</time>
</trkpt>
<trkpt lat="34.9152042" lon="33.6381174">
<ele>8.97</ele>
<time>2015-05-02T15:22:29Z</time>
</trkpt>
<trkpt lat="34.9151571" lon="33.6381169">
<ele>9.01</ele>
<time>2015-05-02T15:22:32Z</time>
</trkpt>
<trkpt lat="34.9151123" lon="33.6381050">
<ele>9.52</ele>
<time>2015-05-02T15:22:35Z</time>
</trkpt>
<trkpt lat="34.9150670" lon="33.6380928">
<ele>10.70</ele>
<time>2015-05-02T15:22:38Z</time>
</trkpt>
<trkpt lat="34.9150197" lon="33.6380946">
<ele>12.35</ele>
<time>2015-05-02T15:22:41Z</time>
</trkpt>
<trkpt lat="34.9149750" lon="33.6381010">
<ele>13.68</ele>
<time>2015-05-02T15:22:44Z</time>
</trkpt>
<trkpt lat="34.9149163" lon="33.6381006">
<ele>13.81</ele>
<time>2015-05-02T15:22:48Z</time>
</trkpt>
<trkpt lat="34.9148624" lon="33.6380902">
<ele>14.69</ele>
<time>2015-05-02T15:22:52Z</time>
</trkpt>
<trkpt lat="34.9148089" lon="33.6380914">
<ele>13.75</ele>
<time>2015-05-02T15:22:56Z</time>
</trkpt>
<trkpt lat="34.9147581" lon="33.6380929">
<ele>12.56</ele>
<time>2015-05-02T15:23:00Z</time>
</trkpt>
<trkpt lat="34.9147079" lon="33.6380931">
<ele>12.99</ele>
<time>2015-05-02T15:23:04Z</time>
</trkpt>
<trkpt lat="34.9146524" lon="33.6380862">
<ele>13.45</ele>
<time>2015-05-02T15:23:08Z</time>
</trkpt>
<trkpt lat="34.9146068" lon="33.6380805">
<ele>13.07</ele>
<time>2015-05-02T15:23:11Z</time>
</trkpt>
<trkpt lat="34.9145477" lon="33.6380784">
<ele>13.02</ele>
<time>2015-05-02T15:23:15Z</time>
</trkpt>
<trkpt lat="34.9145014" lon="33.6380765">
<ele>12.27</ele>
<time>2015-05-02T15:23:18Z</time>
</trkpt>
<trkpt lat="34.9144527" lon="33.6380686">
<ele>12.42</ele>
<time>2015-05-02T15:23:21Z</time>
</trkpt>
<trkpt lat="34.9144072" lon="33.6380729">
<ele>12.07</ele>
<time>2015-05-02T15:23:24Z</time>
</trkpt>
<trkpt lat="34.9143522" lon="33.6380881">
<ele>10.58</ele>
<time>2015-05-02T15:23:28Z</time>
</trkpt>
<trkpt lat="34.9142995" lon="33.6380822">
<ele>10.55</ele>
<time>2015-05-02T15:23:32Z</time>
</trkpt>
<trkpt lat="34.9142392" lon="33.6380767">
<ele>11.61</ele>
<time>2015-05-02T15:23:36Z</time>
</trkpt>
<trkpt lat="34.9141802" lon="33.6380627">
<ele>13.87</ele>
<time>2015-05-02T15:23:40Z</time>
</trkpt>
<trkpt lat="34.9141224" lon="33.6380501">
<ele>14.44</ele>
<time>2015-05-02T15:23:44Z</time>
</trkpt>
<trkpt lat="34.9140691" lon="33.6380531">
<ele>13.29</ele>
<time>2015-05-02T15:23:48Z</time>
</trkpt>
<trkpt lat="34.9140104" lon="33.6380426">
<ele>12.60</ele>
<time>2015-05-02T15:23:52Z</time>
</trkpt>
<trkpt lat="34.9139648" lon="33.6380450">
<ele>12.84</ele>
<time>2015-05-02T15:23:55Z</time>
</trkpt>
<trkpt lat="34.9139187" lon="33.6380465">
<ele>12.74</ele>
<time>2015-05-02T15:23:58Z</time>
</trkpt>
<trkpt lat="34.9138716" lon="33.6380421">
<ele>12.98</ele>
<time>2015-05-02T15:24:01Z</time>
</trkpt>
<trkpt lat="34.9138225" lon="33.6380330">
<ele>12.14</ele>
<time>2015-05-02T15:24:04Z</time>
</trkpt>
<trkpt lat="34.9137729" lon="33.6380346">
<ele>12.03</ele>
<time>2015-05-02T15:24:07Z</time>
</trkpt>
<trkpt lat="34.9137229" lon="33.6380336">
<ele>12.02</ele>
<time>2015-05-02T15:24:10Z</time>
</trkpt>
<trkpt lat="34.9136724" lon="33.6380251">
<ele>12.77</ele>
<time>2015-05-02T15:24:13Z</time>
</trkpt>
<trkpt lat="34.9136217" lon="33.6380206">
<ele>12.98</ele>
<time>2015-05-02T15:24:16Z</time>
</trkpt>
<trkpt lat="34.9135735" lon="33.6380169">
<ele>13.01</ele>
<time>2015-05-02T15:24:19Z</time>
</trkpt>
<trkpt lat="34.9135284" lon="33.6380145">
<ele>13.02</ele>
<time>2015-05-02T15:24:22Z</time>
</trkpt>
<trkpt lat="34.9134716" lon="33.6380002">
<ele>13.95</ele>
<time>2015-05-02T15:24:26Z</time>
</trkpt>
<trkpt lat="34.9134270" lon="33.6379839">
<ele>14.01</ele>
<time>2015-05-02T15:24:29Z</time>
</trkpt>
<trkpt lat="34.9133812" lon="33.6379778">
<ele>13.64</ele>
<time>2015-05-02T15:24:32Z</time>
</trkpt>
<trkpt lat="34.9133349" lon="33.6379906">
<ele>13.22</ele>
<time>2015-05-02T15:24:35Z</time>
</trkpt>
<trkpt lat="34.9132884" lon="33.6379986">
<ele>12.17</ele>
<time>2015-05-02T15:24:38Z</time>
</trkpt>
<trkpt lat="34.9132437" lon="33.6379880">
<ele>11.53</ele>
<time>2015-05-02T15:24:41Z</time>
</trkpt>
<trkpt lat="34.9131998" lon="33.6379744">
<ele>11.08</ele>
<time>2015-05-02T15:24:44Z</time>
</trkpt>
<trkpt lat="34.9131516" lon="33.6379850">
<ele>10.27</ele>
<time>2015-05-02T15:24:47Z</time>
</trkpt>
<trkpt lat="34.9131002" lon="33.6379832">
<ele>10.42</ele>
<time>2015-05-02T15:24:50Z</time>
</trkpt>
<trkpt lat="34.9130529" lon="33.6379768">
<ele>11.44</ele>
<time>2015-05-02T15:24:53Z</time>
</trkpt>
<trkpt lat="34.9130070" lon="33.6379702">
<ele>12.19</ele>
<time>2015-05-02T15:24:56Z</time>
</trkpt>
<trkpt lat="34.9129489" lon="33.6379679">
<ele>10.59</ele>
<time>2015-05-02T15:25:00Z</time>
</trkpt>
<trkpt lat="34.9128931" lon="33.6379706">
<ele>10.49</ele>
<time>2015-05-02T15:25:04Z</time>
</trkpt>
<trkpt lat="34.9128353" lon="33.6379604">
<ele>11.61</ele>
<time>2015-05-02T15:25:08Z</time>
</trkpt>
<trkpt lat="34.9127869" lon="33.6379591">
<ele>11.84</ele>
<time>2015-05-02T15:25:11Z</time>
</trkpt>
<trkpt lat="34.9127407" lon="33.6379616">
<ele>11.99</ele>
<time>2015-05-02T15:25:14Z</time>
</trkpt>
<trkpt lat="34.9126957" lon="33.6379593">
<ele>12.01</ele>
<time>2015-05-02T15:25:17Z</time>
</trkpt>
<trkpt lat="34.9126385" lon="33.6379547">
<ele>12.02</ele>
<time>2015-05-02T15:25:21Z</time>
</trkpt>
<trkpt lat="34.9125906" lon="33.6379408">
<ele>12.02</ele>
<time>2015-05-02T15:25:24Z</time>
</trkpt>
<trkpt lat="34.9125417" lon="33.6379294">
<ele>12.77</ele>
<time>2015-05-02T15:25:27Z</time>
</trkpt>
<trkpt lat="34.9124944" lon="33.6379152">
<ele>12.86</ele>
<time>2015-05-02T15:25:30Z</time>
</trkpt>
<trkpt lat="34.9124474" lon="33.6379152">
<ele>13.00</ele>
<time>2015-05-02T15:25:33Z</time>
</trkpt>
<trkpt lat="34.9124021" lon="33.6379125">
<ele>13.01</ele>
<time>2015-05-02T15:25:36Z</time>
</trkpt>
<trkpt lat="34.9123562" lon="33.6379114">
<ele>13.02</ele>
<time>2015-05-02T15:25:39Z</time>
</trkpt>
<trkpt lat="34.9123093" lon="33.6379110">
<ele>13.02</ele>
<time>2015-05-02T15:25:42Z</time>
</trkpt>
<trkpt lat="34.9122640" lon="33.6379095">
<ele>13.02</ele>
<time>2015-05-02T15:25:45Z</time>
</trkpt>
<trkpt lat="34.9122166" lon="33.6379086">
<ele>13.02</ele>
<time>2015-05-02T15:25:48Z</time>
</trkpt>
<trkpt lat="34.9121676" lon="33.6379095">
<ele>13.02</ele>
<time>2015-05-02T15:25:51Z</time>
</trkpt>
<trkpt lat="34.9121187" lon="33.6379098">
<ele>13.02</ele>
<time>2015-05-02T15:25:54Z</time>
</trkpt>
<trkpt lat="34.9120699" lon="33.6379114">
<ele>13.02</ele>
<time>2015-05-02T15:25:57Z</time>
</trkpt>
<trkpt lat="34.9120226" lon="33.6379116">
<ele>12.14</ele>
<time>2015-05-02T15:26:00Z</time>
</trkpt>
<trkpt lat="34.9119758" lon="33.6379124">
<ele>12.03</ele>
<time>2015-05-02T15:26:03Z</time>
</trkpt>
<trkpt lat="34.9119288" lon="33.6379128">
<ele>12.52</ele>
<time>2015-05-02T15:26:06Z</time>
</trkpt>
<trkpt lat="34.9118813" lon="33.6379126">
<ele>12.95</ele>
<time>2015-05-02T15:26:09Z</time>
</trkpt>
<trkpt lat="34.9118339" lon="33.6379164">
<ele>13.01</ele>
<time>2015-05-02T15:26:12Z</time>
</trkpt>
<trkpt lat="34.9117871" lon="33.6379145">
<ele>13.14</ele>
<time>2015-05-02T15:26:15Z</time>
</trkpt>
<trkpt lat="34.9117397" lon="33.6379087">
<ele>13.03</ele>
<time>2015-05-02T15:26:18Z</time>
</trkpt>
<trkpt lat="34.9116926" lon="33.6379064">
<ele>12.27</ele>
<time>2015-05-02T15:26:21Z</time>
</trkpt>
<trkpt lat="34.9116469" lon="33.6379010">
<ele>12.05</ele>
<time>2015-05-02T15:26:24Z</time>
</trkpt>
<trkpt lat="34.9116015" lon="33.6378977">
<ele>12.52</ele>
<time>2015-05-02T15:26:27Z</time>
</trkpt>
<trkpt lat="34.9115547" lon="33.6378989">
<ele>12.58</ele>
<time>2015-05-02T15:26:30Z</time>
</trkpt>
<trkpt lat="34.9115078" lon="33.6378965">
<ele>12.09</ele>
<time>2015-05-02T15:26:33Z</time>
</trkpt>
<trkpt lat="34.9114486" lon="33.6378949">
<ele>11.52</ele>
<time>2015-05-02T15:26:37Z</time>
</trkpt>
<trkpt lat="34.9113961" lon="33.6378755">
<ele>11.55</ele>
<time>2015-05-02T15:26:41Z</time>
</trkpt>
<trkpt lat="34.9113409" lon="33.6378562">
<ele>11.49</ele>
<time>2015-05-02T15:26:45Z</time>
</trkpt>
<trkpt lat="34.9112892" lon="33.6378335">
<ele>11.98</ele>
<time>2015-05-02T15:26:49Z</time>
</trkpt>
<trkpt lat="34.9112383" lon="33.6378253">
<ele>12.95</ele>
<time>2015-05-02T15:26:53Z</time>
</trkpt>
<trkpt lat="34.9111882" lon="33.6378213">
<ele>13.95</ele>
<time>2015-05-02T15:26:57Z</time>
</trkpt>
<trkpt lat="34.9111330" lon="33.6378038">
<ele>14.76</ele>
<time>2015-05-02T15:27:01Z</time>
</trkpt>
<trkpt lat="34.9110879" lon="33.6378015">
<ele>16.36</ele>
<time>2015-05-02T15:27:04Z</time>
</trkpt>
<trkpt lat="34.9110300" lon="33.6378210">
<ele>17.47</ele>
<time>2015-05-02T15:27:08Z</time>
</trkpt>
<trkpt lat="34.9109738" lon="33.6378288">
<ele>17.98</ele>
<time>2015-05-02T15:27:12Z</time>
</trkpt>
<trkpt lat="34.9109184" lon="33.6378265">
<ele>17.26</ele>
<time>2015-05-02T15:27:16Z</time>
</trkpt>
<trkpt lat="34.9108591" lon="33.6378253">
<ele>17.91</ele>
<time>2015-05-02T15:27:20Z</time>
</trkpt>
<trkpt lat="34.9108057" lon="33.6378060">
<ele>17.76</ele>
<time>2015-05-02T15:27:24Z</time>
</trkpt>
<trkpt lat="34.9107491" lon="33.6377916">
<ele>18.50</ele>
<time>2015-05-02T15:27:28Z</time>
</trkpt>
<trkpt lat="34.9106903" lon="33.6377994">
<ele>19.73</ele>
<time>2015-05-02T15:27:32Z</time>
</trkpt>
<trkpt lat="34.9106436" lon="33.6378000">
<ele>20.11</ele>
<time>2015-05-02T15:27:35Z</time>
</trkpt>
<trkpt lat="34.9105878" lon="33.6377868">
<ele>19.15</ele>
<time>2015-05-02T15:27:39Z</time>
</trkpt>
<trkpt lat="34.9105415" lon="33.6377724">
<ele>18.52</ele>
<time>2015-05-02T15:27:46Z</time>
</trkpt>
<trkpt lat="34.9104901" lon="33.6377949">
<ele>16.42</ele>
<time>2015-05-02T15:27:50Z</time>
</trkpt>
<trkpt lat="34.9104448" lon="33.6378066">
<ele>14.69</ele>
<time>2015-05-02T15:27:53Z</time>
</trkpt>
<trkpt lat="34.9103890" lon="33.6378332">
<ele>14.06</ele>
<time>2015-05-02T15:27:57Z</time>
</trkpt>
<trkpt lat="34.9103442" lon="33.6378428">
<ele>13.15</ele>
<time>2015-05-02T15:28:00Z</time>
</trkpt>
<trkpt lat="34.9102942" lon="33.6378788">
<ele>12.15</ele>
<time>2015-05-02T15:28:04Z</time>
</trkpt>
<trkpt lat="34.9102400" lon="33.6378972">
<ele>12.02</ele>
<time>2015-05-02T15:28:08Z</time>
</trkpt>
<trkpt lat="34.9101823" lon="33.6379003">
<ele>11.08</ele>
<time>2015-05-02T15:28:12Z</time>
</trkpt>
<trkpt lat="34.9101239" lon="33.6379014">
<ele>11.02</ele>
<time>2015-05-02T15:28:16Z</time>
</trkpt>
<trkpt lat="34.9100683" lon="33.6378925">
<ele>10.08</ele>
<time>2015-05-02T15:28:20Z</time>
</trkpt>
<trkpt lat="34.9100094" lon="33.6378968">
<ele>11.71</ele>
<time>2015-05-02T15:28:24Z</time>
</trkpt>
<trkpt lat="34.9099614" lon="33.6378833">
<ele>11.31</ele>
<time>2015-05-02T15:28:28Z</time>
</trkpt>
<trkpt lat="34.9099117" lon="33.6378693">
<ele>10.52</ele>
<time>2015-05-02T15:28:40Z</time>
</trkpt>
<trkpt lat="34.9098600" lon="33.6378652">
<ele>10.03</ele>
<time>2015-05-02T15:28:45Z</time>
</trkpt>
<trkpt lat="34.9098089" lon="33.6378640">
<ele>10.02</ele>
<time>2015-05-02T15:28:48Z</time>
</trkpt>
<trkpt lat="34.9097623" lon="33.6378678">
<ele>10.52</ele>
<time>2015-05-02T15:28:51Z</time>
</trkpt>
<trkpt lat="34.9097084" lon="33.6378690">
<ele>10.33</ele>
<time>2015-05-02T15:28:54Z</time>
</trkpt>
<trkpt lat="34.9096563" lon="33.6378657">
<ele>10.06</ele>
<time>2015-05-02T15:28:57Z</time>
</trkpt>
<trkpt lat="34.9096062" lon="33.6378686">
<ele>10.02</ele>
<time>2015-05-02T15:29:00Z</time>
</trkpt>
<trkpt lat="34.9095592" lon="33.6378766">
<ele>9.64</ele>
<time>2015-05-02T15:29:03Z</time>
</trkpt>
<trkpt lat="34.9095087" lon="33.6378696">
<ele>9.22</ele>
<time>2015-05-02T15:29:06Z</time>
</trkpt>
<trkpt lat="34.9094615" lon="33.6378586">
<ele>9.04</ele>
<time>2015-05-02T15:29:09Z</time>
</trkpt>
<trkpt lat="34.9094160" lon="33.6378549">
<ele>9.02</ele>
<time>2015-05-02T15:29:12Z</time>
</trkpt>
<trkpt lat="34.9093661" lon="33.6378541">
<ele>8.14</ele>
<time>2015-05-02T15:29:15Z</time>
</trkpt>
<trkpt lat="34.9093207" lon="33.6378581">
<ele>8.05</ele>
<time>2015-05-02T15:29:17Z</time>
</trkpt>
<trkpt lat="34.9092510" lon="33.6378540">
<ele>8.02</ele>
<time>2015-05-02T15:29:20Z</time>
</trkpt>
<trkpt lat="34.9092040" lon="33.6378488">
<ele>8.02</ele>
<time>2015-05-02T15:29:22Z</time>
</trkpt>
<trkpt lat="34.9091535" lon="33.6378460">
<ele>8.02</ele>
<time>2015-05-02T15:29:24Z</time>
</trkpt>
<trkpt lat="34.9091005" lon="33.6378431">
<ele>8.02</ele>
<time>2015-05-02T15:29:26Z</time>
</trkpt>
<trkpt lat="34.9090363" lon="33.6378402">
<ele>8.02</ele>
<time>2015-05-02T15:29:28Z</time>
</trkpt>
<trkpt lat="34.9089709" lon="33.6378404">
<ele>8.02</ele>
<time>2015-05-02T15:29:30Z</time>
</trkpt>
<trkpt lat="34.9089093" lon="33.6378403">
<ele>7.52</ele>
<time>2015-05-02T15:29:32Z</time>
</trkpt>
<trkpt lat="34.9088518" lon="33.6378378">
<ele>7.89</ele>
<time>2015-05-02T15:29:34Z</time>
</trkpt>
<trkpt lat="34.9087943" lon="33.6378344">
<ele>7.73</ele>
<time>2015-05-02T15:29:36Z</time>
</trkpt>
<trkpt lat="34.9087423" lon="33.6378325">
<ele>7.95</ele>
<time>2015-05-02T15:29:38Z</time>
</trkpt>
<trkpt lat="34.9086962" lon="33.6378337">
<ele>7.25</ele>
<time>2015-05-02T15:29:40Z</time>
</trkpt>
<trkpt lat="34.9086493" lon="33.6378330">
<ele>7.82</ele>
<time>2015-05-02T15:29:42Z</time>
</trkpt>
<trkpt lat="34.9085926" lon="33.6378318">
<ele>7.97</ele>
<time>2015-05-02T15:29:44Z</time>
</trkpt>
<trkpt lat="34.9085400" lon="33.6378349">
<ele>8.00</ele>
<time>2015-05-02T15:29:46Z</time>
</trkpt>
<trkpt lat="34.9084913" lon="33.6378378">
<ele>8.01</ele>
<time>2015-05-02T15:29:48Z</time>
</trkpt>
<trkpt lat="34.9084414" lon="33.6378423">
<ele>8.64</ele>
<time>2015-05-02T15:29:51Z</time>
</trkpt>
<trkpt lat="34.9083834" lon="33.6378412">
<ele>8.99</ele>
<time>2015-05-02T15:29:55Z</time>
</trkpt>
<trkpt lat="34.9083361" lon="33.6378423">
<ele>8.89</ele>
<time>2015-05-02T15:30:06Z</time>
</trkpt>
<trkpt lat="34.9082844" lon="33.6378386">
<ele>9.01</ele>
<time>2015-05-02T15:30:10Z</time>
</trkpt>
<trkpt lat="34.9082302" lon="33.6378315">
<ele>8.89</ele>
<time>2015-05-02T15:30:14Z</time>
</trkpt>
<trkpt lat="34.9081711" lon="33.6378215">
<ele>9.51</ele>
<time>2015-05-02T15:30:18Z</time>
</trkpt>
<trkpt lat="34.9081206" lon="33.6378212">
<ele>10.39</ele>
<time>2015-05-02T15:30:20Z</time>
</trkpt>
<trkpt lat="34.9080664" lon="33.6378224">
<ele>10.86</ele>
<time>2015-05-02T15:30:22Z</time>
</trkpt>
<trkpt lat="34.9080099" lon="33.6378223">
<ele>10.98</ele>
<time>2015-05-02T15:30:24Z</time>
</trkpt>
<trkpt lat="34.9079548" lon="33.6378220">
<ele>11.01</ele>
<time>2015-05-02T15:30:26Z</time>
</trkpt>
<trkpt lat="34.9078984" lon="33.6378221">
<ele>11.01</ele>
<time>2015-05-02T15:30:28Z</time>
</trkpt>
<trkpt lat="34.9078454" lon="33.6378246">
<ele>11.52</ele>
<time>2015-05-02T15:30:30Z</time>
</trkpt>
<trkpt lat="34.9077999" lon="33.6378262">
<ele>11.39</ele>
<time>2015-05-02T15:30:32Z</time>
</trkpt>
<trkpt lat="34.9077372" lon="33.6378282">
<ele>11.56</ele>
<time>2015-05-02T15:30:35Z</time>
</trkpt>
<trkpt lat="34.9076754" lon="33.6378276">
<ele>11.96</ele>
<time>2015-05-02T15:30:38Z</time>
</trkpt>
<trkpt lat="34.9076166" lon="33.6378171">
<ele>12.01</ele>
<time>2015-05-02T15:30:41Z</time>
</trkpt>
<trkpt lat="34.9075735" lon="33.6377995">
<ele>11.27</ele>
<time>2015-05-02T15:30:44Z</time>
</trkpt>
<trkpt lat="34.9075122" lon="33.6378036">
<ele>11.05</ele>
<time>2015-05-02T15:30:47Z</time>
</trkpt>
<trkpt lat="34.9074591" lon="33.6378114">
<ele>11.02</ele>
<time>2015-05-02T15:30:49Z</time>
</trkpt>
<trkpt lat="34.9073979" lon="33.6378157">
<ele>11.02</ele>
<time>2015-05-02T15:30:51Z</time>
</trkpt>
<trkpt lat="34.9073384" lon="33.6378160">
<ele>11.27</ele>
<time>2015-05-02T15:30:53Z</time>
</trkpt>
<trkpt lat="34.9072889" lon="33.6378169">
<ele>11.08</ele>
<time>2015-05-02T15:30:55Z</time>
</trkpt>
<trkpt lat="34.9072369" lon="33.6378144">
<ele>11.03</ele>
<time>2015-05-02T15:30:57Z</time>
</trkpt>
<trkpt lat="34.9071818" lon="33.6378131">
<ele>11.52</ele>
<time>2015-05-02T15:30:59Z</time>
</trkpt>
<trkpt lat="34.9071268" lon="33.6378152">
<ele>11.89</ele>
<time>2015-05-02T15:31:01Z</time>
</trkpt>
<trkpt lat="34.9070745" lon="33.6378195">
<ele>11.98</ele>
<time>2015-05-02T15:31:03Z</time>
</trkpt>
<trkpt lat="34.9070178" lon="33.6378217">
<ele>12.01</ele>
<time>2015-05-02T15:31:05Z</time>
</trkpt>
<trkpt lat="34.9069608" lon="33.6378234">
<ele>12.01</ele>
<time>2015-05-02T15:31:07Z</time>
</trkpt>
<trkpt lat="34.9069030" lon="33.6378231">
<ele>12.02</ele>
<time>2015-05-02T15:31:09Z</time>
</trkpt>
<trkpt lat="34.9068471" lon="33.6378236">
<ele>12.02</ele>
<time>2015-05-02T15:31:11Z</time>
</trkpt>
<trkpt lat="34.9067792" lon="33.6378197">
<ele>11.27</ele>
<time>2015-05-02T15:31:13Z</time>
</trkpt>
<trkpt lat="34.9067149" lon="33.6378194">
<ele>11.83</ele>
<time>2015-05-02T15:31:15Z</time>
</trkpt>
<trkpt lat="34.9066539" lon="33.6378204">
<ele>11.72</ele>
<time>2015-05-02T15:31:17Z</time>
</trkpt>
<trkpt lat="34.9066035" lon="33.6378196">
<ele>11.94</ele>
<time>2015-05-02T15:31:19Z</time>
</trkpt>
<trkpt lat="34.9065444" lon="33.6378203">
<ele>12.00</ele>
<time>2015-05-02T15:31:21Z</time>
</trkpt>
<trkpt lat="34.9064831" lon="33.6378225">
<ele>12.51</ele>
<time>2015-05-02T15:31:23Z</time>
</trkpt>
<trkpt lat="34.9064201" lon="33.6378243">
<ele>12.89</ele>
<time>2015-05-02T15:31:25Z</time>
</trkpt>
<trkpt lat="34.9063598" lon="33.6378249">
<ele>12.98</ele>
<time>2015-05-02T15:31:27Z</time>
</trkpt>
<trkpt lat="34.9062987" lon="33.6378229">
<ele>12.51</ele>
<time>2015-05-02T15:31:29Z</time>
</trkpt>
<trkpt lat="34.9062372" lon="33.6378218">
<ele>12.89</ele>
<time>2015-05-02T15:31:31Z</time>
</trkpt>
<trkpt lat="34.9061726" lon="33.6378200">
<ele>12.98</ele>
<time>2015-05-02T15:31:33Z</time>
</trkpt>
<trkpt lat="34.9061160" lon="33.6378136">
<ele>12.26</ele>
<time>2015-05-02T15:31:35Z</time>
</trkpt>
<trkpt lat="34.9060548" lon="33.6378123">
<ele>12.08</ele>
<time>2015-05-02T15:31:37Z</time>
</trkpt>
<trkpt lat="34.9059940" lon="33.6378154">
<ele>11.28</ele>
<time>2015-05-02T15:31:39Z</time>
</trkpt>
<trkpt lat="34.9059402" lon="33.6378193">
<ele>11.08</ele>
<time>2015-05-02T15:31:41Z</time>
</trkpt>
<trkpt lat="34.9058943" lon="33.6378191">
<ele>11.03</ele>
<time>2015-05-02T15:31:43Z</time>
</trkpt>
<trkpt lat="34.9058487" lon="33.6378205">
<ele>11.02</ele>
<time>2015-05-02T15:31:45Z</time>
</trkpt>
<trkpt lat="34.9057996" lon="33.6378248">
<ele>11.52</ele>
<time>2015-05-02T15:31:47Z</time>
</trkpt>
<trkpt lat="34.9057466" lon="33.6378273">
<ele>11.64</ele>
<time>2015-05-02T15:31:49Z</time>
</trkpt>
<trkpt lat="34.9056970" lon="33.6378293">
<ele>12.42</ele>
<time>2015-05-02T15:31:51Z</time>
</trkpt>
<trkpt lat="34.9056443" lon="33.6378372">
<ele>12.12</ele>
<time>2015-05-02T15:31:53Z</time>
</trkpt>
<trkpt lat="34.9055905" lon="33.6378393">
<ele>12.04</ele>
<time>2015-05-02T15:31:55Z</time>
</trkpt>
<trkpt lat="34.9055274" lon="33.6378394">
<ele>12.02</ele>
<time>2015-05-02T15:31:57Z</time>
</trkpt>
<trkpt lat="34.9054676" lon="33.6378415">
<ele>12.52</ele>
<time>2015-05-02T15:31:59Z</time>
</trkpt>
<trkpt lat="34.9054097" lon="33.6378434">
<ele>13.39</ele>
<time>2015-05-02T15:32:01Z</time>
</trkpt>
<trkpt lat="34.9053490" lon="33.6378434">
<ele>13.86</ele>
<time>2015-05-02T15:32:03Z</time>
</trkpt>
<trkpt lat="34.9052863" lon="33.6378458">
<ele>13.98</ele>
<time>2015-05-02T15:32:05Z</time>
</trkpt>
<trkpt lat="34.9052308" lon="33.6378509">
<ele>14.01</ele>
<time>2015-05-02T15:32:07Z</time>
</trkpt>
<trkpt lat="34.9051754" lon="33.6378544">
<ele>14.01</ele>
<time>2015-05-02T15:32:09Z</time>
</trkpt>
<trkpt lat="34.9051217" lon="33.6378599">
<ele>14.02</ele>
<time>2015-05-02T15:32:11Z</time>
</trkpt>
<trkpt lat="34.9050666" lon="33.6378664">
<ele>13.27</ele>
<time>2015-05-02T15:32:13Z</time>
</trkpt>
<trkpt lat="34.9050166" lon="33.6378721">
<ele>13.83</ele>
<time>2015-05-02T15:32:15Z</time>
</trkpt>
<trkpt lat="34.9049625" lon="33.6378751">
<ele>13.97</ele>
<time>2015-05-02T15:32:17Z</time>
</trkpt>
<trkpt lat="34.9049063" lon="33.6378733">
<ele>13.25</ele>
<time>2015-05-02T15:32:19Z</time>
</trkpt>
<trkpt lat="34.9048495" lon="33.6378688">
<ele>13.08</ele>
<time>2015-05-02T15:32:21Z</time>
</trkpt>
<trkpt lat="34.9047979" lon="33.6378655">
<ele>13.03</ele>
<time>2015-05-02T15:32:23Z</time>
</trkpt>
<trkpt lat="34.9047452" lon="33.6378598">
<ele>13.02</ele>
<time>2015-05-02T15:32:25Z</time>
</trkpt>
<trkpt lat="34.9046972" lon="33.6378515">
<ele>13.02</ele>
<time>2015-05-02T15:32:27Z</time>
</trkpt>
<trkpt lat="34.9046358" lon="33.6378345">
<ele>12.89</ele>
<time>2015-05-02T15:32:30Z</time>
</trkpt>
<trkpt lat="34.9045841" lon="33.6378245">
<ele>12.73</ele>
<time>2015-05-02T15:32:32Z</time>
</trkpt>
<trkpt lat="34.9045341" lon="33.6378143">
<ele>12.95</ele>
<time>2015-05-02T15:32:34Z</time>
</trkpt>
<trkpt lat="34.9044828" lon="33.6378060">
<ele>13.00</ele>
<time>2015-05-02T15:32:36Z</time>
</trkpt>
<trkpt lat="34.9044305" lon="33.6377973">
<ele>13.01</ele>
<time>2015-05-02T15:32:38Z</time>
</trkpt>
<trkpt lat="34.9043739" lon="33.6377870">
<ele>13.01</ele>
<time>2015-05-02T15:32:40Z</time>
</trkpt>
<trkpt lat="34.9043212" lon="33.6377789">
<ele>12.77</ele>
<time>2015-05-02T15:32:42Z</time>
</trkpt>
<trkpt lat="34.9042664" lon="33.6377717">
<ele>12.95</ele>
<time>2015-05-02T15:32:44Z</time>
</trkpt>
<trkpt lat="34.9042090" lon="33.6377660">
<ele>13.00</ele>
<time>2015-05-02T15:32:46Z</time>
</trkpt>
<trkpt lat="34.9041511" lon="33.6377620">
<ele>12.76</ele>
<time>2015-05-02T15:32:48Z</time>
</trkpt>
<trkpt lat="34.9040980" lon="33.6377556">
<ele>12.95</ele>
<time>2015-05-02T15:32:50Z</time>
</trkpt>
<trkpt lat="34.9040470" lon="33.6377515">
<ele>13.00</ele>
<time>2015-05-02T15:32:52Z</time>
</trkpt>
<trkpt lat="34.9039962" lon="33.6377449">
<ele>13.01</ele>
<time>2015-05-02T15:32:54Z</time>
</trkpt>
<trkpt lat="34.9039394" lon="33.6377414">
<ele>13.02</ele>
<time>2015-05-02T15:32:56Z</time>
</trkpt>
<trkpt lat="34.9038846" lon="33.6377369">
<ele>13.02</ele>
<time>2015-05-02T15:32:58Z</time>
</trkpt>
<trkpt lat="34.9038261" lon="33.6377341">
<ele>13.02</ele>
<time>2015-05-02T15:33:00Z</time>
</trkpt>
<trkpt lat="34.9037651" lon="33.6377355">
<ele>13.02</ele>
<time>2015-05-02T15:33:02Z</time>
</trkpt>
<trkpt lat="34.9037024" lon="33.6377364">
<ele>13.02</ele>
<time>2015-05-02T15:33:04Z</time>
</trkpt>
<trkpt lat="34.9036422" lon="33.6377373">
<ele>13.02</ele>
<time>2015-05-02T15:33:06Z</time>
</trkpt>
<trkpt lat="34.9035774" lon="33.6377393">
<ele>13.02</ele>
<time>2015-05-02T15:33:08Z</time>
</trkpt>
<trkpt lat="34.9035027" lon="33.6377393">
<ele>13.02</ele>
<time>2015-05-02T15:33:10Z</time>
</trkpt>
<trkpt lat="34.9034320" lon="33.6377403">
<ele>13.02</ele>
<time>2015-05-02T15:33:12Z</time>
</trkpt>
<trkpt lat="34.9033701" lon="33.6377353">
<ele>13.02</ele>
<time>2015-05-02T15:33:14Z</time>
</trkpt>
<trkpt lat="34.9033104" lon="33.6377407">
<ele>13.02</ele>
<time>2015-05-02T15:33:16Z</time>
</trkpt>
<trkpt lat="34.9032637" lon="33.6377575">
<ele>13.02</ele>
<time>2015-05-02T15:33:18Z</time>
</trkpt>
<trkpt lat="34.9032126" lon="33.6377696">
<ele>12.27</ele>
<time>2015-05-02T15:33:20Z</time>
</trkpt>
<trkpt lat="34.9031620" lon="33.6377766">
<ele>12.08</ele>
<time>2015-05-02T15:33:22Z</time>
</trkpt>
<trkpt lat="34.9031088" lon="33.6377803">
<ele>12.03</ele>
<time>2015-05-02T15:33:24Z</time>
</trkpt>
<trkpt lat="34.9030568" lon="33.6377793">
<ele>12.52</ele>
<time>2015-05-02T15:33:26Z</time>
</trkpt>
<trkpt lat="34.9030054" lon="33.6377794">
<ele>12.89</ele>
<time>2015-05-02T15:33:28Z</time>
</trkpt>
<trkpt lat="34.9029547" lon="33.6377810">
<ele>12.48</ele>
<time>2015-05-02T15:33:30Z</time>
</trkpt>
<trkpt lat="34.9029030" lon="33.6377893">
<ele>12.63</ele>
<time>2015-05-02T15:33:32Z</time>
</trkpt>
<trkpt lat="34.9028511" lon="33.6377986">
<ele>12.92</ele>
<time>2015-05-02T15:33:34Z</time>
</trkpt>
<trkpt lat="34.9027930" lon="33.6378032">
<ele>12.99</ele>
<time>2015-05-02T15:33:36Z</time>
</trkpt>
<trkpt lat="34.9027231" lon="33.6378104">
<ele>13.01</ele>
<time>2015-05-02T15:33:38Z</time>
</trkpt>
<trkpt lat="34.9026558" lon="33.6378176">
<ele>12.51</ele>
<time>2015-05-02T15:33:40Z</time>
</trkpt>
<trkpt lat="34.9025886" lon="33.6378245">
<ele>12.14</ele>
<time>2015-05-02T15:33:42Z</time>
</trkpt>
<trkpt lat="34.9025182" lon="33.6378332">
<ele>12.80</ele>
<time>2015-05-02T15:33:44Z</time>
</trkpt>
<trkpt lat="34.9024522" lon="33.6378415">
<ele>12.96</ele>
<time>2015-05-02T15:33:46Z</time>
</trkpt>
<trkpt lat="34.9023824" lon="33.6378471">
<ele>12.50</ele>
<time>2015-05-02T15:33:48Z</time>
</trkpt>
<trkpt lat="34.9023127" lon="33.6378548">
<ele>12.14</ele>
<time>2015-05-02T15:33:50Z</time>
</trkpt>
<trkpt lat="34.9022390" lon="33.6378648">
<ele>12.80</ele>
<time>2015-05-02T15:33:52Z</time>
</trkpt>
<trkpt lat="34.9021676" lon="33.6378707">
<ele>12.96</ele>
<time>2015-05-02T15:33:54Z</time>
</trkpt>
<trkpt lat="34.9020968" lon="33.6378769">
<ele>13.00</ele>
<time>2015-05-02T15:33:56Z</time>
</trkpt>
<trkpt lat="34.9020287" lon="33.6378819">
<ele>13.01</ele>
<time>2015-05-02T15:33:58Z</time>
</trkpt>
<trkpt lat="34.9019584" lon="33.6378874">
<ele>13.02</ele>
<time>2015-05-02T15:34:00Z</time>
</trkpt>
<trkpt lat="34.9018938" lon="33.6379012">
<ele>13.02</ele>
<time>2015-05-02T15:34:02Z</time>
</trkpt>
<trkpt lat="34.9018272" lon="33.6379137">
<ele>13.02</ele>
<time>2015-05-02T15:34:04Z</time>
</trkpt>
<trkpt lat="34.9017635" lon="33.6379204">
<ele>13.02</ele>
<time>2015-05-02T15:34:06Z</time>
</trkpt>
<trkpt lat="34.9017106" lon="33.6379289">
<ele>13.02</ele>
<time>2015-05-02T15:34:08Z</time>
</trkpt>
<trkpt lat="34.9016633" lon="33.6379391">
<ele>13.02</ele>
<time>2015-05-02T15:34:10Z</time>
</trkpt>
<trkpt lat="34.9015999" lon="33.6379482">
<ele>13.02</ele>
<time>2015-05-02T15:34:13Z</time>
</trkpt>
<trkpt lat="34.9015429" lon="33.6379467">
<ele>12.77</ele>
<time>2015-05-02T15:34:16Z</time>
</trkpt>
<trkpt lat="34.9014879" lon="33.6379560">
<ele>12.98</ele>
<time>2015-05-02T15:34:19Z</time>
</trkpt>
<trkpt lat="34.9014231" lon="33.6379518">
<ele>13.01</ele>
<time>2015-05-02T15:34:22Z</time>
</trkpt>
<trkpt lat="34.9013577" lon="33.6379511">
<ele>13.02</ele>
<time>2015-05-02T15:34:24Z</time>
</trkpt>
<trkpt lat="34.9012980" lon="33.6379541">
<ele>13.02</ele>
<time>2015-05-02T15:34:26Z</time>
</trkpt>
<trkpt lat="34.9012496" lon="33.6379566">
<ele>13.02</ele>
<time>2015-05-02T15:34:28Z</time>
</trkpt>
<trkpt lat="34.9011828" lon="33.6379669">
<ele>13.02</ele>
<time>2015-05-02T15:34:31Z</time>
</trkpt>
<trkpt lat="34.9011364" lon="33.6379710">
<ele>12.27</ele>
<time>2015-05-02T15:34:33Z</time>
</trkpt>
<trkpt lat="34.9010703" lon="33.6379725">
<ele>12.05</ele>
<time>2015-05-02T15:34:36Z</time>
</trkpt>
<trkpt lat="34.9010092" lon="33.6379779">
<ele>12.02</ele>
<time>2015-05-02T15:34:39Z</time>
</trkpt>
<trkpt lat="34.9009457" lon="33.6379964">
<ele>12.02</ele>
<time>2015-05-02T15:34:42Z</time>
</trkpt>
<trkpt lat="34.9008945" lon="33.6380162">
<ele>12.02</ele>
<time>2015-05-02T15:34:44Z</time>
</trkpt>
<trkpt lat="34.9008414" lon="33.6380313">
<ele>12.52</ele>
<time>2015-05-02T15:34:46Z</time>
</trkpt>
<trkpt lat="34.9007845" lon="33.6380442">
<ele>12.89</ele>
<time>2015-05-02T15:34:48Z</time>
</trkpt>
<trkpt lat="34.9007308" lon="33.6380500">
<ele>12.23</ele>
<time>2015-05-02T15:34:50Z</time>
</trkpt>
<trkpt lat="34.9006728" lon="33.6380546">
<ele>12.07</ele>
<time>2015-05-02T15:34:52Z</time>
</trkpt>
<trkpt lat="34.9006156" lon="33.6380589">
<ele>12.03</ele>
<time>2015-05-02T15:34:54Z</time>
</trkpt>
<trkpt lat="34.9005584" lon="33.6380641">
<ele>12.02</ele>
<time>2015-05-02T15:34:56Z</time>
</trkpt>
<trkpt lat="34.9005034" lon="33.6380680">
<ele>12.02</ele>
<time>2015-05-02T15:34:58Z</time>
</trkpt>
<trkpt lat="34.9004446" lon="33.6380742">
<ele>12.02</ele>
<time>2015-05-02T15:35:00Z</time>
</trkpt>
<trkpt lat="34.9003869" lon="33.6380804">
<ele>12.02</ele>
<time>2015-05-02T15:35:02Z</time>
</trkpt>
<trkpt lat="34.9003251" lon="33.6380849">
<ele>12.02</ele>
<time>2015-05-02T15:35:04Z</time>
</trkpt>
<trkpt lat="34.9002608" lon="33.6380903">
<ele>12.02</ele>
<time>2015-05-02T15:35:06Z</time>
</trkpt>
<trkpt lat="34.9001988" lon="33.6380960">
<ele>12.02</ele>
<time>2015-05-02T15:35:08Z</time>
</trkpt>
<trkpt lat="34.9001375" lon="33.6381005">
<ele>12.02</ele>
<time>2015-05-02T15:35:10Z</time>
</trkpt>
<trkpt lat="34.9000774" lon="33.6381059">
<ele>12.02</ele>
<time>2015-05-02T15:35:12Z</time>
</trkpt>
<trkpt lat="34.9000115" lon="33.6381124">
<ele>12.14</ele>
<time>2015-05-02T15:35:15Z</time>
</trkpt>
<trkpt lat="34.8999637" lon="33.6381164">
<ele>12.05</ele>
<time>2015-05-02T15:35:17Z</time>
</trkpt>
<trkpt lat="34.8998978" lon="33.6381256">
<ele>11.52</ele>
<time>2015-05-02T15:35:20Z</time>
</trkpt>
<trkpt lat="34.8998458" lon="33.6381426">
<ele>11.58</ele>
<time>2015-05-02T15:35:23Z</time>
</trkpt>
<trkpt lat="34.8997918" lon="33.6381363">
<ele>10.02</ele>
<time>2015-05-02T15:35:50Z</time>
</trkpt>
<trkpt lat="34.8997403" lon="33.6381393">
<ele>10.02</ele>
<time>2015-05-02T15:35:55Z</time>
</trkpt>
<trkpt lat="34.8996878" lon="33.6381341">
<ele>10.27</ele>
<time>2015-05-02T15:36:00Z</time>
</trkpt>
<trkpt lat="34.8996347" lon="33.6381397">
<ele>10.02</ele>
<time>2015-05-02T15:36:05Z</time>
</trkpt>
<trkpt lat="34.8995871" lon="33.6381468">
<ele>10.02</ele>
<time>2015-05-02T15:36:09Z</time>
</trkpt>
<trkpt lat="34.8995405" lon="33.6381485">
<ele>10.02</ele>
<time>2015-05-02T15:36:12Z</time>
</trkpt>
<trkpt lat="34.8994950" lon="33.6381474">
<ele>10.77</ele>
<time>2015-05-02T15:36:15Z</time>
</trkpt>
<trkpt lat="34.8994500" lon="33.6381410">
<ele>11.73</ele>
<time>2015-05-02T15:36:18Z</time>
</trkpt>
<trkpt lat="34.8994034" lon="33.6381435">
<ele>11.98</ele>
<time>2015-05-02T15:36:21Z</time>
</trkpt>
<trkpt lat="34.8993483" lon="33.6381468">
<ele>12.45</ele>
<time>2015-05-02T15:36:25Z</time>
</trkpt>
<trkpt lat="34.8992940" lon="33.6381499">
<ele>12.29</ele>
<time>2015-05-02T15:36:29Z</time>
</trkpt>
<trkpt lat="34.8992460" lon="33.6381493">
<ele>12.98</ele>
<time>2015-05-02T15:36:36Z</time>
</trkpt>
<trkpt lat="34.8991931" lon="33.6381532">
<ele>12.51</ele>
<time>2015-05-02T15:36:40Z</time>
</trkpt>
<trkpt lat="34.8991436" lon="33.6381712">
<ele>12.05</ele>
<time>2015-05-02T15:36:44Z</time>
</trkpt>
<trkpt lat="34.8990966" lon="33.6381667">
<ele>12.02</ele>
<time>2015-05-02T15:36:48Z</time>
</trkpt>
<trkpt lat="34.8990493" lon="33.6381641">
<ele>10.64</ele>
<time>2015-05-02T15:36:52Z</time>
</trkpt>
<trkpt lat="34.8989934" lon="33.6381755">
<ele>10.07</ele>
<time>2015-05-02T15:36:57Z</time>
</trkpt>
<trkpt lat="34.8989368" lon="33.6381912">
<ele>9.52</ele>
<time>2015-05-02T15:37:01Z</time>
</trkpt>
<trkpt lat="34.8988911" lon="33.6382276">
<ele>9.05</ele>
<time>2015-05-02T15:37:05Z</time>
</trkpt>
<trkpt lat="34.8988400" lon="33.6382298">
<ele>9.89</ele>
<time>2015-05-02T15:37:15Z</time>
</trkpt>
<trkpt lat="34.8987856" lon="33.6382304">
<ele>10.51</ele>
<time>2015-05-02T15:37:19Z</time>
</trkpt>
<trkpt lat="34.8987267" lon="33.6382335">
<ele>10.98</ele>
<time>2015-05-02T15:37:23Z</time>
</trkpt>
<trkpt lat="34.8986815" lon="33.6382357">
<ele>11.01</ele>
<time>2015-05-02T15:37:26Z</time>
</trkpt>
<trkpt lat="34.8986365" lon="33.6382413">
<ele>11.02</ele>
<time>2015-05-02T15:37:29Z</time>
</trkpt>
<trkpt lat="34.8985774" lon="33.6382464">
<ele>11.52</ele>
<time>2015-05-02T15:37:33Z</time>
</trkpt>
<trkpt lat="34.8985217" lon="33.6382525">
<ele>11.92</ele>
<time>2015-05-02T15:37:37Z</time>
</trkpt>
<trkpt lat="34.8984756" lon="33.6382554">
<ele>11.50</ele>
<time>2015-05-02T15:37:40Z</time>
</trkpt>
<trkpt lat="34.8984182" lon="33.6382510">
<ele>11.80</ele>
<time>2015-05-02T15:37:44Z</time>
</trkpt>
<trkpt lat="34.8983682" lon="33.6382510">
<ele>12.88</ele>
<time>2015-05-02T15:37:48Z</time>
</trkpt>
<trkpt lat="34.8983129" lon="33.6382536">
<ele>13.38</ele>
<time>2015-05-02T15:37:52Z</time>
</trkpt>
<trkpt lat="34.8982561" lon="33.6382733">
<ele>10.23</ele>
<time>2015-05-02T15:37:56Z</time>
</trkpt>
<trkpt lat="34.8982108" lon="33.6382749">
<ele>10.04</ele>
<time>2015-05-02T15:37:59Z</time>
</trkpt>
<trkpt lat="34.8981657" lon="33.6382838">
<ele>9.27</ele>
<time>2015-05-02T15:38:02Z</time>
</trkpt>
<trkpt lat="34.8981213" lon="33.6382937">
<ele>8.67</ele>
<time>2015-05-02T15:38:05Z</time>
</trkpt>
<trkpt lat="34.8980756" lon="33.6382993">
<ele>8.97</ele>
<time>2015-05-02T15:38:08Z</time>
</trkpt>
<trkpt lat="34.8980295" lon="33.6383004">
<ele>9.89</ele>
<time>2015-05-02T15:38:11Z</time>
</trkpt>
<trkpt lat="34.8979832" lon="33.6383029">
<ele>10.00</ele>
<time>2015-05-02T15:38:14Z</time>
</trkpt>
<trkpt lat="34.8979248" lon="33.6383151">
<ele>8.26</ele>
<time>2015-05-02T15:38:18Z</time>
</trkpt>
<trkpt lat="34.8978690" lon="33.6383281">
<ele>8.16</ele>
<time>2015-05-02T15:38:22Z</time>
</trkpt>
<trkpt lat="34.8978106" lon="33.6383324">
<ele>9.46</ele>
<time>2015-05-02T15:38:26Z</time>
</trkpt>
<trkpt lat="34.8977538" lon="33.6383415">
<ele>9.36</ele>
<time>2015-05-02T15:38:30Z</time>
</trkpt>
<trkpt lat="34.8977070" lon="33.6383394">
<ele>10.68</ele>
<time>2015-05-02T15:38:33Z</time>
</trkpt>
<trkpt lat="34.8976591" lon="33.6383365">
<ele>10.97</ele>
<time>2015-05-02T15:38:36Z</time>
</trkpt>
<trkpt lat="34.8976083" lon="33.6383364">
<ele>10.51</ele>
<time>2015-05-02T15:38:39Z</time>
</trkpt>
<trkpt lat="34.8975616" lon="33.6383423">
<ele>10.95</ele>
<time>2015-05-02T15:38:42Z</time>
</trkpt>
<trkpt lat="34.8975030" lon="33.6383447">
<ele>12.39</ele>
<time>2015-05-02T15:38:46Z</time>
</trkpt>
<trkpt lat="34.8974578" lon="33.6383465">
<ele>12.19</ele>
<time>2015-05-02T15:38:49Z</time>
</trkpt>
<trkpt lat="34.8974149" lon="33.6383639">
<ele>10.79</ele>
<time>2015-05-02T15:38:52Z</time>
</trkpt>
<trkpt lat="34.8973568" lon="33.6383690">
<ele>11.00</ele>
<time>2015-05-02T15:38:56Z</time>
</trkpt>
<trkpt lat="34.8972989" lon="33.6383687">
<ele>11.02</ele>
<time>2015-05-02T15:39:00Z</time>
</trkpt>
<trkpt lat="34.8972397" lon="33.6383710">
<ele>11.89</ele>
<time>2015-05-02T15:39:04Z</time>
</trkpt>
<trkpt lat="34.8971809" lon="33.6383730">
<ele>12.26</ele>
<time>2015-05-02T15:39:08Z</time>
</trkpt>
<trkpt lat="34.8971362" lon="33.6383811">
<ele>12.05</ele>
<time>2015-05-02T15:39:11Z</time>
</trkpt>
<trkpt lat="34.8970907" lon="33.6383847">
<ele>12.02</ele>
<time>2015-05-02T15:39:14Z</time>
</trkpt>
<trkpt lat="34.8970452" lon="33.6383901">
<ele>12.02</ele>
<time>2015-05-02T15:39:17Z</time>
</trkpt>
<trkpt lat="34.8969872" lon="33.6383864">
<ele>13.64</ele>
<time>2015-05-02T15:39:21Z</time>
</trkpt>
<trkpt lat="34.8969315" lon="33.6383910">
<ele>13.81</ele>
<time>2015-05-02T15:39:25Z</time>
</trkpt>
<trkpt lat="34.8968761" lon="33.6383969">
<ele>13.25</ele>
<time>2015-05-02T15:39:29Z</time>
</trkpt>
<trkpt lat="34.8968182" lon="33.6384125">
<ele>13.03</ele>
<time>2015-05-02T15:39:33Z</time>
</trkpt>
<trkpt lat="34.8967592" lon="33.6384149">
<ele>13.52</ele>
<time>2015-05-02T15:39:37Z</time>
</trkpt>
<trkpt lat="34.8966998" lon="33.6384195">
<ele>13.11</ele>
<time>2015-05-02T15:39:41Z</time>
</trkpt>
<trkpt lat="34.8966548" lon="33.6384264">
<ele>13.03</ele>
<time>2015-05-02T15:39:44Z</time>
</trkpt>
<trkpt lat="34.8965959" lon="33.6384295">
<ele>13.02</ele>
<time>2015-05-02T15:39:48Z</time>
</trkpt>
<trkpt lat="34.8965508" lon="33.6384311">
<ele>13.52</ele>
<time>2015-05-02T15:39:51Z</time>
</trkpt>
<trkpt lat="34.8964920" lon="33.6384351">
<ele>13.98</ele>
<time>2015-05-02T15:39:55Z</time>
</trkpt>
<trkpt lat="34.8964465" lon="33.6384367">
<ele>14.76</ele>
<time>2015-05-02T15:39:58Z</time>
</trkpt>
<trkpt lat="34.8963879" lon="33.6384404">
<ele>14.56</ele>
<time>2015-05-02T15:40:02Z</time>
</trkpt>
<trkpt lat="34.8963336" lon="33.6384457">
<ele>14.49</ele>
<time>2015-05-02T15:40:06Z</time>
</trkpt>
<trkpt lat="34.8962798" lon="33.6384525">
<ele>14.05</ele>
<time>2015-05-02T15:40:10Z</time>
</trkpt>
<trkpt lat="34.8962246" lon="33.6384590">
<ele>14.02</ele>
<time>2015-05-02T15:40:14Z</time>
</trkpt>
<trkpt lat="34.8961790" lon="33.6384626">
<ele>14.89</ele>
<time>2015-05-02T15:40:17Z</time>
</trkpt>
<trkpt lat="34.8961188" lon="33.6384704">
<ele>15.01</ele>
<time>2015-05-02T15:40:21Z</time>
</trkpt>
<trkpt lat="34.8960643" lon="33.6384736">
<ele>15.02</ele>
<time>2015-05-02T15:40:25Z</time>
</trkpt>
<trkpt lat="34.8960098" lon="33.6384811">
<ele>15.02</ele>
<time>2015-05-02T15:40:29Z</time>
</trkpt>
<trkpt lat="34.8959559" lon="33.6384911">
<ele>14.27</ele>
<time>2015-05-02T15:40:33Z</time>
</trkpt>
<trkpt lat="34.8959110" lon="33.6385052">
<ele>14.05</ele>
<time>2015-05-02T15:40:36Z</time>
</trkpt>
<trkpt lat="34.8958654" lon="33.6385185">
<ele>14.52</ele>
<time>2015-05-02T15:40:39Z</time>
</trkpt>
<trkpt lat="34.8958212" lon="33.6385329">
<ele>14.20</ele>
<time>2015-05-02T15:40:42Z</time>
</trkpt>
<trkpt lat="34.8957741" lon="33.6385420">
<ele>14.04</ele>
<time>2015-05-02T15:40:45Z</time>
</trkpt>
<trkpt lat="34.8957247" lon="33.6385445">
<ele>14.52</ele>
<time>2015-05-02T15:40:48Z</time>
</trkpt>
<trkpt lat="34.8956644" lon="33.6385425">
<ele>14.98</ele>
<time>2015-05-02T15:40:52Z</time>
</trkpt>
<trkpt lat="34.8956193" lon="33.6385394">
<ele>15.01</ele>
<time>2015-05-02T15:40:55Z</time>
</trkpt>
<trkpt lat="34.8955727" lon="33.6385409">
<ele>15.27</ele>
<time>2015-05-02T15:40:58Z</time>
</trkpt>
<trkpt lat="34.8955258" lon="33.6385360">
<ele>14.67</ele>
<time>2015-05-02T15:41:01Z</time>
</trkpt>
<trkpt lat="34.8954662" lon="33.6385392">
<ele>14.99</ele>
<time>2015-05-02T15:41:05Z</time>
</trkpt>
<trkpt lat="34.8954196" lon="33.6385374">
<ele>15.76</ele>
<time>2015-05-02T15:41:08Z</time>
</trkpt>
<trkpt lat="34.8953729" lon="33.6385376">
<ele>16.48</ele>
<time>2015-05-02T15:41:11Z</time>
</trkpt>
<trkpt lat="34.8953188" lon="33.6385426">
<ele>16.36</ele>
<time>2015-05-02T15:41:15Z</time>
</trkpt>
<trkpt lat="34.8952800" lon="33.6385026">
<ele>14.08</ele>
<time>2015-05-02T15:41:32Z</time>
</trkpt>
<trkpt lat="34.8952454" lon="33.6384507">
<ele>12.71</ele>
<time>2015-05-02T15:41:36Z</time>
</trkpt>
<trkpt lat="34.8951876" lon="33.6384415">
<ele>10.43</ele>
<time>2015-05-02T15:41:40Z</time>
</trkpt>
<trkpt lat="34.8951399" lon="33.6384235">
<ele>11.42</ele>
<time>2015-05-02T15:41:44Z</time>
</trkpt>
<trkpt lat="34.8950876" lon="33.6384178">
<ele>11.48</ele>
<time>2015-05-02T15:41:48Z</time>
</trkpt>
<trkpt lat="34.8950418" lon="33.6384235">
<ele>11.84</ele>
<time>2015-05-02T15:41:53Z</time>
</trkpt>
<trkpt lat="34.8949924" lon="33.6384215">
<ele>11.04</ele>
<time>2015-05-02T15:41:58Z</time>
</trkpt>
<trkpt lat="34.8949478" lon="33.6384571">
<ele>10.65</ele>
<time>2015-05-02T15:42:05Z</time>
</trkpt>
<trkpt lat="34.8948986" lon="33.6384683">
<ele>10.93</ele>
<time>2015-05-02T15:42:09Z</time>
</trkpt>
<trkpt lat="34.8948437" lon="33.6384695">
<ele>11.07</ele>
<time>2015-05-02T15:42:13Z</time>
</trkpt>
<trkpt lat="34.8947881" lon="33.6384683">
<ele>11.02</ele>
<time>2015-05-02T15:42:17Z</time>
</trkpt>
<trkpt lat="34.8947425" lon="33.6384646">
<ele>11.02</ele>
<time>2015-05-02T15:42:20Z</time>
</trkpt>
<trkpt lat="34.8946954" lon="33.6384608">
<ele>11.77</ele>
<time>2015-05-02T15:42:23Z</time>
</trkpt>
<trkpt lat="34.8946473" lon="33.6384608">
<ele>11.98</ele>
<time>2015-05-02T15:42:26Z</time>
</trkpt>
<trkpt lat="34.8946122" lon="33.6384951">
<ele>9.04</ele>
<time>2015-05-02T15:42:39Z</time>
</trkpt>
<trkpt lat="34.8945624" lon="33.6385048">
<ele>8.27</ele>
<time>2015-05-02T15:42:42Z</time>
</trkpt>
<trkpt lat="34.8945179" lon="33.6385226">
<ele>7.42</ele>
<time>2015-05-02T15:42:45Z</time>
</trkpt>
<trkpt lat="34.8944715" lon="33.6385304">
<ele>8.44</ele>
<time>2015-05-02T15:42:48Z</time>
</trkpt>
<trkpt lat="34.8944251" lon="33.6385329">
<ele>8.44</ele>
<time>2015-05-02T15:42:51Z</time>
</trkpt>
<trkpt lat="34.8943818" lon="33.6385486">
<ele>7.32</ele>
<time>2015-05-02T15:42:54Z</time>
</trkpt>
<trkpt lat="34.8943242" lon="33.6385479">
<ele>7.47</ele>
<time>2015-05-02T15:42:58Z</time>
</trkpt>
<trkpt lat="34.8942656" lon="33.6385456">
<ele>7.98</ele>
<time>2015-05-02T15:43:02Z</time>
</trkpt>
<trkpt lat="34.8942064" lon="33.6385429">
<ele>8.95</ele>
<time>2015-05-02T15:43:06Z</time>
</trkpt>
<trkpt lat="34.8941560" lon="33.6385510">
<ele>9.01</ele>
<time>2015-05-02T15:43:10Z</time>
</trkpt>
<trkpt lat="34.8941075" lon="33.6385514">
<ele>9.95</ele>
<time>2015-05-02T15:43:14Z</time>
</trkpt>
<trkpt lat="34.8940558" lon="33.6385550">
<ele>11.10</ele>
<time>2015-05-02T15:43:25Z</time>
</trkpt>
<trkpt lat="34.8940105" lon="33.6385629">
<ele>11.77</ele>
<time>2015-05-02T15:43:29Z</time>
</trkpt>
<trkpt lat="34.8939597" lon="33.6385689">
<ele>12.06</ele>
<time>2015-05-02T15:43:33Z</time>
</trkpt>
<trkpt lat="34.8939092" lon="33.6385734">
<ele>12.83</ele>
<time>2015-05-02T15:43:37Z</time>
</trkpt>
<trkpt lat="34.8938563" lon="33.6385844">
<ele>13.00</ele>
<time>2015-05-02T15:43:41Z</time>
</trkpt>
<trkpt lat="34.8938087" lon="33.6385931">
<ele>13.02</ele>
<time>2015-05-02T15:43:45Z</time>
</trkpt>
<trkpt lat="34.8937601" lon="33.6385747">
<ele>13.02</ele>
<time>2015-05-02T15:43:49Z</time>
</trkpt>
<trkpt lat="34.8937236" lon="33.6385232">
<ele>11.64</ele>
<time>2015-05-02T15:43:53Z</time>
</trkpt>
<trkpt lat="34.8936659" lon="33.6385338">
<ele>12.87</ele>
<time>2015-05-02T15:43:57Z</time>
</trkpt>
<trkpt lat="34.8936188" lon="33.6385516">
<ele>13.12</ele>
<time>2015-05-02T15:44:00Z</time>
</trkpt>
<trkpt lat="34.8935744" lon="33.6385648">
<ele>13.90</ele>
<time>2015-05-02T15:44:03Z</time>
</trkpt>
<trkpt lat="34.8935304" lon="33.6385780">
<ele>14.00</ele>
<time>2015-05-02T15:44:06Z</time>
</trkpt>
<trkpt lat="34.8934744" lon="33.6385898">
<ele>14.02</ele>
<time>2015-05-02T15:44:10Z</time>
</trkpt>
<trkpt lat="34.8934189" lon="33.6385918">
<ele>14.95</ele>
<time>2015-05-02T15:44:14Z</time>
</trkpt>
<trkpt lat="34.8933617" lon="33.6385930">
<ele>15.01</ele>
<time>2015-05-02T15:44:18Z</time>
</trkpt>
<trkpt lat="34.8933095" lon="33.6385898">
<ele>14.64</ele>
<time>2015-05-02T15:44:22Z</time>
</trkpt>
<trkpt lat="34.8932611" lon="33.6385873">
<ele>15.01</ele>
<time>2015-05-02T15:44:28Z</time>
</trkpt>
<trkpt lat="34.8932141" lon="33.6385762">
<ele>14.64</ele>
<time>2015-05-02T15:44:32Z</time>
</trkpt>
<trkpt lat="34.8931565" lon="33.6385642">
<ele>14.99</ele>
<time>2015-05-02T15:44:36Z</time>
</trkpt>
<trkpt lat="34.8931033" lon="33.6385510">
<ele>16.70</ele>
<time>2015-05-02T15:44:40Z</time>
</trkpt>
<trkpt lat="34.8930527" lon="33.6385299">
<ele>15.31</ele>
<time>2015-05-02T15:44:44Z</time>
</trkpt>
<trkpt lat="34.8929966" lon="33.6385225">
<ele>15.91</ele>
<time>2015-05-02T15:44:48Z</time>
</trkpt>
<trkpt lat="34.8929468" lon="33.6385123">
<ele>15.88</ele>
<time>2015-05-02T15:44:52Z</time>
</trkpt>
<trkpt lat="34.8928965" lon="33.6385070">
<ele>15.70</ele>
<time>2015-05-02T15:44:56Z</time>
</trkpt>
<trkpt lat="34.8928448" lon="33.6384818">
<ele>15.37</ele>
<time>2015-05-02T15:45:00Z</time>
</trkpt>
<trkpt lat="34.8928140" lon="33.6384405">
<ele>13.81</ele>
<time>2015-05-02T15:45:03Z</time>
</trkpt>
<trkpt lat="34.8927806" lon="33.6384034">
<ele>13.74</ele>
<time>2015-05-02T15:45:06Z</time>
</trkpt>
<trkpt lat="34.8927278" lon="33.6383745">
<ele>14.19</ele>
<time>2015-05-02T15:45:10Z</time>
</trkpt>
<trkpt lat="34.8926772" lon="33.6383421">
<ele>14.21</ele>
<time>2015-05-02T15:45:14Z</time>
</trkpt>
<trkpt lat="34.8926210" lon="33.6383266">
<ele>15.40</ele>
<time>2015-05-02T15:45:18Z</time>
</trkpt>
<trkpt lat="34.8925708" lon="33.6383169">
<ele>16.92</ele>
<time>2015-05-02T15:45:22Z</time>
</trkpt>
<trkpt lat="34.8925243" lon="33.6383017">
<ele>17.51</ele>
<time>2015-05-02T15:45:26Z</time>
</trkpt>
<trkpt lat="34.8924702" lon="33.6382819">
<ele>17.61</ele>
<time>2015-05-02T15:45:30Z</time>
</trkpt>
<trkpt lat="34.8924208" lon="33.6382522">
<ele>17.80</ele>
<time>2015-05-02T15:45:34Z</time>
</trkpt>
<trkpt lat="34.8923694" lon="33.6382228">
<ele>17.50</ele>
<time>2015-05-02T15:45:38Z</time>
</trkpt>
<trkpt lat="34.8923267" lon="33.6381812">
<ele>17.98</ele>
<time>2015-05-02T15:45:42Z</time>
</trkpt>
<trkpt lat="34.8922756" lon="33.6381429">
<ele>18.01</ele>
<time>2015-05-02T15:45:46Z</time>
</trkpt>
<trkpt lat="34.8922244" lon="33.6381054">
<ele>17.27</ele>
<time>2015-05-02T15:45:50Z</time>
</trkpt>
<trkpt lat="34.8921884" lon="33.6380641">
<ele>16.81</ele>
<time>2015-05-02T15:45:57Z</time>
</trkpt>
<trkpt lat="34.8921490" lon="33.6380142">
<ele>15.38</ele>
<time>2015-05-02T15:46:01Z</time>
</trkpt>
<trkpt lat="34.8921245" lon="33.6379508">
<ele>13.66</ele>
<time>2015-05-02T15:46:05Z</time>
</trkpt>
<trkpt lat="34.8920971" lon="33.6378896">
<ele>12.87</ele>
<time>2015-05-02T15:46:09Z</time>
</trkpt>
<trkpt lat="34.8920704" lon="33.6378384">
<ele>13.88</ele>
<time>2015-05-02T15:46:13Z</time>
</trkpt>
<trkpt lat="34.8920454" lon="33.6377761">
<ele>13.07</ele>
<time>2015-05-02T15:46:17Z</time>
</trkpt>
<trkpt lat="34.8920129" lon="33.6377213">
<ele>13.14</ele>
<time>2015-05-02T15:46:21Z</time>
</trkpt>
<trkpt lat="34.8919761" lon="33.6376740">
<ele>12.52</ele>
<time>2015-05-02T15:46:25Z</time>
</trkpt>
<trkpt lat="34.8919520" lon="33.6376094">
<ele>11.67</ele>
<time>2015-05-02T15:46:29Z</time>
</trkpt>
<trkpt lat="34.8919248" lon="33.6375440">
<ele>12.43</ele>
<time>2015-05-02T15:46:33Z</time>
</trkpt>
<trkpt lat="34.8919025" lon="33.6374784">
<ele>11.92</ele>
<time>2015-05-02T15:46:37Z</time>
</trkpt>
<trkpt lat="34.8918838" lon="33.6374184">
<ele>12.95</ele>
<time>2015-05-02T15:46:47Z</time>
</trkpt>
<trkpt lat="34.8918723" lon="33.6373582">
<ele>13.88</ele>
<time>2015-05-02T15:46:50Z</time>
</trkpt>
<trkpt lat="34.8918631" lon="33.6372971">
<ele>13.98</ele>
<time>2015-05-02T15:46:52Z</time>
</trkpt>
<trkpt lat="34.8918575" lon="33.6372326">
<ele>14.51</ele>
<time>2015-05-02T15:46:54Z</time>
</trkpt>
<trkpt lat="34.8918582" lon="33.6371740">
<ele>14.89</ele>
<time>2015-05-02T15:46:56Z</time>
</trkpt>
<trkpt lat="34.8918642" lon="33.6371122">
<ele>14.48</ele>
<time>2015-05-02T15:46:58Z</time>
</trkpt>
<trkpt lat="34.8918740" lon="33.6370537">
<ele>14.63</ele>
<time>2015-05-02T15:47:00Z</time>
</trkpt>
<trkpt lat="34.8918759" lon="33.6369731">
<ele>14.59</ele>
<time>2015-05-02T15:47:03Z</time>
</trkpt>
<trkpt lat="34.8918653" lon="33.6368943">
<ele>14.96</ele>
<time>2015-05-02T15:47:06Z</time>
</trkpt>
<trkpt lat="34.8918340" lon="33.6368274">
<ele>15.26</ele>
<time>2015-05-02T15:47:09Z</time>
</trkpt>
<trkpt lat="34.8917912" lon="33.6367843">
<ele>14.55</ele>
<time>2015-05-02T15:47:12Z</time>
</trkpt>
<trkpt lat="34.8917515" lon="33.6367553">
<ele>13.33</ele>
<time>2015-05-02T15:47:15Z</time>
</trkpt>
<trkpt lat="34.8917199" lon="33.6367066">
<ele>12.18</ele>
<time>2015-05-02T15:47:18Z</time>
</trkpt>
<trkpt lat="34.8916959" lon="33.6366351">
<ele>11.79</ele>
<time>2015-05-02T15:47:21Z</time>
</trkpt>
<trkpt lat="34.8916744" lon="33.6365599">
<ele>11.11</ele>
<time>2015-05-02T15:47:24Z</time>
</trkpt>
<trkpt lat="34.8916572" lon="33.6364828">
<ele>11.03</ele>
<time>2015-05-02T15:47:27Z</time>
</trkpt>
<trkpt lat="34.8916475" lon="33.6364244">
<ele>10.52</ele>
<time>2015-05-02T15:47:29Z</time>
</trkpt>
<trkpt lat="34.8916393" lon="33.6363641">
<ele>10.14</ele>
<time>2015-05-02T15:47:31Z</time>
</trkpt>
<trkpt lat="34.8916335" lon="33.6363020">
<ele>9.30</ele>
<time>2015-05-02T15:47:33Z</time>
</trkpt>
<trkpt lat="34.8916243" lon="33.6362456">
<ele>9.34</ele>
<time>2015-05-02T15:47:35Z</time>
</trkpt>
<trkpt lat="34.8915997" lon="33.6361854">
<ele>8.56</ele>
<time>2015-05-02T15:47:38Z</time>
</trkpt>
<trkpt lat="34.8915853" lon="33.6361264">
<ele>10.69</ele>
<time>2015-05-02T15:47:48Z</time>
</trkpt>
<trkpt lat="34.8915711" lon="33.6360728">
<ele>10.47</ele>
<time>2015-05-02T15:47:51Z</time>
</trkpt>
<trkpt lat="34.8915508" lon="33.6360134">
<ele>9.29</ele>
<time>2015-05-02T15:47:59Z</time>
</trkpt>
<trkpt lat="34.8915279" lon="33.6359598">
<ele>9.24</ele>
<time>2015-05-02T15:48:04Z</time>
</trkpt>
<trkpt lat="34.8915099" lon="33.6358978">
<ele>11.98</ele>
<time>2015-05-02T15:48:13Z</time>
</trkpt>
<trkpt lat="34.8914965" lon="33.6358388">
<ele>9.90</ele>
<time>2015-05-02T15:48:22Z</time>
</trkpt>
<trkpt lat="34.8914802" lon="33.6357837">
<ele>9.63</ele>
<time>2015-05-02T15:48:25Z</time>
</trkpt>
<trkpt lat="34.8914694" lon="33.6357195">
<ele>8.72</ele>
<time>2015-05-02T15:48:28Z</time>
</trkpt>
<trkpt lat="34.8914586" lon="33.6356482">
<ele>6.43</ele>
<time>2015-05-02T15:48:32Z</time>
</trkpt>
<trkpt lat="34.8914561" lon="33.6355818">
<ele>6.57</ele>
<time>2015-05-02T15:48:35Z</time>
</trkpt>
<trkpt lat="34.8914573" lon="33.6355053">
<ele>7.46</ele>
<time>2015-05-02T15:48:38Z</time>
</trkpt>
<trkpt lat="34.8914633" lon="33.6354276">
<ele>8.70</ele>
<time>2015-05-02T15:48:41Z</time>
</trkpt>
<trkpt lat="34.8914749" lon="33.6353494">
<ele>9.85</ele>
<time>2015-05-02T15:48:44Z</time>
</trkpt>
<trkpt lat="34.8914876" lon="33.6352915">
<ele>9.72</ele>
<time>2015-05-02T15:48:46Z</time>
</trkpt>
<trkpt lat="34.8915051" lon="33.6352302">
<ele>9.94</ele>
<time>2015-05-02T15:48:48Z</time>
</trkpt>
<trkpt lat="34.8915321" lon="33.6351628">
<ele>10.75</ele>
<time>2015-05-02T15:48:50Z</time>
</trkpt>
<trkpt lat="34.8915627" lon="33.6351004">
<ele>11.70</ele>
<time>2015-05-02T15:48:52Z</time>
</trkpt>
<trkpt lat="34.8915945" lon="33.6350470">
<ele>12.44</ele>
<time>2015-05-02T15:48:54Z</time>
</trkpt>
<trkpt lat="34.8916271" lon="33.6349994">
<ele>12.87</ele>
<time>2015-05-02T15:48:56Z</time>
</trkpt>
<trkpt lat="34.8916750" lon="33.6349674">
<ele>14.37</ele>
<time>2015-05-02T15:48:59Z</time>
</trkpt>
<trkpt lat="34.8917190" lon="33.6349374">
<ele>14.94</ele>
<time>2015-05-02T15:49:02Z</time>
</trkpt>
<trkpt lat="34.8917764" lon="33.6349091">
<ele>15.88</ele>
<time>2015-05-02T15:49:05Z</time>
</trkpt>
<trkpt lat="34.8918234" lon="33.6348838">
<ele>16.87</ele>
<time>2015-05-02T15:49:08Z</time>
</trkpt>
<trkpt lat="34.8918745" lon="33.6348626">
<ele>18.00</ele>
<time>2015-05-02T15:49:32Z</time>
</trkpt>
<trkpt lat="34.8919261" lon="33.6348361">
<ele>18.95</ele>
<time>2015-05-02T15:49:36Z</time>
</trkpt>
<trkpt lat="34.8919740" lon="33.6348080">
<ele>19.01</ele>
<time>2015-05-02T15:49:40Z</time>
</trkpt>
<trkpt lat="34.8920204" lon="33.6347749">
<ele>19.95</ele>
<time>2015-05-02T15:49:44Z</time>
</trkpt>
<trkpt lat="34.8920726" lon="33.6347625">
<ele>20.01</ele>
<time>2015-05-02T15:49:48Z</time>
</trkpt>
<trkpt lat="34.8921211" lon="33.6347451">
<ele>21.08</ele>
<time>2015-05-02T15:49:52Z</time>
</trkpt>
<trkpt lat="34.8921667" lon="33.6347275">
<ele>23.96</ele>
<time>2015-05-02T15:49:56Z</time>
</trkpt>
<trkpt lat="34.8922145" lon="33.6347118">
<ele>23.70</ele>
<time>2015-05-02T15:50:00Z</time>
</trkpt>
<trkpt lat="34.8922522" lon="33.6346648">
<ele>24.75</ele>
<time>2015-05-02T15:50:04Z</time>
</trkpt>
<trkpt lat="34.8922956" lon="33.6346236">
<ele>26.25</ele>
<time>2015-05-02T15:50:08Z</time>
</trkpt>
<trkpt lat="34.8923439" lon="33.6345930">
<ele>27.72</ele>
<time>2015-05-02T15:50:12Z</time>
</trkpt>
<trkpt lat="34.8923854" lon="33.6345600">
<ele>27.06</ele>
<time>2015-05-02T15:50:16Z</time>
</trkpt>
<trkpt lat="34.8924414" lon="33.6345533">
<ele>25.52</ele>
<time>2015-05-02T15:50:21Z</time>
</trkpt>
<trkpt lat="34.8924883" lon="33.6345487">
<ele>23.17</ele>
<time>2015-05-02T15:50:25Z</time>
</trkpt>
<trkpt lat="34.8925336" lon="33.6345265">
<ele>23.03</ele>
<time>2015-05-02T15:50:29Z</time>
</trkpt>
<trkpt lat="34.8925806" lon="33.6345001">
<ele>23.39</ele>
<time>2015-05-02T15:50:33Z</time>
</trkpt>
<trkpt lat="34.8926215" lon="33.6344648">
<ele>23.04</ele>
<time>2015-05-02T15:50:37Z</time>
</trkpt>
<trkpt lat="34.8926664" lon="33.6344326">
<ele>21.67</ele>
<time>2015-05-02T15:50:42Z</time>
</trkpt>
<trkpt lat="34.8927109" lon="33.6344100">
<ele>23.68</ele>
<time>2015-05-02T15:50:46Z</time>
</trkpt>
<trkpt lat="34.8927591" lon="33.6343880">
<ele>24.00</ele>
<time>2015-05-02T15:50:50Z</time>
</trkpt>
<trkpt lat="34.8928094" lon="33.6343912">
<ele>24.95</ele>
<time>2015-05-02T15:50:54Z</time>
</trkpt>
<trkpt lat="34.8928432" lon="33.6344287">
<ele>23.63</ele>
<time>2015-05-02T15:50:57Z</time>
</trkpt>
<trkpt lat="34.8928757" lon="33.6344884">
<ele>21.62</ele>
<time>2015-05-02T15:51:01Z</time>
</trkpt>
<trkpt lat="34.8928955" lon="33.6345509">
<ele>20.80</ele>
<time>2015-05-02T15:51:05Z</time>
</trkpt>
<trkpt lat="34.8929139" lon="33.6346122">
<ele>19.19</ele>
<time>2015-05-02T15:51:09Z</time>
</trkpt>
<trkpt lat="34.8929371" lon="33.6346749">
<ele>18.15</ele>
<time>2015-05-02T15:51:13Z</time>
</trkpt>
<trkpt lat="34.8929548" lon="33.6347377">
<ele>17.16</ele>
<time>2015-05-02T15:51:17Z</time>
</trkpt>
<trkpt lat="34.8929718" lon="33.6347988">
<ele>17.02</ele>
<time>2015-05-02T15:51:21Z</time>
</trkpt>
<trkpt lat="34.8929800" lon="33.6348638">
<ele>16.52</ele>
<time>2015-05-02T15:51:25Z</time>
</trkpt>
<trkpt lat="34.8929682" lon="33.6349293">
<ele>16.30</ele>
<time>2015-05-02T15:51:29Z</time>
</trkpt>
<trkpt lat="34.8929369" lon="33.6349761">
<ele>17.53</ele>
<time>2015-05-02T15:51:33Z</time>
</trkpt>
<trkpt lat="34.8928908" lon="33.6350150">
<ele>18.72</ele>
<time>2015-05-02T15:51:38Z</time>
</trkpt>
<trkpt lat="34.8928467" lon="33.6350362">
<ele>20.37</ele>
<time>2015-05-02T15:51:42Z</time>
</trkpt>
<trkpt lat="34.8928010" lon="33.6350589">
<ele>24.66</ele>
<time>2015-05-02T15:51:46Z</time>
</trkpt>
<trkpt lat="34.8927940" lon="33.6351249">
<ele>22.91</ele>
<time>2015-05-02T15:51:51Z</time>
</trkpt>
<trkpt lat="34.8928083" lon="33.6351882">
<ele>21.20</ele>
<time>2015-05-02T15:51:55Z</time>
</trkpt>
<trkpt lat="34.8928074" lon="33.6352445">
<ele>21.46</ele>
<time>2015-05-02T15:53:28Z</time>
</trkpt>
<trkpt lat="34.8928424" lon="33.6352056">
<ele>21.97</ele>
<time>2015-05-02T15:53:51Z</time>
</trkpt>
</trkseg>
</trk>
</gpx>
